<?xml version="1.0" encoding="UTF-8"?>
<gpx xmlns="http://www.topografix.com/GPX/1/1"
     creator="GpsDumpMac 0.29"
     version="1.1"
     xmlns:xsi="http://www.w3.org/2001/XMLSchema-instance"
     xsi:schemaLocation="http://www.topografix.com/GPX/1/1 http://www.topografix.com/GPX/1/1/gpx.xsd">
  <metadata>
    <link href="http://www.gethome.no/stein.sorensen/">
      <text>GPS dump for www.flightlog.org</text>
    </link>
    <time>2018-09-04T07:45:35Z</time>
    <bounds minlat="41.028450" minlon="-3.767467" maxlat="41.188117" maxlon="-3.578933"/>
  </metadata>
  <trk>
    <name>Track 001</name>
    <trkseg>
      <trkpt lat="41.077233" lon="-3.708000">
        <ele>1848.0</ele>
        <time>2018-07-21T11:12:15Z</time>
      </trkpt>
      <trkpt lat="41.077300" lon="-3.708000">
        <ele>1849.0</ele>
        <time>2018-07-21T11:12:16Z</time>
      </trkpt>
      <trkpt lat="41.077333" lon="-3.708000">
        <ele>1850.0</ele>
        <time>2018-07-21T11:12:17Z</time>
      </trkpt>
      <trkpt lat="41.077367" lon="-3.708017">
        <ele>1851.0</ele>
        <time>2018-07-21T11:12:18Z</time>
      </trkpt>
      <trkpt lat="41.077383" lon="-3.708050">
        <ele>1850.0</ele>
        <time>2018-07-21T11:12:19Z</time>
      </trkpt>
      <trkpt lat="41.077400" lon="-3.708083">
        <ele>1850.0</ele>
        <time>2018-07-21T11:12:20Z</time>
      </trkpt>
      <trkpt lat="41.077433" lon="-3.708100">
        <ele>1849.0</ele>
        <time>2018-07-21T11:12:21Z</time>
      </trkpt>
      <trkpt lat="41.077483" lon="-3.708133">
        <ele>1848.0</ele>
        <time>2018-07-21T11:12:22Z</time>
      </trkpt>
      <trkpt lat="41.077517" lon="-3.708167">
        <ele>1847.0</ele>
        <time>2018-07-21T11:12:23Z</time>
      </trkpt>
      <trkpt lat="41.077533" lon="-3.708217">
        <ele>1847.0</ele>
        <time>2018-07-21T11:12:24Z</time>
      </trkpt>
      <trkpt lat="41.077567" lon="-3.708267">
        <ele>1846.0</ele>
        <time>2018-07-21T11:12:25Z</time>
      </trkpt>
      <trkpt lat="41.077600" lon="-3.708317">
        <ele>1846.0</ele>
        <time>2018-07-21T11:12:26Z</time>
      </trkpt>
      <trkpt lat="41.077650" lon="-3.708383">
        <ele>1846.0</ele>
        <time>2018-07-21T11:12:27Z</time>
      </trkpt>
      <trkpt lat="41.077683" lon="-3.708433">
        <ele>1847.0</ele>
        <time>2018-07-21T11:12:28Z</time>
      </trkpt>
      <trkpt lat="41.077700" lon="-3.708483">
        <ele>1848.0</ele>
        <time>2018-07-21T11:12:29Z</time>
      </trkpt>
      <trkpt lat="41.077717" lon="-3.708550">
        <ele>1849.0</ele>
        <time>2018-07-21T11:12:30Z</time>
      </trkpt>
      <trkpt lat="41.077717" lon="-3.708600">
        <ele>1848.0</ele>
        <time>2018-07-21T11:12:31Z</time>
      </trkpt>
      <trkpt lat="41.077733" lon="-3.708667">
        <ele>1847.0</ele>
        <time>2018-07-21T11:12:32Z</time>
      </trkpt>
      <trkpt lat="41.077750" lon="-3.708750">
        <ele>1846.0</ele>
        <time>2018-07-21T11:12:33Z</time>
      </trkpt>
      <trkpt lat="41.077783" lon="-3.708817">
        <ele>1845.0</ele>
        <time>2018-07-21T11:12:34Z</time>
      </trkpt>
      <trkpt lat="41.077800" lon="-3.708900">
        <ele>1844.0</ele>
        <time>2018-07-21T11:12:35Z</time>
      </trkpt>
      <trkpt lat="41.077817" lon="-3.709000">
        <ele>1844.0</ele>
        <time>2018-07-21T11:12:36Z</time>
      </trkpt>
      <trkpt lat="41.077800" lon="-3.709100">
        <ele>1844.0</ele>
        <time>2018-07-21T11:12:37Z</time>
      </trkpt>
      <trkpt lat="41.077783" lon="-3.709200">
        <ele>1844.0</ele>
        <time>2018-07-21T11:12:38Z</time>
      </trkpt>
      <trkpt lat="41.077750" lon="-3.709317">
        <ele>1845.0</ele>
        <time>2018-07-21T11:12:39Z</time>
      </trkpt>
      <trkpt lat="41.077733" lon="-3.709417">
        <ele>1845.0</ele>
        <time>2018-07-21T11:12:40Z</time>
      </trkpt>
      <trkpt lat="41.077700" lon="-3.709517">
        <ele>1846.0</ele>
        <time>2018-07-21T11:12:41Z</time>
      </trkpt>
      <trkpt lat="41.077667" lon="-3.709617">
        <ele>1847.0</ele>
        <time>2018-07-21T11:12:42Z</time>
      </trkpt>
      <trkpt lat="41.077617" lon="-3.709717">
        <ele>1847.0</ele>
        <time>2018-07-21T11:12:43Z</time>
      </trkpt>
      <trkpt lat="41.077567" lon="-3.709817">
        <ele>1848.0</ele>
        <time>2018-07-21T11:12:44Z</time>
      </trkpt>
      <trkpt lat="41.077533" lon="-3.709917">
        <ele>1849.0</ele>
        <time>2018-07-21T11:12:45Z</time>
      </trkpt>
      <trkpt lat="41.077500" lon="-3.710017">
        <ele>1850.0</ele>
        <time>2018-07-21T11:12:46Z</time>
      </trkpt>
      <trkpt lat="41.077450" lon="-3.710117">
        <ele>1852.0</ele>
        <time>2018-07-21T11:12:47Z</time>
      </trkpt>
      <trkpt lat="41.077383" lon="-3.710200">
        <ele>1853.0</ele>
        <time>2018-07-21T11:12:48Z</time>
      </trkpt>
      <trkpt lat="41.077317" lon="-3.710300">
        <ele>1854.0</ele>
        <time>2018-07-21T11:12:49Z</time>
      </trkpt>
      <trkpt lat="41.077233" lon="-3.710400">
        <ele>1855.0</ele>
        <time>2018-07-21T11:12:50Z</time>
      </trkpt>
      <trkpt lat="41.077183" lon="-3.710517">
        <ele>1856.0</ele>
        <time>2018-07-21T11:12:51Z</time>
      </trkpt>
      <trkpt lat="41.077133" lon="-3.710617">
        <ele>1857.0</ele>
        <time>2018-07-21T11:12:52Z</time>
      </trkpt>
      <trkpt lat="41.077083" lon="-3.710700">
        <ele>1859.0</ele>
        <time>2018-07-21T11:12:53Z</time>
      </trkpt>
      <trkpt lat="41.077033" lon="-3.710783">
        <ele>1860.0</ele>
        <time>2018-07-21T11:12:54Z</time>
      </trkpt>
      <trkpt lat="41.076967" lon="-3.710850">
        <ele>1860.0</ele>
        <time>2018-07-21T11:12:55Z</time>
      </trkpt>
      <trkpt lat="41.076917" lon="-3.710933">
        <ele>1859.0</ele>
        <time>2018-07-21T11:12:56Z</time>
      </trkpt>
      <trkpt lat="41.076850" lon="-3.711033">
        <ele>1859.0</ele>
        <time>2018-07-21T11:12:57Z</time>
      </trkpt>
      <trkpt lat="41.076800" lon="-3.711133">
        <ele>1859.0</ele>
        <time>2018-07-21T11:12:58Z</time>
      </trkpt>
      <trkpt lat="41.076750" lon="-3.711233">
        <ele>1859.0</ele>
        <time>2018-07-21T11:12:59Z</time>
      </trkpt>
      <trkpt lat="41.076683" lon="-3.711333">
        <ele>1860.0</ele>
        <time>2018-07-21T11:13:00Z</time>
      </trkpt>
      <trkpt lat="41.076633" lon="-3.711433">
        <ele>1862.0</ele>
        <time>2018-07-21T11:13:01Z</time>
      </trkpt>
      <trkpt lat="41.076583" lon="-3.711517">
        <ele>1864.0</ele>
        <time>2018-07-21T11:13:02Z</time>
      </trkpt>
      <trkpt lat="41.076533" lon="-3.711600">
        <ele>1865.0</ele>
        <time>2018-07-21T11:13:03Z</time>
      </trkpt>
      <trkpt lat="41.076500" lon="-3.711667">
        <ele>1865.0</ele>
        <time>2018-07-21T11:13:04Z</time>
      </trkpt>
      <trkpt lat="41.076450" lon="-3.711750">
        <ele>1864.0</ele>
        <time>2018-07-21T11:13:05Z</time>
      </trkpt>
      <trkpt lat="41.076400" lon="-3.711833">
        <ele>1863.0</ele>
        <time>2018-07-21T11:13:06Z</time>
      </trkpt>
      <trkpt lat="41.076350" lon="-3.711933">
        <ele>1863.0</ele>
        <time>2018-07-21T11:13:07Z</time>
      </trkpt>
      <trkpt lat="41.076267" lon="-3.712017">
        <ele>1862.0</ele>
        <time>2018-07-21T11:13:08Z</time>
      </trkpt>
      <trkpt lat="41.076200" lon="-3.712100">
        <ele>1862.0</ele>
        <time>2018-07-21T11:13:09Z</time>
      </trkpt>
      <trkpt lat="41.076133" lon="-3.712183">
        <ele>1862.0</ele>
        <time>2018-07-21T11:13:10Z</time>
      </trkpt>
      <trkpt lat="41.076083" lon="-3.712283">
        <ele>1862.0</ele>
        <time>2018-07-21T11:13:11Z</time>
      </trkpt>
      <trkpt lat="41.076017" lon="-3.712367">
        <ele>1862.0</ele>
        <time>2018-07-21T11:13:12Z</time>
      </trkpt>
      <trkpt lat="41.075950" lon="-3.712450">
        <ele>1863.0</ele>
        <time>2018-07-21T11:13:13Z</time>
      </trkpt>
      <trkpt lat="41.075883" lon="-3.712517">
        <ele>1864.0</ele>
        <time>2018-07-21T11:13:14Z</time>
      </trkpt>
      <trkpt lat="41.075817" lon="-3.712600">
        <ele>1864.0</ele>
        <time>2018-07-21T11:13:15Z</time>
      </trkpt>
      <trkpt lat="41.075750" lon="-3.712667">
        <ele>1865.0</ele>
        <time>2018-07-21T11:13:16Z</time>
      </trkpt>
      <trkpt lat="41.075700" lon="-3.712750">
        <ele>1865.0</ele>
        <time>2018-07-21T11:13:17Z</time>
      </trkpt>
      <trkpt lat="41.075650" lon="-3.712833">
        <ele>1865.0</ele>
        <time>2018-07-21T11:13:18Z</time>
      </trkpt>
      <trkpt lat="41.075583" lon="-3.712917">
        <ele>1865.0</ele>
        <time>2018-07-21T11:13:19Z</time>
      </trkpt>
      <trkpt lat="41.075517" lon="-3.712983">
        <ele>1866.0</ele>
        <time>2018-07-21T11:13:20Z</time>
      </trkpt>
      <trkpt lat="41.075450" lon="-3.713067">
        <ele>1865.0</ele>
        <time>2018-07-21T11:13:21Z</time>
      </trkpt>
      <trkpt lat="41.075383" lon="-3.713133">
        <ele>1865.0</ele>
        <time>2018-07-21T11:13:22Z</time>
      </trkpt>
      <trkpt lat="41.075317" lon="-3.713217">
        <ele>1866.0</ele>
        <time>2018-07-21T11:13:23Z</time>
      </trkpt>
      <trkpt lat="41.075267" lon="-3.713300">
        <ele>1868.0</ele>
        <time>2018-07-21T11:13:24Z</time>
      </trkpt>
      <trkpt lat="41.075217" lon="-3.713383">
        <ele>1869.0</ele>
        <time>2018-07-21T11:13:25Z</time>
      </trkpt>
      <trkpt lat="41.075150" lon="-3.713450">
        <ele>1869.0</ele>
        <time>2018-07-21T11:13:26Z</time>
      </trkpt>
      <trkpt lat="41.075083" lon="-3.713517">
        <ele>1869.0</ele>
        <time>2018-07-21T11:13:27Z</time>
      </trkpt>
      <trkpt lat="41.075017" lon="-3.713600">
        <ele>1867.0</ele>
        <time>2018-07-21T11:13:28Z</time>
      </trkpt>
      <trkpt lat="41.074950" lon="-3.713683">
        <ele>1867.0</ele>
        <time>2018-07-21T11:13:29Z</time>
      </trkpt>
      <trkpt lat="41.074883" lon="-3.713783">
        <ele>1867.0</ele>
        <time>2018-07-21T11:13:30Z</time>
      </trkpt>
      <trkpt lat="41.074800" lon="-3.713867">
        <ele>1869.0</ele>
        <time>2018-07-21T11:13:31Z</time>
      </trkpt>
      <trkpt lat="41.074733" lon="-3.713950">
        <ele>1871.0</ele>
        <time>2018-07-21T11:13:32Z</time>
      </trkpt>
      <trkpt lat="41.074667" lon="-3.714000">
        <ele>1873.0</ele>
        <time>2018-07-21T11:13:33Z</time>
      </trkpt>
      <trkpt lat="41.074600" lon="-3.714083">
        <ele>1874.0</ele>
        <time>2018-07-21T11:13:34Z</time>
      </trkpt>
      <trkpt lat="41.074550" lon="-3.714150">
        <ele>1875.0</ele>
        <time>2018-07-21T11:13:35Z</time>
      </trkpt>
      <trkpt lat="41.074500" lon="-3.714217">
        <ele>1875.0</ele>
        <time>2018-07-21T11:13:36Z</time>
      </trkpt>
      <trkpt lat="41.074433" lon="-3.714300">
        <ele>1874.0</ele>
        <time>2018-07-21T11:13:37Z</time>
      </trkpt>
      <trkpt lat="41.074367" lon="-3.714383">
        <ele>1873.0</ele>
        <time>2018-07-21T11:13:38Z</time>
      </trkpt>
      <trkpt lat="41.074300" lon="-3.714467">
        <ele>1873.0</ele>
        <time>2018-07-21T11:13:39Z</time>
      </trkpt>
      <trkpt lat="41.074233" lon="-3.714533">
        <ele>1872.0</ele>
        <time>2018-07-21T11:13:40Z</time>
      </trkpt>
      <trkpt lat="41.074167" lon="-3.714617">
        <ele>1872.0</ele>
        <time>2018-07-21T11:13:41Z</time>
      </trkpt>
      <trkpt lat="41.074117" lon="-3.714700">
        <ele>1871.0</ele>
        <time>2018-07-21T11:13:42Z</time>
      </trkpt>
      <trkpt lat="41.074050" lon="-3.714783">
        <ele>1870.0</ele>
        <time>2018-07-21T11:13:43Z</time>
      </trkpt>
      <trkpt lat="41.073983" lon="-3.714867">
        <ele>1870.0</ele>
        <time>2018-07-21T11:13:44Z</time>
      </trkpt>
      <trkpt lat="41.073917" lon="-3.714933">
        <ele>1870.0</ele>
        <time>2018-07-21T11:13:45Z</time>
      </trkpt>
      <trkpt lat="41.073833" lon="-3.715000">
        <ele>1870.0</ele>
        <time>2018-07-21T11:13:46Z</time>
      </trkpt>
      <trkpt lat="41.073767" lon="-3.715067">
        <ele>1870.0</ele>
        <time>2018-07-21T11:13:47Z</time>
      </trkpt>
      <trkpt lat="41.073700" lon="-3.715133">
        <ele>1870.0</ele>
        <time>2018-07-21T11:13:48Z</time>
      </trkpt>
      <trkpt lat="41.073633" lon="-3.715217">
        <ele>1871.0</ele>
        <time>2018-07-21T11:13:49Z</time>
      </trkpt>
      <trkpt lat="41.073550" lon="-3.715283">
        <ele>1872.0</ele>
        <time>2018-07-21T11:13:50Z</time>
      </trkpt>
      <trkpt lat="41.073483" lon="-3.715367">
        <ele>1872.0</ele>
        <time>2018-07-21T11:13:51Z</time>
      </trkpt>
      <trkpt lat="41.073400" lon="-3.715433">
        <ele>1873.0</ele>
        <time>2018-07-21T11:13:52Z</time>
      </trkpt>
      <trkpt lat="41.073317" lon="-3.715517">
        <ele>1874.0</ele>
        <time>2018-07-21T11:13:53Z</time>
      </trkpt>
      <trkpt lat="41.073217" lon="-3.715600">
        <ele>1875.0</ele>
        <time>2018-07-21T11:13:54Z</time>
      </trkpt>
      <trkpt lat="41.073133" lon="-3.715683">
        <ele>1877.0</ele>
        <time>2018-07-21T11:13:55Z</time>
      </trkpt>
      <trkpt lat="41.073050" lon="-3.715750">
        <ele>1879.0</ele>
        <time>2018-07-21T11:13:56Z</time>
      </trkpt>
      <trkpt lat="41.072967" lon="-3.715783">
        <ele>1880.0</ele>
        <time>2018-07-21T11:13:57Z</time>
      </trkpt>
      <trkpt lat="41.072883" lon="-3.715833">
        <ele>1880.0</ele>
        <time>2018-07-21T11:13:58Z</time>
      </trkpt>
      <trkpt lat="41.072833" lon="-3.715883">
        <ele>1879.0</ele>
        <time>2018-07-21T11:13:59Z</time>
      </trkpt>
      <trkpt lat="41.072767" lon="-3.715950">
        <ele>1877.0</ele>
        <time>2018-07-21T11:14:00Z</time>
      </trkpt>
      <trkpt lat="41.072717" lon="-3.716050">
        <ele>1875.0</ele>
        <time>2018-07-21T11:14:01Z</time>
      </trkpt>
      <trkpt lat="41.072633" lon="-3.716133">
        <ele>1874.0</ele>
        <time>2018-07-21T11:14:02Z</time>
      </trkpt>
      <trkpt lat="41.072567" lon="-3.716217">
        <ele>1874.0</ele>
        <time>2018-07-21T11:14:03Z</time>
      </trkpt>
      <trkpt lat="41.072483" lon="-3.716283">
        <ele>1875.0</ele>
        <time>2018-07-21T11:14:04Z</time>
      </trkpt>
      <trkpt lat="41.072417" lon="-3.716367">
        <ele>1874.0</ele>
        <time>2018-07-21T11:14:05Z</time>
      </trkpt>
      <trkpt lat="41.072333" lon="-3.716450">
        <ele>1873.0</ele>
        <time>2018-07-21T11:14:06Z</time>
      </trkpt>
      <trkpt lat="41.072283" lon="-3.716550">
        <ele>1872.0</ele>
        <time>2018-07-21T11:14:07Z</time>
      </trkpt>
      <trkpt lat="41.072217" lon="-3.716633">
        <ele>1872.0</ele>
        <time>2018-07-21T11:14:08Z</time>
      </trkpt>
      <trkpt lat="41.072167" lon="-3.716733">
        <ele>1872.0</ele>
        <time>2018-07-21T11:14:09Z</time>
      </trkpt>
      <trkpt lat="41.072117" lon="-3.716833">
        <ele>1873.0</ele>
        <time>2018-07-21T11:14:10Z</time>
      </trkpt>
      <trkpt lat="41.072067" lon="-3.716933">
        <ele>1873.0</ele>
        <time>2018-07-21T11:14:11Z</time>
      </trkpt>
      <trkpt lat="41.072033" lon="-3.717033">
        <ele>1874.0</ele>
        <time>2018-07-21T11:14:12Z</time>
      </trkpt>
      <trkpt lat="41.071967" lon="-3.717133">
        <ele>1875.0</ele>
        <time>2018-07-21T11:14:13Z</time>
      </trkpt>
      <trkpt lat="41.071917" lon="-3.717217">
        <ele>1877.0</ele>
        <time>2018-07-21T11:14:14Z</time>
      </trkpt>
      <trkpt lat="41.071867" lon="-3.717317">
        <ele>1878.0</ele>
        <time>2018-07-21T11:14:15Z</time>
      </trkpt>
      <trkpt lat="41.071817" lon="-3.717400">
        <ele>1879.0</ele>
        <time>2018-07-21T11:14:16Z</time>
      </trkpt>
      <trkpt lat="41.071767" lon="-3.717500">
        <ele>1879.0</ele>
        <time>2018-07-21T11:14:17Z</time>
      </trkpt>
      <trkpt lat="41.071717" lon="-3.717583">
        <ele>1880.0</ele>
        <time>2018-07-21T11:14:18Z</time>
      </trkpt>
      <trkpt lat="41.071667" lon="-3.717683">
        <ele>1881.0</ele>
        <time>2018-07-21T11:14:19Z</time>
      </trkpt>
      <trkpt lat="41.071617" lon="-3.717783">
        <ele>1882.0</ele>
        <time>2018-07-21T11:14:20Z</time>
      </trkpt>
      <trkpt lat="41.071567" lon="-3.717883">
        <ele>1883.0</ele>
        <time>2018-07-21T11:14:21Z</time>
      </trkpt>
      <trkpt lat="41.071517" lon="-3.717983">
        <ele>1884.0</ele>
        <time>2018-07-21T11:14:22Z</time>
      </trkpt>
      <trkpt lat="41.071483" lon="-3.718117">
        <ele>1885.0</ele>
        <time>2018-07-21T11:14:23Z</time>
      </trkpt>
      <trkpt lat="41.071450" lon="-3.718233">
        <ele>1886.0</ele>
        <time>2018-07-21T11:14:24Z</time>
      </trkpt>
      <trkpt lat="41.071400" lon="-3.718350">
        <ele>1888.0</ele>
        <time>2018-07-21T11:14:25Z</time>
      </trkpt>
      <trkpt lat="41.071333" lon="-3.718450">
        <ele>1890.0</ele>
        <time>2018-07-21T11:14:26Z</time>
      </trkpt>
      <trkpt lat="41.071283" lon="-3.718550">
        <ele>1890.0</ele>
        <time>2018-07-21T11:14:27Z</time>
      </trkpt>
      <trkpt lat="41.071233" lon="-3.718617">
        <ele>1891.0</ele>
        <time>2018-07-21T11:14:28Z</time>
      </trkpt>
      <trkpt lat="41.071183" lon="-3.718700">
        <ele>1891.0</ele>
        <time>2018-07-21T11:14:29Z</time>
      </trkpt>
      <trkpt lat="41.071117" lon="-3.718750">
        <ele>1890.0</ele>
        <time>2018-07-21T11:14:30Z</time>
      </trkpt>
      <trkpt lat="41.071050" lon="-3.718817">
        <ele>1888.0</ele>
        <time>2018-07-21T11:14:31Z</time>
      </trkpt>
      <trkpt lat="41.070967" lon="-3.718867">
        <ele>1886.0</ele>
        <time>2018-07-21T11:14:32Z</time>
      </trkpt>
      <trkpt lat="41.070883" lon="-3.718950">
        <ele>1883.0</ele>
        <time>2018-07-21T11:14:33Z</time>
      </trkpt>
      <trkpt lat="41.070800" lon="-3.719017">
        <ele>1881.0</ele>
        <time>2018-07-21T11:14:34Z</time>
      </trkpt>
      <trkpt lat="41.070700" lon="-3.719100">
        <ele>1879.0</ele>
        <time>2018-07-21T11:14:35Z</time>
      </trkpt>
      <trkpt lat="41.070617" lon="-3.719183">
        <ele>1878.0</ele>
        <time>2018-07-21T11:14:36Z</time>
      </trkpt>
      <trkpt lat="41.070517" lon="-3.719267">
        <ele>1877.0</ele>
        <time>2018-07-21T11:14:37Z</time>
      </trkpt>
      <trkpt lat="41.070433" lon="-3.719333">
        <ele>1878.0</ele>
        <time>2018-07-21T11:14:38Z</time>
      </trkpt>
      <trkpt lat="41.070350" lon="-3.719417">
        <ele>1878.0</ele>
        <time>2018-07-21T11:14:39Z</time>
      </trkpt>
      <trkpt lat="41.070250" lon="-3.719483">
        <ele>1878.0</ele>
        <time>2018-07-21T11:14:40Z</time>
      </trkpt>
      <trkpt lat="41.070167" lon="-3.719583">
        <ele>1877.0</ele>
        <time>2018-07-21T11:14:41Z</time>
      </trkpt>
      <trkpt lat="41.070083" lon="-3.719667">
        <ele>1878.0</ele>
        <time>2018-07-21T11:14:42Z</time>
      </trkpt>
      <trkpt lat="41.070017" lon="-3.719767">
        <ele>1879.0</ele>
        <time>2018-07-21T11:14:43Z</time>
      </trkpt>
      <trkpt lat="41.069950" lon="-3.719850">
        <ele>1880.0</ele>
        <time>2018-07-21T11:14:44Z</time>
      </trkpt>
      <trkpt lat="41.069883" lon="-3.719933">
        <ele>1880.0</ele>
        <time>2018-07-21T11:14:45Z</time>
      </trkpt>
      <trkpt lat="41.069817" lon="-3.720017">
        <ele>1880.0</ele>
        <time>2018-07-21T11:14:46Z</time>
      </trkpt>
      <trkpt lat="41.069750" lon="-3.720117">
        <ele>1880.0</ele>
        <time>2018-07-21T11:14:47Z</time>
      </trkpt>
      <trkpt lat="41.069700" lon="-3.720217">
        <ele>1880.0</ele>
        <time>2018-07-21T11:14:48Z</time>
      </trkpt>
      <trkpt lat="41.069633" lon="-3.720317">
        <ele>1880.0</ele>
        <time>2018-07-21T11:14:49Z</time>
      </trkpt>
      <trkpt lat="41.069583" lon="-3.720433">
        <ele>1881.0</ele>
        <time>2018-07-21T11:14:50Z</time>
      </trkpt>
      <trkpt lat="41.069517" lon="-3.720533">
        <ele>1881.0</ele>
        <time>2018-07-21T11:14:51Z</time>
      </trkpt>
      <trkpt lat="41.069467" lon="-3.720650">
        <ele>1882.0</ele>
        <time>2018-07-21T11:14:52Z</time>
      </trkpt>
      <trkpt lat="41.069417" lon="-3.720750">
        <ele>1883.0</ele>
        <time>2018-07-21T11:14:53Z</time>
      </trkpt>
      <trkpt lat="41.069367" lon="-3.720850">
        <ele>1884.0</ele>
        <time>2018-07-21T11:14:54Z</time>
      </trkpt>
      <trkpt lat="41.069317" lon="-3.720933">
        <ele>1884.0</ele>
        <time>2018-07-21T11:14:55Z</time>
      </trkpt>
      <trkpt lat="41.069267" lon="-3.721017">
        <ele>1884.0</ele>
        <time>2018-07-21T11:14:56Z</time>
      </trkpt>
      <trkpt lat="41.069200" lon="-3.721100">
        <ele>1884.0</ele>
        <time>2018-07-21T11:14:57Z</time>
      </trkpt>
      <trkpt lat="41.069133" lon="-3.721200">
        <ele>1885.0</ele>
        <time>2018-07-21T11:14:58Z</time>
      </trkpt>
      <trkpt lat="41.069083" lon="-3.721283">
        <ele>1885.0</ele>
        <time>2018-07-21T11:14:59Z</time>
      </trkpt>
      <trkpt lat="41.069017" lon="-3.721367">
        <ele>1884.0</ele>
        <time>2018-07-21T11:15:00Z</time>
      </trkpt>
      <trkpt lat="41.068950" lon="-3.721467">
        <ele>1884.0</ele>
        <time>2018-07-21T11:15:01Z</time>
      </trkpt>
      <trkpt lat="41.068883" lon="-3.721550">
        <ele>1883.0</ele>
        <time>2018-07-21T11:15:02Z</time>
      </trkpt>
      <trkpt lat="41.068817" lon="-3.721650">
        <ele>1884.0</ele>
        <time>2018-07-21T11:15:03Z</time>
      </trkpt>
      <trkpt lat="41.068733" lon="-3.721733">
        <ele>1886.0</ele>
        <time>2018-07-21T11:15:04Z</time>
      </trkpt>
      <trkpt lat="41.068667" lon="-3.721800">
        <ele>1889.0</ele>
        <time>2018-07-21T11:15:05Z</time>
      </trkpt>
      <trkpt lat="41.068633" lon="-3.721883">
        <ele>1891.0</ele>
        <time>2018-07-21T11:15:06Z</time>
      </trkpt>
      <trkpt lat="41.068583" lon="-3.721950">
        <ele>1893.0</ele>
        <time>2018-07-21T11:15:07Z</time>
      </trkpt>
      <trkpt lat="41.068550" lon="-3.722017">
        <ele>1894.0</ele>
        <time>2018-07-21T11:15:08Z</time>
      </trkpt>
      <trkpt lat="41.068517" lon="-3.722100">
        <ele>1894.0</ele>
        <time>2018-07-21T11:15:09Z</time>
      </trkpt>
      <trkpt lat="41.068517" lon="-3.722183">
        <ele>1895.0</ele>
        <time>2018-07-21T11:15:10Z</time>
      </trkpt>
      <trkpt lat="41.068533" lon="-3.722267">
        <ele>1895.0</ele>
        <time>2018-07-21T11:15:11Z</time>
      </trkpt>
      <trkpt lat="41.068583" lon="-3.722333">
        <ele>1894.0</ele>
        <time>2018-07-21T11:15:12Z</time>
      </trkpt>
      <trkpt lat="41.068650" lon="-3.722367">
        <ele>1895.0</ele>
        <time>2018-07-21T11:15:13Z</time>
      </trkpt>
      <trkpt lat="41.068717" lon="-3.722367">
        <ele>1897.0</ele>
        <time>2018-07-21T11:15:14Z</time>
      </trkpt>
      <trkpt lat="41.068767" lon="-3.722333">
        <ele>1899.0</ele>
        <time>2018-07-21T11:15:15Z</time>
      </trkpt>
      <trkpt lat="41.068817" lon="-3.722267">
        <ele>1899.0</ele>
        <time>2018-07-21T11:15:16Z</time>
      </trkpt>
      <trkpt lat="41.068850" lon="-3.722200">
        <ele>1899.0</ele>
        <time>2018-07-21T11:15:17Z</time>
      </trkpt>
      <trkpt lat="41.068900" lon="-3.722133">
        <ele>1900.0</ele>
        <time>2018-07-21T11:15:18Z</time>
      </trkpt>
      <trkpt lat="41.068950" lon="-3.722050">
        <ele>1900.0</ele>
        <time>2018-07-21T11:15:19Z</time>
      </trkpt>
      <trkpt lat="41.068983" lon="-3.721967">
        <ele>1900.0</ele>
        <time>2018-07-21T11:15:20Z</time>
      </trkpt>
      <trkpt lat="41.069017" lon="-3.721850">
        <ele>1899.0</ele>
        <time>2018-07-21T11:15:21Z</time>
      </trkpt>
      <trkpt lat="41.069000" lon="-3.721717">
        <ele>1897.0</ele>
        <time>2018-07-21T11:15:22Z</time>
      </trkpt>
      <trkpt lat="41.068967" lon="-3.721567">
        <ele>1895.0</ele>
        <time>2018-07-21T11:15:23Z</time>
      </trkpt>
      <trkpt lat="41.068917" lon="-3.721417">
        <ele>1894.0</ele>
        <time>2018-07-21T11:15:24Z</time>
      </trkpt>
      <trkpt lat="41.068883" lon="-3.721283">
        <ele>1894.0</ele>
        <time>2018-07-21T11:15:25Z</time>
      </trkpt>
      <trkpt lat="41.068883" lon="-3.721150">
        <ele>1893.0</ele>
        <time>2018-07-21T11:15:26Z</time>
      </trkpt>
      <trkpt lat="41.068900" lon="-3.721017">
        <ele>1891.0</ele>
        <time>2018-07-21T11:15:27Z</time>
      </trkpt>
      <trkpt lat="41.068967" lon="-3.720917">
        <ele>1889.0</ele>
        <time>2018-07-21T11:15:28Z</time>
      </trkpt>
      <trkpt lat="41.069033" lon="-3.720850">
        <ele>1887.0</ele>
        <time>2018-07-21T11:15:29Z</time>
      </trkpt>
      <trkpt lat="41.069117" lon="-3.720833">
        <ele>1886.0</ele>
        <time>2018-07-21T11:15:30Z</time>
      </trkpt>
      <trkpt lat="41.069167" lon="-3.720883">
        <ele>1886.0</ele>
        <time>2018-07-21T11:15:31Z</time>
      </trkpt>
      <trkpt lat="41.069183" lon="-3.720950">
        <ele>1887.0</ele>
        <time>2018-07-21T11:15:32Z</time>
      </trkpt>
      <trkpt lat="41.069167" lon="-3.721033">
        <ele>1888.0</ele>
        <time>2018-07-21T11:15:33Z</time>
      </trkpt>
      <trkpt lat="41.069117" lon="-3.721117">
        <ele>1889.0</ele>
        <time>2018-07-21T11:15:34Z</time>
      </trkpt>
      <trkpt lat="41.069067" lon="-3.721183">
        <ele>1889.0</ele>
        <time>2018-07-21T11:15:35Z</time>
      </trkpt>
      <trkpt lat="41.069017" lon="-3.721250">
        <ele>1890.0</ele>
        <time>2018-07-21T11:15:36Z</time>
      </trkpt>
      <trkpt lat="41.068967" lon="-3.721317">
        <ele>1889.0</ele>
        <time>2018-07-21T11:15:37Z</time>
      </trkpt>
      <trkpt lat="41.068900" lon="-3.721400">
        <ele>1888.0</ele>
        <time>2018-07-21T11:15:38Z</time>
      </trkpt>
      <trkpt lat="41.068833" lon="-3.721500">
        <ele>1887.0</ele>
        <time>2018-07-21T11:15:39Z</time>
      </trkpt>
      <trkpt lat="41.068767" lon="-3.721583">
        <ele>1888.0</ele>
        <time>2018-07-21T11:15:40Z</time>
      </trkpt>
      <trkpt lat="41.068683" lon="-3.721667">
        <ele>1889.0</ele>
        <time>2018-07-21T11:15:41Z</time>
      </trkpt>
      <trkpt lat="41.068617" lon="-3.721750">
        <ele>1890.0</ele>
        <time>2018-07-21T11:15:42Z</time>
      </trkpt>
      <trkpt lat="41.068533" lon="-3.721817">
        <ele>1892.0</ele>
        <time>2018-07-21T11:15:43Z</time>
      </trkpt>
      <trkpt lat="41.068467" lon="-3.721900">
        <ele>1893.0</ele>
        <time>2018-07-21T11:15:44Z</time>
      </trkpt>
      <trkpt lat="41.068383" lon="-3.721950">
        <ele>1895.0</ele>
        <time>2018-07-21T11:15:45Z</time>
      </trkpt>
      <trkpt lat="41.068317" lon="-3.722000">
        <ele>1896.0</ele>
        <time>2018-07-21T11:15:46Z</time>
      </trkpt>
      <trkpt lat="41.068250" lon="-3.722050">
        <ele>1897.0</ele>
        <time>2018-07-21T11:15:47Z</time>
      </trkpt>
      <trkpt lat="41.068183" lon="-3.722083">
        <ele>1897.0</ele>
        <time>2018-07-21T11:15:48Z</time>
      </trkpt>
      <trkpt lat="41.068133" lon="-3.722133">
        <ele>1897.0</ele>
        <time>2018-07-21T11:15:49Z</time>
      </trkpt>
      <trkpt lat="41.068067" lon="-3.722200">
        <ele>1896.0</ele>
        <time>2018-07-21T11:15:50Z</time>
      </trkpt>
      <trkpt lat="41.068017" lon="-3.722267">
        <ele>1896.0</ele>
        <time>2018-07-21T11:15:51Z</time>
      </trkpt>
      <trkpt lat="41.067950" lon="-3.722333">
        <ele>1896.0</ele>
        <time>2018-07-21T11:15:52Z</time>
      </trkpt>
      <trkpt lat="41.067900" lon="-3.722383">
        <ele>1896.0</ele>
        <time>2018-07-21T11:15:53Z</time>
      </trkpt>
      <trkpt lat="41.067867" lon="-3.722450">
        <ele>1896.0</ele>
        <time>2018-07-21T11:15:54Z</time>
      </trkpt>
      <trkpt lat="41.067817" lon="-3.722533">
        <ele>1895.0</ele>
        <time>2018-07-21T11:15:55Z</time>
      </trkpt>
      <trkpt lat="41.067783" lon="-3.722617">
        <ele>1894.0</ele>
        <time>2018-07-21T11:15:56Z</time>
      </trkpt>
      <trkpt lat="41.067750" lon="-3.722700">
        <ele>1895.0</ele>
        <time>2018-07-21T11:15:57Z</time>
      </trkpt>
      <trkpt lat="41.067717" lon="-3.722767">
        <ele>1896.0</ele>
        <time>2018-07-21T11:15:58Z</time>
      </trkpt>
      <trkpt lat="41.067683" lon="-3.722833">
        <ele>1897.0</ele>
        <time>2018-07-21T11:15:59Z</time>
      </trkpt>
      <trkpt lat="41.067633" lon="-3.722900">
        <ele>1897.0</ele>
        <time>2018-07-21T11:16:00Z</time>
      </trkpt>
      <trkpt lat="41.067583" lon="-3.722967">
        <ele>1896.0</ele>
        <time>2018-07-21T11:16:01Z</time>
      </trkpt>
      <trkpt lat="41.067533" lon="-3.723050">
        <ele>1896.0</ele>
        <time>2018-07-21T11:16:02Z</time>
      </trkpt>
      <trkpt lat="41.067500" lon="-3.723133">
        <ele>1896.0</ele>
        <time>2018-07-21T11:16:03Z</time>
      </trkpt>
      <trkpt lat="41.067467" lon="-3.723217">
        <ele>1897.0</ele>
        <time>2018-07-21T11:16:04Z</time>
      </trkpt>
      <trkpt lat="41.067433" lon="-3.723283">
        <ele>1897.0</ele>
        <time>2018-07-21T11:16:05Z</time>
      </trkpt>
      <trkpt lat="41.067433" lon="-3.723367">
        <ele>1898.0</ele>
        <time>2018-07-21T11:16:06Z</time>
      </trkpt>
      <trkpt lat="41.067417" lon="-3.723450">
        <ele>1898.0</ele>
        <time>2018-07-21T11:16:07Z</time>
      </trkpt>
      <trkpt lat="41.067417" lon="-3.723517">
        <ele>1898.0</ele>
        <time>2018-07-21T11:16:08Z</time>
      </trkpt>
      <trkpt lat="41.067383" lon="-3.723617">
        <ele>1898.0</ele>
        <time>2018-07-21T11:16:09Z</time>
      </trkpt>
      <trkpt lat="41.067350" lon="-3.723700">
        <ele>1899.0</ele>
        <time>2018-07-21T11:16:10Z</time>
      </trkpt>
      <trkpt lat="41.067300" lon="-3.723783">
        <ele>1900.0</ele>
        <time>2018-07-21T11:16:11Z</time>
      </trkpt>
      <trkpt lat="41.067267" lon="-3.723850">
        <ele>1901.0</ele>
        <time>2018-07-21T11:16:12Z</time>
      </trkpt>
      <trkpt lat="41.067233" lon="-3.723933">
        <ele>1901.0</ele>
        <time>2018-07-21T11:16:13Z</time>
      </trkpt>
      <trkpt lat="41.067217" lon="-3.724000">
        <ele>1902.0</ele>
        <time>2018-07-21T11:16:14Z</time>
      </trkpt>
      <trkpt lat="41.067183" lon="-3.724067">
        <ele>1902.0</ele>
        <time>2018-07-21T11:16:15Z</time>
      </trkpt>
      <trkpt lat="41.067150" lon="-3.724150">
        <ele>1902.0</ele>
        <time>2018-07-21T11:16:16Z</time>
      </trkpt>
      <trkpt lat="41.067100" lon="-3.724200">
        <ele>1901.0</ele>
        <time>2018-07-21T11:16:17Z</time>
      </trkpt>
      <trkpt lat="41.067033" lon="-3.724267">
        <ele>1901.0</ele>
        <time>2018-07-21T11:16:18Z</time>
      </trkpt>
      <trkpt lat="41.066950" lon="-3.724333">
        <ele>1901.0</ele>
        <time>2018-07-21T11:16:19Z</time>
      </trkpt>
      <trkpt lat="41.066867" lon="-3.724400">
        <ele>1902.0</ele>
        <time>2018-07-21T11:16:20Z</time>
      </trkpt>
      <trkpt lat="41.066800" lon="-3.724467">
        <ele>1903.0</ele>
        <time>2018-07-21T11:16:21Z</time>
      </trkpt>
      <trkpt lat="41.066717" lon="-3.724533">
        <ele>1905.0</ele>
        <time>2018-07-21T11:16:22Z</time>
      </trkpt>
      <trkpt lat="41.066633" lon="-3.724600">
        <ele>1906.0</ele>
        <time>2018-07-21T11:16:23Z</time>
      </trkpt>
      <trkpt lat="41.066567" lon="-3.724667">
        <ele>1906.0</ele>
        <time>2018-07-21T11:16:24Z</time>
      </trkpt>
      <trkpt lat="41.066500" lon="-3.724717">
        <ele>1906.0</ele>
        <time>2018-07-21T11:16:25Z</time>
      </trkpt>
      <trkpt lat="41.066433" lon="-3.724783">
        <ele>1905.0</ele>
        <time>2018-07-21T11:16:26Z</time>
      </trkpt>
      <trkpt lat="41.066367" lon="-3.724850">
        <ele>1903.0</ele>
        <time>2018-07-21T11:16:27Z</time>
      </trkpt>
      <trkpt lat="41.066300" lon="-3.724917">
        <ele>1902.0</ele>
        <time>2018-07-21T11:16:28Z</time>
      </trkpt>
      <trkpt lat="41.066217" lon="-3.724983">
        <ele>1900.0</ele>
        <time>2018-07-21T11:16:29Z</time>
      </trkpt>
      <trkpt lat="41.066133" lon="-3.725050">
        <ele>1900.0</ele>
        <time>2018-07-21T11:16:30Z</time>
      </trkpt>
      <trkpt lat="41.066050" lon="-3.725117">
        <ele>1900.0</ele>
        <time>2018-07-21T11:16:31Z</time>
      </trkpt>
      <trkpt lat="41.065983" lon="-3.725167">
        <ele>1900.0</ele>
        <time>2018-07-21T11:16:32Z</time>
      </trkpt>
      <trkpt lat="41.065900" lon="-3.725233">
        <ele>1900.0</ele>
        <time>2018-07-21T11:16:33Z</time>
      </trkpt>
      <trkpt lat="41.065833" lon="-3.725283">
        <ele>1899.0</ele>
        <time>2018-07-21T11:16:34Z</time>
      </trkpt>
      <trkpt lat="41.065750" lon="-3.725350">
        <ele>1898.0</ele>
        <time>2018-07-21T11:16:35Z</time>
      </trkpt>
      <trkpt lat="41.065667" lon="-3.725417">
        <ele>1896.0</ele>
        <time>2018-07-21T11:16:36Z</time>
      </trkpt>
      <trkpt lat="41.065583" lon="-3.725500">
        <ele>1895.0</ele>
        <time>2018-07-21T11:16:37Z</time>
      </trkpt>
      <trkpt lat="41.065517" lon="-3.725583">
        <ele>1893.0</ele>
        <time>2018-07-21T11:16:38Z</time>
      </trkpt>
      <trkpt lat="41.065433" lon="-3.725667">
        <ele>1892.0</ele>
        <time>2018-07-21T11:16:39Z</time>
      </trkpt>
      <trkpt lat="41.065350" lon="-3.725750">
        <ele>1892.0</ele>
        <time>2018-07-21T11:16:40Z</time>
      </trkpt>
      <trkpt lat="41.065283" lon="-3.725867">
        <ele>1892.0</ele>
        <time>2018-07-21T11:16:41Z</time>
      </trkpt>
      <trkpt lat="41.065233" lon="-3.725967">
        <ele>1893.0</ele>
        <time>2018-07-21T11:16:42Z</time>
      </trkpt>
      <trkpt lat="41.065183" lon="-3.726067">
        <ele>1896.0</ele>
        <time>2018-07-21T11:16:43Z</time>
      </trkpt>
      <trkpt lat="41.065133" lon="-3.726150">
        <ele>1898.0</ele>
        <time>2018-07-21T11:16:44Z</time>
      </trkpt>
      <trkpt lat="41.065100" lon="-3.726217">
        <ele>1901.0</ele>
        <time>2018-07-21T11:16:45Z</time>
      </trkpt>
      <trkpt lat="41.065050" lon="-3.726283">
        <ele>1903.0</ele>
        <time>2018-07-21T11:16:46Z</time>
      </trkpt>
      <trkpt lat="41.065017" lon="-3.726350">
        <ele>1904.0</ele>
        <time>2018-07-21T11:16:47Z</time>
      </trkpt>
      <trkpt lat="41.065017" lon="-3.726417">
        <ele>1905.0</ele>
        <time>2018-07-21T11:16:48Z</time>
      </trkpt>
      <trkpt lat="41.065033" lon="-3.726483">
        <ele>1906.0</ele>
        <time>2018-07-21T11:16:49Z</time>
      </trkpt>
      <trkpt lat="41.065083" lon="-3.726533">
        <ele>1907.0</ele>
        <time>2018-07-21T11:16:50Z</time>
      </trkpt>
      <trkpt lat="41.065150" lon="-3.726517">
        <ele>1909.0</ele>
        <time>2018-07-21T11:16:51Z</time>
      </trkpt>
      <trkpt lat="41.065217" lon="-3.726450">
        <ele>1910.0</ele>
        <time>2018-07-21T11:16:52Z</time>
      </trkpt>
      <trkpt lat="41.065267" lon="-3.726317">
        <ele>1910.0</ele>
        <time>2018-07-21T11:16:53Z</time>
      </trkpt>
      <trkpt lat="41.065283" lon="-3.726133">
        <ele>1911.0</ele>
        <time>2018-07-21T11:16:54Z</time>
      </trkpt>
      <trkpt lat="41.065267" lon="-3.725950">
        <ele>1913.0</ele>
        <time>2018-07-21T11:16:55Z</time>
      </trkpt>
      <trkpt lat="41.065217" lon="-3.725767">
        <ele>1917.0</ele>
        <time>2018-07-21T11:16:56Z</time>
      </trkpt>
      <trkpt lat="41.065200" lon="-3.725617">
        <ele>1921.0</ele>
        <time>2018-07-21T11:16:57Z</time>
      </trkpt>
      <trkpt lat="41.065200" lon="-3.725483">
        <ele>1923.0</ele>
        <time>2018-07-21T11:16:58Z</time>
      </trkpt>
      <trkpt lat="41.065217" lon="-3.725383">
        <ele>1924.0</ele>
        <time>2018-07-21T11:16:59Z</time>
      </trkpt>
      <trkpt lat="41.065267" lon="-3.725300">
        <ele>1924.0</ele>
        <time>2018-07-21T11:17:00Z</time>
      </trkpt>
      <trkpt lat="41.065317" lon="-3.725217">
        <ele>1923.0</ele>
        <time>2018-07-21T11:17:01Z</time>
      </trkpt>
      <trkpt lat="41.065383" lon="-3.725167">
        <ele>1923.0</ele>
        <time>2018-07-21T11:17:02Z</time>
      </trkpt>
      <trkpt lat="41.065433" lon="-3.725167">
        <ele>1922.0</ele>
        <time>2018-07-21T11:17:03Z</time>
      </trkpt>
      <trkpt lat="41.065483" lon="-3.725200">
        <ele>1920.0</ele>
        <time>2018-07-21T11:17:04Z</time>
      </trkpt>
      <trkpt lat="41.065500" lon="-3.725283">
        <ele>1917.0</ele>
        <time>2018-07-21T11:17:05Z</time>
      </trkpt>
      <trkpt lat="41.065517" lon="-3.725383">
        <ele>1915.0</ele>
        <time>2018-07-21T11:17:06Z</time>
      </trkpt>
      <trkpt lat="41.065483" lon="-3.725500">
        <ele>1916.0</ele>
        <time>2018-07-21T11:17:07Z</time>
      </trkpt>
      <trkpt lat="41.065417" lon="-3.725600">
        <ele>1917.0</ele>
        <time>2018-07-21T11:17:08Z</time>
      </trkpt>
      <trkpt lat="41.065333" lon="-3.725667">
        <ele>1919.0</ele>
        <time>2018-07-21T11:17:09Z</time>
      </trkpt>
      <trkpt lat="41.065233" lon="-3.725700">
        <ele>1922.0</ele>
        <time>2018-07-21T11:17:10Z</time>
      </trkpt>
      <trkpt lat="41.065117" lon="-3.725700">
        <ele>1924.0</ele>
        <time>2018-07-21T11:17:11Z</time>
      </trkpt>
      <trkpt lat="41.065000" lon="-3.725700">
        <ele>1927.0</ele>
        <time>2018-07-21T11:17:12Z</time>
      </trkpt>
      <trkpt lat="41.064883" lon="-3.725683">
        <ele>1929.0</ele>
        <time>2018-07-21T11:17:13Z</time>
      </trkpt>
      <trkpt lat="41.064767" lon="-3.725683">
        <ele>1931.0</ele>
        <time>2018-07-21T11:17:14Z</time>
      </trkpt>
      <trkpt lat="41.064683" lon="-3.725717">
        <ele>1933.0</ele>
        <time>2018-07-21T11:17:15Z</time>
      </trkpt>
      <trkpt lat="41.064600" lon="-3.725767">
        <ele>1935.0</ele>
        <time>2018-07-21T11:17:16Z</time>
      </trkpt>
      <trkpt lat="41.064533" lon="-3.725833">
        <ele>1936.0</ele>
        <time>2018-07-21T11:17:17Z</time>
      </trkpt>
      <trkpt lat="41.064483" lon="-3.725900">
        <ele>1938.0</ele>
        <time>2018-07-21T11:17:18Z</time>
      </trkpt>
      <trkpt lat="41.064467" lon="-3.725967">
        <ele>1940.0</ele>
        <time>2018-07-21T11:17:19Z</time>
      </trkpt>
      <trkpt lat="41.064467" lon="-3.726033">
        <ele>1941.0</ele>
        <time>2018-07-21T11:17:20Z</time>
      </trkpt>
      <trkpt lat="41.064483" lon="-3.726067">
        <ele>1942.0</ele>
        <time>2018-07-21T11:17:21Z</time>
      </trkpt>
      <trkpt lat="41.064550" lon="-3.726067">
        <ele>1944.0</ele>
        <time>2018-07-21T11:17:22Z</time>
      </trkpt>
      <trkpt lat="41.064617" lon="-3.726017">
        <ele>1945.0</ele>
        <time>2018-07-21T11:17:23Z</time>
      </trkpt>
      <trkpt lat="41.064667" lon="-3.725917">
        <ele>1947.0</ele>
        <time>2018-07-21T11:17:24Z</time>
      </trkpt>
      <trkpt lat="41.064683" lon="-3.725767">
        <ele>1949.0</ele>
        <time>2018-07-21T11:17:25Z</time>
      </trkpt>
      <trkpt lat="41.064683" lon="-3.725600">
        <ele>1950.0</ele>
        <time>2018-07-21T11:17:26Z</time>
      </trkpt>
      <trkpt lat="41.064633" lon="-3.725433">
        <ele>1950.0</ele>
        <time>2018-07-21T11:17:27Z</time>
      </trkpt>
      <trkpt lat="41.064550" lon="-3.725267">
        <ele>1952.0</ele>
        <time>2018-07-21T11:17:28Z</time>
      </trkpt>
      <trkpt lat="41.064433" lon="-3.725150">
        <ele>1955.0</ele>
        <time>2018-07-21T11:17:29Z</time>
      </trkpt>
      <trkpt lat="41.064300" lon="-3.725067">
        <ele>1957.0</ele>
        <time>2018-07-21T11:17:30Z</time>
      </trkpt>
      <trkpt lat="41.064167" lon="-3.725033">
        <ele>1958.0</ele>
        <time>2018-07-21T11:17:31Z</time>
      </trkpt>
      <trkpt lat="41.064033" lon="-3.725033">
        <ele>1960.0</ele>
        <time>2018-07-21T11:17:32Z</time>
      </trkpt>
      <trkpt lat="41.063933" lon="-3.725067">
        <ele>1963.0</ele>
        <time>2018-07-21T11:17:33Z</time>
      </trkpt>
      <trkpt lat="41.063850" lon="-3.725100">
        <ele>1966.0</ele>
        <time>2018-07-21T11:17:34Z</time>
      </trkpt>
      <trkpt lat="41.063767" lon="-3.725133">
        <ele>1968.0</ele>
        <time>2018-07-21T11:17:35Z</time>
      </trkpt>
      <trkpt lat="41.063717" lon="-3.725183">
        <ele>1969.0</ele>
        <time>2018-07-21T11:17:36Z</time>
      </trkpt>
      <trkpt lat="41.063667" lon="-3.725250">
        <ele>1970.0</ele>
        <time>2018-07-21T11:17:37Z</time>
      </trkpt>
      <trkpt lat="41.063633" lon="-3.725333">
        <ele>1970.0</ele>
        <time>2018-07-21T11:17:38Z</time>
      </trkpt>
      <trkpt lat="41.063600" lon="-3.725417">
        <ele>1971.0</ele>
        <time>2018-07-21T11:17:39Z</time>
      </trkpt>
      <trkpt lat="41.063583" lon="-3.725483">
        <ele>1974.0</ele>
        <time>2018-07-21T11:17:40Z</time>
      </trkpt>
      <trkpt lat="41.063567" lon="-3.725533">
        <ele>1976.0</ele>
        <time>2018-07-21T11:17:41Z</time>
      </trkpt>
      <trkpt lat="41.063567" lon="-3.725583">
        <ele>1977.0</ele>
        <time>2018-07-21T11:17:42Z</time>
      </trkpt>
      <trkpt lat="41.063550" lon="-3.725617">
        <ele>1978.0</ele>
        <time>2018-07-21T11:17:43Z</time>
      </trkpt>
      <trkpt lat="41.063550" lon="-3.725667">
        <ele>1978.0</ele>
        <time>2018-07-21T11:17:44Z</time>
      </trkpt>
      <trkpt lat="41.063533" lon="-3.725717">
        <ele>1978.0</ele>
        <time>2018-07-21T11:17:45Z</time>
      </trkpt>
      <trkpt lat="41.063533" lon="-3.725800">
        <ele>1978.0</ele>
        <time>2018-07-21T11:17:46Z</time>
      </trkpt>
      <trkpt lat="41.063517" lon="-3.725867">
        <ele>1979.0</ele>
        <time>2018-07-21T11:17:47Z</time>
      </trkpt>
      <trkpt lat="41.063517" lon="-3.725917">
        <ele>1980.0</ele>
        <time>2018-07-21T11:17:48Z</time>
      </trkpt>
      <trkpt lat="41.063517" lon="-3.725967">
        <ele>1980.0</ele>
        <time>2018-07-21T11:17:49Z</time>
      </trkpt>
      <trkpt lat="41.063517" lon="-3.726017">
        <ele>1981.0</ele>
        <time>2018-07-21T11:17:50Z</time>
      </trkpt>
      <trkpt lat="41.063533" lon="-3.726067">
        <ele>1982.0</ele>
        <time>2018-07-21T11:17:51Z</time>
      </trkpt>
      <trkpt lat="41.063550" lon="-3.726117">
        <ele>1982.0</ele>
        <time>2018-07-21T11:17:52Z</time>
      </trkpt>
      <trkpt lat="41.063550" lon="-3.726183">
        <ele>1983.0</ele>
        <time>2018-07-21T11:17:53Z</time>
      </trkpt>
      <trkpt lat="41.063567" lon="-3.726267">
        <ele>1984.0</ele>
        <time>2018-07-21T11:17:54Z</time>
      </trkpt>
      <trkpt lat="41.063567" lon="-3.726333">
        <ele>1984.0</ele>
        <time>2018-07-21T11:17:55Z</time>
      </trkpt>
      <trkpt lat="41.063550" lon="-3.726400">
        <ele>1984.0</ele>
        <time>2018-07-21T11:17:56Z</time>
      </trkpt>
      <trkpt lat="41.063550" lon="-3.726467">
        <ele>1985.0</ele>
        <time>2018-07-21T11:17:57Z</time>
      </trkpt>
      <trkpt lat="41.063533" lon="-3.726550">
        <ele>1985.0</ele>
        <time>2018-07-21T11:17:58Z</time>
      </trkpt>
      <trkpt lat="41.063517" lon="-3.726617">
        <ele>1985.0</ele>
        <time>2018-07-21T11:17:59Z</time>
      </trkpt>
      <trkpt lat="41.063500" lon="-3.726700">
        <ele>1986.0</ele>
        <time>2018-07-21T11:18:00Z</time>
      </trkpt>
      <trkpt lat="41.063467" lon="-3.726767">
        <ele>1985.0</ele>
        <time>2018-07-21T11:18:01Z</time>
      </trkpt>
      <trkpt lat="41.063450" lon="-3.726850">
        <ele>1985.0</ele>
        <time>2018-07-21T11:18:02Z</time>
      </trkpt>
      <trkpt lat="41.063417" lon="-3.726933">
        <ele>1985.0</ele>
        <time>2018-07-21T11:18:03Z</time>
      </trkpt>
      <trkpt lat="41.063400" lon="-3.726983">
        <ele>1985.0</ele>
        <time>2018-07-21T11:18:04Z</time>
      </trkpt>
      <trkpt lat="41.063383" lon="-3.727033">
        <ele>1984.0</ele>
        <time>2018-07-21T11:18:05Z</time>
      </trkpt>
      <trkpt lat="41.063367" lon="-3.727083">
        <ele>1982.0</ele>
        <time>2018-07-21T11:18:06Z</time>
      </trkpt>
      <trkpt lat="41.063350" lon="-3.727167">
        <ele>1980.0</ele>
        <time>2018-07-21T11:18:07Z</time>
      </trkpt>
      <trkpt lat="41.063333" lon="-3.727267">
        <ele>1979.0</ele>
        <time>2018-07-21T11:18:08Z</time>
      </trkpt>
      <trkpt lat="41.063333" lon="-3.727333">
        <ele>1980.0</ele>
        <time>2018-07-21T11:18:09Z</time>
      </trkpt>
      <trkpt lat="41.063317" lon="-3.727417">
        <ele>1981.0</ele>
        <time>2018-07-21T11:18:10Z</time>
      </trkpt>
      <trkpt lat="41.063317" lon="-3.727467">
        <ele>1981.0</ele>
        <time>2018-07-21T11:18:11Z</time>
      </trkpt>
      <trkpt lat="41.063317" lon="-3.727550">
        <ele>1981.0</ele>
        <time>2018-07-21T11:18:12Z</time>
      </trkpt>
      <trkpt lat="41.063300" lon="-3.727633">
        <ele>1982.0</ele>
        <time>2018-07-21T11:18:13Z</time>
      </trkpt>
      <trkpt lat="41.063283" lon="-3.727717">
        <ele>1983.0</ele>
        <time>2018-07-21T11:18:14Z</time>
      </trkpt>
      <trkpt lat="41.063283" lon="-3.727800">
        <ele>1985.0</ele>
        <time>2018-07-21T11:18:15Z</time>
      </trkpt>
      <trkpt lat="41.063267" lon="-3.727850">
        <ele>1987.0</ele>
        <time>2018-07-21T11:18:16Z</time>
      </trkpt>
      <trkpt lat="41.063250" lon="-3.727900">
        <ele>1990.0</ele>
        <time>2018-07-21T11:18:17Z</time>
      </trkpt>
      <trkpt lat="41.063217" lon="-3.727950">
        <ele>1990.0</ele>
        <time>2018-07-21T11:18:18Z</time>
      </trkpt>
      <trkpt lat="41.063200" lon="-3.728017">
        <ele>1989.0</ele>
        <time>2018-07-21T11:18:19Z</time>
      </trkpt>
      <trkpt lat="41.063183" lon="-3.728083">
        <ele>1988.0</ele>
        <time>2018-07-21T11:18:20Z</time>
      </trkpt>
      <trkpt lat="41.063167" lon="-3.728183">
        <ele>1987.0</ele>
        <time>2018-07-21T11:18:21Z</time>
      </trkpt>
      <trkpt lat="41.063183" lon="-3.728267">
        <ele>1987.0</ele>
        <time>2018-07-21T11:18:22Z</time>
      </trkpt>
      <trkpt lat="41.063200" lon="-3.728333">
        <ele>1989.0</ele>
        <time>2018-07-21T11:18:23Z</time>
      </trkpt>
      <trkpt lat="41.063217" lon="-3.728383">
        <ele>1991.0</ele>
        <time>2018-07-21T11:18:24Z</time>
      </trkpt>
      <trkpt lat="41.063217" lon="-3.728400">
        <ele>1993.0</ele>
        <time>2018-07-21T11:18:25Z</time>
      </trkpt>
      <trkpt lat="41.063217" lon="-3.728433">
        <ele>1994.0</ele>
        <time>2018-07-21T11:18:26Z</time>
      </trkpt>
      <trkpt lat="41.063183" lon="-3.728467">
        <ele>1993.0</ele>
        <time>2018-07-21T11:18:27Z</time>
      </trkpt>
      <trkpt lat="41.063167" lon="-3.728517">
        <ele>1991.0</ele>
        <time>2018-07-21T11:18:28Z</time>
      </trkpt>
      <trkpt lat="41.063167" lon="-3.728583">
        <ele>1990.0</ele>
        <time>2018-07-21T11:18:29Z</time>
      </trkpt>
      <trkpt lat="41.063167" lon="-3.728650">
        <ele>1990.0</ele>
        <time>2018-07-21T11:18:30Z</time>
      </trkpt>
      <trkpt lat="41.063167" lon="-3.728717">
        <ele>1991.0</ele>
        <time>2018-07-21T11:18:31Z</time>
      </trkpt>
      <trkpt lat="41.063150" lon="-3.728767">
        <ele>1993.0</ele>
        <time>2018-07-21T11:18:32Z</time>
      </trkpt>
      <trkpt lat="41.063117" lon="-3.728817">
        <ele>1995.0</ele>
        <time>2018-07-21T11:18:33Z</time>
      </trkpt>
      <trkpt lat="41.063083" lon="-3.728867">
        <ele>1995.0</ele>
        <time>2018-07-21T11:18:34Z</time>
      </trkpt>
      <trkpt lat="41.063067" lon="-3.728933">
        <ele>1995.0</ele>
        <time>2018-07-21T11:18:35Z</time>
      </trkpt>
      <trkpt lat="41.063050" lon="-3.729000">
        <ele>1994.0</ele>
        <time>2018-07-21T11:18:36Z</time>
      </trkpt>
      <trkpt lat="41.063050" lon="-3.729083">
        <ele>1994.0</ele>
        <time>2018-07-21T11:18:37Z</time>
      </trkpt>
      <trkpt lat="41.063050" lon="-3.729150">
        <ele>1994.0</ele>
        <time>2018-07-21T11:18:38Z</time>
      </trkpt>
      <trkpt lat="41.063050" lon="-3.729217">
        <ele>1994.0</ele>
        <time>2018-07-21T11:18:39Z</time>
      </trkpt>
      <trkpt lat="41.063033" lon="-3.729300">
        <ele>1994.0</ele>
        <time>2018-07-21T11:18:40Z</time>
      </trkpt>
      <trkpt lat="41.063017" lon="-3.729367">
        <ele>1994.0</ele>
        <time>2018-07-21T11:18:41Z</time>
      </trkpt>
      <trkpt lat="41.062983" lon="-3.729433">
        <ele>1993.0</ele>
        <time>2018-07-21T11:18:42Z</time>
      </trkpt>
      <trkpt lat="41.062967" lon="-3.729517">
        <ele>1992.0</ele>
        <time>2018-07-21T11:18:43Z</time>
      </trkpt>
      <trkpt lat="41.062933" lon="-3.729600">
        <ele>1991.0</ele>
        <time>2018-07-21T11:18:44Z</time>
      </trkpt>
      <trkpt lat="41.062900" lon="-3.729667">
        <ele>1990.0</ele>
        <time>2018-07-21T11:18:45Z</time>
      </trkpt>
      <trkpt lat="41.062867" lon="-3.729750">
        <ele>1988.0</ele>
        <time>2018-07-21T11:18:46Z</time>
      </trkpt>
      <trkpt lat="41.062833" lon="-3.729833">
        <ele>1986.0</ele>
        <time>2018-07-21T11:18:47Z</time>
      </trkpt>
      <trkpt lat="41.062800" lon="-3.729917">
        <ele>1985.0</ele>
        <time>2018-07-21T11:18:48Z</time>
      </trkpt>
      <trkpt lat="41.062750" lon="-3.730000">
        <ele>1983.0</ele>
        <time>2018-07-21T11:18:49Z</time>
      </trkpt>
      <trkpt lat="41.062700" lon="-3.730083">
        <ele>1981.0</ele>
        <time>2018-07-21T11:18:50Z</time>
      </trkpt>
      <trkpt lat="41.062650" lon="-3.730167">
        <ele>1980.0</ele>
        <time>2018-07-21T11:18:51Z</time>
      </trkpt>
      <trkpt lat="41.062600" lon="-3.730267">
        <ele>1979.0</ele>
        <time>2018-07-21T11:18:52Z</time>
      </trkpt>
      <trkpt lat="41.062567" lon="-3.730350">
        <ele>1977.0</ele>
        <time>2018-07-21T11:18:53Z</time>
      </trkpt>
      <trkpt lat="41.062550" lon="-3.730433">
        <ele>1976.0</ele>
        <time>2018-07-21T11:18:54Z</time>
      </trkpt>
      <trkpt lat="41.062533" lon="-3.730517">
        <ele>1974.0</ele>
        <time>2018-07-21T11:18:55Z</time>
      </trkpt>
      <trkpt lat="41.062500" lon="-3.730600">
        <ele>1973.0</ele>
        <time>2018-07-21T11:18:56Z</time>
      </trkpt>
      <trkpt lat="41.062483" lon="-3.730700">
        <ele>1971.0</ele>
        <time>2018-07-21T11:18:57Z</time>
      </trkpt>
      <trkpt lat="41.062450" lon="-3.730783">
        <ele>1969.0</ele>
        <time>2018-07-21T11:18:58Z</time>
      </trkpt>
      <trkpt lat="41.062400" lon="-3.730883">
        <ele>1967.0</ele>
        <time>2018-07-21T11:18:59Z</time>
      </trkpt>
      <trkpt lat="41.062367" lon="-3.730983">
        <ele>1965.0</ele>
        <time>2018-07-21T11:19:00Z</time>
      </trkpt>
      <trkpt lat="41.062300" lon="-3.731083">
        <ele>1964.0</ele>
        <time>2018-07-21T11:19:01Z</time>
      </trkpt>
      <trkpt lat="41.062250" lon="-3.731200">
        <ele>1964.0</ele>
        <time>2018-07-21T11:19:02Z</time>
      </trkpt>
      <trkpt lat="41.062217" lon="-3.731300">
        <ele>1965.0</ele>
        <time>2018-07-21T11:19:03Z</time>
      </trkpt>
      <trkpt lat="41.062183" lon="-3.731383">
        <ele>1965.0</ele>
        <time>2018-07-21T11:19:04Z</time>
      </trkpt>
      <trkpt lat="41.062133" lon="-3.731483">
        <ele>1965.0</ele>
        <time>2018-07-21T11:19:05Z</time>
      </trkpt>
      <trkpt lat="41.062100" lon="-3.731567">
        <ele>1965.0</ele>
        <time>2018-07-21T11:19:06Z</time>
      </trkpt>
      <trkpt lat="41.062050" lon="-3.731667">
        <ele>1965.0</ele>
        <time>2018-07-21T11:19:07Z</time>
      </trkpt>
      <trkpt lat="41.062000" lon="-3.731750">
        <ele>1965.0</ele>
        <time>2018-07-21T11:19:08Z</time>
      </trkpt>
      <trkpt lat="41.061967" lon="-3.731833">
        <ele>1966.0</ele>
        <time>2018-07-21T11:19:09Z</time>
      </trkpt>
      <trkpt lat="41.061933" lon="-3.731900">
        <ele>1966.0</ele>
        <time>2018-07-21T11:19:10Z</time>
      </trkpt>
      <trkpt lat="41.061883" lon="-3.731983">
        <ele>1965.0</ele>
        <time>2018-07-21T11:19:11Z</time>
      </trkpt>
      <trkpt lat="41.061850" lon="-3.732067">
        <ele>1963.0</ele>
        <time>2018-07-21T11:19:12Z</time>
      </trkpt>
      <trkpt lat="41.061817" lon="-3.732167">
        <ele>1961.0</ele>
        <time>2018-07-21T11:19:13Z</time>
      </trkpt>
      <trkpt lat="41.061783" lon="-3.732267">
        <ele>1960.0</ele>
        <time>2018-07-21T11:19:14Z</time>
      </trkpt>
      <trkpt lat="41.061750" lon="-3.732367">
        <ele>1960.0</ele>
        <time>2018-07-21T11:19:15Z</time>
      </trkpt>
      <trkpt lat="41.061717" lon="-3.732450">
        <ele>1961.0</ele>
        <time>2018-07-21T11:19:16Z</time>
      </trkpt>
      <trkpt lat="41.061667" lon="-3.732533">
        <ele>1961.0</ele>
        <time>2018-07-21T11:19:17Z</time>
      </trkpt>
      <trkpt lat="41.061617" lon="-3.732617">
        <ele>1960.0</ele>
        <time>2018-07-21T11:19:18Z</time>
      </trkpt>
      <trkpt lat="41.061583" lon="-3.732717">
        <ele>1958.0</ele>
        <time>2018-07-21T11:19:19Z</time>
      </trkpt>
      <trkpt lat="41.061533" lon="-3.732817">
        <ele>1956.0</ele>
        <time>2018-07-21T11:19:20Z</time>
      </trkpt>
      <trkpt lat="41.061483" lon="-3.732917">
        <ele>1955.0</ele>
        <time>2018-07-21T11:19:21Z</time>
      </trkpt>
      <trkpt lat="41.061433" lon="-3.733033">
        <ele>1954.0</ele>
        <time>2018-07-21T11:19:22Z</time>
      </trkpt>
      <trkpt lat="41.061383" lon="-3.733117">
        <ele>1954.0</ele>
        <time>2018-07-21T11:19:23Z</time>
      </trkpt>
      <trkpt lat="41.061317" lon="-3.733200">
        <ele>1953.0</ele>
        <time>2018-07-21T11:19:24Z</time>
      </trkpt>
      <trkpt lat="41.061267" lon="-3.733283">
        <ele>1953.0</ele>
        <time>2018-07-21T11:19:25Z</time>
      </trkpt>
      <trkpt lat="41.061200" lon="-3.733367">
        <ele>1951.0</ele>
        <time>2018-07-21T11:19:26Z</time>
      </trkpt>
      <trkpt lat="41.061150" lon="-3.733467">
        <ele>1948.0</ele>
        <time>2018-07-21T11:19:27Z</time>
      </trkpt>
      <trkpt lat="41.061083" lon="-3.733567">
        <ele>1945.0</ele>
        <time>2018-07-21T11:19:28Z</time>
      </trkpt>
      <trkpt lat="41.061000" lon="-3.733667">
        <ele>1944.0</ele>
        <time>2018-07-21T11:19:29Z</time>
      </trkpt>
      <trkpt lat="41.060933" lon="-3.733783">
        <ele>1943.0</ele>
        <time>2018-07-21T11:19:30Z</time>
      </trkpt>
      <trkpt lat="41.060883" lon="-3.733883">
        <ele>1943.0</ele>
        <time>2018-07-21T11:19:31Z</time>
      </trkpt>
      <trkpt lat="41.060817" lon="-3.733983">
        <ele>1942.0</ele>
        <time>2018-07-21T11:19:32Z</time>
      </trkpt>
      <trkpt lat="41.060750" lon="-3.734050">
        <ele>1942.0</ele>
        <time>2018-07-21T11:19:33Z</time>
      </trkpt>
      <trkpt lat="41.060683" lon="-3.734133">
        <ele>1941.0</ele>
        <time>2018-07-21T11:19:34Z</time>
      </trkpt>
      <trkpt lat="41.060600" lon="-3.734217">
        <ele>1939.0</ele>
        <time>2018-07-21T11:19:35Z</time>
      </trkpt>
      <trkpt lat="41.060533" lon="-3.734300">
        <ele>1937.0</ele>
        <time>2018-07-21T11:19:36Z</time>
      </trkpt>
      <trkpt lat="41.060467" lon="-3.734400">
        <ele>1935.0</ele>
        <time>2018-07-21T11:19:37Z</time>
      </trkpt>
      <trkpt lat="41.060400" lon="-3.734500">
        <ele>1935.0</ele>
        <time>2018-07-21T11:19:38Z</time>
      </trkpt>
      <trkpt lat="41.060333" lon="-3.734583">
        <ele>1934.0</ele>
        <time>2018-07-21T11:19:39Z</time>
      </trkpt>
      <trkpt lat="41.060267" lon="-3.734683">
        <ele>1933.0</ele>
        <time>2018-07-21T11:19:40Z</time>
      </trkpt>
      <trkpt lat="41.060217" lon="-3.734767">
        <ele>1931.0</ele>
        <time>2018-07-21T11:19:41Z</time>
      </trkpt>
      <trkpt lat="41.060150" lon="-3.734867">
        <ele>1929.0</ele>
        <time>2018-07-21T11:19:42Z</time>
      </trkpt>
      <trkpt lat="41.060083" lon="-3.734983">
        <ele>1927.0</ele>
        <time>2018-07-21T11:19:43Z</time>
      </trkpt>
      <trkpt lat="41.060017" lon="-3.735083">
        <ele>1925.0</ele>
        <time>2018-07-21T11:19:44Z</time>
      </trkpt>
      <trkpt lat="41.059950" lon="-3.735183">
        <ele>1924.0</ele>
        <time>2018-07-21T11:19:45Z</time>
      </trkpt>
      <trkpt lat="41.059867" lon="-3.735267">
        <ele>1922.0</ele>
        <time>2018-07-21T11:19:46Z</time>
      </trkpt>
      <trkpt lat="41.059783" lon="-3.735350">
        <ele>1920.0</ele>
        <time>2018-07-21T11:19:47Z</time>
      </trkpt>
      <trkpt lat="41.059683" lon="-3.735433">
        <ele>1918.0</ele>
        <time>2018-07-21T11:19:48Z</time>
      </trkpt>
      <trkpt lat="41.059583" lon="-3.735517">
        <ele>1916.0</ele>
        <time>2018-07-21T11:19:49Z</time>
      </trkpt>
      <trkpt lat="41.059467" lon="-3.735617">
        <ele>1915.0</ele>
        <time>2018-07-21T11:19:50Z</time>
      </trkpt>
      <trkpt lat="41.059383" lon="-3.735717">
        <ele>1915.0</ele>
        <time>2018-07-21T11:19:51Z</time>
      </trkpt>
      <trkpt lat="41.059300" lon="-3.735800">
        <ele>1915.0</ele>
        <time>2018-07-21T11:19:52Z</time>
      </trkpt>
      <trkpt lat="41.059217" lon="-3.735883">
        <ele>1915.0</ele>
        <time>2018-07-21T11:19:53Z</time>
      </trkpt>
      <trkpt lat="41.059117" lon="-3.735967">
        <ele>1914.0</ele>
        <time>2018-07-21T11:19:54Z</time>
      </trkpt>
      <trkpt lat="41.059017" lon="-3.736033">
        <ele>1913.0</ele>
        <time>2018-07-21T11:19:55Z</time>
      </trkpt>
      <trkpt lat="41.058917" lon="-3.736117">
        <ele>1911.0</ele>
        <time>2018-07-21T11:19:56Z</time>
      </trkpt>
      <trkpt lat="41.058800" lon="-3.736183">
        <ele>1909.0</ele>
        <time>2018-07-21T11:19:57Z</time>
      </trkpt>
      <trkpt lat="41.058700" lon="-3.736283">
        <ele>1908.0</ele>
        <time>2018-07-21T11:19:58Z</time>
      </trkpt>
      <trkpt lat="41.058617" lon="-3.736383">
        <ele>1908.0</ele>
        <time>2018-07-21T11:19:59Z</time>
      </trkpt>
      <trkpt lat="41.058533" lon="-3.736483">
        <ele>1908.0</ele>
        <time>2018-07-21T11:20:00Z</time>
      </trkpt>
      <trkpt lat="41.058467" lon="-3.736567">
        <ele>1908.0</ele>
        <time>2018-07-21T11:20:01Z</time>
      </trkpt>
      <trkpt lat="41.058383" lon="-3.736667">
        <ele>1907.0</ele>
        <time>2018-07-21T11:20:02Z</time>
      </trkpt>
      <trkpt lat="41.058300" lon="-3.736750">
        <ele>1907.0</ele>
        <time>2018-07-21T11:20:03Z</time>
      </trkpt>
      <trkpt lat="41.058217" lon="-3.736850">
        <ele>1906.0</ele>
        <time>2018-07-21T11:20:04Z</time>
      </trkpt>
      <trkpt lat="41.058133" lon="-3.736933">
        <ele>1905.0</ele>
        <time>2018-07-21T11:20:05Z</time>
      </trkpt>
      <trkpt lat="41.058067" lon="-3.737033">
        <ele>1903.0</ele>
        <time>2018-07-21T11:20:06Z</time>
      </trkpt>
      <trkpt lat="41.057983" lon="-3.737150">
        <ele>1902.0</ele>
        <time>2018-07-21T11:20:07Z</time>
      </trkpt>
      <trkpt lat="41.057900" lon="-3.737250">
        <ele>1902.0</ele>
        <time>2018-07-21T11:20:08Z</time>
      </trkpt>
      <trkpt lat="41.057817" lon="-3.737350">
        <ele>1902.0</ele>
        <time>2018-07-21T11:20:09Z</time>
      </trkpt>
      <trkpt lat="41.057750" lon="-3.737433">
        <ele>1903.0</ele>
        <time>2018-07-21T11:20:10Z</time>
      </trkpt>
      <trkpt lat="41.057683" lon="-3.737533">
        <ele>1904.0</ele>
        <time>2018-07-21T11:20:11Z</time>
      </trkpt>
      <trkpt lat="41.057617" lon="-3.737633">
        <ele>1905.0</ele>
        <time>2018-07-21T11:20:12Z</time>
      </trkpt>
      <trkpt lat="41.057550" lon="-3.737733">
        <ele>1904.0</ele>
        <time>2018-07-21T11:20:13Z</time>
      </trkpt>
      <trkpt lat="41.057467" lon="-3.737833">
        <ele>1904.0</ele>
        <time>2018-07-21T11:20:14Z</time>
      </trkpt>
      <trkpt lat="41.057400" lon="-3.737933">
        <ele>1904.0</ele>
        <time>2018-07-21T11:20:15Z</time>
      </trkpt>
      <trkpt lat="41.057317" lon="-3.738017">
        <ele>1905.0</ele>
        <time>2018-07-21T11:20:16Z</time>
      </trkpt>
      <trkpt lat="41.057250" lon="-3.738100">
        <ele>1905.0</ele>
        <time>2018-07-21T11:20:17Z</time>
      </trkpt>
      <trkpt lat="41.057167" lon="-3.738167">
        <ele>1905.0</ele>
        <time>2018-07-21T11:20:18Z</time>
      </trkpt>
      <trkpt lat="41.057100" lon="-3.738250">
        <ele>1903.0</ele>
        <time>2018-07-21T11:20:19Z</time>
      </trkpt>
      <trkpt lat="41.057033" lon="-3.738350">
        <ele>1901.0</ele>
        <time>2018-07-21T11:20:20Z</time>
      </trkpt>
      <trkpt lat="41.056950" lon="-3.738433">
        <ele>1900.0</ele>
        <time>2018-07-21T11:20:21Z</time>
      </trkpt>
      <trkpt lat="41.056883" lon="-3.738517">
        <ele>1900.0</ele>
        <time>2018-07-21T11:20:22Z</time>
      </trkpt>
      <trkpt lat="41.056817" lon="-3.738583">
        <ele>1900.0</ele>
        <time>2018-07-21T11:20:23Z</time>
      </trkpt>
      <trkpt lat="41.056750" lon="-3.738650">
        <ele>1899.0</ele>
        <time>2018-07-21T11:20:24Z</time>
      </trkpt>
      <trkpt lat="41.056700" lon="-3.738700">
        <ele>1897.0</ele>
        <time>2018-07-21T11:20:25Z</time>
      </trkpt>
      <trkpt lat="41.056633" lon="-3.738783">
        <ele>1894.0</ele>
        <time>2018-07-21T11:20:26Z</time>
      </trkpt>
      <trkpt lat="41.056567" lon="-3.738867">
        <ele>1892.0</ele>
        <time>2018-07-21T11:20:27Z</time>
      </trkpt>
      <trkpt lat="41.056517" lon="-3.738933">
        <ele>1890.0</ele>
        <time>2018-07-21T11:20:28Z</time>
      </trkpt>
      <trkpt lat="41.056467" lon="-3.739000">
        <ele>1888.0</ele>
        <time>2018-07-21T11:20:29Z</time>
      </trkpt>
      <trkpt lat="41.056433" lon="-3.739083">
        <ele>1886.0</ele>
        <time>2018-07-21T11:20:30Z</time>
      </trkpt>
      <trkpt lat="41.056400" lon="-3.739167">
        <ele>1883.0</ele>
        <time>2018-07-21T11:20:31Z</time>
      </trkpt>
      <trkpt lat="41.056367" lon="-3.739250">
        <ele>1880.0</ele>
        <time>2018-07-21T11:20:32Z</time>
      </trkpt>
      <trkpt lat="41.056333" lon="-3.739350">
        <ele>1878.0</ele>
        <time>2018-07-21T11:20:33Z</time>
      </trkpt>
      <trkpt lat="41.056300" lon="-3.739450">
        <ele>1875.0</ele>
        <time>2018-07-21T11:20:34Z</time>
      </trkpt>
      <trkpt lat="41.056267" lon="-3.739567">
        <ele>1873.0</ele>
        <time>2018-07-21T11:20:35Z</time>
      </trkpt>
      <trkpt lat="41.056233" lon="-3.739683">
        <ele>1874.0</ele>
        <time>2018-07-21T11:20:36Z</time>
      </trkpt>
      <trkpt lat="41.056200" lon="-3.739783">
        <ele>1874.0</ele>
        <time>2018-07-21T11:20:37Z</time>
      </trkpt>
      <trkpt lat="41.056150" lon="-3.739850">
        <ele>1874.0</ele>
        <time>2018-07-21T11:20:38Z</time>
      </trkpt>
      <trkpt lat="41.056083" lon="-3.739933">
        <ele>1873.0</ele>
        <time>2018-07-21T11:20:39Z</time>
      </trkpt>
      <trkpt lat="41.056000" lon="-3.740033">
        <ele>1872.0</ele>
        <time>2018-07-21T11:20:40Z</time>
      </trkpt>
      <trkpt lat="41.055933" lon="-3.740133">
        <ele>1870.0</ele>
        <time>2018-07-21T11:20:41Z</time>
      </trkpt>
      <trkpt lat="41.055867" lon="-3.740250">
        <ele>1869.0</ele>
        <time>2018-07-21T11:20:42Z</time>
      </trkpt>
      <trkpt lat="41.055783" lon="-3.740350">
        <ele>1869.0</ele>
        <time>2018-07-21T11:20:43Z</time>
      </trkpt>
      <trkpt lat="41.055717" lon="-3.740450">
        <ele>1869.0</ele>
        <time>2018-07-21T11:20:44Z</time>
      </trkpt>
      <trkpt lat="41.055667" lon="-3.740550">
        <ele>1870.0</ele>
        <time>2018-07-21T11:20:45Z</time>
      </trkpt>
      <trkpt lat="41.055617" lon="-3.740650">
        <ele>1870.0</ele>
        <time>2018-07-21T11:20:46Z</time>
      </trkpt>
      <trkpt lat="41.055567" lon="-3.740733">
        <ele>1870.0</ele>
        <time>2018-07-21T11:20:47Z</time>
      </trkpt>
      <trkpt lat="41.055517" lon="-3.740833">
        <ele>1869.0</ele>
        <time>2018-07-21T11:20:48Z</time>
      </trkpt>
      <trkpt lat="41.055467" lon="-3.740917">
        <ele>1868.0</ele>
        <time>2018-07-21T11:20:49Z</time>
      </trkpt>
      <trkpt lat="41.055400" lon="-3.741017">
        <ele>1866.0</ele>
        <time>2018-07-21T11:20:50Z</time>
      </trkpt>
      <trkpt lat="41.055333" lon="-3.741133">
        <ele>1865.0</ele>
        <time>2018-07-21T11:20:51Z</time>
      </trkpt>
      <trkpt lat="41.055250" lon="-3.741250">
        <ele>1866.0</ele>
        <time>2018-07-21T11:20:52Z</time>
      </trkpt>
      <trkpt lat="41.055183" lon="-3.741367">
        <ele>1867.0</ele>
        <time>2018-07-21T11:20:53Z</time>
      </trkpt>
      <trkpt lat="41.055117" lon="-3.741467">
        <ele>1869.0</ele>
        <time>2018-07-21T11:20:54Z</time>
      </trkpt>
      <trkpt lat="41.055067" lon="-3.741567">
        <ele>1871.0</ele>
        <time>2018-07-21T11:20:55Z</time>
      </trkpt>
      <trkpt lat="41.054983" lon="-3.741650">
        <ele>1872.0</ele>
        <time>2018-07-21T11:20:56Z</time>
      </trkpt>
      <trkpt lat="41.054917" lon="-3.741750">
        <ele>1873.0</ele>
        <time>2018-07-21T11:20:57Z</time>
      </trkpt>
      <trkpt lat="41.054867" lon="-3.741850">
        <ele>1874.0</ele>
        <time>2018-07-21T11:20:58Z</time>
      </trkpt>
      <trkpt lat="41.054833" lon="-3.741950">
        <ele>1875.0</ele>
        <time>2018-07-21T11:20:59Z</time>
      </trkpt>
      <trkpt lat="41.054850" lon="-3.742033">
        <ele>1875.0</ele>
        <time>2018-07-21T11:21:00Z</time>
      </trkpt>
      <trkpt lat="41.054883" lon="-3.742117">
        <ele>1876.0</ele>
        <time>2018-07-21T11:21:01Z</time>
      </trkpt>
      <trkpt lat="41.054900" lon="-3.742200">
        <ele>1877.0</ele>
        <time>2018-07-21T11:21:02Z</time>
      </trkpt>
      <trkpt lat="41.054933" lon="-3.742283">
        <ele>1878.0</ele>
        <time>2018-07-21T11:21:03Z</time>
      </trkpt>
      <trkpt lat="41.054917" lon="-3.742367">
        <ele>1880.0</ele>
        <time>2018-07-21T11:21:04Z</time>
      </trkpt>
      <trkpt lat="41.054883" lon="-3.742467">
        <ele>1881.0</ele>
        <time>2018-07-21T11:21:05Z</time>
      </trkpt>
      <trkpt lat="41.054817" lon="-3.742567">
        <ele>1882.0</ele>
        <time>2018-07-21T11:21:06Z</time>
      </trkpt>
      <trkpt lat="41.054733" lon="-3.742667">
        <ele>1883.0</ele>
        <time>2018-07-21T11:21:07Z</time>
      </trkpt>
      <trkpt lat="41.054617" lon="-3.742717">
        <ele>1884.0</ele>
        <time>2018-07-21T11:21:08Z</time>
      </trkpt>
      <trkpt lat="41.054500" lon="-3.742717">
        <ele>1885.0</ele>
        <time>2018-07-21T11:21:09Z</time>
      </trkpt>
      <trkpt lat="41.054367" lon="-3.742650">
        <ele>1887.0</ele>
        <time>2018-07-21T11:21:10Z</time>
      </trkpt>
      <trkpt lat="41.054283" lon="-3.742533">
        <ele>1891.0</ele>
        <time>2018-07-21T11:21:11Z</time>
      </trkpt>
      <trkpt lat="41.054217" lon="-3.742417">
        <ele>1894.0</ele>
        <time>2018-07-21T11:21:12Z</time>
      </trkpt>
      <trkpt lat="41.054167" lon="-3.742300">
        <ele>1897.0</ele>
        <time>2018-07-21T11:21:13Z</time>
      </trkpt>
      <trkpt lat="41.054117" lon="-3.742183">
        <ele>1898.0</ele>
        <time>2018-07-21T11:21:14Z</time>
      </trkpt>
      <trkpt lat="41.054100" lon="-3.742033">
        <ele>1899.0</ele>
        <time>2018-07-21T11:21:15Z</time>
      </trkpt>
      <trkpt lat="41.054117" lon="-3.741900">
        <ele>1898.0</ele>
        <time>2018-07-21T11:21:16Z</time>
      </trkpt>
      <trkpt lat="41.054150" lon="-3.741750">
        <ele>1899.0</ele>
        <time>2018-07-21T11:21:17Z</time>
      </trkpt>
      <trkpt lat="41.054183" lon="-3.741633">
        <ele>1902.0</ele>
        <time>2018-07-21T11:21:18Z</time>
      </trkpt>
      <trkpt lat="41.054233" lon="-3.741550">
        <ele>1904.0</ele>
        <time>2018-07-21T11:21:19Z</time>
      </trkpt>
      <trkpt lat="41.054267" lon="-3.741500">
        <ele>1906.0</ele>
        <time>2018-07-21T11:21:20Z</time>
      </trkpt>
      <trkpt lat="41.054317" lon="-3.741517">
        <ele>1906.0</ele>
        <time>2018-07-21T11:21:21Z</time>
      </trkpt>
      <trkpt lat="41.054367" lon="-3.741550">
        <ele>1906.0</ele>
        <time>2018-07-21T11:21:22Z</time>
      </trkpt>
      <trkpt lat="41.054400" lon="-3.741617">
        <ele>1908.0</ele>
        <time>2018-07-21T11:21:23Z</time>
      </trkpt>
      <trkpt lat="41.054417" lon="-3.741700">
        <ele>1909.0</ele>
        <time>2018-07-21T11:21:24Z</time>
      </trkpt>
      <trkpt lat="41.054433" lon="-3.741800">
        <ele>1911.0</ele>
        <time>2018-07-21T11:21:25Z</time>
      </trkpt>
      <trkpt lat="41.054433" lon="-3.741883">
        <ele>1913.0</ele>
        <time>2018-07-21T11:21:26Z</time>
      </trkpt>
      <trkpt lat="41.054417" lon="-3.741983">
        <ele>1915.0</ele>
        <time>2018-07-21T11:21:27Z</time>
      </trkpt>
      <trkpt lat="41.054417" lon="-3.742067">
        <ele>1916.0</ele>
        <time>2018-07-21T11:21:28Z</time>
      </trkpt>
      <trkpt lat="41.054383" lon="-3.742167">
        <ele>1918.0</ele>
        <time>2018-07-21T11:21:29Z</time>
      </trkpt>
      <trkpt lat="41.054333" lon="-3.742267">
        <ele>1919.0</ele>
        <time>2018-07-21T11:21:30Z</time>
      </trkpt>
      <trkpt lat="41.054233" lon="-3.742333">
        <ele>1919.0</ele>
        <time>2018-07-21T11:21:31Z</time>
      </trkpt>
      <trkpt lat="41.054100" lon="-3.742367">
        <ele>1919.0</ele>
        <time>2018-07-21T11:21:32Z</time>
      </trkpt>
      <trkpt lat="41.053967" lon="-3.742350">
        <ele>1920.0</ele>
        <time>2018-07-21T11:21:33Z</time>
      </trkpt>
      <trkpt lat="41.053833" lon="-3.742283">
        <ele>1923.0</ele>
        <time>2018-07-21T11:21:34Z</time>
      </trkpt>
      <trkpt lat="41.053733" lon="-3.742183">
        <ele>1928.0</ele>
        <time>2018-07-21T11:21:35Z</time>
      </trkpt>
      <trkpt lat="41.053667" lon="-3.742083">
        <ele>1931.0</ele>
        <time>2018-07-21T11:21:36Z</time>
      </trkpt>
      <trkpt lat="41.053633" lon="-3.741967">
        <ele>1932.0</ele>
        <time>2018-07-21T11:21:37Z</time>
      </trkpt>
      <trkpt lat="41.053583" lon="-3.741867">
        <ele>1932.0</ele>
        <time>2018-07-21T11:21:38Z</time>
      </trkpt>
      <trkpt lat="41.053550" lon="-3.741733">
        <ele>1932.0</ele>
        <time>2018-07-21T11:21:39Z</time>
      </trkpt>
      <trkpt lat="41.053533" lon="-3.741583">
        <ele>1931.0</ele>
        <time>2018-07-21T11:21:40Z</time>
      </trkpt>
      <trkpt lat="41.053533" lon="-3.741417">
        <ele>1929.0</ele>
        <time>2018-07-21T11:21:41Z</time>
      </trkpt>
      <trkpt lat="41.053567" lon="-3.741267">
        <ele>1928.0</ele>
        <time>2018-07-21T11:21:42Z</time>
      </trkpt>
      <trkpt lat="41.053633" lon="-3.741150">
        <ele>1928.0</ele>
        <time>2018-07-21T11:21:43Z</time>
      </trkpt>
      <trkpt lat="41.053717" lon="-3.741083">
        <ele>1928.0</ele>
        <time>2018-07-21T11:21:44Z</time>
      </trkpt>
      <trkpt lat="41.053817" lon="-3.741067">
        <ele>1929.0</ele>
        <time>2018-07-21T11:21:45Z</time>
      </trkpt>
      <trkpt lat="41.053867" lon="-3.741117">
        <ele>1931.0</ele>
        <time>2018-07-21T11:21:46Z</time>
      </trkpt>
      <trkpt lat="41.053900" lon="-3.741183">
        <ele>1934.0</ele>
        <time>2018-07-21T11:21:47Z</time>
      </trkpt>
      <trkpt lat="41.053917" lon="-3.741250">
        <ele>1937.0</ele>
        <time>2018-07-21T11:21:48Z</time>
      </trkpt>
      <trkpt lat="41.053917" lon="-3.741317">
        <ele>1940.0</ele>
        <time>2018-07-21T11:21:49Z</time>
      </trkpt>
      <trkpt lat="41.053933" lon="-3.741350">
        <ele>1941.0</ele>
        <time>2018-07-21T11:21:50Z</time>
      </trkpt>
      <trkpt lat="41.053933" lon="-3.741417">
        <ele>1942.0</ele>
        <time>2018-07-21T11:21:51Z</time>
      </trkpt>
      <trkpt lat="41.053917" lon="-3.741517">
        <ele>1943.0</ele>
        <time>2018-07-21T11:21:52Z</time>
      </trkpt>
      <trkpt lat="41.053867" lon="-3.741617">
        <ele>1944.0</ele>
        <time>2018-07-21T11:21:53Z</time>
      </trkpt>
      <trkpt lat="41.053783" lon="-3.741700">
        <ele>1945.0</ele>
        <time>2018-07-21T11:21:54Z</time>
      </trkpt>
      <trkpt lat="41.053700" lon="-3.741767">
        <ele>1948.0</ele>
        <time>2018-07-21T11:21:55Z</time>
      </trkpt>
      <trkpt lat="41.053583" lon="-3.741783">
        <ele>1950.0</ele>
        <time>2018-07-21T11:21:56Z</time>
      </trkpt>
      <trkpt lat="41.053483" lon="-3.741783">
        <ele>1952.0</ele>
        <time>2018-07-21T11:21:57Z</time>
      </trkpt>
      <trkpt lat="41.053383" lon="-3.741750">
        <ele>1954.0</ele>
        <time>2018-07-21T11:21:58Z</time>
      </trkpt>
      <trkpt lat="41.053283" lon="-3.741683">
        <ele>1955.0</ele>
        <time>2018-07-21T11:21:59Z</time>
      </trkpt>
      <trkpt lat="41.053183" lon="-3.741583">
        <ele>1956.0</ele>
        <time>2018-07-21T11:22:00Z</time>
      </trkpt>
      <trkpt lat="41.053083" lon="-3.741483">
        <ele>1956.0</ele>
        <time>2018-07-21T11:22:01Z</time>
      </trkpt>
      <trkpt lat="41.052983" lon="-3.741383">
        <ele>1957.0</ele>
        <time>2018-07-21T11:22:02Z</time>
      </trkpt>
      <trkpt lat="41.052883" lon="-3.741300">
        <ele>1956.0</ele>
        <time>2018-07-21T11:22:03Z</time>
      </trkpt>
      <trkpt lat="41.052783" lon="-3.741250">
        <ele>1955.0</ele>
        <time>2018-07-21T11:22:04Z</time>
      </trkpt>
      <trkpt lat="41.052667" lon="-3.741200">
        <ele>1953.0</ele>
        <time>2018-07-21T11:22:05Z</time>
      </trkpt>
      <trkpt lat="41.052550" lon="-3.741200">
        <ele>1952.0</ele>
        <time>2018-07-21T11:22:06Z</time>
      </trkpt>
      <trkpt lat="41.052450" lon="-3.741217">
        <ele>1950.0</ele>
        <time>2018-07-21T11:22:07Z</time>
      </trkpt>
      <trkpt lat="41.052367" lon="-3.741233">
        <ele>1950.0</ele>
        <time>2018-07-21T11:22:08Z</time>
      </trkpt>
      <trkpt lat="41.052283" lon="-3.741267">
        <ele>1949.0</ele>
        <time>2018-07-21T11:22:09Z</time>
      </trkpt>
      <trkpt lat="41.052200" lon="-3.741300">
        <ele>1949.0</ele>
        <time>2018-07-21T11:22:10Z</time>
      </trkpt>
      <trkpt lat="41.052100" lon="-3.741333">
        <ele>1949.0</ele>
        <time>2018-07-21T11:22:11Z</time>
      </trkpt>
      <trkpt lat="41.052017" lon="-3.741367">
        <ele>1949.0</ele>
        <time>2018-07-21T11:22:12Z</time>
      </trkpt>
      <trkpt lat="41.051933" lon="-3.741417">
        <ele>1949.0</ele>
        <time>2018-07-21T11:22:13Z</time>
      </trkpt>
      <trkpt lat="41.051850" lon="-3.741467">
        <ele>1950.0</ele>
        <time>2018-07-21T11:22:14Z</time>
      </trkpt>
      <trkpt lat="41.051800" lon="-3.741500">
        <ele>1953.0</ele>
        <time>2018-07-21T11:22:15Z</time>
      </trkpt>
      <trkpt lat="41.051750" lon="-3.741550">
        <ele>1955.0</ele>
        <time>2018-07-21T11:22:16Z</time>
      </trkpt>
      <trkpt lat="41.051700" lon="-3.741583">
        <ele>1956.0</ele>
        <time>2018-07-21T11:22:17Z</time>
      </trkpt>
      <trkpt lat="41.051633" lon="-3.741633">
        <ele>1957.0</ele>
        <time>2018-07-21T11:22:18Z</time>
      </trkpt>
      <trkpt lat="41.051583" lon="-3.741683">
        <ele>1957.0</ele>
        <time>2018-07-21T11:22:19Z</time>
      </trkpt>
      <trkpt lat="41.051517" lon="-3.741733">
        <ele>1957.0</ele>
        <time>2018-07-21T11:22:20Z</time>
      </trkpt>
      <trkpt lat="41.051467" lon="-3.741800">
        <ele>1957.0</ele>
        <time>2018-07-21T11:22:21Z</time>
      </trkpt>
      <trkpt lat="41.051417" lon="-3.741850">
        <ele>1957.0</ele>
        <time>2018-07-21T11:22:22Z</time>
      </trkpt>
      <trkpt lat="41.051350" lon="-3.741900">
        <ele>1958.0</ele>
        <time>2018-07-21T11:22:23Z</time>
      </trkpt>
      <trkpt lat="41.051300" lon="-3.741967">
        <ele>1958.0</ele>
        <time>2018-07-21T11:22:24Z</time>
      </trkpt>
      <trkpt lat="41.051233" lon="-3.742017">
        <ele>1958.0</ele>
        <time>2018-07-21T11:22:25Z</time>
      </trkpt>
      <trkpt lat="41.051183" lon="-3.742067">
        <ele>1958.0</ele>
        <time>2018-07-21T11:22:26Z</time>
      </trkpt>
      <trkpt lat="41.051117" lon="-3.742117">
        <ele>1958.0</ele>
        <time>2018-07-21T11:22:27Z</time>
      </trkpt>
      <trkpt lat="41.051033" lon="-3.742150">
        <ele>1958.0</ele>
        <time>2018-07-21T11:22:28Z</time>
      </trkpt>
      <trkpt lat="41.050950" lon="-3.742200">
        <ele>1958.0</ele>
        <time>2018-07-21T11:22:29Z</time>
      </trkpt>
      <trkpt lat="41.050883" lon="-3.742233">
        <ele>1959.0</ele>
        <time>2018-07-21T11:22:30Z</time>
      </trkpt>
      <trkpt lat="41.050817" lon="-3.742267">
        <ele>1959.0</ele>
        <time>2018-07-21T11:22:31Z</time>
      </trkpt>
      <trkpt lat="41.050750" lon="-3.742300">
        <ele>1959.0</ele>
        <time>2018-07-21T11:22:32Z</time>
      </trkpt>
      <trkpt lat="41.050683" lon="-3.742333">
        <ele>1959.0</ele>
        <time>2018-07-21T11:22:33Z</time>
      </trkpt>
      <trkpt lat="41.050617" lon="-3.742367">
        <ele>1958.0</ele>
        <time>2018-07-21T11:22:34Z</time>
      </trkpt>
      <trkpt lat="41.050533" lon="-3.742400">
        <ele>1956.0</ele>
        <time>2018-07-21T11:22:35Z</time>
      </trkpt>
      <trkpt lat="41.050450" lon="-3.742450">
        <ele>1955.0</ele>
        <time>2018-07-21T11:22:36Z</time>
      </trkpt>
      <trkpt lat="41.050383" lon="-3.742500">
        <ele>1955.0</ele>
        <time>2018-07-21T11:22:37Z</time>
      </trkpt>
      <trkpt lat="41.050300" lon="-3.742550">
        <ele>1954.0</ele>
        <time>2018-07-21T11:22:38Z</time>
      </trkpt>
      <trkpt lat="41.050233" lon="-3.742600">
        <ele>1954.0</ele>
        <time>2018-07-21T11:22:39Z</time>
      </trkpt>
      <trkpt lat="41.050150" lon="-3.742650">
        <ele>1954.0</ele>
        <time>2018-07-21T11:22:40Z</time>
      </trkpt>
      <trkpt lat="41.050083" lon="-3.742700">
        <ele>1953.0</ele>
        <time>2018-07-21T11:22:41Z</time>
      </trkpt>
      <trkpt lat="41.050000" lon="-3.742733">
        <ele>1953.0</ele>
        <time>2018-07-21T11:22:42Z</time>
      </trkpt>
      <trkpt lat="41.049933" lon="-3.742783">
        <ele>1953.0</ele>
        <time>2018-07-21T11:22:43Z</time>
      </trkpt>
      <trkpt lat="41.049850" lon="-3.742800">
        <ele>1953.0</ele>
        <time>2018-07-21T11:22:44Z</time>
      </trkpt>
      <trkpt lat="41.049767" lon="-3.742817">
        <ele>1954.0</ele>
        <time>2018-07-21T11:22:45Z</time>
      </trkpt>
      <trkpt lat="41.049683" lon="-3.742850">
        <ele>1953.0</ele>
        <time>2018-07-21T11:22:46Z</time>
      </trkpt>
      <trkpt lat="41.049617" lon="-3.742867">
        <ele>1953.0</ele>
        <time>2018-07-21T11:22:47Z</time>
      </trkpt>
      <trkpt lat="41.049533" lon="-3.742900">
        <ele>1953.0</ele>
        <time>2018-07-21T11:22:48Z</time>
      </trkpt>
      <trkpt lat="41.049467" lon="-3.742933">
        <ele>1953.0</ele>
        <time>2018-07-21T11:22:49Z</time>
      </trkpt>
      <trkpt lat="41.049383" lon="-3.742967">
        <ele>1954.0</ele>
        <time>2018-07-21T11:22:50Z</time>
      </trkpt>
      <trkpt lat="41.049317" lon="-3.743000">
        <ele>1955.0</ele>
        <time>2018-07-21T11:22:51Z</time>
      </trkpt>
      <trkpt lat="41.049250" lon="-3.743050">
        <ele>1954.0</ele>
        <time>2018-07-21T11:22:52Z</time>
      </trkpt>
      <trkpt lat="41.049200" lon="-3.743100">
        <ele>1954.0</ele>
        <time>2018-07-21T11:22:53Z</time>
      </trkpt>
      <trkpt lat="41.049150" lon="-3.743150">
        <ele>1953.0</ele>
        <time>2018-07-21T11:22:54Z</time>
      </trkpt>
      <trkpt lat="41.049100" lon="-3.743217">
        <ele>1952.0</ele>
        <time>2018-07-21T11:22:55Z</time>
      </trkpt>
      <trkpt lat="41.049033" lon="-3.743283">
        <ele>1952.0</ele>
        <time>2018-07-21T11:22:56Z</time>
      </trkpt>
      <trkpt lat="41.048950" lon="-3.743317">
        <ele>1953.0</ele>
        <time>2018-07-21T11:22:57Z</time>
      </trkpt>
      <trkpt lat="41.048883" lon="-3.743350">
        <ele>1954.0</ele>
        <time>2018-07-21T11:22:58Z</time>
      </trkpt>
      <trkpt lat="41.048833" lon="-3.743383">
        <ele>1954.0</ele>
        <time>2018-07-21T11:22:59Z</time>
      </trkpt>
      <trkpt lat="41.048767" lon="-3.743417">
        <ele>1952.0</ele>
        <time>2018-07-21T11:23:00Z</time>
      </trkpt>
      <trkpt lat="41.048700" lon="-3.743450">
        <ele>1950.0</ele>
        <time>2018-07-21T11:23:01Z</time>
      </trkpt>
      <trkpt lat="41.048633" lon="-3.743483">
        <ele>1949.0</ele>
        <time>2018-07-21T11:23:02Z</time>
      </trkpt>
      <trkpt lat="41.048550" lon="-3.743533">
        <ele>1948.0</ele>
        <time>2018-07-21T11:23:03Z</time>
      </trkpt>
      <trkpt lat="41.048467" lon="-3.743550">
        <ele>1947.0</ele>
        <time>2018-07-21T11:23:04Z</time>
      </trkpt>
      <trkpt lat="41.048367" lon="-3.743550">
        <ele>1945.0</ele>
        <time>2018-07-21T11:23:05Z</time>
      </trkpt>
      <trkpt lat="41.048267" lon="-3.743533">
        <ele>1944.0</ele>
        <time>2018-07-21T11:23:06Z</time>
      </trkpt>
      <trkpt lat="41.048133" lon="-3.743467">
        <ele>1943.0</ele>
        <time>2018-07-21T11:23:07Z</time>
      </trkpt>
      <trkpt lat="41.048017" lon="-3.743367">
        <ele>1941.0</ele>
        <time>2018-07-21T11:23:08Z</time>
      </trkpt>
      <trkpt lat="41.047933" lon="-3.743217">
        <ele>1941.0</ele>
        <time>2018-07-21T11:23:09Z</time>
      </trkpt>
      <trkpt lat="41.047867" lon="-3.743033">
        <ele>1940.0</ele>
        <time>2018-07-21T11:23:10Z</time>
      </trkpt>
      <trkpt lat="41.047850" lon="-3.742833">
        <ele>1939.0</ele>
        <time>2018-07-21T11:23:11Z</time>
      </trkpt>
      <trkpt lat="41.047867" lon="-3.742650">
        <ele>1938.0</ele>
        <time>2018-07-21T11:23:12Z</time>
      </trkpt>
      <trkpt lat="41.047917" lon="-3.742483">
        <ele>1937.0</ele>
        <time>2018-07-21T11:23:13Z</time>
      </trkpt>
      <trkpt lat="41.047983" lon="-3.742367">
        <ele>1936.0</ele>
        <time>2018-07-21T11:23:14Z</time>
      </trkpt>
      <trkpt lat="41.048067" lon="-3.742283">
        <ele>1935.0</ele>
        <time>2018-07-21T11:23:15Z</time>
      </trkpt>
      <trkpt lat="41.048150" lon="-3.742250">
        <ele>1934.0</ele>
        <time>2018-07-21T11:23:16Z</time>
      </trkpt>
      <trkpt lat="41.048217" lon="-3.742233">
        <ele>1933.0</ele>
        <time>2018-07-21T11:23:17Z</time>
      </trkpt>
      <trkpt lat="41.048267" lon="-3.742233">
        <ele>1933.0</ele>
        <time>2018-07-21T11:23:18Z</time>
      </trkpt>
      <trkpt lat="41.048300" lon="-3.742250">
        <ele>1932.0</ele>
        <time>2018-07-21T11:23:19Z</time>
      </trkpt>
      <trkpt lat="41.048333" lon="-3.742267">
        <ele>1930.0</ele>
        <time>2018-07-21T11:23:20Z</time>
      </trkpt>
      <trkpt lat="41.048367" lon="-3.742317">
        <ele>1928.0</ele>
        <time>2018-07-21T11:23:21Z</time>
      </trkpt>
      <trkpt lat="41.048400" lon="-3.742383">
        <ele>1926.0</ele>
        <time>2018-07-21T11:23:22Z</time>
      </trkpt>
      <trkpt lat="41.048433" lon="-3.742450">
        <ele>1925.0</ele>
        <time>2018-07-21T11:23:23Z</time>
      </trkpt>
      <trkpt lat="41.048467" lon="-3.742500">
        <ele>1926.0</ele>
        <time>2018-07-21T11:23:24Z</time>
      </trkpt>
      <trkpt lat="41.048500" lon="-3.742550">
        <ele>1926.0</ele>
        <time>2018-07-21T11:23:25Z</time>
      </trkpt>
      <trkpt lat="41.048550" lon="-3.742567">
        <ele>1926.0</ele>
        <time>2018-07-21T11:23:26Z</time>
      </trkpt>
      <trkpt lat="41.048600" lon="-3.742583">
        <ele>1926.0</ele>
        <time>2018-07-21T11:23:27Z</time>
      </trkpt>
      <trkpt lat="41.048650" lon="-3.742600">
        <ele>1924.0</ele>
        <time>2018-07-21T11:23:28Z</time>
      </trkpt>
      <trkpt lat="41.048717" lon="-3.742633">
        <ele>1923.0</ele>
        <time>2018-07-21T11:23:29Z</time>
      </trkpt>
      <trkpt lat="41.048783" lon="-3.742650">
        <ele>1922.0</ele>
        <time>2018-07-21T11:23:30Z</time>
      </trkpt>
      <trkpt lat="41.048867" lon="-3.742667">
        <ele>1922.0</ele>
        <time>2018-07-21T11:23:31Z</time>
      </trkpt>
      <trkpt lat="41.048950" lon="-3.742683">
        <ele>1921.0</ele>
        <time>2018-07-21T11:23:32Z</time>
      </trkpt>
      <trkpt lat="41.049033" lon="-3.742717">
        <ele>1921.0</ele>
        <time>2018-07-21T11:23:33Z</time>
      </trkpt>
      <trkpt lat="41.049117" lon="-3.742750">
        <ele>1922.0</ele>
        <time>2018-07-21T11:23:34Z</time>
      </trkpt>
      <trkpt lat="41.049183" lon="-3.742767">
        <ele>1923.0</ele>
        <time>2018-07-21T11:23:35Z</time>
      </trkpt>
      <trkpt lat="41.049267" lon="-3.742783">
        <ele>1923.0</ele>
        <time>2018-07-21T11:23:36Z</time>
      </trkpt>
      <trkpt lat="41.049350" lon="-3.742767">
        <ele>1923.0</ele>
        <time>2018-07-21T11:23:37Z</time>
      </trkpt>
      <trkpt lat="41.049450" lon="-3.742767">
        <ele>1923.0</ele>
        <time>2018-07-21T11:23:38Z</time>
      </trkpt>
      <trkpt lat="41.049533" lon="-3.742767">
        <ele>1923.0</ele>
        <time>2018-07-21T11:23:39Z</time>
      </trkpt>
      <trkpt lat="41.049617" lon="-3.742783">
        <ele>1924.0</ele>
        <time>2018-07-21T11:23:40Z</time>
      </trkpt>
      <trkpt lat="41.049683" lon="-3.742817">
        <ele>1924.0</ele>
        <time>2018-07-21T11:23:41Z</time>
      </trkpt>
      <trkpt lat="41.049750" lon="-3.742833">
        <ele>1926.0</ele>
        <time>2018-07-21T11:23:42Z</time>
      </trkpt>
      <trkpt lat="41.049817" lon="-3.742867">
        <ele>1927.0</ele>
        <time>2018-07-21T11:23:43Z</time>
      </trkpt>
      <trkpt lat="41.049900" lon="-3.742867">
        <ele>1928.0</ele>
        <time>2018-07-21T11:23:44Z</time>
      </trkpt>
      <trkpt lat="41.049967" lon="-3.742867">
        <ele>1929.0</ele>
        <time>2018-07-21T11:23:45Z</time>
      </trkpt>
      <trkpt lat="41.050067" lon="-3.742833">
        <ele>1930.0</ele>
        <time>2018-07-21T11:23:46Z</time>
      </trkpt>
      <trkpt lat="41.050150" lon="-3.742783">
        <ele>1933.0</ele>
        <time>2018-07-21T11:23:47Z</time>
      </trkpt>
      <trkpt lat="41.050233" lon="-3.742667">
        <ele>1934.0</ele>
        <time>2018-07-21T11:23:48Z</time>
      </trkpt>
      <trkpt lat="41.050300" lon="-3.742517">
        <ele>1935.0</ele>
        <time>2018-07-21T11:23:49Z</time>
      </trkpt>
      <trkpt lat="41.050350" lon="-3.742333">
        <ele>1937.0</ele>
        <time>2018-07-21T11:23:50Z</time>
      </trkpt>
      <trkpt lat="41.050367" lon="-3.742150">
        <ele>1938.0</ele>
        <time>2018-07-21T11:23:51Z</time>
      </trkpt>
      <trkpt lat="41.050333" lon="-3.741967">
        <ele>1939.0</ele>
        <time>2018-07-21T11:23:52Z</time>
      </trkpt>
      <trkpt lat="41.050267" lon="-3.741817">
        <ele>1939.0</ele>
        <time>2018-07-21T11:23:53Z</time>
      </trkpt>
      <trkpt lat="41.050167" lon="-3.741717">
        <ele>1939.0</ele>
        <time>2018-07-21T11:23:54Z</time>
      </trkpt>
      <trkpt lat="41.050067" lon="-3.741667">
        <ele>1939.0</ele>
        <time>2018-07-21T11:23:55Z</time>
      </trkpt>
      <trkpt lat="41.049983" lon="-3.741633">
        <ele>1939.0</ele>
        <time>2018-07-21T11:23:56Z</time>
      </trkpt>
      <trkpt lat="41.049900" lon="-3.741633">
        <ele>1940.0</ele>
        <time>2018-07-21T11:23:57Z</time>
      </trkpt>
      <trkpt lat="41.049833" lon="-3.741667">
        <ele>1940.0</ele>
        <time>2018-07-21T11:23:58Z</time>
      </trkpt>
      <trkpt lat="41.049783" lon="-3.741700">
        <ele>1940.0</ele>
        <time>2018-07-21T11:23:59Z</time>
      </trkpt>
      <trkpt lat="41.049767" lon="-3.741767">
        <ele>1940.0</ele>
        <time>2018-07-21T11:24:00Z</time>
      </trkpt>
      <trkpt lat="41.049767" lon="-3.741817">
        <ele>1941.0</ele>
        <time>2018-07-21T11:24:01Z</time>
      </trkpt>
      <trkpt lat="41.049767" lon="-3.741867">
        <ele>1942.0</ele>
        <time>2018-07-21T11:24:02Z</time>
      </trkpt>
      <trkpt lat="41.049800" lon="-3.741917">
        <ele>1942.0</ele>
        <time>2018-07-21T11:24:03Z</time>
      </trkpt>
      <trkpt lat="41.049850" lon="-3.741950">
        <ele>1943.0</ele>
        <time>2018-07-21T11:24:04Z</time>
      </trkpt>
      <trkpt lat="41.049917" lon="-3.741967">
        <ele>1943.0</ele>
        <time>2018-07-21T11:24:05Z</time>
      </trkpt>
      <trkpt lat="41.050000" lon="-3.741967">
        <ele>1943.0</ele>
        <time>2018-07-21T11:24:06Z</time>
      </trkpt>
      <trkpt lat="41.050083" lon="-3.741967">
        <ele>1944.0</ele>
        <time>2018-07-21T11:24:07Z</time>
      </trkpt>
      <trkpt lat="41.050167" lon="-3.741967">
        <ele>1947.0</ele>
        <time>2018-07-21T11:24:08Z</time>
      </trkpt>
      <trkpt lat="41.050233" lon="-3.741967">
        <ele>1950.0</ele>
        <time>2018-07-21T11:24:09Z</time>
      </trkpt>
      <trkpt lat="41.050283" lon="-3.741967">
        <ele>1953.0</ele>
        <time>2018-07-21T11:24:10Z</time>
      </trkpt>
      <trkpt lat="41.050333" lon="-3.741967">
        <ele>1953.0</ele>
        <time>2018-07-21T11:24:11Z</time>
      </trkpt>
      <trkpt lat="41.050367" lon="-3.741967">
        <ele>1953.0</ele>
        <time>2018-07-21T11:24:12Z</time>
      </trkpt>
      <trkpt lat="41.050417" lon="-3.741983">
        <ele>1952.0</ele>
        <time>2018-07-21T11:24:13Z</time>
      </trkpt>
      <trkpt lat="41.050483" lon="-3.742017">
        <ele>1952.0</ele>
        <time>2018-07-21T11:24:14Z</time>
      </trkpt>
      <trkpt lat="41.050533" lon="-3.742033">
        <ele>1952.0</ele>
        <time>2018-07-21T11:24:15Z</time>
      </trkpt>
      <trkpt lat="41.050583" lon="-3.742050">
        <ele>1953.0</ele>
        <time>2018-07-21T11:24:16Z</time>
      </trkpt>
      <trkpt lat="41.050633" lon="-3.742083">
        <ele>1953.0</ele>
        <time>2018-07-21T11:24:17Z</time>
      </trkpt>
      <trkpt lat="41.050683" lon="-3.742100">
        <ele>1954.0</ele>
        <time>2018-07-21T11:24:18Z</time>
      </trkpt>
      <trkpt lat="41.050717" lon="-3.742133">
        <ele>1954.0</ele>
        <time>2018-07-21T11:24:19Z</time>
      </trkpt>
      <trkpt lat="41.050750" lon="-3.742167">
        <ele>1954.0</ele>
        <time>2018-07-21T11:24:20Z</time>
      </trkpt>
      <trkpt lat="41.050800" lon="-3.742200">
        <ele>1954.0</ele>
        <time>2018-07-21T11:24:21Z</time>
      </trkpt>
      <trkpt lat="41.050850" lon="-3.742233">
        <ele>1955.0</ele>
        <time>2018-07-21T11:24:22Z</time>
      </trkpt>
      <trkpt lat="41.050883" lon="-3.742250">
        <ele>1956.0</ele>
        <time>2018-07-21T11:24:23Z</time>
      </trkpt>
      <trkpt lat="41.050933" lon="-3.742283">
        <ele>1958.0</ele>
        <time>2018-07-21T11:24:24Z</time>
      </trkpt>
      <trkpt lat="41.050950" lon="-3.742317">
        <ele>1960.0</ele>
        <time>2018-07-21T11:24:25Z</time>
      </trkpt>
      <trkpt lat="41.050983" lon="-3.742350">
        <ele>1962.0</ele>
        <time>2018-07-21T11:24:26Z</time>
      </trkpt>
      <trkpt lat="41.051017" lon="-3.742383">
        <ele>1964.0</ele>
        <time>2018-07-21T11:24:27Z</time>
      </trkpt>
      <trkpt lat="41.051050" lon="-3.742417">
        <ele>1965.0</ele>
        <time>2018-07-21T11:24:28Z</time>
      </trkpt>
      <trkpt lat="41.051083" lon="-3.742467">
        <ele>1965.0</ele>
        <time>2018-07-21T11:24:29Z</time>
      </trkpt>
      <trkpt lat="41.051100" lon="-3.742517">
        <ele>1965.0</ele>
        <time>2018-07-21T11:24:30Z</time>
      </trkpt>
      <trkpt lat="41.051133" lon="-3.742583">
        <ele>1966.0</ele>
        <time>2018-07-21T11:24:31Z</time>
      </trkpt>
      <trkpt lat="41.051133" lon="-3.742667">
        <ele>1966.0</ele>
        <time>2018-07-21T11:24:32Z</time>
      </trkpt>
      <trkpt lat="41.051150" lon="-3.742733">
        <ele>1968.0</ele>
        <time>2018-07-21T11:24:33Z</time>
      </trkpt>
      <trkpt lat="41.051167" lon="-3.742817">
        <ele>1969.0</ele>
        <time>2018-07-21T11:24:34Z</time>
      </trkpt>
      <trkpt lat="41.051183" lon="-3.742867">
        <ele>1970.0</ele>
        <time>2018-07-21T11:24:35Z</time>
      </trkpt>
      <trkpt lat="41.051217" lon="-3.742933">
        <ele>1972.0</ele>
        <time>2018-07-21T11:24:36Z</time>
      </trkpt>
      <trkpt lat="41.051250" lon="-3.743000">
        <ele>1973.0</ele>
        <time>2018-07-21T11:24:37Z</time>
      </trkpt>
      <trkpt lat="41.051267" lon="-3.743067">
        <ele>1973.0</ele>
        <time>2018-07-21T11:24:38Z</time>
      </trkpt>
      <trkpt lat="41.051300" lon="-3.743133">
        <ele>1974.0</ele>
        <time>2018-07-21T11:24:39Z</time>
      </trkpt>
      <trkpt lat="41.051317" lon="-3.743217">
        <ele>1975.0</ele>
        <time>2018-07-21T11:24:40Z</time>
      </trkpt>
      <trkpt lat="41.051350" lon="-3.743267">
        <ele>1977.0</ele>
        <time>2018-07-21T11:24:41Z</time>
      </trkpt>
      <trkpt lat="41.051383" lon="-3.743317">
        <ele>1978.0</ele>
        <time>2018-07-21T11:24:42Z</time>
      </trkpt>
      <trkpt lat="41.051433" lon="-3.743350">
        <ele>1978.0</ele>
        <time>2018-07-21T11:24:43Z</time>
      </trkpt>
      <trkpt lat="41.051483" lon="-3.743350">
        <ele>1979.0</ele>
        <time>2018-07-21T11:24:44Z</time>
      </trkpt>
      <trkpt lat="41.051533" lon="-3.743333">
        <ele>1978.0</ele>
        <time>2018-07-21T11:24:45Z</time>
      </trkpt>
      <trkpt lat="41.051600" lon="-3.743300">
        <ele>1978.0</ele>
        <time>2018-07-21T11:24:46Z</time>
      </trkpt>
      <trkpt lat="41.051667" lon="-3.743217">
        <ele>1977.0</ele>
        <time>2018-07-21T11:24:47Z</time>
      </trkpt>
      <trkpt lat="41.051733" lon="-3.743117">
        <ele>1978.0</ele>
        <time>2018-07-21T11:24:48Z</time>
      </trkpt>
      <trkpt lat="41.051783" lon="-3.742967">
        <ele>1979.0</ele>
        <time>2018-07-21T11:24:49Z</time>
      </trkpt>
      <trkpt lat="41.051783" lon="-3.742817">
        <ele>1981.0</ele>
        <time>2018-07-21T11:24:50Z</time>
      </trkpt>
      <trkpt lat="41.051767" lon="-3.742633">
        <ele>1982.0</ele>
        <time>2018-07-21T11:24:51Z</time>
      </trkpt>
      <trkpt lat="41.051733" lon="-3.742483">
        <ele>1985.0</ele>
        <time>2018-07-21T11:24:52Z</time>
      </trkpt>
      <trkpt lat="41.051667" lon="-3.742333">
        <ele>1988.0</ele>
        <time>2018-07-21T11:24:53Z</time>
      </trkpt>
      <trkpt lat="41.051583" lon="-3.742217">
        <ele>1989.0</ele>
        <time>2018-07-21T11:24:54Z</time>
      </trkpt>
      <trkpt lat="41.051483" lon="-3.742133">
        <ele>1990.0</ele>
        <time>2018-07-21T11:24:55Z</time>
      </trkpt>
      <trkpt lat="41.051367" lon="-3.742100">
        <ele>1991.0</ele>
        <time>2018-07-21T11:24:56Z</time>
      </trkpt>
      <trkpt lat="41.051250" lon="-3.742067">
        <ele>1992.0</ele>
        <time>2018-07-21T11:24:57Z</time>
      </trkpt>
      <trkpt lat="41.051150" lon="-3.742050">
        <ele>1995.0</ele>
        <time>2018-07-21T11:24:58Z</time>
      </trkpt>
      <trkpt lat="41.051050" lon="-3.742033">
        <ele>1998.0</ele>
        <time>2018-07-21T11:24:59Z</time>
      </trkpt>
      <trkpt lat="41.050967" lon="-3.742033">
        <ele>2000.0</ele>
        <time>2018-07-21T11:25:00Z</time>
      </trkpt>
      <trkpt lat="41.050900" lon="-3.742067">
        <ele>2001.0</ele>
        <time>2018-07-21T11:25:01Z</time>
      </trkpt>
      <trkpt lat="41.050850" lon="-3.742100">
        <ele>2000.0</ele>
        <time>2018-07-21T11:25:02Z</time>
      </trkpt>
      <trkpt lat="41.050800" lon="-3.742150">
        <ele>2000.0</ele>
        <time>2018-07-21T11:25:03Z</time>
      </trkpt>
      <trkpt lat="41.050783" lon="-3.742200">
        <ele>1999.0</ele>
        <time>2018-07-21T11:25:04Z</time>
      </trkpt>
      <trkpt lat="41.050783" lon="-3.742250">
        <ele>1998.0</ele>
        <time>2018-07-21T11:25:05Z</time>
      </trkpt>
      <trkpt lat="41.050800" lon="-3.742317">
        <ele>1997.0</ele>
        <time>2018-07-21T11:25:06Z</time>
      </trkpt>
      <trkpt lat="41.050817" lon="-3.742350">
        <ele>1997.0</ele>
        <time>2018-07-21T11:25:07Z</time>
      </trkpt>
      <trkpt lat="41.050833" lon="-3.742400">
        <ele>1996.0</ele>
        <time>2018-07-21T11:25:08Z</time>
      </trkpt>
      <trkpt lat="41.050867" lon="-3.742450">
        <ele>1996.0</ele>
        <time>2018-07-21T11:25:09Z</time>
      </trkpt>
      <trkpt lat="41.050917" lon="-3.742500">
        <ele>1995.0</ele>
        <time>2018-07-21T11:25:10Z</time>
      </trkpt>
      <trkpt lat="41.050950" lon="-3.742533">
        <ele>1995.0</ele>
        <time>2018-07-21T11:25:11Z</time>
      </trkpt>
      <trkpt lat="41.051000" lon="-3.742583">
        <ele>1995.0</ele>
        <time>2018-07-21T11:25:12Z</time>
      </trkpt>
      <trkpt lat="41.051050" lon="-3.742617">
        <ele>1996.0</ele>
        <time>2018-07-21T11:25:13Z</time>
      </trkpt>
      <trkpt lat="41.051100" lon="-3.742650">
        <ele>1996.0</ele>
        <time>2018-07-21T11:25:14Z</time>
      </trkpt>
      <trkpt lat="41.051133" lon="-3.742700">
        <ele>1997.0</ele>
        <time>2018-07-21T11:25:15Z</time>
      </trkpt>
      <trkpt lat="41.051167" lon="-3.742733">
        <ele>1997.0</ele>
        <time>2018-07-21T11:25:16Z</time>
      </trkpt>
      <trkpt lat="41.051200" lon="-3.742783">
        <ele>1997.0</ele>
        <time>2018-07-21T11:25:17Z</time>
      </trkpt>
      <trkpt lat="41.051233" lon="-3.742833">
        <ele>1997.0</ele>
        <time>2018-07-21T11:25:18Z</time>
      </trkpt>
      <trkpt lat="41.051250" lon="-3.742883">
        <ele>1997.0</ele>
        <time>2018-07-21T11:25:19Z</time>
      </trkpt>
      <trkpt lat="41.051283" lon="-3.742933">
        <ele>1998.0</ele>
        <time>2018-07-21T11:25:20Z</time>
      </trkpt>
      <trkpt lat="41.051317" lon="-3.742983">
        <ele>1998.0</ele>
        <time>2018-07-21T11:25:21Z</time>
      </trkpt>
      <trkpt lat="41.051367" lon="-3.743050">
        <ele>2000.0</ele>
        <time>2018-07-21T11:25:22Z</time>
      </trkpt>
      <trkpt lat="41.051400" lon="-3.743117">
        <ele>2003.0</ele>
        <time>2018-07-21T11:25:23Z</time>
      </trkpt>
      <trkpt lat="41.051433" lon="-3.743167">
        <ele>2007.0</ele>
        <time>2018-07-21T11:25:24Z</time>
      </trkpt>
      <trkpt lat="41.051467" lon="-3.743217">
        <ele>2010.0</ele>
        <time>2018-07-21T11:25:25Z</time>
      </trkpt>
      <trkpt lat="41.051483" lon="-3.743250">
        <ele>2013.0</ele>
        <time>2018-07-21T11:25:26Z</time>
      </trkpt>
      <trkpt lat="41.051517" lon="-3.743267">
        <ele>2014.0</ele>
        <time>2018-07-21T11:25:27Z</time>
      </trkpt>
      <trkpt lat="41.051550" lon="-3.743283">
        <ele>2015.0</ele>
        <time>2018-07-21T11:25:28Z</time>
      </trkpt>
      <trkpt lat="41.051600" lon="-3.743283">
        <ele>2015.0</ele>
        <time>2018-07-21T11:25:29Z</time>
      </trkpt>
      <trkpt lat="41.051683" lon="-3.743250">
        <ele>2016.0</ele>
        <time>2018-07-21T11:25:30Z</time>
      </trkpt>
      <trkpt lat="41.051750" lon="-3.743183">
        <ele>2016.0</ele>
        <time>2018-07-21T11:25:31Z</time>
      </trkpt>
      <trkpt lat="41.051817" lon="-3.743067">
        <ele>2016.0</ele>
        <time>2018-07-21T11:25:32Z</time>
      </trkpt>
      <trkpt lat="41.051850" lon="-3.742917">
        <ele>2015.0</ele>
        <time>2018-07-21T11:25:33Z</time>
      </trkpt>
      <trkpt lat="41.051833" lon="-3.742733">
        <ele>2014.0</ele>
        <time>2018-07-21T11:25:34Z</time>
      </trkpt>
      <trkpt lat="41.051783" lon="-3.742567">
        <ele>2014.0</ele>
        <time>2018-07-21T11:25:35Z</time>
      </trkpt>
      <trkpt lat="41.051683" lon="-3.742433">
        <ele>2015.0</ele>
        <time>2018-07-21T11:25:36Z</time>
      </trkpt>
      <trkpt lat="41.051583" lon="-3.742333">
        <ele>2016.0</ele>
        <time>2018-07-21T11:25:37Z</time>
      </trkpt>
      <trkpt lat="41.051467" lon="-3.742267">
        <ele>2016.0</ele>
        <time>2018-07-21T11:25:38Z</time>
      </trkpt>
      <trkpt lat="41.051350" lon="-3.742250">
        <ele>2016.0</ele>
        <time>2018-07-21T11:25:39Z</time>
      </trkpt>
      <trkpt lat="41.051250" lon="-3.742250">
        <ele>2017.0</ele>
        <time>2018-07-21T11:25:40Z</time>
      </trkpt>
      <trkpt lat="41.051133" lon="-3.742283">
        <ele>2018.0</ele>
        <time>2018-07-21T11:25:41Z</time>
      </trkpt>
      <trkpt lat="41.051033" lon="-3.742333">
        <ele>2020.0</ele>
        <time>2018-07-21T11:25:42Z</time>
      </trkpt>
      <trkpt lat="41.050950" lon="-3.742383">
        <ele>2023.0</ele>
        <time>2018-07-21T11:25:43Z</time>
      </trkpt>
      <trkpt lat="41.050850" lon="-3.742433">
        <ele>2025.0</ele>
        <time>2018-07-21T11:25:44Z</time>
      </trkpt>
      <trkpt lat="41.050767" lon="-3.742483">
        <ele>2027.0</ele>
        <time>2018-07-21T11:25:45Z</time>
      </trkpt>
      <trkpt lat="41.050700" lon="-3.742517">
        <ele>2029.0</ele>
        <time>2018-07-21T11:25:46Z</time>
      </trkpt>
      <trkpt lat="41.050633" lon="-3.742567">
        <ele>2030.0</ele>
        <time>2018-07-21T11:25:47Z</time>
      </trkpt>
      <trkpt lat="41.050600" lon="-3.742633">
        <ele>2030.0</ele>
        <time>2018-07-21T11:25:48Z</time>
      </trkpt>
      <trkpt lat="41.050583" lon="-3.742717">
        <ele>2029.0</ele>
        <time>2018-07-21T11:25:49Z</time>
      </trkpt>
      <trkpt lat="41.050583" lon="-3.742800">
        <ele>2029.0</ele>
        <time>2018-07-21T11:25:50Z</time>
      </trkpt>
      <trkpt lat="41.050600" lon="-3.742867">
        <ele>2031.0</ele>
        <time>2018-07-21T11:25:51Z</time>
      </trkpt>
      <trkpt lat="41.050617" lon="-3.742917">
        <ele>2033.0</ele>
        <time>2018-07-21T11:25:52Z</time>
      </trkpt>
      <trkpt lat="41.050633" lon="-3.742933">
        <ele>2036.0</ele>
        <time>2018-07-21T11:25:53Z</time>
      </trkpt>
      <trkpt lat="41.050667" lon="-3.742950">
        <ele>2037.0</ele>
        <time>2018-07-21T11:25:54Z</time>
      </trkpt>
      <trkpt lat="41.050700" lon="-3.742950">
        <ele>2037.0</ele>
        <time>2018-07-21T11:25:55Z</time>
      </trkpt>
      <trkpt lat="41.050750" lon="-3.742967">
        <ele>2037.0</ele>
        <time>2018-07-21T11:25:56Z</time>
      </trkpt>
      <trkpt lat="41.050800" lon="-3.742967">
        <ele>2038.0</ele>
        <time>2018-07-21T11:25:57Z</time>
      </trkpt>
      <trkpt lat="41.050867" lon="-3.742983">
        <ele>2039.0</ele>
        <time>2018-07-21T11:25:58Z</time>
      </trkpt>
      <trkpt lat="41.050933" lon="-3.742967">
        <ele>2042.0</ele>
        <time>2018-07-21T11:25:59Z</time>
      </trkpt>
      <trkpt lat="41.050983" lon="-3.742950">
        <ele>2044.0</ele>
        <time>2018-07-21T11:26:00Z</time>
      </trkpt>
      <trkpt lat="41.051050" lon="-3.742900">
        <ele>2044.0</ele>
        <time>2018-07-21T11:26:01Z</time>
      </trkpt>
      <trkpt lat="41.051100" lon="-3.742850">
        <ele>2044.0</ele>
        <time>2018-07-21T11:26:02Z</time>
      </trkpt>
      <trkpt lat="41.051167" lon="-3.742800">
        <ele>2043.0</ele>
        <time>2018-07-21T11:26:03Z</time>
      </trkpt>
      <trkpt lat="41.051233" lon="-3.742767">
        <ele>2041.0</ele>
        <time>2018-07-21T11:26:04Z</time>
      </trkpt>
      <trkpt lat="41.051300" lon="-3.742717">
        <ele>2039.0</ele>
        <time>2018-07-21T11:26:05Z</time>
      </trkpt>
      <trkpt lat="41.051383" lon="-3.742683">
        <ele>2038.0</ele>
        <time>2018-07-21T11:26:06Z</time>
      </trkpt>
      <trkpt lat="41.051450" lon="-3.742650">
        <ele>2037.0</ele>
        <time>2018-07-21T11:26:07Z</time>
      </trkpt>
      <trkpt lat="41.051533" lon="-3.742650">
        <ele>2036.0</ele>
        <time>2018-07-21T11:26:08Z</time>
      </trkpt>
      <trkpt lat="41.051583" lon="-3.742650">
        <ele>2035.0</ele>
        <time>2018-07-21T11:26:09Z</time>
      </trkpt>
      <trkpt lat="41.051650" lon="-3.742667">
        <ele>2034.0</ele>
        <time>2018-07-21T11:26:10Z</time>
      </trkpt>
      <trkpt lat="41.051700" lon="-3.742667">
        <ele>2032.0</ele>
        <time>2018-07-21T11:26:11Z</time>
      </trkpt>
      <trkpt lat="41.051767" lon="-3.742667">
        <ele>2030.0</ele>
        <time>2018-07-21T11:26:12Z</time>
      </trkpt>
      <trkpt lat="41.051833" lon="-3.742667">
        <ele>2027.0</ele>
        <time>2018-07-21T11:26:13Z</time>
      </trkpt>
      <trkpt lat="41.051900" lon="-3.742650">
        <ele>2024.0</ele>
        <time>2018-07-21T11:26:14Z</time>
      </trkpt>
      <trkpt lat="41.051983" lon="-3.742633">
        <ele>2021.0</ele>
        <time>2018-07-21T11:26:15Z</time>
      </trkpt>
      <trkpt lat="41.052050" lon="-3.742633">
        <ele>2020.0</ele>
        <time>2018-07-21T11:26:16Z</time>
      </trkpt>
      <trkpt lat="41.052133" lon="-3.742617">
        <ele>2018.0</ele>
        <time>2018-07-21T11:26:17Z</time>
      </trkpt>
      <trkpt lat="41.052200" lon="-3.742600">
        <ele>2017.0</ele>
        <time>2018-07-21T11:26:18Z</time>
      </trkpt>
      <trkpt lat="41.052267" lon="-3.742567">
        <ele>2015.0</ele>
        <time>2018-07-21T11:26:19Z</time>
      </trkpt>
      <trkpt lat="41.052333" lon="-3.742550">
        <ele>2014.0</ele>
        <time>2018-07-21T11:26:20Z</time>
      </trkpt>
      <trkpt lat="41.052417" lon="-3.742550">
        <ele>2011.0</ele>
        <time>2018-07-21T11:26:21Z</time>
      </trkpt>
      <trkpt lat="41.052500" lon="-3.742550">
        <ele>2010.0</ele>
        <time>2018-07-21T11:26:22Z</time>
      </trkpt>
      <trkpt lat="41.052583" lon="-3.742567">
        <ele>2009.0</ele>
        <time>2018-07-21T11:26:23Z</time>
      </trkpt>
      <trkpt lat="41.052667" lon="-3.742583">
        <ele>2009.0</ele>
        <time>2018-07-21T11:26:24Z</time>
      </trkpt>
      <trkpt lat="41.052733" lon="-3.742600">
        <ele>2008.0</ele>
        <time>2018-07-21T11:26:25Z</time>
      </trkpt>
      <trkpt lat="41.052817" lon="-3.742600">
        <ele>2006.0</ele>
        <time>2018-07-21T11:26:26Z</time>
      </trkpt>
      <trkpt lat="41.052883" lon="-3.742600">
        <ele>2003.0</ele>
        <time>2018-07-21T11:26:27Z</time>
      </trkpt>
      <trkpt lat="41.052983" lon="-3.742583">
        <ele>2002.0</ele>
        <time>2018-07-21T11:26:28Z</time>
      </trkpt>
      <trkpt lat="41.053067" lon="-3.742567">
        <ele>2002.0</ele>
        <time>2018-07-21T11:26:29Z</time>
      </trkpt>
      <trkpt lat="41.053133" lon="-3.742550">
        <ele>2003.0</ele>
        <time>2018-07-21T11:26:30Z</time>
      </trkpt>
      <trkpt lat="41.053183" lon="-3.742517">
        <ele>2003.0</ele>
        <time>2018-07-21T11:26:31Z</time>
      </trkpt>
      <trkpt lat="41.053250" lon="-3.742500">
        <ele>2003.0</ele>
        <time>2018-07-21T11:26:32Z</time>
      </trkpt>
      <trkpt lat="41.053317" lon="-3.742500">
        <ele>2003.0</ele>
        <time>2018-07-21T11:26:33Z</time>
      </trkpt>
      <trkpt lat="41.053383" lon="-3.742483">
        <ele>2004.0</ele>
        <time>2018-07-21T11:26:34Z</time>
      </trkpt>
      <trkpt lat="41.053467" lon="-3.742483">
        <ele>2005.0</ele>
        <time>2018-07-21T11:26:35Z</time>
      </trkpt>
      <trkpt lat="41.053550" lon="-3.742467">
        <ele>2005.0</ele>
        <time>2018-07-21T11:26:36Z</time>
      </trkpt>
      <trkpt lat="41.053617" lon="-3.742450">
        <ele>2006.0</ele>
        <time>2018-07-21T11:26:37Z</time>
      </trkpt>
      <trkpt lat="41.053683" lon="-3.742450">
        <ele>2008.0</ele>
        <time>2018-07-21T11:26:38Z</time>
      </trkpt>
      <trkpt lat="41.053750" lon="-3.742450">
        <ele>2009.0</ele>
        <time>2018-07-21T11:26:39Z</time>
      </trkpt>
      <trkpt lat="41.053800" lon="-3.742433">
        <ele>2010.0</ele>
        <time>2018-07-21T11:26:40Z</time>
      </trkpt>
      <trkpt lat="41.053850" lon="-3.742433">
        <ele>2010.0</ele>
        <time>2018-07-21T11:26:41Z</time>
      </trkpt>
      <trkpt lat="41.053900" lon="-3.742417">
        <ele>2010.0</ele>
        <time>2018-07-21T11:26:42Z</time>
      </trkpt>
      <trkpt lat="41.053967" lon="-3.742400">
        <ele>2009.0</ele>
        <time>2018-07-21T11:26:43Z</time>
      </trkpt>
      <trkpt lat="41.054033" lon="-3.742367">
        <ele>2009.0</ele>
        <time>2018-07-21T11:26:44Z</time>
      </trkpt>
      <trkpt lat="41.054100" lon="-3.742317">
        <ele>2009.0</ele>
        <time>2018-07-21T11:26:45Z</time>
      </trkpt>
      <trkpt lat="41.054183" lon="-3.742267">
        <ele>2009.0</ele>
        <time>2018-07-21T11:26:46Z</time>
      </trkpt>
      <trkpt lat="41.054250" lon="-3.742200">
        <ele>2009.0</ele>
        <time>2018-07-21T11:26:47Z</time>
      </trkpt>
      <trkpt lat="41.054317" lon="-3.742133">
        <ele>2010.0</ele>
        <time>2018-07-21T11:26:48Z</time>
      </trkpt>
      <trkpt lat="41.054367" lon="-3.742050">
        <ele>2011.0</ele>
        <time>2018-07-21T11:26:49Z</time>
      </trkpt>
      <trkpt lat="41.054417" lon="-3.741967">
        <ele>2011.0</ele>
        <time>2018-07-21T11:26:50Z</time>
      </trkpt>
      <trkpt lat="41.054467" lon="-3.741883">
        <ele>2010.0</ele>
        <time>2018-07-21T11:26:51Z</time>
      </trkpt>
      <trkpt lat="41.054517" lon="-3.741783">
        <ele>2009.0</ele>
        <time>2018-07-21T11:26:52Z</time>
      </trkpt>
      <trkpt lat="41.054583" lon="-3.741700">
        <ele>2008.0</ele>
        <time>2018-07-21T11:26:53Z</time>
      </trkpt>
      <trkpt lat="41.054650" lon="-3.741617">
        <ele>2008.0</ele>
        <time>2018-07-21T11:26:54Z</time>
      </trkpt>
      <trkpt lat="41.054700" lon="-3.741533">
        <ele>2007.0</ele>
        <time>2018-07-21T11:26:55Z</time>
      </trkpt>
      <trkpt lat="41.054767" lon="-3.741450">
        <ele>2005.0</ele>
        <time>2018-07-21T11:26:56Z</time>
      </trkpt>
      <trkpt lat="41.054833" lon="-3.741383">
        <ele>2004.0</ele>
        <time>2018-07-21T11:26:57Z</time>
      </trkpt>
      <trkpt lat="41.054900" lon="-3.741333">
        <ele>2003.0</ele>
        <time>2018-07-21T11:26:58Z</time>
      </trkpt>
      <trkpt lat="41.055000" lon="-3.741283">
        <ele>2002.0</ele>
        <time>2018-07-21T11:26:59Z</time>
      </trkpt>
      <trkpt lat="41.055083" lon="-3.741250">
        <ele>2004.0</ele>
        <time>2018-07-21T11:27:00Z</time>
      </trkpt>
      <trkpt lat="41.055150" lon="-3.741217">
        <ele>2007.0</ele>
        <time>2018-07-21T11:27:01Z</time>
      </trkpt>
      <trkpt lat="41.055200" lon="-3.741200">
        <ele>2009.0</ele>
        <time>2018-07-21T11:27:02Z</time>
      </trkpt>
      <trkpt lat="41.055267" lon="-3.741167">
        <ele>2008.0</ele>
        <time>2018-07-21T11:27:03Z</time>
      </trkpt>
      <trkpt lat="41.055300" lon="-3.741133">
        <ele>2007.0</ele>
        <time>2018-07-21T11:27:04Z</time>
      </trkpt>
      <trkpt lat="41.055350" lon="-3.741067">
        <ele>2005.0</ele>
        <time>2018-07-21T11:27:05Z</time>
      </trkpt>
      <trkpt lat="41.055400" lon="-3.740983">
        <ele>2002.0</ele>
        <time>2018-07-21T11:27:06Z</time>
      </trkpt>
      <trkpt lat="41.055467" lon="-3.740900">
        <ele>1998.0</ele>
        <time>2018-07-21T11:27:07Z</time>
      </trkpt>
      <trkpt lat="41.055533" lon="-3.740817">
        <ele>1995.0</ele>
        <time>2018-07-21T11:27:08Z</time>
      </trkpt>
      <trkpt lat="41.055617" lon="-3.740767">
        <ele>1994.0</ele>
        <time>2018-07-21T11:27:09Z</time>
      </trkpt>
      <trkpt lat="41.055683" lon="-3.740750">
        <ele>1993.0</ele>
        <time>2018-07-21T11:27:10Z</time>
      </trkpt>
      <trkpt lat="41.055750" lon="-3.740733">
        <ele>1994.0</ele>
        <time>2018-07-21T11:27:11Z</time>
      </trkpt>
      <trkpt lat="41.055783" lon="-3.740733">
        <ele>1994.0</ele>
        <time>2018-07-21T11:27:12Z</time>
      </trkpt>
      <trkpt lat="41.055817" lon="-3.740750">
        <ele>1994.0</ele>
        <time>2018-07-21T11:27:13Z</time>
      </trkpt>
      <trkpt lat="41.055850" lon="-3.740767">
        <ele>1992.0</ele>
        <time>2018-07-21T11:27:14Z</time>
      </trkpt>
      <trkpt lat="41.055883" lon="-3.740800">
        <ele>1990.0</ele>
        <time>2018-07-21T11:27:15Z</time>
      </trkpt>
      <trkpt lat="41.055917" lon="-3.740850">
        <ele>1988.0</ele>
        <time>2018-07-21T11:27:16Z</time>
      </trkpt>
      <trkpt lat="41.055950" lon="-3.740933">
        <ele>1987.0</ele>
        <time>2018-07-21T11:27:17Z</time>
      </trkpt>
      <trkpt lat="41.055950" lon="-3.741017">
        <ele>1986.0</ele>
        <time>2018-07-21T11:27:18Z</time>
      </trkpt>
      <trkpt lat="41.055950" lon="-3.741100">
        <ele>1987.0</ele>
        <time>2018-07-21T11:27:19Z</time>
      </trkpt>
      <trkpt lat="41.055950" lon="-3.741183">
        <ele>1987.0</ele>
        <time>2018-07-21T11:27:20Z</time>
      </trkpt>
      <trkpt lat="41.055917" lon="-3.741250">
        <ele>1986.0</ele>
        <time>2018-07-21T11:27:21Z</time>
      </trkpt>
      <trkpt lat="41.055883" lon="-3.741317">
        <ele>1984.0</ele>
        <time>2018-07-21T11:27:22Z</time>
      </trkpt>
      <trkpt lat="41.055850" lon="-3.741400">
        <ele>1982.0</ele>
        <time>2018-07-21T11:27:23Z</time>
      </trkpt>
      <trkpt lat="41.055800" lon="-3.741500">
        <ele>1980.0</ele>
        <time>2018-07-21T11:27:24Z</time>
      </trkpt>
      <trkpt lat="41.055750" lon="-3.741583">
        <ele>1979.0</ele>
        <time>2018-07-21T11:27:25Z</time>
      </trkpt>
      <trkpt lat="41.055700" lon="-3.741667">
        <ele>1978.0</ele>
        <time>2018-07-21T11:27:26Z</time>
      </trkpt>
      <trkpt lat="41.055650" lon="-3.741733">
        <ele>1977.0</ele>
        <time>2018-07-21T11:27:27Z</time>
      </trkpt>
      <trkpt lat="41.055567" lon="-3.741783">
        <ele>1976.0</ele>
        <time>2018-07-21T11:27:28Z</time>
      </trkpt>
      <trkpt lat="41.055483" lon="-3.741817">
        <ele>1973.0</ele>
        <time>2018-07-21T11:27:29Z</time>
      </trkpt>
      <trkpt lat="41.055383" lon="-3.741833">
        <ele>1970.0</ele>
        <time>2018-07-21T11:27:30Z</time>
      </trkpt>
      <trkpt lat="41.055267" lon="-3.741817">
        <ele>1968.0</ele>
        <time>2018-07-21T11:27:31Z</time>
      </trkpt>
      <trkpt lat="41.055150" lon="-3.741783">
        <ele>1965.0</ele>
        <time>2018-07-21T11:27:32Z</time>
      </trkpt>
      <trkpt lat="41.055033" lon="-3.741717">
        <ele>1964.0</ele>
        <time>2018-07-21T11:27:33Z</time>
      </trkpt>
      <trkpt lat="41.054917" lon="-3.741600">
        <ele>1964.0</ele>
        <time>2018-07-21T11:27:34Z</time>
      </trkpt>
      <trkpt lat="41.054817" lon="-3.741467">
        <ele>1965.0</ele>
        <time>2018-07-21T11:27:35Z</time>
      </trkpt>
      <trkpt lat="41.054750" lon="-3.741333">
        <ele>1965.0</ele>
        <time>2018-07-21T11:27:36Z</time>
      </trkpt>
      <trkpt lat="41.054700" lon="-3.741167">
        <ele>1965.0</ele>
        <time>2018-07-21T11:27:37Z</time>
      </trkpt>
      <trkpt lat="41.054667" lon="-3.741017">
        <ele>1964.0</ele>
        <time>2018-07-21T11:27:38Z</time>
      </trkpt>
      <trkpt lat="41.054650" lon="-3.740833">
        <ele>1963.0</ele>
        <time>2018-07-21T11:27:39Z</time>
      </trkpt>
      <trkpt lat="41.054650" lon="-3.740667">
        <ele>1961.0</ele>
        <time>2018-07-21T11:27:40Z</time>
      </trkpt>
      <trkpt lat="41.054650" lon="-3.740517">
        <ele>1959.0</ele>
        <time>2018-07-21T11:27:41Z</time>
      </trkpt>
      <trkpt lat="41.054683" lon="-3.740383">
        <ele>1956.0</ele>
        <time>2018-07-21T11:27:42Z</time>
      </trkpt>
      <trkpt lat="41.054717" lon="-3.740250">
        <ele>1953.0</ele>
        <time>2018-07-21T11:27:43Z</time>
      </trkpt>
      <trkpt lat="41.054783" lon="-3.740150">
        <ele>1951.0</ele>
        <time>2018-07-21T11:27:44Z</time>
      </trkpt>
      <trkpt lat="41.054850" lon="-3.740083">
        <ele>1949.0</ele>
        <time>2018-07-21T11:27:45Z</time>
      </trkpt>
      <trkpt lat="41.054917" lon="-3.740050">
        <ele>1948.0</ele>
        <time>2018-07-21T11:27:46Z</time>
      </trkpt>
      <trkpt lat="41.054967" lon="-3.740000">
        <ele>1947.0</ele>
        <time>2018-07-21T11:27:47Z</time>
      </trkpt>
      <trkpt lat="41.055017" lon="-3.739967">
        <ele>1946.0</ele>
        <time>2018-07-21T11:27:48Z</time>
      </trkpt>
      <trkpt lat="41.055067" lon="-3.739917">
        <ele>1943.0</ele>
        <time>2018-07-21T11:27:49Z</time>
      </trkpt>
      <trkpt lat="41.055133" lon="-3.739867">
        <ele>1941.0</ele>
        <time>2018-07-21T11:27:50Z</time>
      </trkpt>
      <trkpt lat="41.055183" lon="-3.739850">
        <ele>1938.0</ele>
        <time>2018-07-21T11:27:51Z</time>
      </trkpt>
      <trkpt lat="41.055250" lon="-3.739833">
        <ele>1937.0</ele>
        <time>2018-07-21T11:27:52Z</time>
      </trkpt>
      <trkpt lat="41.055300" lon="-3.739833">
        <ele>1936.0</ele>
        <time>2018-07-21T11:27:53Z</time>
      </trkpt>
      <trkpt lat="41.055350" lon="-3.739833">
        <ele>1935.0</ele>
        <time>2018-07-21T11:27:54Z</time>
      </trkpt>
      <trkpt lat="41.055417" lon="-3.739817">
        <ele>1933.0</ele>
        <time>2018-07-21T11:27:55Z</time>
      </trkpt>
      <trkpt lat="41.055467" lon="-3.739800">
        <ele>1930.0</ele>
        <time>2018-07-21T11:27:56Z</time>
      </trkpt>
      <trkpt lat="41.055550" lon="-3.739783">
        <ele>1929.0</ele>
        <time>2018-07-21T11:27:57Z</time>
      </trkpt>
      <trkpt lat="41.055600" lon="-3.739783">
        <ele>1927.0</ele>
        <time>2018-07-21T11:27:58Z</time>
      </trkpt>
      <trkpt lat="41.055667" lon="-3.739767">
        <ele>1927.0</ele>
        <time>2018-07-21T11:27:59Z</time>
      </trkpt>
      <trkpt lat="41.055717" lon="-3.739767">
        <ele>1925.0</ele>
        <time>2018-07-21T11:28:00Z</time>
      </trkpt>
      <trkpt lat="41.055783" lon="-3.739767">
        <ele>1923.0</ele>
        <time>2018-07-21T11:28:01Z</time>
      </trkpt>
      <trkpt lat="41.055833" lon="-3.739767">
        <ele>1920.0</ele>
        <time>2018-07-21T11:28:02Z</time>
      </trkpt>
      <trkpt lat="41.055917" lon="-3.739750">
        <ele>1917.0</ele>
        <time>2018-07-21T11:28:03Z</time>
      </trkpt>
      <trkpt lat="41.056000" lon="-3.739700">
        <ele>1914.0</ele>
        <time>2018-07-21T11:28:04Z</time>
      </trkpt>
      <trkpt lat="41.056067" lon="-3.739633">
        <ele>1912.0</ele>
        <time>2018-07-21T11:28:05Z</time>
      </trkpt>
      <trkpt lat="41.056150" lon="-3.739550">
        <ele>1910.0</ele>
        <time>2018-07-21T11:28:06Z</time>
      </trkpt>
      <trkpt lat="41.056233" lon="-3.739450">
        <ele>1909.0</ele>
        <time>2018-07-21T11:28:07Z</time>
      </trkpt>
      <trkpt lat="41.056317" lon="-3.739367">
        <ele>1908.0</ele>
        <time>2018-07-21T11:28:08Z</time>
      </trkpt>
      <trkpt lat="41.056400" lon="-3.739267">
        <ele>1908.0</ele>
        <time>2018-07-21T11:28:09Z</time>
      </trkpt>
      <trkpt lat="41.056467" lon="-3.739167">
        <ele>1908.0</ele>
        <time>2018-07-21T11:28:10Z</time>
      </trkpt>
      <trkpt lat="41.056533" lon="-3.739050">
        <ele>1909.0</ele>
        <time>2018-07-21T11:28:11Z</time>
      </trkpt>
      <trkpt lat="41.056583" lon="-3.738950">
        <ele>1910.0</ele>
        <time>2018-07-21T11:28:12Z</time>
      </trkpt>
      <trkpt lat="41.056650" lon="-3.738867">
        <ele>1910.0</ele>
        <time>2018-07-21T11:28:13Z</time>
      </trkpt>
      <trkpt lat="41.056733" lon="-3.738817">
        <ele>1909.0</ele>
        <time>2018-07-21T11:28:14Z</time>
      </trkpt>
      <trkpt lat="41.056800" lon="-3.738783">
        <ele>1908.0</ele>
        <time>2018-07-21T11:28:15Z</time>
      </trkpt>
      <trkpt lat="41.056883" lon="-3.738767">
        <ele>1909.0</ele>
        <time>2018-07-21T11:28:16Z</time>
      </trkpt>
      <trkpt lat="41.056950" lon="-3.738750">
        <ele>1910.0</ele>
        <time>2018-07-21T11:28:17Z</time>
      </trkpt>
      <trkpt lat="41.057017" lon="-3.738733">
        <ele>1912.0</ele>
        <time>2018-07-21T11:28:18Z</time>
      </trkpt>
      <trkpt lat="41.057083" lon="-3.738717">
        <ele>1914.0</ele>
        <time>2018-07-21T11:28:19Z</time>
      </trkpt>
      <trkpt lat="41.057133" lon="-3.738717">
        <ele>1915.0</ele>
        <time>2018-07-21T11:28:20Z</time>
      </trkpt>
      <trkpt lat="41.057183" lon="-3.738733">
        <ele>1915.0</ele>
        <time>2018-07-21T11:28:21Z</time>
      </trkpt>
      <trkpt lat="41.057250" lon="-3.738750">
        <ele>1915.0</ele>
        <time>2018-07-21T11:28:22Z</time>
      </trkpt>
      <trkpt lat="41.057300" lon="-3.738767">
        <ele>1916.0</ele>
        <time>2018-07-21T11:28:23Z</time>
      </trkpt>
      <trkpt lat="41.057367" lon="-3.738750">
        <ele>1917.0</ele>
        <time>2018-07-21T11:28:24Z</time>
      </trkpt>
      <trkpt lat="41.057433" lon="-3.738700">
        <ele>1918.0</ele>
        <time>2018-07-21T11:28:25Z</time>
      </trkpt>
      <trkpt lat="41.057517" lon="-3.738633">
        <ele>1918.0</ele>
        <time>2018-07-21T11:28:26Z</time>
      </trkpt>
      <trkpt lat="41.057567" lon="-3.738550">
        <ele>1920.0</ele>
        <time>2018-07-21T11:28:27Z</time>
      </trkpt>
      <trkpt lat="41.057633" lon="-3.738467">
        <ele>1923.0</ele>
        <time>2018-07-21T11:28:28Z</time>
      </trkpt>
      <trkpt lat="41.057683" lon="-3.738383">
        <ele>1926.0</ele>
        <time>2018-07-21T11:28:29Z</time>
      </trkpt>
      <trkpt lat="41.057733" lon="-3.738283">
        <ele>1928.0</ele>
        <time>2018-07-21T11:28:30Z</time>
      </trkpt>
      <trkpt lat="41.057767" lon="-3.738150">
        <ele>1928.0</ele>
        <time>2018-07-21T11:28:31Z</time>
      </trkpt>
      <trkpt lat="41.057767" lon="-3.738000">
        <ele>1928.0</ele>
        <time>2018-07-21T11:28:32Z</time>
      </trkpt>
      <trkpt lat="41.057750" lon="-3.737817">
        <ele>1928.0</ele>
        <time>2018-07-21T11:28:33Z</time>
      </trkpt>
      <trkpt lat="41.057750" lon="-3.737650">
        <ele>1930.0</ele>
        <time>2018-07-21T11:28:34Z</time>
      </trkpt>
      <trkpt lat="41.057750" lon="-3.737500">
        <ele>1931.0</ele>
        <time>2018-07-21T11:28:35Z</time>
      </trkpt>
      <trkpt lat="41.057783" lon="-3.737367">
        <ele>1932.0</ele>
        <time>2018-07-21T11:28:36Z</time>
      </trkpt>
      <trkpt lat="41.057817" lon="-3.737267">
        <ele>1933.0</ele>
        <time>2018-07-21T11:28:37Z</time>
      </trkpt>
      <trkpt lat="41.057850" lon="-3.737150">
        <ele>1932.0</ele>
        <time>2018-07-21T11:28:38Z</time>
      </trkpt>
      <trkpt lat="41.057917" lon="-3.737050">
        <ele>1932.0</ele>
        <time>2018-07-21T11:28:39Z</time>
      </trkpt>
      <trkpt lat="41.057983" lon="-3.736950">
        <ele>1931.0</ele>
        <time>2018-07-21T11:28:40Z</time>
      </trkpt>
      <trkpt lat="41.058050" lon="-3.736850">
        <ele>1931.0</ele>
        <time>2018-07-21T11:28:41Z</time>
      </trkpt>
      <trkpt lat="41.058117" lon="-3.736767">
        <ele>1933.0</ele>
        <time>2018-07-21T11:28:42Z</time>
      </trkpt>
      <trkpt lat="41.058183" lon="-3.736700">
        <ele>1935.0</ele>
        <time>2018-07-21T11:28:43Z</time>
      </trkpt>
      <trkpt lat="41.058250" lon="-3.736617">
        <ele>1936.0</ele>
        <time>2018-07-21T11:28:44Z</time>
      </trkpt>
      <trkpt lat="41.058317" lon="-3.736533">
        <ele>1937.0</ele>
        <time>2018-07-21T11:28:45Z</time>
      </trkpt>
      <trkpt lat="41.058367" lon="-3.736433">
        <ele>1938.0</ele>
        <time>2018-07-21T11:28:46Z</time>
      </trkpt>
      <trkpt lat="41.058450" lon="-3.736350">
        <ele>1937.0</ele>
        <time>2018-07-21T11:28:47Z</time>
      </trkpt>
      <trkpt lat="41.058517" lon="-3.736267">
        <ele>1938.0</ele>
        <time>2018-07-21T11:28:48Z</time>
      </trkpt>
      <trkpt lat="41.058600" lon="-3.736183">
        <ele>1938.0</ele>
        <time>2018-07-21T11:28:49Z</time>
      </trkpt>
      <trkpt lat="41.058667" lon="-3.736100">
        <ele>1940.0</ele>
        <time>2018-07-21T11:28:50Z</time>
      </trkpt>
      <trkpt lat="41.058733" lon="-3.736000">
        <ele>1941.0</ele>
        <time>2018-07-21T11:28:51Z</time>
      </trkpt>
      <trkpt lat="41.058800" lon="-3.735917">
        <ele>1942.0</ele>
        <time>2018-07-21T11:28:52Z</time>
      </trkpt>
      <trkpt lat="41.058867" lon="-3.735833">
        <ele>1943.0</ele>
        <time>2018-07-21T11:28:53Z</time>
      </trkpt>
      <trkpt lat="41.058933" lon="-3.735750">
        <ele>1944.0</ele>
        <time>2018-07-21T11:28:54Z</time>
      </trkpt>
      <trkpt lat="41.059017" lon="-3.735683">
        <ele>1944.0</ele>
        <time>2018-07-21T11:28:55Z</time>
      </trkpt>
      <trkpt lat="41.059083" lon="-3.735617">
        <ele>1944.0</ele>
        <time>2018-07-21T11:28:56Z</time>
      </trkpt>
      <trkpt lat="41.059167" lon="-3.735550">
        <ele>1945.0</ele>
        <time>2018-07-21T11:28:57Z</time>
      </trkpt>
      <trkpt lat="41.059233" lon="-3.735483">
        <ele>1947.0</ele>
        <time>2018-07-21T11:28:58Z</time>
      </trkpt>
      <trkpt lat="41.059283" lon="-3.735417">
        <ele>1948.0</ele>
        <time>2018-07-21T11:28:59Z</time>
      </trkpt>
      <trkpt lat="41.059317" lon="-3.735350">
        <ele>1949.0</ele>
        <time>2018-07-21T11:29:00Z</time>
      </trkpt>
      <trkpt lat="41.059367" lon="-3.735283">
        <ele>1949.0</ele>
        <time>2018-07-21T11:29:01Z</time>
      </trkpt>
      <trkpt lat="41.059433" lon="-3.735217">
        <ele>1949.0</ele>
        <time>2018-07-21T11:29:02Z</time>
      </trkpt>
      <trkpt lat="41.059483" lon="-3.735150">
        <ele>1948.0</ele>
        <time>2018-07-21T11:29:03Z</time>
      </trkpt>
      <trkpt lat="41.059550" lon="-3.735067">
        <ele>1949.0</ele>
        <time>2018-07-21T11:29:04Z</time>
      </trkpt>
      <trkpt lat="41.059633" lon="-3.735017">
        <ele>1950.0</ele>
        <time>2018-07-21T11:29:05Z</time>
      </trkpt>
      <trkpt lat="41.059683" lon="-3.734967">
        <ele>1951.0</ele>
        <time>2018-07-21T11:29:06Z</time>
      </trkpt>
      <trkpt lat="41.059750" lon="-3.734917">
        <ele>1952.0</ele>
        <time>2018-07-21T11:29:07Z</time>
      </trkpt>
      <trkpt lat="41.059800" lon="-3.734850">
        <ele>1951.0</ele>
        <time>2018-07-21T11:29:08Z</time>
      </trkpt>
      <trkpt lat="41.059850" lon="-3.734783">
        <ele>1949.0</ele>
        <time>2018-07-21T11:29:09Z</time>
      </trkpt>
      <trkpt lat="41.059917" lon="-3.734700">
        <ele>1947.0</ele>
        <time>2018-07-21T11:29:10Z</time>
      </trkpt>
      <trkpt lat="41.059983" lon="-3.734617">
        <ele>1946.0</ele>
        <time>2018-07-21T11:29:11Z</time>
      </trkpt>
      <trkpt lat="41.060050" lon="-3.734550">
        <ele>1945.0</ele>
        <time>2018-07-21T11:29:12Z</time>
      </trkpt>
      <trkpt lat="41.060117" lon="-3.734467">
        <ele>1945.0</ele>
        <time>2018-07-21T11:29:13Z</time>
      </trkpt>
      <trkpt lat="41.060167" lon="-3.734400">
        <ele>1946.0</ele>
        <time>2018-07-21T11:29:14Z</time>
      </trkpt>
      <trkpt lat="41.060217" lon="-3.734333">
        <ele>1945.0</ele>
        <time>2018-07-21T11:29:15Z</time>
      </trkpt>
      <trkpt lat="41.060267" lon="-3.734267">
        <ele>1944.0</ele>
        <time>2018-07-21T11:29:16Z</time>
      </trkpt>
      <trkpt lat="41.060333" lon="-3.734200">
        <ele>1942.0</ele>
        <time>2018-07-21T11:29:17Z</time>
      </trkpt>
      <trkpt lat="41.060400" lon="-3.734133">
        <ele>1940.0</ele>
        <time>2018-07-21T11:29:18Z</time>
      </trkpt>
      <trkpt lat="41.060450" lon="-3.734050">
        <ele>1939.0</ele>
        <time>2018-07-21T11:29:19Z</time>
      </trkpt>
      <trkpt lat="41.060517" lon="-3.733967">
        <ele>1939.0</ele>
        <time>2018-07-21T11:29:20Z</time>
      </trkpt>
      <trkpt lat="41.060567" lon="-3.733867">
        <ele>1939.0</ele>
        <time>2018-07-21T11:29:21Z</time>
      </trkpt>
      <trkpt lat="41.060600" lon="-3.733767">
        <ele>1939.0</ele>
        <time>2018-07-21T11:29:22Z</time>
      </trkpt>
      <trkpt lat="41.060650" lon="-3.733667">
        <ele>1939.0</ele>
        <time>2018-07-21T11:29:23Z</time>
      </trkpt>
      <trkpt lat="41.060683" lon="-3.733567">
        <ele>1938.0</ele>
        <time>2018-07-21T11:29:24Z</time>
      </trkpt>
      <trkpt lat="41.060717" lon="-3.733467">
        <ele>1938.0</ele>
        <time>2018-07-21T11:29:25Z</time>
      </trkpt>
      <trkpt lat="41.060767" lon="-3.733367">
        <ele>1938.0</ele>
        <time>2018-07-21T11:29:26Z</time>
      </trkpt>
      <trkpt lat="41.060800" lon="-3.733283">
        <ele>1937.0</ele>
        <time>2018-07-21T11:29:27Z</time>
      </trkpt>
      <trkpt lat="41.060850" lon="-3.733200">
        <ele>1937.0</ele>
        <time>2018-07-21T11:29:28Z</time>
      </trkpt>
      <trkpt lat="41.060900" lon="-3.733150">
        <ele>1936.0</ele>
        <time>2018-07-21T11:29:29Z</time>
      </trkpt>
      <trkpt lat="41.060950" lon="-3.733083">
        <ele>1935.0</ele>
        <time>2018-07-21T11:29:30Z</time>
      </trkpt>
      <trkpt lat="41.061000" lon="-3.733033">
        <ele>1935.0</ele>
        <time>2018-07-21T11:29:31Z</time>
      </trkpt>
      <trkpt lat="41.061050" lon="-3.732983">
        <ele>1934.0</ele>
        <time>2018-07-21T11:29:32Z</time>
      </trkpt>
      <trkpt lat="41.061100" lon="-3.732933">
        <ele>1934.0</ele>
        <time>2018-07-21T11:29:33Z</time>
      </trkpt>
      <trkpt lat="41.061133" lon="-3.732883">
        <ele>1933.0</ele>
        <time>2018-07-21T11:29:34Z</time>
      </trkpt>
      <trkpt lat="41.061183" lon="-3.732817">
        <ele>1931.0</ele>
        <time>2018-07-21T11:29:35Z</time>
      </trkpt>
      <trkpt lat="41.061217" lon="-3.732733">
        <ele>1930.0</ele>
        <time>2018-07-21T11:29:36Z</time>
      </trkpt>
      <trkpt lat="41.061267" lon="-3.732633">
        <ele>1929.0</ele>
        <time>2018-07-21T11:29:37Z</time>
      </trkpt>
      <trkpt lat="41.061300" lon="-3.732533">
        <ele>1928.0</ele>
        <time>2018-07-21T11:29:38Z</time>
      </trkpt>
      <trkpt lat="41.061317" lon="-3.732433">
        <ele>1927.0</ele>
        <time>2018-07-21T11:29:39Z</time>
      </trkpt>
      <trkpt lat="41.061350" lon="-3.732333">
        <ele>1926.0</ele>
        <time>2018-07-21T11:29:40Z</time>
      </trkpt>
      <trkpt lat="41.061400" lon="-3.732250">
        <ele>1925.0</ele>
        <time>2018-07-21T11:29:41Z</time>
      </trkpt>
      <trkpt lat="41.061450" lon="-3.732167">
        <ele>1925.0</ele>
        <time>2018-07-21T11:29:42Z</time>
      </trkpt>
      <trkpt lat="41.061500" lon="-3.732083">
        <ele>1926.0</ele>
        <time>2018-07-21T11:29:43Z</time>
      </trkpt>
      <trkpt lat="41.061550" lon="-3.732000">
        <ele>1927.0</ele>
        <time>2018-07-21T11:29:44Z</time>
      </trkpt>
      <trkpt lat="41.061600" lon="-3.731917">
        <ele>1928.0</ele>
        <time>2018-07-21T11:29:45Z</time>
      </trkpt>
      <trkpt lat="41.061633" lon="-3.731850">
        <ele>1928.0</ele>
        <time>2018-07-21T11:29:46Z</time>
      </trkpt>
      <trkpt lat="41.061683" lon="-3.731783">
        <ele>1928.0</ele>
        <time>2018-07-21T11:29:47Z</time>
      </trkpt>
      <trkpt lat="41.061717" lon="-3.731717">
        <ele>1927.0</ele>
        <time>2018-07-21T11:29:48Z</time>
      </trkpt>
      <trkpt lat="41.061767" lon="-3.731633">
        <ele>1926.0</ele>
        <time>2018-07-21T11:29:49Z</time>
      </trkpt>
      <trkpt lat="41.061800" lon="-3.731533">
        <ele>1925.0</ele>
        <time>2018-07-21T11:29:50Z</time>
      </trkpt>
      <trkpt lat="41.061850" lon="-3.731433">
        <ele>1924.0</ele>
        <time>2018-07-21T11:29:51Z</time>
      </trkpt>
      <trkpt lat="41.061867" lon="-3.731333">
        <ele>1925.0</ele>
        <time>2018-07-21T11:29:52Z</time>
      </trkpt>
      <trkpt lat="41.061900" lon="-3.731267">
        <ele>1925.0</ele>
        <time>2018-07-21T11:29:53Z</time>
      </trkpt>
      <trkpt lat="41.061917" lon="-3.731217">
        <ele>1924.0</ele>
        <time>2018-07-21T11:29:54Z</time>
      </trkpt>
      <trkpt lat="41.061967" lon="-3.731183">
        <ele>1923.0</ele>
        <time>2018-07-21T11:29:55Z</time>
      </trkpt>
      <trkpt lat="41.062017" lon="-3.731150">
        <ele>1921.0</ele>
        <time>2018-07-21T11:29:56Z</time>
      </trkpt>
      <trkpt lat="41.062083" lon="-3.731117">
        <ele>1920.0</ele>
        <time>2018-07-21T11:29:57Z</time>
      </trkpt>
      <trkpt lat="41.062150" lon="-3.731067">
        <ele>1920.0</ele>
        <time>2018-07-21T11:29:58Z</time>
      </trkpt>
      <trkpt lat="41.062200" lon="-3.731017">
        <ele>1920.0</ele>
        <time>2018-07-21T11:29:59Z</time>
      </trkpt>
      <trkpt lat="41.062267" lon="-3.730967">
        <ele>1921.0</ele>
        <time>2018-07-21T11:30:00Z</time>
      </trkpt>
      <trkpt lat="41.062333" lon="-3.730917">
        <ele>1922.0</ele>
        <time>2018-07-21T11:30:01Z</time>
      </trkpt>
      <trkpt lat="41.062383" lon="-3.730883">
        <ele>1923.0</ele>
        <time>2018-07-21T11:30:02Z</time>
      </trkpt>
      <trkpt lat="41.062450" lon="-3.730850">
        <ele>1925.0</ele>
        <time>2018-07-21T11:30:03Z</time>
      </trkpt>
      <trkpt lat="41.062517" lon="-3.730817">
        <ele>1927.0</ele>
        <time>2018-07-21T11:30:04Z</time>
      </trkpt>
      <trkpt lat="41.062583" lon="-3.730800">
        <ele>1930.0</ele>
        <time>2018-07-21T11:30:05Z</time>
      </trkpt>
      <trkpt lat="41.062650" lon="-3.730783">
        <ele>1934.0</ele>
        <time>2018-07-21T11:30:06Z</time>
      </trkpt>
      <trkpt lat="41.062717" lon="-3.730783">
        <ele>1937.0</ele>
        <time>2018-07-21T11:30:07Z</time>
      </trkpt>
      <trkpt lat="41.062783" lon="-3.730750">
        <ele>1941.0</ele>
        <time>2018-07-21T11:30:08Z</time>
      </trkpt>
      <trkpt lat="41.062833" lon="-3.730733">
        <ele>1945.0</ele>
        <time>2018-07-21T11:30:09Z</time>
      </trkpt>
      <trkpt lat="41.062883" lon="-3.730733">
        <ele>1949.0</ele>
        <time>2018-07-21T11:30:10Z</time>
      </trkpt>
      <trkpt lat="41.062933" lon="-3.730733">
        <ele>1950.0</ele>
        <time>2018-07-21T11:30:11Z</time>
      </trkpt>
      <trkpt lat="41.062983" lon="-3.730733">
        <ele>1952.0</ele>
        <time>2018-07-21T11:30:12Z</time>
      </trkpt>
      <trkpt lat="41.063050" lon="-3.730683">
        <ele>1952.0</ele>
        <time>2018-07-21T11:30:13Z</time>
      </trkpt>
      <trkpt lat="41.063117" lon="-3.730583">
        <ele>1952.0</ele>
        <time>2018-07-21T11:30:14Z</time>
      </trkpt>
      <trkpt lat="41.063150" lon="-3.730433">
        <ele>1951.0</ele>
        <time>2018-07-21T11:30:15Z</time>
      </trkpt>
      <trkpt lat="41.063133" lon="-3.730250">
        <ele>1950.0</ele>
        <time>2018-07-21T11:30:16Z</time>
      </trkpt>
      <trkpt lat="41.063083" lon="-3.730083">
        <ele>1949.0</ele>
        <time>2018-07-21T11:30:17Z</time>
      </trkpt>
      <trkpt lat="41.062983" lon="-3.729967">
        <ele>1948.0</ele>
        <time>2018-07-21T11:30:18Z</time>
      </trkpt>
      <trkpt lat="41.062850" lon="-3.729883">
        <ele>1946.0</ele>
        <time>2018-07-21T11:30:19Z</time>
      </trkpt>
      <trkpt lat="41.062717" lon="-3.729867">
        <ele>1944.0</ele>
        <time>2018-07-21T11:30:20Z</time>
      </trkpt>
      <trkpt lat="41.062583" lon="-3.729883">
        <ele>1942.0</ele>
        <time>2018-07-21T11:30:21Z</time>
      </trkpt>
      <trkpt lat="41.062467" lon="-3.729950">
        <ele>1941.0</ele>
        <time>2018-07-21T11:30:22Z</time>
      </trkpt>
      <trkpt lat="41.062383" lon="-3.730050">
        <ele>1939.0</ele>
        <time>2018-07-21T11:30:23Z</time>
      </trkpt>
      <trkpt lat="41.062333" lon="-3.730150">
        <ele>1937.0</ele>
        <time>2018-07-21T11:30:24Z</time>
      </trkpt>
      <trkpt lat="41.062300" lon="-3.730267">
        <ele>1935.0</ele>
        <time>2018-07-21T11:30:25Z</time>
      </trkpt>
      <trkpt lat="41.062300" lon="-3.730400">
        <ele>1936.0</ele>
        <time>2018-07-21T11:30:26Z</time>
      </trkpt>
      <trkpt lat="41.062300" lon="-3.730533">
        <ele>1938.0</ele>
        <time>2018-07-21T11:30:27Z</time>
      </trkpt>
      <trkpt lat="41.062317" lon="-3.730633">
        <ele>1943.0</ele>
        <time>2018-07-21T11:30:28Z</time>
      </trkpt>
      <trkpt lat="41.062317" lon="-3.730717">
        <ele>1948.0</ele>
        <time>2018-07-21T11:30:29Z</time>
      </trkpt>
      <trkpt lat="41.062333" lon="-3.730767">
        <ele>1952.0</ele>
        <time>2018-07-21T11:30:30Z</time>
      </trkpt>
      <trkpt lat="41.062350" lon="-3.730800">
        <ele>1955.0</ele>
        <time>2018-07-21T11:30:31Z</time>
      </trkpt>
      <trkpt lat="41.062367" lon="-3.730833">
        <ele>1955.0</ele>
        <time>2018-07-21T11:30:32Z</time>
      </trkpt>
      <trkpt lat="41.062367" lon="-3.730867">
        <ele>1954.0</ele>
        <time>2018-07-21T11:30:33Z</time>
      </trkpt>
      <trkpt lat="41.062400" lon="-3.730900">
        <ele>1952.0</ele>
        <time>2018-07-21T11:30:34Z</time>
      </trkpt>
      <trkpt lat="41.062433" lon="-3.730950">
        <ele>1949.0</ele>
        <time>2018-07-21T11:30:35Z</time>
      </trkpt>
      <trkpt lat="41.062483" lon="-3.730983">
        <ele>1948.0</ele>
        <time>2018-07-21T11:30:36Z</time>
      </trkpt>
      <trkpt lat="41.062550" lon="-3.730983">
        <ele>1947.0</ele>
        <time>2018-07-21T11:30:37Z</time>
      </trkpt>
      <trkpt lat="41.062633" lon="-3.730967">
        <ele>1947.0</ele>
        <time>2018-07-21T11:30:38Z</time>
      </trkpt>
      <trkpt lat="41.062700" lon="-3.730917">
        <ele>1948.0</ele>
        <time>2018-07-21T11:30:39Z</time>
      </trkpt>
      <trkpt lat="41.062750" lon="-3.730850">
        <ele>1949.0</ele>
        <time>2018-07-21T11:30:40Z</time>
      </trkpt>
      <trkpt lat="41.062817" lon="-3.730783">
        <ele>1950.0</ele>
        <time>2018-07-21T11:30:41Z</time>
      </trkpt>
      <trkpt lat="41.062883" lon="-3.730733">
        <ele>1951.0</ele>
        <time>2018-07-21T11:30:42Z</time>
      </trkpt>
      <trkpt lat="41.062967" lon="-3.730667">
        <ele>1952.0</ele>
        <time>2018-07-21T11:30:43Z</time>
      </trkpt>
      <trkpt lat="41.063033" lon="-3.730617">
        <ele>1953.0</ele>
        <time>2018-07-21T11:30:44Z</time>
      </trkpt>
      <trkpt lat="41.063100" lon="-3.730567">
        <ele>1955.0</ele>
        <time>2018-07-21T11:30:45Z</time>
      </trkpt>
      <trkpt lat="41.063150" lon="-3.730550">
        <ele>1956.0</ele>
        <time>2018-07-21T11:30:46Z</time>
      </trkpt>
      <trkpt lat="41.063200" lon="-3.730517">
        <ele>1956.0</ele>
        <time>2018-07-21T11:30:47Z</time>
      </trkpt>
      <trkpt lat="41.063267" lon="-3.730467">
        <ele>1954.0</ele>
        <time>2018-07-21T11:30:48Z</time>
      </trkpt>
      <trkpt lat="41.063350" lon="-3.730400">
        <ele>1952.0</ele>
        <time>2018-07-21T11:30:49Z</time>
      </trkpt>
      <trkpt lat="41.063433" lon="-3.730333">
        <ele>1951.0</ele>
        <time>2018-07-21T11:30:50Z</time>
      </trkpt>
      <trkpt lat="41.063500" lon="-3.730300">
        <ele>1951.0</ele>
        <time>2018-07-21T11:30:51Z</time>
      </trkpt>
      <trkpt lat="41.063567" lon="-3.730250">
        <ele>1951.0</ele>
        <time>2018-07-21T11:30:52Z</time>
      </trkpt>
      <trkpt lat="41.063633" lon="-3.730200">
        <ele>1950.0</ele>
        <time>2018-07-21T11:30:53Z</time>
      </trkpt>
      <trkpt lat="41.063700" lon="-3.730150">
        <ele>1949.0</ele>
        <time>2018-07-21T11:30:54Z</time>
      </trkpt>
      <trkpt lat="41.063767" lon="-3.730083">
        <ele>1948.0</ele>
        <time>2018-07-21T11:30:55Z</time>
      </trkpt>
      <trkpt lat="41.063833" lon="-3.730017">
        <ele>1946.0</ele>
        <time>2018-07-21T11:30:56Z</time>
      </trkpt>
      <trkpt lat="41.063917" lon="-3.729950">
        <ele>1946.0</ele>
        <time>2018-07-21T11:30:57Z</time>
      </trkpt>
      <trkpt lat="41.063967" lon="-3.729850">
        <ele>1945.0</ele>
        <time>2018-07-21T11:30:58Z</time>
      </trkpt>
      <trkpt lat="41.064017" lon="-3.729750">
        <ele>1944.0</ele>
        <time>2018-07-21T11:30:59Z</time>
      </trkpt>
      <trkpt lat="41.064050" lon="-3.729617">
        <ele>1943.0</ele>
        <time>2018-07-21T11:31:00Z</time>
      </trkpt>
      <trkpt lat="41.064083" lon="-3.729483">
        <ele>1942.0</ele>
        <time>2018-07-21T11:31:01Z</time>
      </trkpt>
      <trkpt lat="41.064100" lon="-3.729367">
        <ele>1941.0</ele>
        <time>2018-07-21T11:31:02Z</time>
      </trkpt>
      <trkpt lat="41.064150" lon="-3.729250">
        <ele>1939.0</ele>
        <time>2018-07-21T11:31:03Z</time>
      </trkpt>
      <trkpt lat="41.064200" lon="-3.729133">
        <ele>1937.0</ele>
        <time>2018-07-21T11:31:04Z</time>
      </trkpt>
      <trkpt lat="41.064250" lon="-3.729017">
        <ele>1935.0</ele>
        <time>2018-07-21T11:31:05Z</time>
      </trkpt>
      <trkpt lat="41.064300" lon="-3.728917">
        <ele>1933.0</ele>
        <time>2018-07-21T11:31:06Z</time>
      </trkpt>
      <trkpt lat="41.064350" lon="-3.728817">
        <ele>1932.0</ele>
        <time>2018-07-21T11:31:07Z</time>
      </trkpt>
      <trkpt lat="41.064417" lon="-3.728717">
        <ele>1931.0</ele>
        <time>2018-07-21T11:31:08Z</time>
      </trkpt>
      <trkpt lat="41.064483" lon="-3.728633">
        <ele>1930.0</ele>
        <time>2018-07-21T11:31:09Z</time>
      </trkpt>
      <trkpt lat="41.064550" lon="-3.728550">
        <ele>1929.0</ele>
        <time>2018-07-21T11:31:10Z</time>
      </trkpt>
      <trkpt lat="41.064600" lon="-3.728467">
        <ele>1927.0</ele>
        <time>2018-07-21T11:31:11Z</time>
      </trkpt>
      <trkpt lat="41.064667" lon="-3.728367">
        <ele>1926.0</ele>
        <time>2018-07-21T11:31:12Z</time>
      </trkpt>
      <trkpt lat="41.064733" lon="-3.728267">
        <ele>1925.0</ele>
        <time>2018-07-21T11:31:13Z</time>
      </trkpt>
      <trkpt lat="41.064800" lon="-3.728167">
        <ele>1924.0</ele>
        <time>2018-07-21T11:31:14Z</time>
      </trkpt>
      <trkpt lat="41.064867" lon="-3.728050">
        <ele>1924.0</ele>
        <time>2018-07-21T11:31:15Z</time>
      </trkpt>
      <trkpt lat="41.064900" lon="-3.727950">
        <ele>1923.0</ele>
        <time>2018-07-21T11:31:16Z</time>
      </trkpt>
      <trkpt lat="41.064933" lon="-3.727833">
        <ele>1921.0</ele>
        <time>2018-07-21T11:31:17Z</time>
      </trkpt>
      <trkpt lat="41.064983" lon="-3.727717">
        <ele>1919.0</ele>
        <time>2018-07-21T11:31:18Z</time>
      </trkpt>
      <trkpt lat="41.065017" lon="-3.727583">
        <ele>1916.0</ele>
        <time>2018-07-21T11:31:19Z</time>
      </trkpt>
      <trkpt lat="41.065067" lon="-3.727467">
        <ele>1914.0</ele>
        <time>2018-07-21T11:31:20Z</time>
      </trkpt>
      <trkpt lat="41.065117" lon="-3.727350">
        <ele>1912.0</ele>
        <time>2018-07-21T11:31:21Z</time>
      </trkpt>
      <trkpt lat="41.065150" lon="-3.727233">
        <ele>1911.0</ele>
        <time>2018-07-21T11:31:22Z</time>
      </trkpt>
      <trkpt lat="41.065200" lon="-3.727117">
        <ele>1910.0</ele>
        <time>2018-07-21T11:31:23Z</time>
      </trkpt>
      <trkpt lat="41.065267" lon="-3.727017">
        <ele>1910.0</ele>
        <time>2018-07-21T11:31:24Z</time>
      </trkpt>
      <trkpt lat="41.065317" lon="-3.726917">
        <ele>1909.0</ele>
        <time>2018-07-21T11:31:25Z</time>
      </trkpt>
      <trkpt lat="41.065400" lon="-3.726817">
        <ele>1908.0</ele>
        <time>2018-07-21T11:31:26Z</time>
      </trkpt>
      <trkpt lat="41.065467" lon="-3.726700">
        <ele>1908.0</ele>
        <time>2018-07-21T11:31:27Z</time>
      </trkpt>
      <trkpt lat="41.065533" lon="-3.726600">
        <ele>1907.0</ele>
        <time>2018-07-21T11:31:28Z</time>
      </trkpt>
      <trkpt lat="41.065600" lon="-3.726500">
        <ele>1906.0</ele>
        <time>2018-07-21T11:31:29Z</time>
      </trkpt>
      <trkpt lat="41.065667" lon="-3.726383">
        <ele>1905.0</ele>
        <time>2018-07-21T11:31:30Z</time>
      </trkpt>
      <trkpt lat="41.065733" lon="-3.726267">
        <ele>1904.0</ele>
        <time>2018-07-21T11:31:31Z</time>
      </trkpt>
      <trkpt lat="41.065800" lon="-3.726150">
        <ele>1902.0</ele>
        <time>2018-07-21T11:31:32Z</time>
      </trkpt>
      <trkpt lat="41.065867" lon="-3.726033">
        <ele>1902.0</ele>
        <time>2018-07-21T11:31:33Z</time>
      </trkpt>
      <trkpt lat="41.065933" lon="-3.725917">
        <ele>1901.0</ele>
        <time>2018-07-21T11:31:34Z</time>
      </trkpt>
      <trkpt lat="41.066017" lon="-3.725800">
        <ele>1901.0</ele>
        <time>2018-07-21T11:31:35Z</time>
      </trkpt>
      <trkpt lat="41.066067" lon="-3.725700">
        <ele>1901.0</ele>
        <time>2018-07-21T11:31:36Z</time>
      </trkpt>
      <trkpt lat="41.066133" lon="-3.725600">
        <ele>1901.0</ele>
        <time>2018-07-21T11:31:37Z</time>
      </trkpt>
      <trkpt lat="41.066200" lon="-3.725517">
        <ele>1900.0</ele>
        <time>2018-07-21T11:31:38Z</time>
      </trkpt>
      <trkpt lat="41.066283" lon="-3.725417">
        <ele>1898.0</ele>
        <time>2018-07-21T11:31:39Z</time>
      </trkpt>
      <trkpt lat="41.066367" lon="-3.725300">
        <ele>1896.0</ele>
        <time>2018-07-21T11:31:40Z</time>
      </trkpt>
      <trkpt lat="41.066450" lon="-3.725183">
        <ele>1896.0</ele>
        <time>2018-07-21T11:31:41Z</time>
      </trkpt>
      <trkpt lat="41.066533" lon="-3.725083">
        <ele>1896.0</ele>
        <time>2018-07-21T11:31:42Z</time>
      </trkpt>
      <trkpt lat="41.066600" lon="-3.724967">
        <ele>1896.0</ele>
        <time>2018-07-21T11:31:43Z</time>
      </trkpt>
      <trkpt lat="41.066667" lon="-3.724867">
        <ele>1896.0</ele>
        <time>2018-07-21T11:31:44Z</time>
      </trkpt>
      <trkpt lat="41.066733" lon="-3.724750">
        <ele>1895.0</ele>
        <time>2018-07-21T11:31:45Z</time>
      </trkpt>
      <trkpt lat="41.066817" lon="-3.724667">
        <ele>1893.0</ele>
        <time>2018-07-21T11:31:46Z</time>
      </trkpt>
      <trkpt lat="41.066900" lon="-3.724567">
        <ele>1892.0</ele>
        <time>2018-07-21T11:31:47Z</time>
      </trkpt>
      <trkpt lat="41.066983" lon="-3.724467">
        <ele>1892.0</ele>
        <time>2018-07-21T11:31:48Z</time>
      </trkpt>
      <trkpt lat="41.067067" lon="-3.724367">
        <ele>1892.0</ele>
        <time>2018-07-21T11:31:49Z</time>
      </trkpt>
      <trkpt lat="41.067150" lon="-3.724267">
        <ele>1892.0</ele>
        <time>2018-07-21T11:31:50Z</time>
      </trkpt>
      <trkpt lat="41.067233" lon="-3.724150">
        <ele>1892.0</ele>
        <time>2018-07-21T11:31:51Z</time>
      </trkpt>
      <trkpt lat="41.067300" lon="-3.724033">
        <ele>1891.0</ele>
        <time>2018-07-21T11:31:52Z</time>
      </trkpt>
      <trkpt lat="41.067367" lon="-3.723917">
        <ele>1890.0</ele>
        <time>2018-07-21T11:31:53Z</time>
      </trkpt>
      <trkpt lat="41.067450" lon="-3.723783">
        <ele>1889.0</ele>
        <time>2018-07-21T11:31:54Z</time>
      </trkpt>
      <trkpt lat="41.067533" lon="-3.723667">
        <ele>1888.0</ele>
        <time>2018-07-21T11:31:55Z</time>
      </trkpt>
      <trkpt lat="41.067633" lon="-3.723550">
        <ele>1887.0</ele>
        <time>2018-07-21T11:31:56Z</time>
      </trkpt>
      <trkpt lat="41.067717" lon="-3.723433">
        <ele>1888.0</ele>
        <time>2018-07-21T11:31:57Z</time>
      </trkpt>
      <trkpt lat="41.067800" lon="-3.723317">
        <ele>1889.0</ele>
        <time>2018-07-21T11:31:58Z</time>
      </trkpt>
      <trkpt lat="41.067883" lon="-3.723200">
        <ele>1890.0</ele>
        <time>2018-07-21T11:31:59Z</time>
      </trkpt>
      <trkpt lat="41.067967" lon="-3.723083">
        <ele>1890.0</ele>
        <time>2018-07-21T11:32:00Z</time>
      </trkpt>
      <trkpt lat="41.068050" lon="-3.722950">
        <ele>1890.0</ele>
        <time>2018-07-21T11:32:01Z</time>
      </trkpt>
      <trkpt lat="41.068117" lon="-3.722800">
        <ele>1891.0</ele>
        <time>2018-07-21T11:32:02Z</time>
      </trkpt>
      <trkpt lat="41.068183" lon="-3.722650">
        <ele>1891.0</ele>
        <time>2018-07-21T11:32:03Z</time>
      </trkpt>
      <trkpt lat="41.068233" lon="-3.722517">
        <ele>1892.0</ele>
        <time>2018-07-21T11:32:04Z</time>
      </trkpt>
      <trkpt lat="41.068300" lon="-3.722400">
        <ele>1892.0</ele>
        <time>2018-07-21T11:32:05Z</time>
      </trkpt>
      <trkpt lat="41.068367" lon="-3.722283">
        <ele>1892.0</ele>
        <time>2018-07-21T11:32:06Z</time>
      </trkpt>
      <trkpt lat="41.068433" lon="-3.722167">
        <ele>1890.0</ele>
        <time>2018-07-21T11:32:07Z</time>
      </trkpt>
      <trkpt lat="41.068517" lon="-3.722050">
        <ele>1889.0</ele>
        <time>2018-07-21T11:32:08Z</time>
      </trkpt>
      <trkpt lat="41.068617" lon="-3.721917">
        <ele>1889.0</ele>
        <time>2018-07-21T11:32:09Z</time>
      </trkpt>
      <trkpt lat="41.068700" lon="-3.721800">
        <ele>1889.0</ele>
        <time>2018-07-21T11:32:10Z</time>
      </trkpt>
      <trkpt lat="41.068767" lon="-3.721667">
        <ele>1890.0</ele>
        <time>2018-07-21T11:32:11Z</time>
      </trkpt>
      <trkpt lat="41.068850" lon="-3.721550">
        <ele>1891.0</ele>
        <time>2018-07-21T11:32:12Z</time>
      </trkpt>
      <trkpt lat="41.068917" lon="-3.721433">
        <ele>1891.0</ele>
        <time>2018-07-21T11:32:13Z</time>
      </trkpt>
      <trkpt lat="41.068983" lon="-3.721300">
        <ele>1892.0</ele>
        <time>2018-07-21T11:32:14Z</time>
      </trkpt>
      <trkpt lat="41.069050" lon="-3.721150">
        <ele>1892.0</ele>
        <time>2018-07-21T11:32:15Z</time>
      </trkpt>
      <trkpt lat="41.069117" lon="-3.721033">
        <ele>1892.0</ele>
        <time>2018-07-21T11:32:16Z</time>
      </trkpt>
      <trkpt lat="41.069200" lon="-3.720917">
        <ele>1891.0</ele>
        <time>2018-07-21T11:32:17Z</time>
      </trkpt>
      <trkpt lat="41.069283" lon="-3.720800">
        <ele>1890.0</ele>
        <time>2018-07-21T11:32:18Z</time>
      </trkpt>
      <trkpt lat="41.069367" lon="-3.720700">
        <ele>1890.0</ele>
        <time>2018-07-21T11:32:19Z</time>
      </trkpt>
      <trkpt lat="41.069450" lon="-3.720583">
        <ele>1889.0</ele>
        <time>2018-07-21T11:32:20Z</time>
      </trkpt>
      <trkpt lat="41.069533" lon="-3.720483">
        <ele>1889.0</ele>
        <time>2018-07-21T11:32:21Z</time>
      </trkpt>
      <trkpt lat="41.069617" lon="-3.720367">
        <ele>1889.0</ele>
        <time>2018-07-21T11:32:22Z</time>
      </trkpt>
      <trkpt lat="41.069700" lon="-3.720267">
        <ele>1888.0</ele>
        <time>2018-07-21T11:32:23Z</time>
      </trkpt>
      <trkpt lat="41.069783" lon="-3.720167">
        <ele>1887.0</ele>
        <time>2018-07-21T11:32:24Z</time>
      </trkpt>
      <trkpt lat="41.069883" lon="-3.720067">
        <ele>1887.0</ele>
        <time>2018-07-21T11:32:25Z</time>
      </trkpt>
      <trkpt lat="41.069967" lon="-3.719967">
        <ele>1887.0</ele>
        <time>2018-07-21T11:32:26Z</time>
      </trkpt>
      <trkpt lat="41.070067" lon="-3.719900">
        <ele>1887.0</ele>
        <time>2018-07-21T11:32:27Z</time>
      </trkpt>
      <trkpt lat="41.070167" lon="-3.719850">
        <ele>1886.0</ele>
        <time>2018-07-21T11:32:28Z</time>
      </trkpt>
      <trkpt lat="41.070267" lon="-3.719800">
        <ele>1885.0</ele>
        <time>2018-07-21T11:32:29Z</time>
      </trkpt>
      <trkpt lat="41.070367" lon="-3.719733">
        <ele>1885.0</ele>
        <time>2018-07-21T11:32:30Z</time>
      </trkpt>
      <trkpt lat="41.070483" lon="-3.719650">
        <ele>1885.0</ele>
        <time>2018-07-21T11:32:31Z</time>
      </trkpt>
      <trkpt lat="41.070583" lon="-3.719600">
        <ele>1886.0</ele>
        <time>2018-07-21T11:32:32Z</time>
      </trkpt>
      <trkpt lat="41.070683" lon="-3.719533">
        <ele>1887.0</ele>
        <time>2018-07-21T11:32:33Z</time>
      </trkpt>
      <trkpt lat="41.070783" lon="-3.719467">
        <ele>1888.0</ele>
        <time>2018-07-21T11:32:34Z</time>
      </trkpt>
      <trkpt lat="41.070900" lon="-3.719400">
        <ele>1891.0</ele>
        <time>2018-07-21T11:32:35Z</time>
      </trkpt>
      <trkpt lat="41.071000" lon="-3.719333">
        <ele>1894.0</ele>
        <time>2018-07-21T11:32:36Z</time>
      </trkpt>
      <trkpt lat="41.071083" lon="-3.719283">
        <ele>1897.0</ele>
        <time>2018-07-21T11:32:37Z</time>
      </trkpt>
      <trkpt lat="41.071183" lon="-3.719250">
        <ele>1901.0</ele>
        <time>2018-07-21T11:32:38Z</time>
      </trkpt>
      <trkpt lat="41.071267" lon="-3.719217">
        <ele>1904.0</ele>
        <time>2018-07-21T11:32:39Z</time>
      </trkpt>
      <trkpt lat="41.071333" lon="-3.719167">
        <ele>1908.0</ele>
        <time>2018-07-21T11:32:40Z</time>
      </trkpt>
      <trkpt lat="41.071417" lon="-3.719083">
        <ele>1909.0</ele>
        <time>2018-07-21T11:32:41Z</time>
      </trkpt>
      <trkpt lat="41.071467" lon="-3.718967">
        <ele>1911.0</ele>
        <time>2018-07-21T11:32:42Z</time>
      </trkpt>
      <trkpt lat="41.071500" lon="-3.718800">
        <ele>1910.0</ele>
        <time>2018-07-21T11:32:43Z</time>
      </trkpt>
      <trkpt lat="41.071500" lon="-3.718617">
        <ele>1909.0</ele>
        <time>2018-07-21T11:32:44Z</time>
      </trkpt>
      <trkpt lat="41.071467" lon="-3.718417">
        <ele>1909.0</ele>
        <time>2018-07-21T11:32:45Z</time>
      </trkpt>
      <trkpt lat="41.071400" lon="-3.718250">
        <ele>1910.0</ele>
        <time>2018-07-21T11:32:46Z</time>
      </trkpt>
      <trkpt lat="41.071283" lon="-3.718117">
        <ele>1909.0</ele>
        <time>2018-07-21T11:32:47Z</time>
      </trkpt>
      <trkpt lat="41.071150" lon="-3.718050">
        <ele>1907.0</ele>
        <time>2018-07-21T11:32:48Z</time>
      </trkpt>
      <trkpt lat="41.071033" lon="-3.718033">
        <ele>1906.0</ele>
        <time>2018-07-21T11:32:49Z</time>
      </trkpt>
      <trkpt lat="41.070917" lon="-3.718067">
        <ele>1907.0</ele>
        <time>2018-07-21T11:32:50Z</time>
      </trkpt>
      <trkpt lat="41.070850" lon="-3.718117">
        <ele>1909.0</ele>
        <time>2018-07-21T11:32:51Z</time>
      </trkpt>
      <trkpt lat="41.070817" lon="-3.718183">
        <ele>1910.0</ele>
        <time>2018-07-21T11:32:52Z</time>
      </trkpt>
      <trkpt lat="41.070817" lon="-3.718267">
        <ele>1912.0</ele>
        <time>2018-07-21T11:32:53Z</time>
      </trkpt>
      <trkpt lat="41.070800" lon="-3.718333">
        <ele>1916.0</ele>
        <time>2018-07-21T11:32:54Z</time>
      </trkpt>
      <trkpt lat="41.070800" lon="-3.718417">
        <ele>1920.0</ele>
        <time>2018-07-21T11:32:55Z</time>
      </trkpt>
      <trkpt lat="41.070817" lon="-3.718483">
        <ele>1923.0</ele>
        <time>2018-07-21T11:32:56Z</time>
      </trkpt>
      <trkpt lat="41.070833" lon="-3.718550">
        <ele>1928.0</ele>
        <time>2018-07-21T11:32:57Z</time>
      </trkpt>
      <trkpt lat="41.070850" lon="-3.718600">
        <ele>1932.0</ele>
        <time>2018-07-21T11:32:58Z</time>
      </trkpt>
      <trkpt lat="41.070867" lon="-3.718650">
        <ele>1936.0</ele>
        <time>2018-07-21T11:32:59Z</time>
      </trkpt>
      <trkpt lat="41.070867" lon="-3.718700">
        <ele>1940.0</ele>
        <time>2018-07-21T11:33:00Z</time>
      </trkpt>
      <trkpt lat="41.070867" lon="-3.718750">
        <ele>1942.0</ele>
        <time>2018-07-21T11:33:01Z</time>
      </trkpt>
      <trkpt lat="41.070867" lon="-3.718833">
        <ele>1945.0</ele>
        <time>2018-07-21T11:33:02Z</time>
      </trkpt>
      <trkpt lat="41.070883" lon="-3.718900">
        <ele>1948.0</ele>
        <time>2018-07-21T11:33:03Z</time>
      </trkpt>
      <trkpt lat="41.070933" lon="-3.718950">
        <ele>1950.0</ele>
        <time>2018-07-21T11:33:04Z</time>
      </trkpt>
      <trkpt lat="41.070983" lon="-3.718967">
        <ele>1952.0</ele>
        <time>2018-07-21T11:33:05Z</time>
      </trkpt>
      <trkpt lat="41.071067" lon="-3.718933">
        <ele>1953.0</ele>
        <time>2018-07-21T11:33:06Z</time>
      </trkpt>
      <trkpt lat="41.071167" lon="-3.718867">
        <ele>1953.0</ele>
        <time>2018-07-21T11:33:07Z</time>
      </trkpt>
      <trkpt lat="41.071267" lon="-3.718783">
        <ele>1953.0</ele>
        <time>2018-07-21T11:33:08Z</time>
      </trkpt>
      <trkpt lat="41.071367" lon="-3.718667">
        <ele>1954.0</ele>
        <time>2018-07-21T11:33:09Z</time>
      </trkpt>
      <trkpt lat="41.071467" lon="-3.718600">
        <ele>1956.0</ele>
        <time>2018-07-21T11:33:10Z</time>
      </trkpt>
      <trkpt lat="41.071550" lon="-3.718550">
        <ele>1959.0</ele>
        <time>2018-07-21T11:33:11Z</time>
      </trkpt>
      <trkpt lat="41.071617" lon="-3.718550">
        <ele>1959.0</ele>
        <time>2018-07-21T11:33:12Z</time>
      </trkpt>
      <trkpt lat="41.071667" lon="-3.718600">
        <ele>1959.0</ele>
        <time>2018-07-21T11:33:13Z</time>
      </trkpt>
      <trkpt lat="41.071683" lon="-3.718683">
        <ele>1960.0</ele>
        <time>2018-07-21T11:33:14Z</time>
      </trkpt>
      <trkpt lat="41.071700" lon="-3.718767">
        <ele>1963.0</ele>
        <time>2018-07-21T11:33:15Z</time>
      </trkpt>
      <trkpt lat="41.071700" lon="-3.718850">
        <ele>1967.0</ele>
        <time>2018-07-21T11:33:16Z</time>
      </trkpt>
      <trkpt lat="41.071683" lon="-3.718933">
        <ele>1971.0</ele>
        <time>2018-07-21T11:33:17Z</time>
      </trkpt>
      <trkpt lat="41.071683" lon="-3.719000">
        <ele>1975.0</ele>
        <time>2018-07-21T11:33:18Z</time>
      </trkpt>
      <trkpt lat="41.071667" lon="-3.719067">
        <ele>1978.0</ele>
        <time>2018-07-21T11:33:19Z</time>
      </trkpt>
      <trkpt lat="41.071650" lon="-3.719133">
        <ele>1981.0</ele>
        <time>2018-07-21T11:33:20Z</time>
      </trkpt>
      <trkpt lat="41.071600" lon="-3.719167">
        <ele>1983.0</ele>
        <time>2018-07-21T11:33:21Z</time>
      </trkpt>
      <trkpt lat="41.071500" lon="-3.719200">
        <ele>1984.0</ele>
        <time>2018-07-21T11:33:22Z</time>
      </trkpt>
      <trkpt lat="41.071400" lon="-3.719167">
        <ele>1984.0</ele>
        <time>2018-07-21T11:33:23Z</time>
      </trkpt>
      <trkpt lat="41.071267" lon="-3.719100">
        <ele>1986.0</ele>
        <time>2018-07-21T11:33:24Z</time>
      </trkpt>
      <trkpt lat="41.071167" lon="-3.718967">
        <ele>1988.0</ele>
        <time>2018-07-21T11:33:25Z</time>
      </trkpt>
      <trkpt lat="41.071100" lon="-3.718800">
        <ele>1989.0</ele>
        <time>2018-07-21T11:33:26Z</time>
      </trkpt>
      <trkpt lat="41.071067" lon="-3.718617">
        <ele>1990.0</ele>
        <time>2018-07-21T11:33:27Z</time>
      </trkpt>
      <trkpt lat="41.071083" lon="-3.718433">
        <ele>1990.0</ele>
        <time>2018-07-21T11:33:28Z</time>
      </trkpt>
      <trkpt lat="41.071150" lon="-3.718250">
        <ele>1990.0</ele>
        <time>2018-07-21T11:33:29Z</time>
      </trkpt>
      <trkpt lat="41.071233" lon="-3.718117">
        <ele>1991.0</ele>
        <time>2018-07-21T11:33:30Z</time>
      </trkpt>
      <trkpt lat="41.071333" lon="-3.718033">
        <ele>1991.0</ele>
        <time>2018-07-21T11:33:31Z</time>
      </trkpt>
      <trkpt lat="41.071417" lon="-3.718000">
        <ele>1993.0</ele>
        <time>2018-07-21T11:33:32Z</time>
      </trkpt>
      <trkpt lat="41.071500" lon="-3.718000">
        <ele>1995.0</ele>
        <time>2018-07-21T11:33:33Z</time>
      </trkpt>
      <trkpt lat="41.071583" lon="-3.718017">
        <ele>1998.0</ele>
        <time>2018-07-21T11:33:34Z</time>
      </trkpt>
      <trkpt lat="41.071650" lon="-3.718050">
        <ele>2001.0</ele>
        <time>2018-07-21T11:33:35Z</time>
      </trkpt>
      <trkpt lat="41.071700" lon="-3.718083">
        <ele>2005.0</ele>
        <time>2018-07-21T11:33:36Z</time>
      </trkpt>
      <trkpt lat="41.071733" lon="-3.718117">
        <ele>2009.0</ele>
        <time>2018-07-21T11:33:37Z</time>
      </trkpt>
      <trkpt lat="41.071767" lon="-3.718167">
        <ele>2012.0</ele>
        <time>2018-07-21T11:33:38Z</time>
      </trkpt>
      <trkpt lat="41.071783" lon="-3.718217">
        <ele>2015.0</ele>
        <time>2018-07-21T11:33:39Z</time>
      </trkpt>
      <trkpt lat="41.071800" lon="-3.718267">
        <ele>2017.0</ele>
        <time>2018-07-21T11:33:40Z</time>
      </trkpt>
      <trkpt lat="41.071783" lon="-3.718350">
        <ele>2019.0</ele>
        <time>2018-07-21T11:33:41Z</time>
      </trkpt>
      <trkpt lat="41.071733" lon="-3.718433">
        <ele>2021.0</ele>
        <time>2018-07-21T11:33:42Z</time>
      </trkpt>
      <trkpt lat="41.071667" lon="-3.718500">
        <ele>2023.0</ele>
        <time>2018-07-21T11:33:43Z</time>
      </trkpt>
      <trkpt lat="41.071583" lon="-3.718550">
        <ele>2025.0</ele>
        <time>2018-07-21T11:33:44Z</time>
      </trkpt>
      <trkpt lat="41.071500" lon="-3.718567">
        <ele>2027.0</ele>
        <time>2018-07-21T11:33:45Z</time>
      </trkpt>
      <trkpt lat="41.071400" lon="-3.718550">
        <ele>2028.0</ele>
        <time>2018-07-21T11:33:46Z</time>
      </trkpt>
      <trkpt lat="41.071283" lon="-3.718517">
        <ele>2027.0</ele>
        <time>2018-07-21T11:33:47Z</time>
      </trkpt>
      <trkpt lat="41.071150" lon="-3.718433">
        <ele>2027.0</ele>
        <time>2018-07-21T11:33:48Z</time>
      </trkpt>
      <trkpt lat="41.071050" lon="-3.718300">
        <ele>2027.0</ele>
        <time>2018-07-21T11:33:49Z</time>
      </trkpt>
      <trkpt lat="41.070967" lon="-3.718133">
        <ele>2028.0</ele>
        <time>2018-07-21T11:33:50Z</time>
      </trkpt>
      <trkpt lat="41.070933" lon="-3.717950">
        <ele>2028.0</ele>
        <time>2018-07-21T11:33:51Z</time>
      </trkpt>
      <trkpt lat="41.070933" lon="-3.717767">
        <ele>2028.0</ele>
        <time>2018-07-21T11:33:52Z</time>
      </trkpt>
      <trkpt lat="41.070967" lon="-3.717600">
        <ele>2029.0</ele>
        <time>2018-07-21T11:33:53Z</time>
      </trkpt>
      <trkpt lat="41.071017" lon="-3.717433">
        <ele>2030.0</ele>
        <time>2018-07-21T11:33:54Z</time>
      </trkpt>
      <trkpt lat="41.071083" lon="-3.717300">
        <ele>2032.0</ele>
        <time>2018-07-21T11:33:55Z</time>
      </trkpt>
      <trkpt lat="41.071167" lon="-3.717200">
        <ele>2034.0</ele>
        <time>2018-07-21T11:33:56Z</time>
      </trkpt>
      <trkpt lat="41.071250" lon="-3.717117">
        <ele>2036.0</ele>
        <time>2018-07-21T11:33:57Z</time>
      </trkpt>
      <trkpt lat="41.071333" lon="-3.717050">
        <ele>2038.0</ele>
        <time>2018-07-21T11:33:58Z</time>
      </trkpt>
      <trkpt lat="41.071417" lon="-3.717000">
        <ele>2040.0</ele>
        <time>2018-07-21T11:33:59Z</time>
      </trkpt>
      <trkpt lat="41.071500" lon="-3.716967">
        <ele>2043.0</ele>
        <time>2018-07-21T11:34:00Z</time>
      </trkpt>
      <trkpt lat="41.071567" lon="-3.716950">
        <ele>2046.0</ele>
        <time>2018-07-21T11:34:01Z</time>
      </trkpt>
      <trkpt lat="41.071617" lon="-3.716950">
        <ele>2049.0</ele>
        <time>2018-07-21T11:34:02Z</time>
      </trkpt>
      <trkpt lat="41.071650" lon="-3.717000">
        <ele>2051.0</ele>
        <time>2018-07-21T11:34:03Z</time>
      </trkpt>
      <trkpt lat="41.071633" lon="-3.717067">
        <ele>2051.0</ele>
        <time>2018-07-21T11:34:04Z</time>
      </trkpt>
      <trkpt lat="41.071583" lon="-3.717117">
        <ele>2052.0</ele>
        <time>2018-07-21T11:34:05Z</time>
      </trkpt>
      <trkpt lat="41.071517" lon="-3.717150">
        <ele>2053.0</ele>
        <time>2018-07-21T11:34:06Z</time>
      </trkpt>
      <trkpt lat="41.071433" lon="-3.717183">
        <ele>2055.0</ele>
        <time>2018-07-21T11:34:07Z</time>
      </trkpt>
      <trkpt lat="41.071333" lon="-3.717183">
        <ele>2056.0</ele>
        <time>2018-07-21T11:34:08Z</time>
      </trkpt>
      <trkpt lat="41.071233" lon="-3.717167">
        <ele>2057.0</ele>
        <time>2018-07-21T11:34:09Z</time>
      </trkpt>
      <trkpt lat="41.071117" lon="-3.717100">
        <ele>2058.0</ele>
        <time>2018-07-21T11:34:10Z</time>
      </trkpt>
      <trkpt lat="41.071000" lon="-3.716983">
        <ele>2058.0</ele>
        <time>2018-07-21T11:34:11Z</time>
      </trkpt>
      <trkpt lat="41.070900" lon="-3.716833">
        <ele>2059.0</ele>
        <time>2018-07-21T11:34:12Z</time>
      </trkpt>
      <trkpt lat="41.070850" lon="-3.716650">
        <ele>2060.0</ele>
        <time>2018-07-21T11:34:13Z</time>
      </trkpt>
      <trkpt lat="41.070817" lon="-3.716467">
        <ele>2060.0</ele>
        <time>2018-07-21T11:34:14Z</time>
      </trkpt>
      <trkpt lat="41.070850" lon="-3.716283">
        <ele>2061.0</ele>
        <time>2018-07-21T11:34:15Z</time>
      </trkpt>
      <trkpt lat="41.070900" lon="-3.716133">
        <ele>2063.0</ele>
        <time>2018-07-21T11:34:16Z</time>
      </trkpt>
      <trkpt lat="41.070983" lon="-3.716000">
        <ele>2065.0</ele>
        <time>2018-07-21T11:34:17Z</time>
      </trkpt>
      <trkpt lat="41.071067" lon="-3.715900">
        <ele>2068.0</ele>
        <time>2018-07-21T11:34:18Z</time>
      </trkpt>
      <trkpt lat="41.071133" lon="-3.715817">
        <ele>2071.0</ele>
        <time>2018-07-21T11:34:19Z</time>
      </trkpt>
      <trkpt lat="41.071200" lon="-3.715717">
        <ele>2073.0</ele>
        <time>2018-07-21T11:34:20Z</time>
      </trkpt>
      <trkpt lat="41.071267" lon="-3.715633">
        <ele>2075.0</ele>
        <time>2018-07-21T11:34:21Z</time>
      </trkpt>
      <trkpt lat="41.071333" lon="-3.715517">
        <ele>2076.0</ele>
        <time>2018-07-21T11:34:22Z</time>
      </trkpt>
      <trkpt lat="41.071400" lon="-3.715417">
        <ele>2077.0</ele>
        <time>2018-07-21T11:34:23Z</time>
      </trkpt>
      <trkpt lat="41.071483" lon="-3.715333">
        <ele>2077.0</ele>
        <time>2018-07-21T11:34:24Z</time>
      </trkpt>
      <trkpt lat="41.071550" lon="-3.715250">
        <ele>2077.0</ele>
        <time>2018-07-21T11:34:25Z</time>
      </trkpt>
      <trkpt lat="41.071617" lon="-3.715183">
        <ele>2077.0</ele>
        <time>2018-07-21T11:34:26Z</time>
      </trkpt>
      <trkpt lat="41.071683" lon="-3.715100">
        <ele>2077.0</ele>
        <time>2018-07-21T11:34:27Z</time>
      </trkpt>
      <trkpt lat="41.071750" lon="-3.715033">
        <ele>2076.0</ele>
        <time>2018-07-21T11:34:28Z</time>
      </trkpt>
      <trkpt lat="41.071817" lon="-3.714967">
        <ele>2074.0</ele>
        <time>2018-07-21T11:34:29Z</time>
      </trkpt>
      <trkpt lat="41.071900" lon="-3.714900">
        <ele>2072.0</ele>
        <time>2018-07-21T11:34:30Z</time>
      </trkpt>
      <trkpt lat="41.072000" lon="-3.714817">
        <ele>2069.0</ele>
        <time>2018-07-21T11:34:31Z</time>
      </trkpt>
      <trkpt lat="41.072100" lon="-3.714733">
        <ele>2067.0</ele>
        <time>2018-07-21T11:34:32Z</time>
      </trkpt>
      <trkpt lat="41.072183" lon="-3.714650">
        <ele>2066.0</ele>
        <time>2018-07-21T11:34:33Z</time>
      </trkpt>
      <trkpt lat="41.072267" lon="-3.714600">
        <ele>2065.0</ele>
        <time>2018-07-21T11:34:34Z</time>
      </trkpt>
      <trkpt lat="41.072350" lon="-3.714567">
        <ele>2063.0</ele>
        <time>2018-07-21T11:34:35Z</time>
      </trkpt>
      <trkpt lat="41.072417" lon="-3.714533">
        <ele>2061.0</ele>
        <time>2018-07-21T11:34:36Z</time>
      </trkpt>
      <trkpt lat="41.072500" lon="-3.714500">
        <ele>2059.0</ele>
        <time>2018-07-21T11:34:37Z</time>
      </trkpt>
      <trkpt lat="41.072583" lon="-3.714467">
        <ele>2056.0</ele>
        <time>2018-07-21T11:34:38Z</time>
      </trkpt>
      <trkpt lat="41.072650" lon="-3.714417">
        <ele>2054.0</ele>
        <time>2018-07-21T11:34:39Z</time>
      </trkpt>
      <trkpt lat="41.072733" lon="-3.714350">
        <ele>2051.0</ele>
        <time>2018-07-21T11:34:40Z</time>
      </trkpt>
      <trkpt lat="41.072800" lon="-3.714267">
        <ele>2048.0</ele>
        <time>2018-07-21T11:34:41Z</time>
      </trkpt>
      <trkpt lat="41.072867" lon="-3.714200">
        <ele>2045.0</ele>
        <time>2018-07-21T11:34:42Z</time>
      </trkpt>
      <trkpt lat="41.072933" lon="-3.714150">
        <ele>2042.0</ele>
        <time>2018-07-21T11:34:43Z</time>
      </trkpt>
      <trkpt lat="41.073017" lon="-3.714083">
        <ele>2038.0</ele>
        <time>2018-07-21T11:34:44Z</time>
      </trkpt>
      <trkpt lat="41.073083" lon="-3.714017">
        <ele>2035.0</ele>
        <time>2018-07-21T11:34:45Z</time>
      </trkpt>
      <trkpt lat="41.073167" lon="-3.713933">
        <ele>2031.0</ele>
        <time>2018-07-21T11:34:46Z</time>
      </trkpt>
      <trkpt lat="41.073233" lon="-3.713850">
        <ele>2028.0</ele>
        <time>2018-07-21T11:34:47Z</time>
      </trkpt>
      <trkpt lat="41.073317" lon="-3.713767">
        <ele>2026.0</ele>
        <time>2018-07-21T11:34:48Z</time>
      </trkpt>
      <trkpt lat="41.073383" lon="-3.713717">
        <ele>2025.0</ele>
        <time>2018-07-21T11:34:49Z</time>
      </trkpt>
      <trkpt lat="41.073450" lon="-3.713667">
        <ele>2023.0</ele>
        <time>2018-07-21T11:34:50Z</time>
      </trkpt>
      <trkpt lat="41.073517" lon="-3.713617">
        <ele>2022.0</ele>
        <time>2018-07-21T11:34:51Z</time>
      </trkpt>
      <trkpt lat="41.073600" lon="-3.713567">
        <ele>2020.0</ele>
        <time>2018-07-21T11:34:52Z</time>
      </trkpt>
      <trkpt lat="41.073667" lon="-3.713533">
        <ele>2019.0</ele>
        <time>2018-07-21T11:34:53Z</time>
      </trkpt>
      <trkpt lat="41.073733" lon="-3.713500">
        <ele>2018.0</ele>
        <time>2018-07-21T11:34:54Z</time>
      </trkpt>
      <trkpt lat="41.073817" lon="-3.713450">
        <ele>2016.0</ele>
        <time>2018-07-21T11:34:55Z</time>
      </trkpt>
      <trkpt lat="41.073867" lon="-3.713383">
        <ele>2015.0</ele>
        <time>2018-07-21T11:34:56Z</time>
      </trkpt>
      <trkpt lat="41.073933" lon="-3.713317">
        <ele>2014.0</ele>
        <time>2018-07-21T11:34:57Z</time>
      </trkpt>
      <trkpt lat="41.074017" lon="-3.713250">
        <ele>2014.0</ele>
        <time>2018-07-21T11:34:58Z</time>
      </trkpt>
      <trkpt lat="41.074083" lon="-3.713183">
        <ele>2014.0</ele>
        <time>2018-07-21T11:34:59Z</time>
      </trkpt>
      <trkpt lat="41.074133" lon="-3.713133">
        <ele>2017.0</ele>
        <time>2018-07-21T11:35:00Z</time>
      </trkpt>
      <trkpt lat="41.074183" lon="-3.713067">
        <ele>2020.0</ele>
        <time>2018-07-21T11:35:01Z</time>
      </trkpt>
      <trkpt lat="41.074233" lon="-3.712983">
        <ele>2021.0</ele>
        <time>2018-07-21T11:35:02Z</time>
      </trkpt>
      <trkpt lat="41.074267" lon="-3.712917">
        <ele>2022.0</ele>
        <time>2018-07-21T11:35:03Z</time>
      </trkpt>
      <trkpt lat="41.074317" lon="-3.712850">
        <ele>2022.0</ele>
        <time>2018-07-21T11:35:04Z</time>
      </trkpt>
      <trkpt lat="41.074367" lon="-3.712783">
        <ele>2023.0</ele>
        <time>2018-07-21T11:35:05Z</time>
      </trkpt>
      <trkpt lat="41.074433" lon="-3.712717">
        <ele>2024.0</ele>
        <time>2018-07-21T11:35:06Z</time>
      </trkpt>
      <trkpt lat="41.074483" lon="-3.712667">
        <ele>2025.0</ele>
        <time>2018-07-21T11:35:07Z</time>
      </trkpt>
      <trkpt lat="41.074533" lon="-3.712617">
        <ele>2025.0</ele>
        <time>2018-07-21T11:35:08Z</time>
      </trkpt>
      <trkpt lat="41.074600" lon="-3.712567">
        <ele>2026.0</ele>
        <time>2018-07-21T11:35:09Z</time>
      </trkpt>
      <trkpt lat="41.074650" lon="-3.712517">
        <ele>2026.0</ele>
        <time>2018-07-21T11:35:10Z</time>
      </trkpt>
      <trkpt lat="41.074717" lon="-3.712450">
        <ele>2027.0</ele>
        <time>2018-07-21T11:35:11Z</time>
      </trkpt>
      <trkpt lat="41.074767" lon="-3.712400">
        <ele>2028.0</ele>
        <time>2018-07-21T11:35:12Z</time>
      </trkpt>
      <trkpt lat="41.074833" lon="-3.712333">
        <ele>2030.0</ele>
        <time>2018-07-21T11:35:13Z</time>
      </trkpt>
      <trkpt lat="41.074900" lon="-3.712283">
        <ele>2031.0</ele>
        <time>2018-07-21T11:35:14Z</time>
      </trkpt>
      <trkpt lat="41.074950" lon="-3.712233">
        <ele>2033.0</ele>
        <time>2018-07-21T11:35:15Z</time>
      </trkpt>
      <trkpt lat="41.075000" lon="-3.712183">
        <ele>2034.0</ele>
        <time>2018-07-21T11:35:16Z</time>
      </trkpt>
      <trkpt lat="41.075050" lon="-3.712133">
        <ele>2034.0</ele>
        <time>2018-07-21T11:35:17Z</time>
      </trkpt>
      <trkpt lat="41.075100" lon="-3.712067">
        <ele>2034.0</ele>
        <time>2018-07-21T11:35:18Z</time>
      </trkpt>
      <trkpt lat="41.075167" lon="-3.712000">
        <ele>2032.0</ele>
        <time>2018-07-21T11:35:19Z</time>
      </trkpt>
      <trkpt lat="41.075217" lon="-3.711933">
        <ele>2030.0</ele>
        <time>2018-07-21T11:35:20Z</time>
      </trkpt>
      <trkpt lat="41.075283" lon="-3.711867">
        <ele>2028.0</ele>
        <time>2018-07-21T11:35:21Z</time>
      </trkpt>
      <trkpt lat="41.075350" lon="-3.711800">
        <ele>2026.0</ele>
        <time>2018-07-21T11:35:22Z</time>
      </trkpt>
      <trkpt lat="41.075417" lon="-3.711733">
        <ele>2025.0</ele>
        <time>2018-07-21T11:35:23Z</time>
      </trkpt>
      <trkpt lat="41.075483" lon="-3.711650">
        <ele>2022.0</ele>
        <time>2018-07-21T11:35:24Z</time>
      </trkpt>
      <trkpt lat="41.075567" lon="-3.711567">
        <ele>2020.0</ele>
        <time>2018-07-21T11:35:25Z</time>
      </trkpt>
      <trkpt lat="41.075633" lon="-3.711467">
        <ele>2018.0</ele>
        <time>2018-07-21T11:35:26Z</time>
      </trkpt>
      <trkpt lat="41.075717" lon="-3.711383">
        <ele>2015.0</ele>
        <time>2018-07-21T11:35:27Z</time>
      </trkpt>
      <trkpt lat="41.075800" lon="-3.711300">
        <ele>2014.0</ele>
        <time>2018-07-21T11:35:28Z</time>
      </trkpt>
      <trkpt lat="41.075883" lon="-3.711233">
        <ele>2012.0</ele>
        <time>2018-07-21T11:35:29Z</time>
      </trkpt>
      <trkpt lat="41.075983" lon="-3.711167">
        <ele>2010.0</ele>
        <time>2018-07-21T11:35:30Z</time>
      </trkpt>
      <trkpt lat="41.076067" lon="-3.711100">
        <ele>2010.0</ele>
        <time>2018-07-21T11:35:31Z</time>
      </trkpt>
      <trkpt lat="41.076133" lon="-3.711033">
        <ele>2010.0</ele>
        <time>2018-07-21T11:35:32Z</time>
      </trkpt>
      <trkpt lat="41.076200" lon="-3.710983">
        <ele>2011.0</ele>
        <time>2018-07-21T11:35:33Z</time>
      </trkpt>
      <trkpt lat="41.076250" lon="-3.710917">
        <ele>2011.0</ele>
        <time>2018-07-21T11:35:34Z</time>
      </trkpt>
      <trkpt lat="41.076300" lon="-3.710833">
        <ele>2011.0</ele>
        <time>2018-07-21T11:35:35Z</time>
      </trkpt>
      <trkpt lat="41.076350" lon="-3.710750">
        <ele>2010.0</ele>
        <time>2018-07-21T11:35:36Z</time>
      </trkpt>
      <trkpt lat="41.076417" lon="-3.710667">
        <ele>2009.0</ele>
        <time>2018-07-21T11:35:37Z</time>
      </trkpt>
      <trkpt lat="41.076467" lon="-3.710583">
        <ele>2009.0</ele>
        <time>2018-07-21T11:35:38Z</time>
      </trkpt>
      <trkpt lat="41.076533" lon="-3.710517">
        <ele>2009.0</ele>
        <time>2018-07-21T11:35:39Z</time>
      </trkpt>
      <trkpt lat="41.076617" lon="-3.710433">
        <ele>2008.0</ele>
        <time>2018-07-21T11:35:40Z</time>
      </trkpt>
      <trkpt lat="41.076683" lon="-3.710383">
        <ele>2008.0</ele>
        <time>2018-07-21T11:35:41Z</time>
      </trkpt>
      <trkpt lat="41.076750" lon="-3.710317">
        <ele>2008.0</ele>
        <time>2018-07-21T11:35:42Z</time>
      </trkpt>
      <trkpt lat="41.076817" lon="-3.710250">
        <ele>2007.0</ele>
        <time>2018-07-21T11:35:43Z</time>
      </trkpt>
      <trkpt lat="41.076883" lon="-3.710183">
        <ele>2006.0</ele>
        <time>2018-07-21T11:35:44Z</time>
      </trkpt>
      <trkpt lat="41.076950" lon="-3.710117">
        <ele>2006.0</ele>
        <time>2018-07-21T11:35:45Z</time>
      </trkpt>
      <trkpt lat="41.077017" lon="-3.710033">
        <ele>2006.0</ele>
        <time>2018-07-21T11:35:46Z</time>
      </trkpt>
      <trkpt lat="41.077083" lon="-3.709967">
        <ele>2006.0</ele>
        <time>2018-07-21T11:35:47Z</time>
      </trkpt>
      <trkpt lat="41.077150" lon="-3.709883">
        <ele>2007.0</ele>
        <time>2018-07-21T11:35:48Z</time>
      </trkpt>
      <trkpt lat="41.077217" lon="-3.709783">
        <ele>2006.0</ele>
        <time>2018-07-21T11:35:49Z</time>
      </trkpt>
      <trkpt lat="41.077283" lon="-3.709700">
        <ele>2006.0</ele>
        <time>2018-07-21T11:35:50Z</time>
      </trkpt>
      <trkpt lat="41.077350" lon="-3.709633">
        <ele>2005.0</ele>
        <time>2018-07-21T11:35:51Z</time>
      </trkpt>
      <trkpt lat="41.077417" lon="-3.709567">
        <ele>2004.0</ele>
        <time>2018-07-21T11:35:52Z</time>
      </trkpt>
      <trkpt lat="41.077500" lon="-3.709483">
        <ele>2003.0</ele>
        <time>2018-07-21T11:35:53Z</time>
      </trkpt>
      <trkpt lat="41.077583" lon="-3.709417">
        <ele>2004.0</ele>
        <time>2018-07-21T11:35:54Z</time>
      </trkpt>
      <trkpt lat="41.077667" lon="-3.709350">
        <ele>2004.0</ele>
        <time>2018-07-21T11:35:55Z</time>
      </trkpt>
      <trkpt lat="41.077733" lon="-3.709300">
        <ele>2004.0</ele>
        <time>2018-07-21T11:35:56Z</time>
      </trkpt>
      <trkpt lat="41.077783" lon="-3.709233">
        <ele>2004.0</ele>
        <time>2018-07-21T11:35:57Z</time>
      </trkpt>
      <trkpt lat="41.077850" lon="-3.709183">
        <ele>2003.0</ele>
        <time>2018-07-21T11:35:58Z</time>
      </trkpt>
      <trkpt lat="41.077933" lon="-3.709117">
        <ele>2001.0</ele>
        <time>2018-07-21T11:35:59Z</time>
      </trkpt>
      <trkpt lat="41.078000" lon="-3.709033">
        <ele>2001.0</ele>
        <time>2018-07-21T11:36:00Z</time>
      </trkpt>
      <trkpt lat="41.078100" lon="-3.708950">
        <ele>2001.0</ele>
        <time>2018-07-21T11:36:01Z</time>
      </trkpt>
      <trkpt lat="41.078183" lon="-3.708867">
        <ele>2002.0</ele>
        <time>2018-07-21T11:36:02Z</time>
      </trkpt>
      <trkpt lat="41.078267" lon="-3.708783">
        <ele>2003.0</ele>
        <time>2018-07-21T11:36:03Z</time>
      </trkpt>
      <trkpt lat="41.078333" lon="-3.708700">
        <ele>2005.0</ele>
        <time>2018-07-21T11:36:04Z</time>
      </trkpt>
      <trkpt lat="41.078400" lon="-3.708600">
        <ele>2007.0</ele>
        <time>2018-07-21T11:36:05Z</time>
      </trkpt>
      <trkpt lat="41.078467" lon="-3.708517">
        <ele>2008.0</ele>
        <time>2018-07-21T11:36:06Z</time>
      </trkpt>
      <trkpt lat="41.078533" lon="-3.708433">
        <ele>2009.0</ele>
        <time>2018-07-21T11:36:07Z</time>
      </trkpt>
      <trkpt lat="41.078600" lon="-3.708367">
        <ele>2009.0</ele>
        <time>2018-07-21T11:36:08Z</time>
      </trkpt>
      <trkpt lat="41.078683" lon="-3.708300">
        <ele>2009.0</ele>
        <time>2018-07-21T11:36:09Z</time>
      </trkpt>
      <trkpt lat="41.078767" lon="-3.708267">
        <ele>2010.0</ele>
        <time>2018-07-21T11:36:10Z</time>
      </trkpt>
      <trkpt lat="41.078833" lon="-3.708250">
        <ele>2010.0</ele>
        <time>2018-07-21T11:36:11Z</time>
      </trkpt>
      <trkpt lat="41.078900" lon="-3.708283">
        <ele>2011.0</ele>
        <time>2018-07-21T11:36:12Z</time>
      </trkpt>
      <trkpt lat="41.078933" lon="-3.708300">
        <ele>2012.0</ele>
        <time>2018-07-21T11:36:13Z</time>
      </trkpt>
      <trkpt lat="41.078983" lon="-3.708333">
        <ele>2011.0</ele>
        <time>2018-07-21T11:36:14Z</time>
      </trkpt>
      <trkpt lat="41.079033" lon="-3.708350">
        <ele>2010.0</ele>
        <time>2018-07-21T11:36:15Z</time>
      </trkpt>
      <trkpt lat="41.079100" lon="-3.708350">
        <ele>2008.0</ele>
        <time>2018-07-21T11:36:16Z</time>
      </trkpt>
      <trkpt lat="41.079167" lon="-3.708333">
        <ele>2008.0</ele>
        <time>2018-07-21T11:36:17Z</time>
      </trkpt>
      <trkpt lat="41.079217" lon="-3.708317">
        <ele>2008.0</ele>
        <time>2018-07-21T11:36:18Z</time>
      </trkpt>
      <trkpt lat="41.079283" lon="-3.708283">
        <ele>2008.0</ele>
        <time>2018-07-21T11:36:19Z</time>
      </trkpt>
      <trkpt lat="41.079350" lon="-3.708250">
        <ele>2008.0</ele>
        <time>2018-07-21T11:36:20Z</time>
      </trkpt>
      <trkpt lat="41.079417" lon="-3.708200">
        <ele>2008.0</ele>
        <time>2018-07-21T11:36:21Z</time>
      </trkpt>
      <trkpt lat="41.079483" lon="-3.708133">
        <ele>2008.0</ele>
        <time>2018-07-21T11:36:22Z</time>
      </trkpt>
      <trkpt lat="41.079533" lon="-3.708050">
        <ele>2008.0</ele>
        <time>2018-07-21T11:36:23Z</time>
      </trkpt>
      <trkpt lat="41.079600" lon="-3.707983">
        <ele>2007.0</ele>
        <time>2018-07-21T11:36:24Z</time>
      </trkpt>
      <trkpt lat="41.079650" lon="-3.707883">
        <ele>2007.0</ele>
        <time>2018-07-21T11:36:25Z</time>
      </trkpt>
      <trkpt lat="41.079717" lon="-3.707783">
        <ele>2006.0</ele>
        <time>2018-07-21T11:36:26Z</time>
      </trkpt>
      <trkpt lat="41.079783" lon="-3.707683">
        <ele>2006.0</ele>
        <time>2018-07-21T11:36:27Z</time>
      </trkpt>
      <trkpt lat="41.079850" lon="-3.707567">
        <ele>2005.0</ele>
        <time>2018-07-21T11:36:28Z</time>
      </trkpt>
      <trkpt lat="41.079900" lon="-3.707433">
        <ele>2005.0</ele>
        <time>2018-07-21T11:36:29Z</time>
      </trkpt>
      <trkpt lat="41.079967" lon="-3.707300">
        <ele>2005.0</ele>
        <time>2018-07-21T11:36:30Z</time>
      </trkpt>
      <trkpt lat="41.080033" lon="-3.707167">
        <ele>2005.0</ele>
        <time>2018-07-21T11:36:31Z</time>
      </trkpt>
      <trkpt lat="41.080083" lon="-3.707033">
        <ele>2005.0</ele>
        <time>2018-07-21T11:36:32Z</time>
      </trkpt>
      <trkpt lat="41.080150" lon="-3.706917">
        <ele>2003.0</ele>
        <time>2018-07-21T11:36:33Z</time>
      </trkpt>
      <trkpt lat="41.080217" lon="-3.706800">
        <ele>2001.0</ele>
        <time>2018-07-21T11:36:34Z</time>
      </trkpt>
      <trkpt lat="41.080283" lon="-3.706683">
        <ele>1999.0</ele>
        <time>2018-07-21T11:36:35Z</time>
      </trkpt>
      <trkpt lat="41.080367" lon="-3.706567">
        <ele>1998.0</ele>
        <time>2018-07-21T11:36:36Z</time>
      </trkpt>
      <trkpt lat="41.080433" lon="-3.706450">
        <ele>1996.0</ele>
        <time>2018-07-21T11:36:37Z</time>
      </trkpt>
      <trkpt lat="41.080500" lon="-3.706333">
        <ele>1995.0</ele>
        <time>2018-07-21T11:36:38Z</time>
      </trkpt>
      <trkpt lat="41.080550" lon="-3.706183">
        <ele>1993.0</ele>
        <time>2018-07-21T11:36:39Z</time>
      </trkpt>
      <trkpt lat="41.080600" lon="-3.706033">
        <ele>1992.0</ele>
        <time>2018-07-21T11:36:40Z</time>
      </trkpt>
      <trkpt lat="41.080617" lon="-3.705867">
        <ele>1990.0</ele>
        <time>2018-07-21T11:36:41Z</time>
      </trkpt>
      <trkpt lat="41.080633" lon="-3.705700">
        <ele>1988.0</ele>
        <time>2018-07-21T11:36:42Z</time>
      </trkpt>
      <trkpt lat="41.080633" lon="-3.705550">
        <ele>1986.0</ele>
        <time>2018-07-21T11:36:43Z</time>
      </trkpt>
      <trkpt lat="41.080667" lon="-3.705400">
        <ele>1983.0</ele>
        <time>2018-07-21T11:36:44Z</time>
      </trkpt>
      <trkpt lat="41.080717" lon="-3.705267">
        <ele>1980.0</ele>
        <time>2018-07-21T11:36:45Z</time>
      </trkpt>
      <trkpt lat="41.080783" lon="-3.705167">
        <ele>1977.0</ele>
        <time>2018-07-21T11:36:46Z</time>
      </trkpt>
      <trkpt lat="41.080850" lon="-3.705100">
        <ele>1975.0</ele>
        <time>2018-07-21T11:36:47Z</time>
      </trkpt>
      <trkpt lat="41.080933" lon="-3.705033">
        <ele>1973.0</ele>
        <time>2018-07-21T11:36:48Z</time>
      </trkpt>
      <trkpt lat="41.081000" lon="-3.704983">
        <ele>1971.0</ele>
        <time>2018-07-21T11:36:49Z</time>
      </trkpt>
      <trkpt lat="41.081067" lon="-3.704917">
        <ele>1970.0</ele>
        <time>2018-07-21T11:36:50Z</time>
      </trkpt>
      <trkpt lat="41.081150" lon="-3.704867">
        <ele>1968.0</ele>
        <time>2018-07-21T11:36:51Z</time>
      </trkpt>
      <trkpt lat="41.081217" lon="-3.704800">
        <ele>1966.0</ele>
        <time>2018-07-21T11:36:52Z</time>
      </trkpt>
      <trkpt lat="41.081300" lon="-3.704733">
        <ele>1964.0</ele>
        <time>2018-07-21T11:36:53Z</time>
      </trkpt>
      <trkpt lat="41.081367" lon="-3.704667">
        <ele>1962.0</ele>
        <time>2018-07-21T11:36:54Z</time>
      </trkpt>
      <trkpt lat="41.081417" lon="-3.704583">
        <ele>1961.0</ele>
        <time>2018-07-21T11:36:55Z</time>
      </trkpt>
      <trkpt lat="41.081483" lon="-3.704483">
        <ele>1959.0</ele>
        <time>2018-07-21T11:36:56Z</time>
      </trkpt>
      <trkpt lat="41.081533" lon="-3.704400">
        <ele>1957.0</ele>
        <time>2018-07-21T11:36:57Z</time>
      </trkpt>
      <trkpt lat="41.081600" lon="-3.704300">
        <ele>1953.0</ele>
        <time>2018-07-21T11:36:58Z</time>
      </trkpt>
      <trkpt lat="41.081667" lon="-3.704200">
        <ele>1949.0</ele>
        <time>2018-07-21T11:36:59Z</time>
      </trkpt>
      <trkpt lat="41.081733" lon="-3.704083">
        <ele>1945.0</ele>
        <time>2018-07-21T11:37:00Z</time>
      </trkpt>
      <trkpt lat="41.081800" lon="-3.703967">
        <ele>1941.0</ele>
        <time>2018-07-21T11:37:01Z</time>
      </trkpt>
      <trkpt lat="41.081883" lon="-3.703833">
        <ele>1939.0</ele>
        <time>2018-07-21T11:37:02Z</time>
      </trkpt>
      <trkpt lat="41.081950" lon="-3.703717">
        <ele>1937.0</ele>
        <time>2018-07-21T11:37:03Z</time>
      </trkpt>
      <trkpt lat="41.082000" lon="-3.703583">
        <ele>1936.0</ele>
        <time>2018-07-21T11:37:04Z</time>
      </trkpt>
      <trkpt lat="41.082067" lon="-3.703483">
        <ele>1934.0</ele>
        <time>2018-07-21T11:37:05Z</time>
      </trkpt>
      <trkpt lat="41.082133" lon="-3.703383">
        <ele>1932.0</ele>
        <time>2018-07-21T11:37:06Z</time>
      </trkpt>
      <trkpt lat="41.082200" lon="-3.703283">
        <ele>1930.0</ele>
        <time>2018-07-21T11:37:07Z</time>
      </trkpt>
      <trkpt lat="41.082283" lon="-3.703183">
        <ele>1928.0</ele>
        <time>2018-07-21T11:37:08Z</time>
      </trkpt>
      <trkpt lat="41.082350" lon="-3.703067">
        <ele>1926.0</ele>
        <time>2018-07-21T11:37:09Z</time>
      </trkpt>
      <trkpt lat="41.082417" lon="-3.702933">
        <ele>1924.0</ele>
        <time>2018-07-21T11:37:10Z</time>
      </trkpt>
      <trkpt lat="41.082483" lon="-3.702817">
        <ele>1923.0</ele>
        <time>2018-07-21T11:37:11Z</time>
      </trkpt>
      <trkpt lat="41.082533" lon="-3.702700">
        <ele>1922.0</ele>
        <time>2018-07-21T11:37:12Z</time>
      </trkpt>
      <trkpt lat="41.082600" lon="-3.702617">
        <ele>1920.0</ele>
        <time>2018-07-21T11:37:13Z</time>
      </trkpt>
      <trkpt lat="41.082667" lon="-3.702517">
        <ele>1917.0</ele>
        <time>2018-07-21T11:37:14Z</time>
      </trkpt>
      <trkpt lat="41.082750" lon="-3.702433">
        <ele>1915.0</ele>
        <time>2018-07-21T11:37:15Z</time>
      </trkpt>
      <trkpt lat="41.082850" lon="-3.702317">
        <ele>1913.0</ele>
        <time>2018-07-21T11:37:16Z</time>
      </trkpt>
      <trkpt lat="41.082917" lon="-3.702217">
        <ele>1912.0</ele>
        <time>2018-07-21T11:37:17Z</time>
      </trkpt>
      <trkpt lat="41.082983" lon="-3.702100">
        <ele>1911.0</ele>
        <time>2018-07-21T11:37:18Z</time>
      </trkpt>
      <trkpt lat="41.083050" lon="-3.701983">
        <ele>1910.0</ele>
        <time>2018-07-21T11:37:19Z</time>
      </trkpt>
      <trkpt lat="41.083117" lon="-3.701883">
        <ele>1908.0</ele>
        <time>2018-07-21T11:37:20Z</time>
      </trkpt>
      <trkpt lat="41.083183" lon="-3.701767">
        <ele>1906.0</ele>
        <time>2018-07-21T11:37:21Z</time>
      </trkpt>
      <trkpt lat="41.083250" lon="-3.701667">
        <ele>1904.0</ele>
        <time>2018-07-21T11:37:22Z</time>
      </trkpt>
      <trkpt lat="41.083333" lon="-3.701550">
        <ele>1902.0</ele>
        <time>2018-07-21T11:37:23Z</time>
      </trkpt>
      <trkpt lat="41.083383" lon="-3.701417">
        <ele>1899.0</ele>
        <time>2018-07-21T11:37:24Z</time>
      </trkpt>
      <trkpt lat="41.083450" lon="-3.701267">
        <ele>1897.0</ele>
        <time>2018-07-21T11:37:25Z</time>
      </trkpt>
      <trkpt lat="41.083517" lon="-3.701117">
        <ele>1895.0</ele>
        <time>2018-07-21T11:37:26Z</time>
      </trkpt>
      <trkpt lat="41.083567" lon="-3.700983">
        <ele>1894.0</ele>
        <time>2018-07-21T11:37:27Z</time>
      </trkpt>
      <trkpt lat="41.083650" lon="-3.700850">
        <ele>1892.0</ele>
        <time>2018-07-21T11:37:28Z</time>
      </trkpt>
      <trkpt lat="41.083717" lon="-3.700733">
        <ele>1891.0</ele>
        <time>2018-07-21T11:37:29Z</time>
      </trkpt>
      <trkpt lat="41.083783" lon="-3.700600">
        <ele>1890.0</ele>
        <time>2018-07-21T11:37:30Z</time>
      </trkpt>
      <trkpt lat="41.083850" lon="-3.700467">
        <ele>1888.0</ele>
        <time>2018-07-21T11:37:31Z</time>
      </trkpt>
      <trkpt lat="41.083917" lon="-3.700333">
        <ele>1886.0</ele>
        <time>2018-07-21T11:37:32Z</time>
      </trkpt>
      <trkpt lat="41.083967" lon="-3.700183">
        <ele>1885.0</ele>
        <time>2018-07-21T11:37:33Z</time>
      </trkpt>
      <trkpt lat="41.084033" lon="-3.700033">
        <ele>1882.0</ele>
        <time>2018-07-21T11:37:34Z</time>
      </trkpt>
      <trkpt lat="41.084083" lon="-3.699883">
        <ele>1880.0</ele>
        <time>2018-07-21T11:37:35Z</time>
      </trkpt>
      <trkpt lat="41.084150" lon="-3.699733">
        <ele>1878.0</ele>
        <time>2018-07-21T11:37:36Z</time>
      </trkpt>
      <trkpt lat="41.084217" lon="-3.699583">
        <ele>1879.0</ele>
        <time>2018-07-21T11:37:37Z</time>
      </trkpt>
      <trkpt lat="41.084283" lon="-3.699433">
        <ele>1882.0</ele>
        <time>2018-07-21T11:37:38Z</time>
      </trkpt>
      <trkpt lat="41.084317" lon="-3.699300">
        <ele>1886.0</ele>
        <time>2018-07-21T11:37:39Z</time>
      </trkpt>
      <trkpt lat="41.084333" lon="-3.699200">
        <ele>1890.0</ele>
        <time>2018-07-21T11:37:40Z</time>
      </trkpt>
      <trkpt lat="41.084367" lon="-3.699100">
        <ele>1892.0</ele>
        <time>2018-07-21T11:37:41Z</time>
      </trkpt>
      <trkpt lat="41.084400" lon="-3.699000">
        <ele>1893.0</ele>
        <time>2018-07-21T11:37:42Z</time>
      </trkpt>
      <trkpt lat="41.084450" lon="-3.698883">
        <ele>1892.0</ele>
        <time>2018-07-21T11:37:43Z</time>
      </trkpt>
      <trkpt lat="41.084517" lon="-3.698750">
        <ele>1892.0</ele>
        <time>2018-07-21T11:37:44Z</time>
      </trkpt>
      <trkpt lat="41.084600" lon="-3.698667">
        <ele>1896.0</ele>
        <time>2018-07-21T11:37:45Z</time>
      </trkpt>
      <trkpt lat="41.084700" lon="-3.698633">
        <ele>1900.0</ele>
        <time>2018-07-21T11:37:46Z</time>
      </trkpt>
      <trkpt lat="41.084767" lon="-3.698650">
        <ele>1904.0</ele>
        <time>2018-07-21T11:37:47Z</time>
      </trkpt>
      <trkpt lat="41.084817" lon="-3.698700">
        <ele>1907.0</ele>
        <time>2018-07-21T11:37:48Z</time>
      </trkpt>
      <trkpt lat="41.084833" lon="-3.698767">
        <ele>1910.0</ele>
        <time>2018-07-21T11:37:49Z</time>
      </trkpt>
      <trkpt lat="41.084833" lon="-3.698833">
        <ele>1913.0</ele>
        <time>2018-07-21T11:37:50Z</time>
      </trkpt>
      <trkpt lat="41.084800" lon="-3.698900">
        <ele>1916.0</ele>
        <time>2018-07-21T11:37:51Z</time>
      </trkpt>
      <trkpt lat="41.084750" lon="-3.698933">
        <ele>1916.0</ele>
        <time>2018-07-21T11:37:52Z</time>
      </trkpt>
      <trkpt lat="41.084667" lon="-3.698950">
        <ele>1917.0</ele>
        <time>2018-07-21T11:37:53Z</time>
      </trkpt>
      <trkpt lat="41.084550" lon="-3.698950">
        <ele>1919.0</ele>
        <time>2018-07-21T11:37:54Z</time>
      </trkpt>
      <trkpt lat="41.084450" lon="-3.698917">
        <ele>1923.0</ele>
        <time>2018-07-21T11:37:55Z</time>
      </trkpt>
      <trkpt lat="41.084350" lon="-3.698850">
        <ele>1928.0</ele>
        <time>2018-07-21T11:37:56Z</time>
      </trkpt>
      <trkpt lat="41.084283" lon="-3.698767">
        <ele>1931.0</ele>
        <time>2018-07-21T11:37:57Z</time>
      </trkpt>
      <trkpt lat="41.084233" lon="-3.698667">
        <ele>1934.0</ele>
        <time>2018-07-21T11:37:58Z</time>
      </trkpt>
      <trkpt lat="41.084167" lon="-3.698533">
        <ele>1934.0</ele>
        <time>2018-07-21T11:37:59Z</time>
      </trkpt>
      <trkpt lat="41.084100" lon="-3.698367">
        <ele>1934.0</ele>
        <time>2018-07-21T11:38:00Z</time>
      </trkpt>
      <trkpt lat="41.084050" lon="-3.698183">
        <ele>1934.0</ele>
        <time>2018-07-21T11:38:01Z</time>
      </trkpt>
      <trkpt lat="41.084000" lon="-3.697983">
        <ele>1936.0</ele>
        <time>2018-07-21T11:38:02Z</time>
      </trkpt>
      <trkpt lat="41.083983" lon="-3.697800">
        <ele>1939.0</ele>
        <time>2018-07-21T11:38:03Z</time>
      </trkpt>
      <trkpt lat="41.084017" lon="-3.697617">
        <ele>1943.0</ele>
        <time>2018-07-21T11:38:04Z</time>
      </trkpt>
      <trkpt lat="41.084067" lon="-3.697500">
        <ele>1946.0</ele>
        <time>2018-07-21T11:38:05Z</time>
      </trkpt>
      <trkpt lat="41.084150" lon="-3.697417">
        <ele>1948.0</ele>
        <time>2018-07-21T11:38:06Z</time>
      </trkpt>
      <trkpt lat="41.084233" lon="-3.697367">
        <ele>1950.0</ele>
        <time>2018-07-21T11:38:07Z</time>
      </trkpt>
      <trkpt lat="41.084300" lon="-3.697317">
        <ele>1954.0</ele>
        <time>2018-07-21T11:38:08Z</time>
      </trkpt>
      <trkpt lat="41.084367" lon="-3.697300">
        <ele>1959.0</ele>
        <time>2018-07-21T11:38:09Z</time>
      </trkpt>
      <trkpt lat="41.084417" lon="-3.697300">
        <ele>1963.0</ele>
        <time>2018-07-21T11:38:10Z</time>
      </trkpt>
      <trkpt lat="41.084450" lon="-3.697333">
        <ele>1965.0</ele>
        <time>2018-07-21T11:38:11Z</time>
      </trkpt>
      <trkpt lat="41.084450" lon="-3.697400">
        <ele>1967.0</ele>
        <time>2018-07-21T11:38:12Z</time>
      </trkpt>
      <trkpt lat="41.084433" lon="-3.697483">
        <ele>1968.0</ele>
        <time>2018-07-21T11:38:13Z</time>
      </trkpt>
      <trkpt lat="41.084400" lon="-3.697567">
        <ele>1970.0</ele>
        <time>2018-07-21T11:38:14Z</time>
      </trkpt>
      <trkpt lat="41.084350" lon="-3.697633">
        <ele>1973.0</ele>
        <time>2018-07-21T11:38:15Z</time>
      </trkpt>
      <trkpt lat="41.084267" lon="-3.697667">
        <ele>1977.0</ele>
        <time>2018-07-21T11:38:16Z</time>
      </trkpt>
      <trkpt lat="41.084183" lon="-3.697667">
        <ele>1981.0</ele>
        <time>2018-07-21T11:38:17Z</time>
      </trkpt>
      <trkpt lat="41.084083" lon="-3.697617">
        <ele>1985.0</ele>
        <time>2018-07-21T11:38:18Z</time>
      </trkpt>
      <trkpt lat="41.083983" lon="-3.697533">
        <ele>1990.0</ele>
        <time>2018-07-21T11:38:19Z</time>
      </trkpt>
      <trkpt lat="41.083900" lon="-3.697433">
        <ele>1992.0</ele>
        <time>2018-07-21T11:38:20Z</time>
      </trkpt>
      <trkpt lat="41.083833" lon="-3.697283">
        <ele>1994.0</ele>
        <time>2018-07-21T11:38:21Z</time>
      </trkpt>
      <trkpt lat="41.083767" lon="-3.697133">
        <ele>1996.0</ele>
        <time>2018-07-21T11:38:22Z</time>
      </trkpt>
      <trkpt lat="41.083733" lon="-3.696950">
        <ele>1999.0</ele>
        <time>2018-07-21T11:38:23Z</time>
      </trkpt>
      <trkpt lat="41.083733" lon="-3.696783">
        <ele>2001.0</ele>
        <time>2018-07-21T11:38:24Z</time>
      </trkpt>
      <trkpt lat="41.083767" lon="-3.696617">
        <ele>2002.0</ele>
        <time>2018-07-21T11:38:25Z</time>
      </trkpt>
      <trkpt lat="41.083817" lon="-3.696483">
        <ele>2004.0</ele>
        <time>2018-07-21T11:38:26Z</time>
      </trkpt>
      <trkpt lat="41.083900" lon="-3.696367">
        <ele>2007.0</ele>
        <time>2018-07-21T11:38:27Z</time>
      </trkpt>
      <trkpt lat="41.083967" lon="-3.696300">
        <ele>2011.0</ele>
        <time>2018-07-21T11:38:28Z</time>
      </trkpt>
      <trkpt lat="41.084033" lon="-3.696250">
        <ele>2015.0</ele>
        <time>2018-07-21T11:38:29Z</time>
      </trkpt>
      <trkpt lat="41.084083" lon="-3.696233">
        <ele>2018.0</ele>
        <time>2018-07-21T11:38:30Z</time>
      </trkpt>
      <trkpt lat="41.084133" lon="-3.696233">
        <ele>2019.0</ele>
        <time>2018-07-21T11:38:31Z</time>
      </trkpt>
      <trkpt lat="41.084183" lon="-3.696250">
        <ele>2020.0</ele>
        <time>2018-07-21T11:38:32Z</time>
      </trkpt>
      <trkpt lat="41.084217" lon="-3.696300">
        <ele>2021.0</ele>
        <time>2018-07-21T11:38:33Z</time>
      </trkpt>
      <trkpt lat="41.084217" lon="-3.696383">
        <ele>2021.0</ele>
        <time>2018-07-21T11:38:34Z</time>
      </trkpt>
      <trkpt lat="41.084200" lon="-3.696467">
        <ele>2022.0</ele>
        <time>2018-07-21T11:38:35Z</time>
      </trkpt>
      <trkpt lat="41.084150" lon="-3.696550">
        <ele>2024.0</ele>
        <time>2018-07-21T11:38:36Z</time>
      </trkpt>
      <trkpt lat="41.084067" lon="-3.696583">
        <ele>2026.0</ele>
        <time>2018-07-21T11:38:37Z</time>
      </trkpt>
      <trkpt lat="41.083983" lon="-3.696600">
        <ele>2030.0</ele>
        <time>2018-07-21T11:38:38Z</time>
      </trkpt>
      <trkpt lat="41.083867" lon="-3.696583">
        <ele>2035.0</ele>
        <time>2018-07-21T11:38:39Z</time>
      </trkpt>
      <trkpt lat="41.083767" lon="-3.696550">
        <ele>2040.0</ele>
        <time>2018-07-21T11:38:40Z</time>
      </trkpt>
      <trkpt lat="41.083667" lon="-3.696467">
        <ele>2044.0</ele>
        <time>2018-07-21T11:38:41Z</time>
      </trkpt>
      <trkpt lat="41.083583" lon="-3.696333">
        <ele>2048.0</ele>
        <time>2018-07-21T11:38:42Z</time>
      </trkpt>
      <trkpt lat="41.083517" lon="-3.696200">
        <ele>2051.0</ele>
        <time>2018-07-21T11:38:43Z</time>
      </trkpt>
      <trkpt lat="41.083500" lon="-3.696017">
        <ele>2053.0</ele>
        <time>2018-07-21T11:38:44Z</time>
      </trkpt>
      <trkpt lat="41.083483" lon="-3.695833">
        <ele>2055.0</ele>
        <time>2018-07-21T11:38:45Z</time>
      </trkpt>
      <trkpt lat="41.083500" lon="-3.695650">
        <ele>2058.0</ele>
        <time>2018-07-21T11:38:46Z</time>
      </trkpt>
      <trkpt lat="41.083517" lon="-3.695467">
        <ele>2062.0</ele>
        <time>2018-07-21T11:38:47Z</time>
      </trkpt>
      <trkpt lat="41.083567" lon="-3.695333">
        <ele>2065.0</ele>
        <time>2018-07-21T11:38:48Z</time>
      </trkpt>
      <trkpt lat="41.083633" lon="-3.695250">
        <ele>2068.0</ele>
        <time>2018-07-21T11:38:49Z</time>
      </trkpt>
      <trkpt lat="41.083717" lon="-3.695217">
        <ele>2070.0</ele>
        <time>2018-07-21T11:38:50Z</time>
      </trkpt>
      <trkpt lat="41.083767" lon="-3.695217">
        <ele>2072.0</ele>
        <time>2018-07-21T11:38:51Z</time>
      </trkpt>
      <trkpt lat="41.083817" lon="-3.695267">
        <ele>2073.0</ele>
        <time>2018-07-21T11:38:52Z</time>
      </trkpt>
      <trkpt lat="41.083817" lon="-3.695333">
        <ele>2074.0</ele>
        <time>2018-07-21T11:38:53Z</time>
      </trkpt>
      <trkpt lat="41.083817" lon="-3.695383">
        <ele>2075.0</ele>
        <time>2018-07-21T11:38:54Z</time>
      </trkpt>
      <trkpt lat="41.083783" lon="-3.695450">
        <ele>2077.0</ele>
        <time>2018-07-21T11:38:55Z</time>
      </trkpt>
      <trkpt lat="41.083750" lon="-3.695500">
        <ele>2079.0</ele>
        <time>2018-07-21T11:38:56Z</time>
      </trkpt>
      <trkpt lat="41.083700" lon="-3.695550">
        <ele>2082.0</ele>
        <time>2018-07-21T11:38:57Z</time>
      </trkpt>
      <trkpt lat="41.083650" lon="-3.695600">
        <ele>2085.0</ele>
        <time>2018-07-21T11:38:58Z</time>
      </trkpt>
      <trkpt lat="41.083583" lon="-3.695633">
        <ele>2087.0</ele>
        <time>2018-07-21T11:38:59Z</time>
      </trkpt>
      <trkpt lat="41.083500" lon="-3.695650">
        <ele>2090.0</ele>
        <time>2018-07-21T11:39:00Z</time>
      </trkpt>
      <trkpt lat="41.083433" lon="-3.695650">
        <ele>2092.0</ele>
        <time>2018-07-21T11:39:01Z</time>
      </trkpt>
      <trkpt lat="41.083367" lon="-3.695617">
        <ele>2092.0</ele>
        <time>2018-07-21T11:39:02Z</time>
      </trkpt>
      <trkpt lat="41.083283" lon="-3.695550">
        <ele>2090.0</ele>
        <time>2018-07-21T11:39:03Z</time>
      </trkpt>
      <trkpt lat="41.083183" lon="-3.695483">
        <ele>2086.0</ele>
        <time>2018-07-21T11:39:04Z</time>
      </trkpt>
      <trkpt lat="41.083067" lon="-3.695383">
        <ele>2085.0</ele>
        <time>2018-07-21T11:39:05Z</time>
      </trkpt>
      <trkpt lat="41.082983" lon="-3.695250">
        <ele>2084.0</ele>
        <time>2018-07-21T11:39:06Z</time>
      </trkpt>
      <trkpt lat="41.082933" lon="-3.695083">
        <ele>2084.0</ele>
        <time>2018-07-21T11:39:07Z</time>
      </trkpt>
      <trkpt lat="41.082883" lon="-3.694900">
        <ele>2085.0</ele>
        <time>2018-07-21T11:39:08Z</time>
      </trkpt>
      <trkpt lat="41.082850" lon="-3.694700">
        <ele>2086.0</ele>
        <time>2018-07-21T11:39:09Z</time>
      </trkpt>
      <trkpt lat="41.082850" lon="-3.694500">
        <ele>2088.0</ele>
        <time>2018-07-21T11:39:10Z</time>
      </trkpt>
      <trkpt lat="41.082850" lon="-3.694317">
        <ele>2090.0</ele>
        <time>2018-07-21T11:39:11Z</time>
      </trkpt>
      <trkpt lat="41.082883" lon="-3.694133">
        <ele>2092.0</ele>
        <time>2018-07-21T11:39:12Z</time>
      </trkpt>
      <trkpt lat="41.082933" lon="-3.693983">
        <ele>2095.0</ele>
        <time>2018-07-21T11:39:13Z</time>
      </trkpt>
      <trkpt lat="41.082983" lon="-3.693833">
        <ele>2099.0</ele>
        <time>2018-07-21T11:39:14Z</time>
      </trkpt>
      <trkpt lat="41.083050" lon="-3.693700">
        <ele>2102.0</ele>
        <time>2018-07-21T11:39:15Z</time>
      </trkpt>
      <trkpt lat="41.083100" lon="-3.693583">
        <ele>2106.0</ele>
        <time>2018-07-21T11:39:16Z</time>
      </trkpt>
      <trkpt lat="41.083150" lon="-3.693483">
        <ele>2109.0</ele>
        <time>2018-07-21T11:39:17Z</time>
      </trkpt>
      <trkpt lat="41.083200" lon="-3.693383">
        <ele>2111.0</ele>
        <time>2018-07-21T11:39:18Z</time>
      </trkpt>
      <trkpt lat="41.083250" lon="-3.693300">
        <ele>2111.0</ele>
        <time>2018-07-21T11:39:19Z</time>
      </trkpt>
      <trkpt lat="41.083300" lon="-3.693233">
        <ele>2111.0</ele>
        <time>2018-07-21T11:39:20Z</time>
      </trkpt>
      <trkpt lat="41.083367" lon="-3.693167">
        <ele>2110.0</ele>
        <time>2018-07-21T11:39:21Z</time>
      </trkpt>
      <trkpt lat="41.083433" lon="-3.693133">
        <ele>2110.0</ele>
        <time>2018-07-21T11:39:22Z</time>
      </trkpt>
      <trkpt lat="41.083517" lon="-3.693100">
        <ele>2111.0</ele>
        <time>2018-07-21T11:39:23Z</time>
      </trkpt>
      <trkpt lat="41.083583" lon="-3.693067">
        <ele>2112.0</ele>
        <time>2018-07-21T11:39:24Z</time>
      </trkpt>
      <trkpt lat="41.083633" lon="-3.693033">
        <ele>2114.0</ele>
        <time>2018-07-21T11:39:25Z</time>
      </trkpt>
      <trkpt lat="41.083700" lon="-3.692983">
        <ele>2115.0</ele>
        <time>2018-07-21T11:39:26Z</time>
      </trkpt>
      <trkpt lat="41.083750" lon="-3.692933">
        <ele>2115.0</ele>
        <time>2018-07-21T11:39:27Z</time>
      </trkpt>
      <trkpt lat="41.083800" lon="-3.692883">
        <ele>2116.0</ele>
        <time>2018-07-21T11:39:28Z</time>
      </trkpt>
      <trkpt lat="41.083867" lon="-3.692817">
        <ele>2117.0</ele>
        <time>2018-07-21T11:39:29Z</time>
      </trkpt>
      <trkpt lat="41.083933" lon="-3.692767">
        <ele>2119.0</ele>
        <time>2018-07-21T11:39:30Z</time>
      </trkpt>
      <trkpt lat="41.084000" lon="-3.692733">
        <ele>2121.0</ele>
        <time>2018-07-21T11:39:31Z</time>
      </trkpt>
      <trkpt lat="41.084050" lon="-3.692683">
        <ele>2123.0</ele>
        <time>2018-07-21T11:39:32Z</time>
      </trkpt>
      <trkpt lat="41.084133" lon="-3.692650">
        <ele>2123.0</ele>
        <time>2018-07-21T11:39:33Z</time>
      </trkpt>
      <trkpt lat="41.084200" lon="-3.692583">
        <ele>2124.0</ele>
        <time>2018-07-21T11:39:34Z</time>
      </trkpt>
      <trkpt lat="41.084283" lon="-3.692517">
        <ele>2126.0</ele>
        <time>2018-07-21T11:39:35Z</time>
      </trkpt>
      <trkpt lat="41.084350" lon="-3.692450">
        <ele>2127.0</ele>
        <time>2018-07-21T11:39:36Z</time>
      </trkpt>
      <trkpt lat="41.084433" lon="-3.692367">
        <ele>2129.0</ele>
        <time>2018-07-21T11:39:37Z</time>
      </trkpt>
      <trkpt lat="41.084500" lon="-3.692300">
        <ele>2130.0</ele>
        <time>2018-07-21T11:39:38Z</time>
      </trkpt>
      <trkpt lat="41.084567" lon="-3.692217">
        <ele>2131.0</ele>
        <time>2018-07-21T11:39:39Z</time>
      </trkpt>
      <trkpt lat="41.084617" lon="-3.692133">
        <ele>2131.0</ele>
        <time>2018-07-21T11:39:40Z</time>
      </trkpt>
      <trkpt lat="41.084683" lon="-3.692050">
        <ele>2130.0</ele>
        <time>2018-07-21T11:39:41Z</time>
      </trkpt>
      <trkpt lat="41.084750" lon="-3.691967">
        <ele>2129.0</ele>
        <time>2018-07-21T11:39:42Z</time>
      </trkpt>
      <trkpt lat="41.084833" lon="-3.691900">
        <ele>2129.0</ele>
        <time>2018-07-21T11:39:43Z</time>
      </trkpt>
      <trkpt lat="41.084900" lon="-3.691833">
        <ele>2129.0</ele>
        <time>2018-07-21T11:39:44Z</time>
      </trkpt>
      <trkpt lat="41.084967" lon="-3.691767">
        <ele>2131.0</ele>
        <time>2018-07-21T11:39:45Z</time>
      </trkpt>
      <trkpt lat="41.085033" lon="-3.691700">
        <ele>2132.0</ele>
        <time>2018-07-21T11:39:46Z</time>
      </trkpt>
      <trkpt lat="41.085100" lon="-3.691633">
        <ele>2134.0</ele>
        <time>2018-07-21T11:39:47Z</time>
      </trkpt>
      <trkpt lat="41.085167" lon="-3.691583">
        <ele>2135.0</ele>
        <time>2018-07-21T11:39:48Z</time>
      </trkpt>
      <trkpt lat="41.085233" lon="-3.691533">
        <ele>2136.0</ele>
        <time>2018-07-21T11:39:49Z</time>
      </trkpt>
      <trkpt lat="41.085300" lon="-3.691483">
        <ele>2137.0</ele>
        <time>2018-07-21T11:39:50Z</time>
      </trkpt>
      <trkpt lat="41.085367" lon="-3.691433">
        <ele>2139.0</ele>
        <time>2018-07-21T11:39:51Z</time>
      </trkpt>
      <trkpt lat="41.085433" lon="-3.691350">
        <ele>2141.0</ele>
        <time>2018-07-21T11:39:52Z</time>
      </trkpt>
      <trkpt lat="41.085500" lon="-3.691283">
        <ele>2142.0</ele>
        <time>2018-07-21T11:39:53Z</time>
      </trkpt>
      <trkpt lat="41.085567" lon="-3.691217">
        <ele>2144.0</ele>
        <time>2018-07-21T11:39:54Z</time>
      </trkpt>
      <trkpt lat="41.085633" lon="-3.691133">
        <ele>2147.0</ele>
        <time>2018-07-21T11:39:55Z</time>
      </trkpt>
      <trkpt lat="41.085700" lon="-3.691033">
        <ele>2149.0</ele>
        <time>2018-07-21T11:39:56Z</time>
      </trkpt>
      <trkpt lat="41.085750" lon="-3.690900">
        <ele>2152.0</ele>
        <time>2018-07-21T11:39:57Z</time>
      </trkpt>
      <trkpt lat="41.085767" lon="-3.690717">
        <ele>2153.0</ele>
        <time>2018-07-21T11:39:58Z</time>
      </trkpt>
      <trkpt lat="41.085750" lon="-3.690517">
        <ele>2155.0</ele>
        <time>2018-07-21T11:39:59Z</time>
      </trkpt>
      <trkpt lat="41.085700" lon="-3.690333">
        <ele>2157.0</ele>
        <time>2018-07-21T11:40:00Z</time>
      </trkpt>
      <trkpt lat="41.085617" lon="-3.690167">
        <ele>2158.0</ele>
        <time>2018-07-21T11:40:01Z</time>
      </trkpt>
      <trkpt lat="41.085517" lon="-3.690033">
        <ele>2160.0</ele>
        <time>2018-07-21T11:40:02Z</time>
      </trkpt>
      <trkpt lat="41.085417" lon="-3.689950">
        <ele>2160.0</ele>
        <time>2018-07-21T11:40:03Z</time>
      </trkpt>
      <trkpt lat="41.085300" lon="-3.689933">
        <ele>2159.0</ele>
        <time>2018-07-21T11:40:04Z</time>
      </trkpt>
      <trkpt lat="41.085200" lon="-3.689950">
        <ele>2157.0</ele>
        <time>2018-07-21T11:40:05Z</time>
      </trkpt>
      <trkpt lat="41.085133" lon="-3.690000">
        <ele>2156.0</ele>
        <time>2018-07-21T11:40:06Z</time>
      </trkpt>
      <trkpt lat="41.085067" lon="-3.690067">
        <ele>2155.0</ele>
        <time>2018-07-21T11:40:07Z</time>
      </trkpt>
      <trkpt lat="41.085050" lon="-3.690133">
        <ele>2156.0</ele>
        <time>2018-07-21T11:40:08Z</time>
      </trkpt>
      <trkpt lat="41.085050" lon="-3.690200">
        <ele>2156.0</ele>
        <time>2018-07-21T11:40:09Z</time>
      </trkpt>
      <trkpt lat="41.085067" lon="-3.690250">
        <ele>2157.0</ele>
        <time>2018-07-21T11:40:10Z</time>
      </trkpt>
      <trkpt lat="41.085100" lon="-3.690283">
        <ele>2158.0</ele>
        <time>2018-07-21T11:40:11Z</time>
      </trkpt>
      <trkpt lat="41.085150" lon="-3.690317">
        <ele>2160.0</ele>
        <time>2018-07-21T11:40:12Z</time>
      </trkpt>
      <trkpt lat="41.085200" lon="-3.690333">
        <ele>2164.0</ele>
        <time>2018-07-21T11:40:13Z</time>
      </trkpt>
      <trkpt lat="41.085250" lon="-3.690333">
        <ele>2167.0</ele>
        <time>2018-07-21T11:40:14Z</time>
      </trkpt>
      <trkpt lat="41.085300" lon="-3.690300">
        <ele>2169.0</ele>
        <time>2018-07-21T11:40:15Z</time>
      </trkpt>
      <trkpt lat="41.085350" lon="-3.690283">
        <ele>2170.0</ele>
        <time>2018-07-21T11:40:16Z</time>
      </trkpt>
      <trkpt lat="41.085417" lon="-3.690233">
        <ele>2171.0</ele>
        <time>2018-07-21T11:40:17Z</time>
      </trkpt>
      <trkpt lat="41.085483" lon="-3.690200">
        <ele>2172.0</ele>
        <time>2018-07-21T11:40:18Z</time>
      </trkpt>
      <trkpt lat="41.085550" lon="-3.690133">
        <ele>2174.0</ele>
        <time>2018-07-21T11:40:19Z</time>
      </trkpt>
      <trkpt lat="41.085633" lon="-3.690033">
        <ele>2176.0</ele>
        <time>2018-07-21T11:40:20Z</time>
      </trkpt>
      <trkpt lat="41.085700" lon="-3.689900">
        <ele>2177.0</ele>
        <time>2018-07-21T11:40:21Z</time>
      </trkpt>
      <trkpt lat="41.085750" lon="-3.689750">
        <ele>2179.0</ele>
        <time>2018-07-21T11:40:22Z</time>
      </trkpt>
      <trkpt lat="41.085800" lon="-3.689583">
        <ele>2180.0</ele>
        <time>2018-07-21T11:40:23Z</time>
      </trkpt>
      <trkpt lat="41.085833" lon="-3.689433">
        <ele>2181.0</ele>
        <time>2018-07-21T11:40:24Z</time>
      </trkpt>
      <trkpt lat="41.085867" lon="-3.689283">
        <ele>2181.0</ele>
        <time>2018-07-21T11:40:25Z</time>
      </trkpt>
      <trkpt lat="41.085917" lon="-3.689133">
        <ele>2180.0</ele>
        <time>2018-07-21T11:40:26Z</time>
      </trkpt>
      <trkpt lat="41.085967" lon="-3.688983">
        <ele>2180.0</ele>
        <time>2018-07-21T11:40:27Z</time>
      </trkpt>
      <trkpt lat="41.086033" lon="-3.688850">
        <ele>2181.0</ele>
        <time>2018-07-21T11:40:28Z</time>
      </trkpt>
      <trkpt lat="41.086117" lon="-3.688733">
        <ele>2181.0</ele>
        <time>2018-07-21T11:40:29Z</time>
      </trkpt>
      <trkpt lat="41.086200" lon="-3.688650">
        <ele>2182.0</ele>
        <time>2018-07-21T11:40:30Z</time>
      </trkpt>
      <trkpt lat="41.086267" lon="-3.688550">
        <ele>2184.0</ele>
        <time>2018-07-21T11:40:31Z</time>
      </trkpt>
      <trkpt lat="41.086350" lon="-3.688467">
        <ele>2185.0</ele>
        <time>2018-07-21T11:40:32Z</time>
      </trkpt>
      <trkpt lat="41.086417" lon="-3.688383">
        <ele>2186.0</ele>
        <time>2018-07-21T11:40:33Z</time>
      </trkpt>
      <trkpt lat="41.086500" lon="-3.688300">
        <ele>2187.0</ele>
        <time>2018-07-21T11:40:34Z</time>
      </trkpt>
      <trkpt lat="41.086567" lon="-3.688233">
        <ele>2187.0</ele>
        <time>2018-07-21T11:40:35Z</time>
      </trkpt>
      <trkpt lat="41.086650" lon="-3.688133">
        <ele>2188.0</ele>
        <time>2018-07-21T11:40:36Z</time>
      </trkpt>
      <trkpt lat="41.086733" lon="-3.688033">
        <ele>2188.0</ele>
        <time>2018-07-21T11:40:37Z</time>
      </trkpt>
      <trkpt lat="41.086817" lon="-3.687950">
        <ele>2189.0</ele>
        <time>2018-07-21T11:40:38Z</time>
      </trkpt>
      <trkpt lat="41.086883" lon="-3.687867">
        <ele>2191.0</ele>
        <time>2018-07-21T11:40:39Z</time>
      </trkpt>
      <trkpt lat="41.086950" lon="-3.687800">
        <ele>2192.0</ele>
        <time>2018-07-21T11:40:40Z</time>
      </trkpt>
      <trkpt lat="41.087017" lon="-3.687733">
        <ele>2193.0</ele>
        <time>2018-07-21T11:40:41Z</time>
      </trkpt>
      <trkpt lat="41.087083" lon="-3.687650">
        <ele>2194.0</ele>
        <time>2018-07-21T11:40:42Z</time>
      </trkpt>
      <trkpt lat="41.087133" lon="-3.687567">
        <ele>2194.0</ele>
        <time>2018-07-21T11:40:43Z</time>
      </trkpt>
      <trkpt lat="41.087200" lon="-3.687500">
        <ele>2194.0</ele>
        <time>2018-07-21T11:40:44Z</time>
      </trkpt>
      <trkpt lat="41.087250" lon="-3.687417">
        <ele>2193.0</ele>
        <time>2018-07-21T11:40:45Z</time>
      </trkpt>
      <trkpt lat="41.087317" lon="-3.687350">
        <ele>2192.0</ele>
        <time>2018-07-21T11:40:46Z</time>
      </trkpt>
      <trkpt lat="41.087383" lon="-3.687283">
        <ele>2190.0</ele>
        <time>2018-07-21T11:40:47Z</time>
      </trkpt>
      <trkpt lat="41.087467" lon="-3.687200">
        <ele>2188.0</ele>
        <time>2018-07-21T11:40:48Z</time>
      </trkpt>
      <trkpt lat="41.087550" lon="-3.687133">
        <ele>2187.0</ele>
        <time>2018-07-21T11:40:49Z</time>
      </trkpt>
      <trkpt lat="41.087633" lon="-3.687067">
        <ele>2187.0</ele>
        <time>2018-07-21T11:40:50Z</time>
      </trkpt>
      <trkpt lat="41.087700" lon="-3.687017">
        <ele>2186.0</ele>
        <time>2018-07-21T11:40:51Z</time>
      </trkpt>
      <trkpt lat="41.087783" lon="-3.686950">
        <ele>2185.0</ele>
        <time>2018-07-21T11:40:52Z</time>
      </trkpt>
      <trkpt lat="41.087867" lon="-3.686883">
        <ele>2184.0</ele>
        <time>2018-07-21T11:40:53Z</time>
      </trkpt>
      <trkpt lat="41.087950" lon="-3.686800">
        <ele>2184.0</ele>
        <time>2018-07-21T11:40:54Z</time>
      </trkpt>
      <trkpt lat="41.088017" lon="-3.686733">
        <ele>2184.0</ele>
        <time>2018-07-21T11:40:55Z</time>
      </trkpt>
      <trkpt lat="41.088083" lon="-3.686667">
        <ele>2184.0</ele>
        <time>2018-07-21T11:40:56Z</time>
      </trkpt>
      <trkpt lat="41.088133" lon="-3.686600">
        <ele>2183.0</ele>
        <time>2018-07-21T11:40:57Z</time>
      </trkpt>
      <trkpt lat="41.088183" lon="-3.686533">
        <ele>2182.0</ele>
        <time>2018-07-21T11:40:58Z</time>
      </trkpt>
      <trkpt lat="41.088250" lon="-3.686450">
        <ele>2179.0</ele>
        <time>2018-07-21T11:40:59Z</time>
      </trkpt>
      <trkpt lat="41.088333" lon="-3.686367">
        <ele>2176.0</ele>
        <time>2018-07-21T11:41:00Z</time>
      </trkpt>
      <trkpt lat="41.088400" lon="-3.686300">
        <ele>2176.0</ele>
        <time>2018-07-21T11:41:01Z</time>
      </trkpt>
      <trkpt lat="41.088483" lon="-3.686233">
        <ele>2176.0</ele>
        <time>2018-07-21T11:41:02Z</time>
      </trkpt>
      <trkpt lat="41.088533" lon="-3.686183">
        <ele>2175.0</ele>
        <time>2018-07-21T11:41:03Z</time>
      </trkpt>
      <trkpt lat="41.088583" lon="-3.686117">
        <ele>2174.0</ele>
        <time>2018-07-21T11:41:04Z</time>
      </trkpt>
      <trkpt lat="41.088633" lon="-3.686050">
        <ele>2172.0</ele>
        <time>2018-07-21T11:41:05Z</time>
      </trkpt>
      <trkpt lat="41.088683" lon="-3.685967">
        <ele>2169.0</ele>
        <time>2018-07-21T11:41:06Z</time>
      </trkpt>
      <trkpt lat="41.088733" lon="-3.685883">
        <ele>2167.0</ele>
        <time>2018-07-21T11:41:07Z</time>
      </trkpt>
      <trkpt lat="41.088800" lon="-3.685833">
        <ele>2165.0</ele>
        <time>2018-07-21T11:41:08Z</time>
      </trkpt>
      <trkpt lat="41.088867" lon="-3.685800">
        <ele>2162.0</ele>
        <time>2018-07-21T11:41:09Z</time>
      </trkpt>
      <trkpt lat="41.088933" lon="-3.685767">
        <ele>2161.0</ele>
        <time>2018-07-21T11:41:10Z</time>
      </trkpt>
      <trkpt lat="41.088983" lon="-3.685717">
        <ele>2160.0</ele>
        <time>2018-07-21T11:41:11Z</time>
      </trkpt>
      <trkpt lat="41.089033" lon="-3.685650">
        <ele>2158.0</ele>
        <time>2018-07-21T11:41:12Z</time>
      </trkpt>
      <trkpt lat="41.089067" lon="-3.685567">
        <ele>2156.0</ele>
        <time>2018-07-21T11:41:13Z</time>
      </trkpt>
      <trkpt lat="41.089117" lon="-3.685483">
        <ele>2153.0</ele>
        <time>2018-07-21T11:41:14Z</time>
      </trkpt>
      <trkpt lat="41.089183" lon="-3.685400">
        <ele>2150.0</ele>
        <time>2018-07-21T11:41:15Z</time>
      </trkpt>
      <trkpt lat="41.089233" lon="-3.685317">
        <ele>2147.0</ele>
        <time>2018-07-21T11:41:16Z</time>
      </trkpt>
      <trkpt lat="41.089300" lon="-3.685250">
        <ele>2144.0</ele>
        <time>2018-07-21T11:41:17Z</time>
      </trkpt>
      <trkpt lat="41.089367" lon="-3.685167">
        <ele>2142.0</ele>
        <time>2018-07-21T11:41:18Z</time>
      </trkpt>
      <trkpt lat="41.089433" lon="-3.685083">
        <ele>2140.0</ele>
        <time>2018-07-21T11:41:19Z</time>
      </trkpt>
      <trkpt lat="41.089500" lon="-3.685017">
        <ele>2140.0</ele>
        <time>2018-07-21T11:41:20Z</time>
      </trkpt>
      <trkpt lat="41.089567" lon="-3.684950">
        <ele>2140.0</ele>
        <time>2018-07-21T11:41:21Z</time>
      </trkpt>
      <trkpt lat="41.089633" lon="-3.684883">
        <ele>2139.0</ele>
        <time>2018-07-21T11:41:22Z</time>
      </trkpt>
      <trkpt lat="41.089700" lon="-3.684817">
        <ele>2139.0</ele>
        <time>2018-07-21T11:41:23Z</time>
      </trkpt>
      <trkpt lat="41.089767" lon="-3.684733">
        <ele>2138.0</ele>
        <time>2018-07-21T11:41:24Z</time>
      </trkpt>
      <trkpt lat="41.089850" lon="-3.684667">
        <ele>2137.0</ele>
        <time>2018-07-21T11:41:25Z</time>
      </trkpt>
      <trkpt lat="41.089917" lon="-3.684583">
        <ele>2136.0</ele>
        <time>2018-07-21T11:41:26Z</time>
      </trkpt>
      <trkpt lat="41.089983" lon="-3.684517">
        <ele>2135.0</ele>
        <time>2018-07-21T11:41:27Z</time>
      </trkpt>
      <trkpt lat="41.090050" lon="-3.684450">
        <ele>2132.0</ele>
        <time>2018-07-21T11:41:28Z</time>
      </trkpt>
      <trkpt lat="41.090117" lon="-3.684367">
        <ele>2129.0</ele>
        <time>2018-07-21T11:41:29Z</time>
      </trkpt>
      <trkpt lat="41.090183" lon="-3.684300">
        <ele>2127.0</ele>
        <time>2018-07-21T11:41:30Z</time>
      </trkpt>
      <trkpt lat="41.090250" lon="-3.684217">
        <ele>2124.0</ele>
        <time>2018-07-21T11:41:31Z</time>
      </trkpt>
      <trkpt lat="41.090317" lon="-3.684150">
        <ele>2122.0</ele>
        <time>2018-07-21T11:41:32Z</time>
      </trkpt>
      <trkpt lat="41.090400" lon="-3.684067">
        <ele>2120.0</ele>
        <time>2018-07-21T11:41:33Z</time>
      </trkpt>
      <trkpt lat="41.090467" lon="-3.684000">
        <ele>2118.0</ele>
        <time>2018-07-21T11:41:34Z</time>
      </trkpt>
      <trkpt lat="41.090567" lon="-3.683917">
        <ele>2116.0</ele>
        <time>2018-07-21T11:41:35Z</time>
      </trkpt>
      <trkpt lat="41.090650" lon="-3.683817">
        <ele>2115.0</ele>
        <time>2018-07-21T11:41:36Z</time>
      </trkpt>
      <trkpt lat="41.090733" lon="-3.683750">
        <ele>2115.0</ele>
        <time>2018-07-21T11:41:37Z</time>
      </trkpt>
      <trkpt lat="41.090833" lon="-3.683683">
        <ele>2114.0</ele>
        <time>2018-07-21T11:41:38Z</time>
      </trkpt>
      <trkpt lat="41.090933" lon="-3.683600">
        <ele>2115.0</ele>
        <time>2018-07-21T11:41:39Z</time>
      </trkpt>
      <trkpt lat="41.091033" lon="-3.683500">
        <ele>2115.0</ele>
        <time>2018-07-21T11:41:40Z</time>
      </trkpt>
      <trkpt lat="41.091117" lon="-3.683400">
        <ele>2116.0</ele>
        <time>2018-07-21T11:41:41Z</time>
      </trkpt>
      <trkpt lat="41.091200" lon="-3.683300">
        <ele>2117.0</ele>
        <time>2018-07-21T11:41:42Z</time>
      </trkpt>
      <trkpt lat="41.091283" lon="-3.683200">
        <ele>2117.0</ele>
        <time>2018-07-21T11:41:43Z</time>
      </trkpt>
      <trkpt lat="41.091367" lon="-3.683100">
        <ele>2117.0</ele>
        <time>2018-07-21T11:41:44Z</time>
      </trkpt>
      <trkpt lat="41.091450" lon="-3.683017">
        <ele>2117.0</ele>
        <time>2018-07-21T11:41:45Z</time>
      </trkpt>
      <trkpt lat="41.091533" lon="-3.682933">
        <ele>2117.0</ele>
        <time>2018-07-21T11:41:46Z</time>
      </trkpt>
      <trkpt lat="41.091617" lon="-3.682867">
        <ele>2116.0</ele>
        <time>2018-07-21T11:41:47Z</time>
      </trkpt>
      <trkpt lat="41.091700" lon="-3.682800">
        <ele>2115.0</ele>
        <time>2018-07-21T11:41:48Z</time>
      </trkpt>
      <trkpt lat="41.091800" lon="-3.682733">
        <ele>2115.0</ele>
        <time>2018-07-21T11:41:49Z</time>
      </trkpt>
      <trkpt lat="41.091883" lon="-3.682633">
        <ele>2115.0</ele>
        <time>2018-07-21T11:41:50Z</time>
      </trkpt>
      <trkpt lat="41.091967" lon="-3.682550">
        <ele>2116.0</ele>
        <time>2018-07-21T11:41:51Z</time>
      </trkpt>
      <trkpt lat="41.092033" lon="-3.682467">
        <ele>2118.0</ele>
        <time>2018-07-21T11:41:52Z</time>
      </trkpt>
      <trkpt lat="41.092100" lon="-3.682383">
        <ele>2118.0</ele>
        <time>2018-07-21T11:41:53Z</time>
      </trkpt>
      <trkpt lat="41.092167" lon="-3.682300">
        <ele>2118.0</ele>
        <time>2018-07-21T11:41:54Z</time>
      </trkpt>
      <trkpt lat="41.092233" lon="-3.682233">
        <ele>2119.0</ele>
        <time>2018-07-21T11:41:55Z</time>
      </trkpt>
      <trkpt lat="41.092317" lon="-3.682150">
        <ele>2119.0</ele>
        <time>2018-07-21T11:41:56Z</time>
      </trkpt>
      <trkpt lat="41.092400" lon="-3.682083">
        <ele>2121.0</ele>
        <time>2018-07-21T11:41:57Z</time>
      </trkpt>
      <trkpt lat="41.092483" lon="-3.682017">
        <ele>2123.0</ele>
        <time>2018-07-21T11:41:58Z</time>
      </trkpt>
      <trkpt lat="41.092550" lon="-3.681950">
        <ele>2125.0</ele>
        <time>2018-07-21T11:41:59Z</time>
      </trkpt>
      <trkpt lat="41.092633" lon="-3.681850">
        <ele>2127.0</ele>
        <time>2018-07-21T11:42:00Z</time>
      </trkpt>
      <trkpt lat="41.092700" lon="-3.681733">
        <ele>2128.0</ele>
        <time>2018-07-21T11:42:01Z</time>
      </trkpt>
      <trkpt lat="41.092750" lon="-3.681583">
        <ele>2128.0</ele>
        <time>2018-07-21T11:42:02Z</time>
      </trkpt>
      <trkpt lat="41.092783" lon="-3.681417">
        <ele>2129.0</ele>
        <time>2018-07-21T11:42:03Z</time>
      </trkpt>
      <trkpt lat="41.092800" lon="-3.681250">
        <ele>2129.0</ele>
        <time>2018-07-21T11:42:04Z</time>
      </trkpt>
      <trkpt lat="41.092783" lon="-3.681067">
        <ele>2129.0</ele>
        <time>2018-07-21T11:42:05Z</time>
      </trkpt>
      <trkpt lat="41.092733" lon="-3.680883">
        <ele>2128.0</ele>
        <time>2018-07-21T11:42:06Z</time>
      </trkpt>
      <trkpt lat="41.092650" lon="-3.680733">
        <ele>2127.0</ele>
        <time>2018-07-21T11:42:07Z</time>
      </trkpt>
      <trkpt lat="41.092567" lon="-3.680617">
        <ele>2127.0</ele>
        <time>2018-07-21T11:42:08Z</time>
      </trkpt>
      <trkpt lat="41.092467" lon="-3.680567">
        <ele>2127.0</ele>
        <time>2018-07-21T11:42:09Z</time>
      </trkpt>
      <trkpt lat="41.092367" lon="-3.680550">
        <ele>2127.0</ele>
        <time>2018-07-21T11:42:10Z</time>
      </trkpt>
      <trkpt lat="41.092300" lon="-3.680550">
        <ele>2128.0</ele>
        <time>2018-07-21T11:42:11Z</time>
      </trkpt>
      <trkpt lat="41.092217" lon="-3.680567">
        <ele>2129.0</ele>
        <time>2018-07-21T11:42:12Z</time>
      </trkpt>
      <trkpt lat="41.092150" lon="-3.680600">
        <ele>2131.0</ele>
        <time>2018-07-21T11:42:13Z</time>
      </trkpt>
      <trkpt lat="41.092100" lon="-3.680633">
        <ele>2132.0</ele>
        <time>2018-07-21T11:42:14Z</time>
      </trkpt>
      <trkpt lat="41.092050" lon="-3.680683">
        <ele>2132.0</ele>
        <time>2018-07-21T11:42:15Z</time>
      </trkpt>
      <trkpt lat="41.092017" lon="-3.680733">
        <ele>2133.0</ele>
        <time>2018-07-21T11:42:16Z</time>
      </trkpt>
      <trkpt lat="41.092000" lon="-3.680800">
        <ele>2135.0</ele>
        <time>2018-07-21T11:42:17Z</time>
      </trkpt>
      <trkpt lat="41.092000" lon="-3.680850">
        <ele>2135.0</ele>
        <time>2018-07-21T11:42:18Z</time>
      </trkpt>
      <trkpt lat="41.092017" lon="-3.680917">
        <ele>2136.0</ele>
        <time>2018-07-21T11:42:19Z</time>
      </trkpt>
      <trkpt lat="41.092033" lon="-3.680967">
        <ele>2136.0</ele>
        <time>2018-07-21T11:42:20Z</time>
      </trkpt>
      <trkpt lat="41.092067" lon="-3.680983">
        <ele>2136.0</ele>
        <time>2018-07-21T11:42:21Z</time>
      </trkpt>
      <trkpt lat="41.092117" lon="-3.680983">
        <ele>2134.0</ele>
        <time>2018-07-21T11:42:22Z</time>
      </trkpt>
      <trkpt lat="41.092183" lon="-3.680950">
        <ele>2132.0</ele>
        <time>2018-07-21T11:42:23Z</time>
      </trkpt>
      <trkpt lat="41.092267" lon="-3.680917">
        <ele>2129.0</ele>
        <time>2018-07-21T11:42:24Z</time>
      </trkpt>
      <trkpt lat="41.092350" lon="-3.680883">
        <ele>2127.0</ele>
        <time>2018-07-21T11:42:25Z</time>
      </trkpt>
      <trkpt lat="41.092450" lon="-3.680833">
        <ele>2126.0</ele>
        <time>2018-07-21T11:42:26Z</time>
      </trkpt>
      <trkpt lat="41.092533" lon="-3.680750">
        <ele>2125.0</ele>
        <time>2018-07-21T11:42:27Z</time>
      </trkpt>
      <trkpt lat="41.092617" lon="-3.680650">
        <ele>2125.0</ele>
        <time>2018-07-21T11:42:28Z</time>
      </trkpt>
      <trkpt lat="41.092700" lon="-3.680550">
        <ele>2124.0</ele>
        <time>2018-07-21T11:42:29Z</time>
      </trkpt>
      <trkpt lat="41.092783" lon="-3.680450">
        <ele>2124.0</ele>
        <time>2018-07-21T11:42:30Z</time>
      </trkpt>
      <trkpt lat="41.092867" lon="-3.680350">
        <ele>2123.0</ele>
        <time>2018-07-21T11:42:31Z</time>
      </trkpt>
      <trkpt lat="41.092967" lon="-3.680267">
        <ele>2122.0</ele>
        <time>2018-07-21T11:42:32Z</time>
      </trkpt>
      <trkpt lat="41.093050" lon="-3.680183">
        <ele>2121.0</ele>
        <time>2018-07-21T11:42:33Z</time>
      </trkpt>
      <trkpt lat="41.093133" lon="-3.680100">
        <ele>2122.0</ele>
        <time>2018-07-21T11:42:34Z</time>
      </trkpt>
      <trkpt lat="41.093233" lon="-3.680000">
        <ele>2123.0</ele>
        <time>2018-07-21T11:42:35Z</time>
      </trkpt>
      <trkpt lat="41.093317" lon="-3.679917">
        <ele>2125.0</ele>
        <time>2018-07-21T11:42:36Z</time>
      </trkpt>
      <trkpt lat="41.093400" lon="-3.679833">
        <ele>2125.0</ele>
        <time>2018-07-21T11:42:37Z</time>
      </trkpt>
      <trkpt lat="41.093483" lon="-3.679733">
        <ele>2125.0</ele>
        <time>2018-07-21T11:42:38Z</time>
      </trkpt>
      <trkpt lat="41.093583" lon="-3.679650">
        <ele>2125.0</ele>
        <time>2018-07-21T11:42:39Z</time>
      </trkpt>
      <trkpt lat="41.093683" lon="-3.679550">
        <ele>2125.0</ele>
        <time>2018-07-21T11:42:40Z</time>
      </trkpt>
      <trkpt lat="41.093783" lon="-3.679450">
        <ele>2125.0</ele>
        <time>2018-07-21T11:42:41Z</time>
      </trkpt>
      <trkpt lat="41.093867" lon="-3.679350">
        <ele>2125.0</ele>
        <time>2018-07-21T11:42:42Z</time>
      </trkpt>
      <trkpt lat="41.093967" lon="-3.679233">
        <ele>2125.0</ele>
        <time>2018-07-21T11:42:43Z</time>
      </trkpt>
      <trkpt lat="41.094050" lon="-3.679133">
        <ele>2125.0</ele>
        <time>2018-07-21T11:42:44Z</time>
      </trkpt>
      <trkpt lat="41.094133" lon="-3.679033">
        <ele>2125.0</ele>
        <time>2018-07-21T11:42:45Z</time>
      </trkpt>
      <trkpt lat="41.094217" lon="-3.678950">
        <ele>2124.0</ele>
        <time>2018-07-21T11:42:46Z</time>
      </trkpt>
      <trkpt lat="41.094317" lon="-3.678850">
        <ele>2124.0</ele>
        <time>2018-07-21T11:42:47Z</time>
      </trkpt>
      <trkpt lat="41.094400" lon="-3.678767">
        <ele>2124.0</ele>
        <time>2018-07-21T11:42:48Z</time>
      </trkpt>
      <trkpt lat="41.094467" lon="-3.678667">
        <ele>2123.0</ele>
        <time>2018-07-21T11:42:49Z</time>
      </trkpt>
      <trkpt lat="41.094533" lon="-3.678583">
        <ele>2122.0</ele>
        <time>2018-07-21T11:42:50Z</time>
      </trkpt>
      <trkpt lat="41.094600" lon="-3.678500">
        <ele>2121.0</ele>
        <time>2018-07-21T11:42:51Z</time>
      </trkpt>
      <trkpt lat="41.094667" lon="-3.678400">
        <ele>2120.0</ele>
        <time>2018-07-21T11:42:52Z</time>
      </trkpt>
      <trkpt lat="41.094750" lon="-3.678317">
        <ele>2118.0</ele>
        <time>2018-07-21T11:42:53Z</time>
      </trkpt>
      <trkpt lat="41.094817" lon="-3.678217">
        <ele>2117.0</ele>
        <time>2018-07-21T11:42:54Z</time>
      </trkpt>
      <trkpt lat="41.094883" lon="-3.678117">
        <ele>2116.0</ele>
        <time>2018-07-21T11:42:55Z</time>
      </trkpt>
      <trkpt lat="41.094950" lon="-3.678017">
        <ele>2115.0</ele>
        <time>2018-07-21T11:42:56Z</time>
      </trkpt>
      <trkpt lat="41.095017" lon="-3.677917">
        <ele>2114.0</ele>
        <time>2018-07-21T11:42:57Z</time>
      </trkpt>
      <trkpt lat="41.095083" lon="-3.677833">
        <ele>2113.0</ele>
        <time>2018-07-21T11:42:58Z</time>
      </trkpt>
      <trkpt lat="41.095150" lon="-3.677767">
        <ele>2112.0</ele>
        <time>2018-07-21T11:42:59Z</time>
      </trkpt>
      <trkpt lat="41.095217" lon="-3.677700">
        <ele>2110.0</ele>
        <time>2018-07-21T11:43:00Z</time>
      </trkpt>
      <trkpt lat="41.095267" lon="-3.677617">
        <ele>2108.0</ele>
        <time>2018-07-21T11:43:01Z</time>
      </trkpt>
      <trkpt lat="41.095333" lon="-3.677533">
        <ele>2105.0</ele>
        <time>2018-07-21T11:43:02Z</time>
      </trkpt>
      <trkpt lat="41.095400" lon="-3.677433">
        <ele>2103.0</ele>
        <time>2018-07-21T11:43:03Z</time>
      </trkpt>
      <trkpt lat="41.095450" lon="-3.677317">
        <ele>2100.0</ele>
        <time>2018-07-21T11:43:04Z</time>
      </trkpt>
      <trkpt lat="41.095517" lon="-3.677200">
        <ele>2098.0</ele>
        <time>2018-07-21T11:43:05Z</time>
      </trkpt>
      <trkpt lat="41.095567" lon="-3.677117">
        <ele>2097.0</ele>
        <time>2018-07-21T11:43:06Z</time>
      </trkpt>
      <trkpt lat="41.095633" lon="-3.677017">
        <ele>2095.0</ele>
        <time>2018-07-21T11:43:07Z</time>
      </trkpt>
      <trkpt lat="41.095683" lon="-3.676917">
        <ele>2092.0</ele>
        <time>2018-07-21T11:43:08Z</time>
      </trkpt>
      <trkpt lat="41.095750" lon="-3.676817">
        <ele>2090.0</ele>
        <time>2018-07-21T11:43:09Z</time>
      </trkpt>
      <trkpt lat="41.095800" lon="-3.676700">
        <ele>2088.0</ele>
        <time>2018-07-21T11:43:10Z</time>
      </trkpt>
      <trkpt lat="41.095867" lon="-3.676600">
        <ele>2086.0</ele>
        <time>2018-07-21T11:43:11Z</time>
      </trkpt>
      <trkpt lat="41.095933" lon="-3.676483">
        <ele>2085.0</ele>
        <time>2018-07-21T11:43:12Z</time>
      </trkpt>
      <trkpt lat="41.095983" lon="-3.676383">
        <ele>2083.0</ele>
        <time>2018-07-21T11:43:13Z</time>
      </trkpt>
      <trkpt lat="41.096033" lon="-3.676283">
        <ele>2081.0</ele>
        <time>2018-07-21T11:43:14Z</time>
      </trkpt>
      <trkpt lat="41.096100" lon="-3.676200">
        <ele>2080.0</ele>
        <time>2018-07-21T11:43:15Z</time>
      </trkpt>
      <trkpt lat="41.096150" lon="-3.676100">
        <ele>2078.0</ele>
        <time>2018-07-21T11:43:16Z</time>
      </trkpt>
      <trkpt lat="41.096200" lon="-3.676000">
        <ele>2077.0</ele>
        <time>2018-07-21T11:43:17Z</time>
      </trkpt>
      <trkpt lat="41.096250" lon="-3.675900">
        <ele>2075.0</ele>
        <time>2018-07-21T11:43:18Z</time>
      </trkpt>
      <trkpt lat="41.096300" lon="-3.675800">
        <ele>2074.0</ele>
        <time>2018-07-21T11:43:19Z</time>
      </trkpt>
      <trkpt lat="41.096350" lon="-3.675700">
        <ele>2072.0</ele>
        <time>2018-07-21T11:43:20Z</time>
      </trkpt>
      <trkpt lat="41.096417" lon="-3.675617">
        <ele>2070.0</ele>
        <time>2018-07-21T11:43:21Z</time>
      </trkpt>
      <trkpt lat="41.096467" lon="-3.675517">
        <ele>2068.0</ele>
        <time>2018-07-21T11:43:22Z</time>
      </trkpt>
      <trkpt lat="41.096517" lon="-3.675417">
        <ele>2066.0</ele>
        <time>2018-07-21T11:43:23Z</time>
      </trkpt>
      <trkpt lat="41.096583" lon="-3.675300">
        <ele>2063.0</ele>
        <time>2018-07-21T11:43:24Z</time>
      </trkpt>
      <trkpt lat="41.096633" lon="-3.675200">
        <ele>2061.0</ele>
        <time>2018-07-21T11:43:25Z</time>
      </trkpt>
      <trkpt lat="41.096700" lon="-3.675083">
        <ele>2060.0</ele>
        <time>2018-07-21T11:43:26Z</time>
      </trkpt>
      <trkpt lat="41.096767" lon="-3.674983">
        <ele>2059.0</ele>
        <time>2018-07-21T11:43:27Z</time>
      </trkpt>
      <trkpt lat="41.096817" lon="-3.674883">
        <ele>2058.0</ele>
        <time>2018-07-21T11:43:28Z</time>
      </trkpt>
      <trkpt lat="41.096867" lon="-3.674767">
        <ele>2057.0</ele>
        <time>2018-07-21T11:43:29Z</time>
      </trkpt>
      <trkpt lat="41.096917" lon="-3.674650">
        <ele>2056.0</ele>
        <time>2018-07-21T11:43:30Z</time>
      </trkpt>
      <trkpt lat="41.096967" lon="-3.674533">
        <ele>2054.0</ele>
        <time>2018-07-21T11:43:31Z</time>
      </trkpt>
      <trkpt lat="41.097033" lon="-3.674433">
        <ele>2053.0</ele>
        <time>2018-07-21T11:43:32Z</time>
      </trkpt>
      <trkpt lat="41.097083" lon="-3.674317">
        <ele>2052.0</ele>
        <time>2018-07-21T11:43:33Z</time>
      </trkpt>
      <trkpt lat="41.097150" lon="-3.674200">
        <ele>2051.0</ele>
        <time>2018-07-21T11:43:34Z</time>
      </trkpt>
      <trkpt lat="41.097200" lon="-3.674100">
        <ele>2050.0</ele>
        <time>2018-07-21T11:43:35Z</time>
      </trkpt>
      <trkpt lat="41.097267" lon="-3.674000">
        <ele>2049.0</ele>
        <time>2018-07-21T11:43:36Z</time>
      </trkpt>
      <trkpt lat="41.097317" lon="-3.673917">
        <ele>2047.0</ele>
        <time>2018-07-21T11:43:37Z</time>
      </trkpt>
      <trkpt lat="41.097383" lon="-3.673817">
        <ele>2045.0</ele>
        <time>2018-07-21T11:43:38Z</time>
      </trkpt>
      <trkpt lat="41.097450" lon="-3.673733">
        <ele>2042.0</ele>
        <time>2018-07-21T11:43:39Z</time>
      </trkpt>
      <trkpt lat="41.097517" lon="-3.673633">
        <ele>2040.0</ele>
        <time>2018-07-21T11:43:40Z</time>
      </trkpt>
      <trkpt lat="41.097567" lon="-3.673533">
        <ele>2038.0</ele>
        <time>2018-07-21T11:43:41Z</time>
      </trkpt>
      <trkpt lat="41.097633" lon="-3.673417">
        <ele>2037.0</ele>
        <time>2018-07-21T11:43:42Z</time>
      </trkpt>
      <trkpt lat="41.097683" lon="-3.673317">
        <ele>2035.0</ele>
        <time>2018-07-21T11:43:43Z</time>
      </trkpt>
      <trkpt lat="41.097750" lon="-3.673233">
        <ele>2033.0</ele>
        <time>2018-07-21T11:43:44Z</time>
      </trkpt>
      <trkpt lat="41.097817" lon="-3.673150">
        <ele>2031.0</ele>
        <time>2018-07-21T11:43:45Z</time>
      </trkpt>
      <trkpt lat="41.097867" lon="-3.673067">
        <ele>2030.0</ele>
        <time>2018-07-21T11:43:46Z</time>
      </trkpt>
      <trkpt lat="41.097933" lon="-3.672983">
        <ele>2028.0</ele>
        <time>2018-07-21T11:43:47Z</time>
      </trkpt>
      <trkpt lat="41.098000" lon="-3.672867">
        <ele>2027.0</ele>
        <time>2018-07-21T11:43:48Z</time>
      </trkpt>
      <trkpt lat="41.098050" lon="-3.672767">
        <ele>2025.0</ele>
        <time>2018-07-21T11:43:49Z</time>
      </trkpt>
      <trkpt lat="41.098117" lon="-3.672667">
        <ele>2024.0</ele>
        <time>2018-07-21T11:43:50Z</time>
      </trkpt>
      <trkpt lat="41.098200" lon="-3.672567">
        <ele>2022.0</ele>
        <time>2018-07-21T11:43:51Z</time>
      </trkpt>
      <trkpt lat="41.098267" lon="-3.672467">
        <ele>2021.0</ele>
        <time>2018-07-21T11:43:52Z</time>
      </trkpt>
      <trkpt lat="41.098333" lon="-3.672367">
        <ele>2019.0</ele>
        <time>2018-07-21T11:43:53Z</time>
      </trkpt>
      <trkpt lat="41.098383" lon="-3.672250">
        <ele>2018.0</ele>
        <time>2018-07-21T11:43:54Z</time>
      </trkpt>
      <trkpt lat="41.098450" lon="-3.672133">
        <ele>2016.0</ele>
        <time>2018-07-21T11:43:55Z</time>
      </trkpt>
      <trkpt lat="41.098517" lon="-3.672017">
        <ele>2015.0</ele>
        <time>2018-07-21T11:43:56Z</time>
      </trkpt>
      <trkpt lat="41.098567" lon="-3.671900">
        <ele>2014.0</ele>
        <time>2018-07-21T11:43:57Z</time>
      </trkpt>
      <trkpt lat="41.098617" lon="-3.671783">
        <ele>2012.0</ele>
        <time>2018-07-21T11:43:58Z</time>
      </trkpt>
      <trkpt lat="41.098667" lon="-3.671633">
        <ele>2010.0</ele>
        <time>2018-07-21T11:43:59Z</time>
      </trkpt>
      <trkpt lat="41.098717" lon="-3.671500">
        <ele>2007.0</ele>
        <time>2018-07-21T11:44:00Z</time>
      </trkpt>
      <trkpt lat="41.098783" lon="-3.671350">
        <ele>2005.0</ele>
        <time>2018-07-21T11:44:01Z</time>
      </trkpt>
      <trkpt lat="41.098850" lon="-3.671200">
        <ele>2003.0</ele>
        <time>2018-07-21T11:44:02Z</time>
      </trkpt>
      <trkpt lat="41.098900" lon="-3.671050">
        <ele>2001.0</ele>
        <time>2018-07-21T11:44:03Z</time>
      </trkpt>
      <trkpt lat="41.098967" lon="-3.670900">
        <ele>2000.0</ele>
        <time>2018-07-21T11:44:04Z</time>
      </trkpt>
      <trkpt lat="41.099017" lon="-3.670767">
        <ele>1998.0</ele>
        <time>2018-07-21T11:44:05Z</time>
      </trkpt>
      <trkpt lat="41.099083" lon="-3.670617">
        <ele>1996.0</ele>
        <time>2018-07-21T11:44:06Z</time>
      </trkpt>
      <trkpt lat="41.099150" lon="-3.670467">
        <ele>1994.0</ele>
        <time>2018-07-21T11:44:07Z</time>
      </trkpt>
      <trkpt lat="41.099217" lon="-3.670317">
        <ele>1991.0</ele>
        <time>2018-07-21T11:44:08Z</time>
      </trkpt>
      <trkpt lat="41.099283" lon="-3.670167">
        <ele>1988.0</ele>
        <time>2018-07-21T11:44:09Z</time>
      </trkpt>
      <trkpt lat="41.099350" lon="-3.670017">
        <ele>1986.0</ele>
        <time>2018-07-21T11:44:10Z</time>
      </trkpt>
      <trkpt lat="41.099417" lon="-3.669867">
        <ele>1984.0</ele>
        <time>2018-07-21T11:44:11Z</time>
      </trkpt>
      <trkpt lat="41.099483" lon="-3.669717">
        <ele>1983.0</ele>
        <time>2018-07-21T11:44:12Z</time>
      </trkpt>
      <trkpt lat="41.099550" lon="-3.669600">
        <ele>1982.0</ele>
        <time>2018-07-21T11:44:13Z</time>
      </trkpt>
      <trkpt lat="41.099617" lon="-3.669483">
        <ele>1981.0</ele>
        <time>2018-07-21T11:44:14Z</time>
      </trkpt>
      <trkpt lat="41.099667" lon="-3.669367">
        <ele>1979.0</ele>
        <time>2018-07-21T11:44:15Z</time>
      </trkpt>
      <trkpt lat="41.099717" lon="-3.669250">
        <ele>1977.0</ele>
        <time>2018-07-21T11:44:16Z</time>
      </trkpt>
      <trkpt lat="41.099783" lon="-3.669117">
        <ele>1975.0</ele>
        <time>2018-07-21T11:44:17Z</time>
      </trkpt>
      <trkpt lat="41.099833" lon="-3.669000">
        <ele>1973.0</ele>
        <time>2018-07-21T11:44:18Z</time>
      </trkpt>
      <trkpt lat="41.099883" lon="-3.668867">
        <ele>1971.0</ele>
        <time>2018-07-21T11:44:19Z</time>
      </trkpt>
      <trkpt lat="41.099950" lon="-3.668733">
        <ele>1970.0</ele>
        <time>2018-07-21T11:44:20Z</time>
      </trkpt>
      <trkpt lat="41.100033" lon="-3.668617">
        <ele>1969.0</ele>
        <time>2018-07-21T11:44:21Z</time>
      </trkpt>
      <trkpt lat="41.100100" lon="-3.668500">
        <ele>1968.0</ele>
        <time>2018-07-21T11:44:22Z</time>
      </trkpt>
      <trkpt lat="41.100167" lon="-3.668400">
        <ele>1966.0</ele>
        <time>2018-07-21T11:44:23Z</time>
      </trkpt>
      <trkpt lat="41.100250" lon="-3.668283">
        <ele>1965.0</ele>
        <time>2018-07-21T11:44:24Z</time>
      </trkpt>
      <trkpt lat="41.100317" lon="-3.668167">
        <ele>1964.0</ele>
        <time>2018-07-21T11:44:25Z</time>
      </trkpt>
      <trkpt lat="41.100383" lon="-3.668050">
        <ele>1963.0</ele>
        <time>2018-07-21T11:44:26Z</time>
      </trkpt>
      <trkpt lat="41.100467" lon="-3.667933">
        <ele>1961.0</ele>
        <time>2018-07-21T11:44:27Z</time>
      </trkpt>
      <trkpt lat="41.100533" lon="-3.667833">
        <ele>1960.0</ele>
        <time>2018-07-21T11:44:28Z</time>
      </trkpt>
      <trkpt lat="41.100583" lon="-3.667717">
        <ele>1958.0</ele>
        <time>2018-07-21T11:44:29Z</time>
      </trkpt>
      <trkpt lat="41.100650" lon="-3.667600">
        <ele>1955.0</ele>
        <time>2018-07-21T11:44:30Z</time>
      </trkpt>
      <trkpt lat="41.100717" lon="-3.667467">
        <ele>1953.0</ele>
        <time>2018-07-21T11:44:31Z</time>
      </trkpt>
      <trkpt lat="41.100783" lon="-3.667333">
        <ele>1950.0</ele>
        <time>2018-07-21T11:44:32Z</time>
      </trkpt>
      <trkpt lat="41.100850" lon="-3.667200">
        <ele>1948.0</ele>
        <time>2018-07-21T11:44:33Z</time>
      </trkpt>
      <trkpt lat="41.100917" lon="-3.667067">
        <ele>1946.0</ele>
        <time>2018-07-21T11:44:34Z</time>
      </trkpt>
      <trkpt lat="41.100967" lon="-3.666933">
        <ele>1944.0</ele>
        <time>2018-07-21T11:44:35Z</time>
      </trkpt>
      <trkpt lat="41.101033" lon="-3.666800">
        <ele>1943.0</ele>
        <time>2018-07-21T11:44:36Z</time>
      </trkpt>
      <trkpt lat="41.101083" lon="-3.666667">
        <ele>1941.0</ele>
        <time>2018-07-21T11:44:37Z</time>
      </trkpt>
      <trkpt lat="41.101150" lon="-3.666517">
        <ele>1939.0</ele>
        <time>2018-07-21T11:44:38Z</time>
      </trkpt>
      <trkpt lat="41.101200" lon="-3.666383">
        <ele>1937.0</ele>
        <time>2018-07-21T11:44:39Z</time>
      </trkpt>
      <trkpt lat="41.101250" lon="-3.666250">
        <ele>1935.0</ele>
        <time>2018-07-21T11:44:40Z</time>
      </trkpt>
      <trkpt lat="41.101300" lon="-3.666117">
        <ele>1934.0</ele>
        <time>2018-07-21T11:44:41Z</time>
      </trkpt>
      <trkpt lat="41.101333" lon="-3.665967">
        <ele>1932.0</ele>
        <time>2018-07-21T11:44:42Z</time>
      </trkpt>
      <trkpt lat="41.101383" lon="-3.665850">
        <ele>1930.0</ele>
        <time>2018-07-21T11:44:43Z</time>
      </trkpt>
      <trkpt lat="41.101433" lon="-3.665717">
        <ele>1929.0</ele>
        <time>2018-07-21T11:44:44Z</time>
      </trkpt>
      <trkpt lat="41.101500" lon="-3.665617">
        <ele>1927.0</ele>
        <time>2018-07-21T11:44:45Z</time>
      </trkpt>
      <trkpt lat="41.101567" lon="-3.665500">
        <ele>1925.0</ele>
        <time>2018-07-21T11:44:46Z</time>
      </trkpt>
      <trkpt lat="41.101633" lon="-3.665400">
        <ele>1923.0</ele>
        <time>2018-07-21T11:44:47Z</time>
      </trkpt>
      <trkpt lat="41.101717" lon="-3.665317">
        <ele>1921.0</ele>
        <time>2018-07-21T11:44:48Z</time>
      </trkpt>
      <trkpt lat="41.101800" lon="-3.665233">
        <ele>1918.0</ele>
        <time>2018-07-21T11:44:49Z</time>
      </trkpt>
      <trkpt lat="41.101900" lon="-3.665167">
        <ele>1916.0</ele>
        <time>2018-07-21T11:44:50Z</time>
      </trkpt>
      <trkpt lat="41.101983" lon="-3.665067">
        <ele>1915.0</ele>
        <time>2018-07-21T11:44:51Z</time>
      </trkpt>
      <trkpt lat="41.102067" lon="-3.664983">
        <ele>1915.0</ele>
        <time>2018-07-21T11:44:52Z</time>
      </trkpt>
      <trkpt lat="41.102150" lon="-3.664900">
        <ele>1914.0</ele>
        <time>2018-07-21T11:44:53Z</time>
      </trkpt>
      <trkpt lat="41.102217" lon="-3.664817">
        <ele>1913.0</ele>
        <time>2018-07-21T11:44:54Z</time>
      </trkpt>
      <trkpt lat="41.102300" lon="-3.664733">
        <ele>1911.0</ele>
        <time>2018-07-21T11:44:55Z</time>
      </trkpt>
      <trkpt lat="41.102383" lon="-3.664667">
        <ele>1909.0</ele>
        <time>2018-07-21T11:44:56Z</time>
      </trkpt>
      <trkpt lat="41.102467" lon="-3.664583">
        <ele>1907.0</ele>
        <time>2018-07-21T11:44:57Z</time>
      </trkpt>
      <trkpt lat="41.102550" lon="-3.664500">
        <ele>1906.0</ele>
        <time>2018-07-21T11:44:58Z</time>
      </trkpt>
      <trkpt lat="41.102617" lon="-3.664400">
        <ele>1906.0</ele>
        <time>2018-07-21T11:44:59Z</time>
      </trkpt>
      <trkpt lat="41.102700" lon="-3.664317">
        <ele>1905.0</ele>
        <time>2018-07-21T11:45:00Z</time>
      </trkpt>
      <trkpt lat="41.102767" lon="-3.664233">
        <ele>1904.0</ele>
        <time>2018-07-21T11:45:01Z</time>
      </trkpt>
      <trkpt lat="41.102850" lon="-3.664150">
        <ele>1903.0</ele>
        <time>2018-07-21T11:45:02Z</time>
      </trkpt>
      <trkpt lat="41.102917" lon="-3.664067">
        <ele>1901.0</ele>
        <time>2018-07-21T11:45:03Z</time>
      </trkpt>
      <trkpt lat="41.102983" lon="-3.663983">
        <ele>1898.0</ele>
        <time>2018-07-21T11:45:04Z</time>
      </trkpt>
      <trkpt lat="41.103050" lon="-3.663883">
        <ele>1895.0</ele>
        <time>2018-07-21T11:45:05Z</time>
      </trkpt>
      <trkpt lat="41.103133" lon="-3.663800">
        <ele>1892.0</ele>
        <time>2018-07-21T11:45:06Z</time>
      </trkpt>
      <trkpt lat="41.103200" lon="-3.663717">
        <ele>1889.0</ele>
        <time>2018-07-21T11:45:07Z</time>
      </trkpt>
      <trkpt lat="41.103283" lon="-3.663617">
        <ele>1886.0</ele>
        <time>2018-07-21T11:45:08Z</time>
      </trkpt>
      <trkpt lat="41.103367" lon="-3.663517">
        <ele>1884.0</ele>
        <time>2018-07-21T11:45:09Z</time>
      </trkpt>
      <trkpt lat="41.103450" lon="-3.663433">
        <ele>1882.0</ele>
        <time>2018-07-21T11:45:10Z</time>
      </trkpt>
      <trkpt lat="41.103533" lon="-3.663350">
        <ele>1881.0</ele>
        <time>2018-07-21T11:45:11Z</time>
      </trkpt>
      <trkpt lat="41.103617" lon="-3.663267">
        <ele>1879.0</ele>
        <time>2018-07-21T11:45:12Z</time>
      </trkpt>
      <trkpt lat="41.103700" lon="-3.663200">
        <ele>1877.0</ele>
        <time>2018-07-21T11:45:13Z</time>
      </trkpt>
      <trkpt lat="41.103800" lon="-3.663150">
        <ele>1874.0</ele>
        <time>2018-07-21T11:45:14Z</time>
      </trkpt>
      <trkpt lat="41.103900" lon="-3.663100">
        <ele>1872.0</ele>
        <time>2018-07-21T11:45:15Z</time>
      </trkpt>
      <trkpt lat="41.104000" lon="-3.663050">
        <ele>1870.0</ele>
        <time>2018-07-21T11:45:16Z</time>
      </trkpt>
      <trkpt lat="41.104100" lon="-3.663000">
        <ele>1869.0</ele>
        <time>2018-07-21T11:45:17Z</time>
      </trkpt>
      <trkpt lat="41.104183" lon="-3.662933">
        <ele>1868.0</ele>
        <time>2018-07-21T11:45:18Z</time>
      </trkpt>
      <trkpt lat="41.104267" lon="-3.662867">
        <ele>1866.0</ele>
        <time>2018-07-21T11:45:19Z</time>
      </trkpt>
      <trkpt lat="41.104367" lon="-3.662800">
        <ele>1865.0</ele>
        <time>2018-07-21T11:45:20Z</time>
      </trkpt>
      <trkpt lat="41.104450" lon="-3.662733">
        <ele>1863.0</ele>
        <time>2018-07-21T11:45:21Z</time>
      </trkpt>
      <trkpt lat="41.104533" lon="-3.662650">
        <ele>1861.0</ele>
        <time>2018-07-21T11:45:22Z</time>
      </trkpt>
      <trkpt lat="41.104617" lon="-3.662550">
        <ele>1860.0</ele>
        <time>2018-07-21T11:45:23Z</time>
      </trkpt>
      <trkpt lat="41.104683" lon="-3.662450">
        <ele>1858.0</ele>
        <time>2018-07-21T11:45:24Z</time>
      </trkpt>
      <trkpt lat="41.104750" lon="-3.662333">
        <ele>1855.0</ele>
        <time>2018-07-21T11:45:25Z</time>
      </trkpt>
      <trkpt lat="41.104817" lon="-3.662217">
        <ele>1853.0</ele>
        <time>2018-07-21T11:45:26Z</time>
      </trkpt>
      <trkpt lat="41.104900" lon="-3.662100">
        <ele>1850.0</ele>
        <time>2018-07-21T11:45:27Z</time>
      </trkpt>
      <trkpt lat="41.105000" lon="-3.661983">
        <ele>1848.0</ele>
        <time>2018-07-21T11:45:28Z</time>
      </trkpt>
      <trkpt lat="41.105083" lon="-3.661867">
        <ele>1848.0</ele>
        <time>2018-07-21T11:45:29Z</time>
      </trkpt>
      <trkpt lat="41.105150" lon="-3.661750">
        <ele>1848.0</ele>
        <time>2018-07-21T11:45:30Z</time>
      </trkpt>
      <trkpt lat="41.105233" lon="-3.661633">
        <ele>1848.0</ele>
        <time>2018-07-21T11:45:31Z</time>
      </trkpt>
      <trkpt lat="41.105283" lon="-3.661533">
        <ele>1848.0</ele>
        <time>2018-07-21T11:45:32Z</time>
      </trkpt>
      <trkpt lat="41.105367" lon="-3.661433">
        <ele>1847.0</ele>
        <time>2018-07-21T11:45:33Z</time>
      </trkpt>
      <trkpt lat="41.105433" lon="-3.661317">
        <ele>1844.0</ele>
        <time>2018-07-21T11:45:34Z</time>
      </trkpt>
      <trkpt lat="41.105517" lon="-3.661200">
        <ele>1843.0</ele>
        <time>2018-07-21T11:45:35Z</time>
      </trkpt>
      <trkpt lat="41.105583" lon="-3.661067">
        <ele>1842.0</ele>
        <time>2018-07-21T11:45:36Z</time>
      </trkpt>
      <trkpt lat="41.105667" lon="-3.660933">
        <ele>1841.0</ele>
        <time>2018-07-21T11:45:37Z</time>
      </trkpt>
      <trkpt lat="41.105717" lon="-3.660800">
        <ele>1841.0</ele>
        <time>2018-07-21T11:45:38Z</time>
      </trkpt>
      <trkpt lat="41.105783" lon="-3.660683">
        <ele>1839.0</ele>
        <time>2018-07-21T11:45:39Z</time>
      </trkpt>
      <trkpt lat="41.105850" lon="-3.660567">
        <ele>1837.0</ele>
        <time>2018-07-21T11:45:40Z</time>
      </trkpt>
      <trkpt lat="41.105933" lon="-3.660450">
        <ele>1835.0</ele>
        <time>2018-07-21T11:45:41Z</time>
      </trkpt>
      <trkpt lat="41.106000" lon="-3.660350">
        <ele>1832.0</ele>
        <time>2018-07-21T11:45:42Z</time>
      </trkpt>
      <trkpt lat="41.106083" lon="-3.660233">
        <ele>1830.0</ele>
        <time>2018-07-21T11:45:43Z</time>
      </trkpt>
      <trkpt lat="41.106150" lon="-3.660133">
        <ele>1827.0</ele>
        <time>2018-07-21T11:45:44Z</time>
      </trkpt>
      <trkpt lat="41.106233" lon="-3.660017">
        <ele>1823.0</ele>
        <time>2018-07-21T11:45:45Z</time>
      </trkpt>
      <trkpt lat="41.106300" lon="-3.659883">
        <ele>1820.0</ele>
        <time>2018-07-21T11:45:46Z</time>
      </trkpt>
      <trkpt lat="41.106383" lon="-3.659767">
        <ele>1816.0</ele>
        <time>2018-07-21T11:45:47Z</time>
      </trkpt>
      <trkpt lat="41.106467" lon="-3.659650">
        <ele>1813.0</ele>
        <time>2018-07-21T11:45:48Z</time>
      </trkpt>
      <trkpt lat="41.106533" lon="-3.659533">
        <ele>1811.0</ele>
        <time>2018-07-21T11:45:49Z</time>
      </trkpt>
      <trkpt lat="41.106600" lon="-3.659417">
        <ele>1809.0</ele>
        <time>2018-07-21T11:45:50Z</time>
      </trkpt>
      <trkpt lat="41.106683" lon="-3.659317">
        <ele>1807.0</ele>
        <time>2018-07-21T11:45:51Z</time>
      </trkpt>
      <trkpt lat="41.106750" lon="-3.659217">
        <ele>1805.0</ele>
        <time>2018-07-21T11:45:52Z</time>
      </trkpt>
      <trkpt lat="41.106833" lon="-3.659150">
        <ele>1802.0</ele>
        <time>2018-07-21T11:45:53Z</time>
      </trkpt>
      <trkpt lat="41.106933" lon="-3.659083">
        <ele>1801.0</ele>
        <time>2018-07-21T11:45:54Z</time>
      </trkpt>
      <trkpt lat="41.107033" lon="-3.659017">
        <ele>1802.0</ele>
        <time>2018-07-21T11:45:55Z</time>
      </trkpt>
      <trkpt lat="41.107100" lon="-3.658967">
        <ele>1805.0</ele>
        <time>2018-07-21T11:45:56Z</time>
      </trkpt>
      <trkpt lat="41.107167" lon="-3.658917">
        <ele>1806.0</ele>
        <time>2018-07-21T11:45:57Z</time>
      </trkpt>
      <trkpt lat="41.107217" lon="-3.658867">
        <ele>1806.0</ele>
        <time>2018-07-21T11:45:58Z</time>
      </trkpt>
      <trkpt lat="41.107267" lon="-3.658817">
        <ele>1806.0</ele>
        <time>2018-07-21T11:45:59Z</time>
      </trkpt>
      <trkpt lat="41.107333" lon="-3.658783">
        <ele>1805.0</ele>
        <time>2018-07-21T11:46:00Z</time>
      </trkpt>
      <trkpt lat="41.107400" lon="-3.658750">
        <ele>1805.0</ele>
        <time>2018-07-21T11:46:01Z</time>
      </trkpt>
      <trkpt lat="41.107467" lon="-3.658717">
        <ele>1805.0</ele>
        <time>2018-07-21T11:46:02Z</time>
      </trkpt>
      <trkpt lat="41.107517" lon="-3.658667">
        <ele>1805.0</ele>
        <time>2018-07-21T11:46:03Z</time>
      </trkpt>
      <trkpt lat="41.107583" lon="-3.658600">
        <ele>1804.0</ele>
        <time>2018-07-21T11:46:04Z</time>
      </trkpt>
      <trkpt lat="41.107633" lon="-3.658517">
        <ele>1803.0</ele>
        <time>2018-07-21T11:46:05Z</time>
      </trkpt>
      <trkpt lat="41.107683" lon="-3.658433">
        <ele>1802.0</ele>
        <time>2018-07-21T11:46:06Z</time>
      </trkpt>
      <trkpt lat="41.107750" lon="-3.658367">
        <ele>1802.0</ele>
        <time>2018-07-21T11:46:07Z</time>
      </trkpt>
      <trkpt lat="41.107800" lon="-3.658317">
        <ele>1801.0</ele>
        <time>2018-07-21T11:46:08Z</time>
      </trkpt>
      <trkpt lat="41.107867" lon="-3.658250">
        <ele>1800.0</ele>
        <time>2018-07-21T11:46:09Z</time>
      </trkpt>
      <trkpt lat="41.107917" lon="-3.658200">
        <ele>1799.0</ele>
        <time>2018-07-21T11:46:10Z</time>
      </trkpt>
      <trkpt lat="41.107967" lon="-3.658133">
        <ele>1798.0</ele>
        <time>2018-07-21T11:46:11Z</time>
      </trkpt>
      <trkpt lat="41.108017" lon="-3.658050">
        <ele>1796.0</ele>
        <time>2018-07-21T11:46:12Z</time>
      </trkpt>
      <trkpt lat="41.108067" lon="-3.657967">
        <ele>1795.0</ele>
        <time>2018-07-21T11:46:13Z</time>
      </trkpt>
      <trkpt lat="41.108133" lon="-3.657883">
        <ele>1794.0</ele>
        <time>2018-07-21T11:46:14Z</time>
      </trkpt>
      <trkpt lat="41.108183" lon="-3.657800">
        <ele>1793.0</ele>
        <time>2018-07-21T11:46:15Z</time>
      </trkpt>
      <trkpt lat="41.108233" lon="-3.657717">
        <ele>1793.0</ele>
        <time>2018-07-21T11:46:16Z</time>
      </trkpt>
      <trkpt lat="41.108267" lon="-3.657633">
        <ele>1791.0</ele>
        <time>2018-07-21T11:46:17Z</time>
      </trkpt>
      <trkpt lat="41.108317" lon="-3.657567">
        <ele>1789.0</ele>
        <time>2018-07-21T11:46:18Z</time>
      </trkpt>
      <trkpt lat="41.108383" lon="-3.657483">
        <ele>1787.0</ele>
        <time>2018-07-21T11:46:19Z</time>
      </trkpt>
      <trkpt lat="41.108450" lon="-3.657383">
        <ele>1785.0</ele>
        <time>2018-07-21T11:46:20Z</time>
      </trkpt>
      <trkpt lat="41.108517" lon="-3.657300">
        <ele>1783.0</ele>
        <time>2018-07-21T11:46:21Z</time>
      </trkpt>
      <trkpt lat="41.108583" lon="-3.657200">
        <ele>1781.0</ele>
        <time>2018-07-21T11:46:22Z</time>
      </trkpt>
      <trkpt lat="41.108650" lon="-3.657100">
        <ele>1780.0</ele>
        <time>2018-07-21T11:46:23Z</time>
      </trkpt>
      <trkpt lat="41.108717" lon="-3.657000">
        <ele>1779.0</ele>
        <time>2018-07-21T11:46:24Z</time>
      </trkpt>
      <trkpt lat="41.108767" lon="-3.656883">
        <ele>1778.0</ele>
        <time>2018-07-21T11:46:25Z</time>
      </trkpt>
      <trkpt lat="41.108817" lon="-3.656750">
        <ele>1777.0</ele>
        <time>2018-07-21T11:46:26Z</time>
      </trkpt>
      <trkpt lat="41.108867" lon="-3.656650">
        <ele>1777.0</ele>
        <time>2018-07-21T11:46:27Z</time>
      </trkpt>
      <trkpt lat="41.108900" lon="-3.656533">
        <ele>1775.0</ele>
        <time>2018-07-21T11:46:28Z</time>
      </trkpt>
      <trkpt lat="41.108950" lon="-3.656433">
        <ele>1772.0</ele>
        <time>2018-07-21T11:46:29Z</time>
      </trkpt>
      <trkpt lat="41.109017" lon="-3.656300">
        <ele>1769.0</ele>
        <time>2018-07-21T11:46:30Z</time>
      </trkpt>
      <trkpt lat="41.109100" lon="-3.656167">
        <ele>1766.0</ele>
        <time>2018-07-21T11:46:31Z</time>
      </trkpt>
      <trkpt lat="41.109167" lon="-3.656033">
        <ele>1765.0</ele>
        <time>2018-07-21T11:46:32Z</time>
      </trkpt>
      <trkpt lat="41.109250" lon="-3.655900">
        <ele>1764.0</ele>
        <time>2018-07-21T11:46:33Z</time>
      </trkpt>
      <trkpt lat="41.109317" lon="-3.655783">
        <ele>1763.0</ele>
        <time>2018-07-21T11:46:34Z</time>
      </trkpt>
      <trkpt lat="41.109400" lon="-3.655650">
        <ele>1765.0</ele>
        <time>2018-07-21T11:46:35Z</time>
      </trkpt>
      <trkpt lat="41.109467" lon="-3.655550">
        <ele>1768.0</ele>
        <time>2018-07-21T11:46:36Z</time>
      </trkpt>
      <trkpt lat="41.109550" lon="-3.655467">
        <ele>1772.0</ele>
        <time>2018-07-21T11:46:37Z</time>
      </trkpt>
      <trkpt lat="41.109617" lon="-3.655383">
        <ele>1775.0</ele>
        <time>2018-07-21T11:46:38Z</time>
      </trkpt>
      <trkpt lat="41.109683" lon="-3.655300">
        <ele>1779.0</ele>
        <time>2018-07-21T11:46:39Z</time>
      </trkpt>
      <trkpt lat="41.109750" lon="-3.655233">
        <ele>1783.0</ele>
        <time>2018-07-21T11:46:40Z</time>
      </trkpt>
      <trkpt lat="41.109783" lon="-3.655167">
        <ele>1786.0</ele>
        <time>2018-07-21T11:46:41Z</time>
      </trkpt>
      <trkpt lat="41.109850" lon="-3.655150">
        <ele>1787.0</ele>
        <time>2018-07-21T11:46:42Z</time>
      </trkpt>
      <trkpt lat="41.109900" lon="-3.655150">
        <ele>1787.0</ele>
        <time>2018-07-21T11:46:43Z</time>
      </trkpt>
      <trkpt lat="41.109950" lon="-3.655200">
        <ele>1787.0</ele>
        <time>2018-07-21T11:46:44Z</time>
      </trkpt>
      <trkpt lat="41.110000" lon="-3.655267">
        <ele>1788.0</ele>
        <time>2018-07-21T11:46:45Z</time>
      </trkpt>
      <trkpt lat="41.110017" lon="-3.655367">
        <ele>1790.0</ele>
        <time>2018-07-21T11:46:46Z</time>
      </trkpt>
      <trkpt lat="41.110017" lon="-3.655467">
        <ele>1793.0</ele>
        <time>2018-07-21T11:46:47Z</time>
      </trkpt>
      <trkpt lat="41.109967" lon="-3.655533">
        <ele>1796.0</ele>
        <time>2018-07-21T11:46:48Z</time>
      </trkpt>
      <trkpt lat="41.109917" lon="-3.655583">
        <ele>1798.0</ele>
        <time>2018-07-21T11:46:49Z</time>
      </trkpt>
      <trkpt lat="41.109850" lon="-3.655633">
        <ele>1800.0</ele>
        <time>2018-07-21T11:46:50Z</time>
      </trkpt>
      <trkpt lat="41.109783" lon="-3.655667">
        <ele>1802.0</ele>
        <time>2018-07-21T11:46:51Z</time>
      </trkpt>
      <trkpt lat="41.109683" lon="-3.655683">
        <ele>1804.0</ele>
        <time>2018-07-21T11:46:52Z</time>
      </trkpt>
      <trkpt lat="41.109600" lon="-3.655650">
        <ele>1806.0</ele>
        <time>2018-07-21T11:46:53Z</time>
      </trkpt>
      <trkpt lat="41.109517" lon="-3.655583">
        <ele>1807.0</ele>
        <time>2018-07-21T11:46:54Z</time>
      </trkpt>
      <trkpt lat="41.109433" lon="-3.655467">
        <ele>1808.0</ele>
        <time>2018-07-21T11:46:55Z</time>
      </trkpt>
      <trkpt lat="41.109350" lon="-3.655333">
        <ele>1809.0</ele>
        <time>2018-07-21T11:46:56Z</time>
      </trkpt>
      <trkpt lat="41.109300" lon="-3.655183">
        <ele>1809.0</ele>
        <time>2018-07-21T11:46:57Z</time>
      </trkpt>
      <trkpt lat="41.109283" lon="-3.655017">
        <ele>1810.0</ele>
        <time>2018-07-21T11:46:58Z</time>
      </trkpt>
      <trkpt lat="41.109283" lon="-3.654850">
        <ele>1810.0</ele>
        <time>2018-07-21T11:46:59Z</time>
      </trkpt>
      <trkpt lat="41.109333" lon="-3.654700">
        <ele>1812.0</ele>
        <time>2018-07-21T11:47:00Z</time>
      </trkpt>
      <trkpt lat="41.109383" lon="-3.654600">
        <ele>1815.0</ele>
        <time>2018-07-21T11:47:01Z</time>
      </trkpt>
      <trkpt lat="41.109433" lon="-3.654517">
        <ele>1818.0</ele>
        <time>2018-07-21T11:47:02Z</time>
      </trkpt>
      <trkpt lat="41.109483" lon="-3.654433">
        <ele>1821.0</ele>
        <time>2018-07-21T11:47:03Z</time>
      </trkpt>
      <trkpt lat="41.109533" lon="-3.654367">
        <ele>1822.0</ele>
        <time>2018-07-21T11:47:04Z</time>
      </trkpt>
      <trkpt lat="41.109550" lon="-3.654267">
        <ele>1823.0</ele>
        <time>2018-07-21T11:47:05Z</time>
      </trkpt>
      <trkpt lat="41.109583" lon="-3.654167">
        <ele>1823.0</ele>
        <time>2018-07-21T11:47:06Z</time>
      </trkpt>
      <trkpt lat="41.109617" lon="-3.654050">
        <ele>1823.0</ele>
        <time>2018-07-21T11:47:07Z</time>
      </trkpt>
      <trkpt lat="41.109683" lon="-3.653950">
        <ele>1824.0</ele>
        <time>2018-07-21T11:47:08Z</time>
      </trkpt>
      <trkpt lat="41.109750" lon="-3.653883">
        <ele>1825.0</ele>
        <time>2018-07-21T11:47:09Z</time>
      </trkpt>
      <trkpt lat="41.109817" lon="-3.653867">
        <ele>1826.0</ele>
        <time>2018-07-21T11:47:10Z</time>
      </trkpt>
      <trkpt lat="41.109883" lon="-3.653883">
        <ele>1828.0</ele>
        <time>2018-07-21T11:47:11Z</time>
      </trkpt>
      <trkpt lat="41.109917" lon="-3.653900">
        <ele>1831.0</ele>
        <time>2018-07-21T11:47:12Z</time>
      </trkpt>
      <trkpt lat="41.109950" lon="-3.653933">
        <ele>1834.0</ele>
        <time>2018-07-21T11:47:13Z</time>
      </trkpt>
      <trkpt lat="41.109967" lon="-3.653983">
        <ele>1836.0</ele>
        <time>2018-07-21T11:47:14Z</time>
      </trkpt>
      <trkpt lat="41.109983" lon="-3.654033">
        <ele>1839.0</ele>
        <time>2018-07-21T11:47:15Z</time>
      </trkpt>
      <trkpt lat="41.109950" lon="-3.654083">
        <ele>1841.0</ele>
        <time>2018-07-21T11:47:16Z</time>
      </trkpt>
      <trkpt lat="41.109917" lon="-3.654117">
        <ele>1842.0</ele>
        <time>2018-07-21T11:47:17Z</time>
      </trkpt>
      <trkpt lat="41.109833" lon="-3.654133">
        <ele>1843.0</ele>
        <time>2018-07-21T11:47:18Z</time>
      </trkpt>
      <trkpt lat="41.109733" lon="-3.654117">
        <ele>1844.0</ele>
        <time>2018-07-21T11:47:19Z</time>
      </trkpt>
      <trkpt lat="41.109617" lon="-3.654067">
        <ele>1845.0</ele>
        <time>2018-07-21T11:47:20Z</time>
      </trkpt>
      <trkpt lat="41.109500" lon="-3.653967">
        <ele>1846.0</ele>
        <time>2018-07-21T11:47:21Z</time>
      </trkpt>
      <trkpt lat="41.109400" lon="-3.653833">
        <ele>1849.0</ele>
        <time>2018-07-21T11:47:22Z</time>
      </trkpt>
      <trkpt lat="41.109317" lon="-3.653683">
        <ele>1852.0</ele>
        <time>2018-07-21T11:47:23Z</time>
      </trkpt>
      <trkpt lat="41.109267" lon="-3.653533">
        <ele>1856.0</ele>
        <time>2018-07-21T11:47:24Z</time>
      </trkpt>
      <trkpt lat="41.109233" lon="-3.653383">
        <ele>1859.0</ele>
        <time>2018-07-21T11:47:25Z</time>
      </trkpt>
      <trkpt lat="41.109233" lon="-3.653250">
        <ele>1859.0</ele>
        <time>2018-07-21T11:47:26Z</time>
      </trkpt>
      <trkpt lat="41.109250" lon="-3.653133">
        <ele>1859.0</ele>
        <time>2018-07-21T11:47:27Z</time>
      </trkpt>
      <trkpt lat="41.109300" lon="-3.653000">
        <ele>1860.0</ele>
        <time>2018-07-21T11:47:28Z</time>
      </trkpt>
      <trkpt lat="41.109367" lon="-3.652883">
        <ele>1861.0</ele>
        <time>2018-07-21T11:47:29Z</time>
      </trkpt>
      <trkpt lat="41.109433" lon="-3.652783">
        <ele>1863.0</ele>
        <time>2018-07-21T11:47:30Z</time>
      </trkpt>
      <trkpt lat="41.109500" lon="-3.652733">
        <ele>1867.0</ele>
        <time>2018-07-21T11:47:31Z</time>
      </trkpt>
      <trkpt lat="41.109550" lon="-3.652717">
        <ele>1870.0</ele>
        <time>2018-07-21T11:47:32Z</time>
      </trkpt>
      <trkpt lat="41.109583" lon="-3.652733">
        <ele>1872.0</ele>
        <time>2018-07-21T11:47:33Z</time>
      </trkpt>
      <trkpt lat="41.109617" lon="-3.652767">
        <ele>1873.0</ele>
        <time>2018-07-21T11:47:34Z</time>
      </trkpt>
      <trkpt lat="41.109633" lon="-3.652800">
        <ele>1875.0</ele>
        <time>2018-07-21T11:47:35Z</time>
      </trkpt>
      <trkpt lat="41.109633" lon="-3.652833">
        <ele>1877.0</ele>
        <time>2018-07-21T11:47:36Z</time>
      </trkpt>
      <trkpt lat="41.109617" lon="-3.652850">
        <ele>1879.0</ele>
        <time>2018-07-21T11:47:37Z</time>
      </trkpt>
      <trkpt lat="41.109567" lon="-3.652850">
        <ele>1880.0</ele>
        <time>2018-07-21T11:47:38Z</time>
      </trkpt>
      <trkpt lat="41.109483" lon="-3.652850">
        <ele>1879.0</ele>
        <time>2018-07-21T11:47:39Z</time>
      </trkpt>
      <trkpt lat="41.109367" lon="-3.652833">
        <ele>1880.0</ele>
        <time>2018-07-21T11:47:40Z</time>
      </trkpt>
      <trkpt lat="41.109267" lon="-3.652783">
        <ele>1882.0</ele>
        <time>2018-07-21T11:47:41Z</time>
      </trkpt>
      <trkpt lat="41.109150" lon="-3.652700">
        <ele>1884.0</ele>
        <time>2018-07-21T11:47:42Z</time>
      </trkpt>
      <trkpt lat="41.109050" lon="-3.652567">
        <ele>1886.0</ele>
        <time>2018-07-21T11:47:43Z</time>
      </trkpt>
      <trkpt lat="41.108950" lon="-3.652417">
        <ele>1888.0</ele>
        <time>2018-07-21T11:47:44Z</time>
      </trkpt>
      <trkpt lat="41.108900" lon="-3.652233">
        <ele>1890.0</ele>
        <time>2018-07-21T11:47:45Z</time>
      </trkpt>
      <trkpt lat="41.108883" lon="-3.652033">
        <ele>1891.0</ele>
        <time>2018-07-21T11:47:46Z</time>
      </trkpt>
      <trkpt lat="41.108900" lon="-3.651850">
        <ele>1894.0</ele>
        <time>2018-07-21T11:47:47Z</time>
      </trkpt>
      <trkpt lat="41.108933" lon="-3.651717">
        <ele>1896.0</ele>
        <time>2018-07-21T11:47:48Z</time>
      </trkpt>
      <trkpt lat="41.109000" lon="-3.651617">
        <ele>1899.0</ele>
        <time>2018-07-21T11:47:49Z</time>
      </trkpt>
      <trkpt lat="41.109050" lon="-3.651583">
        <ele>1901.0</ele>
        <time>2018-07-21T11:47:50Z</time>
      </trkpt>
      <trkpt lat="41.109100" lon="-3.651583">
        <ele>1902.0</ele>
        <time>2018-07-21T11:47:51Z</time>
      </trkpt>
      <trkpt lat="41.109167" lon="-3.651600">
        <ele>1903.0</ele>
        <time>2018-07-21T11:47:52Z</time>
      </trkpt>
      <trkpt lat="41.109200" lon="-3.651617">
        <ele>1906.0</ele>
        <time>2018-07-21T11:47:53Z</time>
      </trkpt>
      <trkpt lat="41.109217" lon="-3.651650">
        <ele>1908.0</ele>
        <time>2018-07-21T11:47:54Z</time>
      </trkpt>
      <trkpt lat="41.109233" lon="-3.651683">
        <ele>1911.0</ele>
        <time>2018-07-21T11:47:55Z</time>
      </trkpt>
      <trkpt lat="41.109217" lon="-3.651717">
        <ele>1912.0</ele>
        <time>2018-07-21T11:47:56Z</time>
      </trkpt>
      <trkpt lat="41.109167" lon="-3.651750">
        <ele>1912.0</ele>
        <time>2018-07-21T11:47:57Z</time>
      </trkpt>
      <trkpt lat="41.109100" lon="-3.651767">
        <ele>1912.0</ele>
        <time>2018-07-21T11:47:58Z</time>
      </trkpt>
      <trkpt lat="41.108983" lon="-3.651750">
        <ele>1911.0</ele>
        <time>2018-07-21T11:47:59Z</time>
      </trkpt>
      <trkpt lat="41.108867" lon="-3.651683">
        <ele>1911.0</ele>
        <time>2018-07-21T11:48:00Z</time>
      </trkpt>
      <trkpt lat="41.108750" lon="-3.651550">
        <ele>1911.0</ele>
        <time>2018-07-21T11:48:01Z</time>
      </trkpt>
      <trkpt lat="41.108650" lon="-3.651367">
        <ele>1911.0</ele>
        <time>2018-07-21T11:48:02Z</time>
      </trkpt>
      <trkpt lat="41.108617" lon="-3.651167">
        <ele>1912.0</ele>
        <time>2018-07-21T11:48:03Z</time>
      </trkpt>
      <trkpt lat="41.108650" lon="-3.650967">
        <ele>1914.0</ele>
        <time>2018-07-21T11:48:04Z</time>
      </trkpt>
      <trkpt lat="41.108700" lon="-3.650850">
        <ele>1917.0</ele>
        <time>2018-07-21T11:48:05Z</time>
      </trkpt>
      <trkpt lat="41.108783" lon="-3.650783">
        <ele>1919.0</ele>
        <time>2018-07-21T11:48:06Z</time>
      </trkpt>
      <trkpt lat="41.108833" lon="-3.650750">
        <ele>1922.0</ele>
        <time>2018-07-21T11:48:07Z</time>
      </trkpt>
      <trkpt lat="41.108883" lon="-3.650717">
        <ele>1924.0</ele>
        <time>2018-07-21T11:48:08Z</time>
      </trkpt>
      <trkpt lat="41.108933" lon="-3.650700">
        <ele>1926.0</ele>
        <time>2018-07-21T11:48:09Z</time>
      </trkpt>
      <trkpt lat="41.108983" lon="-3.650667">
        <ele>1926.0</ele>
        <time>2018-07-21T11:48:10Z</time>
      </trkpt>
      <trkpt lat="41.109033" lon="-3.650667">
        <ele>1926.0</ele>
        <time>2018-07-21T11:48:11Z</time>
      </trkpt>
      <trkpt lat="41.109083" lon="-3.650683">
        <ele>1925.0</ele>
        <time>2018-07-21T11:48:12Z</time>
      </trkpt>
      <trkpt lat="41.109133" lon="-3.650700">
        <ele>1923.0</ele>
        <time>2018-07-21T11:48:13Z</time>
      </trkpt>
      <trkpt lat="41.109183" lon="-3.650733">
        <ele>1922.0</ele>
        <time>2018-07-21T11:48:14Z</time>
      </trkpt>
      <trkpt lat="41.109217" lon="-3.650767">
        <ele>1921.0</ele>
        <time>2018-07-21T11:48:15Z</time>
      </trkpt>
      <trkpt lat="41.109250" lon="-3.650783">
        <ele>1921.0</ele>
        <time>2018-07-21T11:48:16Z</time>
      </trkpt>
      <trkpt lat="41.109300" lon="-3.650800">
        <ele>1920.0</ele>
        <time>2018-07-21T11:48:17Z</time>
      </trkpt>
      <trkpt lat="41.109350" lon="-3.650817">
        <ele>1919.0</ele>
        <time>2018-07-21T11:48:18Z</time>
      </trkpt>
      <trkpt lat="41.109383" lon="-3.650833">
        <ele>1919.0</ele>
        <time>2018-07-21T11:48:19Z</time>
      </trkpt>
      <trkpt lat="41.109433" lon="-3.650850">
        <ele>1918.0</ele>
        <time>2018-07-21T11:48:20Z</time>
      </trkpt>
      <trkpt lat="41.109483" lon="-3.650867">
        <ele>1917.0</ele>
        <time>2018-07-21T11:48:21Z</time>
      </trkpt>
      <trkpt lat="41.109533" lon="-3.650883">
        <ele>1915.0</ele>
        <time>2018-07-21T11:48:22Z</time>
      </trkpt>
      <trkpt lat="41.109583" lon="-3.650883">
        <ele>1914.0</ele>
        <time>2018-07-21T11:48:23Z</time>
      </trkpt>
      <trkpt lat="41.109650" lon="-3.650900">
        <ele>1912.0</ele>
        <time>2018-07-21T11:48:24Z</time>
      </trkpt>
      <trkpt lat="41.109717" lon="-3.650900">
        <ele>1911.0</ele>
        <time>2018-07-21T11:48:25Z</time>
      </trkpt>
      <trkpt lat="41.109783" lon="-3.650900">
        <ele>1910.0</ele>
        <time>2018-07-21T11:48:26Z</time>
      </trkpt>
      <trkpt lat="41.109867" lon="-3.650900">
        <ele>1909.0</ele>
        <time>2018-07-21T11:48:27Z</time>
      </trkpt>
      <trkpt lat="41.109933" lon="-3.650917">
        <ele>1908.0</ele>
        <time>2018-07-21T11:48:28Z</time>
      </trkpt>
      <trkpt lat="41.109983" lon="-3.650933">
        <ele>1907.0</ele>
        <time>2018-07-21T11:48:29Z</time>
      </trkpt>
      <trkpt lat="41.110017" lon="-3.650967">
        <ele>1906.0</ele>
        <time>2018-07-21T11:48:30Z</time>
      </trkpt>
      <trkpt lat="41.110050" lon="-3.651017">
        <ele>1905.0</ele>
        <time>2018-07-21T11:48:31Z</time>
      </trkpt>
      <trkpt lat="41.110100" lon="-3.651033">
        <ele>1904.0</ele>
        <time>2018-07-21T11:48:32Z</time>
      </trkpt>
      <trkpt lat="41.110167" lon="-3.651050">
        <ele>1904.0</ele>
        <time>2018-07-21T11:48:33Z</time>
      </trkpt>
      <trkpt lat="41.110233" lon="-3.651050">
        <ele>1904.0</ele>
        <time>2018-07-21T11:48:34Z</time>
      </trkpt>
      <trkpt lat="41.110283" lon="-3.651067">
        <ele>1904.0</ele>
        <time>2018-07-21T11:48:35Z</time>
      </trkpt>
      <trkpt lat="41.110333" lon="-3.651067">
        <ele>1905.0</ele>
        <time>2018-07-21T11:48:36Z</time>
      </trkpt>
      <trkpt lat="41.110367" lon="-3.651083">
        <ele>1904.0</ele>
        <time>2018-07-21T11:48:37Z</time>
      </trkpt>
      <trkpt lat="41.110433" lon="-3.651083">
        <ele>1903.0</ele>
        <time>2018-07-21T11:48:38Z</time>
      </trkpt>
      <trkpt lat="41.110500" lon="-3.651067">
        <ele>1902.0</ele>
        <time>2018-07-21T11:48:39Z</time>
      </trkpt>
      <trkpt lat="41.110567" lon="-3.651067">
        <ele>1902.0</ele>
        <time>2018-07-21T11:48:40Z</time>
      </trkpt>
      <trkpt lat="41.110650" lon="-3.651067">
        <ele>1901.0</ele>
        <time>2018-07-21T11:48:41Z</time>
      </trkpt>
      <trkpt lat="41.110717" lon="-3.651067">
        <ele>1900.0</ele>
        <time>2018-07-21T11:48:42Z</time>
      </trkpt>
      <trkpt lat="41.110783" lon="-3.651067">
        <ele>1898.0</ele>
        <time>2018-07-21T11:48:43Z</time>
      </trkpt>
      <trkpt lat="41.110867" lon="-3.651050">
        <ele>1897.0</ele>
        <time>2018-07-21T11:48:44Z</time>
      </trkpt>
      <trkpt lat="41.110950" lon="-3.651050">
        <ele>1895.0</ele>
        <time>2018-07-21T11:48:45Z</time>
      </trkpt>
      <trkpt lat="41.111050" lon="-3.651050">
        <ele>1895.0</ele>
        <time>2018-07-21T11:48:46Z</time>
      </trkpt>
      <trkpt lat="41.111133" lon="-3.651050">
        <ele>1896.0</ele>
        <time>2018-07-21T11:48:47Z</time>
      </trkpt>
      <trkpt lat="41.111217" lon="-3.651050">
        <ele>1897.0</ele>
        <time>2018-07-21T11:48:48Z</time>
      </trkpt>
      <trkpt lat="41.111283" lon="-3.651033">
        <ele>1898.0</ele>
        <time>2018-07-21T11:48:49Z</time>
      </trkpt>
      <trkpt lat="41.111367" lon="-3.651033">
        <ele>1899.0</ele>
        <time>2018-07-21T11:48:50Z</time>
      </trkpt>
      <trkpt lat="41.111433" lon="-3.651050">
        <ele>1899.0</ele>
        <time>2018-07-21T11:48:51Z</time>
      </trkpt>
      <trkpt lat="41.111500" lon="-3.651067">
        <ele>1898.0</ele>
        <time>2018-07-21T11:48:52Z</time>
      </trkpt>
      <trkpt lat="41.111567" lon="-3.651067">
        <ele>1898.0</ele>
        <time>2018-07-21T11:48:53Z</time>
      </trkpt>
      <trkpt lat="41.111650" lon="-3.651050">
        <ele>1898.0</ele>
        <time>2018-07-21T11:48:54Z</time>
      </trkpt>
      <trkpt lat="41.111750" lon="-3.651017">
        <ele>1897.0</ele>
        <time>2018-07-21T11:48:55Z</time>
      </trkpt>
      <trkpt lat="41.111833" lon="-3.650967">
        <ele>1897.0</ele>
        <time>2018-07-21T11:48:56Z</time>
      </trkpt>
      <trkpt lat="41.111917" lon="-3.650917">
        <ele>1898.0</ele>
        <time>2018-07-21T11:48:57Z</time>
      </trkpt>
      <trkpt lat="41.112000" lon="-3.650883">
        <ele>1898.0</ele>
        <time>2018-07-21T11:48:58Z</time>
      </trkpt>
      <trkpt lat="41.112067" lon="-3.650867">
        <ele>1899.0</ele>
        <time>2018-07-21T11:48:59Z</time>
      </trkpt>
      <trkpt lat="41.112133" lon="-3.650867">
        <ele>1899.0</ele>
        <time>2018-07-21T11:49:00Z</time>
      </trkpt>
      <trkpt lat="41.112200" lon="-3.650883">
        <ele>1899.0</ele>
        <time>2018-07-21T11:49:01Z</time>
      </trkpt>
      <trkpt lat="41.112250" lon="-3.650900">
        <ele>1899.0</ele>
        <time>2018-07-21T11:49:02Z</time>
      </trkpt>
      <trkpt lat="41.112317" lon="-3.650917">
        <ele>1900.0</ele>
        <time>2018-07-21T11:49:03Z</time>
      </trkpt>
      <trkpt lat="41.112383" lon="-3.650950">
        <ele>1900.0</ele>
        <time>2018-07-21T11:49:04Z</time>
      </trkpt>
      <trkpt lat="41.112450" lon="-3.650950">
        <ele>1901.0</ele>
        <time>2018-07-21T11:49:05Z</time>
      </trkpt>
      <trkpt lat="41.112517" lon="-3.650950">
        <ele>1901.0</ele>
        <time>2018-07-21T11:49:06Z</time>
      </trkpt>
      <trkpt lat="41.112600" lon="-3.650933">
        <ele>1900.0</ele>
        <time>2018-07-21T11:49:07Z</time>
      </trkpt>
      <trkpt lat="41.112683" lon="-3.650917">
        <ele>1900.0</ele>
        <time>2018-07-21T11:49:08Z</time>
      </trkpt>
      <trkpt lat="41.112767" lon="-3.650883">
        <ele>1899.0</ele>
        <time>2018-07-21T11:49:09Z</time>
      </trkpt>
      <trkpt lat="41.112850" lon="-3.650867">
        <ele>1898.0</ele>
        <time>2018-07-21T11:49:10Z</time>
      </trkpt>
      <trkpt lat="41.112950" lon="-3.650850">
        <ele>1897.0</ele>
        <time>2018-07-21T11:49:11Z</time>
      </trkpt>
      <trkpt lat="41.113050" lon="-3.650833">
        <ele>1896.0</ele>
        <time>2018-07-21T11:49:12Z</time>
      </trkpt>
      <trkpt lat="41.113150" lon="-3.650817">
        <ele>1896.0</ele>
        <time>2018-07-21T11:49:13Z</time>
      </trkpt>
      <trkpt lat="41.113233" lon="-3.650800">
        <ele>1896.0</ele>
        <time>2018-07-21T11:49:14Z</time>
      </trkpt>
      <trkpt lat="41.113317" lon="-3.650767">
        <ele>1896.0</ele>
        <time>2018-07-21T11:49:15Z</time>
      </trkpt>
      <trkpt lat="41.113383" lon="-3.650750">
        <ele>1896.0</ele>
        <time>2018-07-21T11:49:16Z</time>
      </trkpt>
      <trkpt lat="41.113450" lon="-3.650717">
        <ele>1897.0</ele>
        <time>2018-07-21T11:49:17Z</time>
      </trkpt>
      <trkpt lat="41.113500" lon="-3.650700">
        <ele>1897.0</ele>
        <time>2018-07-21T11:49:18Z</time>
      </trkpt>
      <trkpt lat="41.113550" lon="-3.650683">
        <ele>1898.0</ele>
        <time>2018-07-21T11:49:19Z</time>
      </trkpt>
      <trkpt lat="41.113600" lon="-3.650667">
        <ele>1899.0</ele>
        <time>2018-07-21T11:49:20Z</time>
      </trkpt>
      <trkpt lat="41.113650" lon="-3.650633">
        <ele>1898.0</ele>
        <time>2018-07-21T11:49:21Z</time>
      </trkpt>
      <trkpt lat="41.113700" lon="-3.650600">
        <ele>1898.0</ele>
        <time>2018-07-21T11:49:22Z</time>
      </trkpt>
      <trkpt lat="41.113750" lon="-3.650583">
        <ele>1896.0</ele>
        <time>2018-07-21T11:49:23Z</time>
      </trkpt>
      <trkpt lat="41.113817" lon="-3.650567">
        <ele>1894.0</ele>
        <time>2018-07-21T11:49:24Z</time>
      </trkpt>
      <trkpt lat="41.113867" lon="-3.650550">
        <ele>1893.0</ele>
        <time>2018-07-21T11:49:25Z</time>
      </trkpt>
      <trkpt lat="41.113933" lon="-3.650517">
        <ele>1893.0</ele>
        <time>2018-07-21T11:49:26Z</time>
      </trkpt>
      <trkpt lat="41.114000" lon="-3.650500">
        <ele>1895.0</ele>
        <time>2018-07-21T11:49:27Z</time>
      </trkpt>
      <trkpt lat="41.114050" lon="-3.650483">
        <ele>1897.0</ele>
        <time>2018-07-21T11:49:28Z</time>
      </trkpt>
      <trkpt lat="41.114100" lon="-3.650483">
        <ele>1900.0</ele>
        <time>2018-07-21T11:49:29Z</time>
      </trkpt>
      <trkpt lat="41.114150" lon="-3.650467">
        <ele>1902.0</ele>
        <time>2018-07-21T11:49:30Z</time>
      </trkpt>
      <trkpt lat="41.114200" lon="-3.650433">
        <ele>1904.0</ele>
        <time>2018-07-21T11:49:31Z</time>
      </trkpt>
      <trkpt lat="41.114267" lon="-3.650400">
        <ele>1904.0</ele>
        <time>2018-07-21T11:49:32Z</time>
      </trkpt>
      <trkpt lat="41.114317" lon="-3.650383">
        <ele>1904.0</ele>
        <time>2018-07-21T11:49:33Z</time>
      </trkpt>
      <trkpt lat="41.114383" lon="-3.650400">
        <ele>1905.0</ele>
        <time>2018-07-21T11:49:34Z</time>
      </trkpt>
      <trkpt lat="41.114433" lon="-3.650450">
        <ele>1906.0</ele>
        <time>2018-07-21T11:49:35Z</time>
      </trkpt>
      <trkpt lat="41.114500" lon="-3.650483">
        <ele>1908.0</ele>
        <time>2018-07-21T11:49:36Z</time>
      </trkpt>
      <trkpt lat="41.114550" lon="-3.650517">
        <ele>1911.0</ele>
        <time>2018-07-21T11:49:37Z</time>
      </trkpt>
      <trkpt lat="41.114583" lon="-3.650517">
        <ele>1913.0</ele>
        <time>2018-07-21T11:49:38Z</time>
      </trkpt>
      <trkpt lat="41.114617" lon="-3.650533">
        <ele>1914.0</ele>
        <time>2018-07-21T11:49:39Z</time>
      </trkpt>
      <trkpt lat="41.114650" lon="-3.650583">
        <ele>1914.0</ele>
        <time>2018-07-21T11:49:40Z</time>
      </trkpt>
      <trkpt lat="41.114650" lon="-3.650650">
        <ele>1912.0</ele>
        <time>2018-07-21T11:49:41Z</time>
      </trkpt>
      <trkpt lat="41.114617" lon="-3.650733">
        <ele>1911.0</ele>
        <time>2018-07-21T11:49:42Z</time>
      </trkpt>
      <trkpt lat="41.114567" lon="-3.650817">
        <ele>1912.0</ele>
        <time>2018-07-21T11:49:43Z</time>
      </trkpt>
      <trkpt lat="41.114483" lon="-3.650867">
        <ele>1914.0</ele>
        <time>2018-07-21T11:49:44Z</time>
      </trkpt>
      <trkpt lat="41.114367" lon="-3.650867">
        <ele>1915.0</ele>
        <time>2018-07-21T11:49:45Z</time>
      </trkpt>
      <trkpt lat="41.114267" lon="-3.650817">
        <ele>1917.0</ele>
        <time>2018-07-21T11:49:46Z</time>
      </trkpt>
      <trkpt lat="41.114167" lon="-3.650717">
        <ele>1917.0</ele>
        <time>2018-07-21T11:49:47Z</time>
      </trkpt>
      <trkpt lat="41.114067" lon="-3.650600">
        <ele>1917.0</ele>
        <time>2018-07-21T11:49:48Z</time>
      </trkpt>
      <trkpt lat="41.113983" lon="-3.650467">
        <ele>1917.0</ele>
        <time>2018-07-21T11:49:49Z</time>
      </trkpt>
      <trkpt lat="41.113933" lon="-3.650300">
        <ele>1918.0</ele>
        <time>2018-07-21T11:49:50Z</time>
      </trkpt>
      <trkpt lat="41.113900" lon="-3.650117">
        <ele>1918.0</ele>
        <time>2018-07-21T11:49:51Z</time>
      </trkpt>
      <trkpt lat="41.113900" lon="-3.649933">
        <ele>1918.0</ele>
        <time>2018-07-21T11:49:52Z</time>
      </trkpt>
      <trkpt lat="41.113933" lon="-3.649767">
        <ele>1918.0</ele>
        <time>2018-07-21T11:49:53Z</time>
      </trkpt>
      <trkpt lat="41.114000" lon="-3.649617">
        <ele>1919.0</ele>
        <time>2018-07-21T11:49:54Z</time>
      </trkpt>
      <trkpt lat="41.114067" lon="-3.649533">
        <ele>1921.0</ele>
        <time>2018-07-21T11:49:55Z</time>
      </trkpt>
      <trkpt lat="41.114117" lon="-3.649467">
        <ele>1923.0</ele>
        <time>2018-07-21T11:49:56Z</time>
      </trkpt>
      <trkpt lat="41.114167" lon="-3.649450">
        <ele>1924.0</ele>
        <time>2018-07-21T11:49:57Z</time>
      </trkpt>
      <trkpt lat="41.114217" lon="-3.649433">
        <ele>1925.0</ele>
        <time>2018-07-21T11:49:58Z</time>
      </trkpt>
      <trkpt lat="41.114267" lon="-3.649433">
        <ele>1925.0</ele>
        <time>2018-07-21T11:49:59Z</time>
      </trkpt>
      <trkpt lat="41.114317" lon="-3.649433">
        <ele>1926.0</ele>
        <time>2018-07-21T11:50:00Z</time>
      </trkpt>
      <trkpt lat="41.114367" lon="-3.649450">
        <ele>1926.0</ele>
        <time>2018-07-21T11:50:01Z</time>
      </trkpt>
      <trkpt lat="41.114417" lon="-3.649467">
        <ele>1927.0</ele>
        <time>2018-07-21T11:50:02Z</time>
      </trkpt>
      <trkpt lat="41.114450" lon="-3.649483">
        <ele>1927.0</ele>
        <time>2018-07-21T11:50:03Z</time>
      </trkpt>
      <trkpt lat="41.114500" lon="-3.649500">
        <ele>1926.0</ele>
        <time>2018-07-21T11:50:04Z</time>
      </trkpt>
      <trkpt lat="41.114567" lon="-3.649517">
        <ele>1926.0</ele>
        <time>2018-07-21T11:50:05Z</time>
      </trkpt>
      <trkpt lat="41.114633" lon="-3.649517">
        <ele>1927.0</ele>
        <time>2018-07-21T11:50:06Z</time>
      </trkpt>
      <trkpt lat="41.114700" lon="-3.649533">
        <ele>1928.0</ele>
        <time>2018-07-21T11:50:07Z</time>
      </trkpt>
      <trkpt lat="41.114750" lon="-3.649550">
        <ele>1928.0</ele>
        <time>2018-07-21T11:50:08Z</time>
      </trkpt>
      <trkpt lat="41.114817" lon="-3.649550">
        <ele>1929.0</ele>
        <time>2018-07-21T11:50:09Z</time>
      </trkpt>
      <trkpt lat="41.114867" lon="-3.649533">
        <ele>1927.0</ele>
        <time>2018-07-21T11:50:10Z</time>
      </trkpt>
      <trkpt lat="41.114933" lon="-3.649517">
        <ele>1926.0</ele>
        <time>2018-07-21T11:50:11Z</time>
      </trkpt>
      <trkpt lat="41.115000" lon="-3.649483">
        <ele>1924.0</ele>
        <time>2018-07-21T11:50:12Z</time>
      </trkpt>
      <trkpt lat="41.115067" lon="-3.649467">
        <ele>1922.0</ele>
        <time>2018-07-21T11:50:13Z</time>
      </trkpt>
      <trkpt lat="41.115133" lon="-3.649467">
        <ele>1921.0</ele>
        <time>2018-07-21T11:50:14Z</time>
      </trkpt>
      <trkpt lat="41.115200" lon="-3.649467">
        <ele>1921.0</ele>
        <time>2018-07-21T11:50:15Z</time>
      </trkpt>
      <trkpt lat="41.115283" lon="-3.649450">
        <ele>1920.0</ele>
        <time>2018-07-21T11:50:16Z</time>
      </trkpt>
      <trkpt lat="41.115350" lon="-3.649417">
        <ele>1918.0</ele>
        <time>2018-07-21T11:50:17Z</time>
      </trkpt>
      <trkpt lat="41.115417" lon="-3.649383">
        <ele>1917.0</ele>
        <time>2018-07-21T11:50:18Z</time>
      </trkpt>
      <trkpt lat="41.115467" lon="-3.649367">
        <ele>1916.0</ele>
        <time>2018-07-21T11:50:19Z</time>
      </trkpt>
      <trkpt lat="41.115533" lon="-3.649333">
        <ele>1915.0</ele>
        <time>2018-07-21T11:50:20Z</time>
      </trkpt>
      <trkpt lat="41.115600" lon="-3.649300">
        <ele>1913.0</ele>
        <time>2018-07-21T11:50:21Z</time>
      </trkpt>
      <trkpt lat="41.115667" lon="-3.649267">
        <ele>1913.0</ele>
        <time>2018-07-21T11:50:22Z</time>
      </trkpt>
      <trkpt lat="41.115733" lon="-3.649233">
        <ele>1912.0</ele>
        <time>2018-07-21T11:50:23Z</time>
      </trkpt>
      <trkpt lat="41.115783" lon="-3.649200">
        <ele>1912.0</ele>
        <time>2018-07-21T11:50:24Z</time>
      </trkpt>
      <trkpt lat="41.115833" lon="-3.649167">
        <ele>1912.0</ele>
        <time>2018-07-21T11:50:25Z</time>
      </trkpt>
      <trkpt lat="41.115883" lon="-3.649167">
        <ele>1911.0</ele>
        <time>2018-07-21T11:50:26Z</time>
      </trkpt>
      <trkpt lat="41.115950" lon="-3.649150">
        <ele>1910.0</ele>
        <time>2018-07-21T11:50:27Z</time>
      </trkpt>
      <trkpt lat="41.116000" lon="-3.649150">
        <ele>1909.0</ele>
        <time>2018-07-21T11:50:28Z</time>
      </trkpt>
      <trkpt lat="41.116067" lon="-3.649133">
        <ele>1908.0</ele>
        <time>2018-07-21T11:50:29Z</time>
      </trkpt>
      <trkpt lat="41.116133" lon="-3.649117">
        <ele>1907.0</ele>
        <time>2018-07-21T11:50:30Z</time>
      </trkpt>
      <trkpt lat="41.116217" lon="-3.649100">
        <ele>1907.0</ele>
        <time>2018-07-21T11:50:31Z</time>
      </trkpt>
      <trkpt lat="41.116283" lon="-3.649067">
        <ele>1906.0</ele>
        <time>2018-07-21T11:50:32Z</time>
      </trkpt>
      <trkpt lat="41.116350" lon="-3.649033">
        <ele>1906.0</ele>
        <time>2018-07-21T11:50:33Z</time>
      </trkpt>
      <trkpt lat="41.116417" lon="-3.649000">
        <ele>1905.0</ele>
        <time>2018-07-21T11:50:34Z</time>
      </trkpt>
      <trkpt lat="41.116483" lon="-3.648967">
        <ele>1904.0</ele>
        <time>2018-07-21T11:50:35Z</time>
      </trkpt>
      <trkpt lat="41.116550" lon="-3.648917">
        <ele>1903.0</ele>
        <time>2018-07-21T11:50:36Z</time>
      </trkpt>
      <trkpt lat="41.116617" lon="-3.648883">
        <ele>1901.0</ele>
        <time>2018-07-21T11:50:37Z</time>
      </trkpt>
      <trkpt lat="41.116683" lon="-3.648867">
        <ele>1901.0</ele>
        <time>2018-07-21T11:50:38Z</time>
      </trkpt>
      <trkpt lat="41.116750" lon="-3.648867">
        <ele>1900.0</ele>
        <time>2018-07-21T11:50:39Z</time>
      </trkpt>
      <trkpt lat="41.116800" lon="-3.648867">
        <ele>1899.0</ele>
        <time>2018-07-21T11:50:40Z</time>
      </trkpt>
      <trkpt lat="41.116850" lon="-3.648883">
        <ele>1899.0</ele>
        <time>2018-07-21T11:50:41Z</time>
      </trkpt>
      <trkpt lat="41.116900" lon="-3.648867">
        <ele>1898.0</ele>
        <time>2018-07-21T11:50:42Z</time>
      </trkpt>
      <trkpt lat="41.116967" lon="-3.648850">
        <ele>1896.0</ele>
        <time>2018-07-21T11:50:43Z</time>
      </trkpt>
      <trkpt lat="41.117033" lon="-3.648833">
        <ele>1894.0</ele>
        <time>2018-07-21T11:50:44Z</time>
      </trkpt>
      <trkpt lat="41.117100" lon="-3.648833">
        <ele>1893.0</ele>
        <time>2018-07-21T11:50:45Z</time>
      </trkpt>
      <trkpt lat="41.117167" lon="-3.648833">
        <ele>1891.0</ele>
        <time>2018-07-21T11:50:46Z</time>
      </trkpt>
      <trkpt lat="41.117217" lon="-3.648833">
        <ele>1890.0</ele>
        <time>2018-07-21T11:50:47Z</time>
      </trkpt>
      <trkpt lat="41.117283" lon="-3.648817">
        <ele>1888.0</ele>
        <time>2018-07-21T11:50:48Z</time>
      </trkpt>
      <trkpt lat="41.117333" lon="-3.648800">
        <ele>1885.0</ele>
        <time>2018-07-21T11:50:49Z</time>
      </trkpt>
      <trkpt lat="41.117383" lon="-3.648783">
        <ele>1883.0</ele>
        <time>2018-07-21T11:50:50Z</time>
      </trkpt>
      <trkpt lat="41.117433" lon="-3.648767">
        <ele>1880.0</ele>
        <time>2018-07-21T11:50:51Z</time>
      </trkpt>
      <trkpt lat="41.117500" lon="-3.648767">
        <ele>1877.0</ele>
        <time>2018-07-21T11:50:52Z</time>
      </trkpt>
      <trkpt lat="41.117567" lon="-3.648767">
        <ele>1875.0</ele>
        <time>2018-07-21T11:50:53Z</time>
      </trkpt>
      <trkpt lat="41.117617" lon="-3.648767">
        <ele>1874.0</ele>
        <time>2018-07-21T11:50:54Z</time>
      </trkpt>
      <trkpt lat="41.117683" lon="-3.648750">
        <ele>1873.0</ele>
        <time>2018-07-21T11:50:55Z</time>
      </trkpt>
      <trkpt lat="41.117750" lon="-3.648733">
        <ele>1872.0</ele>
        <time>2018-07-21T11:50:56Z</time>
      </trkpt>
      <trkpt lat="41.117817" lon="-3.648683">
        <ele>1870.0</ele>
        <time>2018-07-21T11:50:57Z</time>
      </trkpt>
      <trkpt lat="41.117900" lon="-3.648633">
        <ele>1868.0</ele>
        <time>2018-07-21T11:50:58Z</time>
      </trkpt>
      <trkpt lat="41.117967" lon="-3.648583">
        <ele>1868.0</ele>
        <time>2018-07-21T11:50:59Z</time>
      </trkpt>
      <trkpt lat="41.118050" lon="-3.648533">
        <ele>1867.0</ele>
        <time>2018-07-21T11:51:00Z</time>
      </trkpt>
      <trkpt lat="41.118117" lon="-3.648517">
        <ele>1867.0</ele>
        <time>2018-07-21T11:51:01Z</time>
      </trkpt>
      <trkpt lat="41.118200" lon="-3.648483">
        <ele>1866.0</ele>
        <time>2018-07-21T11:51:02Z</time>
      </trkpt>
      <trkpt lat="41.118267" lon="-3.648467">
        <ele>1865.0</ele>
        <time>2018-07-21T11:51:03Z</time>
      </trkpt>
      <trkpt lat="41.118350" lon="-3.648433">
        <ele>1864.0</ele>
        <time>2018-07-21T11:51:04Z</time>
      </trkpt>
      <trkpt lat="41.118433" lon="-3.648417">
        <ele>1864.0</ele>
        <time>2018-07-21T11:51:05Z</time>
      </trkpt>
      <trkpt lat="41.118500" lon="-3.648383">
        <ele>1864.0</ele>
        <time>2018-07-21T11:51:06Z</time>
      </trkpt>
      <trkpt lat="41.118567" lon="-3.648367">
        <ele>1864.0</ele>
        <time>2018-07-21T11:51:07Z</time>
      </trkpt>
      <trkpt lat="41.118633" lon="-3.648367">
        <ele>1863.0</ele>
        <time>2018-07-21T11:51:08Z</time>
      </trkpt>
      <trkpt lat="41.118700" lon="-3.648350">
        <ele>1861.0</ele>
        <time>2018-07-21T11:51:09Z</time>
      </trkpt>
      <trkpt lat="41.118783" lon="-3.648333">
        <ele>1860.0</ele>
        <time>2018-07-21T11:51:10Z</time>
      </trkpt>
      <trkpt lat="41.118867" lon="-3.648317">
        <ele>1859.0</ele>
        <time>2018-07-21T11:51:11Z</time>
      </trkpt>
      <trkpt lat="41.118933" lon="-3.648283">
        <ele>1859.0</ele>
        <time>2018-07-21T11:51:12Z</time>
      </trkpt>
      <trkpt lat="41.119017" lon="-3.648267">
        <ele>1860.0</ele>
        <time>2018-07-21T11:51:13Z</time>
      </trkpt>
      <trkpt lat="41.119100" lon="-3.648267">
        <ele>1861.0</ele>
        <time>2018-07-21T11:51:14Z</time>
      </trkpt>
      <trkpt lat="41.119167" lon="-3.648267">
        <ele>1862.0</ele>
        <time>2018-07-21T11:51:15Z</time>
      </trkpt>
      <trkpt lat="41.119217" lon="-3.648250">
        <ele>1864.0</ele>
        <time>2018-07-21T11:51:16Z</time>
      </trkpt>
      <trkpt lat="41.119283" lon="-3.648233">
        <ele>1865.0</ele>
        <time>2018-07-21T11:51:17Z</time>
      </trkpt>
      <trkpt lat="41.119333" lon="-3.648200">
        <ele>1864.0</ele>
        <time>2018-07-21T11:51:18Z</time>
      </trkpt>
      <trkpt lat="41.119400" lon="-3.648167">
        <ele>1863.0</ele>
        <time>2018-07-21T11:51:19Z</time>
      </trkpt>
      <trkpt lat="41.119467" lon="-3.648167">
        <ele>1862.0</ele>
        <time>2018-07-21T11:51:20Z</time>
      </trkpt>
      <trkpt lat="41.119517" lon="-3.648183">
        <ele>1861.0</ele>
        <time>2018-07-21T11:51:21Z</time>
      </trkpt>
      <trkpt lat="41.119583" lon="-3.648217">
        <ele>1861.0</ele>
        <time>2018-07-21T11:51:22Z</time>
      </trkpt>
      <trkpt lat="41.119633" lon="-3.648233">
        <ele>1861.0</ele>
        <time>2018-07-21T11:51:23Z</time>
      </trkpt>
      <trkpt lat="41.119700" lon="-3.648233">
        <ele>1861.0</ele>
        <time>2018-07-21T11:51:24Z</time>
      </trkpt>
      <trkpt lat="41.119783" lon="-3.648217">
        <ele>1861.0</ele>
        <time>2018-07-21T11:51:25Z</time>
      </trkpt>
      <trkpt lat="41.119850" lon="-3.648167">
        <ele>1862.0</ele>
        <time>2018-07-21T11:51:26Z</time>
      </trkpt>
      <trkpt lat="41.119900" lon="-3.648133">
        <ele>1864.0</ele>
        <time>2018-07-21T11:51:27Z</time>
      </trkpt>
      <trkpt lat="41.119950" lon="-3.648100">
        <ele>1865.0</ele>
        <time>2018-07-21T11:51:28Z</time>
      </trkpt>
      <trkpt lat="41.120000" lon="-3.648067">
        <ele>1864.0</ele>
        <time>2018-07-21T11:51:29Z</time>
      </trkpt>
      <trkpt lat="41.120050" lon="-3.648050">
        <ele>1862.0</ele>
        <time>2018-07-21T11:51:30Z</time>
      </trkpt>
      <trkpt lat="41.120117" lon="-3.648017">
        <ele>1860.0</ele>
        <time>2018-07-21T11:51:31Z</time>
      </trkpt>
      <trkpt lat="41.120183" lon="-3.647983">
        <ele>1859.0</ele>
        <time>2018-07-21T11:51:32Z</time>
      </trkpt>
      <trkpt lat="41.120250" lon="-3.647967">
        <ele>1858.0</ele>
        <time>2018-07-21T11:51:33Z</time>
      </trkpt>
      <trkpt lat="41.120300" lon="-3.647933">
        <ele>1856.0</ele>
        <time>2018-07-21T11:51:34Z</time>
      </trkpt>
      <trkpt lat="41.120367" lon="-3.647900">
        <ele>1855.0</ele>
        <time>2018-07-21T11:51:35Z</time>
      </trkpt>
      <trkpt lat="41.120433" lon="-3.647867">
        <ele>1853.0</ele>
        <time>2018-07-21T11:51:36Z</time>
      </trkpt>
      <trkpt lat="41.120517" lon="-3.647800">
        <ele>1852.0</ele>
        <time>2018-07-21T11:51:37Z</time>
      </trkpt>
      <trkpt lat="41.120583" lon="-3.647733">
        <ele>1851.0</ele>
        <time>2018-07-21T11:51:38Z</time>
      </trkpt>
      <trkpt lat="41.120650" lon="-3.647667">
        <ele>1850.0</ele>
        <time>2018-07-21T11:51:39Z</time>
      </trkpt>
      <trkpt lat="41.120717" lon="-3.647583">
        <ele>1850.0</ele>
        <time>2018-07-21T11:51:40Z</time>
      </trkpt>
      <trkpt lat="41.120783" lon="-3.647517">
        <ele>1849.0</ele>
        <time>2018-07-21T11:51:41Z</time>
      </trkpt>
      <trkpt lat="41.120850" lon="-3.647450">
        <ele>1849.0</ele>
        <time>2018-07-21T11:51:42Z</time>
      </trkpt>
      <trkpt lat="41.120917" lon="-3.647383">
        <ele>1849.0</ele>
        <time>2018-07-21T11:51:43Z</time>
      </trkpt>
      <trkpt lat="41.120967" lon="-3.647317">
        <ele>1849.0</ele>
        <time>2018-07-21T11:51:44Z</time>
      </trkpt>
      <trkpt lat="41.121017" lon="-3.647233">
        <ele>1849.0</ele>
        <time>2018-07-21T11:51:45Z</time>
      </trkpt>
      <trkpt lat="41.121083" lon="-3.647167">
        <ele>1848.0</ele>
        <time>2018-07-21T11:51:46Z</time>
      </trkpt>
      <trkpt lat="41.121150" lon="-3.647083">
        <ele>1848.0</ele>
        <time>2018-07-21T11:51:47Z</time>
      </trkpt>
      <trkpt lat="41.121217" lon="-3.647017">
        <ele>1847.0</ele>
        <time>2018-07-21T11:51:48Z</time>
      </trkpt>
      <trkpt lat="41.121283" lon="-3.646967">
        <ele>1847.0</ele>
        <time>2018-07-21T11:51:49Z</time>
      </trkpt>
      <trkpt lat="41.121367" lon="-3.646900">
        <ele>1847.0</ele>
        <time>2018-07-21T11:51:50Z</time>
      </trkpt>
      <trkpt lat="41.121433" lon="-3.646850">
        <ele>1848.0</ele>
        <time>2018-07-21T11:51:51Z</time>
      </trkpt>
      <trkpt lat="41.121517" lon="-3.646783">
        <ele>1848.0</ele>
        <time>2018-07-21T11:51:52Z</time>
      </trkpt>
      <trkpt lat="41.121583" lon="-3.646733">
        <ele>1848.0</ele>
        <time>2018-07-21T11:51:53Z</time>
      </trkpt>
      <trkpt lat="41.121650" lon="-3.646667">
        <ele>1848.0</ele>
        <time>2018-07-21T11:51:54Z</time>
      </trkpt>
      <trkpt lat="41.121717" lon="-3.646600">
        <ele>1848.0</ele>
        <time>2018-07-21T11:51:55Z</time>
      </trkpt>
      <trkpt lat="41.121783" lon="-3.646533">
        <ele>1847.0</ele>
        <time>2018-07-21T11:51:56Z</time>
      </trkpt>
      <trkpt lat="41.121867" lon="-3.646467">
        <ele>1846.0</ele>
        <time>2018-07-21T11:51:57Z</time>
      </trkpt>
      <trkpt lat="41.121950" lon="-3.646400">
        <ele>1845.0</ele>
        <time>2018-07-21T11:51:58Z</time>
      </trkpt>
      <trkpt lat="41.122033" lon="-3.646350">
        <ele>1845.0</ele>
        <time>2018-07-21T11:51:59Z</time>
      </trkpt>
      <trkpt lat="41.122133" lon="-3.646283">
        <ele>1845.0</ele>
        <time>2018-07-21T11:52:00Z</time>
      </trkpt>
      <trkpt lat="41.122217" lon="-3.646217">
        <ele>1845.0</ele>
        <time>2018-07-21T11:52:01Z</time>
      </trkpt>
      <trkpt lat="41.122300" lon="-3.646150">
        <ele>1845.0</ele>
        <time>2018-07-21T11:52:02Z</time>
      </trkpt>
      <trkpt lat="41.122383" lon="-3.646083">
        <ele>1845.0</ele>
        <time>2018-07-21T11:52:03Z</time>
      </trkpt>
      <trkpt lat="41.122450" lon="-3.646000">
        <ele>1844.0</ele>
        <time>2018-07-21T11:52:04Z</time>
      </trkpt>
      <trkpt lat="41.122533" lon="-3.645900">
        <ele>1845.0</ele>
        <time>2018-07-21T11:52:05Z</time>
      </trkpt>
      <trkpt lat="41.122600" lon="-3.645817">
        <ele>1845.0</ele>
        <time>2018-07-21T11:52:06Z</time>
      </trkpt>
      <trkpt lat="41.122683" lon="-3.645717">
        <ele>1845.0</ele>
        <time>2018-07-21T11:52:07Z</time>
      </trkpt>
      <trkpt lat="41.122767" lon="-3.645633">
        <ele>1844.0</ele>
        <time>2018-07-21T11:52:08Z</time>
      </trkpt>
      <trkpt lat="41.122850" lon="-3.645550">
        <ele>1843.0</ele>
        <time>2018-07-21T11:52:09Z</time>
      </trkpt>
      <trkpt lat="41.122917" lon="-3.645450">
        <ele>1842.0</ele>
        <time>2018-07-21T11:52:10Z</time>
      </trkpt>
      <trkpt lat="41.123000" lon="-3.645333">
        <ele>1841.0</ele>
        <time>2018-07-21T11:52:11Z</time>
      </trkpt>
      <trkpt lat="41.123067" lon="-3.645217">
        <ele>1840.0</ele>
        <time>2018-07-21T11:52:12Z</time>
      </trkpt>
      <trkpt lat="41.123150" lon="-3.645083">
        <ele>1838.0</ele>
        <time>2018-07-21T11:52:13Z</time>
      </trkpt>
      <trkpt lat="41.123233" lon="-3.644950">
        <ele>1838.0</ele>
        <time>2018-07-21T11:52:14Z</time>
      </trkpt>
      <trkpt lat="41.123317" lon="-3.644817">
        <ele>1840.0</ele>
        <time>2018-07-21T11:52:15Z</time>
      </trkpt>
      <trkpt lat="41.123383" lon="-3.644700">
        <ele>1842.0</ele>
        <time>2018-07-21T11:52:16Z</time>
      </trkpt>
      <trkpt lat="41.123467" lon="-3.644617">
        <ele>1845.0</ele>
        <time>2018-07-21T11:52:17Z</time>
      </trkpt>
      <trkpt lat="41.123533" lon="-3.644500">
        <ele>1847.0</ele>
        <time>2018-07-21T11:52:18Z</time>
      </trkpt>
      <trkpt lat="41.123617" lon="-3.644400">
        <ele>1848.0</ele>
        <time>2018-07-21T11:52:19Z</time>
      </trkpt>
      <trkpt lat="41.123683" lon="-3.644267">
        <ele>1850.0</ele>
        <time>2018-07-21T11:52:20Z</time>
      </trkpt>
      <trkpt lat="41.123767" lon="-3.644167">
        <ele>1851.0</ele>
        <time>2018-07-21T11:52:21Z</time>
      </trkpt>
      <trkpt lat="41.123867" lon="-3.644083">
        <ele>1853.0</ele>
        <time>2018-07-21T11:52:22Z</time>
      </trkpt>
      <trkpt lat="41.123933" lon="-3.644033">
        <ele>1854.0</ele>
        <time>2018-07-21T11:52:23Z</time>
      </trkpt>
      <trkpt lat="41.124000" lon="-3.644033">
        <ele>1856.0</ele>
        <time>2018-07-21T11:52:24Z</time>
      </trkpt>
      <trkpt lat="41.124067" lon="-3.644067">
        <ele>1858.0</ele>
        <time>2018-07-21T11:52:25Z</time>
      </trkpt>
      <trkpt lat="41.124100" lon="-3.644117">
        <ele>1860.0</ele>
        <time>2018-07-21T11:52:26Z</time>
      </trkpt>
      <trkpt lat="41.124100" lon="-3.644183">
        <ele>1862.0</ele>
        <time>2018-07-21T11:52:27Z</time>
      </trkpt>
      <trkpt lat="41.124050" lon="-3.644250">
        <ele>1865.0</ele>
        <time>2018-07-21T11:52:28Z</time>
      </trkpt>
      <trkpt lat="41.123983" lon="-3.644300">
        <ele>1867.0</ele>
        <time>2018-07-21T11:52:29Z</time>
      </trkpt>
      <trkpt lat="41.123867" lon="-3.644300">
        <ele>1870.0</ele>
        <time>2018-07-21T11:52:30Z</time>
      </trkpt>
      <trkpt lat="41.123750" lon="-3.644233">
        <ele>1872.0</ele>
        <time>2018-07-21T11:52:31Z</time>
      </trkpt>
      <trkpt lat="41.123650" lon="-3.644100">
        <ele>1872.0</ele>
        <time>2018-07-21T11:52:32Z</time>
      </trkpt>
      <trkpt lat="41.123583" lon="-3.643917">
        <ele>1872.0</ele>
        <time>2018-07-21T11:52:33Z</time>
      </trkpt>
      <trkpt lat="41.123533" lon="-3.643717">
        <ele>1873.0</ele>
        <time>2018-07-21T11:52:34Z</time>
      </trkpt>
      <trkpt lat="41.123550" lon="-3.643517">
        <ele>1874.0</ele>
        <time>2018-07-21T11:52:35Z</time>
      </trkpt>
      <trkpt lat="41.123600" lon="-3.643333">
        <ele>1875.0</ele>
        <time>2018-07-21T11:52:36Z</time>
      </trkpt>
      <trkpt lat="41.123667" lon="-3.643167">
        <ele>1876.0</ele>
        <time>2018-07-21T11:52:37Z</time>
      </trkpt>
      <trkpt lat="41.123750" lon="-3.643033">
        <ele>1879.0</ele>
        <time>2018-07-21T11:52:38Z</time>
      </trkpt>
      <trkpt lat="41.123817" lon="-3.642933">
        <ele>1882.0</ele>
        <time>2018-07-21T11:52:39Z</time>
      </trkpt>
      <trkpt lat="41.123883" lon="-3.642850">
        <ele>1886.0</ele>
        <time>2018-07-21T11:52:40Z</time>
      </trkpt>
      <trkpt lat="41.123933" lon="-3.642767">
        <ele>1888.0</ele>
        <time>2018-07-21T11:52:41Z</time>
      </trkpt>
      <trkpt lat="41.123983" lon="-3.642717">
        <ele>1890.0</ele>
        <time>2018-07-21T11:52:42Z</time>
      </trkpt>
      <trkpt lat="41.124033" lon="-3.642667">
        <ele>1891.0</ele>
        <time>2018-07-21T11:52:43Z</time>
      </trkpt>
      <trkpt lat="41.124067" lon="-3.642667">
        <ele>1891.0</ele>
        <time>2018-07-21T11:52:44Z</time>
      </trkpt>
      <trkpt lat="41.124100" lon="-3.642700">
        <ele>1890.0</ele>
        <time>2018-07-21T11:52:45Z</time>
      </trkpt>
      <trkpt lat="41.124100" lon="-3.642750">
        <ele>1890.0</ele>
        <time>2018-07-21T11:52:46Z</time>
      </trkpt>
      <trkpt lat="41.124050" lon="-3.642817">
        <ele>1890.0</ele>
        <time>2018-07-21T11:52:47Z</time>
      </trkpt>
      <trkpt lat="41.123967" lon="-3.642867">
        <ele>1891.0</ele>
        <time>2018-07-21T11:52:48Z</time>
      </trkpt>
      <trkpt lat="41.123867" lon="-3.642867">
        <ele>1894.0</ele>
        <time>2018-07-21T11:52:49Z</time>
      </trkpt>
      <trkpt lat="41.123750" lon="-3.642817">
        <ele>1898.0</ele>
        <time>2018-07-21T11:52:50Z</time>
      </trkpt>
      <trkpt lat="41.123667" lon="-3.642733">
        <ele>1902.0</ele>
        <time>2018-07-21T11:52:51Z</time>
      </trkpt>
      <trkpt lat="41.123583" lon="-3.642617">
        <ele>1904.0</ele>
        <time>2018-07-21T11:52:52Z</time>
      </trkpt>
      <trkpt lat="41.123500" lon="-3.642483">
        <ele>1906.0</ele>
        <time>2018-07-21T11:52:53Z</time>
      </trkpt>
      <trkpt lat="41.123433" lon="-3.642317">
        <ele>1906.0</ele>
        <time>2018-07-21T11:52:54Z</time>
      </trkpt>
      <trkpt lat="41.123367" lon="-3.642150">
        <ele>1907.0</ele>
        <time>2018-07-21T11:52:55Z</time>
      </trkpt>
      <trkpt lat="41.123350" lon="-3.641967">
        <ele>1907.0</ele>
        <time>2018-07-21T11:52:56Z</time>
      </trkpt>
      <trkpt lat="41.123367" lon="-3.641800">
        <ele>1906.0</ele>
        <time>2018-07-21T11:52:57Z</time>
      </trkpt>
      <trkpt lat="41.123417" lon="-3.641650">
        <ele>1905.0</ele>
        <time>2018-07-21T11:52:58Z</time>
      </trkpt>
      <trkpt lat="41.123483" lon="-3.641550">
        <ele>1905.0</ele>
        <time>2018-07-21T11:52:59Z</time>
      </trkpt>
      <trkpt lat="41.123550" lon="-3.641517">
        <ele>1905.0</ele>
        <time>2018-07-21T11:53:00Z</time>
      </trkpt>
      <trkpt lat="41.123600" lon="-3.641517">
        <ele>1905.0</ele>
        <time>2018-07-21T11:53:01Z</time>
      </trkpt>
      <trkpt lat="41.123633" lon="-3.641550">
        <ele>1905.0</ele>
        <time>2018-07-21T11:53:02Z</time>
      </trkpt>
      <trkpt lat="41.123633" lon="-3.641583">
        <ele>1906.0</ele>
        <time>2018-07-21T11:53:03Z</time>
      </trkpt>
      <trkpt lat="41.123633" lon="-3.641617">
        <ele>1906.0</ele>
        <time>2018-07-21T11:53:04Z</time>
      </trkpt>
      <trkpt lat="41.123650" lon="-3.641650">
        <ele>1907.0</ele>
        <time>2018-07-21T11:53:05Z</time>
      </trkpt>
      <trkpt lat="41.123650" lon="-3.641700">
        <ele>1908.0</ele>
        <time>2018-07-21T11:53:06Z</time>
      </trkpt>
      <trkpt lat="41.123650" lon="-3.641750">
        <ele>1909.0</ele>
        <time>2018-07-21T11:53:07Z</time>
      </trkpt>
      <trkpt lat="41.123667" lon="-3.641800">
        <ele>1910.0</ele>
        <time>2018-07-21T11:53:08Z</time>
      </trkpt>
      <trkpt lat="41.123667" lon="-3.641850">
        <ele>1911.0</ele>
        <time>2018-07-21T11:53:09Z</time>
      </trkpt>
      <trkpt lat="41.123683" lon="-3.641900">
        <ele>1912.0</ele>
        <time>2018-07-21T11:53:10Z</time>
      </trkpt>
      <trkpt lat="41.123683" lon="-3.641950">
        <ele>1913.0</ele>
        <time>2018-07-21T11:53:11Z</time>
      </trkpt>
      <trkpt lat="41.123683" lon="-3.642000">
        <ele>1915.0</ele>
        <time>2018-07-21T11:53:12Z</time>
      </trkpt>
      <trkpt lat="41.123650" lon="-3.642050">
        <ele>1917.0</ele>
        <time>2018-07-21T11:53:13Z</time>
      </trkpt>
      <trkpt lat="41.123633" lon="-3.642100">
        <ele>1918.0</ele>
        <time>2018-07-21T11:53:14Z</time>
      </trkpt>
      <trkpt lat="41.123617" lon="-3.642133">
        <ele>1920.0</ele>
        <time>2018-07-21T11:53:15Z</time>
      </trkpt>
      <trkpt lat="41.123600" lon="-3.642183">
        <ele>1921.0</ele>
        <time>2018-07-21T11:53:16Z</time>
      </trkpt>
      <trkpt lat="41.123583" lon="-3.642233">
        <ele>1922.0</ele>
        <time>2018-07-21T11:53:17Z</time>
      </trkpt>
      <trkpt lat="41.123567" lon="-3.642267">
        <ele>1923.0</ele>
        <time>2018-07-21T11:53:18Z</time>
      </trkpt>
      <trkpt lat="41.123550" lon="-3.642317">
        <ele>1925.0</ele>
        <time>2018-07-21T11:53:19Z</time>
      </trkpt>
      <trkpt lat="41.123550" lon="-3.642350">
        <ele>1927.0</ele>
        <time>2018-07-21T11:53:20Z</time>
      </trkpt>
      <trkpt lat="41.123517" lon="-3.642400">
        <ele>1929.0</ele>
        <time>2018-07-21T11:53:21Z</time>
      </trkpt>
      <trkpt lat="41.123467" lon="-3.642433">
        <ele>1929.0</ele>
        <time>2018-07-21T11:53:22Z</time>
      </trkpt>
      <trkpt lat="41.123400" lon="-3.642467">
        <ele>1929.0</ele>
        <time>2018-07-21T11:53:23Z</time>
      </trkpt>
      <trkpt lat="41.123317" lon="-3.642500">
        <ele>1929.0</ele>
        <time>2018-07-21T11:53:24Z</time>
      </trkpt>
      <trkpt lat="41.123250" lon="-3.642533">
        <ele>1929.0</ele>
        <time>2018-07-21T11:53:25Z</time>
      </trkpt>
      <trkpt lat="41.123200" lon="-3.642567">
        <ele>1930.0</ele>
        <time>2018-07-21T11:53:26Z</time>
      </trkpt>
      <trkpt lat="41.123150" lon="-3.642600">
        <ele>1931.0</ele>
        <time>2018-07-21T11:53:27Z</time>
      </trkpt>
      <trkpt lat="41.123133" lon="-3.642650">
        <ele>1930.0</ele>
        <time>2018-07-21T11:53:28Z</time>
      </trkpt>
      <trkpt lat="41.123100" lon="-3.642700">
        <ele>1930.0</ele>
        <time>2018-07-21T11:53:29Z</time>
      </trkpt>
      <trkpt lat="41.123067" lon="-3.642750">
        <ele>1928.0</ele>
        <time>2018-07-21T11:53:30Z</time>
      </trkpt>
      <trkpt lat="41.123033" lon="-3.642817">
        <ele>1928.0</ele>
        <time>2018-07-21T11:53:31Z</time>
      </trkpt>
      <trkpt lat="41.123000" lon="-3.642883">
        <ele>1927.0</ele>
        <time>2018-07-21T11:53:32Z</time>
      </trkpt>
      <trkpt lat="41.122983" lon="-3.642950">
        <ele>1927.0</ele>
        <time>2018-07-21T11:53:33Z</time>
      </trkpt>
      <trkpt lat="41.122983" lon="-3.643017">
        <ele>1927.0</ele>
        <time>2018-07-21T11:53:34Z</time>
      </trkpt>
      <trkpt lat="41.122983" lon="-3.643067">
        <ele>1928.0</ele>
        <time>2018-07-21T11:53:35Z</time>
      </trkpt>
      <trkpt lat="41.122983" lon="-3.643117">
        <ele>1928.0</ele>
        <time>2018-07-21T11:53:36Z</time>
      </trkpt>
      <trkpt lat="41.122967" lon="-3.643167">
        <ele>1927.0</ele>
        <time>2018-07-21T11:53:37Z</time>
      </trkpt>
      <trkpt lat="41.122933" lon="-3.643217">
        <ele>1926.0</ele>
        <time>2018-07-21T11:53:38Z</time>
      </trkpt>
      <trkpt lat="41.122917" lon="-3.643283">
        <ele>1925.0</ele>
        <time>2018-07-21T11:53:39Z</time>
      </trkpt>
      <trkpt lat="41.122883" lon="-3.643350">
        <ele>1925.0</ele>
        <time>2018-07-21T11:53:40Z</time>
      </trkpt>
      <trkpt lat="41.122833" lon="-3.643417">
        <ele>1924.0</ele>
        <time>2018-07-21T11:53:41Z</time>
      </trkpt>
      <trkpt lat="41.122800" lon="-3.643483">
        <ele>1923.0</ele>
        <time>2018-07-21T11:53:42Z</time>
      </trkpt>
      <trkpt lat="41.122750" lon="-3.643550">
        <ele>1921.0</ele>
        <time>2018-07-21T11:53:43Z</time>
      </trkpt>
      <trkpt lat="41.122700" lon="-3.643600">
        <ele>1919.0</ele>
        <time>2018-07-21T11:53:44Z</time>
      </trkpt>
      <trkpt lat="41.122650" lon="-3.643683">
        <ele>1916.0</ele>
        <time>2018-07-21T11:53:45Z</time>
      </trkpt>
      <trkpt lat="41.122600" lon="-3.643767">
        <ele>1914.0</ele>
        <time>2018-07-21T11:53:46Z</time>
      </trkpt>
      <trkpt lat="41.122567" lon="-3.643850">
        <ele>1912.0</ele>
        <time>2018-07-21T11:53:47Z</time>
      </trkpt>
      <trkpt lat="41.122517" lon="-3.643933">
        <ele>1912.0</ele>
        <time>2018-07-21T11:53:48Z</time>
      </trkpt>
      <trkpt lat="41.122500" lon="-3.644017">
        <ele>1911.0</ele>
        <time>2018-07-21T11:53:49Z</time>
      </trkpt>
      <trkpt lat="41.122483" lon="-3.644100">
        <ele>1910.0</ele>
        <time>2018-07-21T11:53:50Z</time>
      </trkpt>
      <trkpt lat="41.122467" lon="-3.644167">
        <ele>1909.0</ele>
        <time>2018-07-21T11:53:51Z</time>
      </trkpt>
      <trkpt lat="41.122433" lon="-3.644233">
        <ele>1909.0</ele>
        <time>2018-07-21T11:53:52Z</time>
      </trkpt>
      <trkpt lat="41.122400" lon="-3.644317">
        <ele>1908.0</ele>
        <time>2018-07-21T11:53:53Z</time>
      </trkpt>
      <trkpt lat="41.122367" lon="-3.644400">
        <ele>1906.0</ele>
        <time>2018-07-21T11:53:54Z</time>
      </trkpt>
      <trkpt lat="41.122350" lon="-3.644467">
        <ele>1905.0</ele>
        <time>2018-07-21T11:53:55Z</time>
      </trkpt>
      <trkpt lat="41.122317" lon="-3.644550">
        <ele>1905.0</ele>
        <time>2018-07-21T11:53:56Z</time>
      </trkpt>
      <trkpt lat="41.122283" lon="-3.644633">
        <ele>1904.0</ele>
        <time>2018-07-21T11:53:57Z</time>
      </trkpt>
      <trkpt lat="41.122233" lon="-3.644717">
        <ele>1903.0</ele>
        <time>2018-07-21T11:53:58Z</time>
      </trkpt>
      <trkpt lat="41.122167" lon="-3.644800">
        <ele>1903.0</ele>
        <time>2018-07-21T11:53:59Z</time>
      </trkpt>
      <trkpt lat="41.122117" lon="-3.644883">
        <ele>1903.0</ele>
        <time>2018-07-21T11:54:00Z</time>
      </trkpt>
      <trkpt lat="41.122067" lon="-3.644950">
        <ele>1904.0</ele>
        <time>2018-07-21T11:54:01Z</time>
      </trkpt>
      <trkpt lat="41.122017" lon="-3.645017">
        <ele>1905.0</ele>
        <time>2018-07-21T11:54:02Z</time>
      </trkpt>
      <trkpt lat="41.121950" lon="-3.645083">
        <ele>1905.0</ele>
        <time>2018-07-21T11:54:03Z</time>
      </trkpt>
      <trkpt lat="41.121900" lon="-3.645167">
        <ele>1905.0</ele>
        <time>2018-07-21T11:54:04Z</time>
      </trkpt>
      <trkpt lat="41.121850" lon="-3.645250">
        <ele>1906.0</ele>
        <time>2018-07-21T11:54:05Z</time>
      </trkpt>
      <trkpt lat="41.121817" lon="-3.645317">
        <ele>1906.0</ele>
        <time>2018-07-21T11:54:06Z</time>
      </trkpt>
      <trkpt lat="41.121800" lon="-3.645400">
        <ele>1907.0</ele>
        <time>2018-07-21T11:54:07Z</time>
      </trkpt>
      <trkpt lat="41.121783" lon="-3.645450">
        <ele>1907.0</ele>
        <time>2018-07-21T11:54:08Z</time>
      </trkpt>
      <trkpt lat="41.121750" lon="-3.645517">
        <ele>1907.0</ele>
        <time>2018-07-21T11:54:09Z</time>
      </trkpt>
      <trkpt lat="41.121683" lon="-3.645583">
        <ele>1905.0</ele>
        <time>2018-07-21T11:54:10Z</time>
      </trkpt>
      <trkpt lat="41.121600" lon="-3.645650">
        <ele>1903.0</ele>
        <time>2018-07-21T11:54:11Z</time>
      </trkpt>
      <trkpt lat="41.121517" lon="-3.645717">
        <ele>1901.0</ele>
        <time>2018-07-21T11:54:12Z</time>
      </trkpt>
      <trkpt lat="41.121433" lon="-3.645783">
        <ele>1899.0</ele>
        <time>2018-07-21T11:54:13Z</time>
      </trkpt>
      <trkpt lat="41.121367" lon="-3.645833">
        <ele>1898.0</ele>
        <time>2018-07-21T11:54:14Z</time>
      </trkpt>
      <trkpt lat="41.121283" lon="-3.645900">
        <ele>1897.0</ele>
        <time>2018-07-21T11:54:15Z</time>
      </trkpt>
      <trkpt lat="41.121217" lon="-3.645967">
        <ele>1896.0</ele>
        <time>2018-07-21T11:54:16Z</time>
      </trkpt>
      <trkpt lat="41.121150" lon="-3.646033">
        <ele>1895.0</ele>
        <time>2018-07-21T11:54:17Z</time>
      </trkpt>
      <trkpt lat="41.121083" lon="-3.646100">
        <ele>1893.0</ele>
        <time>2018-07-21T11:54:18Z</time>
      </trkpt>
      <trkpt lat="41.121017" lon="-3.646167">
        <ele>1891.0</ele>
        <time>2018-07-21T11:54:19Z</time>
      </trkpt>
      <trkpt lat="41.120950" lon="-3.646233">
        <ele>1889.0</ele>
        <time>2018-07-21T11:54:20Z</time>
      </trkpt>
      <trkpt lat="41.120883" lon="-3.646300">
        <ele>1886.0</ele>
        <time>2018-07-21T11:54:21Z</time>
      </trkpt>
      <trkpt lat="41.120800" lon="-3.646383">
        <ele>1883.0</ele>
        <time>2018-07-21T11:54:22Z</time>
      </trkpt>
      <trkpt lat="41.120717" lon="-3.646483">
        <ele>1881.0</ele>
        <time>2018-07-21T11:54:23Z</time>
      </trkpt>
      <trkpt lat="41.120633" lon="-3.646567">
        <ele>1879.0</ele>
        <time>2018-07-21T11:54:24Z</time>
      </trkpt>
      <trkpt lat="41.120567" lon="-3.646650">
        <ele>1878.0</ele>
        <time>2018-07-21T11:54:25Z</time>
      </trkpt>
      <trkpt lat="41.120483" lon="-3.646733">
        <ele>1876.0</ele>
        <time>2018-07-21T11:54:26Z</time>
      </trkpt>
      <trkpt lat="41.120400" lon="-3.646817">
        <ele>1874.0</ele>
        <time>2018-07-21T11:54:27Z</time>
      </trkpt>
      <trkpt lat="41.120333" lon="-3.646900">
        <ele>1872.0</ele>
        <time>2018-07-21T11:54:28Z</time>
      </trkpt>
      <trkpt lat="41.120250" lon="-3.647000">
        <ele>1870.0</ele>
        <time>2018-07-21T11:54:29Z</time>
      </trkpt>
      <trkpt lat="41.120167" lon="-3.647083">
        <ele>1867.0</ele>
        <time>2018-07-21T11:54:30Z</time>
      </trkpt>
      <trkpt lat="41.120067" lon="-3.647183">
        <ele>1865.0</ele>
        <time>2018-07-21T11:54:31Z</time>
      </trkpt>
      <trkpt lat="41.119967" lon="-3.647250">
        <ele>1863.0</ele>
        <time>2018-07-21T11:54:32Z</time>
      </trkpt>
      <trkpt lat="41.119867" lon="-3.647317">
        <ele>1862.0</ele>
        <time>2018-07-21T11:54:33Z</time>
      </trkpt>
      <trkpt lat="41.119750" lon="-3.647367">
        <ele>1861.0</ele>
        <time>2018-07-21T11:54:34Z</time>
      </trkpt>
      <trkpt lat="41.119650" lon="-3.647433">
        <ele>1860.0</ele>
        <time>2018-07-21T11:54:35Z</time>
      </trkpt>
      <trkpt lat="41.119533" lon="-3.647483">
        <ele>1859.0</ele>
        <time>2018-07-21T11:54:36Z</time>
      </trkpt>
      <trkpt lat="41.119433" lon="-3.647533">
        <ele>1858.0</ele>
        <time>2018-07-21T11:54:37Z</time>
      </trkpt>
      <trkpt lat="41.119333" lon="-3.647600">
        <ele>1856.0</ele>
        <time>2018-07-21T11:54:38Z</time>
      </trkpt>
      <trkpt lat="41.119217" lon="-3.647667">
        <ele>1854.0</ele>
        <time>2018-07-21T11:54:39Z</time>
      </trkpt>
      <trkpt lat="41.119100" lon="-3.647750">
        <ele>1853.0</ele>
        <time>2018-07-21T11:54:40Z</time>
      </trkpt>
      <trkpt lat="41.119017" lon="-3.647850">
        <ele>1854.0</ele>
        <time>2018-07-21T11:54:41Z</time>
      </trkpt>
      <trkpt lat="41.118917" lon="-3.647917">
        <ele>1855.0</ele>
        <time>2018-07-21T11:54:42Z</time>
      </trkpt>
      <trkpt lat="41.118833" lon="-3.648000">
        <ele>1855.0</ele>
        <time>2018-07-21T11:54:43Z</time>
      </trkpt>
      <trkpt lat="41.118767" lon="-3.648050">
        <ele>1854.0</ele>
        <time>2018-07-21T11:54:44Z</time>
      </trkpt>
      <trkpt lat="41.118667" lon="-3.648100">
        <ele>1853.0</ele>
        <time>2018-07-21T11:54:45Z</time>
      </trkpt>
      <trkpt lat="41.118567" lon="-3.648167">
        <ele>1851.0</ele>
        <time>2018-07-21T11:54:46Z</time>
      </trkpt>
      <trkpt lat="41.118467" lon="-3.648233">
        <ele>1850.0</ele>
        <time>2018-07-21T11:54:47Z</time>
      </trkpt>
      <trkpt lat="41.118367" lon="-3.648300">
        <ele>1848.0</ele>
        <time>2018-07-21T11:54:48Z</time>
      </trkpt>
      <trkpt lat="41.118267" lon="-3.648367">
        <ele>1847.0</ele>
        <time>2018-07-21T11:54:49Z</time>
      </trkpt>
      <trkpt lat="41.118167" lon="-3.648450">
        <ele>1846.0</ele>
        <time>2018-07-21T11:54:50Z</time>
      </trkpt>
      <trkpt lat="41.118067" lon="-3.648517">
        <ele>1845.0</ele>
        <time>2018-07-21T11:54:51Z</time>
      </trkpt>
      <trkpt lat="41.117950" lon="-3.648583">
        <ele>1844.0</ele>
        <time>2018-07-21T11:54:52Z</time>
      </trkpt>
      <trkpt lat="41.117867" lon="-3.648650">
        <ele>1842.0</ele>
        <time>2018-07-21T11:54:53Z</time>
      </trkpt>
      <trkpt lat="41.117767" lon="-3.648733">
        <ele>1841.0</ele>
        <time>2018-07-21T11:54:54Z</time>
      </trkpt>
      <trkpt lat="41.117683" lon="-3.648800">
        <ele>1839.0</ele>
        <time>2018-07-21T11:54:55Z</time>
      </trkpt>
      <trkpt lat="41.117583" lon="-3.648867">
        <ele>1839.0</ele>
        <time>2018-07-21T11:54:56Z</time>
      </trkpt>
      <trkpt lat="41.117467" lon="-3.648933">
        <ele>1839.0</ele>
        <time>2018-07-21T11:54:57Z</time>
      </trkpt>
      <trkpt lat="41.117367" lon="-3.649000">
        <ele>1840.0</ele>
        <time>2018-07-21T11:54:58Z</time>
      </trkpt>
      <trkpt lat="41.117267" lon="-3.649050">
        <ele>1841.0</ele>
        <time>2018-07-21T11:54:59Z</time>
      </trkpt>
      <trkpt lat="41.117167" lon="-3.649117">
        <ele>1842.0</ele>
        <time>2018-07-21T11:55:00Z</time>
      </trkpt>
      <trkpt lat="41.117067" lon="-3.649167">
        <ele>1844.0</ele>
        <time>2018-07-21T11:55:01Z</time>
      </trkpt>
      <trkpt lat="41.116967" lon="-3.649200">
        <ele>1846.0</ele>
        <time>2018-07-21T11:55:02Z</time>
      </trkpt>
      <trkpt lat="41.116850" lon="-3.649233">
        <ele>1848.0</ele>
        <time>2018-07-21T11:55:03Z</time>
      </trkpt>
      <trkpt lat="41.116750" lon="-3.649250">
        <ele>1851.0</ele>
        <time>2018-07-21T11:55:04Z</time>
      </trkpt>
      <trkpt lat="41.116667" lon="-3.649300">
        <ele>1852.0</ele>
        <time>2018-07-21T11:55:05Z</time>
      </trkpt>
      <trkpt lat="41.116600" lon="-3.649350">
        <ele>1853.0</ele>
        <time>2018-07-21T11:55:06Z</time>
      </trkpt>
      <trkpt lat="41.116567" lon="-3.649417">
        <ele>1854.0</ele>
        <time>2018-07-21T11:55:07Z</time>
      </trkpt>
      <trkpt lat="41.116550" lon="-3.649483">
        <ele>1855.0</ele>
        <time>2018-07-21T11:55:08Z</time>
      </trkpt>
      <trkpt lat="41.116550" lon="-3.649550">
        <ele>1856.0</ele>
        <time>2018-07-21T11:55:09Z</time>
      </trkpt>
      <trkpt lat="41.116583" lon="-3.649600">
        <ele>1857.0</ele>
        <time>2018-07-21T11:55:10Z</time>
      </trkpt>
      <trkpt lat="41.116617" lon="-3.649633">
        <ele>1858.0</ele>
        <time>2018-07-21T11:55:11Z</time>
      </trkpt>
      <trkpt lat="41.116667" lon="-3.649650">
        <ele>1860.0</ele>
        <time>2018-07-21T11:55:12Z</time>
      </trkpt>
      <trkpt lat="41.116717" lon="-3.649650">
        <ele>1862.0</ele>
        <time>2018-07-21T11:55:13Z</time>
      </trkpt>
      <trkpt lat="41.116783" lon="-3.649617">
        <ele>1863.0</ele>
        <time>2018-07-21T11:55:14Z</time>
      </trkpt>
      <trkpt lat="41.116850" lon="-3.649533">
        <ele>1864.0</ele>
        <time>2018-07-21T11:55:15Z</time>
      </trkpt>
      <trkpt lat="41.116900" lon="-3.649417">
        <ele>1866.0</ele>
        <time>2018-07-21T11:55:16Z</time>
      </trkpt>
      <trkpt lat="41.116950" lon="-3.649267">
        <ele>1867.0</ele>
        <time>2018-07-21T11:55:17Z</time>
      </trkpt>
      <trkpt lat="41.116950" lon="-3.649083">
        <ele>1869.0</ele>
        <time>2018-07-21T11:55:18Z</time>
      </trkpt>
      <trkpt lat="41.116917" lon="-3.648900">
        <ele>1871.0</ele>
        <time>2018-07-21T11:55:19Z</time>
      </trkpt>
      <trkpt lat="41.116850" lon="-3.648733">
        <ele>1872.0</ele>
        <time>2018-07-21T11:55:20Z</time>
      </trkpt>
      <trkpt lat="41.116767" lon="-3.648583">
        <ele>1874.0</ele>
        <time>2018-07-21T11:55:21Z</time>
      </trkpt>
      <trkpt lat="41.116650" lon="-3.648500">
        <ele>1875.0</ele>
        <time>2018-07-21T11:55:22Z</time>
      </trkpt>
      <trkpt lat="41.116517" lon="-3.648450">
        <ele>1875.0</ele>
        <time>2018-07-21T11:55:23Z</time>
      </trkpt>
      <trkpt lat="41.116383" lon="-3.648450">
        <ele>1875.0</ele>
        <time>2018-07-21T11:55:24Z</time>
      </trkpt>
      <trkpt lat="41.116267" lon="-3.648483">
        <ele>1877.0</ele>
        <time>2018-07-21T11:55:25Z</time>
      </trkpt>
      <trkpt lat="41.116167" lon="-3.648533">
        <ele>1879.0</ele>
        <time>2018-07-21T11:55:26Z</time>
      </trkpt>
      <trkpt lat="41.116100" lon="-3.648583">
        <ele>1882.0</ele>
        <time>2018-07-21T11:55:27Z</time>
      </trkpt>
      <trkpt lat="41.116050" lon="-3.648633">
        <ele>1885.0</ele>
        <time>2018-07-21T11:55:28Z</time>
      </trkpt>
      <trkpt lat="41.116000" lon="-3.648683">
        <ele>1886.0</ele>
        <time>2018-07-21T11:55:29Z</time>
      </trkpt>
      <trkpt lat="41.115967" lon="-3.648717">
        <ele>1887.0</ele>
        <time>2018-07-21T11:55:30Z</time>
      </trkpt>
      <trkpt lat="41.115933" lon="-3.648767">
        <ele>1887.0</ele>
        <time>2018-07-21T11:55:31Z</time>
      </trkpt>
      <trkpt lat="41.115883" lon="-3.648817">
        <ele>1887.0</ele>
        <time>2018-07-21T11:55:32Z</time>
      </trkpt>
      <trkpt lat="41.115833" lon="-3.648883">
        <ele>1887.0</ele>
        <time>2018-07-21T11:55:33Z</time>
      </trkpt>
      <trkpt lat="41.115783" lon="-3.648933">
        <ele>1888.0</ele>
        <time>2018-07-21T11:55:34Z</time>
      </trkpt>
      <trkpt lat="41.115750" lon="-3.648983">
        <ele>1889.0</ele>
        <time>2018-07-21T11:55:35Z</time>
      </trkpt>
      <trkpt lat="41.115733" lon="-3.649033">
        <ele>1890.0</ele>
        <time>2018-07-21T11:55:36Z</time>
      </trkpt>
      <trkpt lat="41.115733" lon="-3.649083">
        <ele>1890.0</ele>
        <time>2018-07-21T11:55:37Z</time>
      </trkpt>
      <trkpt lat="41.115750" lon="-3.649150">
        <ele>1890.0</ele>
        <time>2018-07-21T11:55:38Z</time>
      </trkpt>
      <trkpt lat="41.115750" lon="-3.649200">
        <ele>1891.0</ele>
        <time>2018-07-21T11:55:39Z</time>
      </trkpt>
      <trkpt lat="41.115767" lon="-3.649250">
        <ele>1892.0</ele>
        <time>2018-07-21T11:55:40Z</time>
      </trkpt>
      <trkpt lat="41.115783" lon="-3.649283">
        <ele>1892.0</ele>
        <time>2018-07-21T11:55:41Z</time>
      </trkpt>
      <trkpt lat="41.115800" lon="-3.649317">
        <ele>1893.0</ele>
        <time>2018-07-21T11:55:42Z</time>
      </trkpt>
      <trkpt lat="41.115817" lon="-3.649367">
        <ele>1893.0</ele>
        <time>2018-07-21T11:55:43Z</time>
      </trkpt>
      <trkpt lat="41.115850" lon="-3.649400">
        <ele>1894.0</ele>
        <time>2018-07-21T11:55:44Z</time>
      </trkpt>
      <trkpt lat="41.115883" lon="-3.649450">
        <ele>1894.0</ele>
        <time>2018-07-21T11:55:45Z</time>
      </trkpt>
      <trkpt lat="41.115900" lon="-3.649500">
        <ele>1895.0</ele>
        <time>2018-07-21T11:55:46Z</time>
      </trkpt>
      <trkpt lat="41.115933" lon="-3.649550">
        <ele>1894.0</ele>
        <time>2018-07-21T11:55:47Z</time>
      </trkpt>
      <trkpt lat="41.115967" lon="-3.649583">
        <ele>1894.0</ele>
        <time>2018-07-21T11:55:48Z</time>
      </trkpt>
      <trkpt lat="41.115983" lon="-3.649633">
        <ele>1894.0</ele>
        <time>2018-07-21T11:55:49Z</time>
      </trkpt>
      <trkpt lat="41.116017" lon="-3.649683">
        <ele>1894.0</ele>
        <time>2018-07-21T11:55:50Z</time>
      </trkpt>
      <trkpt lat="41.116050" lon="-3.649733">
        <ele>1895.0</ele>
        <time>2018-07-21T11:55:51Z</time>
      </trkpt>
      <trkpt lat="41.116083" lon="-3.649767">
        <ele>1895.0</ele>
        <time>2018-07-21T11:55:52Z</time>
      </trkpt>
      <trkpt lat="41.116117" lon="-3.649800">
        <ele>1895.0</ele>
        <time>2018-07-21T11:55:53Z</time>
      </trkpt>
      <trkpt lat="41.116167" lon="-3.649817">
        <ele>1895.0</ele>
        <time>2018-07-21T11:55:54Z</time>
      </trkpt>
      <trkpt lat="41.116233" lon="-3.649850">
        <ele>1894.0</ele>
        <time>2018-07-21T11:55:55Z</time>
      </trkpt>
      <trkpt lat="41.116283" lon="-3.649867">
        <ele>1895.0</ele>
        <time>2018-07-21T11:55:56Z</time>
      </trkpt>
      <trkpt lat="41.116333" lon="-3.649900">
        <ele>1896.0</ele>
        <time>2018-07-21T11:55:57Z</time>
      </trkpt>
      <trkpt lat="41.116367" lon="-3.649933">
        <ele>1897.0</ele>
        <time>2018-07-21T11:55:58Z</time>
      </trkpt>
      <trkpt lat="41.116383" lon="-3.649967">
        <ele>1898.0</ele>
        <time>2018-07-21T11:55:59Z</time>
      </trkpt>
      <trkpt lat="41.116417" lon="-3.650000">
        <ele>1898.0</ele>
        <time>2018-07-21T11:56:00Z</time>
      </trkpt>
      <trkpt lat="41.116433" lon="-3.650017">
        <ele>1898.0</ele>
        <time>2018-07-21T11:56:01Z</time>
      </trkpt>
      <trkpt lat="41.116483" lon="-3.650033">
        <ele>1899.0</ele>
        <time>2018-07-21T11:56:02Z</time>
      </trkpt>
      <trkpt lat="41.116533" lon="-3.650017">
        <ele>1900.0</ele>
        <time>2018-07-21T11:56:03Z</time>
      </trkpt>
      <trkpt lat="41.116600" lon="-3.649983">
        <ele>1902.0</ele>
        <time>2018-07-21T11:56:04Z</time>
      </trkpt>
      <trkpt lat="41.116667" lon="-3.649917">
        <ele>1903.0</ele>
        <time>2018-07-21T11:56:05Z</time>
      </trkpt>
      <trkpt lat="41.116717" lon="-3.649833">
        <ele>1904.0</ele>
        <time>2018-07-21T11:56:06Z</time>
      </trkpt>
      <trkpt lat="41.116767" lon="-3.649700">
        <ele>1904.0</ele>
        <time>2018-07-21T11:56:07Z</time>
      </trkpt>
      <trkpt lat="41.116800" lon="-3.649550">
        <ele>1903.0</ele>
        <time>2018-07-21T11:56:08Z</time>
      </trkpt>
      <trkpt lat="41.116817" lon="-3.649367">
        <ele>1902.0</ele>
        <time>2018-07-21T11:56:09Z</time>
      </trkpt>
      <trkpt lat="41.116817" lon="-3.649167">
        <ele>1902.0</ele>
        <time>2018-07-21T11:56:10Z</time>
      </trkpt>
      <trkpt lat="41.116783" lon="-3.648967">
        <ele>1903.0</ele>
        <time>2018-07-21T11:56:11Z</time>
      </trkpt>
      <trkpt lat="41.116717" lon="-3.648783">
        <ele>1904.0</ele>
        <time>2018-07-21T11:56:12Z</time>
      </trkpt>
      <trkpt lat="41.116633" lon="-3.648633">
        <ele>1904.0</ele>
        <time>2018-07-21T11:56:13Z</time>
      </trkpt>
      <trkpt lat="41.116517" lon="-3.648533">
        <ele>1904.0</ele>
        <time>2018-07-21T11:56:14Z</time>
      </trkpt>
      <trkpt lat="41.116383" lon="-3.648483">
        <ele>1904.0</ele>
        <time>2018-07-21T11:56:15Z</time>
      </trkpt>
      <trkpt lat="41.116283" lon="-3.648483">
        <ele>1905.0</ele>
        <time>2018-07-21T11:56:16Z</time>
      </trkpt>
      <trkpt lat="41.116183" lon="-3.648500">
        <ele>1906.0</ele>
        <time>2018-07-21T11:56:17Z</time>
      </trkpt>
      <trkpt lat="41.116117" lon="-3.648533">
        <ele>1907.0</ele>
        <time>2018-07-21T11:56:18Z</time>
      </trkpt>
      <trkpt lat="41.116050" lon="-3.648583">
        <ele>1907.0</ele>
        <time>2018-07-21T11:56:19Z</time>
      </trkpt>
      <trkpt lat="41.116000" lon="-3.648633">
        <ele>1907.0</ele>
        <time>2018-07-21T11:56:20Z</time>
      </trkpt>
      <trkpt lat="41.115950" lon="-3.648683">
        <ele>1908.0</ele>
        <time>2018-07-21T11:56:21Z</time>
      </trkpt>
      <trkpt lat="41.115917" lon="-3.648733">
        <ele>1908.0</ele>
        <time>2018-07-21T11:56:22Z</time>
      </trkpt>
      <trkpt lat="41.115867" lon="-3.648800">
        <ele>1908.0</ele>
        <time>2018-07-21T11:56:23Z</time>
      </trkpt>
      <trkpt lat="41.115833" lon="-3.648867">
        <ele>1908.0</ele>
        <time>2018-07-21T11:56:24Z</time>
      </trkpt>
      <trkpt lat="41.115800" lon="-3.648933">
        <ele>1908.0</ele>
        <time>2018-07-21T11:56:25Z</time>
      </trkpt>
      <trkpt lat="41.115767" lon="-3.648983">
        <ele>1908.0</ele>
        <time>2018-07-21T11:56:26Z</time>
      </trkpt>
      <trkpt lat="41.115733" lon="-3.649033">
        <ele>1908.0</ele>
        <time>2018-07-21T11:56:27Z</time>
      </trkpt>
      <trkpt lat="41.115700" lon="-3.649067">
        <ele>1908.0</ele>
        <time>2018-07-21T11:56:28Z</time>
      </trkpt>
      <trkpt lat="41.115667" lon="-3.649100">
        <ele>1907.0</ele>
        <time>2018-07-21T11:56:29Z</time>
      </trkpt>
      <trkpt lat="41.115633" lon="-3.649133">
        <ele>1905.0</ele>
        <time>2018-07-21T11:56:30Z</time>
      </trkpt>
      <trkpt lat="41.115600" lon="-3.649167">
        <ele>1902.0</ele>
        <time>2018-07-21T11:56:31Z</time>
      </trkpt>
      <trkpt lat="41.115550" lon="-3.649217">
        <ele>1899.0</ele>
        <time>2018-07-21T11:56:32Z</time>
      </trkpt>
      <trkpt lat="41.115483" lon="-3.649267">
        <ele>1896.0</ele>
        <time>2018-07-21T11:56:33Z</time>
      </trkpt>
      <trkpt lat="41.115417" lon="-3.649317">
        <ele>1893.0</ele>
        <time>2018-07-21T11:56:34Z</time>
      </trkpt>
      <trkpt lat="41.115367" lon="-3.649383">
        <ele>1890.0</ele>
        <time>2018-07-21T11:56:35Z</time>
      </trkpt>
      <trkpt lat="41.115300" lon="-3.649433">
        <ele>1888.0</ele>
        <time>2018-07-21T11:56:36Z</time>
      </trkpt>
      <trkpt lat="41.115250" lon="-3.649500">
        <ele>1886.0</ele>
        <time>2018-07-21T11:56:37Z</time>
      </trkpt>
      <trkpt lat="41.115217" lon="-3.649567">
        <ele>1884.0</ele>
        <time>2018-07-21T11:56:38Z</time>
      </trkpt>
      <trkpt lat="41.115167" lon="-3.649617">
        <ele>1883.0</ele>
        <time>2018-07-21T11:56:39Z</time>
      </trkpt>
      <trkpt lat="41.115117" lon="-3.649683">
        <ele>1881.0</ele>
        <time>2018-07-21T11:56:40Z</time>
      </trkpt>
      <trkpt lat="41.115067" lon="-3.649733">
        <ele>1879.0</ele>
        <time>2018-07-21T11:56:41Z</time>
      </trkpt>
      <trkpt lat="41.115000" lon="-3.649800">
        <ele>1878.0</ele>
        <time>2018-07-21T11:56:42Z</time>
      </trkpt>
      <trkpt lat="41.114933" lon="-3.649850">
        <ele>1877.0</ele>
        <time>2018-07-21T11:56:43Z</time>
      </trkpt>
      <trkpt lat="41.114867" lon="-3.649900">
        <ele>1876.0</ele>
        <time>2018-07-21T11:56:44Z</time>
      </trkpt>
      <trkpt lat="41.114817" lon="-3.649950">
        <ele>1875.0</ele>
        <time>2018-07-21T11:56:45Z</time>
      </trkpt>
      <trkpt lat="41.114767" lon="-3.650017">
        <ele>1873.0</ele>
        <time>2018-07-21T11:56:46Z</time>
      </trkpt>
      <trkpt lat="41.114717" lon="-3.650083">
        <ele>1871.0</ele>
        <time>2018-07-21T11:56:47Z</time>
      </trkpt>
      <trkpt lat="41.114683" lon="-3.650150">
        <ele>1870.0</ele>
        <time>2018-07-21T11:56:48Z</time>
      </trkpt>
      <trkpt lat="41.114633" lon="-3.650217">
        <ele>1868.0</ele>
        <time>2018-07-21T11:56:49Z</time>
      </trkpt>
      <trkpt lat="41.114567" lon="-3.650300">
        <ele>1866.0</ele>
        <time>2018-07-21T11:56:50Z</time>
      </trkpt>
      <trkpt lat="41.114500" lon="-3.650383">
        <ele>1865.0</ele>
        <time>2018-07-21T11:56:51Z</time>
      </trkpt>
      <trkpt lat="41.114433" lon="-3.650467">
        <ele>1865.0</ele>
        <time>2018-07-21T11:56:52Z</time>
      </trkpt>
      <trkpt lat="41.114383" lon="-3.650567">
        <ele>1866.0</ele>
        <time>2018-07-21T11:56:53Z</time>
      </trkpt>
      <trkpt lat="41.114333" lon="-3.650650">
        <ele>1867.0</ele>
        <time>2018-07-21T11:56:54Z</time>
      </trkpt>
      <trkpt lat="41.114300" lon="-3.650717">
        <ele>1867.0</ele>
        <time>2018-07-21T11:56:55Z</time>
      </trkpt>
      <trkpt lat="41.114250" lon="-3.650800">
        <ele>1867.0</ele>
        <time>2018-07-21T11:56:56Z</time>
      </trkpt>
      <trkpt lat="41.114200" lon="-3.650883">
        <ele>1867.0</ele>
        <time>2018-07-21T11:56:57Z</time>
      </trkpt>
      <trkpt lat="41.114150" lon="-3.650967">
        <ele>1866.0</ele>
        <time>2018-07-21T11:56:58Z</time>
      </trkpt>
      <trkpt lat="41.114100" lon="-3.651067">
        <ele>1864.0</ele>
        <time>2018-07-21T11:56:59Z</time>
      </trkpt>
      <trkpt lat="41.114067" lon="-3.651167">
        <ele>1864.0</ele>
        <time>2018-07-21T11:57:00Z</time>
      </trkpt>
      <trkpt lat="41.114033" lon="-3.651250">
        <ele>1864.0</ele>
        <time>2018-07-21T11:57:01Z</time>
      </trkpt>
      <trkpt lat="41.114000" lon="-3.651333">
        <ele>1865.0</ele>
        <time>2018-07-21T11:57:02Z</time>
      </trkpt>
      <trkpt lat="41.113967" lon="-3.651400">
        <ele>1865.0</ele>
        <time>2018-07-21T11:57:03Z</time>
      </trkpt>
      <trkpt lat="41.113933" lon="-3.651467">
        <ele>1865.0</ele>
        <time>2018-07-21T11:57:04Z</time>
      </trkpt>
      <trkpt lat="41.113883" lon="-3.651533">
        <ele>1864.0</ele>
        <time>2018-07-21T11:57:05Z</time>
      </trkpt>
      <trkpt lat="41.113833" lon="-3.651600">
        <ele>1862.0</ele>
        <time>2018-07-21T11:57:06Z</time>
      </trkpt>
      <trkpt lat="41.113767" lon="-3.651683">
        <ele>1861.0</ele>
        <time>2018-07-21T11:57:07Z</time>
      </trkpt>
      <trkpt lat="41.113700" lon="-3.651767">
        <ele>1860.0</ele>
        <time>2018-07-21T11:57:08Z</time>
      </trkpt>
      <trkpt lat="41.113633" lon="-3.651850">
        <ele>1859.0</ele>
        <time>2018-07-21T11:57:09Z</time>
      </trkpt>
      <trkpt lat="41.113583" lon="-3.651917">
        <ele>1859.0</ele>
        <time>2018-07-21T11:57:10Z</time>
      </trkpt>
      <trkpt lat="41.113533" lon="-3.651983">
        <ele>1858.0</ele>
        <time>2018-07-21T11:57:11Z</time>
      </trkpt>
      <trkpt lat="41.113467" lon="-3.652050">
        <ele>1857.0</ele>
        <time>2018-07-21T11:57:12Z</time>
      </trkpt>
      <trkpt lat="41.113417" lon="-3.652133">
        <ele>1856.0</ele>
        <time>2018-07-21T11:57:13Z</time>
      </trkpt>
      <trkpt lat="41.113350" lon="-3.652200">
        <ele>1855.0</ele>
        <time>2018-07-21T11:57:14Z</time>
      </trkpt>
      <trkpt lat="41.113283" lon="-3.652283">
        <ele>1855.0</ele>
        <time>2018-07-21T11:57:15Z</time>
      </trkpt>
      <trkpt lat="41.113233" lon="-3.652367">
        <ele>1855.0</ele>
        <time>2018-07-21T11:57:16Z</time>
      </trkpt>
      <trkpt lat="41.113167" lon="-3.652433">
        <ele>1855.0</ele>
        <time>2018-07-21T11:57:17Z</time>
      </trkpt>
      <trkpt lat="41.113117" lon="-3.652517">
        <ele>1854.0</ele>
        <time>2018-07-21T11:57:18Z</time>
      </trkpt>
      <trkpt lat="41.113050" lon="-3.652600">
        <ele>1854.0</ele>
        <time>2018-07-21T11:57:19Z</time>
      </trkpt>
      <trkpt lat="41.113000" lon="-3.652683">
        <ele>1853.0</ele>
        <time>2018-07-21T11:57:20Z</time>
      </trkpt>
      <trkpt lat="41.112950" lon="-3.652767">
        <ele>1852.0</ele>
        <time>2018-07-21T11:57:21Z</time>
      </trkpt>
      <trkpt lat="41.112900" lon="-3.652850">
        <ele>1851.0</ele>
        <time>2018-07-21T11:57:22Z</time>
      </trkpt>
      <trkpt lat="41.112833" lon="-3.652933">
        <ele>1851.0</ele>
        <time>2018-07-21T11:57:23Z</time>
      </trkpt>
      <trkpt lat="41.112767" lon="-3.653000">
        <ele>1850.0</ele>
        <time>2018-07-21T11:57:24Z</time>
      </trkpt>
      <trkpt lat="41.112717" lon="-3.653083">
        <ele>1850.0</ele>
        <time>2018-07-21T11:57:25Z</time>
      </trkpt>
      <trkpt lat="41.112650" lon="-3.653167">
        <ele>1849.0</ele>
        <time>2018-07-21T11:57:26Z</time>
      </trkpt>
      <trkpt lat="41.112600" lon="-3.653250">
        <ele>1848.0</ele>
        <time>2018-07-21T11:57:27Z</time>
      </trkpt>
      <trkpt lat="41.112550" lon="-3.653333">
        <ele>1848.0</ele>
        <time>2018-07-21T11:57:28Z</time>
      </trkpt>
      <trkpt lat="41.112500" lon="-3.653400">
        <ele>1847.0</ele>
        <time>2018-07-21T11:57:29Z</time>
      </trkpt>
      <trkpt lat="41.112450" lon="-3.653467">
        <ele>1846.0</ele>
        <time>2018-07-21T11:57:30Z</time>
      </trkpt>
      <trkpt lat="41.112383" lon="-3.653550">
        <ele>1844.0</ele>
        <time>2018-07-21T11:57:31Z</time>
      </trkpt>
      <trkpt lat="41.112317" lon="-3.653617">
        <ele>1842.0</ele>
        <time>2018-07-21T11:57:32Z</time>
      </trkpt>
      <trkpt lat="41.112233" lon="-3.653683">
        <ele>1840.0</ele>
        <time>2018-07-21T11:57:33Z</time>
      </trkpt>
      <trkpt lat="41.112167" lon="-3.653750">
        <ele>1840.0</ele>
        <time>2018-07-21T11:57:34Z</time>
      </trkpt>
      <trkpt lat="41.112100" lon="-3.653817">
        <ele>1840.0</ele>
        <time>2018-07-21T11:57:35Z</time>
      </trkpt>
      <trkpt lat="41.112017" lon="-3.653850">
        <ele>1840.0</ele>
        <time>2018-07-21T11:57:36Z</time>
      </trkpt>
      <trkpt lat="41.111950" lon="-3.653883">
        <ele>1840.0</ele>
        <time>2018-07-21T11:57:37Z</time>
      </trkpt>
      <trkpt lat="41.111883" lon="-3.653917">
        <ele>1839.0</ele>
        <time>2018-07-21T11:57:38Z</time>
      </trkpt>
      <trkpt lat="41.111800" lon="-3.653967">
        <ele>1836.0</ele>
        <time>2018-07-21T11:57:39Z</time>
      </trkpt>
      <trkpt lat="41.111717" lon="-3.654017">
        <ele>1834.0</ele>
        <time>2018-07-21T11:57:40Z</time>
      </trkpt>
      <trkpt lat="41.111633" lon="-3.654083">
        <ele>1831.0</ele>
        <time>2018-07-21T11:57:41Z</time>
      </trkpt>
      <trkpt lat="41.111550" lon="-3.654150">
        <ele>1830.0</ele>
        <time>2018-07-21T11:57:42Z</time>
      </trkpt>
      <trkpt lat="41.111483" lon="-3.654233">
        <ele>1831.0</ele>
        <time>2018-07-21T11:57:43Z</time>
      </trkpt>
      <trkpt lat="41.111417" lon="-3.654300">
        <ele>1832.0</ele>
        <time>2018-07-21T11:57:44Z</time>
      </trkpt>
      <trkpt lat="41.111350" lon="-3.654367">
        <ele>1834.0</ele>
        <time>2018-07-21T11:57:45Z</time>
      </trkpt>
      <trkpt lat="41.111267" lon="-3.654417">
        <ele>1835.0</ele>
        <time>2018-07-21T11:57:46Z</time>
      </trkpt>
      <trkpt lat="41.111200" lon="-3.654467">
        <ele>1836.0</ele>
        <time>2018-07-21T11:57:47Z</time>
      </trkpt>
      <trkpt lat="41.111117" lon="-3.654533">
        <ele>1836.0</ele>
        <time>2018-07-21T11:57:48Z</time>
      </trkpt>
      <trkpt lat="41.111050" lon="-3.654583">
        <ele>1836.0</ele>
        <time>2018-07-21T11:57:49Z</time>
      </trkpt>
      <trkpt lat="41.110967" lon="-3.654650">
        <ele>1837.0</ele>
        <time>2018-07-21T11:57:50Z</time>
      </trkpt>
      <trkpt lat="41.110883" lon="-3.654717">
        <ele>1839.0</ele>
        <time>2018-07-21T11:57:51Z</time>
      </trkpt>
      <trkpt lat="41.110817" lon="-3.654783">
        <ele>1842.0</ele>
        <time>2018-07-21T11:57:52Z</time>
      </trkpt>
      <trkpt lat="41.110750" lon="-3.654833">
        <ele>1846.0</ele>
        <time>2018-07-21T11:57:53Z</time>
      </trkpt>
      <trkpt lat="41.110683" lon="-3.654867">
        <ele>1850.0</ele>
        <time>2018-07-21T11:57:54Z</time>
      </trkpt>
      <trkpt lat="41.110617" lon="-3.654900">
        <ele>1853.0</ele>
        <time>2018-07-21T11:57:55Z</time>
      </trkpt>
      <trkpt lat="41.110550" lon="-3.654933">
        <ele>1855.0</ele>
        <time>2018-07-21T11:57:56Z</time>
      </trkpt>
      <trkpt lat="41.110517" lon="-3.654983">
        <ele>1856.0</ele>
        <time>2018-07-21T11:57:57Z</time>
      </trkpt>
      <trkpt lat="41.110517" lon="-3.655050">
        <ele>1857.0</ele>
        <time>2018-07-21T11:57:58Z</time>
      </trkpt>
      <trkpt lat="41.110550" lon="-3.655100">
        <ele>1858.0</ele>
        <time>2018-07-21T11:57:59Z</time>
      </trkpt>
      <trkpt lat="41.110617" lon="-3.655117">
        <ele>1859.0</ele>
        <time>2018-07-21T11:58:00Z</time>
      </trkpt>
      <trkpt lat="41.110700" lon="-3.655100">
        <ele>1861.0</ele>
        <time>2018-07-21T11:58:01Z</time>
      </trkpt>
      <trkpt lat="41.110767" lon="-3.655050">
        <ele>1864.0</ele>
        <time>2018-07-21T11:58:02Z</time>
      </trkpt>
      <trkpt lat="41.110850" lon="-3.654950">
        <ele>1866.0</ele>
        <time>2018-07-21T11:58:03Z</time>
      </trkpt>
      <trkpt lat="41.110900" lon="-3.654833">
        <ele>1867.0</ele>
        <time>2018-07-21T11:58:04Z</time>
      </trkpt>
      <trkpt lat="41.110917" lon="-3.654683">
        <ele>1869.0</ele>
        <time>2018-07-21T11:58:05Z</time>
      </trkpt>
      <trkpt lat="41.110900" lon="-3.654517">
        <ele>1870.0</ele>
        <time>2018-07-21T11:58:06Z</time>
      </trkpt>
      <trkpt lat="41.110850" lon="-3.654367">
        <ele>1871.0</ele>
        <time>2018-07-21T11:58:07Z</time>
      </trkpt>
      <trkpt lat="41.110767" lon="-3.654217">
        <ele>1872.0</ele>
        <time>2018-07-21T11:58:08Z</time>
      </trkpt>
      <trkpt lat="41.110667" lon="-3.654117">
        <ele>1873.0</ele>
        <time>2018-07-21T11:58:09Z</time>
      </trkpt>
      <trkpt lat="41.110550" lon="-3.654033">
        <ele>1875.0</ele>
        <time>2018-07-21T11:58:10Z</time>
      </trkpt>
      <trkpt lat="41.110433" lon="-3.654000">
        <ele>1877.0</ele>
        <time>2018-07-21T11:58:11Z</time>
      </trkpt>
      <trkpt lat="41.110317" lon="-3.653983">
        <ele>1880.0</ele>
        <time>2018-07-21T11:58:12Z</time>
      </trkpt>
      <trkpt lat="41.110233" lon="-3.653983">
        <ele>1882.0</ele>
        <time>2018-07-21T11:58:13Z</time>
      </trkpt>
      <trkpt lat="41.110150" lon="-3.653983">
        <ele>1885.0</ele>
        <time>2018-07-21T11:58:14Z</time>
      </trkpt>
      <trkpt lat="41.110100" lon="-3.653983">
        <ele>1886.0</ele>
        <time>2018-07-21T11:58:15Z</time>
      </trkpt>
      <trkpt lat="41.110050" lon="-3.654017">
        <ele>1887.0</ele>
        <time>2018-07-21T11:58:16Z</time>
      </trkpt>
      <trkpt lat="41.110017" lon="-3.654050">
        <ele>1887.0</ele>
        <time>2018-07-21T11:58:17Z</time>
      </trkpt>
      <trkpt lat="41.110000" lon="-3.654117">
        <ele>1886.0</ele>
        <time>2018-07-21T11:58:18Z</time>
      </trkpt>
      <trkpt lat="41.110033" lon="-3.654183">
        <ele>1885.0</ele>
        <time>2018-07-21T11:58:19Z</time>
      </trkpt>
      <trkpt lat="41.110067" lon="-3.654233">
        <ele>1886.0</ele>
        <time>2018-07-21T11:58:20Z</time>
      </trkpt>
      <trkpt lat="41.110133" lon="-3.654267">
        <ele>1887.0</ele>
        <time>2018-07-21T11:58:21Z</time>
      </trkpt>
      <trkpt lat="41.110200" lon="-3.654283">
        <ele>1889.0</ele>
        <time>2018-07-21T11:58:22Z</time>
      </trkpt>
      <trkpt lat="41.110267" lon="-3.654250">
        <ele>1891.0</ele>
        <time>2018-07-21T11:58:23Z</time>
      </trkpt>
      <trkpt lat="41.110333" lon="-3.654183">
        <ele>1892.0</ele>
        <time>2018-07-21T11:58:24Z</time>
      </trkpt>
      <trkpt lat="41.110400" lon="-3.654083">
        <ele>1893.0</ele>
        <time>2018-07-21T11:58:25Z</time>
      </trkpt>
      <trkpt lat="41.110467" lon="-3.653967">
        <ele>1894.0</ele>
        <time>2018-07-21T11:58:26Z</time>
      </trkpt>
      <trkpt lat="41.110500" lon="-3.653817">
        <ele>1895.0</ele>
        <time>2018-07-21T11:58:27Z</time>
      </trkpt>
      <trkpt lat="41.110517" lon="-3.653650">
        <ele>1897.0</ele>
        <time>2018-07-21T11:58:28Z</time>
      </trkpt>
      <trkpt lat="41.110500" lon="-3.653483">
        <ele>1899.0</ele>
        <time>2018-07-21T11:58:29Z</time>
      </trkpt>
      <trkpt lat="41.110450" lon="-3.653317">
        <ele>1902.0</ele>
        <time>2018-07-21T11:58:30Z</time>
      </trkpt>
      <trkpt lat="41.110383" lon="-3.653167">
        <ele>1904.0</ele>
        <time>2018-07-21T11:58:31Z</time>
      </trkpt>
      <trkpt lat="41.110300" lon="-3.653050">
        <ele>1905.0</ele>
        <time>2018-07-21T11:58:32Z</time>
      </trkpt>
      <trkpt lat="41.110183" lon="-3.652950">
        <ele>1906.0</ele>
        <time>2018-07-21T11:58:33Z</time>
      </trkpt>
      <trkpt lat="41.110083" lon="-3.652883">
        <ele>1907.0</ele>
        <time>2018-07-21T11:58:34Z</time>
      </trkpt>
      <trkpt lat="41.109967" lon="-3.652850">
        <ele>1909.0</ele>
        <time>2018-07-21T11:58:35Z</time>
      </trkpt>
      <trkpt lat="41.109867" lon="-3.652850">
        <ele>1910.0</ele>
        <time>2018-07-21T11:58:36Z</time>
      </trkpt>
      <trkpt lat="41.109783" lon="-3.652867">
        <ele>1911.0</ele>
        <time>2018-07-21T11:58:37Z</time>
      </trkpt>
      <trkpt lat="41.109733" lon="-3.652900">
        <ele>1912.0</ele>
        <time>2018-07-21T11:58:38Z</time>
      </trkpt>
      <trkpt lat="41.109700" lon="-3.652950">
        <ele>1912.0</ele>
        <time>2018-07-21T11:58:39Z</time>
      </trkpt>
      <trkpt lat="41.109683" lon="-3.653000">
        <ele>1912.0</ele>
        <time>2018-07-21T11:58:40Z</time>
      </trkpt>
      <trkpt lat="41.109683" lon="-3.653033">
        <ele>1912.0</ele>
        <time>2018-07-21T11:58:41Z</time>
      </trkpt>
      <trkpt lat="41.109700" lon="-3.653083">
        <ele>1913.0</ele>
        <time>2018-07-21T11:58:42Z</time>
      </trkpt>
      <trkpt lat="41.109750" lon="-3.653117">
        <ele>1915.0</ele>
        <time>2018-07-21T11:58:43Z</time>
      </trkpt>
      <trkpt lat="41.109800" lon="-3.653133">
        <ele>1916.0</ele>
        <time>2018-07-21T11:58:44Z</time>
      </trkpt>
      <trkpt lat="41.109883" lon="-3.653133">
        <ele>1918.0</ele>
        <time>2018-07-21T11:58:45Z</time>
      </trkpt>
      <trkpt lat="41.109950" lon="-3.653100">
        <ele>1921.0</ele>
        <time>2018-07-21T11:58:46Z</time>
      </trkpt>
      <trkpt lat="41.110017" lon="-3.653067">
        <ele>1923.0</ele>
        <time>2018-07-21T11:58:47Z</time>
      </trkpt>
      <trkpt lat="41.110100" lon="-3.653033">
        <ele>1926.0</ele>
        <time>2018-07-21T11:58:48Z</time>
      </trkpt>
      <trkpt lat="41.110167" lon="-3.653000">
        <ele>1929.0</ele>
        <time>2018-07-21T11:58:49Z</time>
      </trkpt>
      <trkpt lat="41.110233" lon="-3.652950">
        <ele>1931.0</ele>
        <time>2018-07-21T11:58:50Z</time>
      </trkpt>
      <trkpt lat="41.110300" lon="-3.652883">
        <ele>1932.0</ele>
        <time>2018-07-21T11:58:51Z</time>
      </trkpt>
      <trkpt lat="41.110350" lon="-3.652783">
        <ele>1933.0</ele>
        <time>2018-07-21T11:58:52Z</time>
      </trkpt>
      <trkpt lat="41.110400" lon="-3.652650">
        <ele>1932.0</ele>
        <time>2018-07-21T11:58:53Z</time>
      </trkpt>
      <trkpt lat="41.110417" lon="-3.652467">
        <ele>1931.0</ele>
        <time>2018-07-21T11:58:54Z</time>
      </trkpt>
      <trkpt lat="41.110400" lon="-3.652283">
        <ele>1931.0</ele>
        <time>2018-07-21T11:58:55Z</time>
      </trkpt>
      <trkpt lat="41.110350" lon="-3.652100">
        <ele>1932.0</ele>
        <time>2018-07-21T11:58:56Z</time>
      </trkpt>
      <trkpt lat="41.110250" lon="-3.651950">
        <ele>1932.0</ele>
        <time>2018-07-21T11:58:57Z</time>
      </trkpt>
      <trkpt lat="41.110117" lon="-3.651850">
        <ele>1932.0</ele>
        <time>2018-07-21T11:58:58Z</time>
      </trkpt>
      <trkpt lat="41.110000" lon="-3.651800">
        <ele>1933.0</ele>
        <time>2018-07-21T11:58:59Z</time>
      </trkpt>
      <trkpt lat="41.109883" lon="-3.651767">
        <ele>1934.0</ele>
        <time>2018-07-21T11:59:00Z</time>
      </trkpt>
      <trkpt lat="41.109783" lon="-3.651767">
        <ele>1936.0</ele>
        <time>2018-07-21T11:59:01Z</time>
      </trkpt>
      <trkpt lat="41.109683" lon="-3.651783">
        <ele>1938.0</ele>
        <time>2018-07-21T11:59:02Z</time>
      </trkpt>
      <trkpt lat="41.109583" lon="-3.651800">
        <ele>1941.0</ele>
        <time>2018-07-21T11:59:03Z</time>
      </trkpt>
      <trkpt lat="41.109517" lon="-3.651817">
        <ele>1944.0</ele>
        <time>2018-07-21T11:59:04Z</time>
      </trkpt>
      <trkpt lat="41.109450" lon="-3.651833">
        <ele>1948.0</ele>
        <time>2018-07-21T11:59:05Z</time>
      </trkpt>
      <trkpt lat="41.109417" lon="-3.651850">
        <ele>1950.0</ele>
        <time>2018-07-21T11:59:06Z</time>
      </trkpt>
      <trkpt lat="41.109383" lon="-3.651867">
        <ele>1952.0</ele>
        <time>2018-07-21T11:59:07Z</time>
      </trkpt>
      <trkpt lat="41.109350" lon="-3.651900">
        <ele>1952.0</ele>
        <time>2018-07-21T11:59:08Z</time>
      </trkpt>
      <trkpt lat="41.109350" lon="-3.651933">
        <ele>1953.0</ele>
        <time>2018-07-21T11:59:09Z</time>
      </trkpt>
      <trkpt lat="41.109350" lon="-3.651983">
        <ele>1953.0</ele>
        <time>2018-07-21T11:59:10Z</time>
      </trkpt>
      <trkpt lat="41.109383" lon="-3.652033">
        <ele>1954.0</ele>
        <time>2018-07-21T11:59:11Z</time>
      </trkpt>
      <trkpt lat="41.109433" lon="-3.652083">
        <ele>1956.0</ele>
        <time>2018-07-21T11:59:12Z</time>
      </trkpt>
      <trkpt lat="41.109467" lon="-3.652117">
        <ele>1959.0</ele>
        <time>2018-07-21T11:59:13Z</time>
      </trkpt>
      <trkpt lat="41.109483" lon="-3.652133">
        <ele>1961.0</ele>
        <time>2018-07-21T11:59:14Z</time>
      </trkpt>
      <trkpt lat="41.109500" lon="-3.652133">
        <ele>1963.0</ele>
        <time>2018-07-21T11:59:15Z</time>
      </trkpt>
      <trkpt lat="41.109533" lon="-3.652133">
        <ele>1963.0</ele>
        <time>2018-07-21T11:59:16Z</time>
      </trkpt>
      <trkpt lat="41.109600" lon="-3.652117">
        <ele>1962.0</ele>
        <time>2018-07-21T11:59:17Z</time>
      </trkpt>
      <trkpt lat="41.109683" lon="-3.652050">
        <ele>1962.0</ele>
        <time>2018-07-21T11:59:18Z</time>
      </trkpt>
      <trkpt lat="41.109767" lon="-3.651950">
        <ele>1964.0</ele>
        <time>2018-07-21T11:59:19Z</time>
      </trkpt>
      <trkpt lat="41.109817" lon="-3.651800">
        <ele>1966.0</ele>
        <time>2018-07-21T11:59:20Z</time>
      </trkpt>
      <trkpt lat="41.109833" lon="-3.651633">
        <ele>1968.0</ele>
        <time>2018-07-21T11:59:21Z</time>
      </trkpt>
      <trkpt lat="41.109833" lon="-3.651450">
        <ele>1969.0</ele>
        <time>2018-07-21T11:59:22Z</time>
      </trkpt>
      <trkpt lat="41.109783" lon="-3.651283">
        <ele>1969.0</ele>
        <time>2018-07-21T11:59:23Z</time>
      </trkpt>
      <trkpt lat="41.109717" lon="-3.651117">
        <ele>1969.0</ele>
        <time>2018-07-21T11:59:24Z</time>
      </trkpt>
      <trkpt lat="41.109600" lon="-3.650983">
        <ele>1968.0</ele>
        <time>2018-07-21T11:59:25Z</time>
      </trkpt>
      <trkpt lat="41.109483" lon="-3.650900">
        <ele>1969.0</ele>
        <time>2018-07-21T11:59:26Z</time>
      </trkpt>
      <trkpt lat="41.109367" lon="-3.650867">
        <ele>1971.0</ele>
        <time>2018-07-21T11:59:27Z</time>
      </trkpt>
      <trkpt lat="41.109283" lon="-3.650867">
        <ele>1973.0</ele>
        <time>2018-07-21T11:59:28Z</time>
      </trkpt>
      <trkpt lat="41.109200" lon="-3.650900">
        <ele>1975.0</ele>
        <time>2018-07-21T11:59:29Z</time>
      </trkpt>
      <trkpt lat="41.109133" lon="-3.650933">
        <ele>1976.0</ele>
        <time>2018-07-21T11:59:30Z</time>
      </trkpt>
      <trkpt lat="41.109050" lon="-3.650967">
        <ele>1978.0</ele>
        <time>2018-07-21T11:59:31Z</time>
      </trkpt>
      <trkpt lat="41.108983" lon="-3.651000">
        <ele>1981.0</ele>
        <time>2018-07-21T11:59:32Z</time>
      </trkpt>
      <trkpt lat="41.108917" lon="-3.651033">
        <ele>1983.0</ele>
        <time>2018-07-21T11:59:33Z</time>
      </trkpt>
      <trkpt lat="41.108883" lon="-3.651100">
        <ele>1985.0</ele>
        <time>2018-07-21T11:59:34Z</time>
      </trkpt>
      <trkpt lat="41.108883" lon="-3.651150">
        <ele>1986.0</ele>
        <time>2018-07-21T11:59:35Z</time>
      </trkpt>
      <trkpt lat="41.108900" lon="-3.651200">
        <ele>1987.0</ele>
        <time>2018-07-21T11:59:36Z</time>
      </trkpt>
      <trkpt lat="41.108933" lon="-3.651233">
        <ele>1989.0</ele>
        <time>2018-07-21T11:59:37Z</time>
      </trkpt>
      <trkpt lat="41.108983" lon="-3.651233">
        <ele>1990.0</ele>
        <time>2018-07-21T11:59:38Z</time>
      </trkpt>
      <trkpt lat="41.109050" lon="-3.651200">
        <ele>1992.0</ele>
        <time>2018-07-21T11:59:39Z</time>
      </trkpt>
      <trkpt lat="41.109117" lon="-3.651133">
        <ele>1993.0</ele>
        <time>2018-07-21T11:59:40Z</time>
      </trkpt>
      <trkpt lat="41.109183" lon="-3.651017">
        <ele>1995.0</ele>
        <time>2018-07-21T11:59:41Z</time>
      </trkpt>
      <trkpt lat="41.109217" lon="-3.650867">
        <ele>1996.0</ele>
        <time>2018-07-21T11:59:42Z</time>
      </trkpt>
      <trkpt lat="41.109217" lon="-3.650683">
        <ele>1997.0</ele>
        <time>2018-07-21T11:59:43Z</time>
      </trkpt>
      <trkpt lat="41.109183" lon="-3.650483">
        <ele>1998.0</ele>
        <time>2018-07-21T11:59:44Z</time>
      </trkpt>
      <trkpt lat="41.109100" lon="-3.650317">
        <ele>1998.0</ele>
        <time>2018-07-21T11:59:45Z</time>
      </trkpt>
      <trkpt lat="41.108983" lon="-3.650183">
        <ele>1999.0</ele>
        <time>2018-07-21T11:59:46Z</time>
      </trkpt>
      <trkpt lat="41.108850" lon="-3.650117">
        <ele>2001.0</ele>
        <time>2018-07-21T11:59:47Z</time>
      </trkpt>
      <trkpt lat="41.108733" lon="-3.650100">
        <ele>2004.0</ele>
        <time>2018-07-21T11:59:48Z</time>
      </trkpt>
      <trkpt lat="41.108650" lon="-3.650100">
        <ele>2007.0</ele>
        <time>2018-07-21T11:59:49Z</time>
      </trkpt>
      <trkpt lat="41.108583" lon="-3.650117">
        <ele>2010.0</ele>
        <time>2018-07-21T11:59:50Z</time>
      </trkpt>
      <trkpt lat="41.108550" lon="-3.650150">
        <ele>2011.0</ele>
        <time>2018-07-21T11:59:51Z</time>
      </trkpt>
      <trkpt lat="41.108517" lon="-3.650183">
        <ele>2011.0</ele>
        <time>2018-07-21T11:59:52Z</time>
      </trkpt>
      <trkpt lat="41.108500" lon="-3.650233">
        <ele>2012.0</ele>
        <time>2018-07-21T11:59:53Z</time>
      </trkpt>
      <trkpt lat="41.108500" lon="-3.650283">
        <ele>2012.0</ele>
        <time>2018-07-21T11:59:54Z</time>
      </trkpt>
      <trkpt lat="41.108500" lon="-3.650333">
        <ele>2013.0</ele>
        <time>2018-07-21T11:59:55Z</time>
      </trkpt>
      <trkpt lat="41.108533" lon="-3.650367">
        <ele>2013.0</ele>
        <time>2018-07-21T11:59:56Z</time>
      </trkpt>
      <trkpt lat="41.108567" lon="-3.650383">
        <ele>2013.0</ele>
        <time>2018-07-21T11:59:57Z</time>
      </trkpt>
      <trkpt lat="41.108600" lon="-3.650383">
        <ele>2013.0</ele>
        <time>2018-07-21T11:59:58Z</time>
      </trkpt>
      <trkpt lat="41.108633" lon="-3.650383">
        <ele>2012.0</ele>
        <time>2018-07-21T11:59:59Z</time>
      </trkpt>
      <trkpt lat="41.108667" lon="-3.650417">
        <ele>2011.0</ele>
        <time>2018-07-21T12:00:00Z</time>
      </trkpt>
      <trkpt lat="41.108683" lon="-3.650450">
        <ele>2010.0</ele>
        <time>2018-07-21T12:00:01Z</time>
      </trkpt>
      <trkpt lat="41.108700" lon="-3.650517">
        <ele>2009.0</ele>
        <time>2018-07-21T12:00:02Z</time>
      </trkpt>
      <trkpt lat="41.108717" lon="-3.650583">
        <ele>2009.0</ele>
        <time>2018-07-21T12:00:03Z</time>
      </trkpt>
      <trkpt lat="41.108717" lon="-3.650667">
        <ele>2011.0</ele>
        <time>2018-07-21T12:00:04Z</time>
      </trkpt>
      <trkpt lat="41.108717" lon="-3.650717">
        <ele>2012.0</ele>
        <time>2018-07-21T12:00:05Z</time>
      </trkpt>
      <trkpt lat="41.108700" lon="-3.650783">
        <ele>2012.0</ele>
        <time>2018-07-21T12:00:06Z</time>
      </trkpt>
      <trkpt lat="41.108683" lon="-3.650833">
        <ele>2012.0</ele>
        <time>2018-07-21T12:00:07Z</time>
      </trkpt>
      <trkpt lat="41.108683" lon="-3.650917">
        <ele>2011.0</ele>
        <time>2018-07-21T12:00:08Z</time>
      </trkpt>
      <trkpt lat="41.108667" lon="-3.650983">
        <ele>2012.0</ele>
        <time>2018-07-21T12:00:09Z</time>
      </trkpt>
      <trkpt lat="41.108667" lon="-3.651050">
        <ele>2012.0</ele>
        <time>2018-07-21T12:00:10Z</time>
      </trkpt>
      <trkpt lat="41.108650" lon="-3.651100">
        <ele>2013.0</ele>
        <time>2018-07-21T12:00:11Z</time>
      </trkpt>
      <trkpt lat="41.108633" lon="-3.651150">
        <ele>2014.0</ele>
        <time>2018-07-21T12:00:12Z</time>
      </trkpt>
      <trkpt lat="41.108617" lon="-3.651200">
        <ele>2014.0</ele>
        <time>2018-07-21T12:00:13Z</time>
      </trkpt>
      <trkpt lat="41.108617" lon="-3.651250">
        <ele>2014.0</ele>
        <time>2018-07-21T12:00:14Z</time>
      </trkpt>
      <trkpt lat="41.108600" lon="-3.651317">
        <ele>2013.0</ele>
        <time>2018-07-21T12:00:15Z</time>
      </trkpt>
      <trkpt lat="41.108583" lon="-3.651383">
        <ele>2012.0</ele>
        <time>2018-07-21T12:00:16Z</time>
      </trkpt>
      <trkpt lat="41.108567" lon="-3.651450">
        <ele>2012.0</ele>
        <time>2018-07-21T12:00:17Z</time>
      </trkpt>
      <trkpt lat="41.108567" lon="-3.651533">
        <ele>2012.0</ele>
        <time>2018-07-21T12:00:18Z</time>
      </trkpt>
      <trkpt lat="41.108550" lon="-3.651600">
        <ele>2012.0</ele>
        <time>2018-07-21T12:00:19Z</time>
      </trkpt>
      <trkpt lat="41.108550" lon="-3.651667">
        <ele>2012.0</ele>
        <time>2018-07-21T12:00:20Z</time>
      </trkpt>
      <trkpt lat="41.108550" lon="-3.651733">
        <ele>2011.0</ele>
        <time>2018-07-21T12:00:21Z</time>
      </trkpt>
      <trkpt lat="41.108550" lon="-3.651800">
        <ele>2010.0</ele>
        <time>2018-07-21T12:00:22Z</time>
      </trkpt>
      <trkpt lat="41.108550" lon="-3.651867">
        <ele>2008.0</ele>
        <time>2018-07-21T12:00:23Z</time>
      </trkpt>
      <trkpt lat="41.108550" lon="-3.651933">
        <ele>2005.0</ele>
        <time>2018-07-21T12:00:24Z</time>
      </trkpt>
      <trkpt lat="41.108550" lon="-3.652000">
        <ele>2003.0</ele>
        <time>2018-07-21T12:00:25Z</time>
      </trkpt>
      <trkpt lat="41.108550" lon="-3.652067">
        <ele>2000.0</ele>
        <time>2018-07-21T12:00:26Z</time>
      </trkpt>
      <trkpt lat="41.108567" lon="-3.652150">
        <ele>1997.0</ele>
        <time>2018-07-21T12:00:27Z</time>
      </trkpt>
      <trkpt lat="41.108567" lon="-3.652233">
        <ele>1996.0</ele>
        <time>2018-07-21T12:00:28Z</time>
      </trkpt>
      <trkpt lat="41.108567" lon="-3.652283">
        <ele>1995.0</ele>
        <time>2018-07-21T12:00:29Z</time>
      </trkpt>
      <trkpt lat="41.108550" lon="-3.652333">
        <ele>1994.0</ele>
        <time>2018-07-21T12:00:30Z</time>
      </trkpt>
      <trkpt lat="41.108550" lon="-3.652383">
        <ele>1991.0</ele>
        <time>2018-07-21T12:00:31Z</time>
      </trkpt>
      <trkpt lat="41.108550" lon="-3.652433">
        <ele>1988.0</ele>
        <time>2018-07-21T12:00:32Z</time>
      </trkpt>
      <trkpt lat="41.108550" lon="-3.652517">
        <ele>1984.0</ele>
        <time>2018-07-21T12:00:33Z</time>
      </trkpt>
      <trkpt lat="41.108550" lon="-3.652583">
        <ele>1981.0</ele>
        <time>2018-07-21T12:00:34Z</time>
      </trkpt>
      <trkpt lat="41.108567" lon="-3.652650">
        <ele>1979.0</ele>
        <time>2018-07-21T12:00:35Z</time>
      </trkpt>
      <trkpt lat="41.108583" lon="-3.652717">
        <ele>1976.0</ele>
        <time>2018-07-21T12:00:36Z</time>
      </trkpt>
      <trkpt lat="41.108583" lon="-3.652783">
        <ele>1974.0</ele>
        <time>2018-07-21T12:00:37Z</time>
      </trkpt>
      <trkpt lat="41.108583" lon="-3.652867">
        <ele>1972.0</ele>
        <time>2018-07-21T12:00:38Z</time>
      </trkpt>
      <trkpt lat="41.108567" lon="-3.652933">
        <ele>1970.0</ele>
        <time>2018-07-21T12:00:39Z</time>
      </trkpt>
      <trkpt lat="41.108550" lon="-3.653017">
        <ele>1968.0</ele>
        <time>2018-07-21T12:00:40Z</time>
      </trkpt>
      <trkpt lat="41.108533" lon="-3.653100">
        <ele>1966.0</ele>
        <time>2018-07-21T12:00:41Z</time>
      </trkpt>
      <trkpt lat="41.108517" lon="-3.653183">
        <ele>1964.0</ele>
        <time>2018-07-21T12:00:42Z</time>
      </trkpt>
      <trkpt lat="41.108483" lon="-3.653267">
        <ele>1962.0</ele>
        <time>2018-07-21T12:00:43Z</time>
      </trkpt>
      <trkpt lat="41.108467" lon="-3.653350">
        <ele>1961.0</ele>
        <time>2018-07-21T12:00:44Z</time>
      </trkpt>
      <trkpt lat="41.108450" lon="-3.653433">
        <ele>1959.0</ele>
        <time>2018-07-21T12:00:45Z</time>
      </trkpt>
      <trkpt lat="41.108467" lon="-3.653517">
        <ele>1957.0</ele>
        <time>2018-07-21T12:00:46Z</time>
      </trkpt>
      <trkpt lat="41.108467" lon="-3.653583">
        <ele>1954.0</ele>
        <time>2018-07-21T12:00:47Z</time>
      </trkpt>
      <trkpt lat="41.108450" lon="-3.653667">
        <ele>1951.0</ele>
        <time>2018-07-21T12:00:48Z</time>
      </trkpt>
      <trkpt lat="41.108433" lon="-3.653750">
        <ele>1948.0</ele>
        <time>2018-07-21T12:00:49Z</time>
      </trkpt>
      <trkpt lat="41.108400" lon="-3.653850">
        <ele>1945.0</ele>
        <time>2018-07-21T12:00:50Z</time>
      </trkpt>
      <trkpt lat="41.108367" lon="-3.653950">
        <ele>1942.0</ele>
        <time>2018-07-21T12:00:51Z</time>
      </trkpt>
      <trkpt lat="41.108317" lon="-3.654050">
        <ele>1939.0</ele>
        <time>2018-07-21T12:00:52Z</time>
      </trkpt>
      <trkpt lat="41.108283" lon="-3.654167">
        <ele>1938.0</ele>
        <time>2018-07-21T12:00:53Z</time>
      </trkpt>
      <trkpt lat="41.108233" lon="-3.654283">
        <ele>1939.0</ele>
        <time>2018-07-21T12:00:54Z</time>
      </trkpt>
      <trkpt lat="41.108200" lon="-3.654367">
        <ele>1941.0</ele>
        <time>2018-07-21T12:00:55Z</time>
      </trkpt>
      <trkpt lat="41.108183" lon="-3.654417">
        <ele>1944.0</ele>
        <time>2018-07-21T12:00:56Z</time>
      </trkpt>
      <trkpt lat="41.108150" lon="-3.654450">
        <ele>1944.0</ele>
        <time>2018-07-21T12:00:57Z</time>
      </trkpt>
      <trkpt lat="41.108117" lon="-3.654500">
        <ele>1942.0</ele>
        <time>2018-07-21T12:00:58Z</time>
      </trkpt>
      <trkpt lat="41.108083" lon="-3.654567">
        <ele>1940.0</ele>
        <time>2018-07-21T12:00:59Z</time>
      </trkpt>
      <trkpt lat="41.108050" lon="-3.654650">
        <ele>1938.0</ele>
        <time>2018-07-21T12:01:00Z</time>
      </trkpt>
      <trkpt lat="41.107983" lon="-3.654733">
        <ele>1936.0</ele>
        <time>2018-07-21T12:01:01Z</time>
      </trkpt>
      <trkpt lat="41.107933" lon="-3.654817">
        <ele>1934.0</ele>
        <time>2018-07-21T12:01:02Z</time>
      </trkpt>
      <trkpt lat="41.107883" lon="-3.654900">
        <ele>1934.0</ele>
        <time>2018-07-21T12:01:03Z</time>
      </trkpt>
      <trkpt lat="41.107850" lon="-3.654983">
        <ele>1932.0</ele>
        <time>2018-07-21T12:01:04Z</time>
      </trkpt>
      <trkpt lat="41.107833" lon="-3.655050">
        <ele>1930.0</ele>
        <time>2018-07-21T12:01:05Z</time>
      </trkpt>
      <trkpt lat="41.107800" lon="-3.655133">
        <ele>1928.0</ele>
        <time>2018-07-21T12:01:06Z</time>
      </trkpt>
      <trkpt lat="41.107750" lon="-3.655217">
        <ele>1926.0</ele>
        <time>2018-07-21T12:01:07Z</time>
      </trkpt>
      <trkpt lat="41.107717" lon="-3.655300">
        <ele>1924.0</ele>
        <time>2018-07-21T12:01:08Z</time>
      </trkpt>
      <trkpt lat="41.107667" lon="-3.655400">
        <ele>1923.0</ele>
        <time>2018-07-21T12:01:09Z</time>
      </trkpt>
      <trkpt lat="41.107633" lon="-3.655483">
        <ele>1922.0</ele>
        <time>2018-07-21T12:01:10Z</time>
      </trkpt>
      <trkpt lat="41.107600" lon="-3.655583">
        <ele>1920.0</ele>
        <time>2018-07-21T12:01:11Z</time>
      </trkpt>
      <trkpt lat="41.107567" lon="-3.655667">
        <ele>1919.0</ele>
        <time>2018-07-21T12:01:12Z</time>
      </trkpt>
      <trkpt lat="41.107533" lon="-3.655750">
        <ele>1917.0</ele>
        <time>2018-07-21T12:01:13Z</time>
      </trkpt>
      <trkpt lat="41.107483" lon="-3.655833">
        <ele>1916.0</ele>
        <time>2018-07-21T12:01:14Z</time>
      </trkpt>
      <trkpt lat="41.107450" lon="-3.655917">
        <ele>1915.0</ele>
        <time>2018-07-21T12:01:15Z</time>
      </trkpt>
      <trkpt lat="41.107433" lon="-3.656017">
        <ele>1914.0</ele>
        <time>2018-07-21T12:01:16Z</time>
      </trkpt>
      <trkpt lat="41.107400" lon="-3.656100">
        <ele>1913.0</ele>
        <time>2018-07-21T12:01:17Z</time>
      </trkpt>
      <trkpt lat="41.107383" lon="-3.656183">
        <ele>1912.0</ele>
        <time>2018-07-21T12:01:18Z</time>
      </trkpt>
      <trkpt lat="41.107350" lon="-3.656283">
        <ele>1911.0</ele>
        <time>2018-07-21T12:01:19Z</time>
      </trkpt>
      <trkpt lat="41.107333" lon="-3.656383">
        <ele>1911.0</ele>
        <time>2018-07-21T12:01:20Z</time>
      </trkpt>
      <trkpt lat="41.107300" lon="-3.656483">
        <ele>1911.0</ele>
        <time>2018-07-21T12:01:21Z</time>
      </trkpt>
      <trkpt lat="41.107283" lon="-3.656567">
        <ele>1911.0</ele>
        <time>2018-07-21T12:01:22Z</time>
      </trkpt>
      <trkpt lat="41.107267" lon="-3.656650">
        <ele>1911.0</ele>
        <time>2018-07-21T12:01:23Z</time>
      </trkpt>
      <trkpt lat="41.107250" lon="-3.656733">
        <ele>1911.0</ele>
        <time>2018-07-21T12:01:24Z</time>
      </trkpt>
      <trkpt lat="41.107217" lon="-3.656800">
        <ele>1910.0</ele>
        <time>2018-07-21T12:01:25Z</time>
      </trkpt>
      <trkpt lat="41.107183" lon="-3.656883">
        <ele>1908.0</ele>
        <time>2018-07-21T12:01:26Z</time>
      </trkpt>
      <trkpt lat="41.107133" lon="-3.656983">
        <ele>1907.0</ele>
        <time>2018-07-21T12:01:27Z</time>
      </trkpt>
      <trkpt lat="41.107100" lon="-3.657067">
        <ele>1906.0</ele>
        <time>2018-07-21T12:01:28Z</time>
      </trkpt>
      <trkpt lat="41.107050" lon="-3.657167">
        <ele>1906.0</ele>
        <time>2018-07-21T12:01:29Z</time>
      </trkpt>
      <trkpt lat="41.107017" lon="-3.657250">
        <ele>1905.0</ele>
        <time>2018-07-21T12:01:30Z</time>
      </trkpt>
      <trkpt lat="41.106983" lon="-3.657333">
        <ele>1905.0</ele>
        <time>2018-07-21T12:01:31Z</time>
      </trkpt>
      <trkpt lat="41.106933" lon="-3.657417">
        <ele>1905.0</ele>
        <time>2018-07-21T12:01:32Z</time>
      </trkpt>
      <trkpt lat="41.106883" lon="-3.657517">
        <ele>1904.0</ele>
        <time>2018-07-21T12:01:33Z</time>
      </trkpt>
      <trkpt lat="41.106833" lon="-3.657600">
        <ele>1903.0</ele>
        <time>2018-07-21T12:01:34Z</time>
      </trkpt>
      <trkpt lat="41.106800" lon="-3.657700">
        <ele>1903.0</ele>
        <time>2018-07-21T12:01:35Z</time>
      </trkpt>
      <trkpt lat="41.106750" lon="-3.657783">
        <ele>1902.0</ele>
        <time>2018-07-21T12:01:36Z</time>
      </trkpt>
      <trkpt lat="41.106717" lon="-3.657867">
        <ele>1902.0</ele>
        <time>2018-07-21T12:01:37Z</time>
      </trkpt>
      <trkpt lat="41.106667" lon="-3.657950">
        <ele>1902.0</ele>
        <time>2018-07-21T12:01:38Z</time>
      </trkpt>
      <trkpt lat="41.106617" lon="-3.658017">
        <ele>1901.0</ele>
        <time>2018-07-21T12:01:39Z</time>
      </trkpt>
      <trkpt lat="41.106583" lon="-3.658100">
        <ele>1900.0</ele>
        <time>2018-07-21T12:01:40Z</time>
      </trkpt>
      <trkpt lat="41.106550" lon="-3.658200">
        <ele>1899.0</ele>
        <time>2018-07-21T12:01:41Z</time>
      </trkpt>
      <trkpt lat="41.106500" lon="-3.658283">
        <ele>1897.0</ele>
        <time>2018-07-21T12:01:42Z</time>
      </trkpt>
      <trkpt lat="41.106450" lon="-3.658367">
        <ele>1896.0</ele>
        <time>2018-07-21T12:01:43Z</time>
      </trkpt>
      <trkpt lat="41.106417" lon="-3.658450">
        <ele>1895.0</ele>
        <time>2018-07-21T12:01:44Z</time>
      </trkpt>
      <trkpt lat="41.106367" lon="-3.658533">
        <ele>1894.0</ele>
        <time>2018-07-21T12:01:45Z</time>
      </trkpt>
      <trkpt lat="41.106317" lon="-3.658617">
        <ele>1893.0</ele>
        <time>2018-07-21T12:01:46Z</time>
      </trkpt>
      <trkpt lat="41.106267" lon="-3.658700">
        <ele>1891.0</ele>
        <time>2018-07-21T12:01:47Z</time>
      </trkpt>
      <trkpt lat="41.106217" lon="-3.658783">
        <ele>1889.0</ele>
        <time>2018-07-21T12:01:48Z</time>
      </trkpt>
      <trkpt lat="41.106167" lon="-3.658867">
        <ele>1888.0</ele>
        <time>2018-07-21T12:01:49Z</time>
      </trkpt>
      <trkpt lat="41.106117" lon="-3.658967">
        <ele>1886.0</ele>
        <time>2018-07-21T12:01:50Z</time>
      </trkpt>
      <trkpt lat="41.106067" lon="-3.659050">
        <ele>1885.0</ele>
        <time>2018-07-21T12:01:51Z</time>
      </trkpt>
      <trkpt lat="41.106017" lon="-3.659133">
        <ele>1884.0</ele>
        <time>2018-07-21T12:01:52Z</time>
      </trkpt>
      <trkpt lat="41.105983" lon="-3.659217">
        <ele>1882.0</ele>
        <time>2018-07-21T12:01:53Z</time>
      </trkpt>
      <trkpt lat="41.105950" lon="-3.659317">
        <ele>1881.0</ele>
        <time>2018-07-21T12:01:54Z</time>
      </trkpt>
      <trkpt lat="41.105917" lon="-3.659400">
        <ele>1880.0</ele>
        <time>2018-07-21T12:01:55Z</time>
      </trkpt>
      <trkpt lat="41.105883" lon="-3.659500">
        <ele>1880.0</ele>
        <time>2018-07-21T12:01:56Z</time>
      </trkpt>
      <trkpt lat="41.105850" lon="-3.659583">
        <ele>1880.0</ele>
        <time>2018-07-21T12:01:57Z</time>
      </trkpt>
      <trkpt lat="41.105817" lon="-3.659667">
        <ele>1880.0</ele>
        <time>2018-07-21T12:01:58Z</time>
      </trkpt>
      <trkpt lat="41.105783" lon="-3.659750">
        <ele>1879.0</ele>
        <time>2018-07-21T12:01:59Z</time>
      </trkpt>
      <trkpt lat="41.105750" lon="-3.659850">
        <ele>1878.0</ele>
        <time>2018-07-21T12:02:00Z</time>
      </trkpt>
      <trkpt lat="41.105700" lon="-3.659950">
        <ele>1876.0</ele>
        <time>2018-07-21T12:02:01Z</time>
      </trkpt>
      <trkpt lat="41.105633" lon="-3.660050">
        <ele>1875.0</ele>
        <time>2018-07-21T12:02:02Z</time>
      </trkpt>
      <trkpt lat="41.105567" lon="-3.660150">
        <ele>1876.0</ele>
        <time>2018-07-21T12:02:03Z</time>
      </trkpt>
      <trkpt lat="41.105517" lon="-3.660250">
        <ele>1875.0</ele>
        <time>2018-07-21T12:02:04Z</time>
      </trkpt>
      <trkpt lat="41.105483" lon="-3.660333">
        <ele>1874.0</ele>
        <time>2018-07-21T12:02:05Z</time>
      </trkpt>
      <trkpt lat="41.105433" lon="-3.660417">
        <ele>1873.0</ele>
        <time>2018-07-21T12:02:06Z</time>
      </trkpt>
      <trkpt lat="41.105367" lon="-3.660500">
        <ele>1871.0</ele>
        <time>2018-07-21T12:02:07Z</time>
      </trkpt>
      <trkpt lat="41.105283" lon="-3.660600">
        <ele>1869.0</ele>
        <time>2018-07-21T12:02:08Z</time>
      </trkpt>
      <trkpt lat="41.105217" lon="-3.660717">
        <ele>1868.0</ele>
        <time>2018-07-21T12:02:09Z</time>
      </trkpt>
      <trkpt lat="41.105150" lon="-3.660817">
        <ele>1868.0</ele>
        <time>2018-07-21T12:02:10Z</time>
      </trkpt>
      <trkpt lat="41.105100" lon="-3.660933">
        <ele>1869.0</ele>
        <time>2018-07-21T12:02:11Z</time>
      </trkpt>
      <trkpt lat="41.105050" lon="-3.661033">
        <ele>1870.0</ele>
        <time>2018-07-21T12:02:12Z</time>
      </trkpt>
      <trkpt lat="41.104983" lon="-3.661117">
        <ele>1870.0</ele>
        <time>2018-07-21T12:02:13Z</time>
      </trkpt>
      <trkpt lat="41.104917" lon="-3.661217">
        <ele>1870.0</ele>
        <time>2018-07-21T12:02:14Z</time>
      </trkpt>
      <trkpt lat="41.104850" lon="-3.661317">
        <ele>1870.0</ele>
        <time>2018-07-21T12:02:15Z</time>
      </trkpt>
      <trkpt lat="41.104783" lon="-3.661417">
        <ele>1871.0</ele>
        <time>2018-07-21T12:02:16Z</time>
      </trkpt>
      <trkpt lat="41.104700" lon="-3.661517">
        <ele>1872.0</ele>
        <time>2018-07-21T12:02:17Z</time>
      </trkpt>
      <trkpt lat="41.104633" lon="-3.661617">
        <ele>1875.0</ele>
        <time>2018-07-21T12:02:18Z</time>
      </trkpt>
      <trkpt lat="41.104550" lon="-3.661700">
        <ele>1879.0</ele>
        <time>2018-07-21T12:02:19Z</time>
      </trkpt>
      <trkpt lat="41.104500" lon="-3.661767">
        <ele>1883.0</ele>
        <time>2018-07-21T12:02:20Z</time>
      </trkpt>
      <trkpt lat="41.104450" lon="-3.661833">
        <ele>1887.0</ele>
        <time>2018-07-21T12:02:21Z</time>
      </trkpt>
      <trkpt lat="41.104400" lon="-3.661900">
        <ele>1890.0</ele>
        <time>2018-07-21T12:02:22Z</time>
      </trkpt>
      <trkpt lat="41.104383" lon="-3.661983">
        <ele>1892.0</ele>
        <time>2018-07-21T12:02:23Z</time>
      </trkpt>
      <trkpt lat="41.104383" lon="-3.662050">
        <ele>1893.0</ele>
        <time>2018-07-21T12:02:24Z</time>
      </trkpt>
      <trkpt lat="41.104417" lon="-3.662117">
        <ele>1895.0</ele>
        <time>2018-07-21T12:02:25Z</time>
      </trkpt>
      <trkpt lat="41.104467" lon="-3.662150">
        <ele>1896.0</ele>
        <time>2018-07-21T12:02:26Z</time>
      </trkpt>
      <trkpt lat="41.104550" lon="-3.662117">
        <ele>1897.0</ele>
        <time>2018-07-21T12:02:27Z</time>
      </trkpt>
      <trkpt lat="41.104617" lon="-3.662067">
        <ele>1898.0</ele>
        <time>2018-07-21T12:02:28Z</time>
      </trkpt>
      <trkpt lat="41.104683" lon="-3.661967">
        <ele>1899.0</ele>
        <time>2018-07-21T12:02:29Z</time>
      </trkpt>
      <trkpt lat="41.104750" lon="-3.661850">
        <ele>1901.0</ele>
        <time>2018-07-21T12:02:30Z</time>
      </trkpt>
      <trkpt lat="41.104783" lon="-3.661717">
        <ele>1903.0</ele>
        <time>2018-07-21T12:02:31Z</time>
      </trkpt>
      <trkpt lat="41.104800" lon="-3.661550">
        <ele>1904.0</ele>
        <time>2018-07-21T12:02:32Z</time>
      </trkpt>
      <trkpt lat="41.104783" lon="-3.661383">
        <ele>1905.0</ele>
        <time>2018-07-21T12:02:33Z</time>
      </trkpt>
      <trkpt lat="41.104717" lon="-3.661233">
        <ele>1906.0</ele>
        <time>2018-07-21T12:02:34Z</time>
      </trkpt>
      <trkpt lat="41.104617" lon="-3.661117">
        <ele>1906.0</ele>
        <time>2018-07-21T12:02:35Z</time>
      </trkpt>
      <trkpt lat="41.104483" lon="-3.661050">
        <ele>1907.0</ele>
        <time>2018-07-21T12:02:36Z</time>
      </trkpt>
      <trkpt lat="41.104350" lon="-3.661033">
        <ele>1908.0</ele>
        <time>2018-07-21T12:02:37Z</time>
      </trkpt>
      <trkpt lat="41.104217" lon="-3.661050">
        <ele>1910.0</ele>
        <time>2018-07-21T12:02:38Z</time>
      </trkpt>
      <trkpt lat="41.104117" lon="-3.661083">
        <ele>1913.0</ele>
        <time>2018-07-21T12:02:39Z</time>
      </trkpt>
      <trkpt lat="41.104033" lon="-3.661133">
        <ele>1916.0</ele>
        <time>2018-07-21T12:02:40Z</time>
      </trkpt>
      <trkpt lat="41.103967" lon="-3.661200">
        <ele>1918.0</ele>
        <time>2018-07-21T12:02:41Z</time>
      </trkpt>
      <trkpt lat="41.103917" lon="-3.661283">
        <ele>1919.0</ele>
        <time>2018-07-21T12:02:42Z</time>
      </trkpt>
      <trkpt lat="41.103917" lon="-3.661367">
        <ele>1920.0</ele>
        <time>2018-07-21T12:02:43Z</time>
      </trkpt>
      <trkpt lat="41.103933" lon="-3.661450">
        <ele>1921.0</ele>
        <time>2018-07-21T12:02:44Z</time>
      </trkpt>
      <trkpt lat="41.103983" lon="-3.661500">
        <ele>1922.0</ele>
        <time>2018-07-21T12:02:45Z</time>
      </trkpt>
      <trkpt lat="41.104067" lon="-3.661517">
        <ele>1925.0</ele>
        <time>2018-07-21T12:02:46Z</time>
      </trkpt>
      <trkpt lat="41.104133" lon="-3.661483">
        <ele>1927.0</ele>
        <time>2018-07-21T12:02:47Z</time>
      </trkpt>
      <trkpt lat="41.104200" lon="-3.661400">
        <ele>1929.0</ele>
        <time>2018-07-21T12:02:48Z</time>
      </trkpt>
      <trkpt lat="41.104233" lon="-3.661267">
        <ele>1931.0</ele>
        <time>2018-07-21T12:02:49Z</time>
      </trkpt>
      <trkpt lat="41.104233" lon="-3.661100">
        <ele>1932.0</ele>
        <time>2018-07-21T12:02:50Z</time>
      </trkpt>
      <trkpt lat="41.104200" lon="-3.660950">
        <ele>1934.0</ele>
        <time>2018-07-21T12:02:51Z</time>
      </trkpt>
      <trkpt lat="41.104133" lon="-3.660800">
        <ele>1935.0</ele>
        <time>2018-07-21T12:02:52Z</time>
      </trkpt>
      <trkpt lat="41.104033" lon="-3.660667">
        <ele>1937.0</ele>
        <time>2018-07-21T12:02:53Z</time>
      </trkpt>
      <trkpt lat="41.103917" lon="-3.660567">
        <ele>1937.0</ele>
        <time>2018-07-21T12:02:54Z</time>
      </trkpt>
      <trkpt lat="41.103800" lon="-3.660533">
        <ele>1938.0</ele>
        <time>2018-07-21T12:02:55Z</time>
      </trkpt>
      <trkpt lat="41.103667" lon="-3.660550">
        <ele>1938.0</ele>
        <time>2018-07-21T12:02:56Z</time>
      </trkpt>
      <trkpt lat="41.103550" lon="-3.660600">
        <ele>1939.0</ele>
        <time>2018-07-21T12:02:57Z</time>
      </trkpt>
      <trkpt lat="41.103467" lon="-3.660683">
        <ele>1941.0</ele>
        <time>2018-07-21T12:02:58Z</time>
      </trkpt>
      <trkpt lat="41.103417" lon="-3.660783">
        <ele>1942.0</ele>
        <time>2018-07-21T12:02:59Z</time>
      </trkpt>
      <trkpt lat="41.103367" lon="-3.660867">
        <ele>1944.0</ele>
        <time>2018-07-21T12:03:00Z</time>
      </trkpt>
      <trkpt lat="41.103333" lon="-3.660933">
        <ele>1946.0</ele>
        <time>2018-07-21T12:03:01Z</time>
      </trkpt>
      <trkpt lat="41.103317" lon="-3.661017">
        <ele>1947.0</ele>
        <time>2018-07-21T12:03:02Z</time>
      </trkpt>
      <trkpt lat="41.103333" lon="-3.661100">
        <ele>1948.0</ele>
        <time>2018-07-21T12:03:03Z</time>
      </trkpt>
      <trkpt lat="41.103383" lon="-3.661150">
        <ele>1948.0</ele>
        <time>2018-07-21T12:03:04Z</time>
      </trkpt>
      <trkpt lat="41.103450" lon="-3.661183">
        <ele>1948.0</ele>
        <time>2018-07-21T12:03:05Z</time>
      </trkpt>
      <trkpt lat="41.103517" lon="-3.661167">
        <ele>1949.0</ele>
        <time>2018-07-21T12:03:06Z</time>
      </trkpt>
      <trkpt lat="41.103600" lon="-3.661117">
        <ele>1952.0</ele>
        <time>2018-07-21T12:03:07Z</time>
      </trkpt>
      <trkpt lat="41.103650" lon="-3.661033">
        <ele>1955.0</ele>
        <time>2018-07-21T12:03:08Z</time>
      </trkpt>
      <trkpt lat="41.103683" lon="-3.660917">
        <ele>1957.0</ele>
        <time>2018-07-21T12:03:09Z</time>
      </trkpt>
      <trkpt lat="41.103683" lon="-3.660783">
        <ele>1958.0</ele>
        <time>2018-07-21T12:03:10Z</time>
      </trkpt>
      <trkpt lat="41.103667" lon="-3.660650">
        <ele>1959.0</ele>
        <time>2018-07-21T12:03:11Z</time>
      </trkpt>
      <trkpt lat="41.103617" lon="-3.660483">
        <ele>1958.0</ele>
        <time>2018-07-21T12:03:12Z</time>
      </trkpt>
      <trkpt lat="41.103550" lon="-3.660333">
        <ele>1959.0</ele>
        <time>2018-07-21T12:03:13Z</time>
      </trkpt>
      <trkpt lat="41.103433" lon="-3.660200">
        <ele>1960.0</ele>
        <time>2018-07-21T12:03:14Z</time>
      </trkpt>
      <trkpt lat="41.103300" lon="-3.660117">
        <ele>1961.0</ele>
        <time>2018-07-21T12:03:15Z</time>
      </trkpt>
      <trkpt lat="41.103167" lon="-3.660067">
        <ele>1963.0</ele>
        <time>2018-07-21T12:03:16Z</time>
      </trkpt>
      <trkpt lat="41.103050" lon="-3.660083">
        <ele>1963.0</ele>
        <time>2018-07-21T12:03:17Z</time>
      </trkpt>
      <trkpt lat="41.102933" lon="-3.660133">
        <ele>1964.0</ele>
        <time>2018-07-21T12:03:18Z</time>
      </trkpt>
      <trkpt lat="41.102850" lon="-3.660200">
        <ele>1964.0</ele>
        <time>2018-07-21T12:03:19Z</time>
      </trkpt>
      <trkpt lat="41.102767" lon="-3.660283">
        <ele>1964.0</ele>
        <time>2018-07-21T12:03:20Z</time>
      </trkpt>
      <trkpt lat="41.102717" lon="-3.660367">
        <ele>1965.0</ele>
        <time>2018-07-21T12:03:21Z</time>
      </trkpt>
      <trkpt lat="41.102683" lon="-3.660483">
        <ele>1965.0</ele>
        <time>2018-07-21T12:03:22Z</time>
      </trkpt>
      <trkpt lat="41.102650" lon="-3.660583">
        <ele>1966.0</ele>
        <time>2018-07-21T12:03:23Z</time>
      </trkpt>
      <trkpt lat="41.102633" lon="-3.660683">
        <ele>1967.0</ele>
        <time>2018-07-21T12:03:24Z</time>
      </trkpt>
      <trkpt lat="41.102633" lon="-3.660783">
        <ele>1969.0</ele>
        <time>2018-07-21T12:03:25Z</time>
      </trkpt>
      <trkpt lat="41.102633" lon="-3.660867">
        <ele>1970.0</ele>
        <time>2018-07-21T12:03:26Z</time>
      </trkpt>
      <trkpt lat="41.102633" lon="-3.660950">
        <ele>1972.0</ele>
        <time>2018-07-21T12:03:27Z</time>
      </trkpt>
      <trkpt lat="41.102650" lon="-3.661000">
        <ele>1973.0</ele>
        <time>2018-07-21T12:03:28Z</time>
      </trkpt>
      <trkpt lat="41.102683" lon="-3.661033">
        <ele>1974.0</ele>
        <time>2018-07-21T12:03:29Z</time>
      </trkpt>
      <trkpt lat="41.102733" lon="-3.661033">
        <ele>1974.0</ele>
        <time>2018-07-21T12:03:30Z</time>
      </trkpt>
      <trkpt lat="41.102800" lon="-3.660983">
        <ele>1974.0</ele>
        <time>2018-07-21T12:03:31Z</time>
      </trkpt>
      <trkpt lat="41.102867" lon="-3.660900">
        <ele>1974.0</ele>
        <time>2018-07-21T12:03:32Z</time>
      </trkpt>
      <trkpt lat="41.102900" lon="-3.660783">
        <ele>1975.0</ele>
        <time>2018-07-21T12:03:33Z</time>
      </trkpt>
      <trkpt lat="41.102917" lon="-3.660633">
        <ele>1975.0</ele>
        <time>2018-07-21T12:03:34Z</time>
      </trkpt>
      <trkpt lat="41.102900" lon="-3.660467">
        <ele>1975.0</ele>
        <time>2018-07-21T12:03:35Z</time>
      </trkpt>
      <trkpt lat="41.102850" lon="-3.660300">
        <ele>1976.0</ele>
        <time>2018-07-21T12:03:36Z</time>
      </trkpt>
      <trkpt lat="41.102750" lon="-3.660150">
        <ele>1977.0</ele>
        <time>2018-07-21T12:03:37Z</time>
      </trkpt>
      <trkpt lat="41.102633" lon="-3.660050">
        <ele>1978.0</ele>
        <time>2018-07-21T12:03:38Z</time>
      </trkpt>
      <trkpt lat="41.102500" lon="-3.659983">
        <ele>1979.0</ele>
        <time>2018-07-21T12:03:39Z</time>
      </trkpt>
      <trkpt lat="41.102367" lon="-3.659983">
        <ele>1980.0</ele>
        <time>2018-07-21T12:03:40Z</time>
      </trkpt>
      <trkpt lat="41.102267" lon="-3.660017">
        <ele>1981.0</ele>
        <time>2018-07-21T12:03:41Z</time>
      </trkpt>
      <trkpt lat="41.102167" lon="-3.660067">
        <ele>1982.0</ele>
        <time>2018-07-21T12:03:42Z</time>
      </trkpt>
      <trkpt lat="41.102083" lon="-3.660133">
        <ele>1983.0</ele>
        <time>2018-07-21T12:03:43Z</time>
      </trkpt>
      <trkpt lat="41.102033" lon="-3.660217">
        <ele>1983.0</ele>
        <time>2018-07-21T12:03:44Z</time>
      </trkpt>
      <trkpt lat="41.101983" lon="-3.660317">
        <ele>1984.0</ele>
        <time>2018-07-21T12:03:45Z</time>
      </trkpt>
      <trkpt lat="41.101950" lon="-3.660417">
        <ele>1984.0</ele>
        <time>2018-07-21T12:03:46Z</time>
      </trkpt>
      <trkpt lat="41.101917" lon="-3.660500">
        <ele>1985.0</ele>
        <time>2018-07-21T12:03:47Z</time>
      </trkpt>
      <trkpt lat="41.101900" lon="-3.660600">
        <ele>1987.0</ele>
        <time>2018-07-21T12:03:48Z</time>
      </trkpt>
      <trkpt lat="41.101867" lon="-3.660683">
        <ele>1990.0</ele>
        <time>2018-07-21T12:03:49Z</time>
      </trkpt>
      <trkpt lat="41.101833" lon="-3.660783">
        <ele>1992.0</ele>
        <time>2018-07-21T12:03:50Z</time>
      </trkpt>
      <trkpt lat="41.101783" lon="-3.660867">
        <ele>1995.0</ele>
        <time>2018-07-21T12:03:51Z</time>
      </trkpt>
      <trkpt lat="41.101733" lon="-3.660933">
        <ele>1997.0</ele>
        <time>2018-07-21T12:03:52Z</time>
      </trkpt>
      <trkpt lat="41.101683" lon="-3.661000">
        <ele>1998.0</ele>
        <time>2018-07-21T12:03:53Z</time>
      </trkpt>
      <trkpt lat="41.101650" lon="-3.661067">
        <ele>1999.0</ele>
        <time>2018-07-21T12:03:54Z</time>
      </trkpt>
      <trkpt lat="41.101617" lon="-3.661133">
        <ele>2000.0</ele>
        <time>2018-07-21T12:03:55Z</time>
      </trkpt>
      <trkpt lat="41.101567" lon="-3.661217">
        <ele>2001.0</ele>
        <time>2018-07-21T12:03:56Z</time>
      </trkpt>
      <trkpt lat="41.101533" lon="-3.661283">
        <ele>2002.0</ele>
        <time>2018-07-21T12:03:57Z</time>
      </trkpt>
      <trkpt lat="41.101500" lon="-3.661367">
        <ele>2004.0</ele>
        <time>2018-07-21T12:03:58Z</time>
      </trkpt>
      <trkpt lat="41.101467" lon="-3.661417">
        <ele>2006.0</ele>
        <time>2018-07-21T12:03:59Z</time>
      </trkpt>
      <trkpt lat="41.101483" lon="-3.661483">
        <ele>2006.0</ele>
        <time>2018-07-21T12:04:00Z</time>
      </trkpt>
      <trkpt lat="41.101517" lon="-3.661517">
        <ele>2006.0</ele>
        <time>2018-07-21T12:04:01Z</time>
      </trkpt>
      <trkpt lat="41.101567" lon="-3.661517">
        <ele>2006.0</ele>
        <time>2018-07-21T12:04:02Z</time>
      </trkpt>
      <trkpt lat="41.101633" lon="-3.661517">
        <ele>2007.0</ele>
        <time>2018-07-21T12:04:03Z</time>
      </trkpt>
      <trkpt lat="41.101700" lon="-3.661467">
        <ele>2009.0</ele>
        <time>2018-07-21T12:04:04Z</time>
      </trkpt>
      <trkpt lat="41.101750" lon="-3.661400">
        <ele>2011.0</ele>
        <time>2018-07-21T12:04:05Z</time>
      </trkpt>
      <trkpt lat="41.101783" lon="-3.661317">
        <ele>2012.0</ele>
        <time>2018-07-21T12:04:06Z</time>
      </trkpt>
      <trkpt lat="41.101817" lon="-3.661183">
        <ele>2012.0</ele>
        <time>2018-07-21T12:04:07Z</time>
      </trkpt>
      <trkpt lat="41.101817" lon="-3.661033">
        <ele>2011.0</ele>
        <time>2018-07-21T12:04:08Z</time>
      </trkpt>
      <trkpt lat="41.101800" lon="-3.660883">
        <ele>2011.0</ele>
        <time>2018-07-21T12:04:09Z</time>
      </trkpt>
      <trkpt lat="41.101767" lon="-3.660717">
        <ele>2010.0</ele>
        <time>2018-07-21T12:04:10Z</time>
      </trkpt>
      <trkpt lat="41.101700" lon="-3.660550">
        <ele>2010.0</ele>
        <time>2018-07-21T12:04:11Z</time>
      </trkpt>
      <trkpt lat="41.101617" lon="-3.660400">
        <ele>2009.0</ele>
        <time>2018-07-21T12:04:12Z</time>
      </trkpt>
      <trkpt lat="41.101500" lon="-3.660267">
        <ele>2009.0</ele>
        <time>2018-07-21T12:04:13Z</time>
      </trkpt>
      <trkpt lat="41.101367" lon="-3.660183">
        <ele>2011.0</ele>
        <time>2018-07-21T12:04:14Z</time>
      </trkpt>
      <trkpt lat="41.101250" lon="-3.660133">
        <ele>2012.0</ele>
        <time>2018-07-21T12:04:15Z</time>
      </trkpt>
      <trkpt lat="41.101133" lon="-3.660133">
        <ele>2013.0</ele>
        <time>2018-07-21T12:04:16Z</time>
      </trkpt>
      <trkpt lat="41.101033" lon="-3.660167">
        <ele>2013.0</ele>
        <time>2018-07-21T12:04:17Z</time>
      </trkpt>
      <trkpt lat="41.100967" lon="-3.660233">
        <ele>2013.0</ele>
        <time>2018-07-21T12:04:18Z</time>
      </trkpt>
      <trkpt lat="41.100900" lon="-3.660300">
        <ele>2015.0</ele>
        <time>2018-07-21T12:04:19Z</time>
      </trkpt>
      <trkpt lat="41.100867" lon="-3.660367">
        <ele>2016.0</ele>
        <time>2018-07-21T12:04:20Z</time>
      </trkpt>
      <trkpt lat="41.100833" lon="-3.660417">
        <ele>2017.0</ele>
        <time>2018-07-21T12:04:21Z</time>
      </trkpt>
      <trkpt lat="41.100817" lon="-3.660483">
        <ele>2018.0</ele>
        <time>2018-07-21T12:04:22Z</time>
      </trkpt>
      <trkpt lat="41.100783" lon="-3.660567">
        <ele>2019.0</ele>
        <time>2018-07-21T12:04:23Z</time>
      </trkpt>
      <trkpt lat="41.100767" lon="-3.660633">
        <ele>2020.0</ele>
        <time>2018-07-21T12:04:24Z</time>
      </trkpt>
      <trkpt lat="41.100733" lon="-3.660717">
        <ele>2022.0</ele>
        <time>2018-07-21T12:04:25Z</time>
      </trkpt>
      <trkpt lat="41.100717" lon="-3.660783">
        <ele>2024.0</ele>
        <time>2018-07-21T12:04:26Z</time>
      </trkpt>
      <trkpt lat="41.100683" lon="-3.660850">
        <ele>2025.0</ele>
        <time>2018-07-21T12:04:27Z</time>
      </trkpt>
      <trkpt lat="41.100633" lon="-3.660917">
        <ele>2025.0</ele>
        <time>2018-07-21T12:04:28Z</time>
      </trkpt>
      <trkpt lat="41.100583" lon="-3.661000">
        <ele>2025.0</ele>
        <time>2018-07-21T12:04:29Z</time>
      </trkpt>
      <trkpt lat="41.100533" lon="-3.661083">
        <ele>2024.0</ele>
        <time>2018-07-21T12:04:30Z</time>
      </trkpt>
      <trkpt lat="41.100483" lon="-3.661167">
        <ele>2024.0</ele>
        <time>2018-07-21T12:04:31Z</time>
      </trkpt>
      <trkpt lat="41.100450" lon="-3.661233">
        <ele>2025.0</ele>
        <time>2018-07-21T12:04:32Z</time>
      </trkpt>
      <trkpt lat="41.100417" lon="-3.661317">
        <ele>2025.0</ele>
        <time>2018-07-21T12:04:33Z</time>
      </trkpt>
      <trkpt lat="41.100400" lon="-3.661383">
        <ele>2025.0</ele>
        <time>2018-07-21T12:04:34Z</time>
      </trkpt>
      <trkpt lat="41.100383" lon="-3.661467">
        <ele>2024.0</ele>
        <time>2018-07-21T12:04:35Z</time>
      </trkpt>
      <trkpt lat="41.100383" lon="-3.661533">
        <ele>2023.0</ele>
        <time>2018-07-21T12:04:36Z</time>
      </trkpt>
      <trkpt lat="41.100400" lon="-3.661617">
        <ele>2023.0</ele>
        <time>2018-07-21T12:04:37Z</time>
      </trkpt>
      <trkpt lat="41.100400" lon="-3.661683">
        <ele>2022.0</ele>
        <time>2018-07-21T12:04:38Z</time>
      </trkpt>
      <trkpt lat="41.100417" lon="-3.661750">
        <ele>2022.0</ele>
        <time>2018-07-21T12:04:39Z</time>
      </trkpt>
      <trkpt lat="41.100417" lon="-3.661817">
        <ele>2021.0</ele>
        <time>2018-07-21T12:04:40Z</time>
      </trkpt>
      <trkpt lat="41.100417" lon="-3.661883">
        <ele>2021.0</ele>
        <time>2018-07-21T12:04:41Z</time>
      </trkpt>
      <trkpt lat="41.100383" lon="-3.661967">
        <ele>2020.0</ele>
        <time>2018-07-21T12:04:42Z</time>
      </trkpt>
      <trkpt lat="41.100350" lon="-3.662033">
        <ele>2020.0</ele>
        <time>2018-07-21T12:04:43Z</time>
      </trkpt>
      <trkpt lat="41.100300" lon="-3.662100">
        <ele>2019.0</ele>
        <time>2018-07-21T12:04:44Z</time>
      </trkpt>
      <trkpt lat="41.100250" lon="-3.662167">
        <ele>2017.0</ele>
        <time>2018-07-21T12:04:45Z</time>
      </trkpt>
      <trkpt lat="41.100183" lon="-3.662217">
        <ele>2015.0</ele>
        <time>2018-07-21T12:04:46Z</time>
      </trkpt>
      <trkpt lat="41.100133" lon="-3.662267">
        <ele>2012.0</ele>
        <time>2018-07-21T12:04:47Z</time>
      </trkpt>
      <trkpt lat="41.100083" lon="-3.662300">
        <ele>2008.0</ele>
        <time>2018-07-21T12:04:48Z</time>
      </trkpt>
      <trkpt lat="41.100050" lon="-3.662367">
        <ele>2003.0</ele>
        <time>2018-07-21T12:04:49Z</time>
      </trkpt>
      <trkpt lat="41.100033" lon="-3.662433">
        <ele>1999.0</ele>
        <time>2018-07-21T12:04:50Z</time>
      </trkpt>
      <trkpt lat="41.100017" lon="-3.662517">
        <ele>1995.0</ele>
        <time>2018-07-21T12:04:51Z</time>
      </trkpt>
      <trkpt lat="41.100000" lon="-3.662600">
        <ele>1992.0</ele>
        <time>2018-07-21T12:04:52Z</time>
      </trkpt>
      <trkpt lat="41.099967" lon="-3.662683">
        <ele>1989.0</ele>
        <time>2018-07-21T12:04:53Z</time>
      </trkpt>
      <trkpt lat="41.099950" lon="-3.662767">
        <ele>1987.0</ele>
        <time>2018-07-21T12:04:54Z</time>
      </trkpt>
      <trkpt lat="41.099917" lon="-3.662833">
        <ele>1984.0</ele>
        <time>2018-07-21T12:04:55Z</time>
      </trkpt>
      <trkpt lat="41.099900" lon="-3.662917">
        <ele>1982.0</ele>
        <time>2018-07-21T12:04:56Z</time>
      </trkpt>
      <trkpt lat="41.099917" lon="-3.663000">
        <ele>1979.0</ele>
        <time>2018-07-21T12:04:57Z</time>
      </trkpt>
      <trkpt lat="41.099933" lon="-3.663067">
        <ele>1977.0</ele>
        <time>2018-07-21T12:04:58Z</time>
      </trkpt>
      <trkpt lat="41.099950" lon="-3.663150">
        <ele>1975.0</ele>
        <time>2018-07-21T12:04:59Z</time>
      </trkpt>
      <trkpt lat="41.099983" lon="-3.663217">
        <ele>1973.0</ele>
        <time>2018-07-21T12:05:00Z</time>
      </trkpt>
      <trkpt lat="41.099983" lon="-3.663300">
        <ele>1971.0</ele>
        <time>2018-07-21T12:05:01Z</time>
      </trkpt>
      <trkpt lat="41.100000" lon="-3.663367">
        <ele>1970.0</ele>
        <time>2018-07-21T12:05:02Z</time>
      </trkpt>
      <trkpt lat="41.099983" lon="-3.663433">
        <ele>1970.0</ele>
        <time>2018-07-21T12:05:03Z</time>
      </trkpt>
      <trkpt lat="41.099983" lon="-3.663483">
        <ele>1970.0</ele>
        <time>2018-07-21T12:05:04Z</time>
      </trkpt>
      <trkpt lat="41.099983" lon="-3.663517">
        <ele>1969.0</ele>
        <time>2018-07-21T12:05:05Z</time>
      </trkpt>
      <trkpt lat="41.099967" lon="-3.663550">
        <ele>1967.0</ele>
        <time>2018-07-21T12:05:06Z</time>
      </trkpt>
      <trkpt lat="41.099950" lon="-3.663600">
        <ele>1966.0</ele>
        <time>2018-07-21T12:05:07Z</time>
      </trkpt>
      <trkpt lat="41.099933" lon="-3.663667">
        <ele>1963.0</ele>
        <time>2018-07-21T12:05:08Z</time>
      </trkpt>
      <trkpt lat="41.099917" lon="-3.663733">
        <ele>1962.0</ele>
        <time>2018-07-21T12:05:09Z</time>
      </trkpt>
      <trkpt lat="41.099900" lon="-3.663800">
        <ele>1961.0</ele>
        <time>2018-07-21T12:05:10Z</time>
      </trkpt>
      <trkpt lat="41.099867" lon="-3.663850">
        <ele>1961.0</ele>
        <time>2018-07-21T12:05:11Z</time>
      </trkpt>
      <trkpt lat="41.099833" lon="-3.663900">
        <ele>1960.0</ele>
        <time>2018-07-21T12:05:12Z</time>
      </trkpt>
      <trkpt lat="41.099817" lon="-3.663933">
        <ele>1960.0</ele>
        <time>2018-07-21T12:05:13Z</time>
      </trkpt>
      <trkpt lat="41.099783" lon="-3.663983">
        <ele>1958.0</ele>
        <time>2018-07-21T12:05:14Z</time>
      </trkpt>
      <trkpt lat="41.099750" lon="-3.664033">
        <ele>1957.0</ele>
        <time>2018-07-21T12:05:15Z</time>
      </trkpt>
      <trkpt lat="41.099700" lon="-3.664100">
        <ele>1955.0</ele>
        <time>2018-07-21T12:05:16Z</time>
      </trkpt>
      <trkpt lat="41.099667" lon="-3.664167">
        <ele>1954.0</ele>
        <time>2018-07-21T12:05:17Z</time>
      </trkpt>
      <trkpt lat="41.099617" lon="-3.664250">
        <ele>1954.0</ele>
        <time>2018-07-21T12:05:18Z</time>
      </trkpt>
      <trkpt lat="41.099567" lon="-3.664317">
        <ele>1953.0</ele>
        <time>2018-07-21T12:05:19Z</time>
      </trkpt>
      <trkpt lat="41.099533" lon="-3.664383">
        <ele>1952.0</ele>
        <time>2018-07-21T12:05:20Z</time>
      </trkpt>
      <trkpt lat="41.099500" lon="-3.664450">
        <ele>1951.0</ele>
        <time>2018-07-21T12:05:21Z</time>
      </trkpt>
      <trkpt lat="41.099483" lon="-3.664517">
        <ele>1949.0</ele>
        <time>2018-07-21T12:05:22Z</time>
      </trkpt>
      <trkpt lat="41.099450" lon="-3.664583">
        <ele>1947.0</ele>
        <time>2018-07-21T12:05:23Z</time>
      </trkpt>
      <trkpt lat="41.099400" lon="-3.664667">
        <ele>1945.0</ele>
        <time>2018-07-21T12:05:24Z</time>
      </trkpt>
      <trkpt lat="41.099367" lon="-3.664733">
        <ele>1943.0</ele>
        <time>2018-07-21T12:05:25Z</time>
      </trkpt>
      <trkpt lat="41.099333" lon="-3.664800">
        <ele>1941.0</ele>
        <time>2018-07-21T12:05:26Z</time>
      </trkpt>
      <trkpt lat="41.099283" lon="-3.664867">
        <ele>1939.0</ele>
        <time>2018-07-21T12:05:27Z</time>
      </trkpt>
      <trkpt lat="41.099267" lon="-3.664933">
        <ele>1936.0</ele>
        <time>2018-07-21T12:05:28Z</time>
      </trkpt>
      <trkpt lat="41.099233" lon="-3.665000">
        <ele>1934.0</ele>
        <time>2018-07-21T12:05:29Z</time>
      </trkpt>
      <trkpt lat="41.099200" lon="-3.665067">
        <ele>1932.0</ele>
        <time>2018-07-21T12:05:30Z</time>
      </trkpt>
      <trkpt lat="41.099167" lon="-3.665133">
        <ele>1930.0</ele>
        <time>2018-07-21T12:05:31Z</time>
      </trkpt>
      <trkpt lat="41.099133" lon="-3.665183">
        <ele>1929.0</ele>
        <time>2018-07-21T12:05:32Z</time>
      </trkpt>
      <trkpt lat="41.099117" lon="-3.665250">
        <ele>1927.0</ele>
        <time>2018-07-21T12:05:33Z</time>
      </trkpt>
      <trkpt lat="41.099083" lon="-3.665317">
        <ele>1926.0</ele>
        <time>2018-07-21T12:05:34Z</time>
      </trkpt>
      <trkpt lat="41.099067" lon="-3.665400">
        <ele>1924.0</ele>
        <time>2018-07-21T12:05:35Z</time>
      </trkpt>
      <trkpt lat="41.099050" lon="-3.665483">
        <ele>1923.0</ele>
        <time>2018-07-21T12:05:36Z</time>
      </trkpt>
      <trkpt lat="41.099033" lon="-3.665550">
        <ele>1922.0</ele>
        <time>2018-07-21T12:05:37Z</time>
      </trkpt>
      <trkpt lat="41.099017" lon="-3.665617">
        <ele>1921.0</ele>
        <time>2018-07-21T12:05:38Z</time>
      </trkpt>
      <trkpt lat="41.099000" lon="-3.665700">
        <ele>1919.0</ele>
        <time>2018-07-21T12:05:39Z</time>
      </trkpt>
      <trkpt lat="41.098983" lon="-3.665783">
        <ele>1917.0</ele>
        <time>2018-07-21T12:05:40Z</time>
      </trkpt>
      <trkpt lat="41.098967" lon="-3.665867">
        <ele>1916.0</ele>
        <time>2018-07-21T12:05:41Z</time>
      </trkpt>
      <trkpt lat="41.098933" lon="-3.665950">
        <ele>1915.0</ele>
        <time>2018-07-21T12:05:42Z</time>
      </trkpt>
      <trkpt lat="41.098917" lon="-3.666050">
        <ele>1915.0</ele>
        <time>2018-07-21T12:05:43Z</time>
      </trkpt>
      <trkpt lat="41.098900" lon="-3.666133">
        <ele>1915.0</ele>
        <time>2018-07-21T12:05:44Z</time>
      </trkpt>
      <trkpt lat="41.098900" lon="-3.666200">
        <ele>1915.0</ele>
        <time>2018-07-21T12:05:45Z</time>
      </trkpt>
      <trkpt lat="41.098900" lon="-3.666250">
        <ele>1915.0</ele>
        <time>2018-07-21T12:05:46Z</time>
      </trkpt>
      <trkpt lat="41.098900" lon="-3.666317">
        <ele>1913.0</ele>
        <time>2018-07-21T12:05:47Z</time>
      </trkpt>
      <trkpt lat="41.098867" lon="-3.666383">
        <ele>1911.0</ele>
        <time>2018-07-21T12:05:48Z</time>
      </trkpt>
      <trkpt lat="41.098850" lon="-3.666467">
        <ele>1909.0</ele>
        <time>2018-07-21T12:05:49Z</time>
      </trkpt>
      <trkpt lat="41.098817" lon="-3.666550">
        <ele>1907.0</ele>
        <time>2018-07-21T12:05:50Z</time>
      </trkpt>
      <trkpt lat="41.098783" lon="-3.666633">
        <ele>1906.0</ele>
        <time>2018-07-21T12:05:51Z</time>
      </trkpt>
      <trkpt lat="41.098767" lon="-3.666717">
        <ele>1906.0</ele>
        <time>2018-07-21T12:05:52Z</time>
      </trkpt>
      <trkpt lat="41.098767" lon="-3.666800">
        <ele>1906.0</ele>
        <time>2018-07-21T12:05:53Z</time>
      </trkpt>
      <trkpt lat="41.098750" lon="-3.666867">
        <ele>1906.0</ele>
        <time>2018-07-21T12:05:54Z</time>
      </trkpt>
      <trkpt lat="41.098750" lon="-3.666933">
        <ele>1906.0</ele>
        <time>2018-07-21T12:05:55Z</time>
      </trkpt>
      <trkpt lat="41.098750" lon="-3.667000">
        <ele>1906.0</ele>
        <time>2018-07-21T12:05:56Z</time>
      </trkpt>
      <trkpt lat="41.098750" lon="-3.667067">
        <ele>1906.0</ele>
        <time>2018-07-21T12:05:57Z</time>
      </trkpt>
      <trkpt lat="41.098733" lon="-3.667133">
        <ele>1904.0</ele>
        <time>2018-07-21T12:05:58Z</time>
      </trkpt>
      <trkpt lat="41.098717" lon="-3.667200">
        <ele>1902.0</ele>
        <time>2018-07-21T12:05:59Z</time>
      </trkpt>
      <trkpt lat="41.098700" lon="-3.667267">
        <ele>1901.0</ele>
        <time>2018-07-21T12:06:00Z</time>
      </trkpt>
      <trkpt lat="41.098683" lon="-3.667350">
        <ele>1899.0</ele>
        <time>2018-07-21T12:06:01Z</time>
      </trkpt>
      <trkpt lat="41.098667" lon="-3.667417">
        <ele>1897.0</ele>
        <time>2018-07-21T12:06:02Z</time>
      </trkpt>
      <trkpt lat="41.098650" lon="-3.667483">
        <ele>1896.0</ele>
        <time>2018-07-21T12:06:03Z</time>
      </trkpt>
      <trkpt lat="41.098633" lon="-3.667567">
        <ele>1894.0</ele>
        <time>2018-07-21T12:06:04Z</time>
      </trkpt>
      <trkpt lat="41.098633" lon="-3.667633">
        <ele>1893.0</ele>
        <time>2018-07-21T12:06:05Z</time>
      </trkpt>
      <trkpt lat="41.098633" lon="-3.667700">
        <ele>1891.0</ele>
        <time>2018-07-21T12:06:06Z</time>
      </trkpt>
      <trkpt lat="41.098633" lon="-3.667783">
        <ele>1889.0</ele>
        <time>2018-07-21T12:06:07Z</time>
      </trkpt>
      <trkpt lat="41.098633" lon="-3.667850">
        <ele>1887.0</ele>
        <time>2018-07-21T12:06:08Z</time>
      </trkpt>
      <trkpt lat="41.098633" lon="-3.667933">
        <ele>1885.0</ele>
        <time>2018-07-21T12:06:09Z</time>
      </trkpt>
      <trkpt lat="41.098633" lon="-3.668000">
        <ele>1884.0</ele>
        <time>2018-07-21T12:06:10Z</time>
      </trkpt>
      <trkpt lat="41.098633" lon="-3.668083">
        <ele>1882.0</ele>
        <time>2018-07-21T12:06:11Z</time>
      </trkpt>
      <trkpt lat="41.098633" lon="-3.668167">
        <ele>1881.0</ele>
        <time>2018-07-21T12:06:12Z</time>
      </trkpt>
      <trkpt lat="41.098633" lon="-3.668233">
        <ele>1880.0</ele>
        <time>2018-07-21T12:06:13Z</time>
      </trkpt>
      <trkpt lat="41.098617" lon="-3.668300">
        <ele>1878.0</ele>
        <time>2018-07-21T12:06:14Z</time>
      </trkpt>
      <trkpt lat="41.098600" lon="-3.668350">
        <ele>1876.0</ele>
        <time>2018-07-21T12:06:15Z</time>
      </trkpt>
      <trkpt lat="41.098583" lon="-3.668417">
        <ele>1874.0</ele>
        <time>2018-07-21T12:06:16Z</time>
      </trkpt>
      <trkpt lat="41.098567" lon="-3.668483">
        <ele>1871.0</ele>
        <time>2018-07-21T12:06:17Z</time>
      </trkpt>
      <trkpt lat="41.098550" lon="-3.668550">
        <ele>1868.0</ele>
        <time>2018-07-21T12:06:18Z</time>
      </trkpt>
      <trkpt lat="41.098517" lon="-3.668633">
        <ele>1866.0</ele>
        <time>2018-07-21T12:06:19Z</time>
      </trkpt>
      <trkpt lat="41.098500" lon="-3.668717">
        <ele>1864.0</ele>
        <time>2018-07-21T12:06:20Z</time>
      </trkpt>
      <trkpt lat="41.098483" lon="-3.668783">
        <ele>1863.0</ele>
        <time>2018-07-21T12:06:21Z</time>
      </trkpt>
      <trkpt lat="41.098467" lon="-3.668850">
        <ele>1860.0</ele>
        <time>2018-07-21T12:06:22Z</time>
      </trkpt>
      <trkpt lat="41.098433" lon="-3.668933">
        <ele>1858.0</ele>
        <time>2018-07-21T12:06:23Z</time>
      </trkpt>
      <trkpt lat="41.098433" lon="-3.669017">
        <ele>1855.0</ele>
        <time>2018-07-21T12:06:24Z</time>
      </trkpt>
      <trkpt lat="41.098433" lon="-3.669100">
        <ele>1853.0</ele>
        <time>2018-07-21T12:06:25Z</time>
      </trkpt>
      <trkpt lat="41.098433" lon="-3.669183">
        <ele>1851.0</ele>
        <time>2018-07-21T12:06:26Z</time>
      </trkpt>
      <trkpt lat="41.098417" lon="-3.669267">
        <ele>1850.0</ele>
        <time>2018-07-21T12:06:27Z</time>
      </trkpt>
      <trkpt lat="41.098383" lon="-3.669350">
        <ele>1848.0</ele>
        <time>2018-07-21T12:06:28Z</time>
      </trkpt>
      <trkpt lat="41.098350" lon="-3.669417">
        <ele>1847.0</ele>
        <time>2018-07-21T12:06:29Z</time>
      </trkpt>
      <trkpt lat="41.098300" lon="-3.669500">
        <ele>1846.0</ele>
        <time>2018-07-21T12:06:30Z</time>
      </trkpt>
      <trkpt lat="41.098267" lon="-3.669567">
        <ele>1846.0</ele>
        <time>2018-07-21T12:06:31Z</time>
      </trkpt>
      <trkpt lat="41.098233" lon="-3.669617">
        <ele>1845.0</ele>
        <time>2018-07-21T12:06:32Z</time>
      </trkpt>
      <trkpt lat="41.098217" lon="-3.669683">
        <ele>1843.0</ele>
        <time>2018-07-21T12:06:33Z</time>
      </trkpt>
      <trkpt lat="41.098183" lon="-3.669750">
        <ele>1842.0</ele>
        <time>2018-07-21T12:06:34Z</time>
      </trkpt>
      <trkpt lat="41.098150" lon="-3.669833">
        <ele>1840.0</ele>
        <time>2018-07-21T12:06:35Z</time>
      </trkpt>
      <trkpt lat="41.098117" lon="-3.669900">
        <ele>1838.0</ele>
        <time>2018-07-21T12:06:36Z</time>
      </trkpt>
      <trkpt lat="41.098067" lon="-3.670000">
        <ele>1836.0</ele>
        <time>2018-07-21T12:06:37Z</time>
      </trkpt>
      <trkpt lat="41.098033" lon="-3.670083">
        <ele>1834.0</ele>
        <time>2018-07-21T12:06:38Z</time>
      </trkpt>
      <trkpt lat="41.098017" lon="-3.670167">
        <ele>1834.0</ele>
        <time>2018-07-21T12:06:39Z</time>
      </trkpt>
      <trkpt lat="41.098000" lon="-3.670250">
        <ele>1834.0</ele>
        <time>2018-07-21T12:06:40Z</time>
      </trkpt>
      <trkpt lat="41.097967" lon="-3.670350">
        <ele>1833.0</ele>
        <time>2018-07-21T12:06:41Z</time>
      </trkpt>
      <trkpt lat="41.097933" lon="-3.670450">
        <ele>1831.0</ele>
        <time>2018-07-21T12:06:42Z</time>
      </trkpt>
      <trkpt lat="41.097883" lon="-3.670550">
        <ele>1830.0</ele>
        <time>2018-07-21T12:06:43Z</time>
      </trkpt>
      <trkpt lat="41.097850" lon="-3.670650">
        <ele>1830.0</ele>
        <time>2018-07-21T12:06:44Z</time>
      </trkpt>
      <trkpt lat="41.097817" lon="-3.670733">
        <ele>1829.0</ele>
        <time>2018-07-21T12:06:45Z</time>
      </trkpt>
      <trkpt lat="41.097783" lon="-3.670817">
        <ele>1829.0</ele>
        <time>2018-07-21T12:06:46Z</time>
      </trkpt>
      <trkpt lat="41.097767" lon="-3.670900">
        <ele>1827.0</ele>
        <time>2018-07-21T12:06:47Z</time>
      </trkpt>
      <trkpt lat="41.097750" lon="-3.671000">
        <ele>1826.0</ele>
        <time>2018-07-21T12:06:48Z</time>
      </trkpt>
      <trkpt lat="41.097717" lon="-3.671100">
        <ele>1825.0</ele>
        <time>2018-07-21T12:06:49Z</time>
      </trkpt>
      <trkpt lat="41.097700" lon="-3.671200">
        <ele>1825.0</ele>
        <time>2018-07-21T12:06:50Z</time>
      </trkpt>
      <trkpt lat="41.097650" lon="-3.671283">
        <ele>1825.0</ele>
        <time>2018-07-21T12:06:51Z</time>
      </trkpt>
      <trkpt lat="41.097617" lon="-3.671383">
        <ele>1826.0</ele>
        <time>2018-07-21T12:06:52Z</time>
      </trkpt>
      <trkpt lat="41.097567" lon="-3.671483">
        <ele>1826.0</ele>
        <time>2018-07-21T12:06:53Z</time>
      </trkpt>
      <trkpt lat="41.097533" lon="-3.671567">
        <ele>1825.0</ele>
        <time>2018-07-21T12:06:54Z</time>
      </trkpt>
      <trkpt lat="41.097500" lon="-3.671667">
        <ele>1825.0</ele>
        <time>2018-07-21T12:06:55Z</time>
      </trkpt>
      <trkpt lat="41.097467" lon="-3.671767">
        <ele>1825.0</ele>
        <time>2018-07-21T12:06:56Z</time>
      </trkpt>
      <trkpt lat="41.097433" lon="-3.671867">
        <ele>1826.0</ele>
        <time>2018-07-21T12:06:57Z</time>
      </trkpt>
      <trkpt lat="41.097383" lon="-3.671967">
        <ele>1826.0</ele>
        <time>2018-07-21T12:06:58Z</time>
      </trkpt>
      <trkpt lat="41.097350" lon="-3.672050">
        <ele>1826.0</ele>
        <time>2018-07-21T12:06:59Z</time>
      </trkpt>
      <trkpt lat="41.097317" lon="-3.672117">
        <ele>1826.0</ele>
        <time>2018-07-21T12:07:00Z</time>
      </trkpt>
      <trkpt lat="41.097267" lon="-3.672200">
        <ele>1825.0</ele>
        <time>2018-07-21T12:07:01Z</time>
      </trkpt>
      <trkpt lat="41.097217" lon="-3.672283">
        <ele>1823.0</ele>
        <time>2018-07-21T12:07:02Z</time>
      </trkpt>
      <trkpt lat="41.097183" lon="-3.672350">
        <ele>1823.0</ele>
        <time>2018-07-21T12:07:03Z</time>
      </trkpt>
      <trkpt lat="41.097133" lon="-3.672433">
        <ele>1823.0</ele>
        <time>2018-07-21T12:07:04Z</time>
      </trkpt>
      <trkpt lat="41.097117" lon="-3.672517">
        <ele>1824.0</ele>
        <time>2018-07-21T12:07:05Z</time>
      </trkpt>
      <trkpt lat="41.097083" lon="-3.672600">
        <ele>1824.0</ele>
        <time>2018-07-21T12:07:06Z</time>
      </trkpt>
      <trkpt lat="41.097067" lon="-3.672683">
        <ele>1824.0</ele>
        <time>2018-07-21T12:07:07Z</time>
      </trkpt>
      <trkpt lat="41.097050" lon="-3.672750">
        <ele>1825.0</ele>
        <time>2018-07-21T12:07:08Z</time>
      </trkpt>
      <trkpt lat="41.097017" lon="-3.672833">
        <ele>1825.0</ele>
        <time>2018-07-21T12:07:09Z</time>
      </trkpt>
      <trkpt lat="41.097000" lon="-3.672900">
        <ele>1826.0</ele>
        <time>2018-07-21T12:07:10Z</time>
      </trkpt>
      <trkpt lat="41.096967" lon="-3.672983">
        <ele>1825.0</ele>
        <time>2018-07-21T12:07:11Z</time>
      </trkpt>
      <trkpt lat="41.096950" lon="-3.673050">
        <ele>1825.0</ele>
        <time>2018-07-21T12:07:12Z</time>
      </trkpt>
      <trkpt lat="41.096917" lon="-3.673133">
        <ele>1825.0</ele>
        <time>2018-07-21T12:07:13Z</time>
      </trkpt>
      <trkpt lat="41.096883" lon="-3.673217">
        <ele>1824.0</ele>
        <time>2018-07-21T12:07:14Z</time>
      </trkpt>
      <trkpt lat="41.096850" lon="-3.673300">
        <ele>1824.0</ele>
        <time>2018-07-21T12:07:15Z</time>
      </trkpt>
      <trkpt lat="41.096817" lon="-3.673367">
        <ele>1823.0</ele>
        <time>2018-07-21T12:07:16Z</time>
      </trkpt>
      <trkpt lat="41.096767" lon="-3.673450">
        <ele>1823.0</ele>
        <time>2018-07-21T12:07:17Z</time>
      </trkpt>
      <trkpt lat="41.096717" lon="-3.673517">
        <ele>1822.0</ele>
        <time>2018-07-21T12:07:18Z</time>
      </trkpt>
      <trkpt lat="41.096650" lon="-3.673583">
        <ele>1821.0</ele>
        <time>2018-07-21T12:07:19Z</time>
      </trkpt>
      <trkpt lat="41.096600" lon="-3.673667">
        <ele>1820.0</ele>
        <time>2018-07-21T12:07:20Z</time>
      </trkpt>
      <trkpt lat="41.096550" lon="-3.673750">
        <ele>1819.0</ele>
        <time>2018-07-21T12:07:21Z</time>
      </trkpt>
      <trkpt lat="41.096483" lon="-3.673833">
        <ele>1819.0</ele>
        <time>2018-07-21T12:07:22Z</time>
      </trkpt>
      <trkpt lat="41.096433" lon="-3.673917">
        <ele>1820.0</ele>
        <time>2018-07-21T12:07:23Z</time>
      </trkpt>
      <trkpt lat="41.096367" lon="-3.673983">
        <ele>1820.0</ele>
        <time>2018-07-21T12:07:24Z</time>
      </trkpt>
      <trkpt lat="41.096317" lon="-3.674067">
        <ele>1821.0</ele>
        <time>2018-07-21T12:07:25Z</time>
      </trkpt>
      <trkpt lat="41.096283" lon="-3.674133">
        <ele>1821.0</ele>
        <time>2018-07-21T12:07:26Z</time>
      </trkpt>
      <trkpt lat="41.096250" lon="-3.674217">
        <ele>1821.0</ele>
        <time>2018-07-21T12:07:27Z</time>
      </trkpt>
      <trkpt lat="41.096233" lon="-3.674283">
        <ele>1821.0</ele>
        <time>2018-07-21T12:07:28Z</time>
      </trkpt>
      <trkpt lat="41.096217" lon="-3.674367">
        <ele>1821.0</ele>
        <time>2018-07-21T12:07:29Z</time>
      </trkpt>
      <trkpt lat="41.096183" lon="-3.674450">
        <ele>1821.0</ele>
        <time>2018-07-21T12:07:30Z</time>
      </trkpt>
      <trkpt lat="41.096167" lon="-3.674517">
        <ele>1822.0</ele>
        <time>2018-07-21T12:07:31Z</time>
      </trkpt>
      <trkpt lat="41.096133" lon="-3.674600">
        <ele>1822.0</ele>
        <time>2018-07-21T12:07:32Z</time>
      </trkpt>
      <trkpt lat="41.096133" lon="-3.674683">
        <ele>1823.0</ele>
        <time>2018-07-21T12:07:33Z</time>
      </trkpt>
      <trkpt lat="41.096133" lon="-3.674767">
        <ele>1825.0</ele>
        <time>2018-07-21T12:07:34Z</time>
      </trkpt>
      <trkpt lat="41.096133" lon="-3.674833">
        <ele>1826.0</ele>
        <time>2018-07-21T12:07:35Z</time>
      </trkpt>
      <trkpt lat="41.096117" lon="-3.674900">
        <ele>1827.0</ele>
        <time>2018-07-21T12:07:36Z</time>
      </trkpt>
      <trkpt lat="41.096117" lon="-3.674967">
        <ele>1828.0</ele>
        <time>2018-07-21T12:07:37Z</time>
      </trkpt>
      <trkpt lat="41.096117" lon="-3.675050">
        <ele>1828.0</ele>
        <time>2018-07-21T12:07:38Z</time>
      </trkpt>
      <trkpt lat="41.096117" lon="-3.675117">
        <ele>1828.0</ele>
        <time>2018-07-21T12:07:39Z</time>
      </trkpt>
      <trkpt lat="41.096150" lon="-3.675200">
        <ele>1829.0</ele>
        <time>2018-07-21T12:07:40Z</time>
      </trkpt>
      <trkpt lat="41.096167" lon="-3.675267">
        <ele>1830.0</ele>
        <time>2018-07-21T12:07:41Z</time>
      </trkpt>
      <trkpt lat="41.096183" lon="-3.675317">
        <ele>1832.0</ele>
        <time>2018-07-21T12:07:42Z</time>
      </trkpt>
      <trkpt lat="41.096183" lon="-3.675383">
        <ele>1833.0</ele>
        <time>2018-07-21T12:07:43Z</time>
      </trkpt>
      <trkpt lat="41.096200" lon="-3.675467">
        <ele>1834.0</ele>
        <time>2018-07-21T12:07:44Z</time>
      </trkpt>
      <trkpt lat="41.096217" lon="-3.675533">
        <ele>1835.0</ele>
        <time>2018-07-21T12:07:45Z</time>
      </trkpt>
      <trkpt lat="41.096233" lon="-3.675583">
        <ele>1837.0</ele>
        <time>2018-07-21T12:07:46Z</time>
      </trkpt>
      <trkpt lat="41.096250" lon="-3.675650">
        <ele>1839.0</ele>
        <time>2018-07-21T12:07:47Z</time>
      </trkpt>
      <trkpt lat="41.096267" lon="-3.675717">
        <ele>1841.0</ele>
        <time>2018-07-21T12:07:48Z</time>
      </trkpt>
      <trkpt lat="41.096283" lon="-3.675750">
        <ele>1843.0</ele>
        <time>2018-07-21T12:07:49Z</time>
      </trkpt>
      <trkpt lat="41.096267" lon="-3.675800">
        <ele>1845.0</ele>
        <time>2018-07-21T12:07:50Z</time>
      </trkpt>
      <trkpt lat="41.096250" lon="-3.675833">
        <ele>1845.0</ele>
        <time>2018-07-21T12:07:51Z</time>
      </trkpt>
      <trkpt lat="41.096183" lon="-3.675883">
        <ele>1845.0</ele>
        <time>2018-07-21T12:07:52Z</time>
      </trkpt>
      <trkpt lat="41.096100" lon="-3.675900">
        <ele>1844.0</ele>
        <time>2018-07-21T12:07:53Z</time>
      </trkpt>
      <trkpt lat="41.095983" lon="-3.675883">
        <ele>1845.0</ele>
        <time>2018-07-21T12:07:54Z</time>
      </trkpt>
      <trkpt lat="41.095867" lon="-3.675833">
        <ele>1846.0</ele>
        <time>2018-07-21T12:07:55Z</time>
      </trkpt>
      <trkpt lat="41.095750" lon="-3.675733">
        <ele>1848.0</ele>
        <time>2018-07-21T12:07:56Z</time>
      </trkpt>
      <trkpt lat="41.095667" lon="-3.675600">
        <ele>1850.0</ele>
        <time>2018-07-21T12:07:57Z</time>
      </trkpt>
      <trkpt lat="41.095583" lon="-3.675450">
        <ele>1852.0</ele>
        <time>2018-07-21T12:07:58Z</time>
      </trkpt>
      <trkpt lat="41.095533" lon="-3.675283">
        <ele>1853.0</ele>
        <time>2018-07-21T12:07:59Z</time>
      </trkpt>
      <trkpt lat="41.095500" lon="-3.675100">
        <ele>1855.0</ele>
        <time>2018-07-21T12:08:00Z</time>
      </trkpt>
      <trkpt lat="41.095500" lon="-3.674917">
        <ele>1856.0</ele>
        <time>2018-07-21T12:08:01Z</time>
      </trkpt>
      <trkpt lat="41.095533" lon="-3.674750">
        <ele>1857.0</ele>
        <time>2018-07-21T12:08:02Z</time>
      </trkpt>
      <trkpt lat="41.095583" lon="-3.674617">
        <ele>1859.0</ele>
        <time>2018-07-21T12:08:03Z</time>
      </trkpt>
      <trkpt lat="41.095633" lon="-3.674517">
        <ele>1860.0</ele>
        <time>2018-07-21T12:08:04Z</time>
      </trkpt>
      <trkpt lat="41.095717" lon="-3.674450">
        <ele>1861.0</ele>
        <time>2018-07-21T12:08:05Z</time>
      </trkpt>
      <trkpt lat="41.095767" lon="-3.674433">
        <ele>1862.0</ele>
        <time>2018-07-21T12:08:06Z</time>
      </trkpt>
      <trkpt lat="41.095833" lon="-3.674433">
        <ele>1863.0</ele>
        <time>2018-07-21T12:08:07Z</time>
      </trkpt>
      <trkpt lat="41.095867" lon="-3.674450">
        <ele>1864.0</ele>
        <time>2018-07-21T12:08:08Z</time>
      </trkpt>
      <trkpt lat="41.095900" lon="-3.674483">
        <ele>1865.0</ele>
        <time>2018-07-21T12:08:09Z</time>
      </trkpt>
      <trkpt lat="41.095917" lon="-3.674517">
        <ele>1866.0</ele>
        <time>2018-07-21T12:08:10Z</time>
      </trkpt>
      <trkpt lat="41.095900" lon="-3.674567">
        <ele>1866.0</ele>
        <time>2018-07-21T12:08:11Z</time>
      </trkpt>
      <trkpt lat="41.095867" lon="-3.674633">
        <ele>1866.0</ele>
        <time>2018-07-21T12:08:12Z</time>
      </trkpt>
      <trkpt lat="41.095817" lon="-3.674667">
        <ele>1867.0</ele>
        <time>2018-07-21T12:08:13Z</time>
      </trkpt>
      <trkpt lat="41.095733" lon="-3.674700">
        <ele>1868.0</ele>
        <time>2018-07-21T12:08:14Z</time>
      </trkpt>
      <trkpt lat="41.095633" lon="-3.674700">
        <ele>1870.0</ele>
        <time>2018-07-21T12:08:15Z</time>
      </trkpt>
      <trkpt lat="41.095533" lon="-3.674650">
        <ele>1871.0</ele>
        <time>2018-07-21T12:08:16Z</time>
      </trkpt>
      <trkpt lat="41.095417" lon="-3.674567">
        <ele>1872.0</ele>
        <time>2018-07-21T12:08:17Z</time>
      </trkpt>
      <trkpt lat="41.095317" lon="-3.674450">
        <ele>1873.0</ele>
        <time>2018-07-21T12:08:18Z</time>
      </trkpt>
      <trkpt lat="41.095250" lon="-3.674283">
        <ele>1874.0</ele>
        <time>2018-07-21T12:08:19Z</time>
      </trkpt>
      <trkpt lat="41.095200" lon="-3.674083">
        <ele>1875.0</ele>
        <time>2018-07-21T12:08:20Z</time>
      </trkpt>
      <trkpt lat="41.095183" lon="-3.673900">
        <ele>1877.0</ele>
        <time>2018-07-21T12:08:21Z</time>
      </trkpt>
      <trkpt lat="41.095200" lon="-3.673733">
        <ele>1880.0</ele>
        <time>2018-07-21T12:08:22Z</time>
      </trkpt>
      <trkpt lat="41.095233" lon="-3.673583">
        <ele>1883.0</ele>
        <time>2018-07-21T12:08:23Z</time>
      </trkpt>
      <trkpt lat="41.095267" lon="-3.673467">
        <ele>1885.0</ele>
        <time>2018-07-21T12:08:24Z</time>
      </trkpt>
      <trkpt lat="41.095300" lon="-3.673350">
        <ele>1885.0</ele>
        <time>2018-07-21T12:08:25Z</time>
      </trkpt>
      <trkpt lat="41.095333" lon="-3.673267">
        <ele>1885.0</ele>
        <time>2018-07-21T12:08:26Z</time>
      </trkpt>
      <trkpt lat="41.095400" lon="-3.673183">
        <ele>1885.0</ele>
        <time>2018-07-21T12:08:27Z</time>
      </trkpt>
      <trkpt lat="41.095483" lon="-3.673167">
        <ele>1884.0</ele>
        <time>2018-07-21T12:08:28Z</time>
      </trkpt>
      <trkpt lat="41.095533" lon="-3.673183">
        <ele>1884.0</ele>
        <time>2018-07-21T12:08:29Z</time>
      </trkpt>
      <trkpt lat="41.095567" lon="-3.673233">
        <ele>1884.0</ele>
        <time>2018-07-21T12:08:30Z</time>
      </trkpt>
      <trkpt lat="41.095567" lon="-3.673317">
        <ele>1885.0</ele>
        <time>2018-07-21T12:08:31Z</time>
      </trkpt>
      <trkpt lat="41.095517" lon="-3.673383">
        <ele>1886.0</ele>
        <time>2018-07-21T12:08:32Z</time>
      </trkpt>
      <trkpt lat="41.095483" lon="-3.673450">
        <ele>1889.0</ele>
        <time>2018-07-21T12:08:33Z</time>
      </trkpt>
      <trkpt lat="41.095433" lon="-3.673517">
        <ele>1891.0</ele>
        <time>2018-07-21T12:08:34Z</time>
      </trkpt>
      <trkpt lat="41.095400" lon="-3.673567">
        <ele>1892.0</ele>
        <time>2018-07-21T12:08:35Z</time>
      </trkpt>
      <trkpt lat="41.095367" lon="-3.673617">
        <ele>1893.0</ele>
        <time>2018-07-21T12:08:36Z</time>
      </trkpt>
      <trkpt lat="41.095317" lon="-3.673667">
        <ele>1893.0</ele>
        <time>2018-07-21T12:08:37Z</time>
      </trkpt>
      <trkpt lat="41.095267" lon="-3.673717">
        <ele>1894.0</ele>
        <time>2018-07-21T12:08:38Z</time>
      </trkpt>
      <trkpt lat="41.095200" lon="-3.673767">
        <ele>1895.0</ele>
        <time>2018-07-21T12:08:39Z</time>
      </trkpt>
      <trkpt lat="41.095150" lon="-3.673833">
        <ele>1896.0</ele>
        <time>2018-07-21T12:08:40Z</time>
      </trkpt>
      <trkpt lat="41.095100" lon="-3.673900">
        <ele>1897.0</ele>
        <time>2018-07-21T12:08:41Z</time>
      </trkpt>
      <trkpt lat="41.095050" lon="-3.673983">
        <ele>1900.0</ele>
        <time>2018-07-21T12:08:42Z</time>
      </trkpt>
      <trkpt lat="41.095000" lon="-3.674050">
        <ele>1904.0</ele>
        <time>2018-07-21T12:08:43Z</time>
      </trkpt>
      <trkpt lat="41.094950" lon="-3.674100">
        <ele>1907.0</ele>
        <time>2018-07-21T12:08:44Z</time>
      </trkpt>
      <trkpt lat="41.094900" lon="-3.674150">
        <ele>1909.0</ele>
        <time>2018-07-21T12:08:45Z</time>
      </trkpt>
      <trkpt lat="41.094850" lon="-3.674200">
        <ele>1911.0</ele>
        <time>2018-07-21T12:08:46Z</time>
      </trkpt>
      <trkpt lat="41.094800" lon="-3.674233">
        <ele>1912.0</ele>
        <time>2018-07-21T12:08:47Z</time>
      </trkpt>
      <trkpt lat="41.094767" lon="-3.674283">
        <ele>1911.0</ele>
        <time>2018-07-21T12:08:48Z</time>
      </trkpt>
      <trkpt lat="41.094733" lon="-3.674350">
        <ele>1910.0</ele>
        <time>2018-07-21T12:08:49Z</time>
      </trkpt>
      <trkpt lat="41.094717" lon="-3.674417">
        <ele>1910.0</ele>
        <time>2018-07-21T12:08:50Z</time>
      </trkpt>
      <trkpt lat="41.094700" lon="-3.674500">
        <ele>1910.0</ele>
        <time>2018-07-21T12:08:51Z</time>
      </trkpt>
      <trkpt lat="41.094650" lon="-3.674567">
        <ele>1910.0</ele>
        <time>2018-07-21T12:08:52Z</time>
      </trkpt>
      <trkpt lat="41.094617" lon="-3.674633">
        <ele>1911.0</ele>
        <time>2018-07-21T12:08:53Z</time>
      </trkpt>
      <trkpt lat="41.094583" lon="-3.674683">
        <ele>1913.0</ele>
        <time>2018-07-21T12:08:54Z</time>
      </trkpt>
      <trkpt lat="41.094567" lon="-3.674750">
        <ele>1914.0</ele>
        <time>2018-07-21T12:08:55Z</time>
      </trkpt>
      <trkpt lat="41.094533" lon="-3.674817">
        <ele>1915.0</ele>
        <time>2018-07-21T12:08:56Z</time>
      </trkpt>
      <trkpt lat="41.094517" lon="-3.674883">
        <ele>1915.0</ele>
        <time>2018-07-21T12:08:57Z</time>
      </trkpt>
      <trkpt lat="41.094517" lon="-3.674950">
        <ele>1915.0</ele>
        <time>2018-07-21T12:08:58Z</time>
      </trkpt>
      <trkpt lat="41.094517" lon="-3.675017">
        <ele>1916.0</ele>
        <time>2018-07-21T12:08:59Z</time>
      </trkpt>
      <trkpt lat="41.094533" lon="-3.675083">
        <ele>1917.0</ele>
        <time>2018-07-21T12:09:00Z</time>
      </trkpt>
      <trkpt lat="41.094533" lon="-3.675133">
        <ele>1917.0</ele>
        <time>2018-07-21T12:09:01Z</time>
      </trkpt>
      <trkpt lat="41.094517" lon="-3.675183">
        <ele>1916.0</ele>
        <time>2018-07-21T12:09:02Z</time>
      </trkpt>
      <trkpt lat="41.094500" lon="-3.675233">
        <ele>1914.0</ele>
        <time>2018-07-21T12:09:03Z</time>
      </trkpt>
      <trkpt lat="41.094483" lon="-3.675300">
        <ele>1912.0</ele>
        <time>2018-07-21T12:09:04Z</time>
      </trkpt>
      <trkpt lat="41.094450" lon="-3.675367">
        <ele>1908.0</ele>
        <time>2018-07-21T12:09:05Z</time>
      </trkpt>
      <trkpt lat="41.094417" lon="-3.675417">
        <ele>1905.0</ele>
        <time>2018-07-21T12:09:06Z</time>
      </trkpt>
      <trkpt lat="41.094367" lon="-3.675467">
        <ele>1902.0</ele>
        <time>2018-07-21T12:09:07Z</time>
      </trkpt>
      <trkpt lat="41.094333" lon="-3.675533">
        <ele>1899.0</ele>
        <time>2018-07-21T12:09:08Z</time>
      </trkpt>
      <trkpt lat="41.094283" lon="-3.675583">
        <ele>1897.0</ele>
        <time>2018-07-21T12:09:09Z</time>
      </trkpt>
      <trkpt lat="41.094250" lon="-3.675667">
        <ele>1895.0</ele>
        <time>2018-07-21T12:09:10Z</time>
      </trkpt>
      <trkpt lat="41.094233" lon="-3.675733">
        <ele>1893.0</ele>
        <time>2018-07-21T12:09:11Z</time>
      </trkpt>
      <trkpt lat="41.094200" lon="-3.675800">
        <ele>1891.0</ele>
        <time>2018-07-21T12:09:12Z</time>
      </trkpt>
      <trkpt lat="41.094167" lon="-3.675867">
        <ele>1889.0</ele>
        <time>2018-07-21T12:09:13Z</time>
      </trkpt>
      <trkpt lat="41.094150" lon="-3.675917">
        <ele>1888.0</ele>
        <time>2018-07-21T12:09:14Z</time>
      </trkpt>
      <trkpt lat="41.094133" lon="-3.675983">
        <ele>1886.0</ele>
        <time>2018-07-21T12:09:15Z</time>
      </trkpt>
      <trkpt lat="41.094117" lon="-3.676050">
        <ele>1885.0</ele>
        <time>2018-07-21T12:09:16Z</time>
      </trkpt>
      <trkpt lat="41.094117" lon="-3.676117">
        <ele>1883.0</ele>
        <time>2018-07-21T12:09:17Z</time>
      </trkpt>
      <trkpt lat="41.094100" lon="-3.676183">
        <ele>1882.0</ele>
        <time>2018-07-21T12:09:18Z</time>
      </trkpt>
      <trkpt lat="41.094083" lon="-3.676250">
        <ele>1881.0</ele>
        <time>2018-07-21T12:09:19Z</time>
      </trkpt>
      <trkpt lat="41.094067" lon="-3.676317">
        <ele>1881.0</ele>
        <time>2018-07-21T12:09:20Z</time>
      </trkpt>
      <trkpt lat="41.094067" lon="-3.676367">
        <ele>1880.0</ele>
        <time>2018-07-21T12:09:21Z</time>
      </trkpt>
      <trkpt lat="41.094050" lon="-3.676433">
        <ele>1878.0</ele>
        <time>2018-07-21T12:09:22Z</time>
      </trkpt>
      <trkpt lat="41.094017" lon="-3.676517">
        <ele>1876.0</ele>
        <time>2018-07-21T12:09:23Z</time>
      </trkpt>
      <trkpt lat="41.093983" lon="-3.676583">
        <ele>1874.0</ele>
        <time>2018-07-21T12:09:24Z</time>
      </trkpt>
      <trkpt lat="41.093933" lon="-3.676667">
        <ele>1873.0</ele>
        <time>2018-07-21T12:09:25Z</time>
      </trkpt>
      <trkpt lat="41.093883" lon="-3.676733">
        <ele>1873.0</ele>
        <time>2018-07-21T12:09:26Z</time>
      </trkpt>
      <trkpt lat="41.093850" lon="-3.676800">
        <ele>1872.0</ele>
        <time>2018-07-21T12:09:27Z</time>
      </trkpt>
      <trkpt lat="41.093817" lon="-3.676850">
        <ele>1872.0</ele>
        <time>2018-07-21T12:09:28Z</time>
      </trkpt>
      <trkpt lat="41.093800" lon="-3.676933">
        <ele>1870.0</ele>
        <time>2018-07-21T12:09:29Z</time>
      </trkpt>
      <trkpt lat="41.093767" lon="-3.677017">
        <ele>1869.0</ele>
        <time>2018-07-21T12:09:30Z</time>
      </trkpt>
      <trkpt lat="41.093750" lon="-3.677100">
        <ele>1867.0</ele>
        <time>2018-07-21T12:09:31Z</time>
      </trkpt>
      <trkpt lat="41.093733" lon="-3.677183">
        <ele>1867.0</ele>
        <time>2018-07-21T12:09:32Z</time>
      </trkpt>
      <trkpt lat="41.093733" lon="-3.677267">
        <ele>1867.0</ele>
        <time>2018-07-21T12:09:33Z</time>
      </trkpt>
      <trkpt lat="41.093750" lon="-3.677333">
        <ele>1867.0</ele>
        <time>2018-07-21T12:09:34Z</time>
      </trkpt>
      <trkpt lat="41.093733" lon="-3.677400">
        <ele>1866.0</ele>
        <time>2018-07-21T12:09:35Z</time>
      </trkpt>
      <trkpt lat="41.093733" lon="-3.677467">
        <ele>1865.0</ele>
        <time>2018-07-21T12:09:36Z</time>
      </trkpt>
      <trkpt lat="41.093717" lon="-3.677550">
        <ele>1863.0</ele>
        <time>2018-07-21T12:09:37Z</time>
      </trkpt>
      <trkpt lat="41.093700" lon="-3.677617">
        <ele>1862.0</ele>
        <time>2018-07-21T12:09:38Z</time>
      </trkpt>
      <trkpt lat="41.093683" lon="-3.677700">
        <ele>1862.0</ele>
        <time>2018-07-21T12:09:39Z</time>
      </trkpt>
      <trkpt lat="41.093667" lon="-3.677767">
        <ele>1861.0</ele>
        <time>2018-07-21T12:09:40Z</time>
      </trkpt>
      <trkpt lat="41.093650" lon="-3.677833">
        <ele>1861.0</ele>
        <time>2018-07-21T12:09:41Z</time>
      </trkpt>
      <trkpt lat="41.093633" lon="-3.677900">
        <ele>1860.0</ele>
        <time>2018-07-21T12:09:42Z</time>
      </trkpt>
      <trkpt lat="41.093600" lon="-3.677967">
        <ele>1859.0</ele>
        <time>2018-07-21T12:09:43Z</time>
      </trkpt>
      <trkpt lat="41.093550" lon="-3.678033">
        <ele>1859.0</ele>
        <time>2018-07-21T12:09:44Z</time>
      </trkpt>
      <trkpt lat="41.093517" lon="-3.678100">
        <ele>1858.0</ele>
        <time>2018-07-21T12:09:45Z</time>
      </trkpt>
      <trkpt lat="41.093467" lon="-3.678167">
        <ele>1857.0</ele>
        <time>2018-07-21T12:09:46Z</time>
      </trkpt>
      <trkpt lat="41.093417" lon="-3.678233">
        <ele>1857.0</ele>
        <time>2018-07-21T12:09:47Z</time>
      </trkpt>
      <trkpt lat="41.093367" lon="-3.678300">
        <ele>1857.0</ele>
        <time>2018-07-21T12:09:48Z</time>
      </trkpt>
      <trkpt lat="41.093317" lon="-3.678367">
        <ele>1856.0</ele>
        <time>2018-07-21T12:09:49Z</time>
      </trkpt>
      <trkpt lat="41.093267" lon="-3.678433">
        <ele>1856.0</ele>
        <time>2018-07-21T12:09:50Z</time>
      </trkpt>
      <trkpt lat="41.093217" lon="-3.678500">
        <ele>1856.0</ele>
        <time>2018-07-21T12:09:51Z</time>
      </trkpt>
      <trkpt lat="41.093167" lon="-3.678550">
        <ele>1856.0</ele>
        <time>2018-07-21T12:09:52Z</time>
      </trkpt>
      <trkpt lat="41.093117" lon="-3.678617">
        <ele>1855.0</ele>
        <time>2018-07-21T12:09:53Z</time>
      </trkpt>
      <trkpt lat="41.093067" lon="-3.678683">
        <ele>1855.0</ele>
        <time>2018-07-21T12:09:54Z</time>
      </trkpt>
      <trkpt lat="41.093017" lon="-3.678750">
        <ele>1854.0</ele>
        <time>2018-07-21T12:09:55Z</time>
      </trkpt>
      <trkpt lat="41.092967" lon="-3.678817">
        <ele>1852.0</ele>
        <time>2018-07-21T12:09:56Z</time>
      </trkpt>
      <trkpt lat="41.092900" lon="-3.678883">
        <ele>1851.0</ele>
        <time>2018-07-21T12:09:57Z</time>
      </trkpt>
      <trkpt lat="41.092833" lon="-3.678950">
        <ele>1849.0</ele>
        <time>2018-07-21T12:09:58Z</time>
      </trkpt>
      <trkpt lat="41.092783" lon="-3.679017">
        <ele>1848.0</ele>
        <time>2018-07-21T12:09:59Z</time>
      </trkpt>
      <trkpt lat="41.092733" lon="-3.679100">
        <ele>1847.0</ele>
        <time>2018-07-21T12:10:00Z</time>
      </trkpt>
      <trkpt lat="41.092700" lon="-3.679183">
        <ele>1846.0</ele>
        <time>2018-07-21T12:10:01Z</time>
      </trkpt>
      <trkpt lat="41.092667" lon="-3.679267">
        <ele>1844.0</ele>
        <time>2018-07-21T12:10:02Z</time>
      </trkpt>
      <trkpt lat="41.092633" lon="-3.679350">
        <ele>1842.0</ele>
        <time>2018-07-21T12:10:03Z</time>
      </trkpt>
      <trkpt lat="41.092600" lon="-3.679450">
        <ele>1839.0</ele>
        <time>2018-07-21T12:10:04Z</time>
      </trkpt>
      <trkpt lat="41.092567" lon="-3.679550">
        <ele>1837.0</ele>
        <time>2018-07-21T12:10:05Z</time>
      </trkpt>
      <trkpt lat="41.092550" lon="-3.679650">
        <ele>1835.0</ele>
        <time>2018-07-21T12:10:06Z</time>
      </trkpt>
      <trkpt lat="41.092517" lon="-3.679733">
        <ele>1834.0</ele>
        <time>2018-07-21T12:10:07Z</time>
      </trkpt>
      <trkpt lat="41.092467" lon="-3.679817">
        <ele>1832.0</ele>
        <time>2018-07-21T12:10:08Z</time>
      </trkpt>
      <trkpt lat="41.092433" lon="-3.679883">
        <ele>1831.0</ele>
        <time>2018-07-21T12:10:09Z</time>
      </trkpt>
      <trkpt lat="41.092383" lon="-3.679950">
        <ele>1829.0</ele>
        <time>2018-07-21T12:10:10Z</time>
      </trkpt>
      <trkpt lat="41.092317" lon="-3.680017">
        <ele>1828.0</ele>
        <time>2018-07-21T12:10:11Z</time>
      </trkpt>
      <trkpt lat="41.092267" lon="-3.680067">
        <ele>1825.0</ele>
        <time>2018-07-21T12:10:12Z</time>
      </trkpt>
      <trkpt lat="41.092183" lon="-3.680133">
        <ele>1823.0</ele>
        <time>2018-07-21T12:10:13Z</time>
      </trkpt>
      <trkpt lat="41.092117" lon="-3.680217">
        <ele>1821.0</ele>
        <time>2018-07-21T12:10:14Z</time>
      </trkpt>
      <trkpt lat="41.092050" lon="-3.680300">
        <ele>1819.0</ele>
        <time>2018-07-21T12:10:15Z</time>
      </trkpt>
      <trkpt lat="41.092000" lon="-3.680383">
        <ele>1818.0</ele>
        <time>2018-07-21T12:10:16Z</time>
      </trkpt>
      <trkpt lat="41.091950" lon="-3.680467">
        <ele>1817.0</ele>
        <time>2018-07-21T12:10:17Z</time>
      </trkpt>
      <trkpt lat="41.091933" lon="-3.680550">
        <ele>1816.0</ele>
        <time>2018-07-21T12:10:18Z</time>
      </trkpt>
      <trkpt lat="41.091900" lon="-3.680650">
        <ele>1814.0</ele>
        <time>2018-07-21T12:10:19Z</time>
      </trkpt>
      <trkpt lat="41.091883" lon="-3.680750">
        <ele>1812.0</ele>
        <time>2018-07-21T12:10:20Z</time>
      </trkpt>
      <trkpt lat="41.091883" lon="-3.680850">
        <ele>1811.0</ele>
        <time>2018-07-21T12:10:21Z</time>
      </trkpt>
      <trkpt lat="41.091883" lon="-3.680933">
        <ele>1811.0</ele>
        <time>2018-07-21T12:10:22Z</time>
      </trkpt>
      <trkpt lat="41.091867" lon="-3.681033">
        <ele>1811.0</ele>
        <time>2018-07-21T12:10:23Z</time>
      </trkpt>
      <trkpt lat="41.091867" lon="-3.681117">
        <ele>1811.0</ele>
        <time>2018-07-21T12:10:24Z</time>
      </trkpt>
      <trkpt lat="41.091850" lon="-3.681217">
        <ele>1810.0</ele>
        <time>2018-07-21T12:10:25Z</time>
      </trkpt>
      <trkpt lat="41.091850" lon="-3.681300">
        <ele>1808.0</ele>
        <time>2018-07-21T12:10:26Z</time>
      </trkpt>
      <trkpt lat="41.091833" lon="-3.681400">
        <ele>1807.0</ele>
        <time>2018-07-21T12:10:27Z</time>
      </trkpt>
      <trkpt lat="41.091800" lon="-3.681500">
        <ele>1806.0</ele>
        <time>2018-07-21T12:10:28Z</time>
      </trkpt>
      <trkpt lat="41.091767" lon="-3.681600">
        <ele>1805.0</ele>
        <time>2018-07-21T12:10:29Z</time>
      </trkpt>
      <trkpt lat="41.091733" lon="-3.681683">
        <ele>1804.0</ele>
        <time>2018-07-21T12:10:30Z</time>
      </trkpt>
      <trkpt lat="41.091700" lon="-3.681783">
        <ele>1804.0</ele>
        <time>2018-07-21T12:10:31Z</time>
      </trkpt>
      <trkpt lat="41.091667" lon="-3.681867">
        <ele>1804.0</ele>
        <time>2018-07-21T12:10:32Z</time>
      </trkpt>
      <trkpt lat="41.091633" lon="-3.681950">
        <ele>1803.0</ele>
        <time>2018-07-21T12:10:33Z</time>
      </trkpt>
      <trkpt lat="41.091600" lon="-3.682033">
        <ele>1802.0</ele>
        <time>2018-07-21T12:10:34Z</time>
      </trkpt>
      <trkpt lat="41.091567" lon="-3.682133">
        <ele>1800.0</ele>
        <time>2018-07-21T12:10:35Z</time>
      </trkpt>
      <trkpt lat="41.091533" lon="-3.682233">
        <ele>1799.0</ele>
        <time>2018-07-21T12:10:36Z</time>
      </trkpt>
      <trkpt lat="41.091517" lon="-3.682333">
        <ele>1798.0</ele>
        <time>2018-07-21T12:10:37Z</time>
      </trkpt>
      <trkpt lat="41.091500" lon="-3.682433">
        <ele>1797.0</ele>
        <time>2018-07-21T12:10:38Z</time>
      </trkpt>
      <trkpt lat="41.091483" lon="-3.682533">
        <ele>1797.0</ele>
        <time>2018-07-21T12:10:39Z</time>
      </trkpt>
      <trkpt lat="41.091483" lon="-3.682617">
        <ele>1796.0</ele>
        <time>2018-07-21T12:10:40Z</time>
      </trkpt>
      <trkpt lat="41.091467" lon="-3.682700">
        <ele>1795.0</ele>
        <time>2018-07-21T12:10:41Z</time>
      </trkpt>
      <trkpt lat="41.091450" lon="-3.682800">
        <ele>1793.0</ele>
        <time>2018-07-21T12:10:42Z</time>
      </trkpt>
      <trkpt lat="41.091433" lon="-3.682917">
        <ele>1791.0</ele>
        <time>2018-07-21T12:10:43Z</time>
      </trkpt>
      <trkpt lat="41.091400" lon="-3.683017">
        <ele>1790.0</ele>
        <time>2018-07-21T12:10:44Z</time>
      </trkpt>
      <trkpt lat="41.091367" lon="-3.683117">
        <ele>1790.0</ele>
        <time>2018-07-21T12:10:45Z</time>
      </trkpt>
      <trkpt lat="41.091333" lon="-3.683200">
        <ele>1790.0</ele>
        <time>2018-07-21T12:10:46Z</time>
      </trkpt>
      <trkpt lat="41.091300" lon="-3.683283">
        <ele>1789.0</ele>
        <time>2018-07-21T12:10:47Z</time>
      </trkpt>
      <trkpt lat="41.091283" lon="-3.683350">
        <ele>1789.0</ele>
        <time>2018-07-21T12:10:48Z</time>
      </trkpt>
      <trkpt lat="41.091250" lon="-3.683417">
        <ele>1787.0</ele>
        <time>2018-07-21T12:10:49Z</time>
      </trkpt>
      <trkpt lat="41.091217" lon="-3.683517">
        <ele>1785.0</ele>
        <time>2018-07-21T12:10:50Z</time>
      </trkpt>
      <trkpt lat="41.091167" lon="-3.683617">
        <ele>1782.0</ele>
        <time>2018-07-21T12:10:51Z</time>
      </trkpt>
      <trkpt lat="41.091117" lon="-3.683717">
        <ele>1780.0</ele>
        <time>2018-07-21T12:10:52Z</time>
      </trkpt>
      <trkpt lat="41.091083" lon="-3.683833">
        <ele>1780.0</ele>
        <time>2018-07-21T12:10:53Z</time>
      </trkpt>
      <trkpt lat="41.091050" lon="-3.683933">
        <ele>1780.0</ele>
        <time>2018-07-21T12:10:54Z</time>
      </trkpt>
      <trkpt lat="41.091017" lon="-3.684017">
        <ele>1780.0</ele>
        <time>2018-07-21T12:10:55Z</time>
      </trkpt>
      <trkpt lat="41.090983" lon="-3.684100">
        <ele>1780.0</ele>
        <time>2018-07-21T12:10:56Z</time>
      </trkpt>
      <trkpt lat="41.090950" lon="-3.684200">
        <ele>1780.0</ele>
        <time>2018-07-21T12:10:57Z</time>
      </trkpt>
      <trkpt lat="41.090933" lon="-3.684300">
        <ele>1779.0</ele>
        <time>2018-07-21T12:10:58Z</time>
      </trkpt>
      <trkpt lat="41.090917" lon="-3.684400">
        <ele>1779.0</ele>
        <time>2018-07-21T12:10:59Z</time>
      </trkpt>
      <trkpt lat="41.090900" lon="-3.684500">
        <ele>1779.0</ele>
        <time>2018-07-21T12:11:00Z</time>
      </trkpt>
      <trkpt lat="41.090883" lon="-3.684600">
        <ele>1780.0</ele>
        <time>2018-07-21T12:11:01Z</time>
      </trkpt>
      <trkpt lat="41.090867" lon="-3.684683">
        <ele>1781.0</ele>
        <time>2018-07-21T12:11:02Z</time>
      </trkpt>
      <trkpt lat="41.090850" lon="-3.684783">
        <ele>1782.0</ele>
        <time>2018-07-21T12:11:03Z</time>
      </trkpt>
      <trkpt lat="41.090833" lon="-3.684883">
        <ele>1783.0</ele>
        <time>2018-07-21T12:11:04Z</time>
      </trkpt>
      <trkpt lat="41.090817" lon="-3.684967">
        <ele>1785.0</ele>
        <time>2018-07-21T12:11:05Z</time>
      </trkpt>
      <trkpt lat="41.090783" lon="-3.685067">
        <ele>1786.0</ele>
        <time>2018-07-21T12:11:06Z</time>
      </trkpt>
      <trkpt lat="41.090767" lon="-3.685167">
        <ele>1787.0</ele>
        <time>2018-07-21T12:11:07Z</time>
      </trkpt>
      <trkpt lat="41.090767" lon="-3.685250">
        <ele>1787.0</ele>
        <time>2018-07-21T12:11:08Z</time>
      </trkpt>
      <trkpt lat="41.090783" lon="-3.685317">
        <ele>1787.0</ele>
        <time>2018-07-21T12:11:09Z</time>
      </trkpt>
      <trkpt lat="41.090817" lon="-3.685383">
        <ele>1786.0</ele>
        <time>2018-07-21T12:11:10Z</time>
      </trkpt>
      <trkpt lat="41.090850" lon="-3.685450">
        <ele>1785.0</ele>
        <time>2018-07-21T12:11:11Z</time>
      </trkpt>
      <trkpt lat="41.090867" lon="-3.685533">
        <ele>1785.0</ele>
        <time>2018-07-21T12:11:12Z</time>
      </trkpt>
      <trkpt lat="41.090867" lon="-3.685617">
        <ele>1784.0</ele>
        <time>2018-07-21T12:11:13Z</time>
      </trkpt>
      <trkpt lat="41.090833" lon="-3.685700">
        <ele>1784.0</ele>
        <time>2018-07-21T12:11:14Z</time>
      </trkpt>
      <trkpt lat="41.090817" lon="-3.685783">
        <ele>1782.0</ele>
        <time>2018-07-21T12:11:15Z</time>
      </trkpt>
      <trkpt lat="41.090783" lon="-3.685883">
        <ele>1781.0</ele>
        <time>2018-07-21T12:11:16Z</time>
      </trkpt>
      <trkpt lat="41.090750" lon="-3.686000">
        <ele>1778.0</ele>
        <time>2018-07-21T12:11:17Z</time>
      </trkpt>
      <trkpt lat="41.090733" lon="-3.686100">
        <ele>1777.0</ele>
        <time>2018-07-21T12:11:18Z</time>
      </trkpt>
      <trkpt lat="41.090717" lon="-3.686217">
        <ele>1776.0</ele>
        <time>2018-07-21T12:11:19Z</time>
      </trkpt>
      <trkpt lat="41.090700" lon="-3.686317">
        <ele>1776.0</ele>
        <time>2018-07-21T12:11:20Z</time>
      </trkpt>
      <trkpt lat="41.090667" lon="-3.686417">
        <ele>1776.0</ele>
        <time>2018-07-21T12:11:21Z</time>
      </trkpt>
      <trkpt lat="41.090650" lon="-3.686517">
        <ele>1776.0</ele>
        <time>2018-07-21T12:11:22Z</time>
      </trkpt>
      <trkpt lat="41.090617" lon="-3.686617">
        <ele>1775.0</ele>
        <time>2018-07-21T12:11:23Z</time>
      </trkpt>
      <trkpt lat="41.090600" lon="-3.686717">
        <ele>1774.0</ele>
        <time>2018-07-21T12:11:24Z</time>
      </trkpt>
      <trkpt lat="41.090583" lon="-3.686833">
        <ele>1774.0</ele>
        <time>2018-07-21T12:11:25Z</time>
      </trkpt>
      <trkpt lat="41.090567" lon="-3.686933">
        <ele>1776.0</ele>
        <time>2018-07-21T12:11:26Z</time>
      </trkpt>
      <trkpt lat="41.090567" lon="-3.687033">
        <ele>1777.0</ele>
        <time>2018-07-21T12:11:27Z</time>
      </trkpt>
      <trkpt lat="41.090550" lon="-3.687133">
        <ele>1779.0</ele>
        <time>2018-07-21T12:11:28Z</time>
      </trkpt>
      <trkpt lat="41.090533" lon="-3.687233">
        <ele>1779.0</ele>
        <time>2018-07-21T12:11:29Z</time>
      </trkpt>
      <trkpt lat="41.090517" lon="-3.687317">
        <ele>1779.0</ele>
        <time>2018-07-21T12:11:30Z</time>
      </trkpt>
      <trkpt lat="41.090500" lon="-3.687417">
        <ele>1778.0</ele>
        <time>2018-07-21T12:11:31Z</time>
      </trkpt>
      <trkpt lat="41.090500" lon="-3.687533">
        <ele>1776.0</ele>
        <time>2018-07-21T12:11:32Z</time>
      </trkpt>
      <trkpt lat="41.090483" lon="-3.687633">
        <ele>1775.0</ele>
        <time>2018-07-21T12:11:33Z</time>
      </trkpt>
      <trkpt lat="41.090467" lon="-3.687750">
        <ele>1775.0</ele>
        <time>2018-07-21T12:11:34Z</time>
      </trkpt>
      <trkpt lat="41.090450" lon="-3.687850">
        <ele>1775.0</ele>
        <time>2018-07-21T12:11:35Z</time>
      </trkpt>
      <trkpt lat="41.090417" lon="-3.687950">
        <ele>1775.0</ele>
        <time>2018-07-21T12:11:36Z</time>
      </trkpt>
      <trkpt lat="41.090367" lon="-3.688050">
        <ele>1774.0</ele>
        <time>2018-07-21T12:11:37Z</time>
      </trkpt>
      <trkpt lat="41.090333" lon="-3.688167">
        <ele>1773.0</ele>
        <time>2018-07-21T12:11:38Z</time>
      </trkpt>
      <trkpt lat="41.090300" lon="-3.688283">
        <ele>1772.0</ele>
        <time>2018-07-21T12:11:39Z</time>
      </trkpt>
      <trkpt lat="41.090250" lon="-3.688400">
        <ele>1772.0</ele>
        <time>2018-07-21T12:11:40Z</time>
      </trkpt>
      <trkpt lat="41.090233" lon="-3.688533">
        <ele>1772.0</ele>
        <time>2018-07-21T12:11:41Z</time>
      </trkpt>
      <trkpt lat="41.090200" lon="-3.688650">
        <ele>1772.0</ele>
        <time>2018-07-21T12:11:42Z</time>
      </trkpt>
      <trkpt lat="41.090167" lon="-3.688750">
        <ele>1772.0</ele>
        <time>2018-07-21T12:11:43Z</time>
      </trkpt>
      <trkpt lat="41.090150" lon="-3.688867">
        <ele>1772.0</ele>
        <time>2018-07-21T12:11:44Z</time>
      </trkpt>
      <trkpt lat="41.090133" lon="-3.688967">
        <ele>1772.0</ele>
        <time>2018-07-21T12:11:45Z</time>
      </trkpt>
      <trkpt lat="41.090100" lon="-3.689083">
        <ele>1772.0</ele>
        <time>2018-07-21T12:11:46Z</time>
      </trkpt>
      <trkpt lat="41.090083" lon="-3.689183">
        <ele>1772.0</ele>
        <time>2018-07-21T12:11:47Z</time>
      </trkpt>
      <trkpt lat="41.090067" lon="-3.689267">
        <ele>1773.0</ele>
        <time>2018-07-21T12:11:48Z</time>
      </trkpt>
      <trkpt lat="41.090050" lon="-3.689350">
        <ele>1773.0</ele>
        <time>2018-07-21T12:11:49Z</time>
      </trkpt>
      <trkpt lat="41.090033" lon="-3.689450">
        <ele>1772.0</ele>
        <time>2018-07-21T12:11:50Z</time>
      </trkpt>
      <trkpt lat="41.090017" lon="-3.689533">
        <ele>1771.0</ele>
        <time>2018-07-21T12:11:51Z</time>
      </trkpt>
      <trkpt lat="41.089983" lon="-3.689633">
        <ele>1771.0</ele>
        <time>2018-07-21T12:11:52Z</time>
      </trkpt>
      <trkpt lat="41.089967" lon="-3.689733">
        <ele>1772.0</ele>
        <time>2018-07-21T12:11:53Z</time>
      </trkpt>
      <trkpt lat="41.089950" lon="-3.689833">
        <ele>1773.0</ele>
        <time>2018-07-21T12:11:54Z</time>
      </trkpt>
      <trkpt lat="41.089950" lon="-3.689917">
        <ele>1775.0</ele>
        <time>2018-07-21T12:11:55Z</time>
      </trkpt>
      <trkpt lat="41.089933" lon="-3.690000">
        <ele>1776.0</ele>
        <time>2018-07-21T12:11:56Z</time>
      </trkpt>
      <trkpt lat="41.089917" lon="-3.690067">
        <ele>1777.0</ele>
        <time>2018-07-21T12:11:57Z</time>
      </trkpt>
      <trkpt lat="41.089900" lon="-3.690150">
        <ele>1777.0</ele>
        <time>2018-07-21T12:11:58Z</time>
      </trkpt>
      <trkpt lat="41.089883" lon="-3.690250">
        <ele>1777.0</ele>
        <time>2018-07-21T12:11:59Z</time>
      </trkpt>
      <trkpt lat="41.089867" lon="-3.690333">
        <ele>1777.0</ele>
        <time>2018-07-21T12:12:00Z</time>
      </trkpt>
      <trkpt lat="41.089867" lon="-3.690433">
        <ele>1778.0</ele>
        <time>2018-07-21T12:12:01Z</time>
      </trkpt>
      <trkpt lat="41.089883" lon="-3.690517">
        <ele>1779.0</ele>
        <time>2018-07-21T12:12:02Z</time>
      </trkpt>
      <trkpt lat="41.089900" lon="-3.690600">
        <ele>1780.0</ele>
        <time>2018-07-21T12:12:03Z</time>
      </trkpt>
      <trkpt lat="41.089900" lon="-3.690700">
        <ele>1780.0</ele>
        <time>2018-07-21T12:12:04Z</time>
      </trkpt>
      <trkpt lat="41.089900" lon="-3.690800">
        <ele>1781.0</ele>
        <time>2018-07-21T12:12:05Z</time>
      </trkpt>
      <trkpt lat="41.089917" lon="-3.690900">
        <ele>1781.0</ele>
        <time>2018-07-21T12:12:06Z</time>
      </trkpt>
      <trkpt lat="41.089950" lon="-3.691000">
        <ele>1782.0</ele>
        <time>2018-07-21T12:12:07Z</time>
      </trkpt>
      <trkpt lat="41.090000" lon="-3.691083">
        <ele>1784.0</ele>
        <time>2018-07-21T12:12:08Z</time>
      </trkpt>
      <trkpt lat="41.090050" lon="-3.691150">
        <ele>1786.0</ele>
        <time>2018-07-21T12:12:09Z</time>
      </trkpt>
      <trkpt lat="41.090083" lon="-3.691217">
        <ele>1788.0</ele>
        <time>2018-07-21T12:12:10Z</time>
      </trkpt>
      <trkpt lat="41.090133" lon="-3.691267">
        <ele>1789.0</ele>
        <time>2018-07-21T12:12:11Z</time>
      </trkpt>
      <trkpt lat="41.090183" lon="-3.691333">
        <ele>1789.0</ele>
        <time>2018-07-21T12:12:12Z</time>
      </trkpt>
      <trkpt lat="41.090233" lon="-3.691367">
        <ele>1790.0</ele>
        <time>2018-07-21T12:12:13Z</time>
      </trkpt>
      <trkpt lat="41.090283" lon="-3.691417">
        <ele>1791.0</ele>
        <time>2018-07-21T12:12:14Z</time>
      </trkpt>
      <trkpt lat="41.090317" lon="-3.691467">
        <ele>1790.0</ele>
        <time>2018-07-21T12:12:15Z</time>
      </trkpt>
      <trkpt lat="41.090333" lon="-3.691517">
        <ele>1790.0</ele>
        <time>2018-07-21T12:12:16Z</time>
      </trkpt>
      <trkpt lat="41.090350" lon="-3.691583">
        <ele>1788.0</ele>
        <time>2018-07-21T12:12:17Z</time>
      </trkpt>
      <trkpt lat="41.090350" lon="-3.691667">
        <ele>1788.0</ele>
        <time>2018-07-21T12:12:18Z</time>
      </trkpt>
      <trkpt lat="41.090350" lon="-3.691750">
        <ele>1787.0</ele>
        <time>2018-07-21T12:12:19Z</time>
      </trkpt>
      <trkpt lat="41.090333" lon="-3.691817">
        <ele>1788.0</ele>
        <time>2018-07-21T12:12:20Z</time>
      </trkpt>
      <trkpt lat="41.090333" lon="-3.691900">
        <ele>1788.0</ele>
        <time>2018-07-21T12:12:21Z</time>
      </trkpt>
      <trkpt lat="41.090317" lon="-3.691967">
        <ele>1789.0</ele>
        <time>2018-07-21T12:12:22Z</time>
      </trkpt>
      <trkpt lat="41.090317" lon="-3.692033">
        <ele>1789.0</ele>
        <time>2018-07-21T12:12:23Z</time>
      </trkpt>
      <trkpt lat="41.090283" lon="-3.692117">
        <ele>1789.0</ele>
        <time>2018-07-21T12:12:24Z</time>
      </trkpt>
      <trkpt lat="41.090267" lon="-3.692200">
        <ele>1789.0</ele>
        <time>2018-07-21T12:12:25Z</time>
      </trkpt>
      <trkpt lat="41.090250" lon="-3.692267">
        <ele>1789.0</ele>
        <time>2018-07-21T12:12:26Z</time>
      </trkpt>
      <trkpt lat="41.090233" lon="-3.692367">
        <ele>1789.0</ele>
        <time>2018-07-21T12:12:27Z</time>
      </trkpt>
      <trkpt lat="41.090217" lon="-3.692450">
        <ele>1790.0</ele>
        <time>2018-07-21T12:12:28Z</time>
      </trkpt>
      <trkpt lat="41.090200" lon="-3.692533">
        <ele>1791.0</ele>
        <time>2018-07-21T12:12:29Z</time>
      </trkpt>
      <trkpt lat="41.090183" lon="-3.692617">
        <ele>1792.0</ele>
        <time>2018-07-21T12:12:30Z</time>
      </trkpt>
      <trkpt lat="41.090150" lon="-3.692683">
        <ele>1794.0</ele>
        <time>2018-07-21T12:12:31Z</time>
      </trkpt>
      <trkpt lat="41.090117" lon="-3.692767">
        <ele>1795.0</ele>
        <time>2018-07-21T12:12:32Z</time>
      </trkpt>
      <trkpt lat="41.090100" lon="-3.692850">
        <ele>1797.0</ele>
        <time>2018-07-21T12:12:33Z</time>
      </trkpt>
      <trkpt lat="41.090083" lon="-3.692917">
        <ele>1797.0</ele>
        <time>2018-07-21T12:12:34Z</time>
      </trkpt>
      <trkpt lat="41.090050" lon="-3.693000">
        <ele>1798.0</ele>
        <time>2018-07-21T12:12:35Z</time>
      </trkpt>
      <trkpt lat="41.090033" lon="-3.693083">
        <ele>1798.0</ele>
        <time>2018-07-21T12:12:36Z</time>
      </trkpt>
      <trkpt lat="41.090000" lon="-3.693167">
        <ele>1798.0</ele>
        <time>2018-07-21T12:12:37Z</time>
      </trkpt>
      <trkpt lat="41.089967" lon="-3.693250">
        <ele>1799.0</ele>
        <time>2018-07-21T12:12:38Z</time>
      </trkpt>
      <trkpt lat="41.089917" lon="-3.693317">
        <ele>1800.0</ele>
        <time>2018-07-21T12:12:39Z</time>
      </trkpt>
      <trkpt lat="41.089883" lon="-3.693383">
        <ele>1800.0</ele>
        <time>2018-07-21T12:12:40Z</time>
      </trkpt>
      <trkpt lat="41.089850" lon="-3.693467">
        <ele>1801.0</ele>
        <time>2018-07-21T12:12:41Z</time>
      </trkpt>
      <trkpt lat="41.089800" lon="-3.693533">
        <ele>1801.0</ele>
        <time>2018-07-21T12:12:42Z</time>
      </trkpt>
      <trkpt lat="41.089733" lon="-3.693617">
        <ele>1802.0</ele>
        <time>2018-07-21T12:12:43Z</time>
      </trkpt>
      <trkpt lat="41.089667" lon="-3.693667">
        <ele>1803.0</ele>
        <time>2018-07-21T12:12:44Z</time>
      </trkpt>
      <trkpt lat="41.089600" lon="-3.693733">
        <ele>1804.0</ele>
        <time>2018-07-21T12:12:45Z</time>
      </trkpt>
      <trkpt lat="41.089533" lon="-3.693800">
        <ele>1805.0</ele>
        <time>2018-07-21T12:12:46Z</time>
      </trkpt>
      <trkpt lat="41.089483" lon="-3.693867">
        <ele>1806.0</ele>
        <time>2018-07-21T12:12:47Z</time>
      </trkpt>
      <trkpt lat="41.089450" lon="-3.693950">
        <ele>1807.0</ele>
        <time>2018-07-21T12:12:48Z</time>
      </trkpt>
      <trkpt lat="41.089433" lon="-3.694033">
        <ele>1807.0</ele>
        <time>2018-07-21T12:12:49Z</time>
      </trkpt>
      <trkpt lat="41.089417" lon="-3.694100">
        <ele>1808.0</ele>
        <time>2018-07-21T12:12:50Z</time>
      </trkpt>
      <trkpt lat="41.089400" lon="-3.694183">
        <ele>1808.0</ele>
        <time>2018-07-21T12:12:51Z</time>
      </trkpt>
      <trkpt lat="41.089383" lon="-3.694250">
        <ele>1809.0</ele>
        <time>2018-07-21T12:12:52Z</time>
      </trkpt>
      <trkpt lat="41.089367" lon="-3.694333">
        <ele>1810.0</ele>
        <time>2018-07-21T12:12:53Z</time>
      </trkpt>
      <trkpt lat="41.089333" lon="-3.694417">
        <ele>1811.0</ele>
        <time>2018-07-21T12:12:54Z</time>
      </trkpt>
      <trkpt lat="41.089300" lon="-3.694500">
        <ele>1812.0</ele>
        <time>2018-07-21T12:12:55Z</time>
      </trkpt>
      <trkpt lat="41.089267" lon="-3.694583">
        <ele>1814.0</ele>
        <time>2018-07-21T12:12:56Z</time>
      </trkpt>
      <trkpt lat="41.089250" lon="-3.694683">
        <ele>1816.0</ele>
        <time>2018-07-21T12:12:57Z</time>
      </trkpt>
      <trkpt lat="41.089233" lon="-3.694767">
        <ele>1819.0</ele>
        <time>2018-07-21T12:12:58Z</time>
      </trkpt>
      <trkpt lat="41.089200" lon="-3.694850">
        <ele>1821.0</ele>
        <time>2018-07-21T12:12:59Z</time>
      </trkpt>
      <trkpt lat="41.089183" lon="-3.694917">
        <ele>1824.0</ele>
        <time>2018-07-21T12:13:00Z</time>
      </trkpt>
      <trkpt lat="41.089183" lon="-3.694967">
        <ele>1827.0</ele>
        <time>2018-07-21T12:13:01Z</time>
      </trkpt>
      <trkpt lat="41.089183" lon="-3.695033">
        <ele>1829.0</ele>
        <time>2018-07-21T12:13:02Z</time>
      </trkpt>
      <trkpt lat="41.089217" lon="-3.695083">
        <ele>1829.0</ele>
        <time>2018-07-21T12:13:03Z</time>
      </trkpt>
      <trkpt lat="41.089250" lon="-3.695150">
        <ele>1829.0</ele>
        <time>2018-07-21T12:13:04Z</time>
      </trkpt>
      <trkpt lat="41.089283" lon="-3.695233">
        <ele>1828.0</ele>
        <time>2018-07-21T12:13:05Z</time>
      </trkpt>
      <trkpt lat="41.089300" lon="-3.695300">
        <ele>1828.0</ele>
        <time>2018-07-21T12:13:06Z</time>
      </trkpt>
      <trkpt lat="41.089283" lon="-3.695383">
        <ele>1828.0</ele>
        <time>2018-07-21T12:13:07Z</time>
      </trkpt>
      <trkpt lat="41.089267" lon="-3.695450">
        <ele>1829.0</ele>
        <time>2018-07-21T12:13:08Z</time>
      </trkpt>
      <trkpt lat="41.089217" lon="-3.695500">
        <ele>1830.0</ele>
        <time>2018-07-21T12:13:09Z</time>
      </trkpt>
      <trkpt lat="41.089183" lon="-3.695533">
        <ele>1830.0</ele>
        <time>2018-07-21T12:13:10Z</time>
      </trkpt>
      <trkpt lat="41.089133" lon="-3.695567">
        <ele>1830.0</ele>
        <time>2018-07-21T12:13:11Z</time>
      </trkpt>
      <trkpt lat="41.089083" lon="-3.695617">
        <ele>1830.0</ele>
        <time>2018-07-21T12:13:12Z</time>
      </trkpt>
      <trkpt lat="41.089033" lon="-3.695667">
        <ele>1830.0</ele>
        <time>2018-07-21T12:13:13Z</time>
      </trkpt>
      <trkpt lat="41.088983" lon="-3.695700">
        <ele>1830.0</ele>
        <time>2018-07-21T12:13:14Z</time>
      </trkpt>
      <trkpt lat="41.088917" lon="-3.695750">
        <ele>1830.0</ele>
        <time>2018-07-21T12:13:15Z</time>
      </trkpt>
      <trkpt lat="41.088867" lon="-3.695783">
        <ele>1830.0</ele>
        <time>2018-07-21T12:13:16Z</time>
      </trkpt>
      <trkpt lat="41.088800" lon="-3.695817">
        <ele>1829.0</ele>
        <time>2018-07-21T12:13:17Z</time>
      </trkpt>
      <trkpt lat="41.088733" lon="-3.695850">
        <ele>1829.0</ele>
        <time>2018-07-21T12:13:18Z</time>
      </trkpt>
      <trkpt lat="41.088650" lon="-3.695883">
        <ele>1828.0</ele>
        <time>2018-07-21T12:13:19Z</time>
      </trkpt>
      <trkpt lat="41.088583" lon="-3.695933">
        <ele>1827.0</ele>
        <time>2018-07-21T12:13:20Z</time>
      </trkpt>
      <trkpt lat="41.088517" lon="-3.695983">
        <ele>1826.0</ele>
        <time>2018-07-21T12:13:21Z</time>
      </trkpt>
      <trkpt lat="41.088450" lon="-3.696033">
        <ele>1825.0</ele>
        <time>2018-07-21T12:13:22Z</time>
      </trkpt>
      <trkpt lat="41.088383" lon="-3.696083">
        <ele>1824.0</ele>
        <time>2018-07-21T12:13:23Z</time>
      </trkpt>
      <trkpt lat="41.088333" lon="-3.696150">
        <ele>1824.0</ele>
        <time>2018-07-21T12:13:24Z</time>
      </trkpt>
      <trkpt lat="41.088283" lon="-3.696200">
        <ele>1823.0</ele>
        <time>2018-07-21T12:13:25Z</time>
      </trkpt>
      <trkpt lat="41.088250" lon="-3.696267">
        <ele>1821.0</ele>
        <time>2018-07-21T12:13:26Z</time>
      </trkpt>
      <trkpt lat="41.088200" lon="-3.696333">
        <ele>1819.0</ele>
        <time>2018-07-21T12:13:27Z</time>
      </trkpt>
      <trkpt lat="41.088167" lon="-3.696400">
        <ele>1817.0</ele>
        <time>2018-07-21T12:13:28Z</time>
      </trkpt>
      <trkpt lat="41.088117" lon="-3.696483">
        <ele>1815.0</ele>
        <time>2018-07-21T12:13:29Z</time>
      </trkpt>
      <trkpt lat="41.088083" lon="-3.696550">
        <ele>1814.0</ele>
        <time>2018-07-21T12:13:30Z</time>
      </trkpt>
      <trkpt lat="41.088033" lon="-3.696617">
        <ele>1813.0</ele>
        <time>2018-07-21T12:13:31Z</time>
      </trkpt>
      <trkpt lat="41.087983" lon="-3.696700">
        <ele>1811.0</ele>
        <time>2018-07-21T12:13:32Z</time>
      </trkpt>
      <trkpt lat="41.087950" lon="-3.696767">
        <ele>1810.0</ele>
        <time>2018-07-21T12:13:33Z</time>
      </trkpt>
      <trkpt lat="41.087900" lon="-3.696833">
        <ele>1809.0</ele>
        <time>2018-07-21T12:13:34Z</time>
      </trkpt>
      <trkpt lat="41.087867" lon="-3.696917">
        <ele>1807.0</ele>
        <time>2018-07-21T12:13:35Z</time>
      </trkpt>
      <trkpt lat="41.087817" lon="-3.696983">
        <ele>1805.0</ele>
        <time>2018-07-21T12:13:36Z</time>
      </trkpt>
      <trkpt lat="41.087767" lon="-3.697050">
        <ele>1803.0</ele>
        <time>2018-07-21T12:13:37Z</time>
      </trkpt>
      <trkpt lat="41.087733" lon="-3.697133">
        <ele>1801.0</ele>
        <time>2018-07-21T12:13:38Z</time>
      </trkpt>
      <trkpt lat="41.087683" lon="-3.697200">
        <ele>1800.0</ele>
        <time>2018-07-21T12:13:39Z</time>
      </trkpt>
      <trkpt lat="41.087650" lon="-3.697283">
        <ele>1798.0</ele>
        <time>2018-07-21T12:13:40Z</time>
      </trkpt>
      <trkpt lat="41.087600" lon="-3.697350">
        <ele>1797.0</ele>
        <time>2018-07-21T12:13:41Z</time>
      </trkpt>
      <trkpt lat="41.087550" lon="-3.697417">
        <ele>1796.0</ele>
        <time>2018-07-21T12:13:42Z</time>
      </trkpt>
      <trkpt lat="41.087500" lon="-3.697467">
        <ele>1795.0</ele>
        <time>2018-07-21T12:13:43Z</time>
      </trkpt>
      <trkpt lat="41.087450" lon="-3.697533">
        <ele>1794.0</ele>
        <time>2018-07-21T12:13:44Z</time>
      </trkpt>
      <trkpt lat="41.087383" lon="-3.697583">
        <ele>1793.0</ele>
        <time>2018-07-21T12:13:45Z</time>
      </trkpt>
      <trkpt lat="41.087317" lon="-3.697633">
        <ele>1792.0</ele>
        <time>2018-07-21T12:13:46Z</time>
      </trkpt>
      <trkpt lat="41.087267" lon="-3.697667">
        <ele>1792.0</ele>
        <time>2018-07-21T12:13:47Z</time>
      </trkpt>
      <trkpt lat="41.087183" lon="-3.697700">
        <ele>1791.0</ele>
        <time>2018-07-21T12:13:48Z</time>
      </trkpt>
      <trkpt lat="41.087100" lon="-3.697717">
        <ele>1790.0</ele>
        <time>2018-07-21T12:13:49Z</time>
      </trkpt>
      <trkpt lat="41.087017" lon="-3.697733">
        <ele>1789.0</ele>
        <time>2018-07-21T12:13:50Z</time>
      </trkpt>
      <trkpt lat="41.086917" lon="-3.697767">
        <ele>1788.0</ele>
        <time>2018-07-21T12:13:51Z</time>
      </trkpt>
      <trkpt lat="41.086850" lon="-3.697800">
        <ele>1787.0</ele>
        <time>2018-07-21T12:13:52Z</time>
      </trkpt>
      <trkpt lat="41.086767" lon="-3.697833">
        <ele>1786.0</ele>
        <time>2018-07-21T12:13:53Z</time>
      </trkpt>
      <trkpt lat="41.086683" lon="-3.697867">
        <ele>1785.0</ele>
        <time>2018-07-21T12:13:54Z</time>
      </trkpt>
      <trkpt lat="41.086600" lon="-3.697883">
        <ele>1783.0</ele>
        <time>2018-07-21T12:13:55Z</time>
      </trkpt>
      <trkpt lat="41.086517" lon="-3.697917">
        <ele>1782.0</ele>
        <time>2018-07-21T12:13:56Z</time>
      </trkpt>
      <trkpt lat="41.086433" lon="-3.697967">
        <ele>1781.0</ele>
        <time>2018-07-21T12:13:57Z</time>
      </trkpt>
      <trkpt lat="41.086367" lon="-3.698000">
        <ele>1780.0</ele>
        <time>2018-07-21T12:13:58Z</time>
      </trkpt>
      <trkpt lat="41.086317" lon="-3.698050">
        <ele>1779.0</ele>
        <time>2018-07-21T12:13:59Z</time>
      </trkpt>
      <trkpt lat="41.086267" lon="-3.698100">
        <ele>1778.0</ele>
        <time>2018-07-21T12:14:00Z</time>
      </trkpt>
      <trkpt lat="41.086233" lon="-3.698150">
        <ele>1777.0</ele>
        <time>2018-07-21T12:14:01Z</time>
      </trkpt>
      <trkpt lat="41.086217" lon="-3.698217">
        <ele>1776.0</ele>
        <time>2018-07-21T12:14:02Z</time>
      </trkpt>
      <trkpt lat="41.086200" lon="-3.698300">
        <ele>1774.0</ele>
        <time>2018-07-21T12:14:03Z</time>
      </trkpt>
      <trkpt lat="41.086217" lon="-3.698400">
        <ele>1774.0</ele>
        <time>2018-07-21T12:14:04Z</time>
      </trkpt>
      <trkpt lat="41.086233" lon="-3.698483">
        <ele>1773.0</ele>
        <time>2018-07-21T12:14:05Z</time>
      </trkpt>
      <trkpt lat="41.086267" lon="-3.698550">
        <ele>1773.0</ele>
        <time>2018-07-21T12:14:06Z</time>
      </trkpt>
      <trkpt lat="41.086300" lon="-3.698583">
        <ele>1772.0</ele>
        <time>2018-07-21T12:14:07Z</time>
      </trkpt>
      <trkpt lat="41.086367" lon="-3.698600">
        <ele>1769.0</ele>
        <time>2018-07-21T12:14:08Z</time>
      </trkpt>
      <trkpt lat="41.086433" lon="-3.698617">
        <ele>1765.0</ele>
        <time>2018-07-21T12:14:09Z</time>
      </trkpt>
      <trkpt lat="41.086533" lon="-3.698633">
        <ele>1762.0</ele>
        <time>2018-07-21T12:14:10Z</time>
      </trkpt>
      <trkpt lat="41.086633" lon="-3.698650">
        <ele>1759.0</ele>
        <time>2018-07-21T12:14:11Z</time>
      </trkpt>
      <trkpt lat="41.086717" lon="-3.698667">
        <ele>1758.0</ele>
        <time>2018-07-21T12:14:12Z</time>
      </trkpt>
      <trkpt lat="41.086817" lon="-3.698683">
        <ele>1758.0</ele>
        <time>2018-07-21T12:14:13Z</time>
      </trkpt>
      <trkpt lat="41.086883" lon="-3.698700">
        <ele>1757.0</ele>
        <time>2018-07-21T12:14:14Z</time>
      </trkpt>
      <trkpt lat="41.086933" lon="-3.698733">
        <ele>1756.0</ele>
        <time>2018-07-21T12:14:15Z</time>
      </trkpt>
      <trkpt lat="41.086983" lon="-3.698783">
        <ele>1754.0</ele>
        <time>2018-07-21T12:14:16Z</time>
      </trkpt>
      <trkpt lat="41.087033" lon="-3.698833">
        <ele>1751.0</ele>
        <time>2018-07-21T12:14:17Z</time>
      </trkpt>
      <trkpt lat="41.087083" lon="-3.698917">
        <ele>1749.0</ele>
        <time>2018-07-21T12:14:18Z</time>
      </trkpt>
      <trkpt lat="41.087100" lon="-3.699017">
        <ele>1747.0</ele>
        <time>2018-07-21T12:14:19Z</time>
      </trkpt>
      <trkpt lat="41.087117" lon="-3.699100">
        <ele>1746.0</ele>
        <time>2018-07-21T12:14:20Z</time>
      </trkpt>
      <trkpt lat="41.087133" lon="-3.699200">
        <ele>1745.0</ele>
        <time>2018-07-21T12:14:21Z</time>
      </trkpt>
      <trkpt lat="41.087167" lon="-3.699283">
        <ele>1744.0</ele>
        <time>2018-07-21T12:14:22Z</time>
      </trkpt>
      <trkpt lat="41.087217" lon="-3.699350">
        <ele>1742.0</ele>
        <time>2018-07-21T12:14:23Z</time>
      </trkpt>
      <trkpt lat="41.087267" lon="-3.699400">
        <ele>1740.0</ele>
        <time>2018-07-21T12:14:24Z</time>
      </trkpt>
      <trkpt lat="41.087350" lon="-3.699450">
        <ele>1739.0</ele>
        <time>2018-07-21T12:14:25Z</time>
      </trkpt>
      <trkpt lat="41.087417" lon="-3.699483">
        <ele>1737.0</ele>
        <time>2018-07-21T12:14:26Z</time>
      </trkpt>
      <trkpt lat="41.087500" lon="-3.699500">
        <ele>1736.0</ele>
        <time>2018-07-21T12:14:27Z</time>
      </trkpt>
      <trkpt lat="41.087600" lon="-3.699517">
        <ele>1734.0</ele>
        <time>2018-07-21T12:14:28Z</time>
      </trkpt>
      <trkpt lat="41.087683" lon="-3.699517">
        <ele>1733.0</ele>
        <time>2018-07-21T12:14:29Z</time>
      </trkpt>
      <trkpt lat="41.087767" lon="-3.699533">
        <ele>1733.0</ele>
        <time>2018-07-21T12:14:30Z</time>
      </trkpt>
      <trkpt lat="41.087833" lon="-3.699550">
        <ele>1731.0</ele>
        <time>2018-07-21T12:14:31Z</time>
      </trkpt>
      <trkpt lat="41.087900" lon="-3.699567">
        <ele>1728.0</ele>
        <time>2018-07-21T12:14:32Z</time>
      </trkpt>
      <trkpt lat="41.087967" lon="-3.699617">
        <ele>1725.0</ele>
        <time>2018-07-21T12:14:33Z</time>
      </trkpt>
      <trkpt lat="41.088050" lon="-3.699667">
        <ele>1722.0</ele>
        <time>2018-07-21T12:14:34Z</time>
      </trkpt>
      <trkpt lat="41.088133" lon="-3.699717">
        <ele>1719.0</ele>
        <time>2018-07-21T12:14:35Z</time>
      </trkpt>
      <trkpt lat="41.088217" lon="-3.699750">
        <ele>1718.0</ele>
        <time>2018-07-21T12:14:36Z</time>
      </trkpt>
      <trkpt lat="41.088283" lon="-3.699800">
        <ele>1716.0</ele>
        <time>2018-07-21T12:14:37Z</time>
      </trkpt>
      <trkpt lat="41.088350" lon="-3.699833">
        <ele>1715.0</ele>
        <time>2018-07-21T12:14:38Z</time>
      </trkpt>
      <trkpt lat="41.088433" lon="-3.699867">
        <ele>1713.0</ele>
        <time>2018-07-21T12:14:39Z</time>
      </trkpt>
      <trkpt lat="41.088500" lon="-3.699883">
        <ele>1711.0</ele>
        <time>2018-07-21T12:14:40Z</time>
      </trkpt>
      <trkpt lat="41.088600" lon="-3.699900">
        <ele>1710.0</ele>
        <time>2018-07-21T12:14:41Z</time>
      </trkpt>
      <trkpt lat="41.088683" lon="-3.699933">
        <ele>1709.0</ele>
        <time>2018-07-21T12:14:42Z</time>
      </trkpt>
      <trkpt lat="41.088783" lon="-3.699967">
        <ele>1708.0</ele>
        <time>2018-07-21T12:14:43Z</time>
      </trkpt>
      <trkpt lat="41.088867" lon="-3.700000">
        <ele>1709.0</ele>
        <time>2018-07-21T12:14:44Z</time>
      </trkpt>
      <trkpt lat="41.088933" lon="-3.700050">
        <ele>1710.0</ele>
        <time>2018-07-21T12:14:45Z</time>
      </trkpt>
      <trkpt lat="41.089000" lon="-3.700083">
        <ele>1711.0</ele>
        <time>2018-07-21T12:14:46Z</time>
      </trkpt>
      <trkpt lat="41.089083" lon="-3.700117">
        <ele>1711.0</ele>
        <time>2018-07-21T12:14:47Z</time>
      </trkpt>
      <trkpt lat="41.089150" lon="-3.700150">
        <ele>1710.0</ele>
        <time>2018-07-21T12:14:48Z</time>
      </trkpt>
      <trkpt lat="41.089233" lon="-3.700200">
        <ele>1711.0</ele>
        <time>2018-07-21T12:14:49Z</time>
      </trkpt>
      <trkpt lat="41.089300" lon="-3.700250">
        <ele>1712.0</ele>
        <time>2018-07-21T12:14:50Z</time>
      </trkpt>
      <trkpt lat="41.089367" lon="-3.700267">
        <ele>1714.0</ele>
        <time>2018-07-21T12:14:51Z</time>
      </trkpt>
      <trkpt lat="41.089450" lon="-3.700283">
        <ele>1716.0</ele>
        <time>2018-07-21T12:14:52Z</time>
      </trkpt>
      <trkpt lat="41.089517" lon="-3.700283">
        <ele>1716.0</ele>
        <time>2018-07-21T12:14:53Z</time>
      </trkpt>
      <trkpt lat="41.089583" lon="-3.700300">
        <ele>1717.0</ele>
        <time>2018-07-21T12:14:54Z</time>
      </trkpt>
      <trkpt lat="41.089667" lon="-3.700283">
        <ele>1717.0</ele>
        <time>2018-07-21T12:14:55Z</time>
      </trkpt>
      <trkpt lat="41.089750" lon="-3.700267">
        <ele>1718.0</ele>
        <time>2018-07-21T12:14:56Z</time>
      </trkpt>
      <trkpt lat="41.089850" lon="-3.700233">
        <ele>1719.0</ele>
        <time>2018-07-21T12:14:57Z</time>
      </trkpt>
      <trkpt lat="41.089933" lon="-3.700200">
        <ele>1720.0</ele>
        <time>2018-07-21T12:14:58Z</time>
      </trkpt>
      <trkpt lat="41.090017" lon="-3.700183">
        <ele>1721.0</ele>
        <time>2018-07-21T12:14:59Z</time>
      </trkpt>
      <trkpt lat="41.090100" lon="-3.700183">
        <ele>1721.0</ele>
        <time>2018-07-21T12:15:00Z</time>
      </trkpt>
      <trkpt lat="41.090183" lon="-3.700183">
        <ele>1721.0</ele>
        <time>2018-07-21T12:15:01Z</time>
      </trkpt>
      <trkpt lat="41.090283" lon="-3.700183">
        <ele>1722.0</ele>
        <time>2018-07-21T12:15:02Z</time>
      </trkpt>
      <trkpt lat="41.090383" lon="-3.700150">
        <ele>1723.0</ele>
        <time>2018-07-21T12:15:03Z</time>
      </trkpt>
      <trkpt lat="41.090483" lon="-3.700117">
        <ele>1725.0</ele>
        <time>2018-07-21T12:15:04Z</time>
      </trkpt>
      <trkpt lat="41.090550" lon="-3.700083">
        <ele>1727.0</ele>
        <time>2018-07-21T12:15:05Z</time>
      </trkpt>
      <trkpt lat="41.090617" lon="-3.700100">
        <ele>1728.0</ele>
        <time>2018-07-21T12:15:06Z</time>
      </trkpt>
      <trkpt lat="41.090667" lon="-3.700133">
        <ele>1728.0</ele>
        <time>2018-07-21T12:15:07Z</time>
      </trkpt>
      <trkpt lat="41.090700" lon="-3.700200">
        <ele>1727.0</ele>
        <time>2018-07-21T12:15:08Z</time>
      </trkpt>
      <trkpt lat="41.090700" lon="-3.700300">
        <ele>1727.0</ele>
        <time>2018-07-21T12:15:09Z</time>
      </trkpt>
      <trkpt lat="41.090683" lon="-3.700383">
        <ele>1728.0</ele>
        <time>2018-07-21T12:15:10Z</time>
      </trkpt>
      <trkpt lat="41.090617" lon="-3.700467">
        <ele>1728.0</ele>
        <time>2018-07-21T12:15:11Z</time>
      </trkpt>
      <trkpt lat="41.090533" lon="-3.700500">
        <ele>1729.0</ele>
        <time>2018-07-21T12:15:12Z</time>
      </trkpt>
      <trkpt lat="41.090433" lon="-3.700500">
        <ele>1730.0</ele>
        <time>2018-07-21T12:15:13Z</time>
      </trkpt>
      <trkpt lat="41.090333" lon="-3.700433">
        <ele>1731.0</ele>
        <time>2018-07-21T12:15:14Z</time>
      </trkpt>
      <trkpt lat="41.090233" lon="-3.700333">
        <ele>1732.0</ele>
        <time>2018-07-21T12:15:15Z</time>
      </trkpt>
      <trkpt lat="41.090150" lon="-3.700200">
        <ele>1733.0</ele>
        <time>2018-07-21T12:15:16Z</time>
      </trkpt>
      <trkpt lat="41.090100" lon="-3.700050">
        <ele>1734.0</ele>
        <time>2018-07-21T12:15:17Z</time>
      </trkpt>
      <trkpt lat="41.090050" lon="-3.699883">
        <ele>1735.0</ele>
        <time>2018-07-21T12:15:18Z</time>
      </trkpt>
      <trkpt lat="41.090033" lon="-3.699717">
        <ele>1736.0</ele>
        <time>2018-07-21T12:15:19Z</time>
      </trkpt>
      <trkpt lat="41.090017" lon="-3.699550">
        <ele>1738.0</ele>
        <time>2018-07-21T12:15:20Z</time>
      </trkpt>
      <trkpt lat="41.090017" lon="-3.699383">
        <ele>1739.0</ele>
        <time>2018-07-21T12:15:21Z</time>
      </trkpt>
      <trkpt lat="41.090000" lon="-3.699217">
        <ele>1740.0</ele>
        <time>2018-07-21T12:15:22Z</time>
      </trkpt>
      <trkpt lat="41.090017" lon="-3.699050">
        <ele>1741.0</ele>
        <time>2018-07-21T12:15:23Z</time>
      </trkpt>
      <trkpt lat="41.090050" lon="-3.698883">
        <ele>1742.0</ele>
        <time>2018-07-21T12:15:24Z</time>
      </trkpt>
      <trkpt lat="41.090100" lon="-3.698750">
        <ele>1742.0</ele>
        <time>2018-07-21T12:15:25Z</time>
      </trkpt>
      <trkpt lat="41.090183" lon="-3.698633">
        <ele>1741.0</ele>
        <time>2018-07-21T12:15:26Z</time>
      </trkpt>
      <trkpt lat="41.090283" lon="-3.698567">
        <ele>1740.0</ele>
        <time>2018-07-21T12:15:27Z</time>
      </trkpt>
      <trkpt lat="41.090383" lon="-3.698550">
        <ele>1740.0</ele>
        <time>2018-07-21T12:15:28Z</time>
      </trkpt>
      <trkpt lat="41.090467" lon="-3.698550">
        <ele>1741.0</ele>
        <time>2018-07-21T12:15:29Z</time>
      </trkpt>
      <trkpt lat="41.090533" lon="-3.698583">
        <ele>1742.0</ele>
        <time>2018-07-21T12:15:30Z</time>
      </trkpt>
      <trkpt lat="41.090600" lon="-3.698633">
        <ele>1742.0</ele>
        <time>2018-07-21T12:15:31Z</time>
      </trkpt>
      <trkpt lat="41.090617" lon="-3.698717">
        <ele>1743.0</ele>
        <time>2018-07-21T12:15:32Z</time>
      </trkpt>
      <trkpt lat="41.090617" lon="-3.698800">
        <ele>1743.0</ele>
        <time>2018-07-21T12:15:33Z</time>
      </trkpt>
      <trkpt lat="41.090583" lon="-3.698867">
        <ele>1743.0</ele>
        <time>2018-07-21T12:15:34Z</time>
      </trkpt>
      <trkpt lat="41.090517" lon="-3.698933">
        <ele>1743.0</ele>
        <time>2018-07-21T12:15:35Z</time>
      </trkpt>
      <trkpt lat="41.090433" lon="-3.698983">
        <ele>1743.0</ele>
        <time>2018-07-21T12:15:36Z</time>
      </trkpt>
      <trkpt lat="41.090333" lon="-3.699000">
        <ele>1744.0</ele>
        <time>2018-07-21T12:15:37Z</time>
      </trkpt>
      <trkpt lat="41.090233" lon="-3.698983">
        <ele>1744.0</ele>
        <time>2018-07-21T12:15:38Z</time>
      </trkpt>
      <trkpt lat="41.090133" lon="-3.698933">
        <ele>1745.0</ele>
        <time>2018-07-21T12:15:39Z</time>
      </trkpt>
      <trkpt lat="41.090033" lon="-3.698850">
        <ele>1745.0</ele>
        <time>2018-07-21T12:15:40Z</time>
      </trkpt>
      <trkpt lat="41.089950" lon="-3.698733">
        <ele>1746.0</ele>
        <time>2018-07-21T12:15:41Z</time>
      </trkpt>
      <trkpt lat="41.089867" lon="-3.698600">
        <ele>1746.0</ele>
        <time>2018-07-21T12:15:42Z</time>
      </trkpt>
      <trkpt lat="41.089817" lon="-3.698450">
        <ele>1746.0</ele>
        <time>2018-07-21T12:15:43Z</time>
      </trkpt>
      <trkpt lat="41.089800" lon="-3.698267">
        <ele>1747.0</ele>
        <time>2018-07-21T12:15:44Z</time>
      </trkpt>
      <trkpt lat="41.089800" lon="-3.698100">
        <ele>1748.0</ele>
        <time>2018-07-21T12:15:45Z</time>
      </trkpt>
      <trkpt lat="41.089833" lon="-3.697950">
        <ele>1749.0</ele>
        <time>2018-07-21T12:15:46Z</time>
      </trkpt>
      <trkpt lat="41.089867" lon="-3.697800">
        <ele>1749.0</ele>
        <time>2018-07-21T12:15:47Z</time>
      </trkpt>
      <trkpt lat="41.089933" lon="-3.697667">
        <ele>1750.0</ele>
        <time>2018-07-21T12:15:48Z</time>
      </trkpt>
      <trkpt lat="41.090000" lon="-3.697550">
        <ele>1749.0</ele>
        <time>2018-07-21T12:15:49Z</time>
      </trkpt>
      <trkpt lat="41.090083" lon="-3.697467">
        <ele>1749.0</ele>
        <time>2018-07-21T12:15:50Z</time>
      </trkpt>
      <trkpt lat="41.090167" lon="-3.697400">
        <ele>1749.0</ele>
        <time>2018-07-21T12:15:51Z</time>
      </trkpt>
      <trkpt lat="41.090267" lon="-3.697350">
        <ele>1748.0</ele>
        <time>2018-07-21T12:15:52Z</time>
      </trkpt>
      <trkpt lat="41.090367" lon="-3.697333">
        <ele>1749.0</ele>
        <time>2018-07-21T12:15:53Z</time>
      </trkpt>
      <trkpt lat="41.090450" lon="-3.697350">
        <ele>1749.0</ele>
        <time>2018-07-21T12:15:54Z</time>
      </trkpt>
      <trkpt lat="41.090517" lon="-3.697400">
        <ele>1749.0</ele>
        <time>2018-07-21T12:15:55Z</time>
      </trkpt>
      <trkpt lat="41.090567" lon="-3.697450">
        <ele>1749.0</ele>
        <time>2018-07-21T12:15:56Z</time>
      </trkpt>
      <trkpt lat="41.090600" lon="-3.697517">
        <ele>1750.0</ele>
        <time>2018-07-21T12:15:57Z</time>
      </trkpt>
      <trkpt lat="41.090650" lon="-3.697583">
        <ele>1751.0</ele>
        <time>2018-07-21T12:15:58Z</time>
      </trkpt>
      <trkpt lat="41.090700" lon="-3.697650">
        <ele>1753.0</ele>
        <time>2018-07-21T12:15:59Z</time>
      </trkpt>
      <trkpt lat="41.090733" lon="-3.697683">
        <ele>1756.0</ele>
        <time>2018-07-21T12:16:00Z</time>
      </trkpt>
      <trkpt lat="41.090783" lon="-3.697717">
        <ele>1758.0</ele>
        <time>2018-07-21T12:16:01Z</time>
      </trkpt>
      <trkpt lat="41.090833" lon="-3.697750">
        <ele>1759.0</ele>
        <time>2018-07-21T12:16:02Z</time>
      </trkpt>
      <trkpt lat="41.090883" lon="-3.697783">
        <ele>1760.0</ele>
        <time>2018-07-21T12:16:03Z</time>
      </trkpt>
      <trkpt lat="41.090917" lon="-3.697833">
        <ele>1762.0</ele>
        <time>2018-07-21T12:16:04Z</time>
      </trkpt>
      <trkpt lat="41.090917" lon="-3.697900">
        <ele>1763.0</ele>
        <time>2018-07-21T12:16:05Z</time>
      </trkpt>
      <trkpt lat="41.090883" lon="-3.697950">
        <ele>1764.0</ele>
        <time>2018-07-21T12:16:06Z</time>
      </trkpt>
      <trkpt lat="41.090833" lon="-3.698000">
        <ele>1764.0</ele>
        <time>2018-07-21T12:16:07Z</time>
      </trkpt>
      <trkpt lat="41.090750" lon="-3.698033">
        <ele>1765.0</ele>
        <time>2018-07-21T12:16:08Z</time>
      </trkpt>
      <trkpt lat="41.090667" lon="-3.698050">
        <ele>1766.0</ele>
        <time>2018-07-21T12:16:09Z</time>
      </trkpt>
      <trkpt lat="41.090567" lon="-3.698017">
        <ele>1767.0</ele>
        <time>2018-07-21T12:16:10Z</time>
      </trkpt>
      <trkpt lat="41.090467" lon="-3.697967">
        <ele>1769.0</ele>
        <time>2018-07-21T12:16:11Z</time>
      </trkpt>
      <trkpt lat="41.090383" lon="-3.697850">
        <ele>1770.0</ele>
        <time>2018-07-21T12:16:12Z</time>
      </trkpt>
      <trkpt lat="41.090300" lon="-3.697733">
        <ele>1771.0</ele>
        <time>2018-07-21T12:16:13Z</time>
      </trkpt>
      <trkpt lat="41.090233" lon="-3.697600">
        <ele>1772.0</ele>
        <time>2018-07-21T12:16:14Z</time>
      </trkpt>
      <trkpt lat="41.090183" lon="-3.697450">
        <ele>1774.0</ele>
        <time>2018-07-21T12:16:15Z</time>
      </trkpt>
      <trkpt lat="41.090167" lon="-3.697283">
        <ele>1775.0</ele>
        <time>2018-07-21T12:16:16Z</time>
      </trkpt>
      <trkpt lat="41.090167" lon="-3.697133">
        <ele>1776.0</ele>
        <time>2018-07-21T12:16:17Z</time>
      </trkpt>
      <trkpt lat="41.090200" lon="-3.696983">
        <ele>1777.0</ele>
        <time>2018-07-21T12:16:18Z</time>
      </trkpt>
      <trkpt lat="41.090267" lon="-3.696850">
        <ele>1777.0</ele>
        <time>2018-07-21T12:16:19Z</time>
      </trkpt>
      <trkpt lat="41.090350" lon="-3.696750">
        <ele>1777.0</ele>
        <time>2018-07-21T12:16:20Z</time>
      </trkpt>
      <trkpt lat="41.090433" lon="-3.696650">
        <ele>1779.0</ele>
        <time>2018-07-21T12:16:21Z</time>
      </trkpt>
      <trkpt lat="41.090533" lon="-3.696583">
        <ele>1781.0</ele>
        <time>2018-07-21T12:16:22Z</time>
      </trkpt>
      <trkpt lat="41.090617" lon="-3.696550">
        <ele>1784.0</ele>
        <time>2018-07-21T12:16:23Z</time>
      </trkpt>
      <trkpt lat="41.090700" lon="-3.696517">
        <ele>1786.0</ele>
        <time>2018-07-21T12:16:24Z</time>
      </trkpt>
      <trkpt lat="41.090767" lon="-3.696533">
        <ele>1787.0</ele>
        <time>2018-07-21T12:16:25Z</time>
      </trkpt>
      <trkpt lat="41.090817" lon="-3.696567">
        <ele>1789.0</ele>
        <time>2018-07-21T12:16:26Z</time>
      </trkpt>
      <trkpt lat="41.090850" lon="-3.696633">
        <ele>1790.0</ele>
        <time>2018-07-21T12:16:27Z</time>
      </trkpt>
      <trkpt lat="41.090833" lon="-3.696700">
        <ele>1791.0</ele>
        <time>2018-07-21T12:16:28Z</time>
      </trkpt>
      <trkpt lat="41.090783" lon="-3.696733">
        <ele>1792.0</ele>
        <time>2018-07-21T12:16:29Z</time>
      </trkpt>
      <trkpt lat="41.090717" lon="-3.696767">
        <ele>1792.0</ele>
        <time>2018-07-21T12:16:30Z</time>
      </trkpt>
      <trkpt lat="41.090617" lon="-3.696750">
        <ele>1792.0</ele>
        <time>2018-07-21T12:16:31Z</time>
      </trkpt>
      <trkpt lat="41.090500" lon="-3.696683">
        <ele>1793.0</ele>
        <time>2018-07-21T12:16:32Z</time>
      </trkpt>
      <trkpt lat="41.090400" lon="-3.696567">
        <ele>1795.0</ele>
        <time>2018-07-21T12:16:33Z</time>
      </trkpt>
      <trkpt lat="41.090317" lon="-3.696433">
        <ele>1797.0</ele>
        <time>2018-07-21T12:16:34Z</time>
      </trkpt>
      <trkpt lat="41.090250" lon="-3.696300">
        <ele>1800.0</ele>
        <time>2018-07-21T12:16:35Z</time>
      </trkpt>
      <trkpt lat="41.090200" lon="-3.696150">
        <ele>1802.0</ele>
        <time>2018-07-21T12:16:36Z</time>
      </trkpt>
      <trkpt lat="41.090183" lon="-3.696017">
        <ele>1805.0</ele>
        <time>2018-07-21T12:16:37Z</time>
      </trkpt>
      <trkpt lat="41.090183" lon="-3.695867">
        <ele>1805.0</ele>
        <time>2018-07-21T12:16:38Z</time>
      </trkpt>
      <trkpt lat="41.090200" lon="-3.695733">
        <ele>1805.0</ele>
        <time>2018-07-21T12:16:39Z</time>
      </trkpt>
      <trkpt lat="41.090250" lon="-3.695583">
        <ele>1805.0</ele>
        <time>2018-07-21T12:16:40Z</time>
      </trkpt>
      <trkpt lat="41.090300" lon="-3.695433">
        <ele>1804.0</ele>
        <time>2018-07-21T12:16:41Z</time>
      </trkpt>
      <trkpt lat="41.090383" lon="-3.695300">
        <ele>1804.0</ele>
        <time>2018-07-21T12:16:42Z</time>
      </trkpt>
      <trkpt lat="41.090450" lon="-3.695183">
        <ele>1804.0</ele>
        <time>2018-07-21T12:16:43Z</time>
      </trkpt>
      <trkpt lat="41.090550" lon="-3.695100">
        <ele>1805.0</ele>
        <time>2018-07-21T12:16:44Z</time>
      </trkpt>
      <trkpt lat="41.090650" lon="-3.695033">
        <ele>1806.0</ele>
        <time>2018-07-21T12:16:45Z</time>
      </trkpt>
      <trkpt lat="41.090750" lon="-3.694983">
        <ele>1807.0</ele>
        <time>2018-07-21T12:16:46Z</time>
      </trkpt>
      <trkpt lat="41.090850" lon="-3.694950">
        <ele>1809.0</ele>
        <time>2018-07-21T12:16:47Z</time>
      </trkpt>
      <trkpt lat="41.090933" lon="-3.694917">
        <ele>1813.0</ele>
        <time>2018-07-21T12:16:48Z</time>
      </trkpt>
      <trkpt lat="41.091000" lon="-3.694867">
        <ele>1816.0</ele>
        <time>2018-07-21T12:16:49Z</time>
      </trkpt>
      <trkpt lat="41.091067" lon="-3.694833">
        <ele>1818.0</ele>
        <time>2018-07-21T12:16:50Z</time>
      </trkpt>
      <trkpt lat="41.091133" lon="-3.694783">
        <ele>1819.0</ele>
        <time>2018-07-21T12:16:51Z</time>
      </trkpt>
      <trkpt lat="41.091200" lon="-3.694733">
        <ele>1820.0</ele>
        <time>2018-07-21T12:16:52Z</time>
      </trkpt>
      <trkpt lat="41.091267" lon="-3.694683">
        <ele>1820.0</ele>
        <time>2018-07-21T12:16:53Z</time>
      </trkpt>
      <trkpt lat="41.091333" lon="-3.694650">
        <ele>1821.0</ele>
        <time>2018-07-21T12:16:54Z</time>
      </trkpt>
      <trkpt lat="41.091400" lon="-3.694650">
        <ele>1821.0</ele>
        <time>2018-07-21T12:16:55Z</time>
      </trkpt>
      <trkpt lat="41.091433" lon="-3.694700">
        <ele>1821.0</ele>
        <time>2018-07-21T12:16:56Z</time>
      </trkpt>
      <trkpt lat="41.091467" lon="-3.694750">
        <ele>1821.0</ele>
        <time>2018-07-21T12:16:57Z</time>
      </trkpt>
      <trkpt lat="41.091483" lon="-3.694817">
        <ele>1822.0</ele>
        <time>2018-07-21T12:16:58Z</time>
      </trkpt>
      <trkpt lat="41.091483" lon="-3.694883">
        <ele>1824.0</ele>
        <time>2018-07-21T12:16:59Z</time>
      </trkpt>
      <trkpt lat="41.091450" lon="-3.694933">
        <ele>1824.0</ele>
        <time>2018-07-21T12:17:00Z</time>
      </trkpt>
      <trkpt lat="41.091400" lon="-3.694983">
        <ele>1825.0</ele>
        <time>2018-07-21T12:17:01Z</time>
      </trkpt>
      <trkpt lat="41.091333" lon="-3.695000">
        <ele>1825.0</ele>
        <time>2018-07-21T12:17:02Z</time>
      </trkpt>
      <trkpt lat="41.091233" lon="-3.695000">
        <ele>1825.0</ele>
        <time>2018-07-21T12:17:03Z</time>
      </trkpt>
      <trkpt lat="41.091133" lon="-3.694967">
        <ele>1825.0</ele>
        <time>2018-07-21T12:17:04Z</time>
      </trkpt>
      <trkpt lat="41.091050" lon="-3.694900">
        <ele>1825.0</ele>
        <time>2018-07-21T12:17:05Z</time>
      </trkpt>
      <trkpt lat="41.090950" lon="-3.694817">
        <ele>1824.0</ele>
        <time>2018-07-21T12:17:06Z</time>
      </trkpt>
      <trkpt lat="41.090867" lon="-3.694733">
        <ele>1824.0</ele>
        <time>2018-07-21T12:17:07Z</time>
      </trkpt>
      <trkpt lat="41.090783" lon="-3.694633">
        <ele>1823.0</ele>
        <time>2018-07-21T12:17:08Z</time>
      </trkpt>
      <trkpt lat="41.090683" lon="-3.694533">
        <ele>1823.0</ele>
        <time>2018-07-21T12:17:09Z</time>
      </trkpt>
      <trkpt lat="41.090583" lon="-3.694417">
        <ele>1822.0</ele>
        <time>2018-07-21T12:17:10Z</time>
      </trkpt>
      <trkpt lat="41.090483" lon="-3.694333">
        <ele>1822.0</ele>
        <time>2018-07-21T12:17:11Z</time>
      </trkpt>
      <trkpt lat="41.090383" lon="-3.694267">
        <ele>1823.0</ele>
        <time>2018-07-21T12:17:12Z</time>
      </trkpt>
      <trkpt lat="41.090267" lon="-3.694217">
        <ele>1824.0</ele>
        <time>2018-07-21T12:17:13Z</time>
      </trkpt>
      <trkpt lat="41.090167" lon="-3.694183">
        <ele>1826.0</ele>
        <time>2018-07-21T12:17:14Z</time>
      </trkpt>
      <trkpt lat="41.090067" lon="-3.694167">
        <ele>1828.0</ele>
        <time>2018-07-21T12:17:15Z</time>
      </trkpt>
      <trkpt lat="41.089983" lon="-3.694150">
        <ele>1830.0</ele>
        <time>2018-07-21T12:17:16Z</time>
      </trkpt>
      <trkpt lat="41.089900" lon="-3.694167">
        <ele>1831.0</ele>
        <time>2018-07-21T12:17:17Z</time>
      </trkpt>
      <trkpt lat="41.089833" lon="-3.694200">
        <ele>1832.0</ele>
        <time>2018-07-21T12:17:18Z</time>
      </trkpt>
      <trkpt lat="41.089783" lon="-3.694267">
        <ele>1832.0</ele>
        <time>2018-07-21T12:17:19Z</time>
      </trkpt>
      <trkpt lat="41.089733" lon="-3.694350">
        <ele>1833.0</ele>
        <time>2018-07-21T12:17:20Z</time>
      </trkpt>
      <trkpt lat="41.089717" lon="-3.694433">
        <ele>1834.0</ele>
        <time>2018-07-21T12:17:21Z</time>
      </trkpt>
      <trkpt lat="41.089700" lon="-3.694517">
        <ele>1837.0</ele>
        <time>2018-07-21T12:17:22Z</time>
      </trkpt>
      <trkpt lat="41.089717" lon="-3.694567">
        <ele>1840.0</ele>
        <time>2018-07-21T12:17:23Z</time>
      </trkpt>
      <trkpt lat="41.089733" lon="-3.694617">
        <ele>1842.0</ele>
        <time>2018-07-21T12:17:24Z</time>
      </trkpt>
      <trkpt lat="41.089783" lon="-3.694650">
        <ele>1843.0</ele>
        <time>2018-07-21T12:17:25Z</time>
      </trkpt>
      <trkpt lat="41.089800" lon="-3.694683">
        <ele>1843.0</ele>
        <time>2018-07-21T12:17:26Z</time>
      </trkpt>
      <trkpt lat="41.089817" lon="-3.694750">
        <ele>1844.0</ele>
        <time>2018-07-21T12:17:27Z</time>
      </trkpt>
      <trkpt lat="41.089800" lon="-3.694800">
        <ele>1844.0</ele>
        <time>2018-07-21T12:17:28Z</time>
      </trkpt>
      <trkpt lat="41.089750" lon="-3.694850">
        <ele>1844.0</ele>
        <time>2018-07-21T12:17:29Z</time>
      </trkpt>
      <trkpt lat="41.089683" lon="-3.694883">
        <ele>1844.0</ele>
        <time>2018-07-21T12:17:30Z</time>
      </trkpt>
      <trkpt lat="41.089583" lon="-3.694883">
        <ele>1844.0</ele>
        <time>2018-07-21T12:17:31Z</time>
      </trkpt>
      <trkpt lat="41.089483" lon="-3.694833">
        <ele>1844.0</ele>
        <time>2018-07-21T12:17:32Z</time>
      </trkpt>
      <trkpt lat="41.089383" lon="-3.694750">
        <ele>1843.0</ele>
        <time>2018-07-21T12:17:33Z</time>
      </trkpt>
      <trkpt lat="41.089300" lon="-3.694633">
        <ele>1843.0</ele>
        <time>2018-07-21T12:17:34Z</time>
      </trkpt>
      <trkpt lat="41.089217" lon="-3.694483">
        <ele>1843.0</ele>
        <time>2018-07-21T12:17:35Z</time>
      </trkpt>
      <trkpt lat="41.089150" lon="-3.694317">
        <ele>1844.0</ele>
        <time>2018-07-21T12:17:36Z</time>
      </trkpt>
      <trkpt lat="41.089100" lon="-3.694117">
        <ele>1845.0</ele>
        <time>2018-07-21T12:17:37Z</time>
      </trkpt>
      <trkpt lat="41.089083" lon="-3.693933">
        <ele>1847.0</ele>
        <time>2018-07-21T12:17:38Z</time>
      </trkpt>
      <trkpt lat="41.089050" lon="-3.693750">
        <ele>1851.0</ele>
        <time>2018-07-21T12:17:39Z</time>
      </trkpt>
      <trkpt lat="41.089050" lon="-3.693583">
        <ele>1856.0</ele>
        <time>2018-07-21T12:17:40Z</time>
      </trkpt>
      <trkpt lat="41.089050" lon="-3.693433">
        <ele>1860.0</ele>
        <time>2018-07-21T12:17:41Z</time>
      </trkpt>
      <trkpt lat="41.089067" lon="-3.693300">
        <ele>1862.0</ele>
        <time>2018-07-21T12:17:42Z</time>
      </trkpt>
      <trkpt lat="41.089100" lon="-3.693150">
        <ele>1863.0</ele>
        <time>2018-07-21T12:17:43Z</time>
      </trkpt>
      <trkpt lat="41.089150" lon="-3.693017">
        <ele>1862.0</ele>
        <time>2018-07-21T12:17:44Z</time>
      </trkpt>
      <trkpt lat="41.089217" lon="-3.692867">
        <ele>1863.0</ele>
        <time>2018-07-21T12:17:45Z</time>
      </trkpt>
      <trkpt lat="41.089283" lon="-3.692750">
        <ele>1865.0</ele>
        <time>2018-07-21T12:17:46Z</time>
      </trkpt>
      <trkpt lat="41.089367" lon="-3.692650">
        <ele>1866.0</ele>
        <time>2018-07-21T12:17:47Z</time>
      </trkpt>
      <trkpt lat="41.089450" lon="-3.692600">
        <ele>1868.0</ele>
        <time>2018-07-21T12:17:48Z</time>
      </trkpt>
      <trkpt lat="41.089550" lon="-3.692567">
        <ele>1870.0</ele>
        <time>2018-07-21T12:17:49Z</time>
      </trkpt>
      <trkpt lat="41.089617" lon="-3.692567">
        <ele>1873.0</ele>
        <time>2018-07-21T12:17:50Z</time>
      </trkpt>
      <trkpt lat="41.089683" lon="-3.692583">
        <ele>1875.0</ele>
        <time>2018-07-21T12:17:51Z</time>
      </trkpt>
      <trkpt lat="41.089700" lon="-3.692633">
        <ele>1875.0</ele>
        <time>2018-07-21T12:17:52Z</time>
      </trkpt>
      <trkpt lat="41.089717" lon="-3.692700">
        <ele>1875.0</ele>
        <time>2018-07-21T12:17:53Z</time>
      </trkpt>
      <trkpt lat="41.089683" lon="-3.692783">
        <ele>1875.0</ele>
        <time>2018-07-21T12:17:54Z</time>
      </trkpt>
      <trkpt lat="41.089617" lon="-3.692833">
        <ele>1875.0</ele>
        <time>2018-07-21T12:17:55Z</time>
      </trkpt>
      <trkpt lat="41.089533" lon="-3.692867">
        <ele>1876.0</ele>
        <time>2018-07-21T12:17:56Z</time>
      </trkpt>
      <trkpt lat="41.089433" lon="-3.692867">
        <ele>1877.0</ele>
        <time>2018-07-21T12:17:57Z</time>
      </trkpt>
      <trkpt lat="41.089333" lon="-3.692833">
        <ele>1879.0</ele>
        <time>2018-07-21T12:17:58Z</time>
      </trkpt>
      <trkpt lat="41.089250" lon="-3.692767">
        <ele>1880.0</ele>
        <time>2018-07-21T12:17:59Z</time>
      </trkpt>
      <trkpt lat="41.089150" lon="-3.692650">
        <ele>1880.0</ele>
        <time>2018-07-21T12:18:00Z</time>
      </trkpt>
      <trkpt lat="41.089067" lon="-3.692517">
        <ele>1882.0</ele>
        <time>2018-07-21T12:18:01Z</time>
      </trkpt>
      <trkpt lat="41.088983" lon="-3.692350">
        <ele>1883.0</ele>
        <time>2018-07-21T12:18:02Z</time>
      </trkpt>
      <trkpt lat="41.088950" lon="-3.692183">
        <ele>1886.0</ele>
        <time>2018-07-21T12:18:03Z</time>
      </trkpt>
      <trkpt lat="41.088933" lon="-3.692017">
        <ele>1888.0</ele>
        <time>2018-07-21T12:18:04Z</time>
      </trkpt>
      <trkpt lat="41.088950" lon="-3.691867">
        <ele>1889.0</ele>
        <time>2018-07-21T12:18:05Z</time>
      </trkpt>
      <trkpt lat="41.089000" lon="-3.691733">
        <ele>1889.0</ele>
        <time>2018-07-21T12:18:06Z</time>
      </trkpt>
      <trkpt lat="41.089067" lon="-3.691617">
        <ele>1890.0</ele>
        <time>2018-07-21T12:18:07Z</time>
      </trkpt>
      <trkpt lat="41.089167" lon="-3.691517">
        <ele>1890.0</ele>
        <time>2018-07-21T12:18:08Z</time>
      </trkpt>
      <trkpt lat="41.089267" lon="-3.691450">
        <ele>1892.0</ele>
        <time>2018-07-21T12:18:09Z</time>
      </trkpt>
      <trkpt lat="41.089367" lon="-3.691433">
        <ele>1894.0</ele>
        <time>2018-07-21T12:18:10Z</time>
      </trkpt>
      <trkpt lat="41.089433" lon="-3.691450">
        <ele>1896.0</ele>
        <time>2018-07-21T12:18:11Z</time>
      </trkpt>
      <trkpt lat="41.089467" lon="-3.691517">
        <ele>1898.0</ele>
        <time>2018-07-21T12:18:12Z</time>
      </trkpt>
      <trkpt lat="41.089467" lon="-3.691567">
        <ele>1899.0</ele>
        <time>2018-07-21T12:18:13Z</time>
      </trkpt>
      <trkpt lat="41.089450" lon="-3.691633">
        <ele>1900.0</ele>
        <time>2018-07-21T12:18:14Z</time>
      </trkpt>
      <trkpt lat="41.089417" lon="-3.691683">
        <ele>1901.0</ele>
        <time>2018-07-21T12:18:15Z</time>
      </trkpt>
      <trkpt lat="41.089350" lon="-3.691717">
        <ele>1901.0</ele>
        <time>2018-07-21T12:18:16Z</time>
      </trkpt>
      <trkpt lat="41.089267" lon="-3.691717">
        <ele>1901.0</ele>
        <time>2018-07-21T12:18:17Z</time>
      </trkpt>
      <trkpt lat="41.089150" lon="-3.691683">
        <ele>1900.0</ele>
        <time>2018-07-21T12:18:18Z</time>
      </trkpt>
      <trkpt lat="41.089033" lon="-3.691600">
        <ele>1900.0</ele>
        <time>2018-07-21T12:18:19Z</time>
      </trkpt>
      <trkpt lat="41.088933" lon="-3.691467">
        <ele>1901.0</ele>
        <time>2018-07-21T12:18:20Z</time>
      </trkpt>
      <trkpt lat="41.088867" lon="-3.691300">
        <ele>1903.0</ele>
        <time>2018-07-21T12:18:21Z</time>
      </trkpt>
      <trkpt lat="41.088833" lon="-3.691133">
        <ele>1907.0</ele>
        <time>2018-07-21T12:18:22Z</time>
      </trkpt>
      <trkpt lat="41.088817" lon="-3.690983">
        <ele>1910.0</ele>
        <time>2018-07-21T12:18:23Z</time>
      </trkpt>
      <trkpt lat="41.088817" lon="-3.690833">
        <ele>1911.0</ele>
        <time>2018-07-21T12:18:24Z</time>
      </trkpt>
      <trkpt lat="41.088850" lon="-3.690683">
        <ele>1912.0</ele>
        <time>2018-07-21T12:18:25Z</time>
      </trkpt>
      <trkpt lat="41.088883" lon="-3.690533">
        <ele>1912.0</ele>
        <time>2018-07-21T12:18:26Z</time>
      </trkpt>
      <trkpt lat="41.088950" lon="-3.690400">
        <ele>1912.0</ele>
        <time>2018-07-21T12:18:27Z</time>
      </trkpt>
      <trkpt lat="41.089033" lon="-3.690317">
        <ele>1912.0</ele>
        <time>2018-07-21T12:18:28Z</time>
      </trkpt>
      <trkpt lat="41.089117" lon="-3.690267">
        <ele>1913.0</ele>
        <time>2018-07-21T12:18:29Z</time>
      </trkpt>
      <trkpt lat="41.089200" lon="-3.690250">
        <ele>1914.0</ele>
        <time>2018-07-21T12:18:30Z</time>
      </trkpt>
      <trkpt lat="41.089267" lon="-3.690250">
        <ele>1915.0</ele>
        <time>2018-07-21T12:18:31Z</time>
      </trkpt>
      <trkpt lat="41.089300" lon="-3.690267">
        <ele>1917.0</ele>
        <time>2018-07-21T12:18:32Z</time>
      </trkpt>
      <trkpt lat="41.089317" lon="-3.690300">
        <ele>1918.0</ele>
        <time>2018-07-21T12:18:33Z</time>
      </trkpt>
      <trkpt lat="41.089317" lon="-3.690333">
        <ele>1918.0</ele>
        <time>2018-07-21T12:18:34Z</time>
      </trkpt>
      <trkpt lat="41.089300" lon="-3.690383">
        <ele>1918.0</ele>
        <time>2018-07-21T12:18:35Z</time>
      </trkpt>
      <trkpt lat="41.089250" lon="-3.690433">
        <ele>1918.0</ele>
        <time>2018-07-21T12:18:36Z</time>
      </trkpt>
      <trkpt lat="41.089167" lon="-3.690467">
        <ele>1918.0</ele>
        <time>2018-07-21T12:18:37Z</time>
      </trkpt>
      <trkpt lat="41.089067" lon="-3.690450">
        <ele>1919.0</ele>
        <time>2018-07-21T12:18:38Z</time>
      </trkpt>
      <trkpt lat="41.088967" lon="-3.690400">
        <ele>1918.0</ele>
        <time>2018-07-21T12:18:39Z</time>
      </trkpt>
      <trkpt lat="41.088850" lon="-3.690300">
        <ele>1918.0</ele>
        <time>2018-07-21T12:18:40Z</time>
      </trkpt>
      <trkpt lat="41.088750" lon="-3.690167">
        <ele>1918.0</ele>
        <time>2018-07-21T12:18:41Z</time>
      </trkpt>
      <trkpt lat="41.088667" lon="-3.690017">
        <ele>1920.0</ele>
        <time>2018-07-21T12:18:42Z</time>
      </trkpt>
      <trkpt lat="41.088617" lon="-3.689833">
        <ele>1921.0</ele>
        <time>2018-07-21T12:18:43Z</time>
      </trkpt>
      <trkpt lat="41.088600" lon="-3.689650">
        <ele>1923.0</ele>
        <time>2018-07-21T12:18:44Z</time>
      </trkpt>
      <trkpt lat="41.088600" lon="-3.689467">
        <ele>1925.0</ele>
        <time>2018-07-21T12:18:45Z</time>
      </trkpt>
      <trkpt lat="41.088617" lon="-3.689300">
        <ele>1926.0</ele>
        <time>2018-07-21T12:18:46Z</time>
      </trkpt>
      <trkpt lat="41.088667" lon="-3.689150">
        <ele>1928.0</ele>
        <time>2018-07-21T12:18:47Z</time>
      </trkpt>
      <trkpt lat="41.088717" lon="-3.689017">
        <ele>1928.0</ele>
        <time>2018-07-21T12:18:48Z</time>
      </trkpt>
      <trkpt lat="41.088783" lon="-3.688883">
        <ele>1928.0</ele>
        <time>2018-07-21T12:18:49Z</time>
      </trkpt>
      <trkpt lat="41.088867" lon="-3.688783">
        <ele>1929.0</ele>
        <time>2018-07-21T12:18:50Z</time>
      </trkpt>
      <trkpt lat="41.088933" lon="-3.688683">
        <ele>1930.0</ele>
        <time>2018-07-21T12:18:51Z</time>
      </trkpt>
      <trkpt lat="41.089017" lon="-3.688633">
        <ele>1931.0</ele>
        <time>2018-07-21T12:18:52Z</time>
      </trkpt>
      <trkpt lat="41.089083" lon="-3.688600">
        <ele>1931.0</ele>
        <time>2018-07-21T12:18:53Z</time>
      </trkpt>
      <trkpt lat="41.089150" lon="-3.688583">
        <ele>1931.0</ele>
        <time>2018-07-21T12:18:54Z</time>
      </trkpt>
      <trkpt lat="41.089200" lon="-3.688600">
        <ele>1930.0</ele>
        <time>2018-07-21T12:18:55Z</time>
      </trkpt>
      <trkpt lat="41.089250" lon="-3.688617">
        <ele>1930.0</ele>
        <time>2018-07-21T12:18:56Z</time>
      </trkpt>
      <trkpt lat="41.089300" lon="-3.688650">
        <ele>1931.0</ele>
        <time>2018-07-21T12:18:57Z</time>
      </trkpt>
      <trkpt lat="41.089333" lon="-3.688683">
        <ele>1931.0</ele>
        <time>2018-07-21T12:18:58Z</time>
      </trkpt>
      <trkpt lat="41.089367" lon="-3.688717">
        <ele>1932.0</ele>
        <time>2018-07-21T12:18:59Z</time>
      </trkpt>
      <trkpt lat="41.089383" lon="-3.688767">
        <ele>1932.0</ele>
        <time>2018-07-21T12:19:00Z</time>
      </trkpt>
      <trkpt lat="41.089383" lon="-3.688817">
        <ele>1933.0</ele>
        <time>2018-07-21T12:19:01Z</time>
      </trkpt>
      <trkpt lat="41.089383" lon="-3.688850">
        <ele>1933.0</ele>
        <time>2018-07-21T12:19:02Z</time>
      </trkpt>
      <trkpt lat="41.089400" lon="-3.688883">
        <ele>1933.0</ele>
        <time>2018-07-21T12:19:03Z</time>
      </trkpt>
      <trkpt lat="41.089433" lon="-3.688900">
        <ele>1931.0</ele>
        <time>2018-07-21T12:19:04Z</time>
      </trkpt>
      <trkpt lat="41.089467" lon="-3.688950">
        <ele>1929.0</ele>
        <time>2018-07-21T12:19:05Z</time>
      </trkpt>
      <trkpt lat="41.089483" lon="-3.689000">
        <ele>1928.0</ele>
        <time>2018-07-21T12:19:06Z</time>
      </trkpt>
      <trkpt lat="41.089517" lon="-3.689050">
        <ele>1927.0</ele>
        <time>2018-07-21T12:19:07Z</time>
      </trkpt>
      <trkpt lat="41.089533" lon="-3.689100">
        <ele>1928.0</ele>
        <time>2018-07-21T12:19:08Z</time>
      </trkpt>
      <trkpt lat="41.089550" lon="-3.689133">
        <ele>1928.0</ele>
        <time>2018-07-21T12:19:09Z</time>
      </trkpt>
      <trkpt lat="41.089567" lon="-3.689167">
        <ele>1928.0</ele>
        <time>2018-07-21T12:19:10Z</time>
      </trkpt>
      <trkpt lat="41.089583" lon="-3.689217">
        <ele>1927.0</ele>
        <time>2018-07-21T12:19:11Z</time>
      </trkpt>
      <trkpt lat="41.089583" lon="-3.689283">
        <ele>1925.0</ele>
        <time>2018-07-21T12:19:12Z</time>
      </trkpt>
      <trkpt lat="41.089583" lon="-3.689350">
        <ele>1924.0</ele>
        <time>2018-07-21T12:19:13Z</time>
      </trkpt>
      <trkpt lat="41.089583" lon="-3.689417">
        <ele>1922.0</ele>
        <time>2018-07-21T12:19:14Z</time>
      </trkpt>
      <trkpt lat="41.089583" lon="-3.689483">
        <ele>1922.0</ele>
        <time>2018-07-21T12:19:15Z</time>
      </trkpt>
      <trkpt lat="41.089600" lon="-3.689533">
        <ele>1922.0</ele>
        <time>2018-07-21T12:19:16Z</time>
      </trkpt>
      <trkpt lat="41.089600" lon="-3.689567">
        <ele>1922.0</ele>
        <time>2018-07-21T12:19:17Z</time>
      </trkpt>
      <trkpt lat="41.089583" lon="-3.689617">
        <ele>1921.0</ele>
        <time>2018-07-21T12:19:18Z</time>
      </trkpt>
      <trkpt lat="41.089550" lon="-3.689667">
        <ele>1920.0</ele>
        <time>2018-07-21T12:19:19Z</time>
      </trkpt>
      <trkpt lat="41.089533" lon="-3.689733">
        <ele>1919.0</ele>
        <time>2018-07-21T12:19:20Z</time>
      </trkpt>
      <trkpt lat="41.089517" lon="-3.689817">
        <ele>1917.0</ele>
        <time>2018-07-21T12:19:21Z</time>
      </trkpt>
      <trkpt lat="41.089517" lon="-3.689883">
        <ele>1916.0</ele>
        <time>2018-07-21T12:19:22Z</time>
      </trkpt>
      <trkpt lat="41.089517" lon="-3.689950">
        <ele>1915.0</ele>
        <time>2018-07-21T12:19:23Z</time>
      </trkpt>
      <trkpt lat="41.089500" lon="-3.690033">
        <ele>1914.0</ele>
        <time>2018-07-21T12:19:24Z</time>
      </trkpt>
      <trkpt lat="41.089500" lon="-3.690100">
        <ele>1913.0</ele>
        <time>2018-07-21T12:19:25Z</time>
      </trkpt>
      <trkpt lat="41.089483" lon="-3.690183">
        <ele>1913.0</ele>
        <time>2018-07-21T12:19:26Z</time>
      </trkpt>
      <trkpt lat="41.089483" lon="-3.690267">
        <ele>1913.0</ele>
        <time>2018-07-21T12:19:27Z</time>
      </trkpt>
      <trkpt lat="41.089483" lon="-3.690333">
        <ele>1913.0</ele>
        <time>2018-07-21T12:19:28Z</time>
      </trkpt>
      <trkpt lat="41.089467" lon="-3.690417">
        <ele>1913.0</ele>
        <time>2018-07-21T12:19:29Z</time>
      </trkpt>
      <trkpt lat="41.089467" lon="-3.690483">
        <ele>1912.0</ele>
        <time>2018-07-21T12:19:30Z</time>
      </trkpt>
      <trkpt lat="41.089450" lon="-3.690550">
        <ele>1912.0</ele>
        <time>2018-07-21T12:19:31Z</time>
      </trkpt>
      <trkpt lat="41.089433" lon="-3.690617">
        <ele>1911.0</ele>
        <time>2018-07-21T12:19:32Z</time>
      </trkpt>
      <trkpt lat="41.089400" lon="-3.690683">
        <ele>1910.0</ele>
        <time>2018-07-21T12:19:33Z</time>
      </trkpt>
      <trkpt lat="41.089367" lon="-3.690767">
        <ele>1909.0</ele>
        <time>2018-07-21T12:19:34Z</time>
      </trkpt>
      <trkpt lat="41.089333" lon="-3.690850">
        <ele>1909.0</ele>
        <time>2018-07-21T12:19:35Z</time>
      </trkpt>
      <trkpt lat="41.089317" lon="-3.690933">
        <ele>1908.0</ele>
        <time>2018-07-21T12:19:36Z</time>
      </trkpt>
      <trkpt lat="41.089283" lon="-3.691000">
        <ele>1908.0</ele>
        <time>2018-07-21T12:19:37Z</time>
      </trkpt>
      <trkpt lat="41.089267" lon="-3.691067">
        <ele>1907.0</ele>
        <time>2018-07-21T12:19:38Z</time>
      </trkpt>
      <trkpt lat="41.089250" lon="-3.691133">
        <ele>1905.0</ele>
        <time>2018-07-21T12:19:39Z</time>
      </trkpt>
      <trkpt lat="41.089233" lon="-3.691217">
        <ele>1903.0</ele>
        <time>2018-07-21T12:19:40Z</time>
      </trkpt>
      <trkpt lat="41.089200" lon="-3.691283">
        <ele>1901.0</ele>
        <time>2018-07-21T12:19:41Z</time>
      </trkpt>
      <trkpt lat="41.089183" lon="-3.691367">
        <ele>1900.0</ele>
        <time>2018-07-21T12:19:42Z</time>
      </trkpt>
      <trkpt lat="41.089133" lon="-3.691433">
        <ele>1900.0</ele>
        <time>2018-07-21T12:19:43Z</time>
      </trkpt>
      <trkpt lat="41.089100" lon="-3.691500">
        <ele>1899.0</ele>
        <time>2018-07-21T12:19:44Z</time>
      </trkpt>
      <trkpt lat="41.089050" lon="-3.691550">
        <ele>1898.0</ele>
        <time>2018-07-21T12:19:45Z</time>
      </trkpt>
      <trkpt lat="41.089017" lon="-3.691617">
        <ele>1897.0</ele>
        <time>2018-07-21T12:19:46Z</time>
      </trkpt>
      <trkpt lat="41.088983" lon="-3.691700">
        <ele>1895.0</ele>
        <time>2018-07-21T12:19:47Z</time>
      </trkpt>
      <trkpt lat="41.088950" lon="-3.691767">
        <ele>1894.0</ele>
        <time>2018-07-21T12:19:48Z</time>
      </trkpt>
      <trkpt lat="41.088917" lon="-3.691833">
        <ele>1893.0</ele>
        <time>2018-07-21T12:19:49Z</time>
      </trkpt>
      <trkpt lat="41.088900" lon="-3.691900">
        <ele>1893.0</ele>
        <time>2018-07-21T12:19:50Z</time>
      </trkpt>
      <trkpt lat="41.088883" lon="-3.691967">
        <ele>1893.0</ele>
        <time>2018-07-21T12:19:51Z</time>
      </trkpt>
      <trkpt lat="41.088867" lon="-3.692017">
        <ele>1891.0</ele>
        <time>2018-07-21T12:19:52Z</time>
      </trkpt>
      <trkpt lat="41.088850" lon="-3.692083">
        <ele>1890.0</ele>
        <time>2018-07-21T12:19:53Z</time>
      </trkpt>
      <trkpt lat="41.088833" lon="-3.692150">
        <ele>1887.0</ele>
        <time>2018-07-21T12:19:54Z</time>
      </trkpt>
      <trkpt lat="41.088817" lon="-3.692233">
        <ele>1884.0</ele>
        <time>2018-07-21T12:19:55Z</time>
      </trkpt>
      <trkpt lat="41.088817" lon="-3.692317">
        <ele>1883.0</ele>
        <time>2018-07-21T12:19:56Z</time>
      </trkpt>
      <trkpt lat="41.088817" lon="-3.692417">
        <ele>1882.0</ele>
        <time>2018-07-21T12:19:57Z</time>
      </trkpt>
      <trkpt lat="41.088833" lon="-3.692500">
        <ele>1881.0</ele>
        <time>2018-07-21T12:19:58Z</time>
      </trkpt>
      <trkpt lat="41.088850" lon="-3.692567">
        <ele>1880.0</ele>
        <time>2018-07-21T12:19:59Z</time>
      </trkpt>
      <trkpt lat="41.088867" lon="-3.692650">
        <ele>1879.0</ele>
        <time>2018-07-21T12:20:00Z</time>
      </trkpt>
      <trkpt lat="41.088900" lon="-3.692717">
        <ele>1879.0</ele>
        <time>2018-07-21T12:20:01Z</time>
      </trkpt>
      <trkpt lat="41.088917" lon="-3.692800">
        <ele>1878.0</ele>
        <time>2018-07-21T12:20:02Z</time>
      </trkpt>
      <trkpt lat="41.088950" lon="-3.692867">
        <ele>1877.0</ele>
        <time>2018-07-21T12:20:03Z</time>
      </trkpt>
      <trkpt lat="41.088967" lon="-3.692933">
        <ele>1876.0</ele>
        <time>2018-07-21T12:20:04Z</time>
      </trkpt>
      <trkpt lat="41.089000" lon="-3.693000">
        <ele>1876.0</ele>
        <time>2018-07-21T12:20:05Z</time>
      </trkpt>
      <trkpt lat="41.089000" lon="-3.693083">
        <ele>1875.0</ele>
        <time>2018-07-21T12:20:06Z</time>
      </trkpt>
      <trkpt lat="41.089017" lon="-3.693167">
        <ele>1874.0</ele>
        <time>2018-07-21T12:20:07Z</time>
      </trkpt>
      <trkpt lat="41.089017" lon="-3.693233">
        <ele>1873.0</ele>
        <time>2018-07-21T12:20:08Z</time>
      </trkpt>
      <trkpt lat="41.089017" lon="-3.693317">
        <ele>1872.0</ele>
        <time>2018-07-21T12:20:09Z</time>
      </trkpt>
      <trkpt lat="41.089017" lon="-3.693400">
        <ele>1871.0</ele>
        <time>2018-07-21T12:20:10Z</time>
      </trkpt>
      <trkpt lat="41.089000" lon="-3.693500">
        <ele>1869.0</ele>
        <time>2018-07-21T12:20:11Z</time>
      </trkpt>
      <trkpt lat="41.088983" lon="-3.693583">
        <ele>1868.0</ele>
        <time>2018-07-21T12:20:12Z</time>
      </trkpt>
      <trkpt lat="41.088967" lon="-3.693667">
        <ele>1866.0</ele>
        <time>2018-07-21T12:20:13Z</time>
      </trkpt>
      <trkpt lat="41.088967" lon="-3.693750">
        <ele>1864.0</ele>
        <time>2018-07-21T12:20:14Z</time>
      </trkpt>
      <trkpt lat="41.088967" lon="-3.693833">
        <ele>1862.0</ele>
        <time>2018-07-21T12:20:15Z</time>
      </trkpt>
      <trkpt lat="41.088967" lon="-3.693917">
        <ele>1860.0</ele>
        <time>2018-07-21T12:20:16Z</time>
      </trkpt>
      <trkpt lat="41.088967" lon="-3.694000">
        <ele>1858.0</ele>
        <time>2018-07-21T12:20:17Z</time>
      </trkpt>
      <trkpt lat="41.088983" lon="-3.694083">
        <ele>1856.0</ele>
        <time>2018-07-21T12:20:18Z</time>
      </trkpt>
      <trkpt lat="41.089017" lon="-3.694183">
        <ele>1854.0</ele>
        <time>2018-07-21T12:20:19Z</time>
      </trkpt>
      <trkpt lat="41.089033" lon="-3.694250">
        <ele>1853.0</ele>
        <time>2018-07-21T12:20:20Z</time>
      </trkpt>
      <trkpt lat="41.089050" lon="-3.694333">
        <ele>1851.0</ele>
        <time>2018-07-21T12:20:21Z</time>
      </trkpt>
      <trkpt lat="41.089067" lon="-3.694417">
        <ele>1849.0</ele>
        <time>2018-07-21T12:20:22Z</time>
      </trkpt>
      <trkpt lat="41.089100" lon="-3.694483">
        <ele>1848.0</ele>
        <time>2018-07-21T12:20:23Z</time>
      </trkpt>
      <trkpt lat="41.089100" lon="-3.694567">
        <ele>1846.0</ele>
        <time>2018-07-21T12:20:24Z</time>
      </trkpt>
      <trkpt lat="41.089083" lon="-3.694650">
        <ele>1844.0</ele>
        <time>2018-07-21T12:20:25Z</time>
      </trkpt>
      <trkpt lat="41.089050" lon="-3.694717">
        <ele>1842.0</ele>
        <time>2018-07-21T12:20:26Z</time>
      </trkpt>
      <trkpt lat="41.089000" lon="-3.694783">
        <ele>1840.0</ele>
        <time>2018-07-21T12:20:27Z</time>
      </trkpt>
      <trkpt lat="41.088950" lon="-3.694867">
        <ele>1838.0</ele>
        <time>2018-07-21T12:20:28Z</time>
      </trkpt>
      <trkpt lat="41.088883" lon="-3.694917">
        <ele>1836.0</ele>
        <time>2018-07-21T12:20:29Z</time>
      </trkpt>
      <trkpt lat="41.088817" lon="-3.694983">
        <ele>1834.0</ele>
        <time>2018-07-21T12:20:30Z</time>
      </trkpt>
      <trkpt lat="41.088750" lon="-3.695050">
        <ele>1832.0</ele>
        <time>2018-07-21T12:20:31Z</time>
      </trkpt>
      <trkpt lat="41.088683" lon="-3.695100">
        <ele>1830.0</ele>
        <time>2018-07-21T12:20:32Z</time>
      </trkpt>
      <trkpt lat="41.088633" lon="-3.695167">
        <ele>1828.0</ele>
        <time>2018-07-21T12:20:33Z</time>
      </trkpt>
      <trkpt lat="41.088583" lon="-3.695233">
        <ele>1826.0</ele>
        <time>2018-07-21T12:20:34Z</time>
      </trkpt>
      <trkpt lat="41.088533" lon="-3.695300">
        <ele>1824.0</ele>
        <time>2018-07-21T12:20:35Z</time>
      </trkpt>
      <trkpt lat="41.088467" lon="-3.695367">
        <ele>1822.0</ele>
        <time>2018-07-21T12:20:36Z</time>
      </trkpt>
      <trkpt lat="41.088417" lon="-3.695433">
        <ele>1819.0</ele>
        <time>2018-07-21T12:20:37Z</time>
      </trkpt>
      <trkpt lat="41.088333" lon="-3.695500">
        <ele>1817.0</ele>
        <time>2018-07-21T12:20:38Z</time>
      </trkpt>
      <trkpt lat="41.088267" lon="-3.695550">
        <ele>1815.0</ele>
        <time>2018-07-21T12:20:39Z</time>
      </trkpt>
      <trkpt lat="41.088183" lon="-3.695583">
        <ele>1813.0</ele>
        <time>2018-07-21T12:20:40Z</time>
      </trkpt>
      <trkpt lat="41.088100" lon="-3.695633">
        <ele>1811.0</ele>
        <time>2018-07-21T12:20:41Z</time>
      </trkpt>
      <trkpt lat="41.088017" lon="-3.695683">
        <ele>1809.0</ele>
        <time>2018-07-21T12:20:42Z</time>
      </trkpt>
      <trkpt lat="41.087950" lon="-3.695733">
        <ele>1807.0</ele>
        <time>2018-07-21T12:20:43Z</time>
      </trkpt>
      <trkpt lat="41.087867" lon="-3.695800">
        <ele>1805.0</ele>
        <time>2018-07-21T12:20:44Z</time>
      </trkpt>
      <trkpt lat="41.087817" lon="-3.695850">
        <ele>1803.0</ele>
        <time>2018-07-21T12:20:45Z</time>
      </trkpt>
      <trkpt lat="41.087750" lon="-3.695933">
        <ele>1801.0</ele>
        <time>2018-07-21T12:20:46Z</time>
      </trkpt>
      <trkpt lat="41.087683" lon="-3.696000">
        <ele>1799.0</ele>
        <time>2018-07-21T12:20:47Z</time>
      </trkpt>
      <trkpt lat="41.087633" lon="-3.696067">
        <ele>1797.0</ele>
        <time>2018-07-21T12:20:48Z</time>
      </trkpt>
      <trkpt lat="41.087567" lon="-3.696150">
        <ele>1795.0</ele>
        <time>2018-07-21T12:20:49Z</time>
      </trkpt>
      <trkpt lat="41.087500" lon="-3.696217">
        <ele>1793.0</ele>
        <time>2018-07-21T12:20:50Z</time>
      </trkpt>
      <trkpt lat="41.087433" lon="-3.696300">
        <ele>1792.0</ele>
        <time>2018-07-21T12:20:51Z</time>
      </trkpt>
      <trkpt lat="41.087367" lon="-3.696367">
        <ele>1792.0</ele>
        <time>2018-07-21T12:20:52Z</time>
      </trkpt>
      <trkpt lat="41.087317" lon="-3.696417">
        <ele>1792.0</ele>
        <time>2018-07-21T12:20:53Z</time>
      </trkpt>
      <trkpt lat="41.087250" lon="-3.696483">
        <ele>1792.0</ele>
        <time>2018-07-21T12:20:54Z</time>
      </trkpt>
      <trkpt lat="41.087200" lon="-3.696550">
        <ele>1790.0</ele>
        <time>2018-07-21T12:20:55Z</time>
      </trkpt>
      <trkpt lat="41.087150" lon="-3.696633">
        <ele>1788.0</ele>
        <time>2018-07-21T12:20:56Z</time>
      </trkpt>
      <trkpt lat="41.087083" lon="-3.696700">
        <ele>1788.0</ele>
        <time>2018-07-21T12:20:57Z</time>
      </trkpt>
      <trkpt lat="41.087017" lon="-3.696783">
        <ele>1787.0</ele>
        <time>2018-07-21T12:20:58Z</time>
      </trkpt>
      <trkpt lat="41.086967" lon="-3.696850">
        <ele>1787.0</ele>
        <time>2018-07-21T12:20:59Z</time>
      </trkpt>
      <trkpt lat="41.086933" lon="-3.696917">
        <ele>1786.0</ele>
        <time>2018-07-21T12:21:00Z</time>
      </trkpt>
      <trkpt lat="41.086900" lon="-3.696983">
        <ele>1785.0</ele>
        <time>2018-07-21T12:21:01Z</time>
      </trkpt>
      <trkpt lat="41.086867" lon="-3.697033">
        <ele>1784.0</ele>
        <time>2018-07-21T12:21:02Z</time>
      </trkpt>
      <trkpt lat="41.086817" lon="-3.697100">
        <ele>1783.0</ele>
        <time>2018-07-21T12:21:03Z</time>
      </trkpt>
      <trkpt lat="41.086767" lon="-3.697167">
        <ele>1782.0</ele>
        <time>2018-07-21T12:21:04Z</time>
      </trkpt>
      <trkpt lat="41.086717" lon="-3.697250">
        <ele>1781.0</ele>
        <time>2018-07-21T12:21:05Z</time>
      </trkpt>
      <trkpt lat="41.086683" lon="-3.697317">
        <ele>1780.0</ele>
        <time>2018-07-21T12:21:06Z</time>
      </trkpt>
      <trkpt lat="41.086650" lon="-3.697383">
        <ele>1779.0</ele>
        <time>2018-07-21T12:21:07Z</time>
      </trkpt>
      <trkpt lat="41.086600" lon="-3.697467">
        <ele>1777.0</ele>
        <time>2018-07-21T12:21:08Z</time>
      </trkpt>
      <trkpt lat="41.086533" lon="-3.697550">
        <ele>1776.0</ele>
        <time>2018-07-21T12:21:09Z</time>
      </trkpt>
      <trkpt lat="41.086467" lon="-3.697617">
        <ele>1774.0</ele>
        <time>2018-07-21T12:21:10Z</time>
      </trkpt>
      <trkpt lat="41.086400" lon="-3.697683">
        <ele>1773.0</ele>
        <time>2018-07-21T12:21:11Z</time>
      </trkpt>
      <trkpt lat="41.086350" lon="-3.697767">
        <ele>1773.0</ele>
        <time>2018-07-21T12:21:12Z</time>
      </trkpt>
      <trkpt lat="41.086333" lon="-3.697833">
        <ele>1773.0</ele>
        <time>2018-07-21T12:21:13Z</time>
      </trkpt>
      <trkpt lat="41.086317" lon="-3.697900">
        <ele>1773.0</ele>
        <time>2018-07-21T12:21:14Z</time>
      </trkpt>
      <trkpt lat="41.086317" lon="-3.697983">
        <ele>1773.0</ele>
        <time>2018-07-21T12:21:15Z</time>
      </trkpt>
      <trkpt lat="41.086300" lon="-3.698067">
        <ele>1773.0</ele>
        <time>2018-07-21T12:21:16Z</time>
      </trkpt>
      <trkpt lat="41.086283" lon="-3.698133">
        <ele>1773.0</ele>
        <time>2018-07-21T12:21:17Z</time>
      </trkpt>
      <trkpt lat="41.086267" lon="-3.698200">
        <ele>1773.0</ele>
        <time>2018-07-21T12:21:18Z</time>
      </trkpt>
      <trkpt lat="41.086250" lon="-3.698267">
        <ele>1773.0</ele>
        <time>2018-07-21T12:21:19Z</time>
      </trkpt>
      <trkpt lat="41.086233" lon="-3.698333">
        <ele>1773.0</ele>
        <time>2018-07-21T12:21:20Z</time>
      </trkpt>
      <trkpt lat="41.086200" lon="-3.698400">
        <ele>1773.0</ele>
        <time>2018-07-21T12:21:21Z</time>
      </trkpt>
      <trkpt lat="41.086167" lon="-3.698467">
        <ele>1772.0</ele>
        <time>2018-07-21T12:21:22Z</time>
      </trkpt>
      <trkpt lat="41.086133" lon="-3.698550">
        <ele>1772.0</ele>
        <time>2018-07-21T12:21:23Z</time>
      </trkpt>
      <trkpt lat="41.086083" lon="-3.698633">
        <ele>1771.0</ele>
        <time>2018-07-21T12:21:24Z</time>
      </trkpt>
      <trkpt lat="41.086033" lon="-3.698717">
        <ele>1771.0</ele>
        <time>2018-07-21T12:21:25Z</time>
      </trkpt>
      <trkpt lat="41.086017" lon="-3.698800">
        <ele>1772.0</ele>
        <time>2018-07-21T12:21:26Z</time>
      </trkpt>
      <trkpt lat="41.086000" lon="-3.698883">
        <ele>1772.0</ele>
        <time>2018-07-21T12:21:27Z</time>
      </trkpt>
      <trkpt lat="41.085983" lon="-3.698967">
        <ele>1772.0</ele>
        <time>2018-07-21T12:21:28Z</time>
      </trkpt>
      <trkpt lat="41.085967" lon="-3.699033">
        <ele>1772.0</ele>
        <time>2018-07-21T12:21:29Z</time>
      </trkpt>
      <trkpt lat="41.085933" lon="-3.699117">
        <ele>1773.0</ele>
        <time>2018-07-21T12:21:30Z</time>
      </trkpt>
      <trkpt lat="41.085900" lon="-3.699183">
        <ele>1774.0</ele>
        <time>2018-07-21T12:21:31Z</time>
      </trkpt>
      <trkpt lat="41.085867" lon="-3.699233">
        <ele>1775.0</ele>
        <time>2018-07-21T12:21:32Z</time>
      </trkpt>
      <trkpt lat="41.085850" lon="-3.699300">
        <ele>1775.0</ele>
        <time>2018-07-21T12:21:33Z</time>
      </trkpt>
      <trkpt lat="41.085833" lon="-3.699383">
        <ele>1775.0</ele>
        <time>2018-07-21T12:21:34Z</time>
      </trkpt>
      <trkpt lat="41.085817" lon="-3.699450">
        <ele>1776.0</ele>
        <time>2018-07-21T12:21:35Z</time>
      </trkpt>
      <trkpt lat="41.085800" lon="-3.699533">
        <ele>1776.0</ele>
        <time>2018-07-21T12:21:36Z</time>
      </trkpt>
      <trkpt lat="41.085767" lon="-3.699600">
        <ele>1778.0</ele>
        <time>2018-07-21T12:21:37Z</time>
      </trkpt>
      <trkpt lat="41.085750" lon="-3.699667">
        <ele>1779.0</ele>
        <time>2018-07-21T12:21:38Z</time>
      </trkpt>
      <trkpt lat="41.085733" lon="-3.699733">
        <ele>1781.0</ele>
        <time>2018-07-21T12:21:39Z</time>
      </trkpt>
      <trkpt lat="41.085700" lon="-3.699800">
        <ele>1783.0</ele>
        <time>2018-07-21T12:21:40Z</time>
      </trkpt>
      <trkpt lat="41.085683" lon="-3.699850">
        <ele>1785.0</ele>
        <time>2018-07-21T12:21:41Z</time>
      </trkpt>
      <trkpt lat="41.085650" lon="-3.699883">
        <ele>1786.0</ele>
        <time>2018-07-21T12:21:42Z</time>
      </trkpt>
      <trkpt lat="41.085650" lon="-3.699933">
        <ele>1787.0</ele>
        <time>2018-07-21T12:21:43Z</time>
      </trkpt>
      <trkpt lat="41.085683" lon="-3.699983">
        <ele>1786.0</ele>
        <time>2018-07-21T12:21:44Z</time>
      </trkpt>
      <trkpt lat="41.085733" lon="-3.700017">
        <ele>1785.0</ele>
        <time>2018-07-21T12:21:45Z</time>
      </trkpt>
      <trkpt lat="41.085817" lon="-3.700000">
        <ele>1785.0</ele>
        <time>2018-07-21T12:21:46Z</time>
      </trkpt>
      <trkpt lat="41.085900" lon="-3.699950">
        <ele>1786.0</ele>
        <time>2018-07-21T12:21:47Z</time>
      </trkpt>
      <trkpt lat="41.085967" lon="-3.699867">
        <ele>1787.0</ele>
        <time>2018-07-21T12:21:48Z</time>
      </trkpt>
      <trkpt lat="41.086017" lon="-3.699733">
        <ele>1788.0</ele>
        <time>2018-07-21T12:21:49Z</time>
      </trkpt>
      <trkpt lat="41.086067" lon="-3.699600">
        <ele>1789.0</ele>
        <time>2018-07-21T12:21:50Z</time>
      </trkpt>
      <trkpt lat="41.086067" lon="-3.699450">
        <ele>1789.0</ele>
        <time>2018-07-21T12:21:51Z</time>
      </trkpt>
      <trkpt lat="41.086067" lon="-3.699283">
        <ele>1789.0</ele>
        <time>2018-07-21T12:21:52Z</time>
      </trkpt>
      <trkpt lat="41.086017" lon="-3.699117">
        <ele>1789.0</ele>
        <time>2018-07-21T12:21:53Z</time>
      </trkpt>
      <trkpt lat="41.085950" lon="-3.698950">
        <ele>1789.0</ele>
        <time>2018-07-21T12:21:54Z</time>
      </trkpt>
      <trkpt lat="41.085867" lon="-3.698817">
        <ele>1790.0</ele>
        <time>2018-07-21T12:21:55Z</time>
      </trkpt>
      <trkpt lat="41.085767" lon="-3.698700">
        <ele>1791.0</ele>
        <time>2018-07-21T12:21:56Z</time>
      </trkpt>
      <trkpt lat="41.085667" lon="-3.698600">
        <ele>1792.0</ele>
        <time>2018-07-21T12:21:57Z</time>
      </trkpt>
      <trkpt lat="41.085550" lon="-3.698517">
        <ele>1793.0</ele>
        <time>2018-07-21T12:21:58Z</time>
      </trkpt>
      <trkpt lat="41.085450" lon="-3.698450">
        <ele>1795.0</ele>
        <time>2018-07-21T12:21:59Z</time>
      </trkpt>
      <trkpt lat="41.085333" lon="-3.698400">
        <ele>1796.0</ele>
        <time>2018-07-21T12:22:00Z</time>
      </trkpt>
      <trkpt lat="41.085250" lon="-3.698367">
        <ele>1797.0</ele>
        <time>2018-07-21T12:22:01Z</time>
      </trkpt>
      <trkpt lat="41.085150" lon="-3.698367">
        <ele>1797.0</ele>
        <time>2018-07-21T12:22:02Z</time>
      </trkpt>
      <trkpt lat="41.085083" lon="-3.698400">
        <ele>1796.0</ele>
        <time>2018-07-21T12:22:03Z</time>
      </trkpt>
      <trkpt lat="41.085017" lon="-3.698467">
        <ele>1796.0</ele>
        <time>2018-07-21T12:22:04Z</time>
      </trkpt>
      <trkpt lat="41.084967" lon="-3.698533">
        <ele>1797.0</ele>
        <time>2018-07-21T12:22:05Z</time>
      </trkpt>
      <trkpt lat="41.084950" lon="-3.698600">
        <ele>1799.0</ele>
        <time>2018-07-21T12:22:06Z</time>
      </trkpt>
      <trkpt lat="41.084933" lon="-3.698650">
        <ele>1802.0</ele>
        <time>2018-07-21T12:22:07Z</time>
      </trkpt>
      <trkpt lat="41.084950" lon="-3.698700">
        <ele>1804.0</ele>
        <time>2018-07-21T12:22:08Z</time>
      </trkpt>
      <trkpt lat="41.084950" lon="-3.698733">
        <ele>1804.0</ele>
        <time>2018-07-21T12:22:09Z</time>
      </trkpt>
      <trkpt lat="41.084967" lon="-3.698767">
        <ele>1805.0</ele>
        <time>2018-07-21T12:22:10Z</time>
      </trkpt>
      <trkpt lat="41.084983" lon="-3.698783">
        <ele>1805.0</ele>
        <time>2018-07-21T12:22:11Z</time>
      </trkpt>
      <trkpt lat="41.085000" lon="-3.698817">
        <ele>1804.0</ele>
        <time>2018-07-21T12:22:12Z</time>
      </trkpt>
      <trkpt lat="41.085017" lon="-3.698867">
        <ele>1803.0</ele>
        <time>2018-07-21T12:22:13Z</time>
      </trkpt>
      <trkpt lat="41.085033" lon="-3.698917">
        <ele>1801.0</ele>
        <time>2018-07-21T12:22:14Z</time>
      </trkpt>
      <trkpt lat="41.085033" lon="-3.698983">
        <ele>1800.0</ele>
        <time>2018-07-21T12:22:15Z</time>
      </trkpt>
      <trkpt lat="41.085017" lon="-3.699050">
        <ele>1801.0</ele>
        <time>2018-07-21T12:22:16Z</time>
      </trkpt>
      <trkpt lat="41.085000" lon="-3.699133">
        <ele>1802.0</ele>
        <time>2018-07-21T12:22:17Z</time>
      </trkpt>
      <trkpt lat="41.084983" lon="-3.699200">
        <ele>1803.0</ele>
        <time>2018-07-21T12:22:18Z</time>
      </trkpt>
      <trkpt lat="41.084967" lon="-3.699250">
        <ele>1804.0</ele>
        <time>2018-07-21T12:22:19Z</time>
      </trkpt>
      <trkpt lat="41.084950" lon="-3.699317">
        <ele>1804.0</ele>
        <time>2018-07-21T12:22:20Z</time>
      </trkpt>
      <trkpt lat="41.084917" lon="-3.699383">
        <ele>1803.0</ele>
        <time>2018-07-21T12:22:21Z</time>
      </trkpt>
      <trkpt lat="41.084883" lon="-3.699450">
        <ele>1803.0</ele>
        <time>2018-07-21T12:22:22Z</time>
      </trkpt>
      <trkpt lat="41.084867" lon="-3.699517">
        <ele>1802.0</ele>
        <time>2018-07-21T12:22:23Z</time>
      </trkpt>
      <trkpt lat="41.084833" lon="-3.699600">
        <ele>1802.0</ele>
        <time>2018-07-21T12:22:24Z</time>
      </trkpt>
      <trkpt lat="41.084800" lon="-3.699667">
        <ele>1801.0</ele>
        <time>2018-07-21T12:22:25Z</time>
      </trkpt>
      <trkpt lat="41.084767" lon="-3.699750">
        <ele>1801.0</ele>
        <time>2018-07-21T12:22:26Z</time>
      </trkpt>
      <trkpt lat="41.084717" lon="-3.699817">
        <ele>1801.0</ele>
        <time>2018-07-21T12:22:27Z</time>
      </trkpt>
      <trkpt lat="41.084683" lon="-3.699900">
        <ele>1802.0</ele>
        <time>2018-07-21T12:22:28Z</time>
      </trkpt>
      <trkpt lat="41.084633" lon="-3.699967">
        <ele>1803.0</ele>
        <time>2018-07-21T12:22:29Z</time>
      </trkpt>
      <trkpt lat="41.084600" lon="-3.700033">
        <ele>1804.0</ele>
        <time>2018-07-21T12:22:30Z</time>
      </trkpt>
      <trkpt lat="41.084583" lon="-3.700083">
        <ele>1804.0</ele>
        <time>2018-07-21T12:22:31Z</time>
      </trkpt>
      <trkpt lat="41.084550" lon="-3.700150">
        <ele>1804.0</ele>
        <time>2018-07-21T12:22:32Z</time>
      </trkpt>
      <trkpt lat="41.084517" lon="-3.700200">
        <ele>1803.0</ele>
        <time>2018-07-21T12:22:33Z</time>
      </trkpt>
      <trkpt lat="41.084500" lon="-3.700250">
        <ele>1802.0</ele>
        <time>2018-07-21T12:22:34Z</time>
      </trkpt>
      <trkpt lat="41.084467" lon="-3.700333">
        <ele>1801.0</ele>
        <time>2018-07-21T12:22:35Z</time>
      </trkpt>
      <trkpt lat="41.084433" lon="-3.700400">
        <ele>1800.0</ele>
        <time>2018-07-21T12:22:36Z</time>
      </trkpt>
      <trkpt lat="41.084417" lon="-3.700483">
        <ele>1800.0</ele>
        <time>2018-07-21T12:22:37Z</time>
      </trkpt>
      <trkpt lat="41.084400" lon="-3.700550">
        <ele>1800.0</ele>
        <time>2018-07-21T12:22:38Z</time>
      </trkpt>
      <trkpt lat="41.084383" lon="-3.700600">
        <ele>1800.0</ele>
        <time>2018-07-21T12:22:39Z</time>
      </trkpt>
      <trkpt lat="41.084350" lon="-3.700667">
        <ele>1799.0</ele>
        <time>2018-07-21T12:22:40Z</time>
      </trkpt>
      <trkpt lat="41.084333" lon="-3.700750">
        <ele>1798.0</ele>
        <time>2018-07-21T12:22:41Z</time>
      </trkpt>
      <trkpt lat="41.084317" lon="-3.700817">
        <ele>1797.0</ele>
        <time>2018-07-21T12:22:42Z</time>
      </trkpt>
      <trkpt lat="41.084300" lon="-3.700900">
        <ele>1797.0</ele>
        <time>2018-07-21T12:22:43Z</time>
      </trkpt>
      <trkpt lat="41.084267" lon="-3.700967">
        <ele>1797.0</ele>
        <time>2018-07-21T12:22:44Z</time>
      </trkpt>
      <trkpt lat="41.084250" lon="-3.701050">
        <ele>1797.0</ele>
        <time>2018-07-21T12:22:45Z</time>
      </trkpt>
      <trkpt lat="41.084217" lon="-3.701117">
        <ele>1797.0</ele>
        <time>2018-07-21T12:22:46Z</time>
      </trkpt>
      <trkpt lat="41.084200" lon="-3.701183">
        <ele>1796.0</ele>
        <time>2018-07-21T12:22:47Z</time>
      </trkpt>
      <trkpt lat="41.084167" lon="-3.701250">
        <ele>1796.0</ele>
        <time>2018-07-21T12:22:48Z</time>
      </trkpt>
      <trkpt lat="41.084117" lon="-3.701317">
        <ele>1796.0</ele>
        <time>2018-07-21T12:22:49Z</time>
      </trkpt>
      <trkpt lat="41.084083" lon="-3.701383">
        <ele>1795.0</ele>
        <time>2018-07-21T12:22:50Z</time>
      </trkpt>
      <trkpt lat="41.084050" lon="-3.701433">
        <ele>1794.0</ele>
        <time>2018-07-21T12:22:51Z</time>
      </trkpt>
      <trkpt lat="41.084033" lon="-3.701500">
        <ele>1793.0</ele>
        <time>2018-07-21T12:22:52Z</time>
      </trkpt>
      <trkpt lat="41.084017" lon="-3.701567">
        <ele>1791.0</ele>
        <time>2018-07-21T12:22:53Z</time>
      </trkpt>
      <trkpt lat="41.083983" lon="-3.701650">
        <ele>1789.0</ele>
        <time>2018-07-21T12:22:54Z</time>
      </trkpt>
      <trkpt lat="41.083967" lon="-3.701717">
        <ele>1788.0</ele>
        <time>2018-07-21T12:22:55Z</time>
      </trkpt>
      <trkpt lat="41.083967" lon="-3.701800">
        <ele>1787.0</ele>
        <time>2018-07-21T12:22:56Z</time>
      </trkpt>
      <trkpt lat="41.083967" lon="-3.701867">
        <ele>1787.0</ele>
        <time>2018-07-21T12:22:57Z</time>
      </trkpt>
      <trkpt lat="41.083967" lon="-3.701917">
        <ele>1787.0</ele>
        <time>2018-07-21T12:22:58Z</time>
      </trkpt>
      <trkpt lat="41.083967" lon="-3.701983">
        <ele>1787.0</ele>
        <time>2018-07-21T12:22:59Z</time>
      </trkpt>
      <trkpt lat="41.083950" lon="-3.702050">
        <ele>1786.0</ele>
        <time>2018-07-21T12:23:00Z</time>
      </trkpt>
      <trkpt lat="41.083917" lon="-3.702133">
        <ele>1785.0</ele>
        <time>2018-07-21T12:23:01Z</time>
      </trkpt>
      <trkpt lat="41.083900" lon="-3.702217">
        <ele>1784.0</ele>
        <time>2018-07-21T12:23:02Z</time>
      </trkpt>
      <trkpt lat="41.083867" lon="-3.702283">
        <ele>1784.0</ele>
        <time>2018-07-21T12:23:03Z</time>
      </trkpt>
      <trkpt lat="41.083850" lon="-3.702367">
        <ele>1784.0</ele>
        <time>2018-07-21T12:23:04Z</time>
      </trkpt>
      <trkpt lat="41.083817" lon="-3.702433">
        <ele>1784.0</ele>
        <time>2018-07-21T12:23:05Z</time>
      </trkpt>
      <trkpt lat="41.083783" lon="-3.702517">
        <ele>1783.0</ele>
        <time>2018-07-21T12:23:06Z</time>
      </trkpt>
      <trkpt lat="41.083750" lon="-3.702600">
        <ele>1782.0</ele>
        <time>2018-07-21T12:23:07Z</time>
      </trkpt>
      <trkpt lat="41.083733" lon="-3.702700">
        <ele>1781.0</ele>
        <time>2018-07-21T12:23:08Z</time>
      </trkpt>
      <trkpt lat="41.083700" lon="-3.702783">
        <ele>1781.0</ele>
        <time>2018-07-21T12:23:09Z</time>
      </trkpt>
      <trkpt lat="41.083667" lon="-3.702850">
        <ele>1782.0</ele>
        <time>2018-07-21T12:23:10Z</time>
      </trkpt>
      <trkpt lat="41.083633" lon="-3.702900">
        <ele>1783.0</ele>
        <time>2018-07-21T12:23:11Z</time>
      </trkpt>
      <trkpt lat="41.083617" lon="-3.702950">
        <ele>1783.0</ele>
        <time>2018-07-21T12:23:12Z</time>
      </trkpt>
      <trkpt lat="41.083583" lon="-3.703017">
        <ele>1782.0</ele>
        <time>2018-07-21T12:23:13Z</time>
      </trkpt>
      <trkpt lat="41.083550" lon="-3.703083">
        <ele>1781.0</ele>
        <time>2018-07-21T12:23:14Z</time>
      </trkpt>
      <trkpt lat="41.083533" lon="-3.703150">
        <ele>1779.0</ele>
        <time>2018-07-21T12:23:15Z</time>
      </trkpt>
      <trkpt lat="41.083500" lon="-3.703233">
        <ele>1778.0</ele>
        <time>2018-07-21T12:23:16Z</time>
      </trkpt>
      <trkpt lat="41.083500" lon="-3.703300">
        <ele>1778.0</ele>
        <time>2018-07-21T12:23:17Z</time>
      </trkpt>
      <trkpt lat="41.083500" lon="-3.703367">
        <ele>1778.0</ele>
        <time>2018-07-21T12:23:18Z</time>
      </trkpt>
      <trkpt lat="41.083500" lon="-3.703417">
        <ele>1777.0</ele>
        <time>2018-07-21T12:23:19Z</time>
      </trkpt>
      <trkpt lat="41.083517" lon="-3.703500">
        <ele>1776.0</ele>
        <time>2018-07-21T12:23:20Z</time>
      </trkpt>
      <trkpt lat="41.083517" lon="-3.703567">
        <ele>1776.0</ele>
        <time>2018-07-21T12:23:21Z</time>
      </trkpt>
      <trkpt lat="41.083533" lon="-3.703633">
        <ele>1775.0</ele>
        <time>2018-07-21T12:23:22Z</time>
      </trkpt>
      <trkpt lat="41.083567" lon="-3.703683">
        <ele>1775.0</ele>
        <time>2018-07-21T12:23:23Z</time>
      </trkpt>
      <trkpt lat="41.083583" lon="-3.703733">
        <ele>1775.0</ele>
        <time>2018-07-21T12:23:24Z</time>
      </trkpt>
      <trkpt lat="41.083600" lon="-3.703767">
        <ele>1774.0</ele>
        <time>2018-07-21T12:23:25Z</time>
      </trkpt>
      <trkpt lat="41.083617" lon="-3.703817">
        <ele>1772.0</ele>
        <time>2018-07-21T12:23:26Z</time>
      </trkpt>
      <trkpt lat="41.083600" lon="-3.703883">
        <ele>1770.0</ele>
        <time>2018-07-21T12:23:27Z</time>
      </trkpt>
      <trkpt lat="41.083583" lon="-3.703967">
        <ele>1767.0</ele>
        <time>2018-07-21T12:23:28Z</time>
      </trkpt>
      <trkpt lat="41.083567" lon="-3.704050">
        <ele>1764.0</ele>
        <time>2018-07-21T12:23:29Z</time>
      </trkpt>
      <trkpt lat="41.083550" lon="-3.704133">
        <ele>1762.0</ele>
        <time>2018-07-21T12:23:30Z</time>
      </trkpt>
      <trkpt lat="41.083533" lon="-3.704217">
        <ele>1761.0</ele>
        <time>2018-07-21T12:23:31Z</time>
      </trkpt>
      <trkpt lat="41.083517" lon="-3.704300">
        <ele>1759.0</ele>
        <time>2018-07-21T12:23:32Z</time>
      </trkpt>
      <trkpt lat="41.083500" lon="-3.704383">
        <ele>1758.0</ele>
        <time>2018-07-21T12:23:33Z</time>
      </trkpt>
      <trkpt lat="41.083483" lon="-3.704450">
        <ele>1756.0</ele>
        <time>2018-07-21T12:23:34Z</time>
      </trkpt>
      <trkpt lat="41.083450" lon="-3.704533">
        <ele>1754.0</ele>
        <time>2018-07-21T12:23:35Z</time>
      </trkpt>
      <trkpt lat="41.083417" lon="-3.704617">
        <ele>1752.0</ele>
        <time>2018-07-21T12:23:36Z</time>
      </trkpt>
      <trkpt lat="41.083383" lon="-3.704683">
        <ele>1750.0</ele>
        <time>2018-07-21T12:23:37Z</time>
      </trkpt>
      <trkpt lat="41.083350" lon="-3.704783">
        <ele>1748.0</ele>
        <time>2018-07-21T12:23:38Z</time>
      </trkpt>
      <trkpt lat="41.083333" lon="-3.704867">
        <ele>1746.0</ele>
        <time>2018-07-21T12:23:39Z</time>
      </trkpt>
      <trkpt lat="41.083317" lon="-3.704950">
        <ele>1745.0</ele>
        <time>2018-07-21T12:23:40Z</time>
      </trkpt>
      <trkpt lat="41.083317" lon="-3.705017">
        <ele>1743.0</ele>
        <time>2018-07-21T12:23:41Z</time>
      </trkpt>
      <trkpt lat="41.083317" lon="-3.705100">
        <ele>1741.0</ele>
        <time>2018-07-21T12:23:42Z</time>
      </trkpt>
      <trkpt lat="41.083333" lon="-3.705167">
        <ele>1739.0</ele>
        <time>2018-07-21T12:23:43Z</time>
      </trkpt>
      <trkpt lat="41.083350" lon="-3.705233">
        <ele>1736.0</ele>
        <time>2018-07-21T12:23:44Z</time>
      </trkpt>
      <trkpt lat="41.083367" lon="-3.705300">
        <ele>1733.0</ele>
        <time>2018-07-21T12:23:45Z</time>
      </trkpt>
      <trkpt lat="41.083383" lon="-3.705383">
        <ele>1730.0</ele>
        <time>2018-07-21T12:23:46Z</time>
      </trkpt>
      <trkpt lat="41.083400" lon="-3.705467">
        <ele>1728.0</ele>
        <time>2018-07-21T12:23:47Z</time>
      </trkpt>
      <trkpt lat="41.083417" lon="-3.705550">
        <ele>1726.0</ele>
        <time>2018-07-21T12:23:48Z</time>
      </trkpt>
      <trkpt lat="41.083450" lon="-3.705633">
        <ele>1725.0</ele>
        <time>2018-07-21T12:23:49Z</time>
      </trkpt>
      <trkpt lat="41.083467" lon="-3.705700">
        <ele>1725.0</ele>
        <time>2018-07-21T12:23:50Z</time>
      </trkpt>
      <trkpt lat="41.083450" lon="-3.705783">
        <ele>1724.0</ele>
        <time>2018-07-21T12:23:51Z</time>
      </trkpt>
      <trkpt lat="41.083433" lon="-3.705850">
        <ele>1723.0</ele>
        <time>2018-07-21T12:23:52Z</time>
      </trkpt>
      <trkpt lat="41.083417" lon="-3.705933">
        <ele>1722.0</ele>
        <time>2018-07-21T12:23:53Z</time>
      </trkpt>
      <trkpt lat="41.083400" lon="-3.706017">
        <ele>1720.0</ele>
        <time>2018-07-21T12:23:54Z</time>
      </trkpt>
      <trkpt lat="41.083417" lon="-3.706100">
        <ele>1719.0</ele>
        <time>2018-07-21T12:23:55Z</time>
      </trkpt>
      <trkpt lat="41.083417" lon="-3.706183">
        <ele>1718.0</ele>
        <time>2018-07-21T12:23:56Z</time>
      </trkpt>
      <trkpt lat="41.083400" lon="-3.706267">
        <ele>1718.0</ele>
        <time>2018-07-21T12:23:57Z</time>
      </trkpt>
      <trkpt lat="41.083383" lon="-3.706350">
        <ele>1718.0</ele>
        <time>2018-07-21T12:23:58Z</time>
      </trkpt>
      <trkpt lat="41.083350" lon="-3.706417">
        <ele>1717.0</ele>
        <time>2018-07-21T12:23:59Z</time>
      </trkpt>
      <trkpt lat="41.083317" lon="-3.706467">
        <ele>1716.0</ele>
        <time>2018-07-21T12:24:00Z</time>
      </trkpt>
      <trkpt lat="41.083283" lon="-3.706533">
        <ele>1715.0</ele>
        <time>2018-07-21T12:24:01Z</time>
      </trkpt>
      <trkpt lat="41.083250" lon="-3.706583">
        <ele>1714.0</ele>
        <time>2018-07-21T12:24:02Z</time>
      </trkpt>
      <trkpt lat="41.083217" lon="-3.706650">
        <ele>1712.0</ele>
        <time>2018-07-21T12:24:03Z</time>
      </trkpt>
      <trkpt lat="41.083200" lon="-3.706733">
        <ele>1711.0</ele>
        <time>2018-07-21T12:24:04Z</time>
      </trkpt>
      <trkpt lat="41.083200" lon="-3.706817">
        <ele>1710.0</ele>
        <time>2018-07-21T12:24:05Z</time>
      </trkpt>
      <trkpt lat="41.083233" lon="-3.706900">
        <ele>1709.0</ele>
        <time>2018-07-21T12:24:06Z</time>
      </trkpt>
      <trkpt lat="41.083267" lon="-3.706967">
        <ele>1709.0</ele>
        <time>2018-07-21T12:24:07Z</time>
      </trkpt>
      <trkpt lat="41.083300" lon="-3.707050">
        <ele>1709.0</ele>
        <time>2018-07-21T12:24:08Z</time>
      </trkpt>
      <trkpt lat="41.083300" lon="-3.707117">
        <ele>1708.0</ele>
        <time>2018-07-21T12:24:09Z</time>
      </trkpt>
      <trkpt lat="41.083283" lon="-3.707200">
        <ele>1708.0</ele>
        <time>2018-07-21T12:24:10Z</time>
      </trkpt>
      <trkpt lat="41.083250" lon="-3.707267">
        <ele>1708.0</ele>
        <time>2018-07-21T12:24:11Z</time>
      </trkpt>
      <trkpt lat="41.083217" lon="-3.707333">
        <ele>1707.0</ele>
        <time>2018-07-21T12:24:12Z</time>
      </trkpt>
      <trkpt lat="41.083200" lon="-3.707417">
        <ele>1705.0</ele>
        <time>2018-07-21T12:24:13Z</time>
      </trkpt>
      <trkpt lat="41.083167" lon="-3.707500">
        <ele>1703.0</ele>
        <time>2018-07-21T12:24:14Z</time>
      </trkpt>
      <trkpt lat="41.083150" lon="-3.707600">
        <ele>1702.0</ele>
        <time>2018-07-21T12:24:15Z</time>
      </trkpt>
      <trkpt lat="41.083133" lon="-3.707683">
        <ele>1702.0</ele>
        <time>2018-07-21T12:24:16Z</time>
      </trkpt>
      <trkpt lat="41.083100" lon="-3.707767">
        <ele>1703.0</ele>
        <time>2018-07-21T12:24:17Z</time>
      </trkpt>
      <trkpt lat="41.083067" lon="-3.707850">
        <ele>1703.0</ele>
        <time>2018-07-21T12:24:18Z</time>
      </trkpt>
      <trkpt lat="41.083033" lon="-3.707917">
        <ele>1703.0</ele>
        <time>2018-07-21T12:24:19Z</time>
      </trkpt>
      <trkpt lat="41.083000" lon="-3.707983">
        <ele>1701.0</ele>
        <time>2018-07-21T12:24:20Z</time>
      </trkpt>
      <trkpt lat="41.082967" lon="-3.708050">
        <ele>1700.0</ele>
        <time>2018-07-21T12:24:21Z</time>
      </trkpt>
      <trkpt lat="41.082933" lon="-3.708150">
        <ele>1699.0</ele>
        <time>2018-07-21T12:24:22Z</time>
      </trkpt>
      <trkpt lat="41.082917" lon="-3.708233">
        <ele>1698.0</ele>
        <time>2018-07-21T12:24:23Z</time>
      </trkpt>
      <trkpt lat="41.082883" lon="-3.708333">
        <ele>1697.0</ele>
        <time>2018-07-21T12:24:24Z</time>
      </trkpt>
      <trkpt lat="41.082833" lon="-3.708417">
        <ele>1696.0</ele>
        <time>2018-07-21T12:24:25Z</time>
      </trkpt>
      <trkpt lat="41.082783" lon="-3.708517">
        <ele>1695.0</ele>
        <time>2018-07-21T12:24:26Z</time>
      </trkpt>
      <trkpt lat="41.082750" lon="-3.708617">
        <ele>1695.0</ele>
        <time>2018-07-21T12:24:27Z</time>
      </trkpt>
      <trkpt lat="41.082733" lon="-3.708717">
        <ele>1695.0</ele>
        <time>2018-07-21T12:24:28Z</time>
      </trkpt>
      <trkpt lat="41.082700" lon="-3.708800">
        <ele>1695.0</ele>
        <time>2018-07-21T12:24:29Z</time>
      </trkpt>
      <trkpt lat="41.082650" lon="-3.708900">
        <ele>1695.0</ele>
        <time>2018-07-21T12:24:30Z</time>
      </trkpt>
      <trkpt lat="41.082600" lon="-3.708983">
        <ele>1695.0</ele>
        <time>2018-07-21T12:24:31Z</time>
      </trkpt>
      <trkpt lat="41.082550" lon="-3.709083">
        <ele>1695.0</ele>
        <time>2018-07-21T12:24:32Z</time>
      </trkpt>
      <trkpt lat="41.082500" lon="-3.709183">
        <ele>1695.0</ele>
        <time>2018-07-21T12:24:33Z</time>
      </trkpt>
      <trkpt lat="41.082450" lon="-3.709267">
        <ele>1696.0</ele>
        <time>2018-07-21T12:24:34Z</time>
      </trkpt>
      <trkpt lat="41.082400" lon="-3.709333">
        <ele>1696.0</ele>
        <time>2018-07-21T12:24:35Z</time>
      </trkpt>
      <trkpt lat="41.082333" lon="-3.709400">
        <ele>1695.0</ele>
        <time>2018-07-21T12:24:36Z</time>
      </trkpt>
      <trkpt lat="41.082283" lon="-3.709467">
        <ele>1693.0</ele>
        <time>2018-07-21T12:24:37Z</time>
      </trkpt>
      <trkpt lat="41.082233" lon="-3.709550">
        <ele>1692.0</ele>
        <time>2018-07-21T12:24:38Z</time>
      </trkpt>
      <trkpt lat="41.082183" lon="-3.709650">
        <ele>1690.0</ele>
        <time>2018-07-21T12:24:39Z</time>
      </trkpt>
      <trkpt lat="41.082133" lon="-3.709750">
        <ele>1689.0</ele>
        <time>2018-07-21T12:24:40Z</time>
      </trkpt>
      <trkpt lat="41.082083" lon="-3.709833">
        <ele>1689.0</ele>
        <time>2018-07-21T12:24:41Z</time>
      </trkpt>
      <trkpt lat="41.082017" lon="-3.709933">
        <ele>1688.0</ele>
        <time>2018-07-21T12:24:42Z</time>
      </trkpt>
      <trkpt lat="41.081950" lon="-3.710017">
        <ele>1688.0</ele>
        <time>2018-07-21T12:24:43Z</time>
      </trkpt>
      <trkpt lat="41.081883" lon="-3.710083">
        <ele>1687.0</ele>
        <time>2018-07-21T12:24:44Z</time>
      </trkpt>
      <trkpt lat="41.081800" lon="-3.710167">
        <ele>1686.0</ele>
        <time>2018-07-21T12:24:45Z</time>
      </trkpt>
      <trkpt lat="41.081733" lon="-3.710250">
        <ele>1685.0</ele>
        <time>2018-07-21T12:24:46Z</time>
      </trkpt>
      <trkpt lat="41.081667" lon="-3.710333">
        <ele>1684.0</ele>
        <time>2018-07-21T12:24:47Z</time>
      </trkpt>
      <trkpt lat="41.081583" lon="-3.710417">
        <ele>1683.0</ele>
        <time>2018-07-21T12:24:48Z</time>
      </trkpt>
      <trkpt lat="41.081517" lon="-3.710517">
        <ele>1684.0</ele>
        <time>2018-07-21T12:24:49Z</time>
      </trkpt>
      <trkpt lat="41.081450" lon="-3.710617">
        <ele>1684.0</ele>
        <time>2018-07-21T12:24:50Z</time>
      </trkpt>
      <trkpt lat="41.081383" lon="-3.710700">
        <ele>1685.0</ele>
        <time>2018-07-21T12:24:51Z</time>
      </trkpt>
      <trkpt lat="41.081317" lon="-3.710767">
        <ele>1685.0</ele>
        <time>2018-07-21T12:24:52Z</time>
      </trkpt>
      <trkpt lat="41.081233" lon="-3.710850">
        <ele>1685.0</ele>
        <time>2018-07-21T12:24:53Z</time>
      </trkpt>
      <trkpt lat="41.081150" lon="-3.710900">
        <ele>1685.0</ele>
        <time>2018-07-21T12:24:54Z</time>
      </trkpt>
      <trkpt lat="41.081067" lon="-3.710967">
        <ele>1683.0</ele>
        <time>2018-07-21T12:24:55Z</time>
      </trkpt>
      <trkpt lat="41.080967" lon="-3.711050">
        <ele>1682.0</ele>
        <time>2018-07-21T12:24:56Z</time>
      </trkpt>
      <trkpt lat="41.080883" lon="-3.711133">
        <ele>1680.0</ele>
        <time>2018-07-21T12:24:57Z</time>
      </trkpt>
      <trkpt lat="41.080783" lon="-3.711233">
        <ele>1679.0</ele>
        <time>2018-07-21T12:24:58Z</time>
      </trkpt>
      <trkpt lat="41.080700" lon="-3.711300">
        <ele>1679.0</ele>
        <time>2018-07-21T12:24:59Z</time>
      </trkpt>
      <trkpt lat="41.080600" lon="-3.711367">
        <ele>1679.0</ele>
        <time>2018-07-21T12:25:00Z</time>
      </trkpt>
      <trkpt lat="41.080500" lon="-3.711400">
        <ele>1679.0</ele>
        <time>2018-07-21T12:25:01Z</time>
      </trkpt>
      <trkpt lat="41.080383" lon="-3.711450">
        <ele>1678.0</ele>
        <time>2018-07-21T12:25:02Z</time>
      </trkpt>
      <trkpt lat="41.080283" lon="-3.711500">
        <ele>1677.0</ele>
        <time>2018-07-21T12:25:03Z</time>
      </trkpt>
      <trkpt lat="41.080167" lon="-3.711533">
        <ele>1677.0</ele>
        <time>2018-07-21T12:25:04Z</time>
      </trkpt>
      <trkpt lat="41.080067" lon="-3.711600">
        <ele>1677.0</ele>
        <time>2018-07-21T12:25:05Z</time>
      </trkpt>
      <trkpt lat="41.079967" lon="-3.711650">
        <ele>1678.0</ele>
        <time>2018-07-21T12:25:06Z</time>
      </trkpt>
      <trkpt lat="41.079867" lon="-3.711700">
        <ele>1678.0</ele>
        <time>2018-07-21T12:25:07Z</time>
      </trkpt>
      <trkpt lat="41.079767" lon="-3.711750">
        <ele>1678.0</ele>
        <time>2018-07-21T12:25:08Z</time>
      </trkpt>
      <trkpt lat="41.079650" lon="-3.711783">
        <ele>1677.0</ele>
        <time>2018-07-21T12:25:09Z</time>
      </trkpt>
      <trkpt lat="41.079533" lon="-3.711817">
        <ele>1676.0</ele>
        <time>2018-07-21T12:25:10Z</time>
      </trkpt>
      <trkpt lat="41.079417" lon="-3.711850">
        <ele>1675.0</ele>
        <time>2018-07-21T12:25:11Z</time>
      </trkpt>
      <trkpt lat="41.079300" lon="-3.711867">
        <ele>1675.0</ele>
        <time>2018-07-21T12:25:12Z</time>
      </trkpt>
      <trkpt lat="41.079183" lon="-3.711867">
        <ele>1675.0</ele>
        <time>2018-07-21T12:25:13Z</time>
      </trkpt>
      <trkpt lat="41.079083" lon="-3.711867">
        <ele>1677.0</ele>
        <time>2018-07-21T12:25:14Z</time>
      </trkpt>
      <trkpt lat="41.078983" lon="-3.711900">
        <ele>1677.0</ele>
        <time>2018-07-21T12:25:15Z</time>
      </trkpt>
      <trkpt lat="41.078900" lon="-3.711950">
        <ele>1676.0</ele>
        <time>2018-07-21T12:25:16Z</time>
      </trkpt>
      <trkpt lat="41.078833" lon="-3.712033">
        <ele>1674.0</ele>
        <time>2018-07-21T12:25:17Z</time>
      </trkpt>
      <trkpt lat="41.078767" lon="-3.712133">
        <ele>1673.0</ele>
        <time>2018-07-21T12:25:18Z</time>
      </trkpt>
      <trkpt lat="41.078700" lon="-3.712233">
        <ele>1673.0</ele>
        <time>2018-07-21T12:25:19Z</time>
      </trkpt>
      <trkpt lat="41.078633" lon="-3.712333">
        <ele>1674.0</ele>
        <time>2018-07-21T12:25:20Z</time>
      </trkpt>
      <trkpt lat="41.078550" lon="-3.712400">
        <ele>1675.0</ele>
        <time>2018-07-21T12:25:21Z</time>
      </trkpt>
      <trkpt lat="41.078467" lon="-3.712483">
        <ele>1677.0</ele>
        <time>2018-07-21T12:25:22Z</time>
      </trkpt>
      <trkpt lat="41.078433" lon="-3.712583">
        <ele>1677.0</ele>
        <time>2018-07-21T12:25:23Z</time>
      </trkpt>
      <trkpt lat="41.078400" lon="-3.712683">
        <ele>1677.0</ele>
        <time>2018-07-21T12:25:24Z</time>
      </trkpt>
      <trkpt lat="41.078383" lon="-3.712783">
        <ele>1677.0</ele>
        <time>2018-07-21T12:25:25Z</time>
      </trkpt>
      <trkpt lat="41.078350" lon="-3.712900">
        <ele>1677.0</ele>
        <time>2018-07-21T12:25:26Z</time>
      </trkpt>
      <trkpt lat="41.078300" lon="-3.713000">
        <ele>1679.0</ele>
        <time>2018-07-21T12:25:27Z</time>
      </trkpt>
      <trkpt lat="41.078233" lon="-3.713083">
        <ele>1681.0</ele>
        <time>2018-07-21T12:25:28Z</time>
      </trkpt>
      <trkpt lat="41.078150" lon="-3.713117">
        <ele>1683.0</ele>
        <time>2018-07-21T12:25:29Z</time>
      </trkpt>
      <trkpt lat="41.078050" lon="-3.713150">
        <ele>1684.0</ele>
        <time>2018-07-21T12:25:30Z</time>
      </trkpt>
      <trkpt lat="41.077933" lon="-3.713167">
        <ele>1684.0</ele>
        <time>2018-07-21T12:25:31Z</time>
      </trkpt>
      <trkpt lat="41.077833" lon="-3.713200">
        <ele>1685.0</ele>
        <time>2018-07-21T12:25:32Z</time>
      </trkpt>
      <trkpt lat="41.077717" lon="-3.713217">
        <ele>1685.0</ele>
        <time>2018-07-21T12:25:33Z</time>
      </trkpt>
      <trkpt lat="41.077600" lon="-3.713267">
        <ele>1685.0</ele>
        <time>2018-07-21T12:25:34Z</time>
      </trkpt>
      <trkpt lat="41.077483" lon="-3.713300">
        <ele>1685.0</ele>
        <time>2018-07-21T12:25:35Z</time>
      </trkpt>
      <trkpt lat="41.077383" lon="-3.713350">
        <ele>1686.0</ele>
        <time>2018-07-21T12:25:36Z</time>
      </trkpt>
      <trkpt lat="41.077283" lon="-3.713433">
        <ele>1686.0</ele>
        <time>2018-07-21T12:25:37Z</time>
      </trkpt>
      <trkpt lat="41.077217" lon="-3.713517">
        <ele>1685.0</ele>
        <time>2018-07-21T12:25:38Z</time>
      </trkpt>
      <trkpt lat="41.077150" lon="-3.713617">
        <ele>1685.0</ele>
        <time>2018-07-21T12:25:39Z</time>
      </trkpt>
      <trkpt lat="41.077083" lon="-3.713733">
        <ele>1685.0</ele>
        <time>2018-07-21T12:25:40Z</time>
      </trkpt>
      <trkpt lat="41.077000" lon="-3.713817">
        <ele>1686.0</ele>
        <time>2018-07-21T12:25:41Z</time>
      </trkpt>
      <trkpt lat="41.076933" lon="-3.713917">
        <ele>1687.0</ele>
        <time>2018-07-21T12:25:42Z</time>
      </trkpt>
      <trkpt lat="41.076867" lon="-3.713983">
        <ele>1688.0</ele>
        <time>2018-07-21T12:25:43Z</time>
      </trkpt>
      <trkpt lat="41.076800" lon="-3.714050">
        <ele>1688.0</ele>
        <time>2018-07-21T12:25:44Z</time>
      </trkpt>
      <trkpt lat="41.076750" lon="-3.714133">
        <ele>1688.0</ele>
        <time>2018-07-21T12:25:45Z</time>
      </trkpt>
      <trkpt lat="41.076683" lon="-3.714217">
        <ele>1687.0</ele>
        <time>2018-07-21T12:25:46Z</time>
      </trkpt>
      <trkpt lat="41.076617" lon="-3.714317">
        <ele>1687.0</ele>
        <time>2018-07-21T12:25:47Z</time>
      </trkpt>
      <trkpt lat="41.076567" lon="-3.714433">
        <ele>1687.0</ele>
        <time>2018-07-21T12:25:48Z</time>
      </trkpt>
      <trkpt lat="41.076500" lon="-3.714533">
        <ele>1687.0</ele>
        <time>2018-07-21T12:25:49Z</time>
      </trkpt>
      <trkpt lat="41.076450" lon="-3.714617">
        <ele>1687.0</ele>
        <time>2018-07-21T12:25:50Z</time>
      </trkpt>
      <trkpt lat="41.076400" lon="-3.714717">
        <ele>1687.0</ele>
        <time>2018-07-21T12:25:51Z</time>
      </trkpt>
      <trkpt lat="41.076367" lon="-3.714833">
        <ele>1686.0</ele>
        <time>2018-07-21T12:25:52Z</time>
      </trkpt>
      <trkpt lat="41.076350" lon="-3.714933">
        <ele>1686.0</ele>
        <time>2018-07-21T12:25:53Z</time>
      </trkpt>
      <trkpt lat="41.076350" lon="-3.715050">
        <ele>1686.0</ele>
        <time>2018-07-21T12:25:54Z</time>
      </trkpt>
      <trkpt lat="41.076383" lon="-3.715133">
        <ele>1686.0</ele>
        <time>2018-07-21T12:25:55Z</time>
      </trkpt>
      <trkpt lat="41.076450" lon="-3.715167">
        <ele>1687.0</ele>
        <time>2018-07-21T12:25:56Z</time>
      </trkpt>
      <trkpt lat="41.076517" lon="-3.715133">
        <ele>1687.0</ele>
        <time>2018-07-21T12:25:57Z</time>
      </trkpt>
      <trkpt lat="41.076583" lon="-3.715050">
        <ele>1687.0</ele>
        <time>2018-07-21T12:25:58Z</time>
      </trkpt>
      <trkpt lat="41.076600" lon="-3.714917">
        <ele>1689.0</ele>
        <time>2018-07-21T12:25:59Z</time>
      </trkpt>
      <trkpt lat="41.076600" lon="-3.714783">
        <ele>1690.0</ele>
        <time>2018-07-21T12:26:00Z</time>
      </trkpt>
      <trkpt lat="41.076600" lon="-3.714650">
        <ele>1692.0</ele>
        <time>2018-07-21T12:26:01Z</time>
      </trkpt>
      <trkpt lat="41.076617" lon="-3.714533">
        <ele>1693.0</ele>
        <time>2018-07-21T12:26:02Z</time>
      </trkpt>
      <trkpt lat="41.076633" lon="-3.714417">
        <ele>1694.0</ele>
        <time>2018-07-21T12:26:03Z</time>
      </trkpt>
      <trkpt lat="41.076667" lon="-3.714300">
        <ele>1695.0</ele>
        <time>2018-07-21T12:26:04Z</time>
      </trkpt>
      <trkpt lat="41.076683" lon="-3.714167">
        <ele>1696.0</ele>
        <time>2018-07-21T12:26:05Z</time>
      </trkpt>
      <trkpt lat="41.076700" lon="-3.714067">
        <ele>1697.0</ele>
        <time>2018-07-21T12:26:06Z</time>
      </trkpt>
      <trkpt lat="41.076717" lon="-3.713967">
        <ele>1697.0</ele>
        <time>2018-07-21T12:26:07Z</time>
      </trkpt>
      <trkpt lat="41.076750" lon="-3.713867">
        <ele>1697.0</ele>
        <time>2018-07-21T12:26:08Z</time>
      </trkpt>
      <trkpt lat="41.076800" lon="-3.713783">
        <ele>1696.0</ele>
        <time>2018-07-21T12:26:09Z</time>
      </trkpt>
      <trkpt lat="41.076867" lon="-3.713700">
        <ele>1696.0</ele>
        <time>2018-07-21T12:26:10Z</time>
      </trkpt>
      <trkpt lat="41.076950" lon="-3.713617">
        <ele>1696.0</ele>
        <time>2018-07-21T12:26:11Z</time>
      </trkpt>
      <trkpt lat="41.077017" lon="-3.713550">
        <ele>1698.0</ele>
        <time>2018-07-21T12:26:12Z</time>
      </trkpt>
      <trkpt lat="41.077067" lon="-3.713483">
        <ele>1701.0</ele>
        <time>2018-07-21T12:26:13Z</time>
      </trkpt>
      <trkpt lat="41.077117" lon="-3.713433">
        <ele>1702.0</ele>
        <time>2018-07-21T12:26:14Z</time>
      </trkpt>
      <trkpt lat="41.077167" lon="-3.713367">
        <ele>1703.0</ele>
        <time>2018-07-21T12:26:15Z</time>
      </trkpt>
      <trkpt lat="41.077217" lon="-3.713317">
        <ele>1704.0</ele>
        <time>2018-07-21T12:26:16Z</time>
      </trkpt>
      <trkpt lat="41.077250" lon="-3.713233">
        <ele>1705.0</ele>
        <time>2018-07-21T12:26:17Z</time>
      </trkpt>
      <trkpt lat="41.077283" lon="-3.713133">
        <ele>1706.0</ele>
        <time>2018-07-21T12:26:18Z</time>
      </trkpt>
      <trkpt lat="41.077317" lon="-3.713033">
        <ele>1706.0</ele>
        <time>2018-07-21T12:26:19Z</time>
      </trkpt>
      <trkpt lat="41.077317" lon="-3.712900">
        <ele>1706.0</ele>
        <time>2018-07-21T12:26:20Z</time>
      </trkpt>
      <trkpt lat="41.077333" lon="-3.712767">
        <ele>1707.0</ele>
        <time>2018-07-21T12:26:21Z</time>
      </trkpt>
      <trkpt lat="41.077333" lon="-3.712617">
        <ele>1708.0</ele>
        <time>2018-07-21T12:26:22Z</time>
      </trkpt>
      <trkpt lat="41.077333" lon="-3.712483">
        <ele>1709.0</ele>
        <time>2018-07-21T12:26:23Z</time>
      </trkpt>
      <trkpt lat="41.077367" lon="-3.712350">
        <ele>1710.0</ele>
        <time>2018-07-21T12:26:24Z</time>
      </trkpt>
      <trkpt lat="41.077383" lon="-3.712233">
        <ele>1711.0</ele>
        <time>2018-07-21T12:26:25Z</time>
      </trkpt>
      <trkpt lat="41.077417" lon="-3.712133">
        <ele>1712.0</ele>
        <time>2018-07-21T12:26:26Z</time>
      </trkpt>
      <trkpt lat="41.077450" lon="-3.712050">
        <ele>1712.0</ele>
        <time>2018-07-21T12:26:27Z</time>
      </trkpt>
      <trkpt lat="41.077517" lon="-3.712000">
        <ele>1712.0</ele>
        <time>2018-07-21T12:26:28Z</time>
      </trkpt>
      <trkpt lat="41.077583" lon="-3.712000">
        <ele>1712.0</ele>
        <time>2018-07-21T12:26:29Z</time>
      </trkpt>
      <trkpt lat="41.077650" lon="-3.712050">
        <ele>1712.0</ele>
        <time>2018-07-21T12:26:30Z</time>
      </trkpt>
      <trkpt lat="41.077667" lon="-3.712133">
        <ele>1712.0</ele>
        <time>2018-07-21T12:26:31Z</time>
      </trkpt>
      <trkpt lat="41.077633" lon="-3.712217">
        <ele>1713.0</ele>
        <time>2018-07-21T12:26:32Z</time>
      </trkpt>
      <trkpt lat="41.077567" lon="-3.712300">
        <ele>1713.0</ele>
        <time>2018-07-21T12:26:33Z</time>
      </trkpt>
      <trkpt lat="41.077483" lon="-3.712350">
        <ele>1713.0</ele>
        <time>2018-07-21T12:26:34Z</time>
      </trkpt>
      <trkpt lat="41.077383" lon="-3.712383">
        <ele>1715.0</ele>
        <time>2018-07-21T12:26:35Z</time>
      </trkpt>
      <trkpt lat="41.077283" lon="-3.712417">
        <ele>1717.0</ele>
        <time>2018-07-21T12:26:36Z</time>
      </trkpt>
      <trkpt lat="41.077200" lon="-3.712467">
        <ele>1720.0</ele>
        <time>2018-07-21T12:26:37Z</time>
      </trkpt>
      <trkpt lat="41.077117" lon="-3.712517">
        <ele>1721.0</ele>
        <time>2018-07-21T12:26:38Z</time>
      </trkpt>
      <trkpt lat="41.077050" lon="-3.712550">
        <ele>1722.0</ele>
        <time>2018-07-21T12:26:39Z</time>
      </trkpt>
      <trkpt lat="41.076967" lon="-3.712600">
        <ele>1722.0</ele>
        <time>2018-07-21T12:26:40Z</time>
      </trkpt>
      <trkpt lat="41.076900" lon="-3.712667">
        <ele>1721.0</ele>
        <time>2018-07-21T12:26:41Z</time>
      </trkpt>
      <trkpt lat="41.076850" lon="-3.712750">
        <ele>1721.0</ele>
        <time>2018-07-21T12:26:42Z</time>
      </trkpt>
      <trkpt lat="41.076800" lon="-3.712833">
        <ele>1722.0</ele>
        <time>2018-07-21T12:26:43Z</time>
      </trkpt>
      <trkpt lat="41.076733" lon="-3.712917">
        <ele>1723.0</ele>
        <time>2018-07-21T12:26:44Z</time>
      </trkpt>
      <trkpt lat="41.076683" lon="-3.712983">
        <ele>1724.0</ele>
        <time>2018-07-21T12:26:45Z</time>
      </trkpt>
      <trkpt lat="41.076633" lon="-3.713067">
        <ele>1725.0</ele>
        <time>2018-07-21T12:26:46Z</time>
      </trkpt>
      <trkpt lat="41.076600" lon="-3.713133">
        <ele>1725.0</ele>
        <time>2018-07-21T12:26:47Z</time>
      </trkpt>
      <trkpt lat="41.076567" lon="-3.713200">
        <ele>1725.0</ele>
        <time>2018-07-21T12:26:48Z</time>
      </trkpt>
      <trkpt lat="41.076550" lon="-3.713283">
        <ele>1724.0</ele>
        <time>2018-07-21T12:26:49Z</time>
      </trkpt>
      <trkpt lat="41.076567" lon="-3.713350">
        <ele>1723.0</ele>
        <time>2018-07-21T12:26:50Z</time>
      </trkpt>
      <trkpt lat="41.076600" lon="-3.713400">
        <ele>1721.0</ele>
        <time>2018-07-21T12:26:51Z</time>
      </trkpt>
      <trkpt lat="41.076667" lon="-3.713417">
        <ele>1720.0</ele>
        <time>2018-07-21T12:26:52Z</time>
      </trkpt>
      <trkpt lat="41.076733" lon="-3.713383">
        <ele>1719.0</ele>
        <time>2018-07-21T12:26:53Z</time>
      </trkpt>
      <trkpt lat="41.076800" lon="-3.713317">
        <ele>1718.0</ele>
        <time>2018-07-21T12:26:54Z</time>
      </trkpt>
      <trkpt lat="41.076850" lon="-3.713200">
        <ele>1718.0</ele>
        <time>2018-07-21T12:26:55Z</time>
      </trkpt>
      <trkpt lat="41.076867" lon="-3.713067">
        <ele>1718.0</ele>
        <time>2018-07-21T12:26:56Z</time>
      </trkpt>
      <trkpt lat="41.076883" lon="-3.712950">
        <ele>1719.0</ele>
        <time>2018-07-21T12:26:57Z</time>
      </trkpt>
      <trkpt lat="41.076900" lon="-3.712817">
        <ele>1719.0</ele>
        <time>2018-07-21T12:26:58Z</time>
      </trkpt>
      <trkpt lat="41.076917" lon="-3.712683">
        <ele>1718.0</ele>
        <time>2018-07-21T12:26:59Z</time>
      </trkpt>
      <trkpt lat="41.076950" lon="-3.712567">
        <ele>1717.0</ele>
        <time>2018-07-21T12:27:00Z</time>
      </trkpt>
      <trkpt lat="41.077000" lon="-3.712433">
        <ele>1718.0</ele>
        <time>2018-07-21T12:27:01Z</time>
      </trkpt>
      <trkpt lat="41.077050" lon="-3.712317">
        <ele>1718.0</ele>
        <time>2018-07-21T12:27:02Z</time>
      </trkpt>
      <trkpt lat="41.077083" lon="-3.712200">
        <ele>1719.0</ele>
        <time>2018-07-21T12:27:03Z</time>
      </trkpt>
      <trkpt lat="41.077133" lon="-3.712100">
        <ele>1719.0</ele>
        <time>2018-07-21T12:27:04Z</time>
      </trkpt>
      <trkpt lat="41.077200" lon="-3.712000">
        <ele>1720.0</ele>
        <time>2018-07-21T12:27:05Z</time>
      </trkpt>
      <trkpt lat="41.077250" lon="-3.711900">
        <ele>1721.0</ele>
        <time>2018-07-21T12:27:06Z</time>
      </trkpt>
      <trkpt lat="41.077317" lon="-3.711800">
        <ele>1722.0</ele>
        <time>2018-07-21T12:27:07Z</time>
      </trkpt>
      <trkpt lat="41.077367" lon="-3.711683">
        <ele>1723.0</ele>
        <time>2018-07-21T12:27:08Z</time>
      </trkpt>
      <trkpt lat="41.077417" lon="-3.711583">
        <ele>1725.0</ele>
        <time>2018-07-21T12:27:09Z</time>
      </trkpt>
      <trkpt lat="41.077450" lon="-3.711467">
        <ele>1726.0</ele>
        <time>2018-07-21T12:27:10Z</time>
      </trkpt>
      <trkpt lat="41.077483" lon="-3.711367">
        <ele>1726.0</ele>
        <time>2018-07-21T12:27:11Z</time>
      </trkpt>
      <trkpt lat="41.077533" lon="-3.711283">
        <ele>1725.0</ele>
        <time>2018-07-21T12:27:12Z</time>
      </trkpt>
      <trkpt lat="41.077600" lon="-3.711233">
        <ele>1724.0</ele>
        <time>2018-07-21T12:27:13Z</time>
      </trkpt>
      <trkpt lat="41.077683" lon="-3.711217">
        <ele>1723.0</ele>
        <time>2018-07-21T12:27:14Z</time>
      </trkpt>
      <trkpt lat="41.077750" lon="-3.711250">
        <ele>1722.0</ele>
        <time>2018-07-21T12:27:15Z</time>
      </trkpt>
      <trkpt lat="41.077800" lon="-3.711317">
        <ele>1721.0</ele>
        <time>2018-07-21T12:27:16Z</time>
      </trkpt>
      <trkpt lat="41.077817" lon="-3.711433">
        <ele>1721.0</ele>
        <time>2018-07-21T12:27:17Z</time>
      </trkpt>
      <trkpt lat="41.077783" lon="-3.711533">
        <ele>1720.0</ele>
        <time>2018-07-21T12:27:18Z</time>
      </trkpt>
      <trkpt lat="41.077717" lon="-3.711617">
        <ele>1720.0</ele>
        <time>2018-07-21T12:27:19Z</time>
      </trkpt>
      <trkpt lat="41.077650" lon="-3.711683">
        <ele>1721.0</ele>
        <time>2018-07-21T12:27:20Z</time>
      </trkpt>
      <trkpt lat="41.077567" lon="-3.711717">
        <ele>1722.0</ele>
        <time>2018-07-21T12:27:21Z</time>
      </trkpt>
      <trkpt lat="41.077517" lon="-3.711767">
        <ele>1722.0</ele>
        <time>2018-07-21T12:27:22Z</time>
      </trkpt>
      <trkpt lat="41.077450" lon="-3.711817">
        <ele>1722.0</ele>
        <time>2018-07-21T12:27:23Z</time>
      </trkpt>
      <trkpt lat="41.077383" lon="-3.711883">
        <ele>1721.0</ele>
        <time>2018-07-21T12:27:24Z</time>
      </trkpt>
      <trkpt lat="41.077317" lon="-3.711933">
        <ele>1720.0</ele>
        <time>2018-07-21T12:27:25Z</time>
      </trkpt>
      <trkpt lat="41.077250" lon="-3.712000">
        <ele>1720.0</ele>
        <time>2018-07-21T12:27:26Z</time>
      </trkpt>
      <trkpt lat="41.077183" lon="-3.712067">
        <ele>1720.0</ele>
        <time>2018-07-21T12:27:27Z</time>
      </trkpt>
      <trkpt lat="41.077117" lon="-3.712133">
        <ele>1720.0</ele>
        <time>2018-07-21T12:27:28Z</time>
      </trkpt>
      <trkpt lat="41.077067" lon="-3.712183">
        <ele>1720.0</ele>
        <time>2018-07-21T12:27:29Z</time>
      </trkpt>
      <trkpt lat="41.077017" lon="-3.712250">
        <ele>1719.0</ele>
        <time>2018-07-21T12:27:30Z</time>
      </trkpt>
      <trkpt lat="41.076967" lon="-3.712317">
        <ele>1718.0</ele>
        <time>2018-07-21T12:27:31Z</time>
      </trkpt>
      <trkpt lat="41.076933" lon="-3.712417">
        <ele>1717.0</ele>
        <time>2018-07-21T12:27:32Z</time>
      </trkpt>
      <trkpt lat="41.076900" lon="-3.712517">
        <ele>1716.0</ele>
        <time>2018-07-21T12:27:33Z</time>
      </trkpt>
      <trkpt lat="41.076867" lon="-3.712633">
        <ele>1716.0</ele>
        <time>2018-07-21T12:27:34Z</time>
      </trkpt>
      <trkpt lat="41.076833" lon="-3.712750">
        <ele>1717.0</ele>
        <time>2018-07-21T12:27:35Z</time>
      </trkpt>
      <trkpt lat="41.076800" lon="-3.712850">
        <ele>1719.0</ele>
        <time>2018-07-21T12:27:36Z</time>
      </trkpt>
      <trkpt lat="41.076750" lon="-3.712933">
        <ele>1721.0</ele>
        <time>2018-07-21T12:27:37Z</time>
      </trkpt>
      <trkpt lat="41.076700" lon="-3.713017">
        <ele>1722.0</ele>
        <time>2018-07-21T12:27:38Z</time>
      </trkpt>
      <trkpt lat="41.076650" lon="-3.713100">
        <ele>1722.0</ele>
        <time>2018-07-21T12:27:39Z</time>
      </trkpt>
      <trkpt lat="41.076617" lon="-3.713183">
        <ele>1722.0</ele>
        <time>2018-07-21T12:27:40Z</time>
      </trkpt>
      <trkpt lat="41.076583" lon="-3.713283">
        <ele>1721.0</ele>
        <time>2018-07-21T12:27:41Z</time>
      </trkpt>
      <trkpt lat="41.076533" lon="-3.713383">
        <ele>1721.0</ele>
        <time>2018-07-21T12:27:42Z</time>
      </trkpt>
      <trkpt lat="41.076467" lon="-3.713467">
        <ele>1721.0</ele>
        <time>2018-07-21T12:27:43Z</time>
      </trkpt>
      <trkpt lat="41.076400" lon="-3.713550">
        <ele>1720.0</ele>
        <time>2018-07-21T12:27:44Z</time>
      </trkpt>
      <trkpt lat="41.076333" lon="-3.713633">
        <ele>1721.0</ele>
        <time>2018-07-21T12:27:45Z</time>
      </trkpt>
      <trkpt lat="41.076267" lon="-3.713717">
        <ele>1720.0</ele>
        <time>2018-07-21T12:27:46Z</time>
      </trkpt>
      <trkpt lat="41.076217" lon="-3.713817">
        <ele>1721.0</ele>
        <time>2018-07-21T12:27:47Z</time>
      </trkpt>
      <trkpt lat="41.076167" lon="-3.713917">
        <ele>1722.0</ele>
        <time>2018-07-21T12:27:48Z</time>
      </trkpt>
      <trkpt lat="41.076117" lon="-3.714000">
        <ele>1723.0</ele>
        <time>2018-07-21T12:27:49Z</time>
      </trkpt>
      <trkpt lat="41.076067" lon="-3.714050">
        <ele>1723.0</ele>
        <time>2018-07-21T12:27:50Z</time>
      </trkpt>
      <trkpt lat="41.076000" lon="-3.714117">
        <ele>1722.0</ele>
        <time>2018-07-21T12:27:51Z</time>
      </trkpt>
      <trkpt lat="41.075967" lon="-3.714200">
        <ele>1721.0</ele>
        <time>2018-07-21T12:27:52Z</time>
      </trkpt>
      <trkpt lat="41.075917" lon="-3.714317">
        <ele>1719.0</ele>
        <time>2018-07-21T12:27:53Z</time>
      </trkpt>
      <trkpt lat="41.075900" lon="-3.714417">
        <ele>1718.0</ele>
        <time>2018-07-21T12:27:54Z</time>
      </trkpt>
      <trkpt lat="41.075867" lon="-3.714533">
        <ele>1718.0</ele>
        <time>2018-07-21T12:27:55Z</time>
      </trkpt>
      <trkpt lat="41.075833" lon="-3.714650">
        <ele>1717.0</ele>
        <time>2018-07-21T12:27:56Z</time>
      </trkpt>
      <trkpt lat="41.075817" lon="-3.714750">
        <ele>1717.0</ele>
        <time>2018-07-21T12:27:57Z</time>
      </trkpt>
      <trkpt lat="41.075800" lon="-3.714850">
        <ele>1717.0</ele>
        <time>2018-07-21T12:27:58Z</time>
      </trkpt>
      <trkpt lat="41.075783" lon="-3.714967">
        <ele>1717.0</ele>
        <time>2018-07-21T12:27:59Z</time>
      </trkpt>
      <trkpt lat="41.075750" lon="-3.715067">
        <ele>1718.0</ele>
        <time>2018-07-21T12:28:00Z</time>
      </trkpt>
      <trkpt lat="41.075717" lon="-3.715167">
        <ele>1720.0</ele>
        <time>2018-07-21T12:28:01Z</time>
      </trkpt>
      <trkpt lat="41.075650" lon="-3.715233">
        <ele>1722.0</ele>
        <time>2018-07-21T12:28:02Z</time>
      </trkpt>
      <trkpt lat="41.075600" lon="-3.715283">
        <ele>1724.0</ele>
        <time>2018-07-21T12:28:03Z</time>
      </trkpt>
      <trkpt lat="41.075533" lon="-3.715333">
        <ele>1725.0</ele>
        <time>2018-07-21T12:28:04Z</time>
      </trkpt>
      <trkpt lat="41.075500" lon="-3.715383">
        <ele>1727.0</ele>
        <time>2018-07-21T12:28:05Z</time>
      </trkpt>
      <trkpt lat="41.075483" lon="-3.715450">
        <ele>1728.0</ele>
        <time>2018-07-21T12:28:06Z</time>
      </trkpt>
      <trkpt lat="41.075500" lon="-3.715517">
        <ele>1728.0</ele>
        <time>2018-07-21T12:28:07Z</time>
      </trkpt>
      <trkpt lat="41.075550" lon="-3.715567">
        <ele>1727.0</ele>
        <time>2018-07-21T12:28:08Z</time>
      </trkpt>
      <trkpt lat="41.075633" lon="-3.715600">
        <ele>1727.0</ele>
        <time>2018-07-21T12:28:09Z</time>
      </trkpt>
      <trkpt lat="41.075733" lon="-3.715600">
        <ele>1727.0</ele>
        <time>2018-07-21T12:28:10Z</time>
      </trkpt>
      <trkpt lat="41.075833" lon="-3.715550">
        <ele>1726.0</ele>
        <time>2018-07-21T12:28:11Z</time>
      </trkpt>
      <trkpt lat="41.075917" lon="-3.715433">
        <ele>1726.0</ele>
        <time>2018-07-21T12:28:12Z</time>
      </trkpt>
      <trkpt lat="41.075950" lon="-3.715267">
        <ele>1727.0</ele>
        <time>2018-07-21T12:28:13Z</time>
      </trkpt>
      <trkpt lat="41.075950" lon="-3.715117">
        <ele>1728.0</ele>
        <time>2018-07-21T12:28:14Z</time>
      </trkpt>
      <trkpt lat="41.075917" lon="-3.714967">
        <ele>1730.0</ele>
        <time>2018-07-21T12:28:15Z</time>
      </trkpt>
      <trkpt lat="41.075883" lon="-3.714833">
        <ele>1731.0</ele>
        <time>2018-07-21T12:28:16Z</time>
      </trkpt>
      <trkpt lat="41.075833" lon="-3.714700">
        <ele>1733.0</ele>
        <time>2018-07-21T12:28:17Z</time>
      </trkpt>
      <trkpt lat="41.075800" lon="-3.714550">
        <ele>1734.0</ele>
        <time>2018-07-21T12:28:18Z</time>
      </trkpt>
      <trkpt lat="41.075800" lon="-3.714400">
        <ele>1736.0</ele>
        <time>2018-07-21T12:28:19Z</time>
      </trkpt>
      <trkpt lat="41.075817" lon="-3.714250">
        <ele>1737.0</ele>
        <time>2018-07-21T12:28:20Z</time>
      </trkpt>
      <trkpt lat="41.075833" lon="-3.714133">
        <ele>1739.0</ele>
        <time>2018-07-21T12:28:21Z</time>
      </trkpt>
      <trkpt lat="41.075867" lon="-3.714033">
        <ele>1740.0</ele>
        <time>2018-07-21T12:28:22Z</time>
      </trkpt>
      <trkpt lat="41.075900" lon="-3.713933">
        <ele>1741.0</ele>
        <time>2018-07-21T12:28:23Z</time>
      </trkpt>
      <trkpt lat="41.075933" lon="-3.713833">
        <ele>1741.0</ele>
        <time>2018-07-21T12:28:24Z</time>
      </trkpt>
      <trkpt lat="41.075983" lon="-3.713750">
        <ele>1739.0</ele>
        <time>2018-07-21T12:28:25Z</time>
      </trkpt>
      <trkpt lat="41.076050" lon="-3.713717">
        <ele>1738.0</ele>
        <time>2018-07-21T12:28:26Z</time>
      </trkpt>
      <trkpt lat="41.076133" lon="-3.713717">
        <ele>1737.0</ele>
        <time>2018-07-21T12:28:27Z</time>
      </trkpt>
      <trkpt lat="41.076200" lon="-3.713783">
        <ele>1736.0</ele>
        <time>2018-07-21T12:28:28Z</time>
      </trkpt>
      <trkpt lat="41.076217" lon="-3.713883">
        <ele>1735.0</ele>
        <time>2018-07-21T12:28:29Z</time>
      </trkpt>
      <trkpt lat="41.076183" lon="-3.714000">
        <ele>1735.0</ele>
        <time>2018-07-21T12:28:30Z</time>
      </trkpt>
      <trkpt lat="41.076117" lon="-3.714083">
        <ele>1737.0</ele>
        <time>2018-07-21T12:28:31Z</time>
      </trkpt>
      <trkpt lat="41.076050" lon="-3.714150">
        <ele>1739.0</ele>
        <time>2018-07-21T12:28:32Z</time>
      </trkpt>
      <trkpt lat="41.075983" lon="-3.714183">
        <ele>1742.0</ele>
        <time>2018-07-21T12:28:33Z</time>
      </trkpt>
      <trkpt lat="41.075917" lon="-3.714217">
        <ele>1744.0</ele>
        <time>2018-07-21T12:28:34Z</time>
      </trkpt>
      <trkpt lat="41.075867" lon="-3.714250">
        <ele>1745.0</ele>
        <time>2018-07-21T12:28:35Z</time>
      </trkpt>
      <trkpt lat="41.075783" lon="-3.714300">
        <ele>1745.0</ele>
        <time>2018-07-21T12:28:36Z</time>
      </trkpt>
      <trkpt lat="41.075717" lon="-3.714350">
        <ele>1745.0</ele>
        <time>2018-07-21T12:28:37Z</time>
      </trkpt>
      <trkpt lat="41.075650" lon="-3.714433">
        <ele>1745.0</ele>
        <time>2018-07-21T12:28:38Z</time>
      </trkpt>
      <trkpt lat="41.075583" lon="-3.714517">
        <ele>1745.0</ele>
        <time>2018-07-21T12:28:39Z</time>
      </trkpt>
      <trkpt lat="41.075517" lon="-3.714600">
        <ele>1746.0</ele>
        <time>2018-07-21T12:28:40Z</time>
      </trkpt>
      <trkpt lat="41.075467" lon="-3.714683">
        <ele>1749.0</ele>
        <time>2018-07-21T12:28:41Z</time>
      </trkpt>
      <trkpt lat="41.075433" lon="-3.714733">
        <ele>1752.0</ele>
        <time>2018-07-21T12:28:42Z</time>
      </trkpt>
      <trkpt lat="41.075400" lon="-3.714783">
        <ele>1755.0</ele>
        <time>2018-07-21T12:28:43Z</time>
      </trkpt>
      <trkpt lat="41.075367" lon="-3.714817">
        <ele>1755.0</ele>
        <time>2018-07-21T12:28:44Z</time>
      </trkpt>
      <trkpt lat="41.075333" lon="-3.714833">
        <ele>1754.0</ele>
        <time>2018-07-21T12:28:45Z</time>
      </trkpt>
      <trkpt lat="41.075300" lon="-3.714883">
        <ele>1754.0</ele>
        <time>2018-07-21T12:28:46Z</time>
      </trkpt>
      <trkpt lat="41.075300" lon="-3.714933">
        <ele>1753.0</ele>
        <time>2018-07-21T12:28:47Z</time>
      </trkpt>
      <trkpt lat="41.075333" lon="-3.715000">
        <ele>1752.0</ele>
        <time>2018-07-21T12:28:48Z</time>
      </trkpt>
      <trkpt lat="41.075367" lon="-3.715083">
        <ele>1752.0</ele>
        <time>2018-07-21T12:28:49Z</time>
      </trkpt>
      <trkpt lat="41.075350" lon="-3.715167">
        <ele>1754.0</ele>
        <time>2018-07-21T12:28:50Z</time>
      </trkpt>
      <trkpt lat="41.075317" lon="-3.715233">
        <ele>1755.0</ele>
        <time>2018-07-21T12:28:51Z</time>
      </trkpt>
      <trkpt lat="41.075250" lon="-3.715283">
        <ele>1756.0</ele>
        <time>2018-07-21T12:28:52Z</time>
      </trkpt>
      <trkpt lat="41.075200" lon="-3.715317">
        <ele>1757.0</ele>
        <time>2018-07-21T12:28:53Z</time>
      </trkpt>
      <trkpt lat="41.075150" lon="-3.715367">
        <ele>1757.0</ele>
        <time>2018-07-21T12:28:54Z</time>
      </trkpt>
      <trkpt lat="41.075117" lon="-3.715417">
        <ele>1757.0</ele>
        <time>2018-07-21T12:28:55Z</time>
      </trkpt>
      <trkpt lat="41.075067" lon="-3.715483">
        <ele>1757.0</ele>
        <time>2018-07-21T12:28:56Z</time>
      </trkpt>
      <trkpt lat="41.075000" lon="-3.715550">
        <ele>1758.0</ele>
        <time>2018-07-21T12:28:57Z</time>
      </trkpt>
      <trkpt lat="41.074950" lon="-3.715617">
        <ele>1759.0</ele>
        <time>2018-07-21T12:28:58Z</time>
      </trkpt>
      <trkpt lat="41.074883" lon="-3.715683">
        <ele>1760.0</ele>
        <time>2018-07-21T12:28:59Z</time>
      </trkpt>
      <trkpt lat="41.074833" lon="-3.715733">
        <ele>1761.0</ele>
        <time>2018-07-21T12:29:00Z</time>
      </trkpt>
      <trkpt lat="41.074767" lon="-3.715783">
        <ele>1762.0</ele>
        <time>2018-07-21T12:29:01Z</time>
      </trkpt>
      <trkpt lat="41.074717" lon="-3.715850">
        <ele>1763.0</ele>
        <time>2018-07-21T12:29:02Z</time>
      </trkpt>
      <trkpt lat="41.074683" lon="-3.715900">
        <ele>1763.0</ele>
        <time>2018-07-21T12:29:03Z</time>
      </trkpt>
      <trkpt lat="41.074667" lon="-3.715967">
        <ele>1763.0</ele>
        <time>2018-07-21T12:29:04Z</time>
      </trkpt>
      <trkpt lat="41.074700" lon="-3.716033">
        <ele>1762.0</ele>
        <time>2018-07-21T12:29:05Z</time>
      </trkpt>
      <trkpt lat="41.074767" lon="-3.716050">
        <ele>1761.0</ele>
        <time>2018-07-21T12:29:06Z</time>
      </trkpt>
      <trkpt lat="41.074850" lon="-3.716033">
        <ele>1761.0</ele>
        <time>2018-07-21T12:29:07Z</time>
      </trkpt>
      <trkpt lat="41.074917" lon="-3.715967">
        <ele>1761.0</ele>
        <time>2018-07-21T12:29:08Z</time>
      </trkpt>
      <trkpt lat="41.075000" lon="-3.715850">
        <ele>1761.0</ele>
        <time>2018-07-21T12:29:09Z</time>
      </trkpt>
      <trkpt lat="41.075050" lon="-3.715717">
        <ele>1761.0</ele>
        <time>2018-07-21T12:29:10Z</time>
      </trkpt>
      <trkpt lat="41.075100" lon="-3.715600">
        <ele>1762.0</ele>
        <time>2018-07-21T12:29:11Z</time>
      </trkpt>
      <trkpt lat="41.075150" lon="-3.715483">
        <ele>1764.0</ele>
        <time>2018-07-21T12:29:12Z</time>
      </trkpt>
      <trkpt lat="41.075167" lon="-3.715333">
        <ele>1763.0</ele>
        <time>2018-07-21T12:29:13Z</time>
      </trkpt>
      <trkpt lat="41.075183" lon="-3.715200">
        <ele>1762.0</ele>
        <time>2018-07-21T12:29:14Z</time>
      </trkpt>
      <trkpt lat="41.075200" lon="-3.715033">
        <ele>1761.0</ele>
        <time>2018-07-21T12:29:15Z</time>
      </trkpt>
      <trkpt lat="41.075217" lon="-3.714867">
        <ele>1762.0</ele>
        <time>2018-07-21T12:29:16Z</time>
      </trkpt>
      <trkpt lat="41.075233" lon="-3.714717">
        <ele>1762.0</ele>
        <time>2018-07-21T12:29:17Z</time>
      </trkpt>
      <trkpt lat="41.075250" lon="-3.714550">
        <ele>1764.0</ele>
        <time>2018-07-21T12:29:18Z</time>
      </trkpt>
      <trkpt lat="41.075267" lon="-3.714400">
        <ele>1764.0</ele>
        <time>2018-07-21T12:29:19Z</time>
      </trkpt>
      <trkpt lat="41.075300" lon="-3.714250">
        <ele>1763.0</ele>
        <time>2018-07-21T12:29:20Z</time>
      </trkpt>
      <trkpt lat="41.075350" lon="-3.714100">
        <ele>1763.0</ele>
        <time>2018-07-21T12:29:21Z</time>
      </trkpt>
      <trkpt lat="41.075417" lon="-3.713950">
        <ele>1764.0</ele>
        <time>2018-07-21T12:29:22Z</time>
      </trkpt>
      <trkpt lat="41.075483" lon="-3.713817">
        <ele>1766.0</ele>
        <time>2018-07-21T12:29:23Z</time>
      </trkpt>
      <trkpt lat="41.075550" lon="-3.713700">
        <ele>1768.0</ele>
        <time>2018-07-21T12:29:24Z</time>
      </trkpt>
      <trkpt lat="41.075617" lon="-3.713600">
        <ele>1770.0</ele>
        <time>2018-07-21T12:29:25Z</time>
      </trkpt>
      <trkpt lat="41.075683" lon="-3.713500">
        <ele>1772.0</ele>
        <time>2018-07-21T12:29:26Z</time>
      </trkpt>
      <trkpt lat="41.075733" lon="-3.713400">
        <ele>1774.0</ele>
        <time>2018-07-21T12:29:27Z</time>
      </trkpt>
      <trkpt lat="41.075783" lon="-3.713283">
        <ele>1775.0</ele>
        <time>2018-07-21T12:29:28Z</time>
      </trkpt>
      <trkpt lat="41.075850" lon="-3.713150">
        <ele>1777.0</ele>
        <time>2018-07-21T12:29:29Z</time>
      </trkpt>
      <trkpt lat="41.075900" lon="-3.713017">
        <ele>1779.0</ele>
        <time>2018-07-21T12:29:30Z</time>
      </trkpt>
      <trkpt lat="41.075933" lon="-3.712883">
        <ele>1783.0</ele>
        <time>2018-07-21T12:29:31Z</time>
      </trkpt>
      <trkpt lat="41.075967" lon="-3.712750">
        <ele>1786.0</ele>
        <time>2018-07-21T12:29:32Z</time>
      </trkpt>
      <trkpt lat="41.075983" lon="-3.712617">
        <ele>1789.0</ele>
        <time>2018-07-21T12:29:33Z</time>
      </trkpt>
      <trkpt lat="41.076000" lon="-3.712500">
        <ele>1792.0</ele>
        <time>2018-07-21T12:29:34Z</time>
      </trkpt>
      <trkpt lat="41.076033" lon="-3.712400">
        <ele>1794.0</ele>
        <time>2018-07-21T12:29:35Z</time>
      </trkpt>
      <trkpt lat="41.076083" lon="-3.712300">
        <ele>1795.0</ele>
        <time>2018-07-21T12:29:36Z</time>
      </trkpt>
      <trkpt lat="41.076150" lon="-3.712250">
        <ele>1795.0</ele>
        <time>2018-07-21T12:29:37Z</time>
      </trkpt>
      <trkpt lat="41.076217" lon="-3.712250">
        <ele>1794.0</ele>
        <time>2018-07-21T12:29:38Z</time>
      </trkpt>
      <trkpt lat="41.076283" lon="-3.712300">
        <ele>1794.0</ele>
        <time>2018-07-21T12:29:39Z</time>
      </trkpt>
      <trkpt lat="41.076317" lon="-3.712400">
        <ele>1794.0</ele>
        <time>2018-07-21T12:29:40Z</time>
      </trkpt>
      <trkpt lat="41.076300" lon="-3.712517">
        <ele>1795.0</ele>
        <time>2018-07-21T12:29:41Z</time>
      </trkpt>
      <trkpt lat="41.076250" lon="-3.712617">
        <ele>1797.0</ele>
        <time>2018-07-21T12:29:42Z</time>
      </trkpt>
      <trkpt lat="41.076183" lon="-3.712683">
        <ele>1799.0</ele>
        <time>2018-07-21T12:29:43Z</time>
      </trkpt>
      <trkpt lat="41.076117" lon="-3.712733">
        <ele>1801.0</ele>
        <time>2018-07-21T12:29:44Z</time>
      </trkpt>
      <trkpt lat="41.076050" lon="-3.712800">
        <ele>1804.0</ele>
        <time>2018-07-21T12:29:45Z</time>
      </trkpt>
      <trkpt lat="41.075983" lon="-3.712867">
        <ele>1806.0</ele>
        <time>2018-07-21T12:29:46Z</time>
      </trkpt>
      <trkpt lat="41.075917" lon="-3.712917">
        <ele>1809.0</ele>
        <time>2018-07-21T12:29:47Z</time>
      </trkpt>
      <trkpt lat="41.075850" lon="-3.712950">
        <ele>1813.0</ele>
        <time>2018-07-21T12:29:48Z</time>
      </trkpt>
      <trkpt lat="41.075800" lon="-3.712983">
        <ele>1816.0</ele>
        <time>2018-07-21T12:29:49Z</time>
      </trkpt>
      <trkpt lat="41.075750" lon="-3.713000">
        <ele>1818.0</ele>
        <time>2018-07-21T12:29:50Z</time>
      </trkpt>
      <trkpt lat="41.075683" lon="-3.713033">
        <ele>1820.0</ele>
        <time>2018-07-21T12:29:51Z</time>
      </trkpt>
      <trkpt lat="41.075617" lon="-3.713067">
        <ele>1821.0</ele>
        <time>2018-07-21T12:29:52Z</time>
      </trkpt>
      <trkpt lat="41.075550" lon="-3.713100">
        <ele>1823.0</ele>
        <time>2018-07-21T12:29:53Z</time>
      </trkpt>
      <trkpt lat="41.075483" lon="-3.713133">
        <ele>1826.0</ele>
        <time>2018-07-21T12:29:54Z</time>
      </trkpt>
      <trkpt lat="41.075433" lon="-3.713183">
        <ele>1830.0</ele>
        <time>2018-07-21T12:29:55Z</time>
      </trkpt>
      <trkpt lat="41.075383" lon="-3.713217">
        <ele>1834.0</ele>
        <time>2018-07-21T12:29:56Z</time>
      </trkpt>
      <trkpt lat="41.075333" lon="-3.713233">
        <ele>1838.0</ele>
        <time>2018-07-21T12:29:57Z</time>
      </trkpt>
      <trkpt lat="41.075300" lon="-3.713250">
        <ele>1841.0</ele>
        <time>2018-07-21T12:29:58Z</time>
      </trkpt>
      <trkpt lat="41.075300" lon="-3.713283">
        <ele>1843.0</ele>
        <time>2018-07-21T12:29:59Z</time>
      </trkpt>
      <trkpt lat="41.075317" lon="-3.713350">
        <ele>1844.0</ele>
        <time>2018-07-21T12:30:00Z</time>
      </trkpt>
      <trkpt lat="41.075367" lon="-3.713400">
        <ele>1845.0</ele>
        <time>2018-07-21T12:30:01Z</time>
      </trkpt>
      <trkpt lat="41.075433" lon="-3.713417">
        <ele>1847.0</ele>
        <time>2018-07-21T12:30:02Z</time>
      </trkpt>
      <trkpt lat="41.075500" lon="-3.713383">
        <ele>1849.0</ele>
        <time>2018-07-21T12:30:03Z</time>
      </trkpt>
      <trkpt lat="41.075583" lon="-3.713317">
        <ele>1851.0</ele>
        <time>2018-07-21T12:30:04Z</time>
      </trkpt>
      <trkpt lat="41.075667" lon="-3.713200">
        <ele>1853.0</ele>
        <time>2018-07-21T12:30:05Z</time>
      </trkpt>
      <trkpt lat="41.075750" lon="-3.713083">
        <ele>1856.0</ele>
        <time>2018-07-21T12:30:06Z</time>
      </trkpt>
      <trkpt lat="41.075800" lon="-3.712950">
        <ele>1860.0</ele>
        <time>2018-07-21T12:30:07Z</time>
      </trkpt>
      <trkpt lat="41.075817" lon="-3.712783">
        <ele>1863.0</ele>
        <time>2018-07-21T12:30:08Z</time>
      </trkpt>
      <trkpt lat="41.075833" lon="-3.712633">
        <ele>1867.0</ele>
        <time>2018-07-21T12:30:09Z</time>
      </trkpt>
      <trkpt lat="41.075850" lon="-3.712500">
        <ele>1870.0</ele>
        <time>2018-07-21T12:30:10Z</time>
      </trkpt>
      <trkpt lat="41.075900" lon="-3.712417">
        <ele>1873.0</ele>
        <time>2018-07-21T12:30:11Z</time>
      </trkpt>
      <trkpt lat="41.075967" lon="-3.712350">
        <ele>1874.0</ele>
        <time>2018-07-21T12:30:12Z</time>
      </trkpt>
      <trkpt lat="41.076033" lon="-3.712300">
        <ele>1876.0</ele>
        <time>2018-07-21T12:30:13Z</time>
      </trkpt>
      <trkpt lat="41.076117" lon="-3.712300">
        <ele>1879.0</ele>
        <time>2018-07-21T12:30:14Z</time>
      </trkpt>
      <trkpt lat="41.076167" lon="-3.712333">
        <ele>1882.0</ele>
        <time>2018-07-21T12:30:15Z</time>
      </trkpt>
      <trkpt lat="41.076183" lon="-3.712367">
        <ele>1885.0</ele>
        <time>2018-07-21T12:30:16Z</time>
      </trkpt>
      <trkpt lat="41.076200" lon="-3.712400">
        <ele>1887.0</ele>
        <time>2018-07-21T12:30:17Z</time>
      </trkpt>
      <trkpt lat="41.076217" lon="-3.712467">
        <ele>1888.0</ele>
        <time>2018-07-21T12:30:18Z</time>
      </trkpt>
      <trkpt lat="41.076217" lon="-3.712533">
        <ele>1889.0</ele>
        <time>2018-07-21T12:30:19Z</time>
      </trkpt>
      <trkpt lat="41.076183" lon="-3.712617">
        <ele>1889.0</ele>
        <time>2018-07-21T12:30:20Z</time>
      </trkpt>
      <trkpt lat="41.076133" lon="-3.712683">
        <ele>1890.0</ele>
        <time>2018-07-21T12:30:21Z</time>
      </trkpt>
      <trkpt lat="41.076050" lon="-3.712750">
        <ele>1892.0</ele>
        <time>2018-07-21T12:30:22Z</time>
      </trkpt>
      <trkpt lat="41.075967" lon="-3.712783">
        <ele>1894.0</ele>
        <time>2018-07-21T12:30:23Z</time>
      </trkpt>
      <trkpt lat="41.075867" lon="-3.712783">
        <ele>1897.0</ele>
        <time>2018-07-21T12:30:24Z</time>
      </trkpt>
      <trkpt lat="41.075767" lon="-3.712767">
        <ele>1900.0</ele>
        <time>2018-07-21T12:30:25Z</time>
      </trkpt>
      <trkpt lat="41.075667" lon="-3.712733">
        <ele>1902.0</ele>
        <time>2018-07-21T12:30:26Z</time>
      </trkpt>
      <trkpt lat="41.075567" lon="-3.712717">
        <ele>1904.0</ele>
        <time>2018-07-21T12:30:27Z</time>
      </trkpt>
      <trkpt lat="41.075467" lon="-3.712700">
        <ele>1906.0</ele>
        <time>2018-07-21T12:30:28Z</time>
      </trkpt>
      <trkpt lat="41.075383" lon="-3.712683">
        <ele>1908.0</ele>
        <time>2018-07-21T12:30:29Z</time>
      </trkpt>
      <trkpt lat="41.075283" lon="-3.712667">
        <ele>1909.0</ele>
        <time>2018-07-21T12:30:30Z</time>
      </trkpt>
      <trkpt lat="41.075200" lon="-3.712700">
        <ele>1911.0</ele>
        <time>2018-07-21T12:30:31Z</time>
      </trkpt>
      <trkpt lat="41.075133" lon="-3.712750">
        <ele>1913.0</ele>
        <time>2018-07-21T12:30:32Z</time>
      </trkpt>
      <trkpt lat="41.075067" lon="-3.712817">
        <ele>1915.0</ele>
        <time>2018-07-21T12:30:33Z</time>
      </trkpt>
      <trkpt lat="41.075033" lon="-3.712883">
        <ele>1917.0</ele>
        <time>2018-07-21T12:30:34Z</time>
      </trkpt>
      <trkpt lat="41.074983" lon="-3.712950">
        <ele>1920.0</ele>
        <time>2018-07-21T12:30:35Z</time>
      </trkpt>
      <trkpt lat="41.074933" lon="-3.713033">
        <ele>1922.0</ele>
        <time>2018-07-21T12:30:36Z</time>
      </trkpt>
      <trkpt lat="41.074867" lon="-3.713100">
        <ele>1925.0</ele>
        <time>2018-07-21T12:30:37Z</time>
      </trkpt>
      <trkpt lat="41.074817" lon="-3.713150">
        <ele>1928.0</ele>
        <time>2018-07-21T12:30:38Z</time>
      </trkpt>
      <trkpt lat="41.074783" lon="-3.713217">
        <ele>1931.0</ele>
        <time>2018-07-21T12:30:39Z</time>
      </trkpt>
      <trkpt lat="41.074750" lon="-3.713283">
        <ele>1932.0</ele>
        <time>2018-07-21T12:30:40Z</time>
      </trkpt>
      <trkpt lat="41.074733" lon="-3.713333">
        <ele>1930.0</ele>
        <time>2018-07-21T12:30:41Z</time>
      </trkpt>
      <trkpt lat="41.074700" lon="-3.713383">
        <ele>1928.0</ele>
        <time>2018-07-21T12:30:42Z</time>
      </trkpt>
      <trkpt lat="41.074667" lon="-3.713450">
        <ele>1926.0</ele>
        <time>2018-07-21T12:30:43Z</time>
      </trkpt>
      <trkpt lat="41.074633" lon="-3.713533">
        <ele>1924.0</ele>
        <time>2018-07-21T12:30:44Z</time>
      </trkpt>
      <trkpt lat="41.074583" lon="-3.713617">
        <ele>1923.0</ele>
        <time>2018-07-21T12:30:45Z</time>
      </trkpt>
      <trkpt lat="41.074550" lon="-3.713700">
        <ele>1923.0</ele>
        <time>2018-07-21T12:30:46Z</time>
      </trkpt>
      <trkpt lat="41.074517" lon="-3.713767">
        <ele>1924.0</ele>
        <time>2018-07-21T12:30:47Z</time>
      </trkpt>
      <trkpt lat="41.074483" lon="-3.713833">
        <ele>1924.0</ele>
        <time>2018-07-21T12:30:48Z</time>
      </trkpt>
      <trkpt lat="41.074450" lon="-3.713883">
        <ele>1924.0</ele>
        <time>2018-07-21T12:30:49Z</time>
      </trkpt>
      <trkpt lat="41.074417" lon="-3.713950">
        <ele>1924.0</ele>
        <time>2018-07-21T12:30:50Z</time>
      </trkpt>
      <trkpt lat="41.074383" lon="-3.714000">
        <ele>1924.0</ele>
        <time>2018-07-21T12:30:51Z</time>
      </trkpt>
      <trkpt lat="41.074367" lon="-3.714067">
        <ele>1924.0</ele>
        <time>2018-07-21T12:30:52Z</time>
      </trkpt>
      <trkpt lat="41.074333" lon="-3.714117">
        <ele>1924.0</ele>
        <time>2018-07-21T12:30:53Z</time>
      </trkpt>
      <trkpt lat="41.074317" lon="-3.714183">
        <ele>1923.0</ele>
        <time>2018-07-21T12:30:54Z</time>
      </trkpt>
      <trkpt lat="41.074283" lon="-3.714233">
        <ele>1923.0</ele>
        <time>2018-07-21T12:30:55Z</time>
      </trkpt>
      <trkpt lat="41.074250" lon="-3.714300">
        <ele>1922.0</ele>
        <time>2018-07-21T12:30:56Z</time>
      </trkpt>
      <trkpt lat="41.074217" lon="-3.714367">
        <ele>1921.0</ele>
        <time>2018-07-21T12:30:57Z</time>
      </trkpt>
      <trkpt lat="41.074200" lon="-3.714450">
        <ele>1921.0</ele>
        <time>2018-07-21T12:30:58Z</time>
      </trkpt>
      <trkpt lat="41.074167" lon="-3.714517">
        <ele>1920.0</ele>
        <time>2018-07-21T12:30:59Z</time>
      </trkpt>
      <trkpt lat="41.074133" lon="-3.714600">
        <ele>1921.0</ele>
        <time>2018-07-21T12:31:00Z</time>
      </trkpt>
      <trkpt lat="41.074083" lon="-3.714650">
        <ele>1923.0</ele>
        <time>2018-07-21T12:31:01Z</time>
      </trkpt>
      <trkpt lat="41.074050" lon="-3.714700">
        <ele>1925.0</ele>
        <time>2018-07-21T12:31:02Z</time>
      </trkpt>
      <trkpt lat="41.074033" lon="-3.714750">
        <ele>1927.0</ele>
        <time>2018-07-21T12:31:03Z</time>
      </trkpt>
      <trkpt lat="41.074033" lon="-3.714800">
        <ele>1928.0</ele>
        <time>2018-07-21T12:31:04Z</time>
      </trkpt>
      <trkpt lat="41.074083" lon="-3.714833">
        <ele>1928.0</ele>
        <time>2018-07-21T12:31:05Z</time>
      </trkpt>
      <trkpt lat="41.074167" lon="-3.714833">
        <ele>1927.0</ele>
        <time>2018-07-21T12:31:06Z</time>
      </trkpt>
      <trkpt lat="41.074267" lon="-3.714800">
        <ele>1927.0</ele>
        <time>2018-07-21T12:31:07Z</time>
      </trkpt>
      <trkpt lat="41.074350" lon="-3.714733">
        <ele>1928.0</ele>
        <time>2018-07-21T12:31:08Z</time>
      </trkpt>
      <trkpt lat="41.074433" lon="-3.714617">
        <ele>1930.0</ele>
        <time>2018-07-21T12:31:09Z</time>
      </trkpt>
      <trkpt lat="41.074483" lon="-3.714450">
        <ele>1930.0</ele>
        <time>2018-07-21T12:31:10Z</time>
      </trkpt>
      <trkpt lat="41.074500" lon="-3.714267">
        <ele>1930.0</ele>
        <time>2018-07-21T12:31:11Z</time>
      </trkpt>
      <trkpt lat="41.074467" lon="-3.714083">
        <ele>1932.0</ele>
        <time>2018-07-21T12:31:12Z</time>
      </trkpt>
      <trkpt lat="41.074383" lon="-3.713933">
        <ele>1933.0</ele>
        <time>2018-07-21T12:31:13Z</time>
      </trkpt>
      <trkpt lat="41.074283" lon="-3.713817">
        <ele>1933.0</ele>
        <time>2018-07-21T12:31:14Z</time>
      </trkpt>
      <trkpt lat="41.074167" lon="-3.713783">
        <ele>1933.0</ele>
        <time>2018-07-21T12:31:15Z</time>
      </trkpt>
      <trkpt lat="41.074050" lon="-3.713800">
        <ele>1932.0</ele>
        <time>2018-07-21T12:31:16Z</time>
      </trkpt>
      <trkpt lat="41.073967" lon="-3.713867">
        <ele>1932.0</ele>
        <time>2018-07-21T12:31:17Z</time>
      </trkpt>
      <trkpt lat="41.073917" lon="-3.713950">
        <ele>1932.0</ele>
        <time>2018-07-21T12:31:18Z</time>
      </trkpt>
      <trkpt lat="41.073883" lon="-3.714033">
        <ele>1935.0</ele>
        <time>2018-07-21T12:31:19Z</time>
      </trkpt>
      <trkpt lat="41.073883" lon="-3.714100">
        <ele>1938.0</ele>
        <time>2018-07-21T12:31:20Z</time>
      </trkpt>
      <trkpt lat="41.073883" lon="-3.714150">
        <ele>1940.0</ele>
        <time>2018-07-21T12:31:21Z</time>
      </trkpt>
      <trkpt lat="41.073883" lon="-3.714200">
        <ele>1941.0</ele>
        <time>2018-07-21T12:31:22Z</time>
      </trkpt>
      <trkpt lat="41.073900" lon="-3.714250">
        <ele>1941.0</ele>
        <time>2018-07-21T12:31:23Z</time>
      </trkpt>
      <trkpt lat="41.073883" lon="-3.714317">
        <ele>1941.0</ele>
        <time>2018-07-21T12:31:24Z</time>
      </trkpt>
      <trkpt lat="41.073867" lon="-3.714383">
        <ele>1940.0</ele>
        <time>2018-07-21T12:31:25Z</time>
      </trkpt>
      <trkpt lat="41.073850" lon="-3.714450">
        <ele>1940.0</ele>
        <time>2018-07-21T12:31:26Z</time>
      </trkpt>
      <trkpt lat="41.073850" lon="-3.714517">
        <ele>1940.0</ele>
        <time>2018-07-21T12:31:27Z</time>
      </trkpt>
      <trkpt lat="41.073867" lon="-3.714583">
        <ele>1939.0</ele>
        <time>2018-07-21T12:31:28Z</time>
      </trkpt>
      <trkpt lat="41.073900" lon="-3.714633">
        <ele>1939.0</ele>
        <time>2018-07-21T12:31:29Z</time>
      </trkpt>
      <trkpt lat="41.073900" lon="-3.714667">
        <ele>1939.0</ele>
        <time>2018-07-21T12:31:30Z</time>
      </trkpt>
      <trkpt lat="41.073900" lon="-3.714717">
        <ele>1938.0</ele>
        <time>2018-07-21T12:31:31Z</time>
      </trkpt>
      <trkpt lat="41.073867" lon="-3.714750">
        <ele>1937.0</ele>
        <time>2018-07-21T12:31:32Z</time>
      </trkpt>
      <trkpt lat="41.073850" lon="-3.714783">
        <ele>1936.0</ele>
        <time>2018-07-21T12:31:33Z</time>
      </trkpt>
      <trkpt lat="41.073833" lon="-3.714833">
        <ele>1935.0</ele>
        <time>2018-07-21T12:31:34Z</time>
      </trkpt>
      <trkpt lat="41.073817" lon="-3.714883">
        <ele>1933.0</ele>
        <time>2018-07-21T12:31:35Z</time>
      </trkpt>
      <trkpt lat="41.073800" lon="-3.714917">
        <ele>1932.0</ele>
        <time>2018-07-21T12:31:36Z</time>
      </trkpt>
      <trkpt lat="41.073783" lon="-3.714967">
        <ele>1931.0</ele>
        <time>2018-07-21T12:31:37Z</time>
      </trkpt>
      <trkpt lat="41.073783" lon="-3.715033">
        <ele>1931.0</ele>
        <time>2018-07-21T12:31:38Z</time>
      </trkpt>
      <trkpt lat="41.073783" lon="-3.715100">
        <ele>1931.0</ele>
        <time>2018-07-21T12:31:39Z</time>
      </trkpt>
      <trkpt lat="41.073817" lon="-3.715150">
        <ele>1932.0</ele>
        <time>2018-07-21T12:31:40Z</time>
      </trkpt>
      <trkpt lat="41.073883" lon="-3.715200">
        <ele>1933.0</ele>
        <time>2018-07-21T12:31:41Z</time>
      </trkpt>
      <trkpt lat="41.073950" lon="-3.715200">
        <ele>1934.0</ele>
        <time>2018-07-21T12:31:42Z</time>
      </trkpt>
      <trkpt lat="41.074000" lon="-3.715200">
        <ele>1933.0</ele>
        <time>2018-07-21T12:31:43Z</time>
      </trkpt>
      <trkpt lat="41.074067" lon="-3.715183">
        <ele>1933.0</ele>
        <time>2018-07-21T12:31:44Z</time>
      </trkpt>
      <trkpt lat="41.074133" lon="-3.715183">
        <ele>1932.0</ele>
        <time>2018-07-21T12:31:45Z</time>
      </trkpt>
      <trkpt lat="41.074183" lon="-3.715200">
        <ele>1931.0</ele>
        <time>2018-07-21T12:31:46Z</time>
      </trkpt>
      <trkpt lat="41.074233" lon="-3.715233">
        <ele>1930.0</ele>
        <time>2018-07-21T12:31:47Z</time>
      </trkpt>
      <trkpt lat="41.074267" lon="-3.715283">
        <ele>1930.0</ele>
        <time>2018-07-21T12:31:48Z</time>
      </trkpt>
      <trkpt lat="41.074283" lon="-3.715350">
        <ele>1930.0</ele>
        <time>2018-07-21T12:31:49Z</time>
      </trkpt>
      <trkpt lat="41.074283" lon="-3.715417">
        <ele>1932.0</ele>
        <time>2018-07-21T12:31:50Z</time>
      </trkpt>
      <trkpt lat="41.074283" lon="-3.715483">
        <ele>1934.0</ele>
        <time>2018-07-21T12:31:51Z</time>
      </trkpt>
      <trkpt lat="41.074283" lon="-3.715550">
        <ele>1936.0</ele>
        <time>2018-07-21T12:31:52Z</time>
      </trkpt>
      <trkpt lat="41.074283" lon="-3.715617">
        <ele>1937.0</ele>
        <time>2018-07-21T12:31:53Z</time>
      </trkpt>
      <trkpt lat="41.074283" lon="-3.715683">
        <ele>1939.0</ele>
        <time>2018-07-21T12:31:54Z</time>
      </trkpt>
      <trkpt lat="41.074267" lon="-3.715750">
        <ele>1940.0</ele>
        <time>2018-07-21T12:31:55Z</time>
      </trkpt>
      <trkpt lat="41.074250" lon="-3.715817">
        <ele>1942.0</ele>
        <time>2018-07-21T12:31:56Z</time>
      </trkpt>
      <trkpt lat="41.074233" lon="-3.715883">
        <ele>1944.0</ele>
        <time>2018-07-21T12:31:57Z</time>
      </trkpt>
      <trkpt lat="41.074183" lon="-3.715950">
        <ele>1949.0</ele>
        <time>2018-07-21T12:31:58Z</time>
      </trkpt>
      <trkpt lat="41.074150" lon="-3.715983">
        <ele>1954.0</ele>
        <time>2018-07-21T12:31:59Z</time>
      </trkpt>
      <trkpt lat="41.074117" lon="-3.716017">
        <ele>1957.0</ele>
        <time>2018-07-21T12:32:00Z</time>
      </trkpt>
      <trkpt lat="41.074083" lon="-3.716050">
        <ele>1959.0</ele>
        <time>2018-07-21T12:32:01Z</time>
      </trkpt>
      <trkpt lat="41.074067" lon="-3.716083">
        <ele>1960.0</ele>
        <time>2018-07-21T12:32:02Z</time>
      </trkpt>
      <trkpt lat="41.074100" lon="-3.716133">
        <ele>1959.0</ele>
        <time>2018-07-21T12:32:03Z</time>
      </trkpt>
      <trkpt lat="41.074150" lon="-3.716183">
        <ele>1959.0</ele>
        <time>2018-07-21T12:32:04Z</time>
      </trkpt>
      <trkpt lat="41.074233" lon="-3.716167">
        <ele>1958.0</ele>
        <time>2018-07-21T12:32:05Z</time>
      </trkpt>
      <trkpt lat="41.074317" lon="-3.716117">
        <ele>1958.0</ele>
        <time>2018-07-21T12:32:06Z</time>
      </trkpt>
      <trkpt lat="41.074417" lon="-3.716033">
        <ele>1959.0</ele>
        <time>2018-07-21T12:32:07Z</time>
      </trkpt>
      <trkpt lat="41.074517" lon="-3.715917">
        <ele>1961.0</ele>
        <time>2018-07-21T12:32:08Z</time>
      </trkpt>
      <trkpt lat="41.074600" lon="-3.715783">
        <ele>1963.0</ele>
        <time>2018-07-21T12:32:09Z</time>
      </trkpt>
      <trkpt lat="41.074633" lon="-3.715650">
        <ele>1964.0</ele>
        <time>2018-07-21T12:32:10Z</time>
      </trkpt>
      <trkpt lat="41.074650" lon="-3.715500">
        <ele>1964.0</ele>
        <time>2018-07-21T12:32:11Z</time>
      </trkpt>
      <trkpt lat="41.074667" lon="-3.715333">
        <ele>1962.0</ele>
        <time>2018-07-21T12:32:12Z</time>
      </trkpt>
      <trkpt lat="41.074650" lon="-3.715133">
        <ele>1960.0</ele>
        <time>2018-07-21T12:32:13Z</time>
      </trkpt>
      <trkpt lat="41.074617" lon="-3.714933">
        <ele>1960.0</ele>
        <time>2018-07-21T12:32:14Z</time>
      </trkpt>
      <trkpt lat="41.074550" lon="-3.714783">
        <ele>1962.0</ele>
        <time>2018-07-21T12:32:15Z</time>
      </trkpt>
      <trkpt lat="41.074450" lon="-3.714667">
        <ele>1964.0</ele>
        <time>2018-07-21T12:32:16Z</time>
      </trkpt>
      <trkpt lat="41.074350" lon="-3.714600">
        <ele>1964.0</ele>
        <time>2018-07-21T12:32:17Z</time>
      </trkpt>
      <trkpt lat="41.074233" lon="-3.714550">
        <ele>1963.0</ele>
        <time>2018-07-21T12:32:18Z</time>
      </trkpt>
      <trkpt lat="41.074133" lon="-3.714517">
        <ele>1963.0</ele>
        <time>2018-07-21T12:32:19Z</time>
      </trkpt>
      <trkpt lat="41.074017" lon="-3.714500">
        <ele>1964.0</ele>
        <time>2018-07-21T12:32:20Z</time>
      </trkpt>
      <trkpt lat="41.073917" lon="-3.714533">
        <ele>1966.0</ele>
        <time>2018-07-21T12:32:21Z</time>
      </trkpt>
      <trkpt lat="41.073833" lon="-3.714583">
        <ele>1969.0</ele>
        <time>2018-07-21T12:32:22Z</time>
      </trkpt>
      <trkpt lat="41.073783" lon="-3.714617">
        <ele>1973.0</ele>
        <time>2018-07-21T12:32:23Z</time>
      </trkpt>
      <trkpt lat="41.073767" lon="-3.714633">
        <ele>1977.0</ele>
        <time>2018-07-21T12:32:24Z</time>
      </trkpt>
      <trkpt lat="41.073750" lon="-3.714633">
        <ele>1979.0</ele>
        <time>2018-07-21T12:32:25Z</time>
      </trkpt>
      <trkpt lat="41.073717" lon="-3.714633">
        <ele>1980.0</ele>
        <time>2018-07-21T12:32:26Z</time>
      </trkpt>
      <trkpt lat="41.073683" lon="-3.714667">
        <ele>1978.0</ele>
        <time>2018-07-21T12:32:27Z</time>
      </trkpt>
      <trkpt lat="41.073633" lon="-3.714717">
        <ele>1977.0</ele>
        <time>2018-07-21T12:32:28Z</time>
      </trkpt>
      <trkpt lat="41.073600" lon="-3.714783">
        <ele>1976.0</ele>
        <time>2018-07-21T12:32:29Z</time>
      </trkpt>
      <trkpt lat="41.073583" lon="-3.714867">
        <ele>1977.0</ele>
        <time>2018-07-21T12:32:30Z</time>
      </trkpt>
      <trkpt lat="41.073550" lon="-3.714917">
        <ele>1977.0</ele>
        <time>2018-07-21T12:32:31Z</time>
      </trkpt>
      <trkpt lat="41.073533" lon="-3.714983">
        <ele>1978.0</ele>
        <time>2018-07-21T12:32:32Z</time>
      </trkpt>
      <trkpt lat="41.073500" lon="-3.715033">
        <ele>1977.0</ele>
        <time>2018-07-21T12:32:33Z</time>
      </trkpt>
      <trkpt lat="41.073483" lon="-3.715100">
        <ele>1976.0</ele>
        <time>2018-07-21T12:32:34Z</time>
      </trkpt>
      <trkpt lat="41.073467" lon="-3.715183">
        <ele>1975.0</ele>
        <time>2018-07-21T12:32:35Z</time>
      </trkpt>
      <trkpt lat="41.073433" lon="-3.715267">
        <ele>1976.0</ele>
        <time>2018-07-21T12:32:36Z</time>
      </trkpt>
      <trkpt lat="41.073417" lon="-3.715350">
        <ele>1979.0</ele>
        <time>2018-07-21T12:32:37Z</time>
      </trkpt>
      <trkpt lat="41.073383" lon="-3.715433">
        <ele>1981.0</ele>
        <time>2018-07-21T12:32:38Z</time>
      </trkpt>
      <trkpt lat="41.073350" lon="-3.715483">
        <ele>1983.0</ele>
        <time>2018-07-21T12:32:39Z</time>
      </trkpt>
      <trkpt lat="41.073333" lon="-3.715550">
        <ele>1984.0</ele>
        <time>2018-07-21T12:32:40Z</time>
      </trkpt>
      <trkpt lat="41.073300" lon="-3.715617">
        <ele>1984.0</ele>
        <time>2018-07-21T12:32:41Z</time>
      </trkpt>
      <trkpt lat="41.073250" lon="-3.715700">
        <ele>1983.0</ele>
        <time>2018-07-21T12:32:42Z</time>
      </trkpt>
      <trkpt lat="41.073200" lon="-3.715767">
        <ele>1984.0</ele>
        <time>2018-07-21T12:32:43Z</time>
      </trkpt>
      <trkpt lat="41.073167" lon="-3.715833">
        <ele>1984.0</ele>
        <time>2018-07-21T12:32:44Z</time>
      </trkpt>
      <trkpt lat="41.073167" lon="-3.715883">
        <ele>1984.0</ele>
        <time>2018-07-21T12:32:45Z</time>
      </trkpt>
      <trkpt lat="41.073200" lon="-3.715933">
        <ele>1983.0</ele>
        <time>2018-07-21T12:32:46Z</time>
      </trkpt>
      <trkpt lat="41.073250" lon="-3.715967">
        <ele>1982.0</ele>
        <time>2018-07-21T12:32:47Z</time>
      </trkpt>
      <trkpt lat="41.073317" lon="-3.715950">
        <ele>1981.0</ele>
        <time>2018-07-21T12:32:48Z</time>
      </trkpt>
      <trkpt lat="41.073400" lon="-3.715900">
        <ele>1982.0</ele>
        <time>2018-07-21T12:32:49Z</time>
      </trkpt>
      <trkpt lat="41.073467" lon="-3.715833">
        <ele>1983.0</ele>
        <time>2018-07-21T12:32:50Z</time>
      </trkpt>
      <trkpt lat="41.073533" lon="-3.715733">
        <ele>1983.0</ele>
        <time>2018-07-21T12:32:51Z</time>
      </trkpt>
      <trkpt lat="41.073583" lon="-3.715617">
        <ele>1984.0</ele>
        <time>2018-07-21T12:32:52Z</time>
      </trkpt>
      <trkpt lat="41.073600" lon="-3.715467">
        <ele>1984.0</ele>
        <time>2018-07-21T12:32:53Z</time>
      </trkpt>
      <trkpt lat="41.073600" lon="-3.715300">
        <ele>1983.0</ele>
        <time>2018-07-21T12:32:54Z</time>
      </trkpt>
      <trkpt lat="41.073567" lon="-3.715117">
        <ele>1983.0</ele>
        <time>2018-07-21T12:32:55Z</time>
      </trkpt>
      <trkpt lat="41.073517" lon="-3.714933">
        <ele>1984.0</ele>
        <time>2018-07-21T12:32:56Z</time>
      </trkpt>
      <trkpt lat="41.073433" lon="-3.714783">
        <ele>1986.0</ele>
        <time>2018-07-21T12:32:57Z</time>
      </trkpt>
      <trkpt lat="41.073333" lon="-3.714683">
        <ele>1988.0</ele>
        <time>2018-07-21T12:32:58Z</time>
      </trkpt>
      <trkpt lat="41.073217" lon="-3.714617">
        <ele>1988.0</ele>
        <time>2018-07-21T12:32:59Z</time>
      </trkpt>
      <trkpt lat="41.073117" lon="-3.714600">
        <ele>1987.0</ele>
        <time>2018-07-21T12:33:00Z</time>
      </trkpt>
      <trkpt lat="41.073000" lon="-3.714600">
        <ele>1985.0</ele>
        <time>2018-07-21T12:33:01Z</time>
      </trkpt>
      <trkpt lat="41.072900" lon="-3.714633">
        <ele>1983.0</ele>
        <time>2018-07-21T12:33:02Z</time>
      </trkpt>
      <trkpt lat="41.072817" lon="-3.714683">
        <ele>1982.0</ele>
        <time>2018-07-21T12:33:03Z</time>
      </trkpt>
      <trkpt lat="41.072750" lon="-3.714733">
        <ele>1983.0</ele>
        <time>2018-07-21T12:33:04Z</time>
      </trkpt>
      <trkpt lat="41.072717" lon="-3.714800">
        <ele>1983.0</ele>
        <time>2018-07-21T12:33:05Z</time>
      </trkpt>
      <trkpt lat="41.072667" lon="-3.714850">
        <ele>1981.0</ele>
        <time>2018-07-21T12:33:06Z</time>
      </trkpt>
      <trkpt lat="41.072650" lon="-3.714900">
        <ele>1980.0</ele>
        <time>2018-07-21T12:33:07Z</time>
      </trkpt>
      <trkpt lat="41.072633" lon="-3.714967">
        <ele>1978.0</ele>
        <time>2018-07-21T12:33:08Z</time>
      </trkpt>
      <trkpt lat="41.072617" lon="-3.715050">
        <ele>1976.0</ele>
        <time>2018-07-21T12:33:09Z</time>
      </trkpt>
      <trkpt lat="41.072617" lon="-3.715117">
        <ele>1974.0</ele>
        <time>2018-07-21T12:33:10Z</time>
      </trkpt>
      <trkpt lat="41.072633" lon="-3.715167">
        <ele>1973.0</ele>
        <time>2018-07-21T12:33:11Z</time>
      </trkpt>
      <trkpt lat="41.072650" lon="-3.715233">
        <ele>1971.0</ele>
        <time>2018-07-21T12:33:12Z</time>
      </trkpt>
      <trkpt lat="41.072683" lon="-3.715267">
        <ele>1970.0</ele>
        <time>2018-07-21T12:33:13Z</time>
      </trkpt>
      <trkpt lat="41.072717" lon="-3.715317">
        <ele>1968.0</ele>
        <time>2018-07-21T12:33:14Z</time>
      </trkpt>
      <trkpt lat="41.072733" lon="-3.715367">
        <ele>1966.0</ele>
        <time>2018-07-21T12:33:15Z</time>
      </trkpt>
      <trkpt lat="41.072750" lon="-3.715433">
        <ele>1964.0</ele>
        <time>2018-07-21T12:33:16Z</time>
      </trkpt>
      <trkpt lat="41.072783" lon="-3.715500">
        <ele>1963.0</ele>
        <time>2018-07-21T12:33:17Z</time>
      </trkpt>
      <trkpt lat="41.072800" lon="-3.715567">
        <ele>1962.0</ele>
        <time>2018-07-21T12:33:18Z</time>
      </trkpt>
      <trkpt lat="41.072800" lon="-3.715633">
        <ele>1962.0</ele>
        <time>2018-07-21T12:33:19Z</time>
      </trkpt>
      <trkpt lat="41.072783" lon="-3.715717">
        <ele>1961.0</ele>
        <time>2018-07-21T12:33:20Z</time>
      </trkpt>
      <trkpt lat="41.072750" lon="-3.715783">
        <ele>1961.0</ele>
        <time>2018-07-21T12:33:21Z</time>
      </trkpt>
      <trkpt lat="41.072733" lon="-3.715833">
        <ele>1961.0</ele>
        <time>2018-07-21T12:33:22Z</time>
      </trkpt>
      <trkpt lat="41.072717" lon="-3.715883">
        <ele>1961.0</ele>
        <time>2018-07-21T12:33:23Z</time>
      </trkpt>
      <trkpt lat="41.072700" lon="-3.715933">
        <ele>1961.0</ele>
        <time>2018-07-21T12:33:24Z</time>
      </trkpt>
      <trkpt lat="41.072667" lon="-3.716000">
        <ele>1959.0</ele>
        <time>2018-07-21T12:33:25Z</time>
      </trkpt>
      <trkpt lat="41.072617" lon="-3.716083">
        <ele>1958.0</ele>
        <time>2018-07-21T12:33:26Z</time>
      </trkpt>
      <trkpt lat="41.072583" lon="-3.716150">
        <ele>1958.0</ele>
        <time>2018-07-21T12:33:27Z</time>
      </trkpt>
      <trkpt lat="41.072533" lon="-3.716217">
        <ele>1958.0</ele>
        <time>2018-07-21T12:33:28Z</time>
      </trkpt>
      <trkpt lat="41.072483" lon="-3.716283">
        <ele>1959.0</ele>
        <time>2018-07-21T12:33:29Z</time>
      </trkpt>
      <trkpt lat="41.072433" lon="-3.716350">
        <ele>1959.0</ele>
        <time>2018-07-21T12:33:30Z</time>
      </trkpt>
      <trkpt lat="41.072383" lon="-3.716400">
        <ele>1959.0</ele>
        <time>2018-07-21T12:33:31Z</time>
      </trkpt>
      <trkpt lat="41.072350" lon="-3.716467">
        <ele>1958.0</ele>
        <time>2018-07-21T12:33:32Z</time>
      </trkpt>
      <trkpt lat="41.072300" lon="-3.716533">
        <ele>1957.0</ele>
        <time>2018-07-21T12:33:33Z</time>
      </trkpt>
      <trkpt lat="41.072267" lon="-3.716583">
        <ele>1956.0</ele>
        <time>2018-07-21T12:33:34Z</time>
      </trkpt>
      <trkpt lat="41.072217" lon="-3.716650">
        <ele>1954.0</ele>
        <time>2018-07-21T12:33:35Z</time>
      </trkpt>
      <trkpt lat="41.072183" lon="-3.716717">
        <ele>1952.0</ele>
        <time>2018-07-21T12:33:36Z</time>
      </trkpt>
      <trkpt lat="41.072150" lon="-3.716783">
        <ele>1949.0</ele>
        <time>2018-07-21T12:33:37Z</time>
      </trkpt>
      <trkpt lat="41.072117" lon="-3.716867">
        <ele>1947.0</ele>
        <time>2018-07-21T12:33:38Z</time>
      </trkpt>
      <trkpt lat="41.072083" lon="-3.716950">
        <ele>1945.0</ele>
        <time>2018-07-21T12:33:39Z</time>
      </trkpt>
      <trkpt lat="41.072050" lon="-3.717033">
        <ele>1945.0</ele>
        <time>2018-07-21T12:33:40Z</time>
      </trkpt>
      <trkpt lat="41.072000" lon="-3.717117">
        <ele>1944.0</ele>
        <time>2018-07-21T12:33:41Z</time>
      </trkpt>
      <trkpt lat="41.071967" lon="-3.717183">
        <ele>1943.0</ele>
        <time>2018-07-21T12:33:42Z</time>
      </trkpt>
      <trkpt lat="41.071933" lon="-3.717250">
        <ele>1941.0</ele>
        <time>2018-07-21T12:33:43Z</time>
      </trkpt>
      <trkpt lat="41.071883" lon="-3.717317">
        <ele>1940.0</ele>
        <time>2018-07-21T12:33:44Z</time>
      </trkpt>
      <trkpt lat="41.071850" lon="-3.717400">
        <ele>1939.0</ele>
        <time>2018-07-21T12:33:45Z</time>
      </trkpt>
      <trkpt lat="41.071817" lon="-3.717467">
        <ele>1939.0</ele>
        <time>2018-07-21T12:33:46Z</time>
      </trkpt>
      <trkpt lat="41.071783" lon="-3.717550">
        <ele>1938.0</ele>
        <time>2018-07-21T12:33:47Z</time>
      </trkpt>
      <trkpt lat="41.071733" lon="-3.717617">
        <ele>1937.0</ele>
        <time>2018-07-21T12:33:48Z</time>
      </trkpt>
      <trkpt lat="41.071700" lon="-3.717700">
        <ele>1936.0</ele>
        <time>2018-07-21T12:33:49Z</time>
      </trkpt>
      <trkpt lat="41.071633" lon="-3.717767">
        <ele>1934.0</ele>
        <time>2018-07-21T12:33:50Z</time>
      </trkpt>
      <trkpt lat="41.071583" lon="-3.717850">
        <ele>1933.0</ele>
        <time>2018-07-21T12:33:51Z</time>
      </trkpt>
      <trkpt lat="41.071517" lon="-3.717917">
        <ele>1932.0</ele>
        <time>2018-07-21T12:33:52Z</time>
      </trkpt>
      <trkpt lat="41.071467" lon="-3.718000">
        <ele>1931.0</ele>
        <time>2018-07-21T12:33:53Z</time>
      </trkpt>
      <trkpt lat="41.071417" lon="-3.718067">
        <ele>1930.0</ele>
        <time>2018-07-21T12:33:54Z</time>
      </trkpt>
      <trkpt lat="41.071367" lon="-3.718133">
        <ele>1929.0</ele>
        <time>2018-07-21T12:33:55Z</time>
      </trkpt>
      <trkpt lat="41.071317" lon="-3.718200">
        <ele>1928.0</ele>
        <time>2018-07-21T12:33:56Z</time>
      </trkpt>
      <trkpt lat="41.071250" lon="-3.718283">
        <ele>1928.0</ele>
        <time>2018-07-21T12:33:57Z</time>
      </trkpt>
      <trkpt lat="41.071200" lon="-3.718350">
        <ele>1927.0</ele>
        <time>2018-07-21T12:33:58Z</time>
      </trkpt>
      <trkpt lat="41.071150" lon="-3.718417">
        <ele>1925.0</ele>
        <time>2018-07-21T12:33:59Z</time>
      </trkpt>
      <trkpt lat="41.071100" lon="-3.718500">
        <ele>1924.0</ele>
        <time>2018-07-21T12:34:00Z</time>
      </trkpt>
      <trkpt lat="41.071050" lon="-3.718567">
        <ele>1922.0</ele>
        <time>2018-07-21T12:34:01Z</time>
      </trkpt>
      <trkpt lat="41.070983" lon="-3.718650">
        <ele>1921.0</ele>
        <time>2018-07-21T12:34:02Z</time>
      </trkpt>
      <trkpt lat="41.070917" lon="-3.718733">
        <ele>1921.0</ele>
        <time>2018-07-21T12:34:03Z</time>
      </trkpt>
      <trkpt lat="41.070867" lon="-3.718800">
        <ele>1921.0</ele>
        <time>2018-07-21T12:34:04Z</time>
      </trkpt>
      <trkpt lat="41.070800" lon="-3.718850">
        <ele>1922.0</ele>
        <time>2018-07-21T12:34:05Z</time>
      </trkpt>
      <trkpt lat="41.070733" lon="-3.718917">
        <ele>1922.0</ele>
        <time>2018-07-21T12:34:06Z</time>
      </trkpt>
      <trkpt lat="41.070667" lon="-3.718967">
        <ele>1924.0</ele>
        <time>2018-07-21T12:34:07Z</time>
      </trkpt>
      <trkpt lat="41.070600" lon="-3.719033">
        <ele>1926.0</ele>
        <time>2018-07-21T12:34:08Z</time>
      </trkpt>
      <trkpt lat="41.070550" lon="-3.719083">
        <ele>1928.0</ele>
        <time>2018-07-21T12:34:09Z</time>
      </trkpt>
      <trkpt lat="41.070483" lon="-3.719150">
        <ele>1930.0</ele>
        <time>2018-07-21T12:34:10Z</time>
      </trkpt>
      <trkpt lat="41.070450" lon="-3.719183">
        <ele>1931.0</ele>
        <time>2018-07-21T12:34:11Z</time>
      </trkpt>
      <trkpt lat="41.070417" lon="-3.719233">
        <ele>1931.0</ele>
        <time>2018-07-21T12:34:12Z</time>
      </trkpt>
      <trkpt lat="41.070400" lon="-3.719283">
        <ele>1930.0</ele>
        <time>2018-07-21T12:34:13Z</time>
      </trkpt>
      <trkpt lat="41.070383" lon="-3.719350">
        <ele>1927.0</ele>
        <time>2018-07-21T12:34:14Z</time>
      </trkpt>
      <trkpt lat="41.070350" lon="-3.719433">
        <ele>1925.0</ele>
        <time>2018-07-21T12:34:15Z</time>
      </trkpt>
      <trkpt lat="41.070333" lon="-3.719500">
        <ele>1924.0</ele>
        <time>2018-07-21T12:34:16Z</time>
      </trkpt>
      <trkpt lat="41.070300" lon="-3.719567">
        <ele>1924.0</ele>
        <time>2018-07-21T12:34:17Z</time>
      </trkpt>
      <trkpt lat="41.070283" lon="-3.719633">
        <ele>1923.0</ele>
        <time>2018-07-21T12:34:18Z</time>
      </trkpt>
      <trkpt lat="41.070233" lon="-3.719717">
        <ele>1923.0</ele>
        <time>2018-07-21T12:34:19Z</time>
      </trkpt>
      <trkpt lat="41.070200" lon="-3.719833">
        <ele>1923.0</ele>
        <time>2018-07-21T12:34:20Z</time>
      </trkpt>
      <trkpt lat="41.070167" lon="-3.719933">
        <ele>1924.0</ele>
        <time>2018-07-21T12:34:21Z</time>
      </trkpt>
      <trkpt lat="41.070117" lon="-3.720050">
        <ele>1925.0</ele>
        <time>2018-07-21T12:34:22Z</time>
      </trkpt>
      <trkpt lat="41.070083" lon="-3.720150">
        <ele>1927.0</ele>
        <time>2018-07-21T12:34:23Z</time>
      </trkpt>
      <trkpt lat="41.070050" lon="-3.720250">
        <ele>1928.0</ele>
        <time>2018-07-21T12:34:24Z</time>
      </trkpt>
      <trkpt lat="41.070017" lon="-3.720333">
        <ele>1928.0</ele>
        <time>2018-07-21T12:34:25Z</time>
      </trkpt>
      <trkpt lat="41.069983" lon="-3.720433">
        <ele>1927.0</ele>
        <time>2018-07-21T12:34:26Z</time>
      </trkpt>
      <trkpt lat="41.069933" lon="-3.720500">
        <ele>1926.0</ele>
        <time>2018-07-21T12:34:27Z</time>
      </trkpt>
      <trkpt lat="41.069867" lon="-3.720567">
        <ele>1924.0</ele>
        <time>2018-07-21T12:34:28Z</time>
      </trkpt>
      <trkpt lat="41.069817" lon="-3.720633">
        <ele>1923.0</ele>
        <time>2018-07-21T12:34:29Z</time>
      </trkpt>
      <trkpt lat="41.069767" lon="-3.720683">
        <ele>1920.0</ele>
        <time>2018-07-21T12:34:30Z</time>
      </trkpt>
      <trkpt lat="41.069717" lon="-3.720767">
        <ele>1917.0</ele>
        <time>2018-07-21T12:34:31Z</time>
      </trkpt>
      <trkpt lat="41.069650" lon="-3.720833">
        <ele>1915.0</ele>
        <time>2018-07-21T12:34:32Z</time>
      </trkpt>
      <trkpt lat="41.069583" lon="-3.720917">
        <ele>1913.0</ele>
        <time>2018-07-21T12:34:33Z</time>
      </trkpt>
      <trkpt lat="41.069500" lon="-3.720983">
        <ele>1912.0</ele>
        <time>2018-07-21T12:34:34Z</time>
      </trkpt>
      <trkpt lat="41.069417" lon="-3.721067">
        <ele>1911.0</ele>
        <time>2018-07-21T12:34:35Z</time>
      </trkpt>
      <trkpt lat="41.069350" lon="-3.721133">
        <ele>1911.0</ele>
        <time>2018-07-21T12:34:36Z</time>
      </trkpt>
      <trkpt lat="41.069300" lon="-3.721217">
        <ele>1910.0</ele>
        <time>2018-07-21T12:34:37Z</time>
      </trkpt>
      <trkpt lat="41.069233" lon="-3.721300">
        <ele>1909.0</ele>
        <time>2018-07-21T12:34:38Z</time>
      </trkpt>
      <trkpt lat="41.069167" lon="-3.721367">
        <ele>1907.0</ele>
        <time>2018-07-21T12:34:39Z</time>
      </trkpt>
      <trkpt lat="41.069100" lon="-3.721467">
        <ele>1906.0</ele>
        <time>2018-07-21T12:34:40Z</time>
      </trkpt>
      <trkpt lat="41.069033" lon="-3.721550">
        <ele>1906.0</ele>
        <time>2018-07-21T12:34:41Z</time>
      </trkpt>
      <trkpt lat="41.068967" lon="-3.721633">
        <ele>1905.0</ele>
        <time>2018-07-21T12:34:42Z</time>
      </trkpt>
      <trkpt lat="41.068900" lon="-3.721717">
        <ele>1905.0</ele>
        <time>2018-07-21T12:34:43Z</time>
      </trkpt>
      <trkpt lat="41.068833" lon="-3.721783">
        <ele>1904.0</ele>
        <time>2018-07-21T12:34:44Z</time>
      </trkpt>
      <trkpt lat="41.068783" lon="-3.721867">
        <ele>1903.0</ele>
        <time>2018-07-21T12:34:45Z</time>
      </trkpt>
      <trkpt lat="41.068717" lon="-3.721950">
        <ele>1901.0</ele>
        <time>2018-07-21T12:34:46Z</time>
      </trkpt>
      <trkpt lat="41.068667" lon="-3.722033">
        <ele>1899.0</ele>
        <time>2018-07-21T12:34:47Z</time>
      </trkpt>
      <trkpt lat="41.068617" lon="-3.722133">
        <ele>1899.0</ele>
        <time>2018-07-21T12:34:48Z</time>
      </trkpt>
      <trkpt lat="41.068567" lon="-3.722233">
        <ele>1898.0</ele>
        <time>2018-07-21T12:34:49Z</time>
      </trkpt>
      <trkpt lat="41.068517" lon="-3.722317">
        <ele>1899.0</ele>
        <time>2018-07-21T12:34:50Z</time>
      </trkpt>
      <trkpt lat="41.068467" lon="-3.722400">
        <ele>1899.0</ele>
        <time>2018-07-21T12:34:51Z</time>
      </trkpt>
      <trkpt lat="41.068433" lon="-3.722483">
        <ele>1898.0</ele>
        <time>2018-07-21T12:34:52Z</time>
      </trkpt>
      <trkpt lat="41.068383" lon="-3.722567">
        <ele>1897.0</ele>
        <time>2018-07-21T12:34:53Z</time>
      </trkpt>
      <trkpt lat="41.068350" lon="-3.722650">
        <ele>1895.0</ele>
        <time>2018-07-21T12:34:54Z</time>
      </trkpt>
      <trkpt lat="41.068300" lon="-3.722750">
        <ele>1895.0</ele>
        <time>2018-07-21T12:34:55Z</time>
      </trkpt>
      <trkpt lat="41.068250" lon="-3.722850">
        <ele>1895.0</ele>
        <time>2018-07-21T12:34:56Z</time>
      </trkpt>
      <trkpt lat="41.068200" lon="-3.722950">
        <ele>1896.0</ele>
        <time>2018-07-21T12:34:57Z</time>
      </trkpt>
      <trkpt lat="41.068150" lon="-3.723050">
        <ele>1897.0</ele>
        <time>2018-07-21T12:34:58Z</time>
      </trkpt>
      <trkpt lat="41.068100" lon="-3.723133">
        <ele>1898.0</ele>
        <time>2018-07-21T12:34:59Z</time>
      </trkpt>
      <trkpt lat="41.068067" lon="-3.723217">
        <ele>1898.0</ele>
        <time>2018-07-21T12:35:00Z</time>
      </trkpt>
      <trkpt lat="41.068017" lon="-3.723317">
        <ele>1897.0</ele>
        <time>2018-07-21T12:35:01Z</time>
      </trkpt>
      <trkpt lat="41.067950" lon="-3.723417">
        <ele>1895.0</ele>
        <time>2018-07-21T12:35:02Z</time>
      </trkpt>
      <trkpt lat="41.067867" lon="-3.723500">
        <ele>1894.0</ele>
        <time>2018-07-21T12:35:03Z</time>
      </trkpt>
      <trkpt lat="41.067800" lon="-3.723583">
        <ele>1894.0</ele>
        <time>2018-07-21T12:35:04Z</time>
      </trkpt>
      <trkpt lat="41.067717" lon="-3.723667">
        <ele>1893.0</ele>
        <time>2018-07-21T12:35:05Z</time>
      </trkpt>
      <trkpt lat="41.067650" lon="-3.723750">
        <ele>1892.0</ele>
        <time>2018-07-21T12:35:06Z</time>
      </trkpt>
      <trkpt lat="41.067567" lon="-3.723833">
        <ele>1890.0</ele>
        <time>2018-07-21T12:35:07Z</time>
      </trkpt>
      <trkpt lat="41.067483" lon="-3.723917">
        <ele>1889.0</ele>
        <time>2018-07-21T12:35:08Z</time>
      </trkpt>
      <trkpt lat="41.067400" lon="-3.724000">
        <ele>1888.0</ele>
        <time>2018-07-21T12:35:09Z</time>
      </trkpt>
      <trkpt lat="41.067317" lon="-3.724083">
        <ele>1887.0</ele>
        <time>2018-07-21T12:35:10Z</time>
      </trkpt>
      <trkpt lat="41.067233" lon="-3.724167">
        <ele>1886.0</ele>
        <time>2018-07-21T12:35:11Z</time>
      </trkpt>
      <trkpt lat="41.067150" lon="-3.724250">
        <ele>1886.0</ele>
        <time>2018-07-21T12:35:12Z</time>
      </trkpt>
      <trkpt lat="41.067050" lon="-3.724350">
        <ele>1885.0</ele>
        <time>2018-07-21T12:35:13Z</time>
      </trkpt>
      <trkpt lat="41.066967" lon="-3.724433">
        <ele>1886.0</ele>
        <time>2018-07-21T12:35:14Z</time>
      </trkpt>
      <trkpt lat="41.066883" lon="-3.724517">
        <ele>1886.0</ele>
        <time>2018-07-21T12:35:15Z</time>
      </trkpt>
      <trkpt lat="41.066800" lon="-3.724583">
        <ele>1886.0</ele>
        <time>2018-07-21T12:35:16Z</time>
      </trkpt>
      <trkpt lat="41.066733" lon="-3.724667">
        <ele>1886.0</ele>
        <time>2018-07-21T12:35:17Z</time>
      </trkpt>
      <trkpt lat="41.066650" lon="-3.724750">
        <ele>1885.0</ele>
        <time>2018-07-21T12:35:18Z</time>
      </trkpt>
      <trkpt lat="41.066567" lon="-3.724817">
        <ele>1885.0</ele>
        <time>2018-07-21T12:35:19Z</time>
      </trkpt>
      <trkpt lat="41.066483" lon="-3.724900">
        <ele>1885.0</ele>
        <time>2018-07-21T12:35:20Z</time>
      </trkpt>
      <trkpt lat="41.066400" lon="-3.725000">
        <ele>1884.0</ele>
        <time>2018-07-21T12:35:21Z</time>
      </trkpt>
      <trkpt lat="41.066333" lon="-3.725100">
        <ele>1883.0</ele>
        <time>2018-07-21T12:35:22Z</time>
      </trkpt>
      <trkpt lat="41.066267" lon="-3.725200">
        <ele>1883.0</ele>
        <time>2018-07-21T12:35:23Z</time>
      </trkpt>
      <trkpt lat="41.066200" lon="-3.725283">
        <ele>1883.0</ele>
        <time>2018-07-21T12:35:24Z</time>
      </trkpt>
      <trkpt lat="41.066117" lon="-3.725367">
        <ele>1882.0</ele>
        <time>2018-07-21T12:35:25Z</time>
      </trkpt>
      <trkpt lat="41.066050" lon="-3.725450">
        <ele>1882.0</ele>
        <time>2018-07-21T12:35:26Z</time>
      </trkpt>
      <trkpt lat="41.065967" lon="-3.725550">
        <ele>1881.0</ele>
        <time>2018-07-21T12:35:27Z</time>
      </trkpt>
      <trkpt lat="41.065883" lon="-3.725650">
        <ele>1882.0</ele>
        <time>2018-07-21T12:35:28Z</time>
      </trkpt>
      <trkpt lat="41.065817" lon="-3.725733">
        <ele>1884.0</ele>
        <time>2018-07-21T12:35:29Z</time>
      </trkpt>
      <trkpt lat="41.065750" lon="-3.725800">
        <ele>1885.0</ele>
        <time>2018-07-21T12:35:30Z</time>
      </trkpt>
      <trkpt lat="41.065667" lon="-3.725867">
        <ele>1885.0</ele>
        <time>2018-07-21T12:35:31Z</time>
      </trkpt>
      <trkpt lat="41.065583" lon="-3.725933">
        <ele>1885.0</ele>
        <time>2018-07-21T12:35:32Z</time>
      </trkpt>
      <trkpt lat="41.065500" lon="-3.726000">
        <ele>1884.0</ele>
        <time>2018-07-21T12:35:33Z</time>
      </trkpt>
      <trkpt lat="41.065417" lon="-3.726083">
        <ele>1884.0</ele>
        <time>2018-07-21T12:35:34Z</time>
      </trkpt>
      <trkpt lat="41.065350" lon="-3.726167">
        <ele>1884.0</ele>
        <time>2018-07-21T12:35:35Z</time>
      </trkpt>
      <trkpt lat="41.065267" lon="-3.726250">
        <ele>1884.0</ele>
        <time>2018-07-21T12:35:36Z</time>
      </trkpt>
      <trkpt lat="41.065200" lon="-3.726317">
        <ele>1884.0</ele>
        <time>2018-07-21T12:35:37Z</time>
      </trkpt>
      <trkpt lat="41.065133" lon="-3.726383">
        <ele>1884.0</ele>
        <time>2018-07-21T12:35:38Z</time>
      </trkpt>
      <trkpt lat="41.065050" lon="-3.726450">
        <ele>1883.0</ele>
        <time>2018-07-21T12:35:39Z</time>
      </trkpt>
      <trkpt lat="41.064983" lon="-3.726517">
        <ele>1882.0</ele>
        <time>2018-07-21T12:35:40Z</time>
      </trkpt>
      <trkpt lat="41.064900" lon="-3.726600">
        <ele>1881.0</ele>
        <time>2018-07-21T12:35:41Z</time>
      </trkpt>
      <trkpt lat="41.064817" lon="-3.726683">
        <ele>1881.0</ele>
        <time>2018-07-21T12:35:42Z</time>
      </trkpt>
      <trkpt lat="41.064750" lon="-3.726783">
        <ele>1881.0</ele>
        <time>2018-07-21T12:35:43Z</time>
      </trkpt>
      <trkpt lat="41.064667" lon="-3.726883">
        <ele>1882.0</ele>
        <time>2018-07-21T12:35:44Z</time>
      </trkpt>
      <trkpt lat="41.064600" lon="-3.726950">
        <ele>1882.0</ele>
        <time>2018-07-21T12:35:45Z</time>
      </trkpt>
      <trkpt lat="41.064517" lon="-3.727033">
        <ele>1882.0</ele>
        <time>2018-07-21T12:35:46Z</time>
      </trkpt>
      <trkpt lat="41.064450" lon="-3.727100">
        <ele>1882.0</ele>
        <time>2018-07-21T12:35:47Z</time>
      </trkpt>
      <trkpt lat="41.064383" lon="-3.727183">
        <ele>1881.0</ele>
        <time>2018-07-21T12:35:48Z</time>
      </trkpt>
      <trkpt lat="41.064300" lon="-3.727283">
        <ele>1880.0</ele>
        <time>2018-07-21T12:35:49Z</time>
      </trkpt>
      <trkpt lat="41.064233" lon="-3.727383">
        <ele>1879.0</ele>
        <time>2018-07-21T12:35:50Z</time>
      </trkpt>
      <trkpt lat="41.064167" lon="-3.727483">
        <ele>1879.0</ele>
        <time>2018-07-21T12:35:51Z</time>
      </trkpt>
      <trkpt lat="41.064117" lon="-3.727583">
        <ele>1880.0</ele>
        <time>2018-07-21T12:35:52Z</time>
      </trkpt>
      <trkpt lat="41.064050" lon="-3.727667">
        <ele>1880.0</ele>
        <time>2018-07-21T12:35:53Z</time>
      </trkpt>
      <trkpt lat="41.064000" lon="-3.727767">
        <ele>1880.0</ele>
        <time>2018-07-21T12:35:54Z</time>
      </trkpt>
      <trkpt lat="41.063950" lon="-3.727867">
        <ele>1879.0</ele>
        <time>2018-07-21T12:35:55Z</time>
      </trkpt>
      <trkpt lat="41.063917" lon="-3.727967">
        <ele>1879.0</ele>
        <time>2018-07-21T12:35:56Z</time>
      </trkpt>
      <trkpt lat="41.063867" lon="-3.728067">
        <ele>1878.0</ele>
        <time>2018-07-21T12:35:57Z</time>
      </trkpt>
      <trkpt lat="41.063817" lon="-3.728183">
        <ele>1877.0</ele>
        <time>2018-07-21T12:35:58Z</time>
      </trkpt>
      <trkpt lat="41.063800" lon="-3.728300">
        <ele>1877.0</ele>
        <time>2018-07-21T12:35:59Z</time>
      </trkpt>
      <trkpt lat="41.063767" lon="-3.728417">
        <ele>1877.0</ele>
        <time>2018-07-21T12:36:00Z</time>
      </trkpt>
      <trkpt lat="41.063750" lon="-3.728533">
        <ele>1878.0</ele>
        <time>2018-07-21T12:36:01Z</time>
      </trkpt>
      <trkpt lat="41.063717" lon="-3.728650">
        <ele>1880.0</ele>
        <time>2018-07-21T12:36:02Z</time>
      </trkpt>
      <trkpt lat="41.063667" lon="-3.728750">
        <ele>1881.0</ele>
        <time>2018-07-21T12:36:03Z</time>
      </trkpt>
      <trkpt lat="41.063617" lon="-3.728833">
        <ele>1882.0</ele>
        <time>2018-07-21T12:36:04Z</time>
      </trkpt>
      <trkpt lat="41.063567" lon="-3.728917">
        <ele>1883.0</ele>
        <time>2018-07-21T12:36:05Z</time>
      </trkpt>
      <trkpt lat="41.063517" lon="-3.729017">
        <ele>1884.0</ele>
        <time>2018-07-21T12:36:06Z</time>
      </trkpt>
      <trkpt lat="41.063483" lon="-3.729117">
        <ele>1884.0</ele>
        <time>2018-07-21T12:36:07Z</time>
      </trkpt>
      <trkpt lat="41.063483" lon="-3.729200">
        <ele>1884.0</ele>
        <time>2018-07-21T12:36:08Z</time>
      </trkpt>
      <trkpt lat="41.063517" lon="-3.729300">
        <ele>1885.0</ele>
        <time>2018-07-21T12:36:09Z</time>
      </trkpt>
      <trkpt lat="41.063567" lon="-3.729350">
        <ele>1885.0</ele>
        <time>2018-07-21T12:36:10Z</time>
      </trkpt>
      <trkpt lat="41.063633" lon="-3.729367">
        <ele>1886.0</ele>
        <time>2018-07-21T12:36:11Z</time>
      </trkpt>
      <trkpt lat="41.063717" lon="-3.729333">
        <ele>1886.0</ele>
        <time>2018-07-21T12:36:12Z</time>
      </trkpt>
      <trkpt lat="41.063800" lon="-3.729267">
        <ele>1886.0</ele>
        <time>2018-07-21T12:36:13Z</time>
      </trkpt>
      <trkpt lat="41.063867" lon="-3.729183">
        <ele>1886.0</ele>
        <time>2018-07-21T12:36:14Z</time>
      </trkpt>
      <trkpt lat="41.063950" lon="-3.729050">
        <ele>1885.0</ele>
        <time>2018-07-21T12:36:15Z</time>
      </trkpt>
      <trkpt lat="41.064000" lon="-3.728883">
        <ele>1885.0</ele>
        <time>2018-07-21T12:36:16Z</time>
      </trkpt>
      <trkpt lat="41.064017" lon="-3.728700">
        <ele>1885.0</ele>
        <time>2018-07-21T12:36:17Z</time>
      </trkpt>
      <trkpt lat="41.064017" lon="-3.728533">
        <ele>1886.0</ele>
        <time>2018-07-21T12:36:18Z</time>
      </trkpt>
      <trkpt lat="41.063983" lon="-3.728367">
        <ele>1887.0</ele>
        <time>2018-07-21T12:36:19Z</time>
      </trkpt>
      <trkpt lat="41.063950" lon="-3.728217">
        <ele>1888.0</ele>
        <time>2018-07-21T12:36:20Z</time>
      </trkpt>
      <trkpt lat="41.063933" lon="-3.728067">
        <ele>1889.0</ele>
        <time>2018-07-21T12:36:21Z</time>
      </trkpt>
      <trkpt lat="41.063933" lon="-3.727933">
        <ele>1890.0</ele>
        <time>2018-07-21T12:36:22Z</time>
      </trkpt>
      <trkpt lat="41.063967" lon="-3.727800">
        <ele>1890.0</ele>
        <time>2018-07-21T12:36:23Z</time>
      </trkpt>
      <trkpt lat="41.064000" lon="-3.727717">
        <ele>1890.0</ele>
        <time>2018-07-21T12:36:24Z</time>
      </trkpt>
      <trkpt lat="41.064067" lon="-3.727667">
        <ele>1890.0</ele>
        <time>2018-07-21T12:36:25Z</time>
      </trkpt>
      <trkpt lat="41.064133" lon="-3.727650">
        <ele>1889.0</ele>
        <time>2018-07-21T12:36:26Z</time>
      </trkpt>
      <trkpt lat="41.064200" lon="-3.727683">
        <ele>1887.0</ele>
        <time>2018-07-21T12:36:27Z</time>
      </trkpt>
      <trkpt lat="41.064250" lon="-3.727767">
        <ele>1886.0</ele>
        <time>2018-07-21T12:36:28Z</time>
      </trkpt>
      <trkpt lat="41.064250" lon="-3.727883">
        <ele>1886.0</ele>
        <time>2018-07-21T12:36:29Z</time>
      </trkpt>
      <trkpt lat="41.064233" lon="-3.728000">
        <ele>1886.0</ele>
        <time>2018-07-21T12:36:30Z</time>
      </trkpt>
      <trkpt lat="41.064200" lon="-3.728117">
        <ele>1886.0</ele>
        <time>2018-07-21T12:36:31Z</time>
      </trkpt>
      <trkpt lat="41.064150" lon="-3.728200">
        <ele>1887.0</ele>
        <time>2018-07-21T12:36:32Z</time>
      </trkpt>
      <trkpt lat="41.064117" lon="-3.728300">
        <ele>1888.0</ele>
        <time>2018-07-21T12:36:33Z</time>
      </trkpt>
      <trkpt lat="41.064067" lon="-3.728367">
        <ele>1889.0</ele>
        <time>2018-07-21T12:36:34Z</time>
      </trkpt>
      <trkpt lat="41.064000" lon="-3.728450">
        <ele>1889.0</ele>
        <time>2018-07-21T12:36:35Z</time>
      </trkpt>
      <trkpt lat="41.063933" lon="-3.728517">
        <ele>1889.0</ele>
        <time>2018-07-21T12:36:36Z</time>
      </trkpt>
      <trkpt lat="41.063850" lon="-3.728600">
        <ele>1889.0</ele>
        <time>2018-07-21T12:36:37Z</time>
      </trkpt>
      <trkpt lat="41.063800" lon="-3.728700">
        <ele>1889.0</ele>
        <time>2018-07-21T12:36:38Z</time>
      </trkpt>
      <trkpt lat="41.063750" lon="-3.728800">
        <ele>1890.0</ele>
        <time>2018-07-21T12:36:39Z</time>
      </trkpt>
      <trkpt lat="41.063717" lon="-3.728900">
        <ele>1890.0</ele>
        <time>2018-07-21T12:36:40Z</time>
      </trkpt>
      <trkpt lat="41.063667" lon="-3.729000">
        <ele>1891.0</ele>
        <time>2018-07-21T12:36:41Z</time>
      </trkpt>
      <trkpt lat="41.063617" lon="-3.729100">
        <ele>1893.0</ele>
        <time>2018-07-21T12:36:42Z</time>
      </trkpt>
      <trkpt lat="41.063583" lon="-3.729183">
        <ele>1894.0</ele>
        <time>2018-07-21T12:36:43Z</time>
      </trkpt>
      <trkpt lat="41.063533" lon="-3.729250">
        <ele>1895.0</ele>
        <time>2018-07-21T12:36:44Z</time>
      </trkpt>
      <trkpt lat="41.063500" lon="-3.729300">
        <ele>1896.0</ele>
        <time>2018-07-21T12:36:45Z</time>
      </trkpt>
      <trkpt lat="41.063483" lon="-3.729367">
        <ele>1897.0</ele>
        <time>2018-07-21T12:36:46Z</time>
      </trkpt>
      <trkpt lat="41.063450" lon="-3.729417">
        <ele>1897.0</ele>
        <time>2018-07-21T12:36:47Z</time>
      </trkpt>
      <trkpt lat="41.063417" lon="-3.729467">
        <ele>1897.0</ele>
        <time>2018-07-21T12:36:48Z</time>
      </trkpt>
      <trkpt lat="41.063367" lon="-3.729517">
        <ele>1896.0</ele>
        <time>2018-07-21T12:36:49Z</time>
      </trkpt>
      <trkpt lat="41.063317" lon="-3.729583">
        <ele>1895.0</ele>
        <time>2018-07-21T12:36:50Z</time>
      </trkpt>
      <trkpt lat="41.063267" lon="-3.729650">
        <ele>1895.0</ele>
        <time>2018-07-21T12:36:51Z</time>
      </trkpt>
      <trkpt lat="41.063217" lon="-3.729717">
        <ele>1894.0</ele>
        <time>2018-07-21T12:36:52Z</time>
      </trkpt>
      <trkpt lat="41.063200" lon="-3.729783">
        <ele>1894.0</ele>
        <time>2018-07-21T12:36:53Z</time>
      </trkpt>
      <trkpt lat="41.063167" lon="-3.729867">
        <ele>1894.0</ele>
        <time>2018-07-21T12:36:54Z</time>
      </trkpt>
      <trkpt lat="41.063150" lon="-3.729967">
        <ele>1895.0</ele>
        <time>2018-07-21T12:36:55Z</time>
      </trkpt>
      <trkpt lat="41.063117" lon="-3.730033">
        <ele>1896.0</ele>
        <time>2018-07-21T12:36:56Z</time>
      </trkpt>
      <trkpt lat="41.063083" lon="-3.730100">
        <ele>1897.0</ele>
        <time>2018-07-21T12:36:57Z</time>
      </trkpt>
      <trkpt lat="41.063050" lon="-3.730150">
        <ele>1898.0</ele>
        <time>2018-07-21T12:36:58Z</time>
      </trkpt>
      <trkpt lat="41.063017" lon="-3.730200">
        <ele>1898.0</ele>
        <time>2018-07-21T12:36:59Z</time>
      </trkpt>
      <trkpt lat="41.062950" lon="-3.730250">
        <ele>1897.0</ele>
        <time>2018-07-21T12:37:00Z</time>
      </trkpt>
      <trkpt lat="41.062900" lon="-3.730317">
        <ele>1897.0</ele>
        <time>2018-07-21T12:37:01Z</time>
      </trkpt>
      <trkpt lat="41.062850" lon="-3.730383">
        <ele>1898.0</ele>
        <time>2018-07-21T12:37:02Z</time>
      </trkpt>
      <trkpt lat="41.062817" lon="-3.730450">
        <ele>1900.0</ele>
        <time>2018-07-21T12:37:03Z</time>
      </trkpt>
      <trkpt lat="41.062800" lon="-3.730500">
        <ele>1902.0</ele>
        <time>2018-07-21T12:37:04Z</time>
      </trkpt>
      <trkpt lat="41.062783" lon="-3.730550">
        <ele>1903.0</ele>
        <time>2018-07-21T12:37:05Z</time>
      </trkpt>
      <trkpt lat="41.062767" lon="-3.730600">
        <ele>1903.0</ele>
        <time>2018-07-21T12:37:06Z</time>
      </trkpt>
      <trkpt lat="41.062783" lon="-3.730650">
        <ele>1902.0</ele>
        <time>2018-07-21T12:37:07Z</time>
      </trkpt>
      <trkpt lat="41.062833" lon="-3.730717">
        <ele>1900.0</ele>
        <time>2018-07-21T12:37:08Z</time>
      </trkpt>
      <trkpt lat="41.062917" lon="-3.730783">
        <ele>1900.0</ele>
        <time>2018-07-21T12:37:09Z</time>
      </trkpt>
      <trkpt lat="41.063033" lon="-3.730800">
        <ele>1901.0</ele>
        <time>2018-07-21T12:37:10Z</time>
      </trkpt>
      <trkpt lat="41.063133" lon="-3.730767">
        <ele>1903.0</ele>
        <time>2018-07-21T12:37:11Z</time>
      </trkpt>
      <trkpt lat="41.063217" lon="-3.730683">
        <ele>1905.0</ele>
        <time>2018-07-21T12:37:12Z</time>
      </trkpt>
      <trkpt lat="41.063283" lon="-3.730533">
        <ele>1905.0</ele>
        <time>2018-07-21T12:37:13Z</time>
      </trkpt>
      <trkpt lat="41.063300" lon="-3.730367">
        <ele>1905.0</ele>
        <time>2018-07-21T12:37:14Z</time>
      </trkpt>
      <trkpt lat="41.063300" lon="-3.730200">
        <ele>1905.0</ele>
        <time>2018-07-21T12:37:15Z</time>
      </trkpt>
      <trkpt lat="41.063283" lon="-3.730033">
        <ele>1906.0</ele>
        <time>2018-07-21T12:37:16Z</time>
      </trkpt>
      <trkpt lat="41.063250" lon="-3.729867">
        <ele>1906.0</ele>
        <time>2018-07-21T12:37:17Z</time>
      </trkpt>
      <trkpt lat="41.063217" lon="-3.729700">
        <ele>1907.0</ele>
        <time>2018-07-21T12:37:18Z</time>
      </trkpt>
      <trkpt lat="41.063217" lon="-3.729533">
        <ele>1907.0</ele>
        <time>2018-07-21T12:37:19Z</time>
      </trkpt>
      <trkpt lat="41.063217" lon="-3.729383">
        <ele>1906.0</ele>
        <time>2018-07-21T12:37:20Z</time>
      </trkpt>
      <trkpt lat="41.063267" lon="-3.729217">
        <ele>1906.0</ele>
        <time>2018-07-21T12:37:21Z</time>
      </trkpt>
      <trkpt lat="41.063317" lon="-3.729083">
        <ele>1907.0</ele>
        <time>2018-07-21T12:37:22Z</time>
      </trkpt>
      <trkpt lat="41.063383" lon="-3.729000">
        <ele>1909.0</ele>
        <time>2018-07-21T12:37:23Z</time>
      </trkpt>
      <trkpt lat="41.063450" lon="-3.728967">
        <ele>1910.0</ele>
        <time>2018-07-21T12:37:24Z</time>
      </trkpt>
      <trkpt lat="41.063517" lon="-3.728983">
        <ele>1910.0</ele>
        <time>2018-07-21T12:37:25Z</time>
      </trkpt>
      <trkpt lat="41.063567" lon="-3.729000">
        <ele>1910.0</ele>
        <time>2018-07-21T12:37:26Z</time>
      </trkpt>
      <trkpt lat="41.063617" lon="-3.729050">
        <ele>1909.0</ele>
        <time>2018-07-21T12:37:27Z</time>
      </trkpt>
      <trkpt lat="41.063683" lon="-3.729100">
        <ele>1910.0</ele>
        <time>2018-07-21T12:37:28Z</time>
      </trkpt>
      <trkpt lat="41.063717" lon="-3.729150">
        <ele>1911.0</ele>
        <time>2018-07-21T12:37:29Z</time>
      </trkpt>
      <trkpt lat="41.063750" lon="-3.729217">
        <ele>1912.0</ele>
        <time>2018-07-21T12:37:30Z</time>
      </trkpt>
      <trkpt lat="41.063750" lon="-3.729267">
        <ele>1912.0</ele>
        <time>2018-07-21T12:37:31Z</time>
      </trkpt>
      <trkpt lat="41.063750" lon="-3.729333">
        <ele>1912.0</ele>
        <time>2018-07-21T12:37:32Z</time>
      </trkpt>
      <trkpt lat="41.063733" lon="-3.729417">
        <ele>1912.0</ele>
        <time>2018-07-21T12:37:33Z</time>
      </trkpt>
      <trkpt lat="41.063700" lon="-3.729500">
        <ele>1912.0</ele>
        <time>2018-07-21T12:37:34Z</time>
      </trkpt>
      <trkpt lat="41.063667" lon="-3.729583">
        <ele>1913.0</ele>
        <time>2018-07-21T12:37:35Z</time>
      </trkpt>
      <trkpt lat="41.063617" lon="-3.729667">
        <ele>1915.0</ele>
        <time>2018-07-21T12:37:36Z</time>
      </trkpt>
      <trkpt lat="41.063567" lon="-3.729717">
        <ele>1916.0</ele>
        <time>2018-07-21T12:37:37Z</time>
      </trkpt>
      <trkpt lat="41.063500" lon="-3.729767">
        <ele>1918.0</ele>
        <time>2018-07-21T12:37:38Z</time>
      </trkpt>
      <trkpt lat="41.063433" lon="-3.729783">
        <ele>1919.0</ele>
        <time>2018-07-21T12:37:39Z</time>
      </trkpt>
      <trkpt lat="41.063367" lon="-3.729817">
        <ele>1920.0</ele>
        <time>2018-07-21T12:37:40Z</time>
      </trkpt>
      <trkpt lat="41.063283" lon="-3.729850">
        <ele>1920.0</ele>
        <time>2018-07-21T12:37:41Z</time>
      </trkpt>
      <trkpt lat="41.063200" lon="-3.729867">
        <ele>1921.0</ele>
        <time>2018-07-21T12:37:42Z</time>
      </trkpt>
      <trkpt lat="41.063117" lon="-3.729900">
        <ele>1921.0</ele>
        <time>2018-07-21T12:37:43Z</time>
      </trkpt>
      <trkpt lat="41.063033" lon="-3.729917">
        <ele>1922.0</ele>
        <time>2018-07-21T12:37:44Z</time>
      </trkpt>
      <trkpt lat="41.062950" lon="-3.729950">
        <ele>1923.0</ele>
        <time>2018-07-21T12:37:45Z</time>
      </trkpt>
      <trkpt lat="41.062883" lon="-3.730000">
        <ele>1924.0</ele>
        <time>2018-07-21T12:37:46Z</time>
      </trkpt>
      <trkpt lat="41.062833" lon="-3.730050">
        <ele>1925.0</ele>
        <time>2018-07-21T12:37:47Z</time>
      </trkpt>
      <trkpt lat="41.062783" lon="-3.730117">
        <ele>1926.0</ele>
        <time>2018-07-21T12:37:48Z</time>
      </trkpt>
      <trkpt lat="41.062717" lon="-3.730167">
        <ele>1927.0</ele>
        <time>2018-07-21T12:37:49Z</time>
      </trkpt>
      <trkpt lat="41.062667" lon="-3.730217">
        <ele>1928.0</ele>
        <time>2018-07-21T12:37:50Z</time>
      </trkpt>
      <trkpt lat="41.062600" lon="-3.730267">
        <ele>1930.0</ele>
        <time>2018-07-21T12:37:51Z</time>
      </trkpt>
      <trkpt lat="41.062550" lon="-3.730300">
        <ele>1932.0</ele>
        <time>2018-07-21T12:37:52Z</time>
      </trkpt>
      <trkpt lat="41.062500" lon="-3.730367">
        <ele>1933.0</ele>
        <time>2018-07-21T12:37:53Z</time>
      </trkpt>
      <trkpt lat="41.062483" lon="-3.730433">
        <ele>1935.0</ele>
        <time>2018-07-21T12:37:54Z</time>
      </trkpt>
      <trkpt lat="41.062467" lon="-3.730500">
        <ele>1936.0</ele>
        <time>2018-07-21T12:37:55Z</time>
      </trkpt>
      <trkpt lat="41.062483" lon="-3.730567">
        <ele>1937.0</ele>
        <time>2018-07-21T12:37:56Z</time>
      </trkpt>
      <trkpt lat="41.062533" lon="-3.730650">
        <ele>1937.0</ele>
        <time>2018-07-21T12:37:57Z</time>
      </trkpt>
      <trkpt lat="41.062600" lon="-3.730700">
        <ele>1938.0</ele>
        <time>2018-07-21T12:37:58Z</time>
      </trkpt>
      <trkpt lat="41.062683" lon="-3.730733">
        <ele>1939.0</ele>
        <time>2018-07-21T12:37:59Z</time>
      </trkpt>
      <trkpt lat="41.062783" lon="-3.730717">
        <ele>1939.0</ele>
        <time>2018-07-21T12:38:00Z</time>
      </trkpt>
      <trkpt lat="41.062900" lon="-3.730633">
        <ele>1940.0</ele>
        <time>2018-07-21T12:38:01Z</time>
      </trkpt>
      <trkpt lat="41.062967" lon="-3.730500">
        <ele>1941.0</ele>
        <time>2018-07-21T12:38:02Z</time>
      </trkpt>
      <trkpt lat="41.063017" lon="-3.730300">
        <ele>1942.0</ele>
        <time>2018-07-21T12:38:03Z</time>
      </trkpt>
      <trkpt lat="41.063017" lon="-3.730100">
        <ele>1944.0</ele>
        <time>2018-07-21T12:38:04Z</time>
      </trkpt>
      <trkpt lat="41.062950" lon="-3.729917">
        <ele>1947.0</ele>
        <time>2018-07-21T12:38:05Z</time>
      </trkpt>
      <trkpt lat="41.062867" lon="-3.729767">
        <ele>1949.0</ele>
        <time>2018-07-21T12:38:06Z</time>
      </trkpt>
      <trkpt lat="41.062767" lon="-3.729667">
        <ele>1950.0</ele>
        <time>2018-07-21T12:38:07Z</time>
      </trkpt>
      <trkpt lat="41.062650" lon="-3.729617">
        <ele>1951.0</ele>
        <time>2018-07-21T12:38:08Z</time>
      </trkpt>
      <trkpt lat="41.062533" lon="-3.729600">
        <ele>1952.0</ele>
        <time>2018-07-21T12:38:09Z</time>
      </trkpt>
      <trkpt lat="41.062417" lon="-3.729617">
        <ele>1953.0</ele>
        <time>2018-07-21T12:38:10Z</time>
      </trkpt>
      <trkpt lat="41.062333" lon="-3.729667">
        <ele>1955.0</ele>
        <time>2018-07-21T12:38:11Z</time>
      </trkpt>
      <trkpt lat="41.062283" lon="-3.729750">
        <ele>1956.0</ele>
        <time>2018-07-21T12:38:12Z</time>
      </trkpt>
      <trkpt lat="41.062250" lon="-3.729850">
        <ele>1958.0</ele>
        <time>2018-07-21T12:38:13Z</time>
      </trkpt>
      <trkpt lat="41.062250" lon="-3.729933">
        <ele>1959.0</ele>
        <time>2018-07-21T12:38:14Z</time>
      </trkpt>
      <trkpt lat="41.062300" lon="-3.730000">
        <ele>1961.0</ele>
        <time>2018-07-21T12:38:15Z</time>
      </trkpt>
      <trkpt lat="41.062350" lon="-3.730033">
        <ele>1961.0</ele>
        <time>2018-07-21T12:38:16Z</time>
      </trkpt>
      <trkpt lat="41.062433" lon="-3.730050">
        <ele>1960.0</ele>
        <time>2018-07-21T12:38:17Z</time>
      </trkpt>
      <trkpt lat="41.062517" lon="-3.730067">
        <ele>1960.0</ele>
        <time>2018-07-21T12:38:18Z</time>
      </trkpt>
      <trkpt lat="41.062600" lon="-3.730067">
        <ele>1959.0</ele>
        <time>2018-07-21T12:38:19Z</time>
      </trkpt>
      <trkpt lat="41.062717" lon="-3.730033">
        <ele>1959.0</ele>
        <time>2018-07-21T12:38:20Z</time>
      </trkpt>
      <trkpt lat="41.062817" lon="-3.729950">
        <ele>1960.0</ele>
        <time>2018-07-21T12:38:21Z</time>
      </trkpt>
      <trkpt lat="41.062883" lon="-3.729800">
        <ele>1960.0</ele>
        <time>2018-07-21T12:38:22Z</time>
      </trkpt>
      <trkpt lat="41.062917" lon="-3.729617">
        <ele>1961.0</ele>
        <time>2018-07-21T12:38:23Z</time>
      </trkpt>
      <trkpt lat="41.062917" lon="-3.729433">
        <ele>1962.0</ele>
        <time>2018-07-21T12:38:24Z</time>
      </trkpt>
      <trkpt lat="41.062883" lon="-3.729267">
        <ele>1963.0</ele>
        <time>2018-07-21T12:38:25Z</time>
      </trkpt>
      <trkpt lat="41.062833" lon="-3.729100">
        <ele>1964.0</ele>
        <time>2018-07-21T12:38:26Z</time>
      </trkpt>
      <trkpt lat="41.062733" lon="-3.728967">
        <ele>1965.0</ele>
        <time>2018-07-21T12:38:27Z</time>
      </trkpt>
      <trkpt lat="41.062633" lon="-3.728850">
        <ele>1965.0</ele>
        <time>2018-07-21T12:38:28Z</time>
      </trkpt>
      <trkpt lat="41.062500" lon="-3.728783">
        <ele>1964.0</ele>
        <time>2018-07-21T12:38:29Z</time>
      </trkpt>
      <trkpt lat="41.062383" lon="-3.728767">
        <ele>1964.0</ele>
        <time>2018-07-21T12:38:30Z</time>
      </trkpt>
      <trkpt lat="41.062267" lon="-3.728783">
        <ele>1964.0</ele>
        <time>2018-07-21T12:38:31Z</time>
      </trkpt>
      <trkpt lat="41.062183" lon="-3.728867">
        <ele>1964.0</ele>
        <time>2018-07-21T12:38:32Z</time>
      </trkpt>
      <trkpt lat="41.062150" lon="-3.728950">
        <ele>1964.0</ele>
        <time>2018-07-21T12:38:33Z</time>
      </trkpt>
      <trkpt lat="41.062167" lon="-3.729033">
        <ele>1964.0</ele>
        <time>2018-07-21T12:38:34Z</time>
      </trkpt>
      <trkpt lat="41.062200" lon="-3.729100">
        <ele>1965.0</ele>
        <time>2018-07-21T12:38:35Z</time>
      </trkpt>
      <trkpt lat="41.062233" lon="-3.729150">
        <ele>1967.0</ele>
        <time>2018-07-21T12:38:36Z</time>
      </trkpt>
      <trkpt lat="41.062267" lon="-3.729183">
        <ele>1970.0</ele>
        <time>2018-07-21T12:38:37Z</time>
      </trkpt>
      <trkpt lat="41.062300" lon="-3.729183">
        <ele>1971.0</ele>
        <time>2018-07-21T12:38:38Z</time>
      </trkpt>
      <trkpt lat="41.062350" lon="-3.729200">
        <ele>1970.0</ele>
        <time>2018-07-21T12:38:39Z</time>
      </trkpt>
      <trkpt lat="41.062400" lon="-3.729200">
        <ele>1970.0</ele>
        <time>2018-07-21T12:38:40Z</time>
      </trkpt>
      <trkpt lat="41.062450" lon="-3.729217">
        <ele>1969.0</ele>
        <time>2018-07-21T12:38:41Z</time>
      </trkpt>
      <trkpt lat="41.062483" lon="-3.729250">
        <ele>1969.0</ele>
        <time>2018-07-21T12:38:42Z</time>
      </trkpt>
      <trkpt lat="41.062533" lon="-3.729283">
        <ele>1969.0</ele>
        <time>2018-07-21T12:38:43Z</time>
      </trkpt>
      <trkpt lat="41.062583" lon="-3.729333">
        <ele>1970.0</ele>
        <time>2018-07-21T12:38:44Z</time>
      </trkpt>
      <trkpt lat="41.062633" lon="-3.729367">
        <ele>1971.0</ele>
        <time>2018-07-21T12:38:45Z</time>
      </trkpt>
      <trkpt lat="41.062667" lon="-3.729400">
        <ele>1973.0</ele>
        <time>2018-07-21T12:38:46Z</time>
      </trkpt>
      <trkpt lat="41.062683" lon="-3.729433">
        <ele>1973.0</ele>
        <time>2018-07-21T12:38:47Z</time>
      </trkpt>
      <trkpt lat="41.062733" lon="-3.729467">
        <ele>1973.0</ele>
        <time>2018-07-21T12:38:48Z</time>
      </trkpt>
      <trkpt lat="41.062783" lon="-3.729500">
        <ele>1974.0</ele>
        <time>2018-07-21T12:38:49Z</time>
      </trkpt>
      <trkpt lat="41.062817" lon="-3.729533">
        <ele>1975.0</ele>
        <time>2018-07-21T12:38:50Z</time>
      </trkpt>
      <trkpt lat="41.062850" lon="-3.729567">
        <ele>1976.0</ele>
        <time>2018-07-21T12:38:51Z</time>
      </trkpt>
      <trkpt lat="41.062883" lon="-3.729617">
        <ele>1977.0</ele>
        <time>2018-07-21T12:38:52Z</time>
      </trkpt>
      <trkpt lat="41.062917" lon="-3.729667">
        <ele>1978.0</ele>
        <time>2018-07-21T12:38:53Z</time>
      </trkpt>
      <trkpt lat="41.062933" lon="-3.729717">
        <ele>1979.0</ele>
        <time>2018-07-21T12:38:54Z</time>
      </trkpt>
      <trkpt lat="41.062967" lon="-3.729767">
        <ele>1980.0</ele>
        <time>2018-07-21T12:38:55Z</time>
      </trkpt>
      <trkpt lat="41.063000" lon="-3.729833">
        <ele>1982.0</ele>
        <time>2018-07-21T12:38:56Z</time>
      </trkpt>
      <trkpt lat="41.063017" lon="-3.729883">
        <ele>1985.0</ele>
        <time>2018-07-21T12:38:57Z</time>
      </trkpt>
      <trkpt lat="41.063033" lon="-3.729933">
        <ele>1987.0</ele>
        <time>2018-07-21T12:38:58Z</time>
      </trkpt>
      <trkpt lat="41.063050" lon="-3.729967">
        <ele>1989.0</ele>
        <time>2018-07-21T12:38:59Z</time>
      </trkpt>
      <trkpt lat="41.063050" lon="-3.730017">
        <ele>1990.0</ele>
        <time>2018-07-21T12:39:00Z</time>
      </trkpt>
      <trkpt lat="41.063067" lon="-3.730067">
        <ele>1990.0</ele>
        <time>2018-07-21T12:39:01Z</time>
      </trkpt>
      <trkpt lat="41.063083" lon="-3.730117">
        <ele>1991.0</ele>
        <time>2018-07-21T12:39:02Z</time>
      </trkpt>
      <trkpt lat="41.063100" lon="-3.730167">
        <ele>1991.0</ele>
        <time>2018-07-21T12:39:03Z</time>
      </trkpt>
      <trkpt lat="41.063117" lon="-3.730233">
        <ele>1991.0</ele>
        <time>2018-07-21T12:39:04Z</time>
      </trkpt>
      <trkpt lat="41.063133" lon="-3.730283">
        <ele>1991.0</ele>
        <time>2018-07-21T12:39:05Z</time>
      </trkpt>
      <trkpt lat="41.063150" lon="-3.730333">
        <ele>1991.0</ele>
        <time>2018-07-21T12:39:06Z</time>
      </trkpt>
      <trkpt lat="41.063167" lon="-3.730383">
        <ele>1991.0</ele>
        <time>2018-07-21T12:39:07Z</time>
      </trkpt>
      <trkpt lat="41.063200" lon="-3.730433">
        <ele>1991.0</ele>
        <time>2018-07-21T12:39:08Z</time>
      </trkpt>
      <trkpt lat="41.063217" lon="-3.730483">
        <ele>1991.0</ele>
        <time>2018-07-21T12:39:09Z</time>
      </trkpt>
      <trkpt lat="41.063233" lon="-3.730533">
        <ele>1991.0</ele>
        <time>2018-07-21T12:39:10Z</time>
      </trkpt>
      <trkpt lat="41.063267" lon="-3.730600">
        <ele>1991.0</ele>
        <time>2018-07-21T12:39:11Z</time>
      </trkpt>
      <trkpt lat="41.063283" lon="-3.730650">
        <ele>1992.0</ele>
        <time>2018-07-21T12:39:12Z</time>
      </trkpt>
      <trkpt lat="41.063317" lon="-3.730717">
        <ele>1992.0</ele>
        <time>2018-07-21T12:39:13Z</time>
      </trkpt>
      <trkpt lat="41.063350" lon="-3.730783">
        <ele>1992.0</ele>
        <time>2018-07-21T12:39:14Z</time>
      </trkpt>
      <trkpt lat="41.063367" lon="-3.730850">
        <ele>1994.0</ele>
        <time>2018-07-21T12:39:15Z</time>
      </trkpt>
      <trkpt lat="41.063400" lon="-3.730900">
        <ele>1995.0</ele>
        <time>2018-07-21T12:39:16Z</time>
      </trkpt>
      <trkpt lat="41.063417" lon="-3.730967">
        <ele>1995.0</ele>
        <time>2018-07-21T12:39:17Z</time>
      </trkpt>
      <trkpt lat="41.063433" lon="-3.731033">
        <ele>1995.0</ele>
        <time>2018-07-21T12:39:18Z</time>
      </trkpt>
      <trkpt lat="41.063450" lon="-3.731100">
        <ele>1994.0</ele>
        <time>2018-07-21T12:39:19Z</time>
      </trkpt>
      <trkpt lat="41.063483" lon="-3.731150">
        <ele>1994.0</ele>
        <time>2018-07-21T12:39:20Z</time>
      </trkpt>
      <trkpt lat="41.063500" lon="-3.731217">
        <ele>1993.0</ele>
        <time>2018-07-21T12:39:21Z</time>
      </trkpt>
      <trkpt lat="41.063517" lon="-3.731283">
        <ele>1992.0</ele>
        <time>2018-07-21T12:39:22Z</time>
      </trkpt>
      <trkpt lat="41.063533" lon="-3.731350">
        <ele>1992.0</ele>
        <time>2018-07-21T12:39:23Z</time>
      </trkpt>
      <trkpt lat="41.063567" lon="-3.731400">
        <ele>1991.0</ele>
        <time>2018-07-21T12:39:24Z</time>
      </trkpt>
      <trkpt lat="41.063600" lon="-3.731467">
        <ele>1991.0</ele>
        <time>2018-07-21T12:39:25Z</time>
      </trkpt>
      <trkpt lat="41.063633" lon="-3.731517">
        <ele>1990.0</ele>
        <time>2018-07-21T12:39:26Z</time>
      </trkpt>
      <trkpt lat="41.063667" lon="-3.731567">
        <ele>1990.0</ele>
        <time>2018-07-21T12:39:27Z</time>
      </trkpt>
      <trkpt lat="41.063700" lon="-3.731617">
        <ele>1989.0</ele>
        <time>2018-07-21T12:39:28Z</time>
      </trkpt>
      <trkpt lat="41.063733" lon="-3.731683">
        <ele>1988.0</ele>
        <time>2018-07-21T12:39:29Z</time>
      </trkpt>
      <trkpt lat="41.063783" lon="-3.731750">
        <ele>1987.0</ele>
        <time>2018-07-21T12:39:30Z</time>
      </trkpt>
      <trkpt lat="41.063817" lon="-3.731800">
        <ele>1986.0</ele>
        <time>2018-07-21T12:39:31Z</time>
      </trkpt>
      <trkpt lat="41.063850" lon="-3.731883">
        <ele>1985.0</ele>
        <time>2018-07-21T12:39:32Z</time>
      </trkpt>
      <trkpt lat="41.063883" lon="-3.731950">
        <ele>1985.0</ele>
        <time>2018-07-21T12:39:33Z</time>
      </trkpt>
      <trkpt lat="41.063900" lon="-3.732017">
        <ele>1984.0</ele>
        <time>2018-07-21T12:39:34Z</time>
      </trkpt>
      <trkpt lat="41.063933" lon="-3.732100">
        <ele>1984.0</ele>
        <time>2018-07-21T12:39:35Z</time>
      </trkpt>
      <trkpt lat="41.063967" lon="-3.732183">
        <ele>1984.0</ele>
        <time>2018-07-21T12:39:36Z</time>
      </trkpt>
      <trkpt lat="41.063983" lon="-3.732267">
        <ele>1983.0</ele>
        <time>2018-07-21T12:39:37Z</time>
      </trkpt>
      <trkpt lat="41.064017" lon="-3.732350">
        <ele>1983.0</ele>
        <time>2018-07-21T12:39:38Z</time>
      </trkpt>
      <trkpt lat="41.064033" lon="-3.732433">
        <ele>1984.0</ele>
        <time>2018-07-21T12:39:39Z</time>
      </trkpt>
      <trkpt lat="41.064050" lon="-3.732517">
        <ele>1984.0</ele>
        <time>2018-07-21T12:39:40Z</time>
      </trkpt>
      <trkpt lat="41.064083" lon="-3.732583">
        <ele>1985.0</ele>
        <time>2018-07-21T12:39:41Z</time>
      </trkpt>
      <trkpt lat="41.064100" lon="-3.732667">
        <ele>1984.0</ele>
        <time>2018-07-21T12:39:42Z</time>
      </trkpt>
      <trkpt lat="41.064133" lon="-3.732750">
        <ele>1983.0</ele>
        <time>2018-07-21T12:39:43Z</time>
      </trkpt>
      <trkpt lat="41.064167" lon="-3.732817">
        <ele>1982.0</ele>
        <time>2018-07-21T12:39:44Z</time>
      </trkpt>
      <trkpt lat="41.064200" lon="-3.732900">
        <ele>1981.0</ele>
        <time>2018-07-21T12:39:45Z</time>
      </trkpt>
      <trkpt lat="41.064250" lon="-3.732967">
        <ele>1980.0</ele>
        <time>2018-07-21T12:39:46Z</time>
      </trkpt>
      <trkpt lat="41.064300" lon="-3.733050">
        <ele>1979.0</ele>
        <time>2018-07-21T12:39:47Z</time>
      </trkpt>
      <trkpt lat="41.064350" lon="-3.733117">
        <ele>1978.0</ele>
        <time>2018-07-21T12:39:48Z</time>
      </trkpt>
      <trkpt lat="41.064400" lon="-3.733183">
        <ele>1976.0</ele>
        <time>2018-07-21T12:39:49Z</time>
      </trkpt>
      <trkpt lat="41.064433" lon="-3.733267">
        <ele>1975.0</ele>
        <time>2018-07-21T12:39:50Z</time>
      </trkpt>
      <trkpt lat="41.064467" lon="-3.733350">
        <ele>1974.0</ele>
        <time>2018-07-21T12:39:51Z</time>
      </trkpt>
      <trkpt lat="41.064517" lon="-3.733433">
        <ele>1973.0</ele>
        <time>2018-07-21T12:39:52Z</time>
      </trkpt>
      <trkpt lat="41.064550" lon="-3.733517">
        <ele>1973.0</ele>
        <time>2018-07-21T12:39:53Z</time>
      </trkpt>
      <trkpt lat="41.064600" lon="-3.733600">
        <ele>1973.0</ele>
        <time>2018-07-21T12:39:54Z</time>
      </trkpt>
      <trkpt lat="41.064633" lon="-3.733667">
        <ele>1972.0</ele>
        <time>2018-07-21T12:39:55Z</time>
      </trkpt>
      <trkpt lat="41.064667" lon="-3.733733">
        <ele>1972.0</ele>
        <time>2018-07-21T12:39:56Z</time>
      </trkpt>
      <trkpt lat="41.064700" lon="-3.733817">
        <ele>1971.0</ele>
        <time>2018-07-21T12:39:57Z</time>
      </trkpt>
      <trkpt lat="41.064733" lon="-3.733900">
        <ele>1970.0</ele>
        <time>2018-07-21T12:39:58Z</time>
      </trkpt>
      <trkpt lat="41.064767" lon="-3.734000">
        <ele>1969.0</ele>
        <time>2018-07-21T12:39:59Z</time>
      </trkpt>
      <trkpt lat="41.064817" lon="-3.734083">
        <ele>1968.0</ele>
        <time>2018-07-21T12:40:00Z</time>
      </trkpt>
      <trkpt lat="41.064850" lon="-3.734167">
        <ele>1967.0</ele>
        <time>2018-07-21T12:40:01Z</time>
      </trkpt>
      <trkpt lat="41.064900" lon="-3.734250">
        <ele>1967.0</ele>
        <time>2018-07-21T12:40:02Z</time>
      </trkpt>
      <trkpt lat="41.064950" lon="-3.734317">
        <ele>1966.0</ele>
        <time>2018-07-21T12:40:03Z</time>
      </trkpt>
      <trkpt lat="41.065017" lon="-3.734367">
        <ele>1964.0</ele>
        <time>2018-07-21T12:40:04Z</time>
      </trkpt>
      <trkpt lat="41.065083" lon="-3.734417">
        <ele>1961.0</ele>
        <time>2018-07-21T12:40:05Z</time>
      </trkpt>
      <trkpt lat="41.065150" lon="-3.734467">
        <ele>1959.0</ele>
        <time>2018-07-21T12:40:06Z</time>
      </trkpt>
      <trkpt lat="41.065217" lon="-3.734533">
        <ele>1957.0</ele>
        <time>2018-07-21T12:40:07Z</time>
      </trkpt>
      <trkpt lat="41.065267" lon="-3.734600">
        <ele>1955.0</ele>
        <time>2018-07-21T12:40:08Z</time>
      </trkpt>
      <trkpt lat="41.065300" lon="-3.734667">
        <ele>1953.0</ele>
        <time>2018-07-21T12:40:09Z</time>
      </trkpt>
      <trkpt lat="41.065350" lon="-3.734750">
        <ele>1952.0</ele>
        <time>2018-07-21T12:40:10Z</time>
      </trkpt>
      <trkpt lat="41.065400" lon="-3.734833">
        <ele>1949.0</ele>
        <time>2018-07-21T12:40:11Z</time>
      </trkpt>
      <trkpt lat="41.065450" lon="-3.734917">
        <ele>1947.0</ele>
        <time>2018-07-21T12:40:12Z</time>
      </trkpt>
      <trkpt lat="41.065500" lon="-3.735000">
        <ele>1946.0</ele>
        <time>2018-07-21T12:40:13Z</time>
      </trkpt>
      <trkpt lat="41.065550" lon="-3.735083">
        <ele>1945.0</ele>
        <time>2018-07-21T12:40:14Z</time>
      </trkpt>
      <trkpt lat="41.065600" lon="-3.735150">
        <ele>1944.0</ele>
        <time>2018-07-21T12:40:15Z</time>
      </trkpt>
      <trkpt lat="41.065650" lon="-3.735217">
        <ele>1943.0</ele>
        <time>2018-07-21T12:40:16Z</time>
      </trkpt>
      <trkpt lat="41.065700" lon="-3.735267">
        <ele>1941.0</ele>
        <time>2018-07-21T12:40:17Z</time>
      </trkpt>
      <trkpt lat="41.065767" lon="-3.735333">
        <ele>1941.0</ele>
        <time>2018-07-21T12:40:18Z</time>
      </trkpt>
      <trkpt lat="41.065800" lon="-3.735400">
        <ele>1940.0</ele>
        <time>2018-07-21T12:40:19Z</time>
      </trkpt>
      <trkpt lat="41.065850" lon="-3.735483">
        <ele>1940.0</ele>
        <time>2018-07-21T12:40:20Z</time>
      </trkpt>
      <trkpt lat="41.065883" lon="-3.735550">
        <ele>1940.0</ele>
        <time>2018-07-21T12:40:21Z</time>
      </trkpt>
      <trkpt lat="41.065917" lon="-3.735600">
        <ele>1940.0</ele>
        <time>2018-07-21T12:40:22Z</time>
      </trkpt>
      <trkpt lat="41.065950" lon="-3.735633">
        <ele>1939.0</ele>
        <time>2018-07-21T12:40:23Z</time>
      </trkpt>
      <trkpt lat="41.065983" lon="-3.735683">
        <ele>1938.0</ele>
        <time>2018-07-21T12:40:24Z</time>
      </trkpt>
      <trkpt lat="41.066017" lon="-3.735733">
        <ele>1937.0</ele>
        <time>2018-07-21T12:40:25Z</time>
      </trkpt>
      <trkpt lat="41.066050" lon="-3.735783">
        <ele>1936.0</ele>
        <time>2018-07-21T12:40:26Z</time>
      </trkpt>
      <trkpt lat="41.066083" lon="-3.735867">
        <ele>1934.0</ele>
        <time>2018-07-21T12:40:27Z</time>
      </trkpt>
      <trkpt lat="41.066133" lon="-3.735933">
        <ele>1934.0</ele>
        <time>2018-07-21T12:40:28Z</time>
      </trkpt>
      <trkpt lat="41.066167" lon="-3.736000">
        <ele>1934.0</ele>
        <time>2018-07-21T12:40:29Z</time>
      </trkpt>
      <trkpt lat="41.066200" lon="-3.736067">
        <ele>1935.0</ele>
        <time>2018-07-21T12:40:30Z</time>
      </trkpt>
      <trkpt lat="41.066233" lon="-3.736133">
        <ele>1936.0</ele>
        <time>2018-07-21T12:40:31Z</time>
      </trkpt>
      <trkpt lat="41.066250" lon="-3.736200">
        <ele>1937.0</ele>
        <time>2018-07-21T12:40:32Z</time>
      </trkpt>
      <trkpt lat="41.066283" lon="-3.736267">
        <ele>1937.0</ele>
        <time>2018-07-21T12:40:33Z</time>
      </trkpt>
      <trkpt lat="41.066317" lon="-3.736350">
        <ele>1938.0</ele>
        <time>2018-07-21T12:40:34Z</time>
      </trkpt>
      <trkpt lat="41.066333" lon="-3.736433">
        <ele>1939.0</ele>
        <time>2018-07-21T12:40:35Z</time>
      </trkpt>
      <trkpt lat="41.066367" lon="-3.736517">
        <ele>1940.0</ele>
        <time>2018-07-21T12:40:36Z</time>
      </trkpt>
      <trkpt lat="41.066383" lon="-3.736600">
        <ele>1941.0</ele>
        <time>2018-07-21T12:40:37Z</time>
      </trkpt>
      <trkpt lat="41.066417" lon="-3.736667">
        <ele>1943.0</ele>
        <time>2018-07-21T12:40:38Z</time>
      </trkpt>
      <trkpt lat="41.066433" lon="-3.736733">
        <ele>1944.0</ele>
        <time>2018-07-21T12:40:39Z</time>
      </trkpt>
      <trkpt lat="41.066450" lon="-3.736800">
        <ele>1945.0</ele>
        <time>2018-07-21T12:40:40Z</time>
      </trkpt>
      <trkpt lat="41.066483" lon="-3.736867">
        <ele>1945.0</ele>
        <time>2018-07-21T12:40:41Z</time>
      </trkpt>
      <trkpt lat="41.066500" lon="-3.736933">
        <ele>1945.0</ele>
        <time>2018-07-21T12:40:42Z</time>
      </trkpt>
      <trkpt lat="41.066517" lon="-3.737000">
        <ele>1945.0</ele>
        <time>2018-07-21T12:40:43Z</time>
      </trkpt>
      <trkpt lat="41.066533" lon="-3.737067">
        <ele>1944.0</ele>
        <time>2018-07-21T12:40:44Z</time>
      </trkpt>
      <trkpt lat="41.066567" lon="-3.737150">
        <ele>1943.0</ele>
        <time>2018-07-21T12:40:45Z</time>
      </trkpt>
      <trkpt lat="41.066600" lon="-3.737233">
        <ele>1942.0</ele>
        <time>2018-07-21T12:40:46Z</time>
      </trkpt>
      <trkpt lat="41.066633" lon="-3.737300">
        <ele>1942.0</ele>
        <time>2018-07-21T12:40:47Z</time>
      </trkpt>
      <trkpt lat="41.066650" lon="-3.737383">
        <ele>1941.0</ele>
        <time>2018-07-21T12:40:48Z</time>
      </trkpt>
      <trkpt lat="41.066683" lon="-3.737450">
        <ele>1940.0</ele>
        <time>2018-07-21T12:40:49Z</time>
      </trkpt>
      <trkpt lat="41.066717" lon="-3.737533">
        <ele>1939.0</ele>
        <time>2018-07-21T12:40:50Z</time>
      </trkpt>
      <trkpt lat="41.066750" lon="-3.737600">
        <ele>1937.0</ele>
        <time>2018-07-21T12:40:51Z</time>
      </trkpt>
      <trkpt lat="41.066783" lon="-3.737683">
        <ele>1936.0</ele>
        <time>2018-07-21T12:40:52Z</time>
      </trkpt>
      <trkpt lat="41.066833" lon="-3.737750">
        <ele>1935.0</ele>
        <time>2018-07-21T12:40:53Z</time>
      </trkpt>
      <trkpt lat="41.066867" lon="-3.737833">
        <ele>1933.0</ele>
        <time>2018-07-21T12:40:54Z</time>
      </trkpt>
      <trkpt lat="41.066900" lon="-3.737900">
        <ele>1930.0</ele>
        <time>2018-07-21T12:40:55Z</time>
      </trkpt>
      <trkpt lat="41.066950" lon="-3.737967">
        <ele>1928.0</ele>
        <time>2018-07-21T12:40:56Z</time>
      </trkpt>
      <trkpt lat="41.067000" lon="-3.738050">
        <ele>1926.0</ele>
        <time>2018-07-21T12:40:57Z</time>
      </trkpt>
      <trkpt lat="41.067033" lon="-3.738117">
        <ele>1924.0</ele>
        <time>2018-07-21T12:40:58Z</time>
      </trkpt>
      <trkpt lat="41.067067" lon="-3.738183">
        <ele>1922.0</ele>
        <time>2018-07-21T12:40:59Z</time>
      </trkpt>
      <trkpt lat="41.067083" lon="-3.738267">
        <ele>1921.0</ele>
        <time>2018-07-21T12:41:00Z</time>
      </trkpt>
      <trkpt lat="41.067100" lon="-3.738350">
        <ele>1919.0</ele>
        <time>2018-07-21T12:41:01Z</time>
      </trkpt>
      <trkpt lat="41.067083" lon="-3.738450">
        <ele>1916.0</ele>
        <time>2018-07-21T12:41:02Z</time>
      </trkpt>
      <trkpt lat="41.067067" lon="-3.738533">
        <ele>1915.0</ele>
        <time>2018-07-21T12:41:03Z</time>
      </trkpt>
      <trkpt lat="41.067033" lon="-3.738617">
        <ele>1914.0</ele>
        <time>2018-07-21T12:41:04Z</time>
      </trkpt>
      <trkpt lat="41.067000" lon="-3.738700">
        <ele>1913.0</ele>
        <time>2018-07-21T12:41:05Z</time>
      </trkpt>
      <trkpt lat="41.066967" lon="-3.738767">
        <ele>1911.0</ele>
        <time>2018-07-21T12:41:06Z</time>
      </trkpt>
      <trkpt lat="41.066917" lon="-3.738833">
        <ele>1909.0</ele>
        <time>2018-07-21T12:41:07Z</time>
      </trkpt>
      <trkpt lat="41.066850" lon="-3.738900">
        <ele>1908.0</ele>
        <time>2018-07-21T12:41:08Z</time>
      </trkpt>
      <trkpt lat="41.066783" lon="-3.738933">
        <ele>1906.0</ele>
        <time>2018-07-21T12:41:09Z</time>
      </trkpt>
      <trkpt lat="41.066717" lon="-3.738967">
        <ele>1904.0</ele>
        <time>2018-07-21T12:41:10Z</time>
      </trkpt>
      <trkpt lat="41.066617" lon="-3.739000">
        <ele>1902.0</ele>
        <time>2018-07-21T12:41:11Z</time>
      </trkpt>
      <trkpt lat="41.066533" lon="-3.739033">
        <ele>1901.0</ele>
        <time>2018-07-21T12:41:12Z</time>
      </trkpt>
      <trkpt lat="41.066433" lon="-3.739083">
        <ele>1899.0</ele>
        <time>2018-07-21T12:41:13Z</time>
      </trkpt>
      <trkpt lat="41.066350" lon="-3.739117">
        <ele>1898.0</ele>
        <time>2018-07-21T12:41:14Z</time>
      </trkpt>
      <trkpt lat="41.066267" lon="-3.739167">
        <ele>1897.0</ele>
        <time>2018-07-21T12:41:15Z</time>
      </trkpt>
      <trkpt lat="41.066167" lon="-3.739200">
        <ele>1896.0</ele>
        <time>2018-07-21T12:41:16Z</time>
      </trkpt>
      <trkpt lat="41.066083" lon="-3.739233">
        <ele>1894.0</ele>
        <time>2018-07-21T12:41:17Z</time>
      </trkpt>
      <trkpt lat="41.066000" lon="-3.739267">
        <ele>1893.0</ele>
        <time>2018-07-21T12:41:18Z</time>
      </trkpt>
      <trkpt lat="41.065900" lon="-3.739317">
        <ele>1891.0</ele>
        <time>2018-07-21T12:41:19Z</time>
      </trkpt>
      <trkpt lat="41.065817" lon="-3.739350">
        <ele>1889.0</ele>
        <time>2018-07-21T12:41:20Z</time>
      </trkpt>
      <trkpt lat="41.065717" lon="-3.739383">
        <ele>1887.0</ele>
        <time>2018-07-21T12:41:21Z</time>
      </trkpt>
      <trkpt lat="41.065617" lon="-3.739400">
        <ele>1886.0</ele>
        <time>2018-07-21T12:41:22Z</time>
      </trkpt>
      <trkpt lat="41.065500" lon="-3.739400">
        <ele>1884.0</ele>
        <time>2018-07-21T12:41:23Z</time>
      </trkpt>
      <trkpt lat="41.065400" lon="-3.739417">
        <ele>1883.0</ele>
        <time>2018-07-21T12:41:24Z</time>
      </trkpt>
      <trkpt lat="41.065300" lon="-3.739417">
        <ele>1882.0</ele>
        <time>2018-07-21T12:41:25Z</time>
      </trkpt>
      <trkpt lat="41.065200" lon="-3.739433">
        <ele>1881.0</ele>
        <time>2018-07-21T12:41:26Z</time>
      </trkpt>
      <trkpt lat="41.065100" lon="-3.739467">
        <ele>1880.0</ele>
        <time>2018-07-21T12:41:27Z</time>
      </trkpt>
      <trkpt lat="41.065000" lon="-3.739500">
        <ele>1879.0</ele>
        <time>2018-07-21T12:41:28Z</time>
      </trkpt>
      <trkpt lat="41.064900" lon="-3.739533">
        <ele>1878.0</ele>
        <time>2018-07-21T12:41:29Z</time>
      </trkpt>
      <trkpt lat="41.064800" lon="-3.739550">
        <ele>1877.0</ele>
        <time>2018-07-21T12:41:30Z</time>
      </trkpt>
      <trkpt lat="41.064717" lon="-3.739583">
        <ele>1876.0</ele>
        <time>2018-07-21T12:41:31Z</time>
      </trkpt>
      <trkpt lat="41.064633" lon="-3.739617">
        <ele>1874.0</ele>
        <time>2018-07-21T12:41:32Z</time>
      </trkpt>
      <trkpt lat="41.064533" lon="-3.739667">
        <ele>1871.0</ele>
        <time>2018-07-21T12:41:33Z</time>
      </trkpt>
      <trkpt lat="41.064450" lon="-3.739733">
        <ele>1869.0</ele>
        <time>2018-07-21T12:41:34Z</time>
      </trkpt>
      <trkpt lat="41.064350" lon="-3.739783">
        <ele>1868.0</ele>
        <time>2018-07-21T12:41:35Z</time>
      </trkpt>
      <trkpt lat="41.064267" lon="-3.739833">
        <ele>1867.0</ele>
        <time>2018-07-21T12:41:36Z</time>
      </trkpt>
      <trkpt lat="41.064167" lon="-3.739867">
        <ele>1867.0</ele>
        <time>2018-07-21T12:41:37Z</time>
      </trkpt>
      <trkpt lat="41.064083" lon="-3.739917">
        <ele>1867.0</ele>
        <time>2018-07-21T12:41:38Z</time>
      </trkpt>
      <trkpt lat="41.064000" lon="-3.739950">
        <ele>1866.0</ele>
        <time>2018-07-21T12:41:39Z</time>
      </trkpt>
      <trkpt lat="41.063900" lon="-3.740000">
        <ele>1864.0</ele>
        <time>2018-07-21T12:41:40Z</time>
      </trkpt>
      <trkpt lat="41.063800" lon="-3.740033">
        <ele>1863.0</ele>
        <time>2018-07-21T12:41:41Z</time>
      </trkpt>
      <trkpt lat="41.063700" lon="-3.740083">
        <ele>1862.0</ele>
        <time>2018-07-21T12:41:42Z</time>
      </trkpt>
      <trkpt lat="41.063600" lon="-3.740117">
        <ele>1862.0</ele>
        <time>2018-07-21T12:41:43Z</time>
      </trkpt>
      <trkpt lat="41.063517" lon="-3.740167">
        <ele>1861.0</ele>
        <time>2018-07-21T12:41:44Z</time>
      </trkpt>
      <trkpt lat="41.063433" lon="-3.740217">
        <ele>1860.0</ele>
        <time>2018-07-21T12:41:45Z</time>
      </trkpt>
      <trkpt lat="41.063333" lon="-3.740250">
        <ele>1859.0</ele>
        <time>2018-07-21T12:41:46Z</time>
      </trkpt>
      <trkpt lat="41.063233" lon="-3.740300">
        <ele>1858.0</ele>
        <time>2018-07-21T12:41:47Z</time>
      </trkpt>
      <trkpt lat="41.063133" lon="-3.740317">
        <ele>1857.0</ele>
        <time>2018-07-21T12:41:48Z</time>
      </trkpt>
      <trkpt lat="41.063033" lon="-3.740350">
        <ele>1857.0</ele>
        <time>2018-07-21T12:41:49Z</time>
      </trkpt>
      <trkpt lat="41.062917" lon="-3.740383">
        <ele>1856.0</ele>
        <time>2018-07-21T12:41:50Z</time>
      </trkpt>
      <trkpt lat="41.062817" lon="-3.740400">
        <ele>1856.0</ele>
        <time>2018-07-21T12:41:51Z</time>
      </trkpt>
      <trkpt lat="41.062717" lon="-3.740433">
        <ele>1855.0</ele>
        <time>2018-07-21T12:41:52Z</time>
      </trkpt>
      <trkpt lat="41.062600" lon="-3.740433">
        <ele>1854.0</ele>
        <time>2018-07-21T12:41:53Z</time>
      </trkpt>
      <trkpt lat="41.062500" lon="-3.740450">
        <ele>1853.0</ele>
        <time>2018-07-21T12:41:54Z</time>
      </trkpt>
      <trkpt lat="41.062383" lon="-3.740467">
        <ele>1852.0</ele>
        <time>2018-07-21T12:41:55Z</time>
      </trkpt>
      <trkpt lat="41.062267" lon="-3.740483">
        <ele>1851.0</ele>
        <time>2018-07-21T12:41:56Z</time>
      </trkpt>
      <trkpt lat="41.062150" lon="-3.740500">
        <ele>1851.0</ele>
        <time>2018-07-21T12:41:57Z</time>
      </trkpt>
      <trkpt lat="41.062033" lon="-3.740500">
        <ele>1851.0</ele>
        <time>2018-07-21T12:41:58Z</time>
      </trkpt>
      <trkpt lat="41.061917" lon="-3.740517">
        <ele>1850.0</ele>
        <time>2018-07-21T12:41:59Z</time>
      </trkpt>
      <trkpt lat="41.061817" lon="-3.740517">
        <ele>1850.0</ele>
        <time>2018-07-21T12:42:00Z</time>
      </trkpt>
      <trkpt lat="41.061700" lon="-3.740517">
        <ele>1850.0</ele>
        <time>2018-07-21T12:42:01Z</time>
      </trkpt>
      <trkpt lat="41.061600" lon="-3.740517">
        <ele>1849.0</ele>
        <time>2018-07-21T12:42:02Z</time>
      </trkpt>
      <trkpt lat="41.061483" lon="-3.740500">
        <ele>1848.0</ele>
        <time>2018-07-21T12:42:03Z</time>
      </trkpt>
      <trkpt lat="41.061367" lon="-3.740467">
        <ele>1846.0</ele>
        <time>2018-07-21T12:42:04Z</time>
      </trkpt>
      <trkpt lat="41.061250" lon="-3.740433">
        <ele>1844.0</ele>
        <time>2018-07-21T12:42:05Z</time>
      </trkpt>
      <trkpt lat="41.061117" lon="-3.740383">
        <ele>1842.0</ele>
        <time>2018-07-21T12:42:06Z</time>
      </trkpt>
      <trkpt lat="41.060983" lon="-3.740333">
        <ele>1841.0</ele>
        <time>2018-07-21T12:42:07Z</time>
      </trkpt>
      <trkpt lat="41.060867" lon="-3.740250">
        <ele>1842.0</ele>
        <time>2018-07-21T12:42:08Z</time>
      </trkpt>
      <trkpt lat="41.060750" lon="-3.740150">
        <ele>1842.0</ele>
        <time>2018-07-21T12:42:09Z</time>
      </trkpt>
      <trkpt lat="41.060650" lon="-3.740050">
        <ele>1841.0</ele>
        <time>2018-07-21T12:42:10Z</time>
      </trkpt>
      <trkpt lat="41.060550" lon="-3.739950">
        <ele>1841.0</ele>
        <time>2018-07-21T12:42:11Z</time>
      </trkpt>
      <trkpt lat="41.060433" lon="-3.739883">
        <ele>1839.0</ele>
        <time>2018-07-21T12:42:12Z</time>
      </trkpt>
      <trkpt lat="41.060300" lon="-3.739850">
        <ele>1837.0</ele>
        <time>2018-07-21T12:42:13Z</time>
      </trkpt>
      <trkpt lat="41.060183" lon="-3.739817">
        <ele>1835.0</ele>
        <time>2018-07-21T12:42:14Z</time>
      </trkpt>
      <trkpt lat="41.060050" lon="-3.739817">
        <ele>1834.0</ele>
        <time>2018-07-21T12:42:15Z</time>
      </trkpt>
      <trkpt lat="41.059933" lon="-3.739800">
        <ele>1833.0</ele>
        <time>2018-07-21T12:42:16Z</time>
      </trkpt>
      <trkpt lat="41.059817" lon="-3.739783">
        <ele>1833.0</ele>
        <time>2018-07-21T12:42:17Z</time>
      </trkpt>
      <trkpt lat="41.059700" lon="-3.739783">
        <ele>1832.0</ele>
        <time>2018-07-21T12:42:18Z</time>
      </trkpt>
      <trkpt lat="41.059600" lon="-3.739783">
        <ele>1831.0</ele>
        <time>2018-07-21T12:42:19Z</time>
      </trkpt>
      <trkpt lat="41.059483" lon="-3.739783">
        <ele>1830.0</ele>
        <time>2018-07-21T12:42:20Z</time>
      </trkpt>
      <trkpt lat="41.059383" lon="-3.739800">
        <ele>1829.0</ele>
        <time>2018-07-21T12:42:21Z</time>
      </trkpt>
      <trkpt lat="41.059267" lon="-3.739800">
        <ele>1828.0</ele>
        <time>2018-07-21T12:42:22Z</time>
      </trkpt>
      <trkpt lat="41.059150" lon="-3.739817">
        <ele>1826.0</ele>
        <time>2018-07-21T12:42:23Z</time>
      </trkpt>
      <trkpt lat="41.059050" lon="-3.739817">
        <ele>1824.0</ele>
        <time>2018-07-21T12:42:24Z</time>
      </trkpt>
      <trkpt lat="41.058917" lon="-3.739800">
        <ele>1822.0</ele>
        <time>2018-07-21T12:42:25Z</time>
      </trkpt>
      <trkpt lat="41.058800" lon="-3.739750">
        <ele>1820.0</ele>
        <time>2018-07-21T12:42:26Z</time>
      </trkpt>
      <trkpt lat="41.058667" lon="-3.739650">
        <ele>1818.0</ele>
        <time>2018-07-21T12:42:27Z</time>
      </trkpt>
      <trkpt lat="41.058550" lon="-3.739533">
        <ele>1817.0</ele>
        <time>2018-07-21T12:42:28Z</time>
      </trkpt>
      <trkpt lat="41.058467" lon="-3.739383">
        <ele>1817.0</ele>
        <time>2018-07-21T12:42:29Z</time>
      </trkpt>
      <trkpt lat="41.058417" lon="-3.739250">
        <ele>1817.0</ele>
        <time>2018-07-21T12:42:30Z</time>
      </trkpt>
      <trkpt lat="41.058367" lon="-3.739100">
        <ele>1816.0</ele>
        <time>2018-07-21T12:42:31Z</time>
      </trkpt>
      <trkpt lat="41.058317" lon="-3.738967">
        <ele>1815.0</ele>
        <time>2018-07-21T12:42:32Z</time>
      </trkpt>
      <trkpt lat="41.058300" lon="-3.738817">
        <ele>1815.0</ele>
        <time>2018-07-21T12:42:33Z</time>
      </trkpt>
      <trkpt lat="41.058267" lon="-3.738667">
        <ele>1814.0</ele>
        <time>2018-07-21T12:42:34Z</time>
      </trkpt>
      <trkpt lat="41.058267" lon="-3.738517">
        <ele>1814.0</ele>
        <time>2018-07-21T12:42:35Z</time>
      </trkpt>
      <trkpt lat="41.058267" lon="-3.738367">
        <ele>1815.0</ele>
        <time>2018-07-21T12:42:36Z</time>
      </trkpt>
      <trkpt lat="41.058283" lon="-3.738217">
        <ele>1815.0</ele>
        <time>2018-07-21T12:42:37Z</time>
      </trkpt>
      <trkpt lat="41.058317" lon="-3.738067">
        <ele>1815.0</ele>
        <time>2018-07-21T12:42:38Z</time>
      </trkpt>
      <trkpt lat="41.058333" lon="-3.737933">
        <ele>1817.0</ele>
        <time>2018-07-21T12:42:39Z</time>
      </trkpt>
      <trkpt lat="41.058350" lon="-3.737800">
        <ele>1818.0</ele>
        <time>2018-07-21T12:42:40Z</time>
      </trkpt>
      <trkpt lat="41.058350" lon="-3.737650">
        <ele>1819.0</ele>
        <time>2018-07-21T12:42:41Z</time>
      </trkpt>
      <trkpt lat="41.058367" lon="-3.737517">
        <ele>1820.0</ele>
        <time>2018-07-21T12:42:42Z</time>
      </trkpt>
      <trkpt lat="41.058383" lon="-3.737400">
        <ele>1819.0</ele>
        <time>2018-07-21T12:42:43Z</time>
      </trkpt>
      <trkpt lat="41.058417" lon="-3.737283">
        <ele>1818.0</ele>
        <time>2018-07-21T12:42:44Z</time>
      </trkpt>
      <trkpt lat="41.058450" lon="-3.737167">
        <ele>1817.0</ele>
        <time>2018-07-21T12:42:45Z</time>
      </trkpt>
      <trkpt lat="41.058483" lon="-3.737067">
        <ele>1816.0</ele>
        <time>2018-07-21T12:42:46Z</time>
      </trkpt>
      <trkpt lat="41.058533" lon="-3.736950">
        <ele>1816.0</ele>
        <time>2018-07-21T12:42:47Z</time>
      </trkpt>
      <trkpt lat="41.058567" lon="-3.736833">
        <ele>1817.0</ele>
        <time>2018-07-21T12:42:48Z</time>
      </trkpt>
      <trkpt lat="41.058600" lon="-3.736733">
        <ele>1817.0</ele>
        <time>2018-07-21T12:42:49Z</time>
      </trkpt>
      <trkpt lat="41.058650" lon="-3.736633">
        <ele>1817.0</ele>
        <time>2018-07-21T12:42:50Z</time>
      </trkpt>
      <trkpt lat="41.058683" lon="-3.736533">
        <ele>1817.0</ele>
        <time>2018-07-21T12:42:51Z</time>
      </trkpt>
      <trkpt lat="41.058733" lon="-3.736467">
        <ele>1817.0</ele>
        <time>2018-07-21T12:42:52Z</time>
      </trkpt>
      <trkpt lat="41.058783" lon="-3.736433">
        <ele>1817.0</ele>
        <time>2018-07-21T12:42:53Z</time>
      </trkpt>
      <trkpt lat="41.058833" lon="-3.736417">
        <ele>1817.0</ele>
        <time>2018-07-21T12:42:54Z</time>
      </trkpt>
      <trkpt lat="41.058883" lon="-3.736433">
        <ele>1817.0</ele>
        <time>2018-07-21T12:42:55Z</time>
      </trkpt>
      <trkpt lat="41.058917" lon="-3.736483">
        <ele>1817.0</ele>
        <time>2018-07-21T12:42:56Z</time>
      </trkpt>
      <trkpt lat="41.058933" lon="-3.736550">
        <ele>1816.0</ele>
        <time>2018-07-21T12:42:57Z</time>
      </trkpt>
      <trkpt lat="41.058933" lon="-3.736617">
        <ele>1816.0</ele>
        <time>2018-07-21T12:42:58Z</time>
      </trkpt>
      <trkpt lat="41.058917" lon="-3.736700">
        <ele>1816.0</ele>
        <time>2018-07-21T12:42:59Z</time>
      </trkpt>
      <trkpt lat="41.058883" lon="-3.736800">
        <ele>1815.0</ele>
        <time>2018-07-21T12:43:00Z</time>
      </trkpt>
      <trkpt lat="41.058850" lon="-3.736883">
        <ele>1815.0</ele>
        <time>2018-07-21T12:43:01Z</time>
      </trkpt>
      <trkpt lat="41.058800" lon="-3.736950">
        <ele>1816.0</ele>
        <time>2018-07-21T12:43:02Z</time>
      </trkpt>
      <trkpt lat="41.058750" lon="-3.737017">
        <ele>1817.0</ele>
        <time>2018-07-21T12:43:03Z</time>
      </trkpt>
      <trkpt lat="41.058700" lon="-3.737083">
        <ele>1817.0</ele>
        <time>2018-07-21T12:43:04Z</time>
      </trkpt>
      <trkpt lat="41.058633" lon="-3.737150">
        <ele>1818.0</ele>
        <time>2018-07-21T12:43:05Z</time>
      </trkpt>
      <trkpt lat="41.058550" lon="-3.737183">
        <ele>1818.0</ele>
        <time>2018-07-21T12:43:06Z</time>
      </trkpt>
      <trkpt lat="41.058467" lon="-3.737217">
        <ele>1818.0</ele>
        <time>2018-07-21T12:43:07Z</time>
      </trkpt>
      <trkpt lat="41.058367" lon="-3.737250">
        <ele>1818.0</ele>
        <time>2018-07-21T12:43:08Z</time>
      </trkpt>
      <trkpt lat="41.058267" lon="-3.737267">
        <ele>1818.0</ele>
        <time>2018-07-21T12:43:09Z</time>
      </trkpt>
      <trkpt lat="41.058167" lon="-3.737283">
        <ele>1818.0</ele>
        <time>2018-07-21T12:43:10Z</time>
      </trkpt>
      <trkpt lat="41.058050" lon="-3.737300">
        <ele>1818.0</ele>
        <time>2018-07-21T12:43:11Z</time>
      </trkpt>
      <trkpt lat="41.057967" lon="-3.737333">
        <ele>1818.0</ele>
        <time>2018-07-21T12:43:12Z</time>
      </trkpt>
      <trkpt lat="41.057867" lon="-3.737367">
        <ele>1817.0</ele>
        <time>2018-07-21T12:43:13Z</time>
      </trkpt>
      <trkpt lat="41.057783" lon="-3.737433">
        <ele>1816.0</ele>
        <time>2018-07-21T12:43:14Z</time>
      </trkpt>
      <trkpt lat="41.057700" lon="-3.737500">
        <ele>1815.0</ele>
        <time>2018-07-21T12:43:15Z</time>
      </trkpt>
      <trkpt lat="41.057633" lon="-3.737583">
        <ele>1814.0</ele>
        <time>2018-07-21T12:43:16Z</time>
      </trkpt>
      <trkpt lat="41.057550" lon="-3.737650">
        <ele>1815.0</ele>
        <time>2018-07-21T12:43:17Z</time>
      </trkpt>
      <trkpt lat="41.057483" lon="-3.737717">
        <ele>1815.0</ele>
        <time>2018-07-21T12:43:18Z</time>
      </trkpt>
      <trkpt lat="41.057433" lon="-3.737783">
        <ele>1814.0</ele>
        <time>2018-07-21T12:43:19Z</time>
      </trkpt>
      <trkpt lat="41.057383" lon="-3.737850">
        <ele>1811.0</ele>
        <time>2018-07-21T12:43:20Z</time>
      </trkpt>
      <trkpt lat="41.057333" lon="-3.737950">
        <ele>1809.0</ele>
        <time>2018-07-21T12:43:21Z</time>
      </trkpt>
      <trkpt lat="41.057300" lon="-3.738067">
        <ele>1809.0</ele>
        <time>2018-07-21T12:43:22Z</time>
      </trkpt>
      <trkpt lat="41.057283" lon="-3.738183">
        <ele>1813.0</ele>
        <time>2018-07-21T12:43:23Z</time>
      </trkpt>
      <trkpt lat="41.057267" lon="-3.738267">
        <ele>1817.0</ele>
        <time>2018-07-21T12:43:24Z</time>
      </trkpt>
      <trkpt lat="41.057217" lon="-3.738317">
        <ele>1821.0</ele>
        <time>2018-07-21T12:43:25Z</time>
      </trkpt>
      <trkpt lat="41.057167" lon="-3.738350">
        <ele>1822.0</ele>
        <time>2018-07-21T12:43:26Z</time>
      </trkpt>
      <trkpt lat="41.057117" lon="-3.738400">
        <ele>1821.0</ele>
        <time>2018-07-21T12:43:27Z</time>
      </trkpt>
      <trkpt lat="41.057067" lon="-3.738450">
        <ele>1820.0</ele>
        <time>2018-07-21T12:43:28Z</time>
      </trkpt>
      <trkpt lat="41.057033" lon="-3.738550">
        <ele>1818.0</ele>
        <time>2018-07-21T12:43:29Z</time>
      </trkpt>
      <trkpt lat="41.057033" lon="-3.738650">
        <ele>1816.0</ele>
        <time>2018-07-21T12:43:30Z</time>
      </trkpt>
      <trkpt lat="41.057050" lon="-3.738750">
        <ele>1815.0</ele>
        <time>2018-07-21T12:43:31Z</time>
      </trkpt>
      <trkpt lat="41.057050" lon="-3.738850">
        <ele>1817.0</ele>
        <time>2018-07-21T12:43:32Z</time>
      </trkpt>
      <trkpt lat="41.057050" lon="-3.738917">
        <ele>1819.0</ele>
        <time>2018-07-21T12:43:33Z</time>
      </trkpt>
      <trkpt lat="41.057033" lon="-3.738983">
        <ele>1820.0</ele>
        <time>2018-07-21T12:43:34Z</time>
      </trkpt>
      <trkpt lat="41.057033" lon="-3.739050">
        <ele>1819.0</ele>
        <time>2018-07-21T12:43:35Z</time>
      </trkpt>
      <trkpt lat="41.057033" lon="-3.739133">
        <ele>1817.0</ele>
        <time>2018-07-21T12:43:36Z</time>
      </trkpt>
      <trkpt lat="41.057033" lon="-3.739217">
        <ele>1815.0</ele>
        <time>2018-07-21T12:43:37Z</time>
      </trkpt>
      <trkpt lat="41.057050" lon="-3.739317">
        <ele>1814.0</ele>
        <time>2018-07-21T12:43:38Z</time>
      </trkpt>
      <trkpt lat="41.057050" lon="-3.739400">
        <ele>1815.0</ele>
        <time>2018-07-21T12:43:39Z</time>
      </trkpt>
      <trkpt lat="41.057033" lon="-3.739483">
        <ele>1816.0</ele>
        <time>2018-07-21T12:43:40Z</time>
      </trkpt>
      <trkpt lat="41.057033" lon="-3.739567">
        <ele>1817.0</ele>
        <time>2018-07-21T12:43:41Z</time>
      </trkpt>
      <trkpt lat="41.057050" lon="-3.739650">
        <ele>1818.0</ele>
        <time>2018-07-21T12:43:42Z</time>
      </trkpt>
      <trkpt lat="41.057033" lon="-3.739750">
        <ele>1819.0</ele>
        <time>2018-07-21T12:43:43Z</time>
      </trkpt>
      <trkpt lat="41.057033" lon="-3.739833">
        <ele>1820.0</ele>
        <time>2018-07-21T12:43:44Z</time>
      </trkpt>
      <trkpt lat="41.057017" lon="-3.739917">
        <ele>1820.0</ele>
        <time>2018-07-21T12:43:45Z</time>
      </trkpt>
      <trkpt lat="41.057000" lon="-3.740000">
        <ele>1821.0</ele>
        <time>2018-07-21T12:43:46Z</time>
      </trkpt>
      <trkpt lat="41.056983" lon="-3.740083">
        <ele>1820.0</ele>
        <time>2018-07-21T12:43:47Z</time>
      </trkpt>
      <trkpt lat="41.057000" lon="-3.740183">
        <ele>1820.0</ele>
        <time>2018-07-21T12:43:48Z</time>
      </trkpt>
      <trkpt lat="41.057017" lon="-3.740267">
        <ele>1819.0</ele>
        <time>2018-07-21T12:43:49Z</time>
      </trkpt>
      <trkpt lat="41.057033" lon="-3.740350">
        <ele>1820.0</ele>
        <time>2018-07-21T12:43:50Z</time>
      </trkpt>
      <trkpt lat="41.057067" lon="-3.740400">
        <ele>1820.0</ele>
        <time>2018-07-21T12:43:51Z</time>
      </trkpt>
      <trkpt lat="41.057100" lon="-3.740433">
        <ele>1820.0</ele>
        <time>2018-07-21T12:43:52Z</time>
      </trkpt>
      <trkpt lat="41.057133" lon="-3.740483">
        <ele>1819.0</ele>
        <time>2018-07-21T12:43:53Z</time>
      </trkpt>
      <trkpt lat="41.057167" lon="-3.740550">
        <ele>1818.0</ele>
        <time>2018-07-21T12:43:54Z</time>
      </trkpt>
      <trkpt lat="41.057183" lon="-3.740617">
        <ele>1818.0</ele>
        <time>2018-07-21T12:43:55Z</time>
      </trkpt>
      <trkpt lat="41.057200" lon="-3.740700">
        <ele>1817.0</ele>
        <time>2018-07-21T12:43:56Z</time>
      </trkpt>
      <trkpt lat="41.057217" lon="-3.740800">
        <ele>1818.0</ele>
        <time>2018-07-21T12:43:57Z</time>
      </trkpt>
      <trkpt lat="41.057233" lon="-3.740883">
        <ele>1819.0</ele>
        <time>2018-07-21T12:43:58Z</time>
      </trkpt>
      <trkpt lat="41.057233" lon="-3.740983">
        <ele>1820.0</ele>
        <time>2018-07-21T12:43:59Z</time>
      </trkpt>
      <trkpt lat="41.057217" lon="-3.741067">
        <ele>1821.0</ele>
        <time>2018-07-21T12:44:00Z</time>
      </trkpt>
      <trkpt lat="41.057200" lon="-3.741150">
        <ele>1821.0</ele>
        <time>2018-07-21T12:44:01Z</time>
      </trkpt>
      <trkpt lat="41.057200" lon="-3.741250">
        <ele>1821.0</ele>
        <time>2018-07-21T12:44:02Z</time>
      </trkpt>
      <trkpt lat="41.057217" lon="-3.741333">
        <ele>1821.0</ele>
        <time>2018-07-21T12:44:03Z</time>
      </trkpt>
      <trkpt lat="41.057233" lon="-3.741433">
        <ele>1821.0</ele>
        <time>2018-07-21T12:44:04Z</time>
      </trkpt>
      <trkpt lat="41.057250" lon="-3.741533">
        <ele>1822.0</ele>
        <time>2018-07-21T12:44:05Z</time>
      </trkpt>
      <trkpt lat="41.057250" lon="-3.741633">
        <ele>1823.0</ele>
        <time>2018-07-21T12:44:06Z</time>
      </trkpt>
      <trkpt lat="41.057250" lon="-3.741717">
        <ele>1824.0</ele>
        <time>2018-07-21T12:44:07Z</time>
      </trkpt>
      <trkpt lat="41.057250" lon="-3.741783">
        <ele>1824.0</ele>
        <time>2018-07-21T12:44:08Z</time>
      </trkpt>
      <trkpt lat="41.057250" lon="-3.741850">
        <ele>1824.0</ele>
        <time>2018-07-21T12:44:09Z</time>
      </trkpt>
      <trkpt lat="41.057250" lon="-3.741933">
        <ele>1824.0</ele>
        <time>2018-07-21T12:44:10Z</time>
      </trkpt>
      <trkpt lat="41.057283" lon="-3.742000">
        <ele>1824.0</ele>
        <time>2018-07-21T12:44:11Z</time>
      </trkpt>
      <trkpt lat="41.057300" lon="-3.742083">
        <ele>1825.0</ele>
        <time>2018-07-21T12:44:12Z</time>
      </trkpt>
      <trkpt lat="41.057333" lon="-3.742150">
        <ele>1826.0</ele>
        <time>2018-07-21T12:44:13Z</time>
      </trkpt>
      <trkpt lat="41.057367" lon="-3.742200">
        <ele>1828.0</ele>
        <time>2018-07-21T12:44:14Z</time>
      </trkpt>
      <trkpt lat="41.057400" lon="-3.742217">
        <ele>1829.0</ele>
        <time>2018-07-21T12:44:15Z</time>
      </trkpt>
      <trkpt lat="41.057450" lon="-3.742200">
        <ele>1829.0</ele>
        <time>2018-07-21T12:44:16Z</time>
      </trkpt>
      <trkpt lat="41.057517" lon="-3.742150">
        <ele>1828.0</ele>
        <time>2018-07-21T12:44:17Z</time>
      </trkpt>
      <trkpt lat="41.057583" lon="-3.742067">
        <ele>1827.0</ele>
        <time>2018-07-21T12:44:18Z</time>
      </trkpt>
      <trkpt lat="41.057650" lon="-3.741950">
        <ele>1828.0</ele>
        <time>2018-07-21T12:44:19Z</time>
      </trkpt>
      <trkpt lat="41.057683" lon="-3.741783">
        <ele>1829.0</ele>
        <time>2018-07-21T12:44:20Z</time>
      </trkpt>
      <trkpt lat="41.057667" lon="-3.741617">
        <ele>1830.0</ele>
        <time>2018-07-21T12:44:21Z</time>
      </trkpt>
      <trkpt lat="41.057600" lon="-3.741433">
        <ele>1830.0</ele>
        <time>2018-07-21T12:44:22Z</time>
      </trkpt>
      <trkpt lat="41.057517" lon="-3.741283">
        <ele>1831.0</ele>
        <time>2018-07-21T12:44:23Z</time>
      </trkpt>
      <trkpt lat="41.057400" lon="-3.741167">
        <ele>1832.0</ele>
        <time>2018-07-21T12:44:24Z</time>
      </trkpt>
      <trkpt lat="41.057283" lon="-3.741100">
        <ele>1832.0</ele>
        <time>2018-07-21T12:44:25Z</time>
      </trkpt>
      <trkpt lat="41.057167" lon="-3.741067">
        <ele>1832.0</ele>
        <time>2018-07-21T12:44:26Z</time>
      </trkpt>
      <trkpt lat="41.057033" lon="-3.741067">
        <ele>1832.0</ele>
        <time>2018-07-21T12:44:27Z</time>
      </trkpt>
      <trkpt lat="41.056917" lon="-3.741083">
        <ele>1832.0</ele>
        <time>2018-07-21T12:44:28Z</time>
      </trkpt>
      <trkpt lat="41.056817" lon="-3.741133">
        <ele>1832.0</ele>
        <time>2018-07-21T12:44:29Z</time>
      </trkpt>
      <trkpt lat="41.056733" lon="-3.741200">
        <ele>1832.0</ele>
        <time>2018-07-21T12:44:30Z</time>
      </trkpt>
      <trkpt lat="41.056667" lon="-3.741283">
        <ele>1831.0</ele>
        <time>2018-07-21T12:44:31Z</time>
      </trkpt>
      <trkpt lat="41.056617" lon="-3.741383">
        <ele>1831.0</ele>
        <time>2018-07-21T12:44:32Z</time>
      </trkpt>
      <trkpt lat="41.056567" lon="-3.741500">
        <ele>1831.0</ele>
        <time>2018-07-21T12:44:33Z</time>
      </trkpt>
      <trkpt lat="41.056533" lon="-3.741617">
        <ele>1832.0</ele>
        <time>2018-07-21T12:44:34Z</time>
      </trkpt>
      <trkpt lat="41.056517" lon="-3.741717">
        <ele>1834.0</ele>
        <time>2018-07-21T12:44:35Z</time>
      </trkpt>
      <trkpt lat="41.056483" lon="-3.741817">
        <ele>1836.0</ele>
        <time>2018-07-21T12:44:36Z</time>
      </trkpt>
      <trkpt lat="41.056483" lon="-3.741917">
        <ele>1839.0</ele>
        <time>2018-07-21T12:44:37Z</time>
      </trkpt>
      <trkpt lat="41.056467" lon="-3.741983">
        <ele>1840.0</ele>
        <time>2018-07-21T12:44:38Z</time>
      </trkpt>
      <trkpt lat="41.056483" lon="-3.742067">
        <ele>1840.0</ele>
        <time>2018-07-21T12:44:39Z</time>
      </trkpt>
      <trkpt lat="41.056500" lon="-3.742150">
        <ele>1841.0</ele>
        <time>2018-07-21T12:44:40Z</time>
      </trkpt>
      <trkpt lat="41.056500" lon="-3.742233">
        <ele>1842.0</ele>
        <time>2018-07-21T12:44:41Z</time>
      </trkpt>
      <trkpt lat="41.056517" lon="-3.742333">
        <ele>1843.0</ele>
        <time>2018-07-21T12:44:42Z</time>
      </trkpt>
      <trkpt lat="41.056500" lon="-3.742417">
        <ele>1844.0</ele>
        <time>2018-07-21T12:44:43Z</time>
      </trkpt>
      <trkpt lat="41.056450" lon="-3.742517">
        <ele>1845.0</ele>
        <time>2018-07-21T12:44:44Z</time>
      </trkpt>
      <trkpt lat="41.056367" lon="-3.742583">
        <ele>1846.0</ele>
        <time>2018-07-21T12:44:45Z</time>
      </trkpt>
      <trkpt lat="41.056267" lon="-3.742633">
        <ele>1847.0</ele>
        <time>2018-07-21T12:44:46Z</time>
      </trkpt>
      <trkpt lat="41.056150" lon="-3.742667">
        <ele>1847.0</ele>
        <time>2018-07-21T12:44:47Z</time>
      </trkpt>
      <trkpt lat="41.056033" lon="-3.742633">
        <ele>1847.0</ele>
        <time>2018-07-21T12:44:48Z</time>
      </trkpt>
      <trkpt lat="41.055917" lon="-3.742567">
        <ele>1848.0</ele>
        <time>2018-07-21T12:44:49Z</time>
      </trkpt>
      <trkpt lat="41.055800" lon="-3.742450">
        <ele>1848.0</ele>
        <time>2018-07-21T12:44:50Z</time>
      </trkpt>
      <trkpt lat="41.055717" lon="-3.742300">
        <ele>1849.0</ele>
        <time>2018-07-21T12:44:51Z</time>
      </trkpt>
      <trkpt lat="41.055667" lon="-3.742133">
        <ele>1849.0</ele>
        <time>2018-07-21T12:44:52Z</time>
      </trkpt>
      <trkpt lat="41.055650" lon="-3.741967">
        <ele>1849.0</ele>
        <time>2018-07-21T12:44:53Z</time>
      </trkpt>
      <trkpt lat="41.055667" lon="-3.741800">
        <ele>1849.0</ele>
        <time>2018-07-21T12:44:54Z</time>
      </trkpt>
      <trkpt lat="41.055717" lon="-3.741650">
        <ele>1849.0</ele>
        <time>2018-07-21T12:44:55Z</time>
      </trkpt>
      <trkpt lat="41.055783" lon="-3.741550">
        <ele>1850.0</ele>
        <time>2018-07-21T12:44:56Z</time>
      </trkpt>
      <trkpt lat="41.055867" lon="-3.741467">
        <ele>1852.0</ele>
        <time>2018-07-21T12:44:57Z</time>
      </trkpt>
      <trkpt lat="41.055933" lon="-3.741433">
        <ele>1854.0</ele>
        <time>2018-07-21T12:44:58Z</time>
      </trkpt>
      <trkpt lat="41.055983" lon="-3.741400">
        <ele>1857.0</ele>
        <time>2018-07-21T12:44:59Z</time>
      </trkpt>
      <trkpt lat="41.056033" lon="-3.741400">
        <ele>1859.0</ele>
        <time>2018-07-21T12:45:00Z</time>
      </trkpt>
      <trkpt lat="41.056083" lon="-3.741417">
        <ele>1859.0</ele>
        <time>2018-07-21T12:45:01Z</time>
      </trkpt>
      <trkpt lat="41.056100" lon="-3.741467">
        <ele>1860.0</ele>
        <time>2018-07-21T12:45:02Z</time>
      </trkpt>
      <trkpt lat="41.056133" lon="-3.741533">
        <ele>1860.0</ele>
        <time>2018-07-21T12:45:03Z</time>
      </trkpt>
      <trkpt lat="41.056133" lon="-3.741617">
        <ele>1861.0</ele>
        <time>2018-07-21T12:45:04Z</time>
      </trkpt>
      <trkpt lat="41.056117" lon="-3.741717">
        <ele>1864.0</ele>
        <time>2018-07-21T12:45:05Z</time>
      </trkpt>
      <trkpt lat="41.056083" lon="-3.741800">
        <ele>1866.0</ele>
        <time>2018-07-21T12:45:06Z</time>
      </trkpt>
      <trkpt lat="41.056033" lon="-3.741850">
        <ele>1869.0</ele>
        <time>2018-07-21T12:45:07Z</time>
      </trkpt>
      <trkpt lat="41.055950" lon="-3.741900">
        <ele>1870.0</ele>
        <time>2018-07-21T12:45:08Z</time>
      </trkpt>
      <trkpt lat="41.055867" lon="-3.741933">
        <ele>1872.0</ele>
        <time>2018-07-21T12:45:09Z</time>
      </trkpt>
      <trkpt lat="41.055767" lon="-3.741933">
        <ele>1872.0</ele>
        <time>2018-07-21T12:45:10Z</time>
      </trkpt>
      <trkpt lat="41.055650" lon="-3.741917">
        <ele>1871.0</ele>
        <time>2018-07-21T12:45:11Z</time>
      </trkpt>
      <trkpt lat="41.055517" lon="-3.741883">
        <ele>1871.0</ele>
        <time>2018-07-21T12:45:12Z</time>
      </trkpt>
      <trkpt lat="41.055400" lon="-3.741767">
        <ele>1871.0</ele>
        <time>2018-07-21T12:45:13Z</time>
      </trkpt>
      <trkpt lat="41.055300" lon="-3.741617">
        <ele>1873.0</ele>
        <time>2018-07-21T12:45:14Z</time>
      </trkpt>
      <trkpt lat="41.055267" lon="-3.741450">
        <ele>1873.0</ele>
        <time>2018-07-21T12:45:15Z</time>
      </trkpt>
      <trkpt lat="41.055267" lon="-3.741267">
        <ele>1873.0</ele>
        <time>2018-07-21T12:45:16Z</time>
      </trkpt>
      <trkpt lat="41.055300" lon="-3.741100">
        <ele>1873.0</ele>
        <time>2018-07-21T12:45:17Z</time>
      </trkpt>
      <trkpt lat="41.055367" lon="-3.740983">
        <ele>1874.0</ele>
        <time>2018-07-21T12:45:18Z</time>
      </trkpt>
      <trkpt lat="41.055467" lon="-3.740900">
        <ele>1875.0</ele>
        <time>2018-07-21T12:45:19Z</time>
      </trkpt>
      <trkpt lat="41.055550" lon="-3.740833">
        <ele>1875.0</ele>
        <time>2018-07-21T12:45:20Z</time>
      </trkpt>
      <trkpt lat="41.055633" lon="-3.740800">
        <ele>1877.0</ele>
        <time>2018-07-21T12:45:21Z</time>
      </trkpt>
      <trkpt lat="41.055717" lon="-3.740783">
        <ele>1879.0</ele>
        <time>2018-07-21T12:45:22Z</time>
      </trkpt>
      <trkpt lat="41.055783" lon="-3.740800">
        <ele>1881.0</ele>
        <time>2018-07-21T12:45:23Z</time>
      </trkpt>
      <trkpt lat="41.055833" lon="-3.740817">
        <ele>1883.0</ele>
        <time>2018-07-21T12:45:24Z</time>
      </trkpt>
      <trkpt lat="41.055883" lon="-3.740833">
        <ele>1886.0</ele>
        <time>2018-07-21T12:45:25Z</time>
      </trkpt>
      <trkpt lat="41.055950" lon="-3.740867">
        <ele>1888.0</ele>
        <time>2018-07-21T12:45:26Z</time>
      </trkpt>
      <trkpt lat="41.056000" lon="-3.740883">
        <ele>1889.0</ele>
        <time>2018-07-21T12:45:27Z</time>
      </trkpt>
      <trkpt lat="41.056067" lon="-3.740900">
        <ele>1891.0</ele>
        <time>2018-07-21T12:45:28Z</time>
      </trkpt>
      <trkpt lat="41.056117" lon="-3.740933">
        <ele>1894.0</ele>
        <time>2018-07-21T12:45:29Z</time>
      </trkpt>
      <trkpt lat="41.056150" lon="-3.741000">
        <ele>1895.0</ele>
        <time>2018-07-21T12:45:30Z</time>
      </trkpt>
      <trkpt lat="41.056167" lon="-3.741067">
        <ele>1897.0</ele>
        <time>2018-07-21T12:45:31Z</time>
      </trkpt>
      <trkpt lat="41.056133" lon="-3.741150">
        <ele>1898.0</ele>
        <time>2018-07-21T12:45:32Z</time>
      </trkpt>
      <trkpt lat="41.056050" lon="-3.741217">
        <ele>1899.0</ele>
        <time>2018-07-21T12:45:33Z</time>
      </trkpt>
      <trkpt lat="41.055950" lon="-3.741217">
        <ele>1900.0</ele>
        <time>2018-07-21T12:45:34Z</time>
      </trkpt>
      <trkpt lat="41.055850" lon="-3.741183">
        <ele>1901.0</ele>
        <time>2018-07-21T12:45:35Z</time>
      </trkpt>
      <trkpt lat="41.055733" lon="-3.741100">
        <ele>1902.0</ele>
        <time>2018-07-21T12:45:36Z</time>
      </trkpt>
      <trkpt lat="41.055633" lon="-3.740983">
        <ele>1904.0</ele>
        <time>2018-07-21T12:45:37Z</time>
      </trkpt>
      <trkpt lat="41.055550" lon="-3.740850">
        <ele>1905.0</ele>
        <time>2018-07-21T12:45:38Z</time>
      </trkpt>
      <trkpt lat="41.055500" lon="-3.740667">
        <ele>1906.0</ele>
        <time>2018-07-21T12:45:39Z</time>
      </trkpt>
      <trkpt lat="41.055483" lon="-3.740500">
        <ele>1907.0</ele>
        <time>2018-07-21T12:45:40Z</time>
      </trkpt>
      <trkpt lat="41.055517" lon="-3.740333">
        <ele>1909.0</ele>
        <time>2018-07-21T12:45:41Z</time>
      </trkpt>
      <trkpt lat="41.055583" lon="-3.740217">
        <ele>1911.0</ele>
        <time>2018-07-21T12:45:42Z</time>
      </trkpt>
      <trkpt lat="41.055667" lon="-3.740183">
        <ele>1913.0</ele>
        <time>2018-07-21T12:45:43Z</time>
      </trkpt>
      <trkpt lat="41.055733" lon="-3.740183">
        <ele>1916.0</ele>
        <time>2018-07-21T12:45:44Z</time>
      </trkpt>
      <trkpt lat="41.055783" lon="-3.740217">
        <ele>1919.0</ele>
        <time>2018-07-21T12:45:45Z</time>
      </trkpt>
      <trkpt lat="41.055833" lon="-3.740233">
        <ele>1922.0</ele>
        <time>2018-07-21T12:45:46Z</time>
      </trkpt>
      <trkpt lat="41.055867" lon="-3.740250">
        <ele>1924.0</ele>
        <time>2018-07-21T12:45:47Z</time>
      </trkpt>
      <trkpt lat="41.055900" lon="-3.740283">
        <ele>1925.0</ele>
        <time>2018-07-21T12:45:48Z</time>
      </trkpt>
      <trkpt lat="41.055917" lon="-3.740350">
        <ele>1924.0</ele>
        <time>2018-07-21T12:45:49Z</time>
      </trkpt>
      <trkpt lat="41.055917" lon="-3.740433">
        <ele>1924.0</ele>
        <time>2018-07-21T12:45:50Z</time>
      </trkpt>
      <trkpt lat="41.055883" lon="-3.740533">
        <ele>1925.0</ele>
        <time>2018-07-21T12:45:51Z</time>
      </trkpt>
      <trkpt lat="41.055800" lon="-3.740617">
        <ele>1927.0</ele>
        <time>2018-07-21T12:45:52Z</time>
      </trkpt>
      <trkpt lat="41.055717" lon="-3.740667">
        <ele>1930.0</ele>
        <time>2018-07-21T12:45:53Z</time>
      </trkpt>
      <trkpt lat="41.055617" lon="-3.740683">
        <ele>1933.0</ele>
        <time>2018-07-21T12:45:54Z</time>
      </trkpt>
      <trkpt lat="41.055500" lon="-3.740667">
        <ele>1936.0</ele>
        <time>2018-07-21T12:45:55Z</time>
      </trkpt>
      <trkpt lat="41.055400" lon="-3.740617">
        <ele>1939.0</ele>
        <time>2018-07-21T12:45:56Z</time>
      </trkpt>
      <trkpt lat="41.055300" lon="-3.740533">
        <ele>1940.0</ele>
        <time>2018-07-21T12:45:57Z</time>
      </trkpt>
      <trkpt lat="41.055183" lon="-3.740417">
        <ele>1940.0</ele>
        <time>2018-07-21T12:45:58Z</time>
      </trkpt>
      <trkpt lat="41.055100" lon="-3.740283">
        <ele>1941.0</ele>
        <time>2018-07-21T12:45:59Z</time>
      </trkpt>
      <trkpt lat="41.055033" lon="-3.740100">
        <ele>1942.0</ele>
        <time>2018-07-21T12:46:00Z</time>
      </trkpt>
      <trkpt lat="41.055017" lon="-3.739917">
        <ele>1943.0</ele>
        <time>2018-07-21T12:46:01Z</time>
      </trkpt>
      <trkpt lat="41.055067" lon="-3.739733">
        <ele>1945.0</ele>
        <time>2018-07-21T12:46:02Z</time>
      </trkpt>
      <trkpt lat="41.055117" lon="-3.739617">
        <ele>1947.0</ele>
        <time>2018-07-21T12:46:03Z</time>
      </trkpt>
      <trkpt lat="41.055200" lon="-3.739533">
        <ele>1949.0</ele>
        <time>2018-07-21T12:46:04Z</time>
      </trkpt>
      <trkpt lat="41.055283" lon="-3.739500">
        <ele>1951.0</ele>
        <time>2018-07-21T12:46:05Z</time>
      </trkpt>
      <trkpt lat="41.055350" lon="-3.739483">
        <ele>1954.0</ele>
        <time>2018-07-21T12:46:06Z</time>
      </trkpt>
      <trkpt lat="41.055400" lon="-3.739500">
        <ele>1956.0</ele>
        <time>2018-07-21T12:46:07Z</time>
      </trkpt>
      <trkpt lat="41.055433" lon="-3.739550">
        <ele>1958.0</ele>
        <time>2018-07-21T12:46:08Z</time>
      </trkpt>
      <trkpt lat="41.055467" lon="-3.739617">
        <ele>1959.0</ele>
        <time>2018-07-21T12:46:09Z</time>
      </trkpt>
      <trkpt lat="41.055500" lon="-3.739667">
        <ele>1961.0</ele>
        <time>2018-07-21T12:46:10Z</time>
      </trkpt>
      <trkpt lat="41.055550" lon="-3.739733">
        <ele>1963.0</ele>
        <time>2018-07-21T12:46:11Z</time>
      </trkpt>
      <trkpt lat="41.055583" lon="-3.739783">
        <ele>1965.0</ele>
        <time>2018-07-21T12:46:12Z</time>
      </trkpt>
      <trkpt lat="41.055617" lon="-3.739833">
        <ele>1967.0</ele>
        <time>2018-07-21T12:46:13Z</time>
      </trkpt>
      <trkpt lat="41.055633" lon="-3.739883">
        <ele>1969.0</ele>
        <time>2018-07-21T12:46:14Z</time>
      </trkpt>
      <trkpt lat="41.055650" lon="-3.739950">
        <ele>1971.0</ele>
        <time>2018-07-21T12:46:15Z</time>
      </trkpt>
      <trkpt lat="41.055633" lon="-3.740033">
        <ele>1973.0</ele>
        <time>2018-07-21T12:46:16Z</time>
      </trkpt>
      <trkpt lat="41.055600" lon="-3.740100">
        <ele>1974.0</ele>
        <time>2018-07-21T12:46:17Z</time>
      </trkpt>
      <trkpt lat="41.055517" lon="-3.740133">
        <ele>1976.0</ele>
        <time>2018-07-21T12:46:18Z</time>
      </trkpt>
      <trkpt lat="41.055417" lon="-3.740150">
        <ele>1976.0</ele>
        <time>2018-07-21T12:46:19Z</time>
      </trkpt>
      <trkpt lat="41.055283" lon="-3.740100">
        <ele>1977.0</ele>
        <time>2018-07-21T12:46:20Z</time>
      </trkpt>
      <trkpt lat="41.055167" lon="-3.740017">
        <ele>1978.0</ele>
        <time>2018-07-21T12:46:21Z</time>
      </trkpt>
      <trkpt lat="41.055067" lon="-3.739867">
        <ele>1979.0</ele>
        <time>2018-07-21T12:46:22Z</time>
      </trkpt>
      <trkpt lat="41.055017" lon="-3.739683">
        <ele>1980.0</ele>
        <time>2018-07-21T12:46:23Z</time>
      </trkpt>
      <trkpt lat="41.055000" lon="-3.739483">
        <ele>1981.0</ele>
        <time>2018-07-21T12:46:24Z</time>
      </trkpt>
      <trkpt lat="41.055050" lon="-3.739317">
        <ele>1984.0</ele>
        <time>2018-07-21T12:46:25Z</time>
      </trkpt>
      <trkpt lat="41.055100" lon="-3.739200">
        <ele>1987.0</ele>
        <time>2018-07-21T12:46:26Z</time>
      </trkpt>
      <trkpt lat="41.055167" lon="-3.739117">
        <ele>1989.0</ele>
        <time>2018-07-21T12:46:27Z</time>
      </trkpt>
      <trkpt lat="41.055233" lon="-3.739083">
        <ele>1991.0</ele>
        <time>2018-07-21T12:46:28Z</time>
      </trkpt>
      <trkpt lat="41.055300" lon="-3.739067">
        <ele>1992.0</ele>
        <time>2018-07-21T12:46:29Z</time>
      </trkpt>
      <trkpt lat="41.055367" lon="-3.739067">
        <ele>1994.0</ele>
        <time>2018-07-21T12:46:30Z</time>
      </trkpt>
      <trkpt lat="41.055417" lon="-3.739100">
        <ele>1995.0</ele>
        <time>2018-07-21T12:46:31Z</time>
      </trkpt>
      <trkpt lat="41.055450" lon="-3.739150">
        <ele>1997.0</ele>
        <time>2018-07-21T12:46:32Z</time>
      </trkpt>
      <trkpt lat="41.055483" lon="-3.739200">
        <ele>1998.0</ele>
        <time>2018-07-21T12:46:33Z</time>
      </trkpt>
      <trkpt lat="41.055500" lon="-3.739267">
        <ele>2000.0</ele>
        <time>2018-07-21T12:46:34Z</time>
      </trkpt>
      <trkpt lat="41.055500" lon="-3.739333">
        <ele>2001.0</ele>
        <time>2018-07-21T12:46:35Z</time>
      </trkpt>
      <trkpt lat="41.055500" lon="-3.739417">
        <ele>2004.0</ele>
        <time>2018-07-21T12:46:36Z</time>
      </trkpt>
      <trkpt lat="41.055500" lon="-3.739467">
        <ele>2006.0</ele>
        <time>2018-07-21T12:46:37Z</time>
      </trkpt>
      <trkpt lat="41.055517" lon="-3.739517">
        <ele>2006.0</ele>
        <time>2018-07-21T12:46:38Z</time>
      </trkpt>
      <trkpt lat="41.055533" lon="-3.739550">
        <ele>2006.0</ele>
        <time>2018-07-21T12:46:39Z</time>
      </trkpt>
      <trkpt lat="41.055533" lon="-3.739600">
        <ele>2006.0</ele>
        <time>2018-07-21T12:46:40Z</time>
      </trkpt>
      <trkpt lat="41.055500" lon="-3.739650">
        <ele>2004.0</ele>
        <time>2018-07-21T12:46:41Z</time>
      </trkpt>
      <trkpt lat="41.055450" lon="-3.739717">
        <ele>2003.0</ele>
        <time>2018-07-21T12:46:42Z</time>
      </trkpt>
      <trkpt lat="41.055350" lon="-3.739750">
        <ele>2002.0</ele>
        <time>2018-07-21T12:46:43Z</time>
      </trkpt>
      <trkpt lat="41.055250" lon="-3.739767">
        <ele>2002.0</ele>
        <time>2018-07-21T12:46:44Z</time>
      </trkpt>
      <trkpt lat="41.055150" lon="-3.739733">
        <ele>2004.0</ele>
        <time>2018-07-21T12:46:45Z</time>
      </trkpt>
      <trkpt lat="41.055067" lon="-3.739667">
        <ele>2006.0</ele>
        <time>2018-07-21T12:46:46Z</time>
      </trkpt>
      <trkpt lat="41.054967" lon="-3.739567">
        <ele>2006.0</ele>
        <time>2018-07-21T12:46:47Z</time>
      </trkpt>
      <trkpt lat="41.054883" lon="-3.739433">
        <ele>2006.0</ele>
        <time>2018-07-21T12:46:48Z</time>
      </trkpt>
      <trkpt lat="41.054800" lon="-3.739283">
        <ele>2007.0</ele>
        <time>2018-07-21T12:46:49Z</time>
      </trkpt>
      <trkpt lat="41.054733" lon="-3.739117">
        <ele>2008.0</ele>
        <time>2018-07-21T12:46:50Z</time>
      </trkpt>
      <trkpt lat="41.054700" lon="-3.738950">
        <ele>2008.0</ele>
        <time>2018-07-21T12:46:51Z</time>
      </trkpt>
      <trkpt lat="41.054700" lon="-3.738783">
        <ele>2008.0</ele>
        <time>2018-07-21T12:46:52Z</time>
      </trkpt>
      <trkpt lat="41.054750" lon="-3.738617">
        <ele>2008.0</ele>
        <time>2018-07-21T12:46:53Z</time>
      </trkpt>
      <trkpt lat="41.054833" lon="-3.738500">
        <ele>2009.0</ele>
        <time>2018-07-21T12:46:54Z</time>
      </trkpt>
      <trkpt lat="41.054900" lon="-3.738400">
        <ele>2011.0</ele>
        <time>2018-07-21T12:46:55Z</time>
      </trkpt>
      <trkpt lat="41.054967" lon="-3.738333">
        <ele>2012.0</ele>
        <time>2018-07-21T12:46:56Z</time>
      </trkpt>
      <trkpt lat="41.055033" lon="-3.738300">
        <ele>2013.0</ele>
        <time>2018-07-21T12:46:57Z</time>
      </trkpt>
      <trkpt lat="41.055067" lon="-3.738283">
        <ele>2011.0</ele>
        <time>2018-07-21T12:46:58Z</time>
      </trkpt>
      <trkpt lat="41.055100" lon="-3.738300">
        <ele>2009.0</ele>
        <time>2018-07-21T12:46:59Z</time>
      </trkpt>
      <trkpt lat="41.055117" lon="-3.738350">
        <ele>2007.0</ele>
        <time>2018-07-21T12:47:00Z</time>
      </trkpt>
      <trkpt lat="41.055133" lon="-3.738400">
        <ele>2005.0</ele>
        <time>2018-07-21T12:47:01Z</time>
      </trkpt>
      <trkpt lat="41.055117" lon="-3.738483">
        <ele>2004.0</ele>
        <time>2018-07-21T12:47:02Z</time>
      </trkpt>
      <trkpt lat="41.055100" lon="-3.738550">
        <ele>2004.0</ele>
        <time>2018-07-21T12:47:03Z</time>
      </trkpt>
      <trkpt lat="41.055067" lon="-3.738600">
        <ele>2004.0</ele>
        <time>2018-07-21T12:47:04Z</time>
      </trkpt>
      <trkpt lat="41.055033" lon="-3.738650">
        <ele>2004.0</ele>
        <time>2018-07-21T12:47:05Z</time>
      </trkpt>
      <trkpt lat="41.055000" lon="-3.738700">
        <ele>2004.0</ele>
        <time>2018-07-21T12:47:06Z</time>
      </trkpt>
      <trkpt lat="41.054967" lon="-3.738750">
        <ele>2002.0</ele>
        <time>2018-07-21T12:47:07Z</time>
      </trkpt>
      <trkpt lat="41.054933" lon="-3.738833">
        <ele>2001.0</ele>
        <time>2018-07-21T12:47:08Z</time>
      </trkpt>
      <trkpt lat="41.054900" lon="-3.738917">
        <ele>2001.0</ele>
        <time>2018-07-21T12:47:09Z</time>
      </trkpt>
      <trkpt lat="41.054867" lon="-3.739000">
        <ele>2001.0</ele>
        <time>2018-07-21T12:47:10Z</time>
      </trkpt>
      <trkpt lat="41.054833" lon="-3.739067">
        <ele>2003.0</ele>
        <time>2018-07-21T12:47:11Z</time>
      </trkpt>
      <trkpt lat="41.054800" lon="-3.739117">
        <ele>2004.0</ele>
        <time>2018-07-21T12:47:12Z</time>
      </trkpt>
      <trkpt lat="41.054767" lon="-3.739167">
        <ele>2005.0</ele>
        <time>2018-07-21T12:47:13Z</time>
      </trkpt>
      <trkpt lat="41.054733" lon="-3.739233">
        <ele>2006.0</ele>
        <time>2018-07-21T12:47:14Z</time>
      </trkpt>
      <trkpt lat="41.054717" lon="-3.739283">
        <ele>2007.0</ele>
        <time>2018-07-21T12:47:15Z</time>
      </trkpt>
      <trkpt lat="41.054700" lon="-3.739367">
        <ele>2008.0</ele>
        <time>2018-07-21T12:47:16Z</time>
      </trkpt>
      <trkpt lat="41.054667" lon="-3.739433">
        <ele>2008.0</ele>
        <time>2018-07-21T12:47:17Z</time>
      </trkpt>
      <trkpt lat="41.054633" lon="-3.739517">
        <ele>2010.0</ele>
        <time>2018-07-21T12:47:18Z</time>
      </trkpt>
      <trkpt lat="41.054617" lon="-3.739583">
        <ele>2011.0</ele>
        <time>2018-07-21T12:47:19Z</time>
      </trkpt>
      <trkpt lat="41.054600" lon="-3.739667">
        <ele>2012.0</ele>
        <time>2018-07-21T12:47:20Z</time>
      </trkpt>
      <trkpt lat="41.054583" lon="-3.739750">
        <ele>2012.0</ele>
        <time>2018-07-21T12:47:21Z</time>
      </trkpt>
      <trkpt lat="41.054567" lon="-3.739833">
        <ele>2013.0</ele>
        <time>2018-07-21T12:47:22Z</time>
      </trkpt>
      <trkpt lat="41.054550" lon="-3.739900">
        <ele>2012.0</ele>
        <time>2018-07-21T12:47:23Z</time>
      </trkpt>
      <trkpt lat="41.054517" lon="-3.739983">
        <ele>2011.0</ele>
        <time>2018-07-21T12:47:24Z</time>
      </trkpt>
      <trkpt lat="41.054467" lon="-3.740067">
        <ele>2011.0</ele>
        <time>2018-07-21T12:47:25Z</time>
      </trkpt>
      <trkpt lat="41.054400" lon="-3.740150">
        <ele>2010.0</ele>
        <time>2018-07-21T12:47:26Z</time>
      </trkpt>
      <trkpt lat="41.054333" lon="-3.740250">
        <ele>2010.0</ele>
        <time>2018-07-21T12:47:27Z</time>
      </trkpt>
      <trkpt lat="41.054267" lon="-3.740317">
        <ele>2010.0</ele>
        <time>2018-07-21T12:47:28Z</time>
      </trkpt>
      <trkpt lat="41.054200" lon="-3.740383">
        <ele>2011.0</ele>
        <time>2018-07-21T12:47:29Z</time>
      </trkpt>
      <trkpt lat="41.054117" lon="-3.740433">
        <ele>2012.0</ele>
        <time>2018-07-21T12:47:30Z</time>
      </trkpt>
      <trkpt lat="41.054067" lon="-3.740483">
        <ele>2012.0</ele>
        <time>2018-07-21T12:47:31Z</time>
      </trkpt>
      <trkpt lat="41.054000" lon="-3.740533">
        <ele>2012.0</ele>
        <time>2018-07-21T12:47:32Z</time>
      </trkpt>
      <trkpt lat="41.053933" lon="-3.740583">
        <ele>2011.0</ele>
        <time>2018-07-21T12:47:33Z</time>
      </trkpt>
      <trkpt lat="41.053850" lon="-3.740617">
        <ele>2009.0</ele>
        <time>2018-07-21T12:47:34Z</time>
      </trkpt>
      <trkpt lat="41.053767" lon="-3.740667">
        <ele>2008.0</ele>
        <time>2018-07-21T12:47:35Z</time>
      </trkpt>
      <trkpt lat="41.053683" lon="-3.740700">
        <ele>2007.0</ele>
        <time>2018-07-21T12:47:36Z</time>
      </trkpt>
      <trkpt lat="41.053600" lon="-3.740733">
        <ele>2006.0</ele>
        <time>2018-07-21T12:47:37Z</time>
      </trkpt>
      <trkpt lat="41.053533" lon="-3.740767">
        <ele>2005.0</ele>
        <time>2018-07-21T12:47:38Z</time>
      </trkpt>
      <trkpt lat="41.053467" lon="-3.740817">
        <ele>2004.0</ele>
        <time>2018-07-21T12:47:39Z</time>
      </trkpt>
      <trkpt lat="41.053400" lon="-3.740867">
        <ele>2002.0</ele>
        <time>2018-07-21T12:47:40Z</time>
      </trkpt>
      <trkpt lat="41.053333" lon="-3.740917">
        <ele>2001.0</ele>
        <time>2018-07-21T12:47:41Z</time>
      </trkpt>
      <trkpt lat="41.053267" lon="-3.740967">
        <ele>2001.0</ele>
        <time>2018-07-21T12:47:42Z</time>
      </trkpt>
      <trkpt lat="41.053200" lon="-3.741017">
        <ele>2000.0</ele>
        <time>2018-07-21T12:47:43Z</time>
      </trkpt>
      <trkpt lat="41.053133" lon="-3.741067">
        <ele>2000.0</ele>
        <time>2018-07-21T12:47:44Z</time>
      </trkpt>
      <trkpt lat="41.053067" lon="-3.741100">
        <ele>1999.0</ele>
        <time>2018-07-21T12:47:45Z</time>
      </trkpt>
      <trkpt lat="41.053000" lon="-3.741150">
        <ele>1999.0</ele>
        <time>2018-07-21T12:47:46Z</time>
      </trkpt>
      <trkpt lat="41.052933" lon="-3.741200">
        <ele>1998.0</ele>
        <time>2018-07-21T12:47:47Z</time>
      </trkpt>
      <trkpt lat="41.052867" lon="-3.741233">
        <ele>1998.0</ele>
        <time>2018-07-21T12:47:48Z</time>
      </trkpt>
      <trkpt lat="41.052800" lon="-3.741283">
        <ele>1997.0</ele>
        <time>2018-07-21T12:47:49Z</time>
      </trkpt>
      <trkpt lat="41.052750" lon="-3.741317">
        <ele>1996.0</ele>
        <time>2018-07-21T12:47:50Z</time>
      </trkpt>
      <trkpt lat="41.052683" lon="-3.741367">
        <ele>1996.0</ele>
        <time>2018-07-21T12:47:51Z</time>
      </trkpt>
      <trkpt lat="41.052617" lon="-3.741417">
        <ele>1995.0</ele>
        <time>2018-07-21T12:47:52Z</time>
      </trkpt>
      <trkpt lat="41.052550" lon="-3.741467">
        <ele>1994.0</ele>
        <time>2018-07-21T12:47:53Z</time>
      </trkpt>
      <trkpt lat="41.052500" lon="-3.741517">
        <ele>1993.0</ele>
        <time>2018-07-21T12:47:54Z</time>
      </trkpt>
      <trkpt lat="41.052450" lon="-3.741550">
        <ele>1992.0</ele>
        <time>2018-07-21T12:47:55Z</time>
      </trkpt>
      <trkpt lat="41.052383" lon="-3.741583">
        <ele>1990.0</ele>
        <time>2018-07-21T12:47:56Z</time>
      </trkpt>
      <trkpt lat="41.052333" lon="-3.741617">
        <ele>1988.0</ele>
        <time>2018-07-21T12:47:57Z</time>
      </trkpt>
      <trkpt lat="41.052283" lon="-3.741650">
        <ele>1986.0</ele>
        <time>2018-07-21T12:47:58Z</time>
      </trkpt>
      <trkpt lat="41.052233" lon="-3.741717">
        <ele>1984.0</ele>
        <time>2018-07-21T12:47:59Z</time>
      </trkpt>
      <trkpt lat="41.052167" lon="-3.741767">
        <ele>1983.0</ele>
        <time>2018-07-21T12:48:00Z</time>
      </trkpt>
      <trkpt lat="41.052117" lon="-3.741817">
        <ele>1983.0</ele>
        <time>2018-07-21T12:48:01Z</time>
      </trkpt>
      <trkpt lat="41.052050" lon="-3.741833">
        <ele>1984.0</ele>
        <time>2018-07-21T12:48:02Z</time>
      </trkpt>
      <trkpt lat="41.052017" lon="-3.741833">
        <ele>1983.0</ele>
        <time>2018-07-21T12:48:03Z</time>
      </trkpt>
      <trkpt lat="41.051967" lon="-3.741867">
        <ele>1980.0</ele>
        <time>2018-07-21T12:48:04Z</time>
      </trkpt>
      <trkpt lat="41.051933" lon="-3.741917">
        <ele>1975.0</ele>
        <time>2018-07-21T12:48:05Z</time>
      </trkpt>
      <trkpt lat="41.051883" lon="-3.742000">
        <ele>1972.0</ele>
        <time>2018-07-21T12:48:06Z</time>
      </trkpt>
      <trkpt lat="41.051833" lon="-3.742083">
        <ele>1969.0</ele>
        <time>2018-07-21T12:48:07Z</time>
      </trkpt>
      <trkpt lat="41.051783" lon="-3.742150">
        <ele>1969.0</ele>
        <time>2018-07-21T12:48:08Z</time>
      </trkpt>
      <trkpt lat="41.051733" lon="-3.742217">
        <ele>1970.0</ele>
        <time>2018-07-21T12:48:09Z</time>
      </trkpt>
      <trkpt lat="41.051700" lon="-3.742283">
        <ele>1970.0</ele>
        <time>2018-07-21T12:48:10Z</time>
      </trkpt>
      <trkpt lat="41.051650" lon="-3.742333">
        <ele>1970.0</ele>
        <time>2018-07-21T12:48:11Z</time>
      </trkpt>
      <trkpt lat="41.051583" lon="-3.742367">
        <ele>1968.0</ele>
        <time>2018-07-21T12:48:12Z</time>
      </trkpt>
      <trkpt lat="41.051517" lon="-3.742417">
        <ele>1967.0</ele>
        <time>2018-07-21T12:48:13Z</time>
      </trkpt>
      <trkpt lat="41.051433" lon="-3.742467">
        <ele>1966.0</ele>
        <time>2018-07-21T12:48:14Z</time>
      </trkpt>
      <trkpt lat="41.051367" lon="-3.742533">
        <ele>1965.0</ele>
        <time>2018-07-21T12:48:15Z</time>
      </trkpt>
      <trkpt lat="41.051283" lon="-3.742567">
        <ele>1965.0</ele>
        <time>2018-07-21T12:48:16Z</time>
      </trkpt>
      <trkpt lat="41.051200" lon="-3.742617">
        <ele>1966.0</ele>
        <time>2018-07-21T12:48:17Z</time>
      </trkpt>
      <trkpt lat="41.051117" lon="-3.742633">
        <ele>1966.0</ele>
        <time>2018-07-21T12:48:18Z</time>
      </trkpt>
      <trkpt lat="41.051033" lon="-3.742667">
        <ele>1965.0</ele>
        <time>2018-07-21T12:48:19Z</time>
      </trkpt>
      <trkpt lat="41.050950" lon="-3.742700">
        <ele>1965.0</ele>
        <time>2018-07-21T12:48:20Z</time>
      </trkpt>
      <trkpt lat="41.050850" lon="-3.742733">
        <ele>1965.0</ele>
        <time>2018-07-21T12:48:21Z</time>
      </trkpt>
      <trkpt lat="41.050767" lon="-3.742750">
        <ele>1964.0</ele>
        <time>2018-07-21T12:48:22Z</time>
      </trkpt>
      <trkpt lat="41.050683" lon="-3.742800">
        <ele>1965.0</ele>
        <time>2018-07-21T12:48:23Z</time>
      </trkpt>
      <trkpt lat="41.050600" lon="-3.742850">
        <ele>1965.0</ele>
        <time>2018-07-21T12:48:24Z</time>
      </trkpt>
      <trkpt lat="41.050517" lon="-3.742917">
        <ele>1964.0</ele>
        <time>2018-07-21T12:48:25Z</time>
      </trkpt>
      <trkpt lat="41.050450" lon="-3.743000">
        <ele>1963.0</ele>
        <time>2018-07-21T12:48:26Z</time>
      </trkpt>
      <trkpt lat="41.050367" lon="-3.743050">
        <ele>1964.0</ele>
        <time>2018-07-21T12:48:27Z</time>
      </trkpt>
      <trkpt lat="41.050283" lon="-3.743083">
        <ele>1966.0</ele>
        <time>2018-07-21T12:48:28Z</time>
      </trkpt>
      <trkpt lat="41.050217" lon="-3.743100">
        <ele>1966.0</ele>
        <time>2018-07-21T12:48:29Z</time>
      </trkpt>
      <trkpt lat="41.050150" lon="-3.743083">
        <ele>1965.0</ele>
        <time>2018-07-21T12:48:30Z</time>
      </trkpt>
      <trkpt lat="41.050083" lon="-3.743083">
        <ele>1963.0</ele>
        <time>2018-07-21T12:48:31Z</time>
      </trkpt>
      <trkpt lat="41.050017" lon="-3.743083">
        <ele>1960.0</ele>
        <time>2018-07-21T12:48:32Z</time>
      </trkpt>
      <trkpt lat="41.049917" lon="-3.743117">
        <ele>1957.0</ele>
        <time>2018-07-21T12:48:33Z</time>
      </trkpt>
      <trkpt lat="41.049833" lon="-3.743150">
        <ele>1956.0</ele>
        <time>2018-07-21T12:48:34Z</time>
      </trkpt>
      <trkpt lat="41.049733" lon="-3.743183">
        <ele>1957.0</ele>
        <time>2018-07-21T12:48:35Z</time>
      </trkpt>
      <trkpt lat="41.049650" lon="-3.743200">
        <ele>1959.0</ele>
        <time>2018-07-21T12:48:36Z</time>
      </trkpt>
      <trkpt lat="41.049567" lon="-3.743200">
        <ele>1961.0</ele>
        <time>2018-07-21T12:48:37Z</time>
      </trkpt>
      <trkpt lat="41.049500" lon="-3.743217">
        <ele>1962.0</ele>
        <time>2018-07-21T12:48:38Z</time>
      </trkpt>
      <trkpt lat="41.049433" lon="-3.743217">
        <ele>1961.0</ele>
        <time>2018-07-21T12:48:39Z</time>
      </trkpt>
      <trkpt lat="41.049350" lon="-3.743233">
        <ele>1960.0</ele>
        <time>2018-07-21T12:48:40Z</time>
      </trkpt>
      <trkpt lat="41.049267" lon="-3.743267">
        <ele>1959.0</ele>
        <time>2018-07-21T12:48:41Z</time>
      </trkpt>
      <trkpt lat="41.049183" lon="-3.743300">
        <ele>1958.0</ele>
        <time>2018-07-21T12:48:42Z</time>
      </trkpt>
      <trkpt lat="41.049083" lon="-3.743317">
        <ele>1958.0</ele>
        <time>2018-07-21T12:48:43Z</time>
      </trkpt>
      <trkpt lat="41.048983" lon="-3.743333">
        <ele>1959.0</ele>
        <time>2018-07-21T12:48:44Z</time>
      </trkpt>
      <trkpt lat="41.048883" lon="-3.743350">
        <ele>1960.0</ele>
        <time>2018-07-21T12:48:45Z</time>
      </trkpt>
      <trkpt lat="41.048783" lon="-3.743350">
        <ele>1961.0</ele>
        <time>2018-07-21T12:48:46Z</time>
      </trkpt>
      <trkpt lat="41.048700" lon="-3.743383">
        <ele>1961.0</ele>
        <time>2018-07-21T12:48:47Z</time>
      </trkpt>
      <trkpt lat="41.048617" lon="-3.743417">
        <ele>1961.0</ele>
        <time>2018-07-21T12:48:48Z</time>
      </trkpt>
      <trkpt lat="41.048533" lon="-3.743450">
        <ele>1962.0</ele>
        <time>2018-07-21T12:48:49Z</time>
      </trkpt>
      <trkpt lat="41.048467" lon="-3.743500">
        <ele>1962.0</ele>
        <time>2018-07-21T12:48:50Z</time>
      </trkpt>
      <trkpt lat="41.048383" lon="-3.743550">
        <ele>1962.0</ele>
        <time>2018-07-21T12:48:51Z</time>
      </trkpt>
      <trkpt lat="41.048300" lon="-3.743583">
        <ele>1963.0</ele>
        <time>2018-07-21T12:48:52Z</time>
      </trkpt>
      <trkpt lat="41.048200" lon="-3.743600">
        <ele>1963.0</ele>
        <time>2018-07-21T12:48:53Z</time>
      </trkpt>
      <trkpt lat="41.048083" lon="-3.743617">
        <ele>1965.0</ele>
        <time>2018-07-21T12:48:54Z</time>
      </trkpt>
      <trkpt lat="41.047983" lon="-3.743600">
        <ele>1966.0</ele>
        <time>2018-07-21T12:48:55Z</time>
      </trkpt>
      <trkpt lat="41.047883" lon="-3.743617">
        <ele>1968.0</ele>
        <time>2018-07-21T12:48:56Z</time>
      </trkpt>
      <trkpt lat="41.047817" lon="-3.743633">
        <ele>1968.0</ele>
        <time>2018-07-21T12:48:57Z</time>
      </trkpt>
      <trkpt lat="41.047750" lon="-3.743667">
        <ele>1967.0</ele>
        <time>2018-07-21T12:48:58Z</time>
      </trkpt>
      <trkpt lat="41.047683" lon="-3.743700">
        <ele>1965.0</ele>
        <time>2018-07-21T12:48:59Z</time>
      </trkpt>
      <trkpt lat="41.047617" lon="-3.743750">
        <ele>1964.0</ele>
        <time>2018-07-21T12:49:00Z</time>
      </trkpt>
      <trkpt lat="41.047517" lon="-3.743783">
        <ele>1962.0</ele>
        <time>2018-07-21T12:49:01Z</time>
      </trkpt>
      <trkpt lat="41.047433" lon="-3.743833">
        <ele>1962.0</ele>
        <time>2018-07-21T12:49:02Z</time>
      </trkpt>
      <trkpt lat="41.047367" lon="-3.743883">
        <ele>1962.0</ele>
        <time>2018-07-21T12:49:03Z</time>
      </trkpt>
      <trkpt lat="41.047300" lon="-3.743933">
        <ele>1962.0</ele>
        <time>2018-07-21T12:49:04Z</time>
      </trkpt>
      <trkpt lat="41.047250" lon="-3.743983">
        <ele>1963.0</ele>
        <time>2018-07-21T12:49:05Z</time>
      </trkpt>
      <trkpt lat="41.047167" lon="-3.744033">
        <ele>1962.0</ele>
        <time>2018-07-21T12:49:06Z</time>
      </trkpt>
      <trkpt lat="41.047100" lon="-3.744083">
        <ele>1962.0</ele>
        <time>2018-07-21T12:49:07Z</time>
      </trkpt>
      <trkpt lat="41.047017" lon="-3.744117">
        <ele>1962.0</ele>
        <time>2018-07-21T12:49:08Z</time>
      </trkpt>
      <trkpt lat="41.046933" lon="-3.744167">
        <ele>1962.0</ele>
        <time>2018-07-21T12:49:09Z</time>
      </trkpt>
      <trkpt lat="41.046850" lon="-3.744217">
        <ele>1962.0</ele>
        <time>2018-07-21T12:49:10Z</time>
      </trkpt>
      <trkpt lat="41.046783" lon="-3.744267">
        <ele>1961.0</ele>
        <time>2018-07-21T12:49:11Z</time>
      </trkpt>
      <trkpt lat="41.046700" lon="-3.744317">
        <ele>1961.0</ele>
        <time>2018-07-21T12:49:12Z</time>
      </trkpt>
      <trkpt lat="41.046617" lon="-3.744367">
        <ele>1961.0</ele>
        <time>2018-07-21T12:49:13Z</time>
      </trkpt>
      <trkpt lat="41.046550" lon="-3.744433">
        <ele>1962.0</ele>
        <time>2018-07-21T12:49:14Z</time>
      </trkpt>
      <trkpt lat="41.046467" lon="-3.744483">
        <ele>1963.0</ele>
        <time>2018-07-21T12:49:15Z</time>
      </trkpt>
      <trkpt lat="41.046383" lon="-3.744517">
        <ele>1965.0</ele>
        <time>2018-07-21T12:49:16Z</time>
      </trkpt>
      <trkpt lat="41.046317" lon="-3.744567">
        <ele>1966.0</ele>
        <time>2018-07-21T12:49:17Z</time>
      </trkpt>
      <trkpt lat="41.046250" lon="-3.744617">
        <ele>1966.0</ele>
        <time>2018-07-21T12:49:18Z</time>
      </trkpt>
      <trkpt lat="41.046183" lon="-3.744683">
        <ele>1967.0</ele>
        <time>2018-07-21T12:49:19Z</time>
      </trkpt>
      <trkpt lat="41.046117" lon="-3.744733">
        <ele>1969.0</ele>
        <time>2018-07-21T12:49:20Z</time>
      </trkpt>
      <trkpt lat="41.046050" lon="-3.744800">
        <ele>1970.0</ele>
        <time>2018-07-21T12:49:21Z</time>
      </trkpt>
      <trkpt lat="41.045967" lon="-3.744850">
        <ele>1971.0</ele>
        <time>2018-07-21T12:49:22Z</time>
      </trkpt>
      <trkpt lat="41.045900" lon="-3.744883">
        <ele>1972.0</ele>
        <time>2018-07-21T12:49:23Z</time>
      </trkpt>
      <trkpt lat="41.045833" lon="-3.744917">
        <ele>1973.0</ele>
        <time>2018-07-21T12:49:24Z</time>
      </trkpt>
      <trkpt lat="41.045767" lon="-3.744950">
        <ele>1972.0</ele>
        <time>2018-07-21T12:49:25Z</time>
      </trkpt>
      <trkpt lat="41.045700" lon="-3.744967">
        <ele>1970.0</ele>
        <time>2018-07-21T12:49:26Z</time>
      </trkpt>
      <trkpt lat="41.045617" lon="-3.745017">
        <ele>1967.0</ele>
        <time>2018-07-21T12:49:27Z</time>
      </trkpt>
      <trkpt lat="41.045533" lon="-3.745067">
        <ele>1965.0</ele>
        <time>2018-07-21T12:49:28Z</time>
      </trkpt>
      <trkpt lat="41.045450" lon="-3.745133">
        <ele>1964.0</ele>
        <time>2018-07-21T12:49:29Z</time>
      </trkpt>
      <trkpt lat="41.045367" lon="-3.745200">
        <ele>1963.0</ele>
        <time>2018-07-21T12:49:30Z</time>
      </trkpt>
      <trkpt lat="41.045283" lon="-3.745267">
        <ele>1964.0</ele>
        <time>2018-07-21T12:49:31Z</time>
      </trkpt>
      <trkpt lat="41.045217" lon="-3.745317">
        <ele>1964.0</ele>
        <time>2018-07-21T12:49:32Z</time>
      </trkpt>
      <trkpt lat="41.045133" lon="-3.745367">
        <ele>1965.0</ele>
        <time>2018-07-21T12:49:33Z</time>
      </trkpt>
      <trkpt lat="41.045050" lon="-3.745400">
        <ele>1965.0</ele>
        <time>2018-07-21T12:49:34Z</time>
      </trkpt>
      <trkpt lat="41.044983" lon="-3.745433">
        <ele>1965.0</ele>
        <time>2018-07-21T12:49:35Z</time>
      </trkpt>
      <trkpt lat="41.044900" lon="-3.745483">
        <ele>1963.0</ele>
        <time>2018-07-21T12:49:36Z</time>
      </trkpt>
      <trkpt lat="41.044817" lon="-3.745517">
        <ele>1961.0</ele>
        <time>2018-07-21T12:49:37Z</time>
      </trkpt>
      <trkpt lat="41.044733" lon="-3.745567">
        <ele>1960.0</ele>
        <time>2018-07-21T12:49:38Z</time>
      </trkpt>
      <trkpt lat="41.044650" lon="-3.745617">
        <ele>1958.0</ele>
        <time>2018-07-21T12:49:39Z</time>
      </trkpt>
      <trkpt lat="41.044550" lon="-3.745667">
        <ele>1958.0</ele>
        <time>2018-07-21T12:49:40Z</time>
      </trkpt>
      <trkpt lat="41.044483" lon="-3.745717">
        <ele>1957.0</ele>
        <time>2018-07-21T12:49:41Z</time>
      </trkpt>
      <trkpt lat="41.044400" lon="-3.745767">
        <ele>1956.0</ele>
        <time>2018-07-21T12:49:42Z</time>
      </trkpt>
      <trkpt lat="41.044317" lon="-3.745817">
        <ele>1955.0</ele>
        <time>2018-07-21T12:49:43Z</time>
      </trkpt>
      <trkpt lat="41.044250" lon="-3.745867">
        <ele>1953.0</ele>
        <time>2018-07-21T12:49:44Z</time>
      </trkpt>
      <trkpt lat="41.044167" lon="-3.745933">
        <ele>1952.0</ele>
        <time>2018-07-21T12:49:45Z</time>
      </trkpt>
      <trkpt lat="41.044100" lon="-3.746000">
        <ele>1950.0</ele>
        <time>2018-07-21T12:49:46Z</time>
      </trkpt>
      <trkpt lat="41.044017" lon="-3.746067">
        <ele>1949.0</ele>
        <time>2018-07-21T12:49:47Z</time>
      </trkpt>
      <trkpt lat="41.043950" lon="-3.746133">
        <ele>1948.0</ele>
        <time>2018-07-21T12:49:48Z</time>
      </trkpt>
      <trkpt lat="41.043883" lon="-3.746217">
        <ele>1947.0</ele>
        <time>2018-07-21T12:49:49Z</time>
      </trkpt>
      <trkpt lat="41.043817" lon="-3.746283">
        <ele>1946.0</ele>
        <time>2018-07-21T12:49:50Z</time>
      </trkpt>
      <trkpt lat="41.043750" lon="-3.746350">
        <ele>1946.0</ele>
        <time>2018-07-21T12:49:51Z</time>
      </trkpt>
      <trkpt lat="41.043667" lon="-3.746417">
        <ele>1946.0</ele>
        <time>2018-07-21T12:49:52Z</time>
      </trkpt>
      <trkpt lat="41.043600" lon="-3.746483">
        <ele>1945.0</ele>
        <time>2018-07-21T12:49:53Z</time>
      </trkpt>
      <trkpt lat="41.043533" lon="-3.746550">
        <ele>1946.0</ele>
        <time>2018-07-21T12:49:54Z</time>
      </trkpt>
      <trkpt lat="41.043450" lon="-3.746617">
        <ele>1946.0</ele>
        <time>2018-07-21T12:49:55Z</time>
      </trkpt>
      <trkpt lat="41.043383" lon="-3.746667">
        <ele>1946.0</ele>
        <time>2018-07-21T12:49:56Z</time>
      </trkpt>
      <trkpt lat="41.043317" lon="-3.746717">
        <ele>1945.0</ele>
        <time>2018-07-21T12:49:57Z</time>
      </trkpt>
      <trkpt lat="41.043233" lon="-3.746767">
        <ele>1944.0</ele>
        <time>2018-07-21T12:49:58Z</time>
      </trkpt>
      <trkpt lat="41.043167" lon="-3.746850">
        <ele>1942.0</ele>
        <time>2018-07-21T12:49:59Z</time>
      </trkpt>
      <trkpt lat="41.043100" lon="-3.746933">
        <ele>1940.0</ele>
        <time>2018-07-21T12:50:00Z</time>
      </trkpt>
      <trkpt lat="41.043033" lon="-3.747017">
        <ele>1939.0</ele>
        <time>2018-07-21T12:50:01Z</time>
      </trkpt>
      <trkpt lat="41.042967" lon="-3.747100">
        <ele>1940.0</ele>
        <time>2018-07-21T12:50:02Z</time>
      </trkpt>
      <trkpt lat="41.042900" lon="-3.747183">
        <ele>1941.0</ele>
        <time>2018-07-21T12:50:03Z</time>
      </trkpt>
      <trkpt lat="41.042833" lon="-3.747267">
        <ele>1943.0</ele>
        <time>2018-07-21T12:50:04Z</time>
      </trkpt>
      <trkpt lat="41.042783" lon="-3.747350">
        <ele>1944.0</ele>
        <time>2018-07-21T12:50:05Z</time>
      </trkpt>
      <trkpt lat="41.042717" lon="-3.747433">
        <ele>1947.0</ele>
        <time>2018-07-21T12:50:06Z</time>
      </trkpt>
      <trkpt lat="41.042667" lon="-3.747500">
        <ele>1951.0</ele>
        <time>2018-07-21T12:50:07Z</time>
      </trkpt>
      <trkpt lat="41.042617" lon="-3.747550">
        <ele>1955.0</ele>
        <time>2018-07-21T12:50:08Z</time>
      </trkpt>
      <trkpt lat="41.042567" lon="-3.747600">
        <ele>1958.0</ele>
        <time>2018-07-21T12:50:09Z</time>
      </trkpt>
      <trkpt lat="41.042533" lon="-3.747633">
        <ele>1959.0</ele>
        <time>2018-07-21T12:50:10Z</time>
      </trkpt>
      <trkpt lat="41.042517" lon="-3.747667">
        <ele>1960.0</ele>
        <time>2018-07-21T12:50:11Z</time>
      </trkpt>
      <trkpt lat="41.042517" lon="-3.747717">
        <ele>1959.0</ele>
        <time>2018-07-21T12:50:12Z</time>
      </trkpt>
      <trkpt lat="41.042550" lon="-3.747750">
        <ele>1959.0</ele>
        <time>2018-07-21T12:50:13Z</time>
      </trkpt>
      <trkpt lat="41.042617" lon="-3.747767">
        <ele>1958.0</ele>
        <time>2018-07-21T12:50:14Z</time>
      </trkpt>
      <trkpt lat="41.042683" lon="-3.747733">
        <ele>1958.0</ele>
        <time>2018-07-21T12:50:15Z</time>
      </trkpt>
      <trkpt lat="41.042767" lon="-3.747633">
        <ele>1958.0</ele>
        <time>2018-07-21T12:50:16Z</time>
      </trkpt>
      <trkpt lat="41.042800" lon="-3.747483">
        <ele>1957.0</ele>
        <time>2018-07-21T12:50:17Z</time>
      </trkpt>
      <trkpt lat="41.042817" lon="-3.747283">
        <ele>1959.0</ele>
        <time>2018-07-21T12:50:18Z</time>
      </trkpt>
      <trkpt lat="41.042800" lon="-3.747117">
        <ele>1962.0</ele>
        <time>2018-07-21T12:50:19Z</time>
      </trkpt>
      <trkpt lat="41.042733" lon="-3.746967">
        <ele>1966.0</ele>
        <time>2018-07-21T12:50:20Z</time>
      </trkpt>
      <trkpt lat="41.042667" lon="-3.746867">
        <ele>1968.0</ele>
        <time>2018-07-21T12:50:21Z</time>
      </trkpt>
      <trkpt lat="41.042567" lon="-3.746767">
        <ele>1969.0</ele>
        <time>2018-07-21T12:50:22Z</time>
      </trkpt>
      <trkpt lat="41.042467" lon="-3.746683">
        <ele>1971.0</ele>
        <time>2018-07-21T12:50:23Z</time>
      </trkpt>
      <trkpt lat="41.042367" lon="-3.746600">
        <ele>1973.0</ele>
        <time>2018-07-21T12:50:24Z</time>
      </trkpt>
      <trkpt lat="41.042267" lon="-3.746533">
        <ele>1976.0</ele>
        <time>2018-07-21T12:50:25Z</time>
      </trkpt>
      <trkpt lat="41.042167" lon="-3.746467">
        <ele>1978.0</ele>
        <time>2018-07-21T12:50:26Z</time>
      </trkpt>
      <trkpt lat="41.042067" lon="-3.746450">
        <ele>1979.0</ele>
        <time>2018-07-21T12:50:27Z</time>
      </trkpt>
      <trkpt lat="41.041983" lon="-3.746433">
        <ele>1979.0</ele>
        <time>2018-07-21T12:50:28Z</time>
      </trkpt>
      <trkpt lat="41.041900" lon="-3.746433">
        <ele>1978.0</ele>
        <time>2018-07-21T12:50:29Z</time>
      </trkpt>
      <trkpt lat="41.041833" lon="-3.746450">
        <ele>1978.0</ele>
        <time>2018-07-21T12:50:30Z</time>
      </trkpt>
      <trkpt lat="41.041750" lon="-3.746483">
        <ele>1979.0</ele>
        <time>2018-07-21T12:50:31Z</time>
      </trkpt>
      <trkpt lat="41.041683" lon="-3.746533">
        <ele>1980.0</ele>
        <time>2018-07-21T12:50:32Z</time>
      </trkpt>
      <trkpt lat="41.041617" lon="-3.746583">
        <ele>1982.0</ele>
        <time>2018-07-21T12:50:33Z</time>
      </trkpt>
      <trkpt lat="41.041550" lon="-3.746633">
        <ele>1985.0</ele>
        <time>2018-07-21T12:50:34Z</time>
      </trkpt>
      <trkpt lat="41.041500" lon="-3.746650">
        <ele>1987.0</ele>
        <time>2018-07-21T12:50:35Z</time>
      </trkpt>
      <trkpt lat="41.041433" lon="-3.746667">
        <ele>1989.0</ele>
        <time>2018-07-21T12:50:36Z</time>
      </trkpt>
      <trkpt lat="41.041350" lon="-3.746683">
        <ele>1989.0</ele>
        <time>2018-07-21T12:50:37Z</time>
      </trkpt>
      <trkpt lat="41.041283" lon="-3.746700">
        <ele>1989.0</ele>
        <time>2018-07-21T12:50:38Z</time>
      </trkpt>
      <trkpt lat="41.041217" lon="-3.746733">
        <ele>1989.0</ele>
        <time>2018-07-21T12:50:39Z</time>
      </trkpt>
      <trkpt lat="41.041150" lon="-3.746767">
        <ele>1990.0</ele>
        <time>2018-07-21T12:50:40Z</time>
      </trkpt>
      <trkpt lat="41.041067" lon="-3.746817">
        <ele>1991.0</ele>
        <time>2018-07-21T12:50:41Z</time>
      </trkpt>
      <trkpt lat="41.041000" lon="-3.746850">
        <ele>1993.0</ele>
        <time>2018-07-21T12:50:42Z</time>
      </trkpt>
      <trkpt lat="41.040950" lon="-3.746900">
        <ele>1994.0</ele>
        <time>2018-07-21T12:50:43Z</time>
      </trkpt>
      <trkpt lat="41.040883" lon="-3.746933">
        <ele>1995.0</ele>
        <time>2018-07-21T12:50:44Z</time>
      </trkpt>
      <trkpt lat="41.040817" lon="-3.746983">
        <ele>1996.0</ele>
        <time>2018-07-21T12:50:45Z</time>
      </trkpt>
      <trkpt lat="41.040750" lon="-3.747033">
        <ele>1998.0</ele>
        <time>2018-07-21T12:50:46Z</time>
      </trkpt>
      <trkpt lat="41.040683" lon="-3.747067">
        <ele>1999.0</ele>
        <time>2018-07-21T12:50:47Z</time>
      </trkpt>
      <trkpt lat="41.040617" lon="-3.747117">
        <ele>2001.0</ele>
        <time>2018-07-21T12:50:48Z</time>
      </trkpt>
      <trkpt lat="41.040567" lon="-3.747183">
        <ele>2002.0</ele>
        <time>2018-07-21T12:50:49Z</time>
      </trkpt>
      <trkpt lat="41.040517" lon="-3.747250">
        <ele>2004.0</ele>
        <time>2018-07-21T12:50:50Z</time>
      </trkpt>
      <trkpt lat="41.040483" lon="-3.747300">
        <ele>2005.0</ele>
        <time>2018-07-21T12:50:51Z</time>
      </trkpt>
      <trkpt lat="41.040433" lon="-3.747350">
        <ele>2006.0</ele>
        <time>2018-07-21T12:50:52Z</time>
      </trkpt>
      <trkpt lat="41.040400" lon="-3.747400">
        <ele>2006.0</ele>
        <time>2018-07-21T12:50:53Z</time>
      </trkpt>
      <trkpt lat="41.040350" lon="-3.747450">
        <ele>2005.0</ele>
        <time>2018-07-21T12:50:54Z</time>
      </trkpt>
      <trkpt lat="41.040283" lon="-3.747500">
        <ele>2004.0</ele>
        <time>2018-07-21T12:50:55Z</time>
      </trkpt>
      <trkpt lat="41.040217" lon="-3.747583">
        <ele>2004.0</ele>
        <time>2018-07-21T12:50:56Z</time>
      </trkpt>
      <trkpt lat="41.040133" lon="-3.747650">
        <ele>2006.0</ele>
        <time>2018-07-21T12:50:57Z</time>
      </trkpt>
      <trkpt lat="41.040067" lon="-3.747700">
        <ele>2009.0</ele>
        <time>2018-07-21T12:50:58Z</time>
      </trkpt>
      <trkpt lat="41.040017" lon="-3.747750">
        <ele>2011.0</ele>
        <time>2018-07-21T12:50:59Z</time>
      </trkpt>
      <trkpt lat="41.039967" lon="-3.747800">
        <ele>2014.0</ele>
        <time>2018-07-21T12:51:00Z</time>
      </trkpt>
      <trkpt lat="41.039900" lon="-3.747850">
        <ele>2015.0</ele>
        <time>2018-07-21T12:51:01Z</time>
      </trkpt>
      <trkpt lat="41.039833" lon="-3.747900">
        <ele>2017.0</ele>
        <time>2018-07-21T12:51:02Z</time>
      </trkpt>
      <trkpt lat="41.039783" lon="-3.747967">
        <ele>2018.0</ele>
        <time>2018-07-21T12:51:03Z</time>
      </trkpt>
      <trkpt lat="41.039750" lon="-3.748033">
        <ele>2019.0</ele>
        <time>2018-07-21T12:51:04Z</time>
      </trkpt>
      <trkpt lat="41.039750" lon="-3.748117">
        <ele>2021.0</ele>
        <time>2018-07-21T12:51:05Z</time>
      </trkpt>
      <trkpt lat="41.039800" lon="-3.748167">
        <ele>2022.0</ele>
        <time>2018-07-21T12:51:06Z</time>
      </trkpt>
      <trkpt lat="41.039850" lon="-3.748183">
        <ele>2025.0</ele>
        <time>2018-07-21T12:51:07Z</time>
      </trkpt>
      <trkpt lat="41.039900" lon="-3.748150">
        <ele>2027.0</ele>
        <time>2018-07-21T12:51:08Z</time>
      </trkpt>
      <trkpt lat="41.039950" lon="-3.748050">
        <ele>2030.0</ele>
        <time>2018-07-21T12:51:09Z</time>
      </trkpt>
      <trkpt lat="41.040000" lon="-3.747933">
        <ele>2031.0</ele>
        <time>2018-07-21T12:51:10Z</time>
      </trkpt>
      <trkpt lat="41.040017" lon="-3.747800">
        <ele>2032.0</ele>
        <time>2018-07-21T12:51:11Z</time>
      </trkpt>
      <trkpt lat="41.040050" lon="-3.747667">
        <ele>2033.0</ele>
        <time>2018-07-21T12:51:12Z</time>
      </trkpt>
      <trkpt lat="41.040100" lon="-3.747550">
        <ele>2034.0</ele>
        <time>2018-07-21T12:51:13Z</time>
      </trkpt>
      <trkpt lat="41.040150" lon="-3.747483">
        <ele>2034.0</ele>
        <time>2018-07-21T12:51:14Z</time>
      </trkpt>
      <trkpt lat="41.040217" lon="-3.747433">
        <ele>2034.0</ele>
        <time>2018-07-21T12:51:15Z</time>
      </trkpt>
      <trkpt lat="41.040250" lon="-3.747433">
        <ele>2033.0</ele>
        <time>2018-07-21T12:51:16Z</time>
      </trkpt>
      <trkpt lat="41.040300" lon="-3.747467">
        <ele>2032.0</ele>
        <time>2018-07-21T12:51:17Z</time>
      </trkpt>
      <trkpt lat="41.040300" lon="-3.747517">
        <ele>2032.0</ele>
        <time>2018-07-21T12:51:18Z</time>
      </trkpt>
      <trkpt lat="41.040283" lon="-3.747600">
        <ele>2031.0</ele>
        <time>2018-07-21T12:51:19Z</time>
      </trkpt>
      <trkpt lat="41.040233" lon="-3.747700">
        <ele>2030.0</ele>
        <time>2018-07-21T12:51:20Z</time>
      </trkpt>
      <trkpt lat="41.040167" lon="-3.747783">
        <ele>2030.0</ele>
        <time>2018-07-21T12:51:21Z</time>
      </trkpt>
      <trkpt lat="41.040100" lon="-3.747850">
        <ele>2031.0</ele>
        <time>2018-07-21T12:51:22Z</time>
      </trkpt>
      <trkpt lat="41.040033" lon="-3.747933">
        <ele>2031.0</ele>
        <time>2018-07-21T12:51:23Z</time>
      </trkpt>
      <trkpt lat="41.039967" lon="-3.748000">
        <ele>2032.0</ele>
        <time>2018-07-21T12:51:24Z</time>
      </trkpt>
      <trkpt lat="41.039917" lon="-3.748067">
        <ele>2032.0</ele>
        <time>2018-07-21T12:51:25Z</time>
      </trkpt>
      <trkpt lat="41.039850" lon="-3.748133">
        <ele>2033.0</ele>
        <time>2018-07-21T12:51:26Z</time>
      </trkpt>
      <trkpt lat="41.039783" lon="-3.748217">
        <ele>2035.0</ele>
        <time>2018-07-21T12:51:27Z</time>
      </trkpt>
      <trkpt lat="41.039717" lon="-3.748283">
        <ele>2037.0</ele>
        <time>2018-07-21T12:51:28Z</time>
      </trkpt>
      <trkpt lat="41.039650" lon="-3.748350">
        <ele>2039.0</ele>
        <time>2018-07-21T12:51:29Z</time>
      </trkpt>
      <trkpt lat="41.039600" lon="-3.748417">
        <ele>2039.0</ele>
        <time>2018-07-21T12:51:30Z</time>
      </trkpt>
      <trkpt lat="41.039533" lon="-3.748467">
        <ele>2039.0</ele>
        <time>2018-07-21T12:51:31Z</time>
      </trkpt>
      <trkpt lat="41.039450" lon="-3.748550">
        <ele>2038.0</ele>
        <time>2018-07-21T12:51:32Z</time>
      </trkpt>
      <trkpt lat="41.039367" lon="-3.748617">
        <ele>2038.0</ele>
        <time>2018-07-21T12:51:33Z</time>
      </trkpt>
      <trkpt lat="41.039267" lon="-3.748700">
        <ele>2038.0</ele>
        <time>2018-07-21T12:51:34Z</time>
      </trkpt>
      <trkpt lat="41.039183" lon="-3.748783">
        <ele>2040.0</ele>
        <time>2018-07-21T12:51:35Z</time>
      </trkpt>
      <trkpt lat="41.039100" lon="-3.748850">
        <ele>2042.0</ele>
        <time>2018-07-21T12:51:36Z</time>
      </trkpt>
      <trkpt lat="41.039033" lon="-3.748917">
        <ele>2044.0</ele>
        <time>2018-07-21T12:51:37Z</time>
      </trkpt>
      <trkpt lat="41.038950" lon="-3.748967">
        <ele>2045.0</ele>
        <time>2018-07-21T12:51:38Z</time>
      </trkpt>
      <trkpt lat="41.038867" lon="-3.749017">
        <ele>2045.0</ele>
        <time>2018-07-21T12:51:39Z</time>
      </trkpt>
      <trkpt lat="41.038767" lon="-3.749067">
        <ele>2044.0</ele>
        <time>2018-07-21T12:51:40Z</time>
      </trkpt>
      <trkpt lat="41.038650" lon="-3.749133">
        <ele>2043.0</ele>
        <time>2018-07-21T12:51:41Z</time>
      </trkpt>
      <trkpt lat="41.038550" lon="-3.749183">
        <ele>2044.0</ele>
        <time>2018-07-21T12:51:42Z</time>
      </trkpt>
      <trkpt lat="41.038450" lon="-3.749233">
        <ele>2045.0</ele>
        <time>2018-07-21T12:51:43Z</time>
      </trkpt>
      <trkpt lat="41.038367" lon="-3.749300">
        <ele>2047.0</ele>
        <time>2018-07-21T12:51:44Z</time>
      </trkpt>
      <trkpt lat="41.038283" lon="-3.749350">
        <ele>2049.0</ele>
        <time>2018-07-21T12:51:45Z</time>
      </trkpt>
      <trkpt lat="41.038200" lon="-3.749400">
        <ele>2051.0</ele>
        <time>2018-07-21T12:51:46Z</time>
      </trkpt>
      <trkpt lat="41.038133" lon="-3.749467">
        <ele>2051.0</ele>
        <time>2018-07-21T12:51:47Z</time>
      </trkpt>
      <trkpt lat="41.038050" lon="-3.749517">
        <ele>2051.0</ele>
        <time>2018-07-21T12:51:48Z</time>
      </trkpt>
      <trkpt lat="41.037983" lon="-3.749550">
        <ele>2050.0</ele>
        <time>2018-07-21T12:51:49Z</time>
      </trkpt>
      <trkpt lat="41.037900" lon="-3.749617">
        <ele>2048.0</ele>
        <time>2018-07-21T12:51:50Z</time>
      </trkpt>
      <trkpt lat="41.037817" lon="-3.749683">
        <ele>2046.0</ele>
        <time>2018-07-21T12:51:51Z</time>
      </trkpt>
      <trkpt lat="41.037750" lon="-3.749767">
        <ele>2044.0</ele>
        <time>2018-07-21T12:51:52Z</time>
      </trkpt>
      <trkpt lat="41.037667" lon="-3.749850">
        <ele>2044.0</ele>
        <time>2018-07-21T12:51:53Z</time>
      </trkpt>
      <trkpt lat="41.037617" lon="-3.749950">
        <ele>2046.0</ele>
        <time>2018-07-21T12:51:54Z</time>
      </trkpt>
      <trkpt lat="41.037550" lon="-3.750033">
        <ele>2048.0</ele>
        <time>2018-07-21T12:51:55Z</time>
      </trkpt>
      <trkpt lat="41.037483" lon="-3.750117">
        <ele>2051.0</ele>
        <time>2018-07-21T12:51:56Z</time>
      </trkpt>
      <trkpt lat="41.037433" lon="-3.750167">
        <ele>2053.0</ele>
        <time>2018-07-21T12:51:57Z</time>
      </trkpt>
      <trkpt lat="41.037383" lon="-3.750233">
        <ele>2053.0</ele>
        <time>2018-07-21T12:51:58Z</time>
      </trkpt>
      <trkpt lat="41.037333" lon="-3.750317">
        <ele>2053.0</ele>
        <time>2018-07-21T12:51:59Z</time>
      </trkpt>
      <trkpt lat="41.037300" lon="-3.750417">
        <ele>2052.0</ele>
        <time>2018-07-21T12:52:00Z</time>
      </trkpt>
      <trkpt lat="41.037267" lon="-3.750517">
        <ele>2053.0</ele>
        <time>2018-07-21T12:52:01Z</time>
      </trkpt>
      <trkpt lat="41.037233" lon="-3.750633">
        <ele>2054.0</ele>
        <time>2018-07-21T12:52:02Z</time>
      </trkpt>
      <trkpt lat="41.037200" lon="-3.750717">
        <ele>2055.0</ele>
        <time>2018-07-21T12:52:03Z</time>
      </trkpt>
      <trkpt lat="41.037183" lon="-3.750817">
        <ele>2057.0</ele>
        <time>2018-07-21T12:52:04Z</time>
      </trkpt>
      <trkpt lat="41.037167" lon="-3.750900">
        <ele>2058.0</ele>
        <time>2018-07-21T12:52:05Z</time>
      </trkpt>
      <trkpt lat="41.037133" lon="-3.750983">
        <ele>2059.0</ele>
        <time>2018-07-21T12:52:06Z</time>
      </trkpt>
      <trkpt lat="41.037100" lon="-3.751083">
        <ele>2060.0</ele>
        <time>2018-07-21T12:52:07Z</time>
      </trkpt>
      <trkpt lat="41.037067" lon="-3.751167">
        <ele>2061.0</ele>
        <time>2018-07-21T12:52:08Z</time>
      </trkpt>
      <trkpt lat="41.037033" lon="-3.751267">
        <ele>2062.0</ele>
        <time>2018-07-21T12:52:09Z</time>
      </trkpt>
      <trkpt lat="41.037017" lon="-3.751367">
        <ele>2063.0</ele>
        <time>2018-07-21T12:52:10Z</time>
      </trkpt>
      <trkpt lat="41.036983" lon="-3.751450">
        <ele>2065.0</ele>
        <time>2018-07-21T12:52:11Z</time>
      </trkpt>
      <trkpt lat="41.036967" lon="-3.751550">
        <ele>2066.0</ele>
        <time>2018-07-21T12:52:12Z</time>
      </trkpt>
      <trkpt lat="41.036933" lon="-3.751633">
        <ele>2067.0</ele>
        <time>2018-07-21T12:52:13Z</time>
      </trkpt>
      <trkpt lat="41.036917" lon="-3.751717">
        <ele>2067.0</ele>
        <time>2018-07-21T12:52:14Z</time>
      </trkpt>
      <trkpt lat="41.036883" lon="-3.751817">
        <ele>2068.0</ele>
        <time>2018-07-21T12:52:15Z</time>
      </trkpt>
      <trkpt lat="41.036883" lon="-3.751900">
        <ele>2069.0</ele>
        <time>2018-07-21T12:52:16Z</time>
      </trkpt>
      <trkpt lat="41.036900" lon="-3.751983">
        <ele>2069.0</ele>
        <time>2018-07-21T12:52:17Z</time>
      </trkpt>
      <trkpt lat="41.036950" lon="-3.752033">
        <ele>2069.0</ele>
        <time>2018-07-21T12:52:18Z</time>
      </trkpt>
      <trkpt lat="41.037017" lon="-3.752050">
        <ele>2069.0</ele>
        <time>2018-07-21T12:52:19Z</time>
      </trkpt>
      <trkpt lat="41.037100" lon="-3.752017">
        <ele>2070.0</ele>
        <time>2018-07-21T12:52:20Z</time>
      </trkpt>
      <trkpt lat="41.037167" lon="-3.751933">
        <ele>2071.0</ele>
        <time>2018-07-21T12:52:21Z</time>
      </trkpt>
      <trkpt lat="41.037217" lon="-3.751833">
        <ele>2072.0</ele>
        <time>2018-07-21T12:52:22Z</time>
      </trkpt>
      <trkpt lat="41.037250" lon="-3.751717">
        <ele>2073.0</ele>
        <time>2018-07-21T12:52:23Z</time>
      </trkpt>
      <trkpt lat="41.037267" lon="-3.751567">
        <ele>2073.0</ele>
        <time>2018-07-21T12:52:24Z</time>
      </trkpt>
      <trkpt lat="41.037250" lon="-3.751417">
        <ele>2074.0</ele>
        <time>2018-07-21T12:52:25Z</time>
      </trkpt>
      <trkpt lat="41.037217" lon="-3.751267">
        <ele>2073.0</ele>
        <time>2018-07-21T12:52:26Z</time>
      </trkpt>
      <trkpt lat="41.037133" lon="-3.751117">
        <ele>2073.0</ele>
        <time>2018-07-21T12:52:27Z</time>
      </trkpt>
      <trkpt lat="41.037033" lon="-3.750983">
        <ele>2072.0</ele>
        <time>2018-07-21T12:52:28Z</time>
      </trkpt>
      <trkpt lat="41.036917" lon="-3.750900">
        <ele>2073.0</ele>
        <time>2018-07-21T12:52:29Z</time>
      </trkpt>
      <trkpt lat="41.036783" lon="-3.750850">
        <ele>2074.0</ele>
        <time>2018-07-21T12:52:30Z</time>
      </trkpt>
      <trkpt lat="41.036650" lon="-3.750850">
        <ele>2076.0</ele>
        <time>2018-07-21T12:52:31Z</time>
      </trkpt>
      <trkpt lat="41.036550" lon="-3.750900">
        <ele>2078.0</ele>
        <time>2018-07-21T12:52:32Z</time>
      </trkpt>
      <trkpt lat="41.036467" lon="-3.750967">
        <ele>2080.0</ele>
        <time>2018-07-21T12:52:33Z</time>
      </trkpt>
      <trkpt lat="41.036417" lon="-3.751050">
        <ele>2081.0</ele>
        <time>2018-07-21T12:52:34Z</time>
      </trkpt>
      <trkpt lat="41.036383" lon="-3.751133">
        <ele>2083.0</ele>
        <time>2018-07-21T12:52:35Z</time>
      </trkpt>
      <trkpt lat="41.036367" lon="-3.751217">
        <ele>2084.0</ele>
        <time>2018-07-21T12:52:36Z</time>
      </trkpt>
      <trkpt lat="41.036350" lon="-3.751300">
        <ele>2085.0</ele>
        <time>2018-07-21T12:52:37Z</time>
      </trkpt>
      <trkpt lat="41.036367" lon="-3.751383">
        <ele>2085.0</ele>
        <time>2018-07-21T12:52:38Z</time>
      </trkpt>
      <trkpt lat="41.036383" lon="-3.751467">
        <ele>2085.0</ele>
        <time>2018-07-21T12:52:39Z</time>
      </trkpt>
      <trkpt lat="41.036417" lon="-3.751550">
        <ele>2085.0</ele>
        <time>2018-07-21T12:52:40Z</time>
      </trkpt>
      <trkpt lat="41.036450" lon="-3.751633">
        <ele>2087.0</ele>
        <time>2018-07-21T12:52:41Z</time>
      </trkpt>
      <trkpt lat="41.036467" lon="-3.751700">
        <ele>2089.0</ele>
        <time>2018-07-21T12:52:42Z</time>
      </trkpt>
      <trkpt lat="41.036500" lon="-3.751767">
        <ele>2090.0</ele>
        <time>2018-07-21T12:52:43Z</time>
      </trkpt>
      <trkpt lat="41.036533" lon="-3.751817">
        <ele>2089.0</ele>
        <time>2018-07-21T12:52:44Z</time>
      </trkpt>
      <trkpt lat="41.036567" lon="-3.751867">
        <ele>2088.0</ele>
        <time>2018-07-21T12:52:45Z</time>
      </trkpt>
      <trkpt lat="41.036600" lon="-3.751933">
        <ele>2088.0</ele>
        <time>2018-07-21T12:52:46Z</time>
      </trkpt>
      <trkpt lat="41.036617" lon="-3.752000">
        <ele>2087.0</ele>
        <time>2018-07-21T12:52:47Z</time>
      </trkpt>
      <trkpt lat="41.036633" lon="-3.752083">
        <ele>2087.0</ele>
        <time>2018-07-21T12:52:48Z</time>
      </trkpt>
      <trkpt lat="41.036633" lon="-3.752167">
        <ele>2087.0</ele>
        <time>2018-07-21T12:52:49Z</time>
      </trkpt>
      <trkpt lat="41.036633" lon="-3.752250">
        <ele>2086.0</ele>
        <time>2018-07-21T12:52:50Z</time>
      </trkpt>
      <trkpt lat="41.036650" lon="-3.752333">
        <ele>2086.0</ele>
        <time>2018-07-21T12:52:51Z</time>
      </trkpt>
      <trkpt lat="41.036667" lon="-3.752417">
        <ele>2086.0</ele>
        <time>2018-07-21T12:52:52Z</time>
      </trkpt>
      <trkpt lat="41.036683" lon="-3.752500">
        <ele>2086.0</ele>
        <time>2018-07-21T12:52:53Z</time>
      </trkpt>
      <trkpt lat="41.036700" lon="-3.752567">
        <ele>2087.0</ele>
        <time>2018-07-21T12:52:54Z</time>
      </trkpt>
      <trkpt lat="41.036700" lon="-3.752650">
        <ele>2088.0</ele>
        <time>2018-07-21T12:52:55Z</time>
      </trkpt>
      <trkpt lat="41.036700" lon="-3.752717">
        <ele>2088.0</ele>
        <time>2018-07-21T12:52:56Z</time>
      </trkpt>
      <trkpt lat="41.036683" lon="-3.752800">
        <ele>2089.0</ele>
        <time>2018-07-21T12:52:57Z</time>
      </trkpt>
      <trkpt lat="41.036683" lon="-3.752883">
        <ele>2089.0</ele>
        <time>2018-07-21T12:52:58Z</time>
      </trkpt>
      <trkpt lat="41.036683" lon="-3.752967">
        <ele>2089.0</ele>
        <time>2018-07-21T12:52:59Z</time>
      </trkpt>
      <trkpt lat="41.036717" lon="-3.753033">
        <ele>2090.0</ele>
        <time>2018-07-21T12:53:00Z</time>
      </trkpt>
      <trkpt lat="41.036767" lon="-3.753067">
        <ele>2091.0</ele>
        <time>2018-07-21T12:53:01Z</time>
      </trkpt>
      <trkpt lat="41.036817" lon="-3.753067">
        <ele>2093.0</ele>
        <time>2018-07-21T12:53:02Z</time>
      </trkpt>
      <trkpt lat="41.036867" lon="-3.753050">
        <ele>2094.0</ele>
        <time>2018-07-21T12:53:03Z</time>
      </trkpt>
      <trkpt lat="41.036900" lon="-3.753050">
        <ele>2095.0</ele>
        <time>2018-07-21T12:53:04Z</time>
      </trkpt>
      <trkpt lat="41.036950" lon="-3.753067">
        <ele>2095.0</ele>
        <time>2018-07-21T12:53:05Z</time>
      </trkpt>
      <trkpt lat="41.036967" lon="-3.753133">
        <ele>2095.0</ele>
        <time>2018-07-21T12:53:06Z</time>
      </trkpt>
      <trkpt lat="41.036967" lon="-3.753217">
        <ele>2094.0</ele>
        <time>2018-07-21T12:53:07Z</time>
      </trkpt>
      <trkpt lat="41.036950" lon="-3.753300">
        <ele>2094.0</ele>
        <time>2018-07-21T12:53:08Z</time>
      </trkpt>
      <trkpt lat="41.036933" lon="-3.753383">
        <ele>2095.0</ele>
        <time>2018-07-21T12:53:09Z</time>
      </trkpt>
      <trkpt lat="41.036900" lon="-3.753450">
        <ele>2096.0</ele>
        <time>2018-07-21T12:53:10Z</time>
      </trkpt>
      <trkpt lat="41.036883" lon="-3.753533">
        <ele>2097.0</ele>
        <time>2018-07-21T12:53:11Z</time>
      </trkpt>
      <trkpt lat="41.036850" lon="-3.753617">
        <ele>2097.0</ele>
        <time>2018-07-21T12:53:12Z</time>
      </trkpt>
      <trkpt lat="41.036800" lon="-3.753700">
        <ele>2098.0</ele>
        <time>2018-07-21T12:53:13Z</time>
      </trkpt>
      <trkpt lat="41.036750" lon="-3.753767">
        <ele>2099.0</ele>
        <time>2018-07-21T12:53:14Z</time>
      </trkpt>
      <trkpt lat="41.036700" lon="-3.753833">
        <ele>2100.0</ele>
        <time>2018-07-21T12:53:15Z</time>
      </trkpt>
      <trkpt lat="41.036650" lon="-3.753917">
        <ele>2099.0</ele>
        <time>2018-07-21T12:53:16Z</time>
      </trkpt>
      <trkpt lat="41.036617" lon="-3.754000">
        <ele>2099.0</ele>
        <time>2018-07-21T12:53:17Z</time>
      </trkpt>
      <trkpt lat="41.036550" lon="-3.754083">
        <ele>2099.0</ele>
        <time>2018-07-21T12:53:18Z</time>
      </trkpt>
      <trkpt lat="41.036500" lon="-3.754167">
        <ele>2100.0</ele>
        <time>2018-07-21T12:53:19Z</time>
      </trkpt>
      <trkpt lat="41.036433" lon="-3.754233">
        <ele>2101.0</ele>
        <time>2018-07-21T12:53:20Z</time>
      </trkpt>
      <trkpt lat="41.036400" lon="-3.754300">
        <ele>2102.0</ele>
        <time>2018-07-21T12:53:21Z</time>
      </trkpt>
      <trkpt lat="41.036350" lon="-3.754350">
        <ele>2103.0</ele>
        <time>2018-07-21T12:53:22Z</time>
      </trkpt>
      <trkpt lat="41.036300" lon="-3.754417">
        <ele>2103.0</ele>
        <time>2018-07-21T12:53:23Z</time>
      </trkpt>
      <trkpt lat="41.036250" lon="-3.754483">
        <ele>2102.0</ele>
        <time>2018-07-21T12:53:24Z</time>
      </trkpt>
      <trkpt lat="41.036200" lon="-3.754550">
        <ele>2101.0</ele>
        <time>2018-07-21T12:53:25Z</time>
      </trkpt>
      <trkpt lat="41.036133" lon="-3.754633">
        <ele>2101.0</ele>
        <time>2018-07-21T12:53:26Z</time>
      </trkpt>
      <trkpt lat="41.036083" lon="-3.754717">
        <ele>2102.0</ele>
        <time>2018-07-21T12:53:27Z</time>
      </trkpt>
      <trkpt lat="41.036033" lon="-3.754783">
        <ele>2103.0</ele>
        <time>2018-07-21T12:53:28Z</time>
      </trkpt>
      <trkpt lat="41.036000" lon="-3.754850">
        <ele>2103.0</ele>
        <time>2018-07-21T12:53:29Z</time>
      </trkpt>
      <trkpt lat="41.035950" lon="-3.754933">
        <ele>2102.0</ele>
        <time>2018-07-21T12:53:30Z</time>
      </trkpt>
      <trkpt lat="41.035900" lon="-3.755000">
        <ele>2101.0</ele>
        <time>2018-07-21T12:53:31Z</time>
      </trkpt>
      <trkpt lat="41.035833" lon="-3.755083">
        <ele>2100.0</ele>
        <time>2018-07-21T12:53:32Z</time>
      </trkpt>
      <trkpt lat="41.035800" lon="-3.755167">
        <ele>2100.0</ele>
        <time>2018-07-21T12:53:33Z</time>
      </trkpt>
      <trkpt lat="41.035750" lon="-3.755233">
        <ele>2099.0</ele>
        <time>2018-07-21T12:53:34Z</time>
      </trkpt>
      <trkpt lat="41.035733" lon="-3.755317">
        <ele>2099.0</ele>
        <time>2018-07-21T12:53:35Z</time>
      </trkpt>
      <trkpt lat="41.035700" lon="-3.755400">
        <ele>2098.0</ele>
        <time>2018-07-21T12:53:36Z</time>
      </trkpt>
      <trkpt lat="41.035683" lon="-3.755483">
        <ele>2098.0</ele>
        <time>2018-07-21T12:53:37Z</time>
      </trkpt>
      <trkpt lat="41.035650" lon="-3.755567">
        <ele>2097.0</ele>
        <time>2018-07-21T12:53:38Z</time>
      </trkpt>
      <trkpt lat="41.035633" lon="-3.755667">
        <ele>2097.0</ele>
        <time>2018-07-21T12:53:39Z</time>
      </trkpt>
      <trkpt lat="41.035600" lon="-3.755750">
        <ele>2098.0</ele>
        <time>2018-07-21T12:53:40Z</time>
      </trkpt>
      <trkpt lat="41.035583" lon="-3.755833">
        <ele>2099.0</ele>
        <time>2018-07-21T12:53:41Z</time>
      </trkpt>
      <trkpt lat="41.035550" lon="-3.755917">
        <ele>2100.0</ele>
        <time>2018-07-21T12:53:42Z</time>
      </trkpt>
      <trkpt lat="41.035517" lon="-3.756000">
        <ele>2101.0</ele>
        <time>2018-07-21T12:53:43Z</time>
      </trkpt>
      <trkpt lat="41.035500" lon="-3.756083">
        <ele>2101.0</ele>
        <time>2018-07-21T12:53:44Z</time>
      </trkpt>
      <trkpt lat="41.035467" lon="-3.756167">
        <ele>2101.0</ele>
        <time>2018-07-21T12:53:45Z</time>
      </trkpt>
      <trkpt lat="41.035450" lon="-3.756267">
        <ele>2100.0</ele>
        <time>2018-07-21T12:53:46Z</time>
      </trkpt>
      <trkpt lat="41.035417" lon="-3.756367">
        <ele>2099.0</ele>
        <time>2018-07-21T12:53:47Z</time>
      </trkpt>
      <trkpt lat="41.035383" lon="-3.756450">
        <ele>2098.0</ele>
        <time>2018-07-21T12:53:48Z</time>
      </trkpt>
      <trkpt lat="41.035367" lon="-3.756550">
        <ele>2097.0</ele>
        <time>2018-07-21T12:53:49Z</time>
      </trkpt>
      <trkpt lat="41.035333" lon="-3.756650">
        <ele>2096.0</ele>
        <time>2018-07-21T12:53:50Z</time>
      </trkpt>
      <trkpt lat="41.035300" lon="-3.756750">
        <ele>2095.0</ele>
        <time>2018-07-21T12:53:51Z</time>
      </trkpt>
      <trkpt lat="41.035267" lon="-3.756850">
        <ele>2094.0</ele>
        <time>2018-07-21T12:53:52Z</time>
      </trkpt>
      <trkpt lat="41.035233" lon="-3.756950">
        <ele>2094.0</ele>
        <time>2018-07-21T12:53:53Z</time>
      </trkpt>
      <trkpt lat="41.035200" lon="-3.757050">
        <ele>2093.0</ele>
        <time>2018-07-21T12:53:54Z</time>
      </trkpt>
      <trkpt lat="41.035150" lon="-3.757150">
        <ele>2094.0</ele>
        <time>2018-07-21T12:53:55Z</time>
      </trkpt>
      <trkpt lat="41.035100" lon="-3.757250">
        <ele>2094.0</ele>
        <time>2018-07-21T12:53:56Z</time>
      </trkpt>
      <trkpt lat="41.035050" lon="-3.757333">
        <ele>2096.0</ele>
        <time>2018-07-21T12:53:57Z</time>
      </trkpt>
      <trkpt lat="41.035000" lon="-3.757417">
        <ele>2098.0</ele>
        <time>2018-07-21T12:53:58Z</time>
      </trkpt>
      <trkpt lat="41.034950" lon="-3.757500">
        <ele>2100.0</ele>
        <time>2018-07-21T12:53:59Z</time>
      </trkpt>
      <trkpt lat="41.034900" lon="-3.757567">
        <ele>2101.0</ele>
        <time>2018-07-21T12:54:00Z</time>
      </trkpt>
      <trkpt lat="41.034850" lon="-3.757633">
        <ele>2102.0</ele>
        <time>2018-07-21T12:54:01Z</time>
      </trkpt>
      <trkpt lat="41.034800" lon="-3.757700">
        <ele>2101.0</ele>
        <time>2018-07-21T12:54:02Z</time>
      </trkpt>
      <trkpt lat="41.034750" lon="-3.757783">
        <ele>2101.0</ele>
        <time>2018-07-21T12:54:03Z</time>
      </trkpt>
      <trkpt lat="41.034683" lon="-3.757867">
        <ele>2101.0</ele>
        <time>2018-07-21T12:54:04Z</time>
      </trkpt>
      <trkpt lat="41.034617" lon="-3.757950">
        <ele>2101.0</ele>
        <time>2018-07-21T12:54:05Z</time>
      </trkpt>
      <trkpt lat="41.034567" lon="-3.758050">
        <ele>2102.0</ele>
        <time>2018-07-21T12:54:06Z</time>
      </trkpt>
      <trkpt lat="41.034517" lon="-3.758150">
        <ele>2104.0</ele>
        <time>2018-07-21T12:54:07Z</time>
      </trkpt>
      <trkpt lat="41.034467" lon="-3.758233">
        <ele>2105.0</ele>
        <time>2018-07-21T12:54:08Z</time>
      </trkpt>
      <trkpt lat="41.034400" lon="-3.758317">
        <ele>2106.0</ele>
        <time>2018-07-21T12:54:09Z</time>
      </trkpt>
      <trkpt lat="41.034333" lon="-3.758400">
        <ele>2107.0</ele>
        <time>2018-07-21T12:54:10Z</time>
      </trkpt>
      <trkpt lat="41.034267" lon="-3.758500">
        <ele>2107.0</ele>
        <time>2018-07-21T12:54:11Z</time>
      </trkpt>
      <trkpt lat="41.034217" lon="-3.758600">
        <ele>2107.0</ele>
        <time>2018-07-21T12:54:12Z</time>
      </trkpt>
      <trkpt lat="41.034167" lon="-3.758700">
        <ele>2106.0</ele>
        <time>2018-07-21T12:54:13Z</time>
      </trkpt>
      <trkpt lat="41.034117" lon="-3.758800">
        <ele>2106.0</ele>
        <time>2018-07-21T12:54:14Z</time>
      </trkpt>
      <trkpt lat="41.034067" lon="-3.758883">
        <ele>2107.0</ele>
        <time>2018-07-21T12:54:15Z</time>
      </trkpt>
      <trkpt lat="41.034000" lon="-3.758967">
        <ele>2107.0</ele>
        <time>2018-07-21T12:54:16Z</time>
      </trkpt>
      <trkpt lat="41.033950" lon="-3.759067">
        <ele>2108.0</ele>
        <time>2018-07-21T12:54:17Z</time>
      </trkpt>
      <trkpt lat="41.033900" lon="-3.759150">
        <ele>2108.0</ele>
        <time>2018-07-21T12:54:18Z</time>
      </trkpt>
      <trkpt lat="41.033850" lon="-3.759233">
        <ele>2108.0</ele>
        <time>2018-07-21T12:54:19Z</time>
      </trkpt>
      <trkpt lat="41.033817" lon="-3.759317">
        <ele>2108.0</ele>
        <time>2018-07-21T12:54:20Z</time>
      </trkpt>
      <trkpt lat="41.033767" lon="-3.759400">
        <ele>2107.0</ele>
        <time>2018-07-21T12:54:21Z</time>
      </trkpt>
      <trkpt lat="41.033700" lon="-3.759483">
        <ele>2105.0</ele>
        <time>2018-07-21T12:54:22Z</time>
      </trkpt>
      <trkpt lat="41.033633" lon="-3.759583">
        <ele>2103.0</ele>
        <time>2018-07-21T12:54:23Z</time>
      </trkpt>
      <trkpt lat="41.033583" lon="-3.759683">
        <ele>2103.0</ele>
        <time>2018-07-21T12:54:24Z</time>
      </trkpt>
      <trkpt lat="41.033533" lon="-3.759783">
        <ele>2103.0</ele>
        <time>2018-07-21T12:54:25Z</time>
      </trkpt>
      <trkpt lat="41.033483" lon="-3.759867">
        <ele>2104.0</ele>
        <time>2018-07-21T12:54:26Z</time>
      </trkpt>
      <trkpt lat="41.033433" lon="-3.759950">
        <ele>2105.0</ele>
        <time>2018-07-21T12:54:27Z</time>
      </trkpt>
      <trkpt lat="41.033400" lon="-3.760033">
        <ele>2105.0</ele>
        <time>2018-07-21T12:54:28Z</time>
      </trkpt>
      <trkpt lat="41.033350" lon="-3.760100">
        <ele>2104.0</ele>
        <time>2018-07-21T12:54:29Z</time>
      </trkpt>
      <trkpt lat="41.033300" lon="-3.760200">
        <ele>2103.0</ele>
        <time>2018-07-21T12:54:30Z</time>
      </trkpt>
      <trkpt lat="41.033250" lon="-3.760283">
        <ele>2102.0</ele>
        <time>2018-07-21T12:54:31Z</time>
      </trkpt>
      <trkpt lat="41.033217" lon="-3.760383">
        <ele>2102.0</ele>
        <time>2018-07-21T12:54:32Z</time>
      </trkpt>
      <trkpt lat="41.033183" lon="-3.760467">
        <ele>2102.0</ele>
        <time>2018-07-21T12:54:33Z</time>
      </trkpt>
      <trkpt lat="41.033133" lon="-3.760550">
        <ele>2101.0</ele>
        <time>2018-07-21T12:54:34Z</time>
      </trkpt>
      <trkpt lat="41.033100" lon="-3.760633">
        <ele>2101.0</ele>
        <time>2018-07-21T12:54:35Z</time>
      </trkpt>
      <trkpt lat="41.033050" lon="-3.760717">
        <ele>2101.0</ele>
        <time>2018-07-21T12:54:36Z</time>
      </trkpt>
      <trkpt lat="41.033017" lon="-3.760800">
        <ele>2100.0</ele>
        <time>2018-07-21T12:54:37Z</time>
      </trkpt>
      <trkpt lat="41.032983" lon="-3.760867">
        <ele>2099.0</ele>
        <time>2018-07-21T12:54:38Z</time>
      </trkpt>
      <trkpt lat="41.032967" lon="-3.760967">
        <ele>2097.0</ele>
        <time>2018-07-21T12:54:39Z</time>
      </trkpt>
      <trkpt lat="41.032933" lon="-3.761050">
        <ele>2096.0</ele>
        <time>2018-07-21T12:54:40Z</time>
      </trkpt>
      <trkpt lat="41.032917" lon="-3.761150">
        <ele>2096.0</ele>
        <time>2018-07-21T12:54:41Z</time>
      </trkpt>
      <trkpt lat="41.032883" lon="-3.761250">
        <ele>2096.0</ele>
        <time>2018-07-21T12:54:42Z</time>
      </trkpt>
      <trkpt lat="41.032867" lon="-3.761333">
        <ele>2095.0</ele>
        <time>2018-07-21T12:54:43Z</time>
      </trkpt>
      <trkpt lat="41.032850" lon="-3.761417">
        <ele>2093.0</ele>
        <time>2018-07-21T12:54:44Z</time>
      </trkpt>
      <trkpt lat="41.032850" lon="-3.761500">
        <ele>2091.0</ele>
        <time>2018-07-21T12:54:45Z</time>
      </trkpt>
      <trkpt lat="41.032833" lon="-3.761583">
        <ele>2088.0</ele>
        <time>2018-07-21T12:54:46Z</time>
      </trkpt>
      <trkpt lat="41.032800" lon="-3.761667">
        <ele>2086.0</ele>
        <time>2018-07-21T12:54:47Z</time>
      </trkpt>
      <trkpt lat="41.032767" lon="-3.761767">
        <ele>2085.0</ele>
        <time>2018-07-21T12:54:48Z</time>
      </trkpt>
      <trkpt lat="41.032733" lon="-3.761850">
        <ele>2083.0</ele>
        <time>2018-07-21T12:54:49Z</time>
      </trkpt>
      <trkpt lat="41.032700" lon="-3.761950">
        <ele>2082.0</ele>
        <time>2018-07-21T12:54:50Z</time>
      </trkpt>
      <trkpt lat="41.032683" lon="-3.762033">
        <ele>2081.0</ele>
        <time>2018-07-21T12:54:51Z</time>
      </trkpt>
      <trkpt lat="41.032650" lon="-3.762117">
        <ele>2080.0</ele>
        <time>2018-07-21T12:54:52Z</time>
      </trkpt>
      <trkpt lat="41.032617" lon="-3.762183">
        <ele>2078.0</ele>
        <time>2018-07-21T12:54:53Z</time>
      </trkpt>
      <trkpt lat="41.032583" lon="-3.762267">
        <ele>2077.0</ele>
        <time>2018-07-21T12:54:54Z</time>
      </trkpt>
      <trkpt lat="41.032550" lon="-3.762333">
        <ele>2075.0</ele>
        <time>2018-07-21T12:54:55Z</time>
      </trkpt>
      <trkpt lat="41.032500" lon="-3.762417">
        <ele>2074.0</ele>
        <time>2018-07-21T12:54:56Z</time>
      </trkpt>
      <trkpt lat="41.032467" lon="-3.762483">
        <ele>2075.0</ele>
        <time>2018-07-21T12:54:57Z</time>
      </trkpt>
      <trkpt lat="41.032417" lon="-3.762550">
        <ele>2075.0</ele>
        <time>2018-07-21T12:54:58Z</time>
      </trkpt>
      <trkpt lat="41.032367" lon="-3.762617">
        <ele>2075.0</ele>
        <time>2018-07-21T12:54:59Z</time>
      </trkpt>
      <trkpt lat="41.032300" lon="-3.762700">
        <ele>2075.0</ele>
        <time>2018-07-21T12:55:00Z</time>
      </trkpt>
      <trkpt lat="41.032250" lon="-3.762783">
        <ele>2075.0</ele>
        <time>2018-07-21T12:55:01Z</time>
      </trkpt>
      <trkpt lat="41.032200" lon="-3.762867">
        <ele>2077.0</ele>
        <time>2018-07-21T12:55:02Z</time>
      </trkpt>
      <trkpt lat="41.032150" lon="-3.762933">
        <ele>2080.0</ele>
        <time>2018-07-21T12:55:03Z</time>
      </trkpt>
      <trkpt lat="41.032117" lon="-3.762983">
        <ele>2082.0</ele>
        <time>2018-07-21T12:55:04Z</time>
      </trkpt>
      <trkpt lat="41.032083" lon="-3.763050">
        <ele>2084.0</ele>
        <time>2018-07-21T12:55:05Z</time>
      </trkpt>
      <trkpt lat="41.032033" lon="-3.763100">
        <ele>2086.0</ele>
        <time>2018-07-21T12:55:06Z</time>
      </trkpt>
      <trkpt lat="41.032000" lon="-3.763150">
        <ele>2086.0</ele>
        <time>2018-07-21T12:55:07Z</time>
      </trkpt>
      <trkpt lat="41.031983" lon="-3.763217">
        <ele>2087.0</ele>
        <time>2018-07-21T12:55:08Z</time>
      </trkpt>
      <trkpt lat="41.031983" lon="-3.763283">
        <ele>2087.0</ele>
        <time>2018-07-21T12:55:09Z</time>
      </trkpt>
      <trkpt lat="41.032017" lon="-3.763333">
        <ele>2087.0</ele>
        <time>2018-07-21T12:55:10Z</time>
      </trkpt>
      <trkpt lat="41.032083" lon="-3.763350">
        <ele>2087.0</ele>
        <time>2018-07-21T12:55:11Z</time>
      </trkpt>
      <trkpt lat="41.032183" lon="-3.763350">
        <ele>2088.0</ele>
        <time>2018-07-21T12:55:12Z</time>
      </trkpt>
      <trkpt lat="41.032267" lon="-3.763300">
        <ele>2089.0</ele>
        <time>2018-07-21T12:55:13Z</time>
      </trkpt>
      <trkpt lat="41.032350" lon="-3.763217">
        <ele>2090.0</ele>
        <time>2018-07-21T12:55:14Z</time>
      </trkpt>
      <trkpt lat="41.032417" lon="-3.763083">
        <ele>2090.0</ele>
        <time>2018-07-21T12:55:15Z</time>
      </trkpt>
      <trkpt lat="41.032467" lon="-3.762917">
        <ele>2091.0</ele>
        <time>2018-07-21T12:55:16Z</time>
      </trkpt>
      <trkpt lat="41.032467" lon="-3.762733">
        <ele>2093.0</ele>
        <time>2018-07-21T12:55:17Z</time>
      </trkpt>
      <trkpt lat="41.032450" lon="-3.762550">
        <ele>2095.0</ele>
        <time>2018-07-21T12:55:18Z</time>
      </trkpt>
      <trkpt lat="41.032400" lon="-3.762383">
        <ele>2096.0</ele>
        <time>2018-07-21T12:55:19Z</time>
      </trkpt>
      <trkpt lat="41.032333" lon="-3.762233">
        <ele>2097.0</ele>
        <time>2018-07-21T12:55:20Z</time>
      </trkpt>
      <trkpt lat="41.032250" lon="-3.762117">
        <ele>2098.0</ele>
        <time>2018-07-21T12:55:21Z</time>
      </trkpt>
      <trkpt lat="41.032150" lon="-3.762017">
        <ele>2098.0</ele>
        <time>2018-07-21T12:55:22Z</time>
      </trkpt>
      <trkpt lat="41.032033" lon="-3.761933">
        <ele>2098.0</ele>
        <time>2018-07-21T12:55:23Z</time>
      </trkpt>
      <trkpt lat="41.031917" lon="-3.761900">
        <ele>2097.0</ele>
        <time>2018-07-21T12:55:24Z</time>
      </trkpt>
      <trkpt lat="41.031800" lon="-3.761900">
        <ele>2099.0</ele>
        <time>2018-07-21T12:55:25Z</time>
      </trkpt>
      <trkpt lat="41.031700" lon="-3.761917">
        <ele>2100.0</ele>
        <time>2018-07-21T12:55:26Z</time>
      </trkpt>
      <trkpt lat="41.031633" lon="-3.761967">
        <ele>2102.0</ele>
        <time>2018-07-21T12:55:27Z</time>
      </trkpt>
      <trkpt lat="41.031583" lon="-3.762017">
        <ele>2104.0</ele>
        <time>2018-07-21T12:55:28Z</time>
      </trkpt>
      <trkpt lat="41.031550" lon="-3.762067">
        <ele>2105.0</ele>
        <time>2018-07-21T12:55:29Z</time>
      </trkpt>
      <trkpt lat="41.031533" lon="-3.762117">
        <ele>2106.0</ele>
        <time>2018-07-21T12:55:30Z</time>
      </trkpt>
      <trkpt lat="41.031550" lon="-3.762167">
        <ele>2106.0</ele>
        <time>2018-07-21T12:55:31Z</time>
      </trkpt>
      <trkpt lat="41.031567" lon="-3.762233">
        <ele>2107.0</ele>
        <time>2018-07-21T12:55:32Z</time>
      </trkpt>
      <trkpt lat="41.031617" lon="-3.762283">
        <ele>2109.0</ele>
        <time>2018-07-21T12:55:33Z</time>
      </trkpt>
      <trkpt lat="41.031683" lon="-3.762300">
        <ele>2111.0</ele>
        <time>2018-07-21T12:55:34Z</time>
      </trkpt>
      <trkpt lat="41.031733" lon="-3.762300">
        <ele>2113.0</ele>
        <time>2018-07-21T12:55:35Z</time>
      </trkpt>
      <trkpt lat="41.031800" lon="-3.762267">
        <ele>2115.0</ele>
        <time>2018-07-21T12:55:36Z</time>
      </trkpt>
      <trkpt lat="41.031867" lon="-3.762200">
        <ele>2115.0</ele>
        <time>2018-07-21T12:55:37Z</time>
      </trkpt>
      <trkpt lat="41.031950" lon="-3.762083">
        <ele>2116.0</ele>
        <time>2018-07-21T12:55:38Z</time>
      </trkpt>
      <trkpt lat="41.032000" lon="-3.761950">
        <ele>2118.0</ele>
        <time>2018-07-21T12:55:39Z</time>
      </trkpt>
      <trkpt lat="41.032033" lon="-3.761800">
        <ele>2119.0</ele>
        <time>2018-07-21T12:55:40Z</time>
      </trkpt>
      <trkpt lat="41.032050" lon="-3.761650">
        <ele>2121.0</ele>
        <time>2018-07-21T12:55:41Z</time>
      </trkpt>
      <trkpt lat="41.032067" lon="-3.761517">
        <ele>2123.0</ele>
        <time>2018-07-21T12:55:42Z</time>
      </trkpt>
      <trkpt lat="41.032050" lon="-3.761367">
        <ele>2124.0</ele>
        <time>2018-07-21T12:55:43Z</time>
      </trkpt>
      <trkpt lat="41.032033" lon="-3.761200">
        <ele>2124.0</ele>
        <time>2018-07-21T12:55:44Z</time>
      </trkpt>
      <trkpt lat="41.031983" lon="-3.761033">
        <ele>2124.0</ele>
        <time>2018-07-21T12:55:45Z</time>
      </trkpt>
      <trkpt lat="41.031900" lon="-3.760900">
        <ele>2123.0</ele>
        <time>2018-07-21T12:55:46Z</time>
      </trkpt>
      <trkpt lat="41.031800" lon="-3.760800">
        <ele>2122.0</ele>
        <time>2018-07-21T12:55:47Z</time>
      </trkpt>
      <trkpt lat="41.031667" lon="-3.760733">
        <ele>2122.0</ele>
        <time>2018-07-21T12:55:48Z</time>
      </trkpt>
      <trkpt lat="41.031550" lon="-3.760700">
        <ele>2122.0</ele>
        <time>2018-07-21T12:55:49Z</time>
      </trkpt>
      <trkpt lat="41.031433" lon="-3.760717">
        <ele>2122.0</ele>
        <time>2018-07-21T12:55:50Z</time>
      </trkpt>
      <trkpt lat="41.031333" lon="-3.760750">
        <ele>2123.0</ele>
        <time>2018-07-21T12:55:51Z</time>
      </trkpt>
      <trkpt lat="41.031250" lon="-3.760800">
        <ele>2124.0</ele>
        <time>2018-07-21T12:55:52Z</time>
      </trkpt>
      <trkpt lat="41.031167" lon="-3.760850">
        <ele>2125.0</ele>
        <time>2018-07-21T12:55:53Z</time>
      </trkpt>
      <trkpt lat="41.031100" lon="-3.760917">
        <ele>2125.0</ele>
        <time>2018-07-21T12:55:54Z</time>
      </trkpt>
      <trkpt lat="41.031033" lon="-3.761000">
        <ele>2126.0</ele>
        <time>2018-07-21T12:55:55Z</time>
      </trkpt>
      <trkpt lat="41.030983" lon="-3.761083">
        <ele>2126.0</ele>
        <time>2018-07-21T12:55:56Z</time>
      </trkpt>
      <trkpt lat="41.030933" lon="-3.761167">
        <ele>2128.0</ele>
        <time>2018-07-21T12:55:57Z</time>
      </trkpt>
      <trkpt lat="41.030900" lon="-3.761250">
        <ele>2131.0</ele>
        <time>2018-07-21T12:55:58Z</time>
      </trkpt>
      <trkpt lat="41.030867" lon="-3.761317">
        <ele>2133.0</ele>
        <time>2018-07-21T12:55:59Z</time>
      </trkpt>
      <trkpt lat="41.030850" lon="-3.761383">
        <ele>2134.0</ele>
        <time>2018-07-21T12:56:00Z</time>
      </trkpt>
      <trkpt lat="41.030817" lon="-3.761467">
        <ele>2134.0</ele>
        <time>2018-07-21T12:56:01Z</time>
      </trkpt>
      <trkpt lat="41.030783" lon="-3.761567">
        <ele>2134.0</ele>
        <time>2018-07-21T12:56:02Z</time>
      </trkpt>
      <trkpt lat="41.030750" lon="-3.761650">
        <ele>2135.0</ele>
        <time>2018-07-21T12:56:03Z</time>
      </trkpt>
      <trkpt lat="41.030717" lon="-3.761733">
        <ele>2137.0</ele>
        <time>2018-07-21T12:56:04Z</time>
      </trkpt>
      <trkpt lat="41.030683" lon="-3.761833">
        <ele>2139.0</ele>
        <time>2018-07-21T12:56:05Z</time>
      </trkpt>
      <trkpt lat="41.030650" lon="-3.761900">
        <ele>2140.0</ele>
        <time>2018-07-21T12:56:06Z</time>
      </trkpt>
      <trkpt lat="41.030633" lon="-3.761983">
        <ele>2141.0</ele>
        <time>2018-07-21T12:56:07Z</time>
      </trkpt>
      <trkpt lat="41.030600" lon="-3.762050">
        <ele>2140.0</ele>
        <time>2018-07-21T12:56:08Z</time>
      </trkpt>
      <trkpt lat="41.030583" lon="-3.762133">
        <ele>2140.0</ele>
        <time>2018-07-21T12:56:09Z</time>
      </trkpt>
      <trkpt lat="41.030550" lon="-3.762233">
        <ele>2140.0</ele>
        <time>2018-07-21T12:56:10Z</time>
      </trkpt>
      <trkpt lat="41.030533" lon="-3.762317">
        <ele>2141.0</ele>
        <time>2018-07-21T12:56:11Z</time>
      </trkpt>
      <trkpt lat="41.030500" lon="-3.762400">
        <ele>2142.0</ele>
        <time>2018-07-21T12:56:12Z</time>
      </trkpt>
      <trkpt lat="41.030483" lon="-3.762483">
        <ele>2143.0</ele>
        <time>2018-07-21T12:56:13Z</time>
      </trkpt>
      <trkpt lat="41.030467" lon="-3.762567">
        <ele>2144.0</ele>
        <time>2018-07-21T12:56:14Z</time>
      </trkpt>
      <trkpt lat="41.030433" lon="-3.762650">
        <ele>2144.0</ele>
        <time>2018-07-21T12:56:15Z</time>
      </trkpt>
      <trkpt lat="41.030417" lon="-3.762733">
        <ele>2143.0</ele>
        <time>2018-07-21T12:56:16Z</time>
      </trkpt>
      <trkpt lat="41.030400" lon="-3.762817">
        <ele>2143.0</ele>
        <time>2018-07-21T12:56:17Z</time>
      </trkpt>
      <trkpt lat="41.030367" lon="-3.762900">
        <ele>2145.0</ele>
        <time>2018-07-21T12:56:18Z</time>
      </trkpt>
      <trkpt lat="41.030350" lon="-3.762983">
        <ele>2146.0</ele>
        <time>2018-07-21T12:56:19Z</time>
      </trkpt>
      <trkpt lat="41.030317" lon="-3.763050">
        <ele>2146.0</ele>
        <time>2018-07-21T12:56:20Z</time>
      </trkpt>
      <trkpt lat="41.030283" lon="-3.763117">
        <ele>2146.0</ele>
        <time>2018-07-21T12:56:21Z</time>
      </trkpt>
      <trkpt lat="41.030233" lon="-3.763200">
        <ele>2145.0</ele>
        <time>2018-07-21T12:56:22Z</time>
      </trkpt>
      <trkpt lat="41.030200" lon="-3.763300">
        <ele>2145.0</ele>
        <time>2018-07-21T12:56:23Z</time>
      </trkpt>
      <trkpt lat="41.030150" lon="-3.763383">
        <ele>2146.0</ele>
        <time>2018-07-21T12:56:24Z</time>
      </trkpt>
      <trkpt lat="41.030100" lon="-3.763467">
        <ele>2148.0</ele>
        <time>2018-07-21T12:56:25Z</time>
      </trkpt>
      <trkpt lat="41.030067" lon="-3.763550">
        <ele>2150.0</ele>
        <time>2018-07-21T12:56:26Z</time>
      </trkpt>
      <trkpt lat="41.030033" lon="-3.763617">
        <ele>2151.0</ele>
        <time>2018-07-21T12:56:27Z</time>
      </trkpt>
      <trkpt lat="41.030000" lon="-3.763683">
        <ele>2151.0</ele>
        <time>2018-07-21T12:56:28Z</time>
      </trkpt>
      <trkpt lat="41.029950" lon="-3.763767">
        <ele>2150.0</ele>
        <time>2018-07-21T12:56:29Z</time>
      </trkpt>
      <trkpt lat="41.029900" lon="-3.763833">
        <ele>2149.0</ele>
        <time>2018-07-21T12:56:30Z</time>
      </trkpt>
      <trkpt lat="41.029850" lon="-3.763900">
        <ele>2148.0</ele>
        <time>2018-07-21T12:56:31Z</time>
      </trkpt>
      <trkpt lat="41.029817" lon="-3.763983">
        <ele>2148.0</ele>
        <time>2018-07-21T12:56:32Z</time>
      </trkpt>
      <trkpt lat="41.029800" lon="-3.764067">
        <ele>2148.0</ele>
        <time>2018-07-21T12:56:33Z</time>
      </trkpt>
      <trkpt lat="41.029767" lon="-3.764150">
        <ele>2148.0</ele>
        <time>2018-07-21T12:56:34Z</time>
      </trkpt>
      <trkpt lat="41.029717" lon="-3.764250">
        <ele>2149.0</ele>
        <time>2018-07-21T12:56:35Z</time>
      </trkpt>
      <trkpt lat="41.029617" lon="-3.764317">
        <ele>2150.0</ele>
        <time>2018-07-21T12:56:36Z</time>
      </trkpt>
      <trkpt lat="41.029533" lon="-3.764367">
        <ele>2152.0</ele>
        <time>2018-07-21T12:56:37Z</time>
      </trkpt>
      <trkpt lat="41.029483" lon="-3.764433">
        <ele>2153.0</ele>
        <time>2018-07-21T12:56:38Z</time>
      </trkpt>
      <trkpt lat="41.029450" lon="-3.764483">
        <ele>2154.0</ele>
        <time>2018-07-21T12:56:39Z</time>
      </trkpt>
      <trkpt lat="41.029417" lon="-3.764550">
        <ele>2153.0</ele>
        <time>2018-07-21T12:56:40Z</time>
      </trkpt>
      <trkpt lat="41.029400" lon="-3.764617">
        <ele>2153.0</ele>
        <time>2018-07-21T12:56:41Z</time>
      </trkpt>
      <trkpt lat="41.029350" lon="-3.764683">
        <ele>2151.0</ele>
        <time>2018-07-21T12:56:42Z</time>
      </trkpt>
      <trkpt lat="41.029317" lon="-3.764767">
        <ele>2149.0</ele>
        <time>2018-07-21T12:56:43Z</time>
      </trkpt>
      <trkpt lat="41.029267" lon="-3.764850">
        <ele>2148.0</ele>
        <time>2018-07-21T12:56:44Z</time>
      </trkpt>
      <trkpt lat="41.029250" lon="-3.764933">
        <ele>2147.0</ele>
        <time>2018-07-21T12:56:45Z</time>
      </trkpt>
      <trkpt lat="41.029233" lon="-3.765033">
        <ele>2146.0</ele>
        <time>2018-07-21T12:56:46Z</time>
      </trkpt>
      <trkpt lat="41.029217" lon="-3.765117">
        <ele>2145.0</ele>
        <time>2018-07-21T12:56:47Z</time>
      </trkpt>
      <trkpt lat="41.029183" lon="-3.765200">
        <ele>2143.0</ele>
        <time>2018-07-21T12:56:48Z</time>
      </trkpt>
      <trkpt lat="41.029150" lon="-3.765300">
        <ele>2142.0</ele>
        <time>2018-07-21T12:56:49Z</time>
      </trkpt>
      <trkpt lat="41.029117" lon="-3.765383">
        <ele>2140.0</ele>
        <time>2018-07-21T12:56:50Z</time>
      </trkpt>
      <trkpt lat="41.029067" lon="-3.765467">
        <ele>2139.0</ele>
        <time>2018-07-21T12:56:51Z</time>
      </trkpt>
      <trkpt lat="41.029033" lon="-3.765550">
        <ele>2138.0</ele>
        <time>2018-07-21T12:56:52Z</time>
      </trkpt>
      <trkpt lat="41.029000" lon="-3.765650">
        <ele>2136.0</ele>
        <time>2018-07-21T12:56:53Z</time>
      </trkpt>
      <trkpt lat="41.028967" lon="-3.765733">
        <ele>2134.0</ele>
        <time>2018-07-21T12:56:54Z</time>
      </trkpt>
      <trkpt lat="41.028933" lon="-3.765817">
        <ele>2133.0</ele>
        <time>2018-07-21T12:56:55Z</time>
      </trkpt>
      <trkpt lat="41.028917" lon="-3.765917">
        <ele>2131.0</ele>
        <time>2018-07-21T12:56:56Z</time>
      </trkpt>
      <trkpt lat="41.028883" lon="-3.766017">
        <ele>2130.0</ele>
        <time>2018-07-21T12:56:57Z</time>
      </trkpt>
      <trkpt lat="41.028867" lon="-3.766117">
        <ele>2128.0</ele>
        <time>2018-07-21T12:56:58Z</time>
      </trkpt>
      <trkpt lat="41.028850" lon="-3.766217">
        <ele>2127.0</ele>
        <time>2018-07-21T12:56:59Z</time>
      </trkpt>
      <trkpt lat="41.028817" lon="-3.766300">
        <ele>2126.0</ele>
        <time>2018-07-21T12:57:00Z</time>
      </trkpt>
      <trkpt lat="41.028783" lon="-3.766400">
        <ele>2125.0</ele>
        <time>2018-07-21T12:57:01Z</time>
      </trkpt>
      <trkpt lat="41.028733" lon="-3.766483">
        <ele>2125.0</ele>
        <time>2018-07-21T12:57:02Z</time>
      </trkpt>
      <trkpt lat="41.028700" lon="-3.766567">
        <ele>2125.0</ele>
        <time>2018-07-21T12:57:03Z</time>
      </trkpt>
      <trkpt lat="41.028683" lon="-3.766650">
        <ele>2125.0</ele>
        <time>2018-07-21T12:57:04Z</time>
      </trkpt>
      <trkpt lat="41.028650" lon="-3.766717">
        <ele>2124.0</ele>
        <time>2018-07-21T12:57:05Z</time>
      </trkpt>
      <trkpt lat="41.028633" lon="-3.766800">
        <ele>2123.0</ele>
        <time>2018-07-21T12:57:06Z</time>
      </trkpt>
      <trkpt lat="41.028583" lon="-3.766883">
        <ele>2122.0</ele>
        <time>2018-07-21T12:57:07Z</time>
      </trkpt>
      <trkpt lat="41.028533" lon="-3.766967">
        <ele>2120.0</ele>
        <time>2018-07-21T12:57:08Z</time>
      </trkpt>
      <trkpt lat="41.028483" lon="-3.767050">
        <ele>2119.0</ele>
        <time>2018-07-21T12:57:09Z</time>
      </trkpt>
      <trkpt lat="41.028450" lon="-3.767133">
        <ele>2119.0</ele>
        <time>2018-07-21T12:57:10Z</time>
      </trkpt>
      <trkpt lat="41.028450" lon="-3.767233">
        <ele>2119.0</ele>
        <time>2018-07-21T12:57:11Z</time>
      </trkpt>
      <trkpt lat="41.028467" lon="-3.767300">
        <ele>2119.0</ele>
        <time>2018-07-21T12:57:12Z</time>
      </trkpt>
      <trkpt lat="41.028517" lon="-3.767383">
        <ele>2119.0</ele>
        <time>2018-07-21T12:57:13Z</time>
      </trkpt>
      <trkpt lat="41.028583" lon="-3.767433">
        <ele>2118.0</ele>
        <time>2018-07-21T12:57:14Z</time>
      </trkpt>
      <trkpt lat="41.028650" lon="-3.767467">
        <ele>2118.0</ele>
        <time>2018-07-21T12:57:15Z</time>
      </trkpt>
      <trkpt lat="41.028733" lon="-3.767467">
        <ele>2118.0</ele>
        <time>2018-07-21T12:57:16Z</time>
      </trkpt>
      <trkpt lat="41.028800" lon="-3.767450">
        <ele>2118.0</ele>
        <time>2018-07-21T12:57:17Z</time>
      </trkpt>
      <trkpt lat="41.028883" lon="-3.767417">
        <ele>2119.0</ele>
        <time>2018-07-21T12:57:18Z</time>
      </trkpt>
      <trkpt lat="41.028950" lon="-3.767350">
        <ele>2118.0</ele>
        <time>2018-07-21T12:57:19Z</time>
      </trkpt>
      <trkpt lat="41.029017" lon="-3.767267">
        <ele>2116.0</ele>
        <time>2018-07-21T12:57:20Z</time>
      </trkpt>
      <trkpt lat="41.029067" lon="-3.767133">
        <ele>2114.0</ele>
        <time>2018-07-21T12:57:21Z</time>
      </trkpt>
      <trkpt lat="41.029100" lon="-3.766983">
        <ele>2113.0</ele>
        <time>2018-07-21T12:57:22Z</time>
      </trkpt>
      <trkpt lat="41.029133" lon="-3.766850">
        <ele>2113.0</ele>
        <time>2018-07-21T12:57:23Z</time>
      </trkpt>
      <trkpt lat="41.029150" lon="-3.766717">
        <ele>2114.0</ele>
        <time>2018-07-21T12:57:24Z</time>
      </trkpt>
      <trkpt lat="41.029167" lon="-3.766600">
        <ele>2113.0</ele>
        <time>2018-07-21T12:57:25Z</time>
      </trkpt>
      <trkpt lat="41.029167" lon="-3.766467">
        <ele>2110.0</ele>
        <time>2018-07-21T12:57:26Z</time>
      </trkpt>
      <trkpt lat="41.029150" lon="-3.766300">
        <ele>2107.0</ele>
        <time>2018-07-21T12:57:27Z</time>
      </trkpt>
      <trkpt lat="41.029150" lon="-3.766133">
        <ele>2106.0</ele>
        <time>2018-07-21T12:57:28Z</time>
      </trkpt>
      <trkpt lat="41.029167" lon="-3.765967">
        <ele>2105.0</ele>
        <time>2018-07-21T12:57:29Z</time>
      </trkpt>
      <trkpt lat="41.029167" lon="-3.765833">
        <ele>2105.0</ele>
        <time>2018-07-21T12:57:30Z</time>
      </trkpt>
      <trkpt lat="41.029183" lon="-3.765700">
        <ele>2104.0</ele>
        <time>2018-07-21T12:57:31Z</time>
      </trkpt>
      <trkpt lat="41.029217" lon="-3.765550">
        <ele>2102.0</ele>
        <time>2018-07-21T12:57:32Z</time>
      </trkpt>
      <trkpt lat="41.029250" lon="-3.765417">
        <ele>2101.0</ele>
        <time>2018-07-21T12:57:33Z</time>
      </trkpt>
      <trkpt lat="41.029300" lon="-3.765283">
        <ele>2100.0</ele>
        <time>2018-07-21T12:57:34Z</time>
      </trkpt>
      <trkpt lat="41.029350" lon="-3.765183">
        <ele>2100.0</ele>
        <time>2018-07-21T12:57:35Z</time>
      </trkpt>
      <trkpt lat="41.029400" lon="-3.765100">
        <ele>2100.0</ele>
        <time>2018-07-21T12:57:36Z</time>
      </trkpt>
      <trkpt lat="41.029450" lon="-3.765017">
        <ele>2100.0</ele>
        <time>2018-07-21T12:57:37Z</time>
      </trkpt>
      <trkpt lat="41.029517" lon="-3.764933">
        <ele>2099.0</ele>
        <time>2018-07-21T12:57:38Z</time>
      </trkpt>
      <trkpt lat="41.029567" lon="-3.764850">
        <ele>2098.0</ele>
        <time>2018-07-21T12:57:39Z</time>
      </trkpt>
      <trkpt lat="41.029633" lon="-3.764767">
        <ele>2098.0</ele>
        <time>2018-07-21T12:57:40Z</time>
      </trkpt>
      <trkpt lat="41.029717" lon="-3.764683">
        <ele>2098.0</ele>
        <time>2018-07-21T12:57:41Z</time>
      </trkpt>
      <trkpt lat="41.029783" lon="-3.764617">
        <ele>2098.0</ele>
        <time>2018-07-21T12:57:42Z</time>
      </trkpt>
      <trkpt lat="41.029867" lon="-3.764550">
        <ele>2099.0</ele>
        <time>2018-07-21T12:57:43Z</time>
      </trkpt>
      <trkpt lat="41.029933" lon="-3.764500">
        <ele>2100.0</ele>
        <time>2018-07-21T12:57:44Z</time>
      </trkpt>
      <trkpt lat="41.030017" lon="-3.764450">
        <ele>2100.0</ele>
        <time>2018-07-21T12:57:45Z</time>
      </trkpt>
      <trkpt lat="41.030083" lon="-3.764400">
        <ele>2100.0</ele>
        <time>2018-07-21T12:57:46Z</time>
      </trkpt>
      <trkpt lat="41.030150" lon="-3.764317">
        <ele>2099.0</ele>
        <time>2018-07-21T12:57:47Z</time>
      </trkpt>
      <trkpt lat="41.030217" lon="-3.764200">
        <ele>2098.0</ele>
        <time>2018-07-21T12:57:48Z</time>
      </trkpt>
      <trkpt lat="41.030283" lon="-3.764067">
        <ele>2097.0</ele>
        <time>2018-07-21T12:57:49Z</time>
      </trkpt>
      <trkpt lat="41.030333" lon="-3.763933">
        <ele>2096.0</ele>
        <time>2018-07-21T12:57:50Z</time>
      </trkpt>
      <trkpt lat="41.030383" lon="-3.763783">
        <ele>2097.0</ele>
        <time>2018-07-21T12:57:51Z</time>
      </trkpt>
      <trkpt lat="41.030433" lon="-3.763650">
        <ele>2097.0</ele>
        <time>2018-07-21T12:57:52Z</time>
      </trkpt>
      <trkpt lat="41.030483" lon="-3.763517">
        <ele>2097.0</ele>
        <time>2018-07-21T12:57:53Z</time>
      </trkpt>
      <trkpt lat="41.030517" lon="-3.763383">
        <ele>2098.0</ele>
        <time>2018-07-21T12:57:54Z</time>
      </trkpt>
      <trkpt lat="41.030567" lon="-3.763233">
        <ele>2098.0</ele>
        <time>2018-07-21T12:57:55Z</time>
      </trkpt>
      <trkpt lat="41.030583" lon="-3.763083">
        <ele>2097.0</ele>
        <time>2018-07-21T12:57:56Z</time>
      </trkpt>
      <trkpt lat="41.030617" lon="-3.762917">
        <ele>2097.0</ele>
        <time>2018-07-21T12:57:57Z</time>
      </trkpt>
      <trkpt lat="41.030633" lon="-3.762767">
        <ele>2096.0</ele>
        <time>2018-07-21T12:57:58Z</time>
      </trkpt>
      <trkpt lat="41.030650" lon="-3.762633">
        <ele>2095.0</ele>
        <time>2018-07-21T12:57:59Z</time>
      </trkpt>
      <trkpt lat="41.030667" lon="-3.762483">
        <ele>2094.0</ele>
        <time>2018-07-21T12:58:00Z</time>
      </trkpt>
      <trkpt lat="41.030717" lon="-3.762333">
        <ele>2092.0</ele>
        <time>2018-07-21T12:58:01Z</time>
      </trkpt>
      <trkpt lat="41.030783" lon="-3.762183">
        <ele>2092.0</ele>
        <time>2018-07-21T12:58:02Z</time>
      </trkpt>
      <trkpt lat="41.030833" lon="-3.762033">
        <ele>2093.0</ele>
        <time>2018-07-21T12:58:03Z</time>
      </trkpt>
      <trkpt lat="41.030900" lon="-3.761900">
        <ele>2094.0</ele>
        <time>2018-07-21T12:58:04Z</time>
      </trkpt>
      <trkpt lat="41.030967" lon="-3.761783">
        <ele>2095.0</ele>
        <time>2018-07-21T12:58:05Z</time>
      </trkpt>
      <trkpt lat="41.031017" lon="-3.761667">
        <ele>2095.0</ele>
        <time>2018-07-21T12:58:06Z</time>
      </trkpt>
      <trkpt lat="41.031067" lon="-3.761550">
        <ele>2094.0</ele>
        <time>2018-07-21T12:58:07Z</time>
      </trkpt>
      <trkpt lat="41.031133" lon="-3.761450">
        <ele>2093.0</ele>
        <time>2018-07-21T12:58:08Z</time>
      </trkpt>
      <trkpt lat="41.031200" lon="-3.761333">
        <ele>2091.0</ele>
        <time>2018-07-21T12:58:09Z</time>
      </trkpt>
      <trkpt lat="41.031267" lon="-3.761217">
        <ele>2090.0</ele>
        <time>2018-07-21T12:58:10Z</time>
      </trkpt>
      <trkpt lat="41.031317" lon="-3.761067">
        <ele>2088.0</ele>
        <time>2018-07-21T12:58:11Z</time>
      </trkpt>
      <trkpt lat="41.031367" lon="-3.760917">
        <ele>2087.0</ele>
        <time>2018-07-21T12:58:12Z</time>
      </trkpt>
      <trkpt lat="41.031417" lon="-3.760767">
        <ele>2086.0</ele>
        <time>2018-07-21T12:58:13Z</time>
      </trkpt>
      <trkpt lat="41.031450" lon="-3.760600">
        <ele>2084.0</ele>
        <time>2018-07-21T12:58:14Z</time>
      </trkpt>
      <trkpt lat="41.031483" lon="-3.760450">
        <ele>2083.0</ele>
        <time>2018-07-21T12:58:15Z</time>
      </trkpt>
      <trkpt lat="41.031517" lon="-3.760300">
        <ele>2083.0</ele>
        <time>2018-07-21T12:58:16Z</time>
      </trkpt>
      <trkpt lat="41.031550" lon="-3.760150">
        <ele>2082.0</ele>
        <time>2018-07-21T12:58:17Z</time>
      </trkpt>
      <trkpt lat="41.031583" lon="-3.760000">
        <ele>2081.0</ele>
        <time>2018-07-21T12:58:18Z</time>
      </trkpt>
      <trkpt lat="41.031617" lon="-3.759850">
        <ele>2081.0</ele>
        <time>2018-07-21T12:58:19Z</time>
      </trkpt>
      <trkpt lat="41.031683" lon="-3.759717">
        <ele>2081.0</ele>
        <time>2018-07-21T12:58:20Z</time>
      </trkpt>
      <trkpt lat="41.031733" lon="-3.759583">
        <ele>2080.0</ele>
        <time>2018-07-21T12:58:21Z</time>
      </trkpt>
      <trkpt lat="41.031800" lon="-3.759467">
        <ele>2081.0</ele>
        <time>2018-07-21T12:58:22Z</time>
      </trkpt>
      <trkpt lat="41.031867" lon="-3.759350">
        <ele>2080.0</ele>
        <time>2018-07-21T12:58:23Z</time>
      </trkpt>
      <trkpt lat="41.031933" lon="-3.759250">
        <ele>2080.0</ele>
        <time>2018-07-21T12:58:24Z</time>
      </trkpt>
      <trkpt lat="41.032000" lon="-3.759133">
        <ele>2079.0</ele>
        <time>2018-07-21T12:58:25Z</time>
      </trkpt>
      <trkpt lat="41.032083" lon="-3.759033">
        <ele>2077.0</ele>
        <time>2018-07-21T12:58:26Z</time>
      </trkpt>
      <trkpt lat="41.032150" lon="-3.758933">
        <ele>2076.0</ele>
        <time>2018-07-21T12:58:27Z</time>
      </trkpt>
      <trkpt lat="41.032233" lon="-3.758833">
        <ele>2075.0</ele>
        <time>2018-07-21T12:58:28Z</time>
      </trkpt>
      <trkpt lat="41.032300" lon="-3.758733">
        <ele>2074.0</ele>
        <time>2018-07-21T12:58:29Z</time>
      </trkpt>
      <trkpt lat="41.032383" lon="-3.758617">
        <ele>2073.0</ele>
        <time>2018-07-21T12:58:30Z</time>
      </trkpt>
      <trkpt lat="41.032450" lon="-3.758517">
        <ele>2072.0</ele>
        <time>2018-07-21T12:58:31Z</time>
      </trkpt>
      <trkpt lat="41.032517" lon="-3.758417">
        <ele>2071.0</ele>
        <time>2018-07-21T12:58:32Z</time>
      </trkpt>
      <trkpt lat="41.032600" lon="-3.758333">
        <ele>2070.0</ele>
        <time>2018-07-21T12:58:33Z</time>
      </trkpt>
      <trkpt lat="41.032667" lon="-3.758250">
        <ele>2069.0</ele>
        <time>2018-07-21T12:58:34Z</time>
      </trkpt>
      <trkpt lat="41.032733" lon="-3.758150">
        <ele>2068.0</ele>
        <time>2018-07-21T12:58:35Z</time>
      </trkpt>
      <trkpt lat="41.032800" lon="-3.758033">
        <ele>2066.0</ele>
        <time>2018-07-21T12:58:36Z</time>
      </trkpt>
      <trkpt lat="41.032867" lon="-3.757917">
        <ele>2065.0</ele>
        <time>2018-07-21T12:58:37Z</time>
      </trkpt>
      <trkpt lat="41.032917" lon="-3.757800">
        <ele>2064.0</ele>
        <time>2018-07-21T12:58:38Z</time>
      </trkpt>
      <trkpt lat="41.032967" lon="-3.757683">
        <ele>2063.0</ele>
        <time>2018-07-21T12:58:39Z</time>
      </trkpt>
      <trkpt lat="41.033033" lon="-3.757567">
        <ele>2061.0</ele>
        <time>2018-07-21T12:58:40Z</time>
      </trkpt>
      <trkpt lat="41.033117" lon="-3.757467">
        <ele>2059.0</ele>
        <time>2018-07-21T12:58:41Z</time>
      </trkpt>
      <trkpt lat="41.033183" lon="-3.757333">
        <ele>2058.0</ele>
        <time>2018-07-21T12:58:42Z</time>
      </trkpt>
      <trkpt lat="41.033250" lon="-3.757217">
        <ele>2058.0</ele>
        <time>2018-07-21T12:58:43Z</time>
      </trkpt>
      <trkpt lat="41.033317" lon="-3.757083">
        <ele>2057.0</ele>
        <time>2018-07-21T12:58:44Z</time>
      </trkpt>
      <trkpt lat="41.033383" lon="-3.756967">
        <ele>2058.0</ele>
        <time>2018-07-21T12:58:45Z</time>
      </trkpt>
      <trkpt lat="41.033433" lon="-3.756867">
        <ele>2058.0</ele>
        <time>2018-07-21T12:58:46Z</time>
      </trkpt>
      <trkpt lat="41.033500" lon="-3.756750">
        <ele>2058.0</ele>
        <time>2018-07-21T12:58:47Z</time>
      </trkpt>
      <trkpt lat="41.033567" lon="-3.756650">
        <ele>2057.0</ele>
        <time>2018-07-21T12:58:48Z</time>
      </trkpt>
      <trkpt lat="41.033633" lon="-3.756533">
        <ele>2057.0</ele>
        <time>2018-07-21T12:58:49Z</time>
      </trkpt>
      <trkpt lat="41.033717" lon="-3.756417">
        <ele>2057.0</ele>
        <time>2018-07-21T12:58:50Z</time>
      </trkpt>
      <trkpt lat="41.033767" lon="-3.756300">
        <ele>2058.0</ele>
        <time>2018-07-21T12:58:51Z</time>
      </trkpt>
      <trkpt lat="41.033833" lon="-3.756200">
        <ele>2057.0</ele>
        <time>2018-07-21T12:58:52Z</time>
      </trkpt>
      <trkpt lat="41.033900" lon="-3.756100">
        <ele>2056.0</ele>
        <time>2018-07-21T12:58:53Z</time>
      </trkpt>
      <trkpt lat="41.033967" lon="-3.756000">
        <ele>2054.0</ele>
        <time>2018-07-21T12:58:54Z</time>
      </trkpt>
      <trkpt lat="41.034050" lon="-3.755917">
        <ele>2053.0</ele>
        <time>2018-07-21T12:58:55Z</time>
      </trkpt>
      <trkpt lat="41.034133" lon="-3.755817">
        <ele>2052.0</ele>
        <time>2018-07-21T12:58:56Z</time>
      </trkpt>
      <trkpt lat="41.034200" lon="-3.755750">
        <ele>2052.0</ele>
        <time>2018-07-21T12:58:57Z</time>
      </trkpt>
      <trkpt lat="41.034283" lon="-3.755667">
        <ele>2052.0</ele>
        <time>2018-07-21T12:58:58Z</time>
      </trkpt>
      <trkpt lat="41.034367" lon="-3.755583">
        <ele>2052.0</ele>
        <time>2018-07-21T12:58:59Z</time>
      </trkpt>
      <trkpt lat="41.034450" lon="-3.755517">
        <ele>2052.0</ele>
        <time>2018-07-21T12:59:00Z</time>
      </trkpt>
      <trkpt lat="41.034533" lon="-3.755433">
        <ele>2052.0</ele>
        <time>2018-07-21T12:59:01Z</time>
      </trkpt>
      <trkpt lat="41.034617" lon="-3.755350">
        <ele>2053.0</ele>
        <time>2018-07-21T12:59:02Z</time>
      </trkpt>
      <trkpt lat="41.034700" lon="-3.755267">
        <ele>2053.0</ele>
        <time>2018-07-21T12:59:03Z</time>
      </trkpt>
      <trkpt lat="41.034783" lon="-3.755183">
        <ele>2052.0</ele>
        <time>2018-07-21T12:59:04Z</time>
      </trkpt>
      <trkpt lat="41.034867" lon="-3.755083">
        <ele>2051.0</ele>
        <time>2018-07-21T12:59:05Z</time>
      </trkpt>
      <trkpt lat="41.034950" lon="-3.754983">
        <ele>2050.0</ele>
        <time>2018-07-21T12:59:06Z</time>
      </trkpt>
      <trkpt lat="41.035050" lon="-3.754883">
        <ele>2050.0</ele>
        <time>2018-07-21T12:59:07Z</time>
      </trkpt>
      <trkpt lat="41.035117" lon="-3.754783">
        <ele>2051.0</ele>
        <time>2018-07-21T12:59:08Z</time>
      </trkpt>
      <trkpt lat="41.035200" lon="-3.754700">
        <ele>2052.0</ele>
        <time>2018-07-21T12:59:09Z</time>
      </trkpt>
      <trkpt lat="41.035267" lon="-3.754600">
        <ele>2051.0</ele>
        <time>2018-07-21T12:59:10Z</time>
      </trkpt>
      <trkpt lat="41.035333" lon="-3.754517">
        <ele>2050.0</ele>
        <time>2018-07-21T12:59:11Z</time>
      </trkpt>
      <trkpt lat="41.035400" lon="-3.754417">
        <ele>2049.0</ele>
        <time>2018-07-21T12:59:12Z</time>
      </trkpt>
      <trkpt lat="41.035467" lon="-3.754317">
        <ele>2047.0</ele>
        <time>2018-07-21T12:59:13Z</time>
      </trkpt>
      <trkpt lat="41.035550" lon="-3.754217">
        <ele>2046.0</ele>
        <time>2018-07-21T12:59:14Z</time>
      </trkpt>
      <trkpt lat="41.035617" lon="-3.754100">
        <ele>2045.0</ele>
        <time>2018-07-21T12:59:15Z</time>
      </trkpt>
      <trkpt lat="41.035683" lon="-3.753967">
        <ele>2044.0</ele>
        <time>2018-07-21T12:59:16Z</time>
      </trkpt>
      <trkpt lat="41.035733" lon="-3.753833">
        <ele>2044.0</ele>
        <time>2018-07-21T12:59:17Z</time>
      </trkpt>
      <trkpt lat="41.035783" lon="-3.753683">
        <ele>2044.0</ele>
        <time>2018-07-21T12:59:18Z</time>
      </trkpt>
      <trkpt lat="41.035817" lon="-3.753533">
        <ele>2044.0</ele>
        <time>2018-07-21T12:59:19Z</time>
      </trkpt>
      <trkpt lat="41.035867" lon="-3.753367">
        <ele>2044.0</ele>
        <time>2018-07-21T12:59:20Z</time>
      </trkpt>
      <trkpt lat="41.035933" lon="-3.753217">
        <ele>2045.0</ele>
        <time>2018-07-21T12:59:21Z</time>
      </trkpt>
      <trkpt lat="41.036000" lon="-3.753083">
        <ele>2048.0</ele>
        <time>2018-07-21T12:59:22Z</time>
      </trkpt>
      <trkpt lat="41.036067" lon="-3.752967">
        <ele>2051.0</ele>
        <time>2018-07-21T12:59:23Z</time>
      </trkpt>
      <trkpt lat="41.036133" lon="-3.752850">
        <ele>2053.0</ele>
        <time>2018-07-21T12:59:24Z</time>
      </trkpt>
      <trkpt lat="41.036183" lon="-3.752733">
        <ele>2055.0</ele>
        <time>2018-07-21T12:59:25Z</time>
      </trkpt>
      <trkpt lat="41.036233" lon="-3.752617">
        <ele>2057.0</ele>
        <time>2018-07-21T12:59:26Z</time>
      </trkpt>
      <trkpt lat="41.036283" lon="-3.752533">
        <ele>2058.0</ele>
        <time>2018-07-21T12:59:27Z</time>
      </trkpt>
      <trkpt lat="41.036367" lon="-3.752500">
        <ele>2059.0</ele>
        <time>2018-07-21T12:59:28Z</time>
      </trkpt>
      <trkpt lat="41.036433" lon="-3.752500">
        <ele>2059.0</ele>
        <time>2018-07-21T12:59:29Z</time>
      </trkpt>
      <trkpt lat="41.036483" lon="-3.752550">
        <ele>2060.0</ele>
        <time>2018-07-21T12:59:30Z</time>
      </trkpt>
      <trkpt lat="41.036500" lon="-3.752617">
        <ele>2061.0</ele>
        <time>2018-07-21T12:59:31Z</time>
      </trkpt>
      <trkpt lat="41.036483" lon="-3.752683">
        <ele>2062.0</ele>
        <time>2018-07-21T12:59:32Z</time>
      </trkpt>
      <trkpt lat="41.036433" lon="-3.752767">
        <ele>2063.0</ele>
        <time>2018-07-21T12:59:33Z</time>
      </trkpt>
      <trkpt lat="41.036350" lon="-3.752800">
        <ele>2063.0</ele>
        <time>2018-07-21T12:59:34Z</time>
      </trkpt>
      <trkpt lat="41.036233" lon="-3.752817">
        <ele>2064.0</ele>
        <time>2018-07-21T12:59:35Z</time>
      </trkpt>
      <trkpt lat="41.036100" lon="-3.752767">
        <ele>2065.0</ele>
        <time>2018-07-21T12:59:36Z</time>
      </trkpt>
      <trkpt lat="41.035983" lon="-3.752650">
        <ele>2066.0</ele>
        <time>2018-07-21T12:59:37Z</time>
      </trkpt>
      <trkpt lat="41.035883" lon="-3.752483">
        <ele>2068.0</ele>
        <time>2018-07-21T12:59:38Z</time>
      </trkpt>
      <trkpt lat="41.035850" lon="-3.752300">
        <ele>2069.0</ele>
        <time>2018-07-21T12:59:39Z</time>
      </trkpt>
      <trkpt lat="41.035833" lon="-3.752117">
        <ele>2071.0</ele>
        <time>2018-07-21T12:59:40Z</time>
      </trkpt>
      <trkpt lat="41.035867" lon="-3.751933">
        <ele>2072.0</ele>
        <time>2018-07-21T12:59:41Z</time>
      </trkpt>
      <trkpt lat="41.035917" lon="-3.751783">
        <ele>2075.0</ele>
        <time>2018-07-21T12:59:42Z</time>
      </trkpt>
      <trkpt lat="41.035967" lon="-3.751650">
        <ele>2078.0</ele>
        <time>2018-07-21T12:59:43Z</time>
      </trkpt>
      <trkpt lat="41.036000" lon="-3.751533">
        <ele>2080.0</ele>
        <time>2018-07-21T12:59:44Z</time>
      </trkpt>
      <trkpt lat="41.036050" lon="-3.751400">
        <ele>2081.0</ele>
        <time>2018-07-21T12:59:45Z</time>
      </trkpt>
      <trkpt lat="41.036100" lon="-3.751317">
        <ele>2082.0</ele>
        <time>2018-07-21T12:59:46Z</time>
      </trkpt>
      <trkpt lat="41.036167" lon="-3.751250">
        <ele>2083.0</ele>
        <time>2018-07-21T12:59:47Z</time>
      </trkpt>
      <trkpt lat="41.036250" lon="-3.751267">
        <ele>2082.0</ele>
        <time>2018-07-21T12:59:48Z</time>
      </trkpt>
      <trkpt lat="41.036300" lon="-3.751317">
        <ele>2083.0</ele>
        <time>2018-07-21T12:59:49Z</time>
      </trkpt>
      <trkpt lat="41.036333" lon="-3.751400">
        <ele>2087.0</ele>
        <time>2018-07-21T12:59:50Z</time>
      </trkpt>
      <trkpt lat="41.036333" lon="-3.751483">
        <ele>2091.0</ele>
        <time>2018-07-21T12:59:51Z</time>
      </trkpt>
      <trkpt lat="41.036283" lon="-3.751533">
        <ele>2094.0</ele>
        <time>2018-07-21T12:59:52Z</time>
      </trkpt>
      <trkpt lat="41.036217" lon="-3.751583">
        <ele>2096.0</ele>
        <time>2018-07-21T12:59:53Z</time>
      </trkpt>
      <trkpt lat="41.036100" lon="-3.751617">
        <ele>2096.0</ele>
        <time>2018-07-21T12:59:54Z</time>
      </trkpt>
      <trkpt lat="41.035983" lon="-3.751600">
        <ele>2096.0</ele>
        <time>2018-07-21T12:59:55Z</time>
      </trkpt>
      <trkpt lat="41.035867" lon="-3.751550">
        <ele>2097.0</ele>
        <time>2018-07-21T12:59:56Z</time>
      </trkpt>
      <trkpt lat="41.035733" lon="-3.751433">
        <ele>2097.0</ele>
        <time>2018-07-21T12:59:57Z</time>
      </trkpt>
      <trkpt lat="41.035650" lon="-3.751250">
        <ele>2097.0</ele>
        <time>2018-07-21T12:59:58Z</time>
      </trkpt>
      <trkpt lat="41.035617" lon="-3.751050">
        <ele>2098.0</ele>
        <time>2018-07-21T12:59:59Z</time>
      </trkpt>
      <trkpt lat="41.035617" lon="-3.750867">
        <ele>2099.0</ele>
        <time>2018-07-21T13:00:00Z</time>
      </trkpt>
      <trkpt lat="41.035667" lon="-3.750700">
        <ele>2101.0</ele>
        <time>2018-07-21T13:00:01Z</time>
      </trkpt>
      <trkpt lat="41.035717" lon="-3.750567">
        <ele>2103.0</ele>
        <time>2018-07-21T13:00:02Z</time>
      </trkpt>
      <trkpt lat="41.035767" lon="-3.750450">
        <ele>2106.0</ele>
        <time>2018-07-21T13:00:03Z</time>
      </trkpt>
      <trkpt lat="41.035817" lon="-3.750350">
        <ele>2109.0</ele>
        <time>2018-07-21T13:00:04Z</time>
      </trkpt>
      <trkpt lat="41.035867" lon="-3.750250">
        <ele>2112.0</ele>
        <time>2018-07-21T13:00:05Z</time>
      </trkpt>
      <trkpt lat="41.035917" lon="-3.750167">
        <ele>2114.0</ele>
        <time>2018-07-21T13:00:06Z</time>
      </trkpt>
      <trkpt lat="41.035983" lon="-3.750117">
        <ele>2115.0</ele>
        <time>2018-07-21T13:00:07Z</time>
      </trkpt>
      <trkpt lat="41.036033" lon="-3.750067">
        <ele>2117.0</ele>
        <time>2018-07-21T13:00:08Z</time>
      </trkpt>
      <trkpt lat="41.036100" lon="-3.750033">
        <ele>2119.0</ele>
        <time>2018-07-21T13:00:09Z</time>
      </trkpt>
      <trkpt lat="41.036150" lon="-3.750000">
        <ele>2120.0</ele>
        <time>2018-07-21T13:00:10Z</time>
      </trkpt>
      <trkpt lat="41.036200" lon="-3.749967">
        <ele>2121.0</ele>
        <time>2018-07-21T13:00:11Z</time>
      </trkpt>
      <trkpt lat="41.036267" lon="-3.749933">
        <ele>2122.0</ele>
        <time>2018-07-21T13:00:12Z</time>
      </trkpt>
      <trkpt lat="41.036333" lon="-3.749900">
        <ele>2123.0</ele>
        <time>2018-07-21T13:00:13Z</time>
      </trkpt>
      <trkpt lat="41.036400" lon="-3.749867">
        <ele>2125.0</ele>
        <time>2018-07-21T13:00:14Z</time>
      </trkpt>
      <trkpt lat="41.036450" lon="-3.749850">
        <ele>2127.0</ele>
        <time>2018-07-21T13:00:15Z</time>
      </trkpt>
      <trkpt lat="41.036500" lon="-3.749833">
        <ele>2128.0</ele>
        <time>2018-07-21T13:00:16Z</time>
      </trkpt>
      <trkpt lat="41.036533" lon="-3.749817">
        <ele>2130.0</ele>
        <time>2018-07-21T13:00:17Z</time>
      </trkpt>
      <trkpt lat="41.036567" lon="-3.749800">
        <ele>2131.0</ele>
        <time>2018-07-21T13:00:18Z</time>
      </trkpt>
      <trkpt lat="41.036617" lon="-3.749783">
        <ele>2132.0</ele>
        <time>2018-07-21T13:00:19Z</time>
      </trkpt>
      <trkpt lat="41.036667" lon="-3.749767">
        <ele>2132.0</ele>
        <time>2018-07-21T13:00:20Z</time>
      </trkpt>
      <trkpt lat="41.036733" lon="-3.749750">
        <ele>2133.0</ele>
        <time>2018-07-21T13:00:21Z</time>
      </trkpt>
      <trkpt lat="41.036783" lon="-3.749733">
        <ele>2134.0</ele>
        <time>2018-07-21T13:00:22Z</time>
      </trkpt>
      <trkpt lat="41.036833" lon="-3.749717">
        <ele>2134.0</ele>
        <time>2018-07-21T13:00:23Z</time>
      </trkpt>
      <trkpt lat="41.036883" lon="-3.749683">
        <ele>2135.0</ele>
        <time>2018-07-21T13:00:24Z</time>
      </trkpt>
      <trkpt lat="41.036933" lon="-3.749650">
        <ele>2136.0</ele>
        <time>2018-07-21T13:00:25Z</time>
      </trkpt>
      <trkpt lat="41.037000" lon="-3.749617">
        <ele>2137.0</ele>
        <time>2018-07-21T13:00:26Z</time>
      </trkpt>
      <trkpt lat="41.037050" lon="-3.749583">
        <ele>2138.0</ele>
        <time>2018-07-21T13:00:27Z</time>
      </trkpt>
      <trkpt lat="41.037100" lon="-3.749567">
        <ele>2138.0</ele>
        <time>2018-07-21T13:00:28Z</time>
      </trkpt>
      <trkpt lat="41.037150" lon="-3.749533">
        <ele>2139.0</ele>
        <time>2018-07-21T13:00:29Z</time>
      </trkpt>
      <trkpt lat="41.037200" lon="-3.749500">
        <ele>2139.0</ele>
        <time>2018-07-21T13:00:30Z</time>
      </trkpt>
      <trkpt lat="41.037250" lon="-3.749467">
        <ele>2139.0</ele>
        <time>2018-07-21T13:00:31Z</time>
      </trkpt>
      <trkpt lat="41.037300" lon="-3.749450">
        <ele>2138.0</ele>
        <time>2018-07-21T13:00:32Z</time>
      </trkpt>
      <trkpt lat="41.037350" lon="-3.749417">
        <ele>2138.0</ele>
        <time>2018-07-21T13:00:33Z</time>
      </trkpt>
      <trkpt lat="41.037400" lon="-3.749400">
        <ele>2137.0</ele>
        <time>2018-07-21T13:00:34Z</time>
      </trkpt>
      <trkpt lat="41.037467" lon="-3.749383">
        <ele>2136.0</ele>
        <time>2018-07-21T13:00:35Z</time>
      </trkpt>
      <trkpt lat="41.037517" lon="-3.749367">
        <ele>2136.0</ele>
        <time>2018-07-21T13:00:36Z</time>
      </trkpt>
      <trkpt lat="41.037583" lon="-3.749350">
        <ele>2137.0</ele>
        <time>2018-07-21T13:00:37Z</time>
      </trkpt>
      <trkpt lat="41.037633" lon="-3.749317">
        <ele>2137.0</ele>
        <time>2018-07-21T13:00:38Z</time>
      </trkpt>
      <trkpt lat="41.037683" lon="-3.749300">
        <ele>2137.0</ele>
        <time>2018-07-21T13:00:39Z</time>
      </trkpt>
      <trkpt lat="41.037733" lon="-3.749300">
        <ele>2137.0</ele>
        <time>2018-07-21T13:00:40Z</time>
      </trkpt>
      <trkpt lat="41.037800" lon="-3.749283">
        <ele>2135.0</ele>
        <time>2018-07-21T13:00:41Z</time>
      </trkpt>
      <trkpt lat="41.037850" lon="-3.749283">
        <ele>2134.0</ele>
        <time>2018-07-21T13:00:42Z</time>
      </trkpt>
      <trkpt lat="41.037917" lon="-3.749283">
        <ele>2134.0</ele>
        <time>2018-07-21T13:00:43Z</time>
      </trkpt>
      <trkpt lat="41.037983" lon="-3.749283">
        <ele>2135.0</ele>
        <time>2018-07-21T13:00:44Z</time>
      </trkpt>
      <trkpt lat="41.038050" lon="-3.749267">
        <ele>2135.0</ele>
        <time>2018-07-21T13:00:45Z</time>
      </trkpt>
      <trkpt lat="41.038100" lon="-3.749233">
        <ele>2136.0</ele>
        <time>2018-07-21T13:00:46Z</time>
      </trkpt>
      <trkpt lat="41.038150" lon="-3.749200">
        <ele>2136.0</ele>
        <time>2018-07-21T13:00:47Z</time>
      </trkpt>
      <trkpt lat="41.038217" lon="-3.749183">
        <ele>2136.0</ele>
        <time>2018-07-21T13:00:48Z</time>
      </trkpt>
      <trkpt lat="41.038267" lon="-3.749150">
        <ele>2136.0</ele>
        <time>2018-07-21T13:00:49Z</time>
      </trkpt>
      <trkpt lat="41.038333" lon="-3.749117">
        <ele>2137.0</ele>
        <time>2018-07-21T13:00:50Z</time>
      </trkpt>
      <trkpt lat="41.038383" lon="-3.749100">
        <ele>2137.0</ele>
        <time>2018-07-21T13:00:51Z</time>
      </trkpt>
      <trkpt lat="41.038450" lon="-3.749067">
        <ele>2137.0</ele>
        <time>2018-07-21T13:00:52Z</time>
      </trkpt>
      <trkpt lat="41.038500" lon="-3.749033">
        <ele>2136.0</ele>
        <time>2018-07-21T13:00:53Z</time>
      </trkpt>
      <trkpt lat="41.038567" lon="-3.748983">
        <ele>2135.0</ele>
        <time>2018-07-21T13:00:54Z</time>
      </trkpt>
      <trkpt lat="41.038633" lon="-3.748933">
        <ele>2134.0</ele>
        <time>2018-07-21T13:00:55Z</time>
      </trkpt>
      <trkpt lat="41.038700" lon="-3.748900">
        <ele>2134.0</ele>
        <time>2018-07-21T13:00:56Z</time>
      </trkpt>
      <trkpt lat="41.038767" lon="-3.748867">
        <ele>2134.0</ele>
        <time>2018-07-21T13:00:57Z</time>
      </trkpt>
      <trkpt lat="41.038833" lon="-3.748850">
        <ele>2133.0</ele>
        <time>2018-07-21T13:00:58Z</time>
      </trkpt>
      <trkpt lat="41.038900" lon="-3.748817">
        <ele>2134.0</ele>
        <time>2018-07-21T13:00:59Z</time>
      </trkpt>
      <trkpt lat="41.038967" lon="-3.748800">
        <ele>2134.0</ele>
        <time>2018-07-21T13:01:00Z</time>
      </trkpt>
      <trkpt lat="41.039033" lon="-3.748767">
        <ele>2133.0</ele>
        <time>2018-07-21T13:01:01Z</time>
      </trkpt>
      <trkpt lat="41.039100" lon="-3.748733">
        <ele>2132.0</ele>
        <time>2018-07-21T13:01:02Z</time>
      </trkpt>
      <trkpt lat="41.039183" lon="-3.748700">
        <ele>2132.0</ele>
        <time>2018-07-21T13:01:03Z</time>
      </trkpt>
      <trkpt lat="41.039250" lon="-3.748650">
        <ele>2131.0</ele>
        <time>2018-07-21T13:01:04Z</time>
      </trkpt>
      <trkpt lat="41.039317" lon="-3.748583">
        <ele>2131.0</ele>
        <time>2018-07-21T13:01:05Z</time>
      </trkpt>
      <trkpt lat="41.039383" lon="-3.748517">
        <ele>2130.0</ele>
        <time>2018-07-21T13:01:06Z</time>
      </trkpt>
      <trkpt lat="41.039450" lon="-3.748467">
        <ele>2129.0</ele>
        <time>2018-07-21T13:01:07Z</time>
      </trkpt>
      <trkpt lat="41.039517" lon="-3.748400">
        <ele>2128.0</ele>
        <time>2018-07-21T13:01:08Z</time>
      </trkpt>
      <trkpt lat="41.039583" lon="-3.748333">
        <ele>2127.0</ele>
        <time>2018-07-21T13:01:09Z</time>
      </trkpt>
      <trkpt lat="41.039667" lon="-3.748283">
        <ele>2126.0</ele>
        <time>2018-07-21T13:01:10Z</time>
      </trkpt>
      <trkpt lat="41.039733" lon="-3.748217">
        <ele>2125.0</ele>
        <time>2018-07-21T13:01:11Z</time>
      </trkpt>
      <trkpt lat="41.039800" lon="-3.748167">
        <ele>2124.0</ele>
        <time>2018-07-21T13:01:12Z</time>
      </trkpt>
      <trkpt lat="41.039867" lon="-3.748117">
        <ele>2123.0</ele>
        <time>2018-07-21T13:01:13Z</time>
      </trkpt>
      <trkpt lat="41.039933" lon="-3.748067">
        <ele>2122.0</ele>
        <time>2018-07-21T13:01:14Z</time>
      </trkpt>
      <trkpt lat="41.040000" lon="-3.748017">
        <ele>2119.0</ele>
        <time>2018-07-21T13:01:15Z</time>
      </trkpt>
      <trkpt lat="41.040083" lon="-3.747967">
        <ele>2117.0</ele>
        <time>2018-07-21T13:01:16Z</time>
      </trkpt>
      <trkpt lat="41.040150" lon="-3.747917">
        <ele>2116.0</ele>
        <time>2018-07-21T13:01:17Z</time>
      </trkpt>
      <trkpt lat="41.040217" lon="-3.747867">
        <ele>2114.0</ele>
        <time>2018-07-21T13:01:18Z</time>
      </trkpt>
      <trkpt lat="41.040283" lon="-3.747800">
        <ele>2113.0</ele>
        <time>2018-07-21T13:01:19Z</time>
      </trkpt>
      <trkpt lat="41.040350" lon="-3.747733">
        <ele>2114.0</ele>
        <time>2018-07-21T13:01:20Z</time>
      </trkpt>
      <trkpt lat="41.040417" lon="-3.747667">
        <ele>2114.0</ele>
        <time>2018-07-21T13:01:21Z</time>
      </trkpt>
      <trkpt lat="41.040467" lon="-3.747617">
        <ele>2115.0</ele>
        <time>2018-07-21T13:01:22Z</time>
      </trkpt>
      <trkpt lat="41.040517" lon="-3.747583">
        <ele>2115.0</ele>
        <time>2018-07-21T13:01:23Z</time>
      </trkpt>
      <trkpt lat="41.040583" lon="-3.747567">
        <ele>2115.0</ele>
        <time>2018-07-21T13:01:24Z</time>
      </trkpt>
      <trkpt lat="41.040650" lon="-3.747550">
        <ele>2115.0</ele>
        <time>2018-07-21T13:01:25Z</time>
      </trkpt>
      <trkpt lat="41.040717" lon="-3.747533">
        <ele>2116.0</ele>
        <time>2018-07-21T13:01:26Z</time>
      </trkpt>
      <trkpt lat="41.040783" lon="-3.747517">
        <ele>2118.0</ele>
        <time>2018-07-21T13:01:27Z</time>
      </trkpt>
      <trkpt lat="41.040850" lon="-3.747483">
        <ele>2121.0</ele>
        <time>2018-07-21T13:01:28Z</time>
      </trkpt>
      <trkpt lat="41.040917" lon="-3.747467">
        <ele>2124.0</ele>
        <time>2018-07-21T13:01:29Z</time>
      </trkpt>
      <trkpt lat="41.040967" lon="-3.747433">
        <ele>2127.0</ele>
        <time>2018-07-21T13:01:30Z</time>
      </trkpt>
      <trkpt lat="41.041000" lon="-3.747417">
        <ele>2129.0</ele>
        <time>2018-07-21T13:01:31Z</time>
      </trkpt>
      <trkpt lat="41.041033" lon="-3.747417">
        <ele>2129.0</ele>
        <time>2018-07-21T13:01:32Z</time>
      </trkpt>
      <trkpt lat="41.041050" lon="-3.747433">
        <ele>2128.0</ele>
        <time>2018-07-21T13:01:33Z</time>
      </trkpt>
      <trkpt lat="41.041033" lon="-3.747500">
        <ele>2127.0</ele>
        <time>2018-07-21T13:01:34Z</time>
      </trkpt>
      <trkpt lat="41.040983" lon="-3.747550">
        <ele>2127.0</ele>
        <time>2018-07-21T13:01:35Z</time>
      </trkpt>
      <trkpt lat="41.040883" lon="-3.747583">
        <ele>2126.0</ele>
        <time>2018-07-21T13:01:36Z</time>
      </trkpt>
      <trkpt lat="41.040783" lon="-3.747583">
        <ele>2127.0</ele>
        <time>2018-07-21T13:01:37Z</time>
      </trkpt>
      <trkpt lat="41.040650" lon="-3.747517">
        <ele>2127.0</ele>
        <time>2018-07-21T13:01:38Z</time>
      </trkpt>
      <trkpt lat="41.040550" lon="-3.747400">
        <ele>2127.0</ele>
        <time>2018-07-21T13:01:39Z</time>
      </trkpt>
      <trkpt lat="41.040433" lon="-3.747267">
        <ele>2126.0</ele>
        <time>2018-07-21T13:01:40Z</time>
      </trkpt>
      <trkpt lat="41.040350" lon="-3.747100">
        <ele>2126.0</ele>
        <time>2018-07-21T13:01:41Z</time>
      </trkpt>
      <trkpt lat="41.040283" lon="-3.746900">
        <ele>2125.0</ele>
        <time>2018-07-21T13:01:42Z</time>
      </trkpt>
      <trkpt lat="41.040233" lon="-3.746683">
        <ele>2125.0</ele>
        <time>2018-07-21T13:01:43Z</time>
      </trkpt>
      <trkpt lat="41.040233" lon="-3.746483">
        <ele>2127.0</ele>
        <time>2018-07-21T13:01:44Z</time>
      </trkpt>
      <trkpt lat="41.040267" lon="-3.746300">
        <ele>2128.0</ele>
        <time>2018-07-21T13:01:45Z</time>
      </trkpt>
      <trkpt lat="41.040317" lon="-3.746150">
        <ele>2130.0</ele>
        <time>2018-07-21T13:01:46Z</time>
      </trkpt>
      <trkpt lat="41.040367" lon="-3.746033">
        <ele>2131.0</ele>
        <time>2018-07-21T13:01:47Z</time>
      </trkpt>
      <trkpt lat="41.040417" lon="-3.745917">
        <ele>2131.0</ele>
        <time>2018-07-21T13:01:48Z</time>
      </trkpt>
      <trkpt lat="41.040483" lon="-3.745833">
        <ele>2131.0</ele>
        <time>2018-07-21T13:01:49Z</time>
      </trkpt>
      <trkpt lat="41.040550" lon="-3.745767">
        <ele>2131.0</ele>
        <time>2018-07-21T13:01:50Z</time>
      </trkpt>
      <trkpt lat="41.040617" lon="-3.745717">
        <ele>2132.0</ele>
        <time>2018-07-21T13:01:51Z</time>
      </trkpt>
      <trkpt lat="41.040683" lon="-3.745650">
        <ele>2132.0</ele>
        <time>2018-07-21T13:01:52Z</time>
      </trkpt>
      <trkpt lat="41.040733" lon="-3.745600">
        <ele>2132.0</ele>
        <time>2018-07-21T13:01:53Z</time>
      </trkpt>
      <trkpt lat="41.040783" lon="-3.745567">
        <ele>2131.0</ele>
        <time>2018-07-21T13:01:54Z</time>
      </trkpt>
      <trkpt lat="41.040833" lon="-3.745550">
        <ele>2129.0</ele>
        <time>2018-07-21T13:01:55Z</time>
      </trkpt>
      <trkpt lat="41.040900" lon="-3.745533">
        <ele>2126.0</ele>
        <time>2018-07-21T13:01:56Z</time>
      </trkpt>
      <trkpt lat="41.040950" lon="-3.745517">
        <ele>2125.0</ele>
        <time>2018-07-21T13:01:57Z</time>
      </trkpt>
      <trkpt lat="41.041017" lon="-3.745517">
        <ele>2123.0</ele>
        <time>2018-07-21T13:01:58Z</time>
      </trkpt>
      <trkpt lat="41.041067" lon="-3.745500">
        <ele>2122.0</ele>
        <time>2018-07-21T13:01:59Z</time>
      </trkpt>
      <trkpt lat="41.041117" lon="-3.745483">
        <ele>2121.0</ele>
        <time>2018-07-21T13:02:00Z</time>
      </trkpt>
      <trkpt lat="41.041183" lon="-3.745483">
        <ele>2119.0</ele>
        <time>2018-07-21T13:02:01Z</time>
      </trkpt>
      <trkpt lat="41.041233" lon="-3.745467">
        <ele>2116.0</ele>
        <time>2018-07-21T13:02:02Z</time>
      </trkpt>
      <trkpt lat="41.041283" lon="-3.745467">
        <ele>2114.0</ele>
        <time>2018-07-21T13:02:03Z</time>
      </trkpt>
      <trkpt lat="41.041333" lon="-3.745450">
        <ele>2111.0</ele>
        <time>2018-07-21T13:02:04Z</time>
      </trkpt>
      <trkpt lat="41.041400" lon="-3.745450">
        <ele>2108.0</ele>
        <time>2018-07-21T13:02:05Z</time>
      </trkpt>
      <trkpt lat="41.041450" lon="-3.745433">
        <ele>2106.0</ele>
        <time>2018-07-21T13:02:06Z</time>
      </trkpt>
      <trkpt lat="41.041517" lon="-3.745417">
        <ele>2103.0</ele>
        <time>2018-07-21T13:02:07Z</time>
      </trkpt>
      <trkpt lat="41.041583" lon="-3.745400">
        <ele>2101.0</ele>
        <time>2018-07-21T13:02:08Z</time>
      </trkpt>
      <trkpt lat="41.041633" lon="-3.745400">
        <ele>2098.0</ele>
        <time>2018-07-21T13:02:09Z</time>
      </trkpt>
      <trkpt lat="41.041683" lon="-3.745417">
        <ele>2096.0</ele>
        <time>2018-07-21T13:02:10Z</time>
      </trkpt>
      <trkpt lat="41.041717" lon="-3.745433">
        <ele>2094.0</ele>
        <time>2018-07-21T13:02:11Z</time>
      </trkpt>
      <trkpt lat="41.041767" lon="-3.745450">
        <ele>2091.0</ele>
        <time>2018-07-21T13:02:12Z</time>
      </trkpt>
      <trkpt lat="41.041800" lon="-3.745483">
        <ele>2089.0</ele>
        <time>2018-07-21T13:02:13Z</time>
      </trkpt>
      <trkpt lat="41.041850" lon="-3.745500">
        <ele>2087.0</ele>
        <time>2018-07-21T13:02:14Z</time>
      </trkpt>
      <trkpt lat="41.041883" lon="-3.745533">
        <ele>2084.0</ele>
        <time>2018-07-21T13:02:15Z</time>
      </trkpt>
      <trkpt lat="41.041933" lon="-3.745583">
        <ele>2081.0</ele>
        <time>2018-07-21T13:02:16Z</time>
      </trkpt>
      <trkpt lat="41.041983" lon="-3.745617">
        <ele>2079.0</ele>
        <time>2018-07-21T13:02:17Z</time>
      </trkpt>
      <trkpt lat="41.042033" lon="-3.745633">
        <ele>2078.0</ele>
        <time>2018-07-21T13:02:18Z</time>
      </trkpt>
      <trkpt lat="41.042083" lon="-3.745650">
        <ele>2077.0</ele>
        <time>2018-07-21T13:02:19Z</time>
      </trkpt>
      <trkpt lat="41.042150" lon="-3.745650">
        <ele>2076.0</ele>
        <time>2018-07-21T13:02:20Z</time>
      </trkpt>
      <trkpt lat="41.042200" lon="-3.745650">
        <ele>2074.0</ele>
        <time>2018-07-21T13:02:21Z</time>
      </trkpt>
      <trkpt lat="41.042283" lon="-3.745633">
        <ele>2072.0</ele>
        <time>2018-07-21T13:02:22Z</time>
      </trkpt>
      <trkpt lat="41.042350" lon="-3.745600">
        <ele>2070.0</ele>
        <time>2018-07-21T13:02:23Z</time>
      </trkpt>
      <trkpt lat="41.042433" lon="-3.745567">
        <ele>2069.0</ele>
        <time>2018-07-21T13:02:24Z</time>
      </trkpt>
      <trkpt lat="41.042517" lon="-3.745533">
        <ele>2069.0</ele>
        <time>2018-07-21T13:02:25Z</time>
      </trkpt>
      <trkpt lat="41.042600" lon="-3.745483">
        <ele>2068.0</ele>
        <time>2018-07-21T13:02:26Z</time>
      </trkpt>
      <trkpt lat="41.042667" lon="-3.745450">
        <ele>2067.0</ele>
        <time>2018-07-21T13:02:27Z</time>
      </trkpt>
      <trkpt lat="41.042750" lon="-3.745433">
        <ele>2066.0</ele>
        <time>2018-07-21T13:02:28Z</time>
      </trkpt>
      <trkpt lat="41.042817" lon="-3.745417">
        <ele>2065.0</ele>
        <time>2018-07-21T13:02:29Z</time>
      </trkpt>
      <trkpt lat="41.042883" lon="-3.745383">
        <ele>2065.0</ele>
        <time>2018-07-21T13:02:30Z</time>
      </trkpt>
      <trkpt lat="41.042950" lon="-3.745367">
        <ele>2064.0</ele>
        <time>2018-07-21T13:02:31Z</time>
      </trkpt>
      <trkpt lat="41.043017" lon="-3.745350">
        <ele>2063.0</ele>
        <time>2018-07-21T13:02:32Z</time>
      </trkpt>
      <trkpt lat="41.043083" lon="-3.745317">
        <ele>2062.0</ele>
        <time>2018-07-21T13:02:33Z</time>
      </trkpt>
      <trkpt lat="41.043150" lon="-3.745300">
        <ele>2060.0</ele>
        <time>2018-07-21T13:02:34Z</time>
      </trkpt>
      <trkpt lat="41.043217" lon="-3.745250">
        <ele>2058.0</ele>
        <time>2018-07-21T13:02:35Z</time>
      </trkpt>
      <trkpt lat="41.043300" lon="-3.745217">
        <ele>2056.0</ele>
        <time>2018-07-21T13:02:36Z</time>
      </trkpt>
      <trkpt lat="41.043367" lon="-3.745167">
        <ele>2054.0</ele>
        <time>2018-07-21T13:02:37Z</time>
      </trkpt>
      <trkpt lat="41.043433" lon="-3.745133">
        <ele>2053.0</ele>
        <time>2018-07-21T13:02:38Z</time>
      </trkpt>
      <trkpt lat="41.043500" lon="-3.745100">
        <ele>2052.0</ele>
        <time>2018-07-21T13:02:39Z</time>
      </trkpt>
      <trkpt lat="41.043583" lon="-3.745050">
        <ele>2050.0</ele>
        <time>2018-07-21T13:02:40Z</time>
      </trkpt>
      <trkpt lat="41.043650" lon="-3.744983">
        <ele>2048.0</ele>
        <time>2018-07-21T13:02:41Z</time>
      </trkpt>
      <trkpt lat="41.043733" lon="-3.744917">
        <ele>2046.0</ele>
        <time>2018-07-21T13:02:42Z</time>
      </trkpt>
      <trkpt lat="41.043800" lon="-3.744867">
        <ele>2044.0</ele>
        <time>2018-07-21T13:02:43Z</time>
      </trkpt>
      <trkpt lat="41.043883" lon="-3.744817">
        <ele>2044.0</ele>
        <time>2018-07-21T13:02:44Z</time>
      </trkpt>
      <trkpt lat="41.043950" lon="-3.744783">
        <ele>2043.0</ele>
        <time>2018-07-21T13:02:45Z</time>
      </trkpt>
      <trkpt lat="41.044017" lon="-3.744733">
        <ele>2042.0</ele>
        <time>2018-07-21T13:02:46Z</time>
      </trkpt>
      <trkpt lat="41.044083" lon="-3.744683">
        <ele>2041.0</ele>
        <time>2018-07-21T13:02:47Z</time>
      </trkpt>
      <trkpt lat="41.044150" lon="-3.744633">
        <ele>2039.0</ele>
        <time>2018-07-21T13:02:48Z</time>
      </trkpt>
      <trkpt lat="41.044217" lon="-3.744600">
        <ele>2036.0</ele>
        <time>2018-07-21T13:02:49Z</time>
      </trkpt>
      <trkpt lat="41.044283" lon="-3.744567">
        <ele>2034.0</ele>
        <time>2018-07-21T13:02:50Z</time>
      </trkpt>
      <trkpt lat="41.044367" lon="-3.744533">
        <ele>2032.0</ele>
        <time>2018-07-21T13:02:51Z</time>
      </trkpt>
      <trkpt lat="41.044433" lon="-3.744500">
        <ele>2031.0</ele>
        <time>2018-07-21T13:02:52Z</time>
      </trkpt>
      <trkpt lat="41.044500" lon="-3.744467">
        <ele>2031.0</ele>
        <time>2018-07-21T13:02:53Z</time>
      </trkpt>
      <trkpt lat="41.044550" lon="-3.744433">
        <ele>2030.0</ele>
        <time>2018-07-21T13:02:54Z</time>
      </trkpt>
      <trkpt lat="41.044600" lon="-3.744417">
        <ele>2029.0</ele>
        <time>2018-07-21T13:02:55Z</time>
      </trkpt>
      <trkpt lat="41.044650" lon="-3.744400">
        <ele>2027.0</ele>
        <time>2018-07-21T13:02:56Z</time>
      </trkpt>
      <trkpt lat="41.044700" lon="-3.744383">
        <ele>2025.0</ele>
        <time>2018-07-21T13:02:57Z</time>
      </trkpt>
      <trkpt lat="41.044750" lon="-3.744367">
        <ele>2023.0</ele>
        <time>2018-07-21T13:02:58Z</time>
      </trkpt>
      <trkpt lat="41.044817" lon="-3.744383">
        <ele>2022.0</ele>
        <time>2018-07-21T13:02:59Z</time>
      </trkpt>
      <trkpt lat="41.044850" lon="-3.744400">
        <ele>2021.0</ele>
        <time>2018-07-21T13:03:00Z</time>
      </trkpt>
      <trkpt lat="41.044883" lon="-3.744433">
        <ele>2020.0</ele>
        <time>2018-07-21T13:03:01Z</time>
      </trkpt>
      <trkpt lat="41.044917" lon="-3.744467">
        <ele>2018.0</ele>
        <time>2018-07-21T13:03:02Z</time>
      </trkpt>
      <trkpt lat="41.044933" lon="-3.744517">
        <ele>2017.0</ele>
        <time>2018-07-21T13:03:03Z</time>
      </trkpt>
      <trkpt lat="41.044967" lon="-3.744550">
        <ele>2015.0</ele>
        <time>2018-07-21T13:03:04Z</time>
      </trkpt>
      <trkpt lat="41.045017" lon="-3.744600">
        <ele>2014.0</ele>
        <time>2018-07-21T13:03:05Z</time>
      </trkpt>
      <trkpt lat="41.045033" lon="-3.744650">
        <ele>2013.0</ele>
        <time>2018-07-21T13:03:06Z</time>
      </trkpt>
      <trkpt lat="41.045067" lon="-3.744700">
        <ele>2012.0</ele>
        <time>2018-07-21T13:03:07Z</time>
      </trkpt>
      <trkpt lat="41.045100" lon="-3.744733">
        <ele>2012.0</ele>
        <time>2018-07-21T13:03:08Z</time>
      </trkpt>
      <trkpt lat="41.045150" lon="-3.744767">
        <ele>2013.0</ele>
        <time>2018-07-21T13:03:09Z</time>
      </trkpt>
      <trkpt lat="41.045200" lon="-3.744767">
        <ele>2013.0</ele>
        <time>2018-07-21T13:03:10Z</time>
      </trkpt>
      <trkpt lat="41.045250" lon="-3.744767">
        <ele>2012.0</ele>
        <time>2018-07-21T13:03:11Z</time>
      </trkpt>
      <trkpt lat="41.045317" lon="-3.744750">
        <ele>2010.0</ele>
        <time>2018-07-21T13:03:12Z</time>
      </trkpt>
      <trkpt lat="41.045400" lon="-3.744750">
        <ele>2009.0</ele>
        <time>2018-07-21T13:03:13Z</time>
      </trkpt>
      <trkpt lat="41.045467" lon="-3.744733">
        <ele>2009.0</ele>
        <time>2018-07-21T13:03:14Z</time>
      </trkpt>
      <trkpt lat="41.045517" lon="-3.744733">
        <ele>2009.0</ele>
        <time>2018-07-21T13:03:15Z</time>
      </trkpt>
      <trkpt lat="41.045583" lon="-3.744733">
        <ele>2009.0</ele>
        <time>2018-07-21T13:03:16Z</time>
      </trkpt>
      <trkpt lat="41.045617" lon="-3.744750">
        <ele>2010.0</ele>
        <time>2018-07-21T13:03:17Z</time>
      </trkpt>
      <trkpt lat="41.045650" lon="-3.744767">
        <ele>2010.0</ele>
        <time>2018-07-21T13:03:18Z</time>
      </trkpt>
      <trkpt lat="41.045683" lon="-3.744783">
        <ele>2009.0</ele>
        <time>2018-07-21T13:03:19Z</time>
      </trkpt>
      <trkpt lat="41.045733" lon="-3.744800">
        <ele>2009.0</ele>
        <time>2018-07-21T13:03:20Z</time>
      </trkpt>
      <trkpt lat="41.045783" lon="-3.744817">
        <ele>2009.0</ele>
        <time>2018-07-21T13:03:21Z</time>
      </trkpt>
      <trkpt lat="41.045850" lon="-3.744833">
        <ele>2008.0</ele>
        <time>2018-07-21T13:03:22Z</time>
      </trkpt>
      <trkpt lat="41.045900" lon="-3.744867">
        <ele>2007.0</ele>
        <time>2018-07-21T13:03:23Z</time>
      </trkpt>
      <trkpt lat="41.045950" lon="-3.744883">
        <ele>2006.0</ele>
        <time>2018-07-21T13:03:24Z</time>
      </trkpt>
      <trkpt lat="41.046000" lon="-3.744900">
        <ele>2005.0</ele>
        <time>2018-07-21T13:03:25Z</time>
      </trkpt>
      <trkpt lat="41.046050" lon="-3.744917">
        <ele>2004.0</ele>
        <time>2018-07-21T13:03:26Z</time>
      </trkpt>
      <trkpt lat="41.046117" lon="-3.744917">
        <ele>2003.0</ele>
        <time>2018-07-21T13:03:27Z</time>
      </trkpt>
      <trkpt lat="41.046183" lon="-3.744917">
        <ele>2002.0</ele>
        <time>2018-07-21T13:03:28Z</time>
      </trkpt>
      <trkpt lat="41.046233" lon="-3.744917">
        <ele>2001.0</ele>
        <time>2018-07-21T13:03:29Z</time>
      </trkpt>
      <trkpt lat="41.046283" lon="-3.744950">
        <ele>2000.0</ele>
        <time>2018-07-21T13:03:30Z</time>
      </trkpt>
      <trkpt lat="41.046333" lon="-3.744983">
        <ele>2000.0</ele>
        <time>2018-07-21T13:03:31Z</time>
      </trkpt>
      <trkpt lat="41.046400" lon="-3.745033">
        <ele>2000.0</ele>
        <time>2018-07-21T13:03:32Z</time>
      </trkpt>
      <trkpt lat="41.046450" lon="-3.745067">
        <ele>2001.0</ele>
        <time>2018-07-21T13:03:33Z</time>
      </trkpt>
      <trkpt lat="41.046500" lon="-3.745100">
        <ele>2002.0</ele>
        <time>2018-07-21T13:03:34Z</time>
      </trkpt>
      <trkpt lat="41.046567" lon="-3.745133">
        <ele>2005.0</ele>
        <time>2018-07-21T13:03:35Z</time>
      </trkpt>
      <trkpt lat="41.046617" lon="-3.745150">
        <ele>2008.0</ele>
        <time>2018-07-21T13:03:36Z</time>
      </trkpt>
      <trkpt lat="41.046667" lon="-3.745167">
        <ele>2011.0</ele>
        <time>2018-07-21T13:03:37Z</time>
      </trkpt>
      <trkpt lat="41.046700" lon="-3.745183">
        <ele>2014.0</ele>
        <time>2018-07-21T13:03:38Z</time>
      </trkpt>
      <trkpt lat="41.046733" lon="-3.745200">
        <ele>2015.0</ele>
        <time>2018-07-21T13:03:39Z</time>
      </trkpt>
      <trkpt lat="41.046783" lon="-3.745200">
        <ele>2015.0</ele>
        <time>2018-07-21T13:03:40Z</time>
      </trkpt>
      <trkpt lat="41.046833" lon="-3.745167">
        <ele>2015.0</ele>
        <time>2018-07-21T13:03:41Z</time>
      </trkpt>
      <trkpt lat="41.046900" lon="-3.745083">
        <ele>2013.0</ele>
        <time>2018-07-21T13:03:42Z</time>
      </trkpt>
      <trkpt lat="41.046950" lon="-3.744950">
        <ele>2013.0</ele>
        <time>2018-07-21T13:03:43Z</time>
      </trkpt>
      <trkpt lat="41.046967" lon="-3.744767">
        <ele>2013.0</ele>
        <time>2018-07-21T13:03:44Z</time>
      </trkpt>
      <trkpt lat="41.046933" lon="-3.744583">
        <ele>2014.0</ele>
        <time>2018-07-21T13:03:45Z</time>
      </trkpt>
      <trkpt lat="41.046867" lon="-3.744417">
        <ele>2014.0</ele>
        <time>2018-07-21T13:03:46Z</time>
      </trkpt>
      <trkpt lat="41.046750" lon="-3.744283">
        <ele>2015.0</ele>
        <time>2018-07-21T13:03:47Z</time>
      </trkpt>
      <trkpt lat="41.046633" lon="-3.744183">
        <ele>2017.0</ele>
        <time>2018-07-21T13:03:48Z</time>
      </trkpt>
      <trkpt lat="41.046533" lon="-3.744133">
        <ele>2018.0</ele>
        <time>2018-07-21T13:03:49Z</time>
      </trkpt>
      <trkpt lat="41.046417" lon="-3.744117">
        <ele>2019.0</ele>
        <time>2018-07-21T13:03:50Z</time>
      </trkpt>
      <trkpt lat="41.046317" lon="-3.744133">
        <ele>2020.0</ele>
        <time>2018-07-21T13:03:51Z</time>
      </trkpt>
      <trkpt lat="41.046233" lon="-3.744167">
        <ele>2020.0</ele>
        <time>2018-07-21T13:03:52Z</time>
      </trkpt>
      <trkpt lat="41.046167" lon="-3.744233">
        <ele>2023.0</ele>
        <time>2018-07-21T13:03:53Z</time>
      </trkpt>
      <trkpt lat="41.046150" lon="-3.744300">
        <ele>2024.0</ele>
        <time>2018-07-21T13:03:54Z</time>
      </trkpt>
      <trkpt lat="41.046133" lon="-3.744350">
        <ele>2025.0</ele>
        <time>2018-07-21T13:03:55Z</time>
      </trkpt>
      <trkpt lat="41.046150" lon="-3.744383">
        <ele>2026.0</ele>
        <time>2018-07-21T13:03:56Z</time>
      </trkpt>
      <trkpt lat="41.046183" lon="-3.744417">
        <ele>2026.0</ele>
        <time>2018-07-21T13:03:57Z</time>
      </trkpt>
      <trkpt lat="41.046217" lon="-3.744433">
        <ele>2026.0</ele>
        <time>2018-07-21T13:03:58Z</time>
      </trkpt>
      <trkpt lat="41.046267" lon="-3.744450">
        <ele>2026.0</ele>
        <time>2018-07-21T13:03:59Z</time>
      </trkpt>
      <trkpt lat="41.046333" lon="-3.744467">
        <ele>2026.0</ele>
        <time>2018-07-21T13:04:00Z</time>
      </trkpt>
      <trkpt lat="41.046383" lon="-3.744467">
        <ele>2027.0</ele>
        <time>2018-07-21T13:04:01Z</time>
      </trkpt>
      <trkpt lat="41.046433" lon="-3.744450">
        <ele>2027.0</ele>
        <time>2018-07-21T13:04:02Z</time>
      </trkpt>
      <trkpt lat="41.046500" lon="-3.744433">
        <ele>2029.0</ele>
        <time>2018-07-21T13:04:03Z</time>
      </trkpt>
      <trkpt lat="41.046550" lon="-3.744417">
        <ele>2030.0</ele>
        <time>2018-07-21T13:04:04Z</time>
      </trkpt>
      <trkpt lat="41.046600" lon="-3.744400">
        <ele>2031.0</ele>
        <time>2018-07-21T13:04:05Z</time>
      </trkpt>
      <trkpt lat="41.046633" lon="-3.744400">
        <ele>2032.0</ele>
        <time>2018-07-21T13:04:06Z</time>
      </trkpt>
      <trkpt lat="41.046683" lon="-3.744417">
        <ele>2032.0</ele>
        <time>2018-07-21T13:04:07Z</time>
      </trkpt>
      <trkpt lat="41.046733" lon="-3.744417">
        <ele>2033.0</ele>
        <time>2018-07-21T13:04:08Z</time>
      </trkpt>
      <trkpt lat="41.046800" lon="-3.744433">
        <ele>2034.0</ele>
        <time>2018-07-21T13:04:09Z</time>
      </trkpt>
      <trkpt lat="41.046850" lon="-3.744433">
        <ele>2035.0</ele>
        <time>2018-07-21T13:04:10Z</time>
      </trkpt>
      <trkpt lat="41.046917" lon="-3.744433">
        <ele>2036.0</ele>
        <time>2018-07-21T13:04:11Z</time>
      </trkpt>
      <trkpt lat="41.046967" lon="-3.744450">
        <ele>2037.0</ele>
        <time>2018-07-21T13:04:12Z</time>
      </trkpt>
      <trkpt lat="41.047017" lon="-3.744450">
        <ele>2038.0</ele>
        <time>2018-07-21T13:04:13Z</time>
      </trkpt>
      <trkpt lat="41.047050" lon="-3.744450">
        <ele>2039.0</ele>
        <time>2018-07-21T13:04:14Z</time>
      </trkpt>
      <trkpt lat="41.047100" lon="-3.744450">
        <ele>2040.0</ele>
        <time>2018-07-21T13:04:15Z</time>
      </trkpt>
      <trkpt lat="41.047150" lon="-3.744450">
        <ele>2040.0</ele>
        <time>2018-07-21T13:04:16Z</time>
      </trkpt>
      <trkpt lat="41.047200" lon="-3.744433">
        <ele>2039.0</ele>
        <time>2018-07-21T13:04:17Z</time>
      </trkpt>
      <trkpt lat="41.047267" lon="-3.744433">
        <ele>2040.0</ele>
        <time>2018-07-21T13:04:18Z</time>
      </trkpt>
      <trkpt lat="41.047317" lon="-3.744433">
        <ele>2040.0</ele>
        <time>2018-07-21T13:04:19Z</time>
      </trkpt>
      <trkpt lat="41.047350" lon="-3.744433">
        <ele>2040.0</ele>
        <time>2018-07-21T13:04:20Z</time>
      </trkpt>
      <trkpt lat="41.047400" lon="-3.744433">
        <ele>2039.0</ele>
        <time>2018-07-21T13:04:21Z</time>
      </trkpt>
      <trkpt lat="41.047450" lon="-3.744417">
        <ele>2037.0</ele>
        <time>2018-07-21T13:04:22Z</time>
      </trkpt>
      <trkpt lat="41.047517" lon="-3.744400">
        <ele>2034.0</ele>
        <time>2018-07-21T13:04:23Z</time>
      </trkpt>
      <trkpt lat="41.047583" lon="-3.744400">
        <ele>2032.0</ele>
        <time>2018-07-21T13:04:24Z</time>
      </trkpt>
      <trkpt lat="41.047650" lon="-3.744400">
        <ele>2031.0</ele>
        <time>2018-07-21T13:04:25Z</time>
      </trkpt>
      <trkpt lat="41.047733" lon="-3.744400">
        <ele>2031.0</ele>
        <time>2018-07-21T13:04:26Z</time>
      </trkpt>
      <trkpt lat="41.047800" lon="-3.744383">
        <ele>2032.0</ele>
        <time>2018-07-21T13:04:27Z</time>
      </trkpt>
      <trkpt lat="41.047850" lon="-3.744350">
        <ele>2032.0</ele>
        <time>2018-07-21T13:04:28Z</time>
      </trkpt>
      <trkpt lat="41.047917" lon="-3.744317">
        <ele>2032.0</ele>
        <time>2018-07-21T13:04:29Z</time>
      </trkpt>
      <trkpt lat="41.047983" lon="-3.744283">
        <ele>2030.0</ele>
        <time>2018-07-21T13:04:30Z</time>
      </trkpt>
      <trkpt lat="41.048050" lon="-3.744250">
        <ele>2028.0</ele>
        <time>2018-07-21T13:04:31Z</time>
      </trkpt>
      <trkpt lat="41.048133" lon="-3.744233">
        <ele>2026.0</ele>
        <time>2018-07-21T13:04:32Z</time>
      </trkpt>
      <trkpt lat="41.048217" lon="-3.744217">
        <ele>2025.0</ele>
        <time>2018-07-21T13:04:33Z</time>
      </trkpt>
      <trkpt lat="41.048283" lon="-3.744200">
        <ele>2024.0</ele>
        <time>2018-07-21T13:04:34Z</time>
      </trkpt>
      <trkpt lat="41.048367" lon="-3.744183">
        <ele>2023.0</ele>
        <time>2018-07-21T13:04:35Z</time>
      </trkpt>
      <trkpt lat="41.048450" lon="-3.744167">
        <ele>2023.0</ele>
        <time>2018-07-21T13:04:36Z</time>
      </trkpt>
      <trkpt lat="41.048517" lon="-3.744150">
        <ele>2024.0</ele>
        <time>2018-07-21T13:04:37Z</time>
      </trkpt>
      <trkpt lat="41.048583" lon="-3.744133">
        <ele>2023.0</ele>
        <time>2018-07-21T13:04:38Z</time>
      </trkpt>
      <trkpt lat="41.048667" lon="-3.744100">
        <ele>2023.0</ele>
        <time>2018-07-21T13:04:39Z</time>
      </trkpt>
      <trkpt lat="41.048733" lon="-3.744083">
        <ele>2022.0</ele>
        <time>2018-07-21T13:04:40Z</time>
      </trkpt>
      <trkpt lat="41.048800" lon="-3.744050">
        <ele>2022.0</ele>
        <time>2018-07-21T13:04:41Z</time>
      </trkpt>
      <trkpt lat="41.048867" lon="-3.744033">
        <ele>2022.0</ele>
        <time>2018-07-21T13:04:42Z</time>
      </trkpt>
      <trkpt lat="41.048933" lon="-3.743983">
        <ele>2023.0</ele>
        <time>2018-07-21T13:04:43Z</time>
      </trkpt>
      <trkpt lat="41.048983" lon="-3.743933">
        <ele>2024.0</ele>
        <time>2018-07-21T13:04:44Z</time>
      </trkpt>
      <trkpt lat="41.049033" lon="-3.743883">
        <ele>2023.0</ele>
        <time>2018-07-21T13:04:45Z</time>
      </trkpt>
      <trkpt lat="41.049100" lon="-3.743833">
        <ele>2021.0</ele>
        <time>2018-07-21T13:04:46Z</time>
      </trkpt>
      <trkpt lat="41.049167" lon="-3.743783">
        <ele>2020.0</ele>
        <time>2018-07-21T13:04:47Z</time>
      </trkpt>
      <trkpt lat="41.049250" lon="-3.743733">
        <ele>2019.0</ele>
        <time>2018-07-21T13:04:48Z</time>
      </trkpt>
      <trkpt lat="41.049317" lon="-3.743700">
        <ele>2018.0</ele>
        <time>2018-07-21T13:04:49Z</time>
      </trkpt>
      <trkpt lat="41.049400" lon="-3.743650">
        <ele>2018.0</ele>
        <time>2018-07-21T13:04:50Z</time>
      </trkpt>
      <trkpt lat="41.049467" lon="-3.743600">
        <ele>2017.0</ele>
        <time>2018-07-21T13:04:51Z</time>
      </trkpt>
      <trkpt lat="41.049550" lon="-3.743567">
        <ele>2017.0</ele>
        <time>2018-07-21T13:04:52Z</time>
      </trkpt>
      <trkpt lat="41.049617" lon="-3.743550">
        <ele>2016.0</ele>
        <time>2018-07-21T13:04:53Z</time>
      </trkpt>
      <trkpt lat="41.049683" lon="-3.743533">
        <ele>2015.0</ele>
        <time>2018-07-21T13:04:54Z</time>
      </trkpt>
      <trkpt lat="41.049750" lon="-3.743500">
        <ele>2014.0</ele>
        <time>2018-07-21T13:04:55Z</time>
      </trkpt>
      <trkpt lat="41.049817" lon="-3.743467">
        <ele>2013.0</ele>
        <time>2018-07-21T13:04:56Z</time>
      </trkpt>
      <trkpt lat="41.049900" lon="-3.743433">
        <ele>2013.0</ele>
        <time>2018-07-21T13:04:57Z</time>
      </trkpt>
      <trkpt lat="41.049967" lon="-3.743400">
        <ele>2012.0</ele>
        <time>2018-07-21T13:04:58Z</time>
      </trkpt>
      <trkpt lat="41.050033" lon="-3.743367">
        <ele>2011.0</ele>
        <time>2018-07-21T13:04:59Z</time>
      </trkpt>
      <trkpt lat="41.050117" lon="-3.743350">
        <ele>2010.0</ele>
        <time>2018-07-21T13:05:00Z</time>
      </trkpt>
      <trkpt lat="41.050183" lon="-3.743317">
        <ele>2009.0</ele>
        <time>2018-07-21T13:05:01Z</time>
      </trkpt>
      <trkpt lat="41.050267" lon="-3.743267">
        <ele>2007.0</ele>
        <time>2018-07-21T13:05:02Z</time>
      </trkpt>
      <trkpt lat="41.050350" lon="-3.743250">
        <ele>2006.0</ele>
        <time>2018-07-21T13:05:03Z</time>
      </trkpt>
      <trkpt lat="41.050433" lon="-3.743217">
        <ele>2006.0</ele>
        <time>2018-07-21T13:05:04Z</time>
      </trkpt>
      <trkpt lat="41.050517" lon="-3.743200">
        <ele>2006.0</ele>
        <time>2018-07-21T13:05:05Z</time>
      </trkpt>
      <trkpt lat="41.050600" lon="-3.743167">
        <ele>2007.0</ele>
        <time>2018-07-21T13:05:06Z</time>
      </trkpt>
      <trkpt lat="41.050683" lon="-3.743150">
        <ele>2008.0</ele>
        <time>2018-07-21T13:05:07Z</time>
      </trkpt>
      <trkpt lat="41.050750" lon="-3.743117">
        <ele>2009.0</ele>
        <time>2018-07-21T13:05:08Z</time>
      </trkpt>
      <trkpt lat="41.050800" lon="-3.743083">
        <ele>2010.0</ele>
        <time>2018-07-21T13:05:09Z</time>
      </trkpt>
      <trkpt lat="41.050867" lon="-3.743067">
        <ele>2010.0</ele>
        <time>2018-07-21T13:05:10Z</time>
      </trkpt>
      <trkpt lat="41.050933" lon="-3.743050">
        <ele>2009.0</ele>
        <time>2018-07-21T13:05:11Z</time>
      </trkpt>
      <trkpt lat="41.051000" lon="-3.743033">
        <ele>2008.0</ele>
        <time>2018-07-21T13:05:12Z</time>
      </trkpt>
      <trkpt lat="41.051067" lon="-3.743017">
        <ele>2006.0</ele>
        <time>2018-07-21T13:05:13Z</time>
      </trkpt>
      <trkpt lat="41.051150" lon="-3.742983">
        <ele>2006.0</ele>
        <time>2018-07-21T13:05:14Z</time>
      </trkpt>
      <trkpt lat="41.051233" lon="-3.742967">
        <ele>2007.0</ele>
        <time>2018-07-21T13:05:15Z</time>
      </trkpt>
      <trkpt lat="41.051300" lon="-3.742950">
        <ele>2007.0</ele>
        <time>2018-07-21T13:05:16Z</time>
      </trkpt>
      <trkpt lat="41.051367" lon="-3.742917">
        <ele>2008.0</ele>
        <time>2018-07-21T13:05:17Z</time>
      </trkpt>
      <trkpt lat="41.051433" lon="-3.742900">
        <ele>2008.0</ele>
        <time>2018-07-21T13:05:18Z</time>
      </trkpt>
      <trkpt lat="41.051517" lon="-3.742883">
        <ele>2007.0</ele>
        <time>2018-07-21T13:05:19Z</time>
      </trkpt>
      <trkpt lat="41.051583" lon="-3.742867">
        <ele>2006.0</ele>
        <time>2018-07-21T13:05:20Z</time>
      </trkpt>
      <trkpt lat="41.051650" lon="-3.742867">
        <ele>2007.0</ele>
        <time>2018-07-21T13:05:21Z</time>
      </trkpt>
      <trkpt lat="41.051717" lon="-3.742867">
        <ele>2007.0</ele>
        <time>2018-07-21T13:05:22Z</time>
      </trkpt>
      <trkpt lat="41.051767" lon="-3.742850">
        <ele>2008.0</ele>
        <time>2018-07-21T13:05:23Z</time>
      </trkpt>
      <trkpt lat="41.051833" lon="-3.742817">
        <ele>2008.0</ele>
        <time>2018-07-21T13:05:24Z</time>
      </trkpt>
      <trkpt lat="41.051883" lon="-3.742783">
        <ele>2008.0</ele>
        <time>2018-07-21T13:05:25Z</time>
      </trkpt>
      <trkpt lat="41.051950" lon="-3.742767">
        <ele>2007.0</ele>
        <time>2018-07-21T13:05:26Z</time>
      </trkpt>
      <trkpt lat="41.052017" lon="-3.742750">
        <ele>2007.0</ele>
        <time>2018-07-21T13:05:27Z</time>
      </trkpt>
      <trkpt lat="41.052083" lon="-3.742733">
        <ele>2006.0</ele>
        <time>2018-07-21T13:05:28Z</time>
      </trkpt>
      <trkpt lat="41.052150" lon="-3.742717">
        <ele>2005.0</ele>
        <time>2018-07-21T13:05:29Z</time>
      </trkpt>
      <trkpt lat="41.052217" lon="-3.742700">
        <ele>2003.0</ele>
        <time>2018-07-21T13:05:30Z</time>
      </trkpt>
      <trkpt lat="41.052267" lon="-3.742700">
        <ele>2002.0</ele>
        <time>2018-07-21T13:05:31Z</time>
      </trkpt>
      <trkpt lat="41.052333" lon="-3.742683">
        <ele>2001.0</ele>
        <time>2018-07-21T13:05:32Z</time>
      </trkpt>
      <trkpt lat="41.052400" lon="-3.742667">
        <ele>2001.0</ele>
        <time>2018-07-21T13:05:33Z</time>
      </trkpt>
      <trkpt lat="41.052467" lon="-3.742650">
        <ele>2000.0</ele>
        <time>2018-07-21T13:05:34Z</time>
      </trkpt>
      <trkpt lat="41.052550" lon="-3.742617">
        <ele>2000.0</ele>
        <time>2018-07-21T13:05:35Z</time>
      </trkpt>
      <trkpt lat="41.052617" lon="-3.742567">
        <ele>2000.0</ele>
        <time>2018-07-21T13:05:36Z</time>
      </trkpt>
      <trkpt lat="41.052683" lon="-3.742533">
        <ele>2000.0</ele>
        <time>2018-07-21T13:05:37Z</time>
      </trkpt>
      <trkpt lat="41.052767" lon="-3.742483">
        <ele>2000.0</ele>
        <time>2018-07-21T13:05:38Z</time>
      </trkpt>
      <trkpt lat="41.052833" lon="-3.742417">
        <ele>2000.0</ele>
        <time>2018-07-21T13:05:39Z</time>
      </trkpt>
      <trkpt lat="41.052917" lon="-3.742367">
        <ele>1999.0</ele>
        <time>2018-07-21T13:05:40Z</time>
      </trkpt>
      <trkpt lat="41.052983" lon="-3.742317">
        <ele>1999.0</ele>
        <time>2018-07-21T13:05:41Z</time>
      </trkpt>
      <trkpt lat="41.053067" lon="-3.742283">
        <ele>1998.0</ele>
        <time>2018-07-21T13:05:42Z</time>
      </trkpt>
      <trkpt lat="41.053150" lon="-3.742250">
        <ele>1997.0</ele>
        <time>2018-07-21T13:05:43Z</time>
      </trkpt>
      <trkpt lat="41.053233" lon="-3.742200">
        <ele>1996.0</ele>
        <time>2018-07-21T13:05:44Z</time>
      </trkpt>
      <trkpt lat="41.053317" lon="-3.742167">
        <ele>1996.0</ele>
        <time>2018-07-21T13:05:45Z</time>
      </trkpt>
      <trkpt lat="41.053400" lon="-3.742117">
        <ele>1996.0</ele>
        <time>2018-07-21T13:05:46Z</time>
      </trkpt>
      <trkpt lat="41.053467" lon="-3.742083">
        <ele>1996.0</ele>
        <time>2018-07-21T13:05:47Z</time>
      </trkpt>
      <trkpt lat="41.053550" lon="-3.742033">
        <ele>1996.0</ele>
        <time>2018-07-21T13:05:48Z</time>
      </trkpt>
      <trkpt lat="41.053633" lon="-3.741983">
        <ele>1995.0</ele>
        <time>2018-07-21T13:05:49Z</time>
      </trkpt>
      <trkpt lat="41.053700" lon="-3.741933">
        <ele>1994.0</ele>
        <time>2018-07-21T13:05:50Z</time>
      </trkpt>
      <trkpt lat="41.053783" lon="-3.741883">
        <ele>1993.0</ele>
        <time>2018-07-21T13:05:51Z</time>
      </trkpt>
      <trkpt lat="41.053867" lon="-3.741833">
        <ele>1992.0</ele>
        <time>2018-07-21T13:05:52Z</time>
      </trkpt>
      <trkpt lat="41.053950" lon="-3.741800">
        <ele>1991.0</ele>
        <time>2018-07-21T13:05:53Z</time>
      </trkpt>
      <trkpt lat="41.054033" lon="-3.741750">
        <ele>1991.0</ele>
        <time>2018-07-21T13:05:54Z</time>
      </trkpt>
      <trkpt lat="41.054117" lon="-3.741717">
        <ele>1991.0</ele>
        <time>2018-07-21T13:05:55Z</time>
      </trkpt>
      <trkpt lat="41.054200" lon="-3.741667">
        <ele>1992.0</ele>
        <time>2018-07-21T13:05:56Z</time>
      </trkpt>
      <trkpt lat="41.054267" lon="-3.741633">
        <ele>1991.0</ele>
        <time>2018-07-21T13:05:57Z</time>
      </trkpt>
      <trkpt lat="41.054350" lon="-3.741583">
        <ele>1989.0</ele>
        <time>2018-07-21T13:05:58Z</time>
      </trkpt>
      <trkpt lat="41.054433" lon="-3.741533">
        <ele>1988.0</ele>
        <time>2018-07-21T13:05:59Z</time>
      </trkpt>
      <trkpt lat="41.054517" lon="-3.741483">
        <ele>1987.0</ele>
        <time>2018-07-21T13:06:00Z</time>
      </trkpt>
      <trkpt lat="41.054600" lon="-3.741417">
        <ele>1987.0</ele>
        <time>2018-07-21T13:06:01Z</time>
      </trkpt>
      <trkpt lat="41.054683" lon="-3.741367">
        <ele>1986.0</ele>
        <time>2018-07-21T13:06:02Z</time>
      </trkpt>
      <trkpt lat="41.054767" lon="-3.741300">
        <ele>1986.0</ele>
        <time>2018-07-21T13:06:03Z</time>
      </trkpt>
      <trkpt lat="41.054833" lon="-3.741250">
        <ele>1985.0</ele>
        <time>2018-07-21T13:06:04Z</time>
      </trkpt>
      <trkpt lat="41.054917" lon="-3.741200">
        <ele>1984.0</ele>
        <time>2018-07-21T13:06:05Z</time>
      </trkpt>
      <trkpt lat="41.055000" lon="-3.741133">
        <ele>1983.0</ele>
        <time>2018-07-21T13:06:06Z</time>
      </trkpt>
      <trkpt lat="41.055067" lon="-3.741067">
        <ele>1982.0</ele>
        <time>2018-07-21T13:06:07Z</time>
      </trkpt>
      <trkpt lat="41.055133" lon="-3.740983">
        <ele>1981.0</ele>
        <time>2018-07-21T13:06:08Z</time>
      </trkpt>
      <trkpt lat="41.055217" lon="-3.740917">
        <ele>1981.0</ele>
        <time>2018-07-21T13:06:09Z</time>
      </trkpt>
      <trkpt lat="41.055283" lon="-3.740833">
        <ele>1979.0</ele>
        <time>2018-07-21T13:06:10Z</time>
      </trkpt>
      <trkpt lat="41.055367" lon="-3.740750">
        <ele>1977.0</ele>
        <time>2018-07-21T13:06:11Z</time>
      </trkpt>
      <trkpt lat="41.055450" lon="-3.740667">
        <ele>1976.0</ele>
        <time>2018-07-21T13:06:12Z</time>
      </trkpt>
      <trkpt lat="41.055533" lon="-3.740583">
        <ele>1975.0</ele>
        <time>2018-07-21T13:06:13Z</time>
      </trkpt>
      <trkpt lat="41.055617" lon="-3.740533">
        <ele>1975.0</ele>
        <time>2018-07-21T13:06:14Z</time>
      </trkpt>
      <trkpt lat="41.055700" lon="-3.740467">
        <ele>1974.0</ele>
        <time>2018-07-21T13:06:15Z</time>
      </trkpt>
      <trkpt lat="41.055783" lon="-3.740400">
        <ele>1973.0</ele>
        <time>2018-07-21T13:06:16Z</time>
      </trkpt>
      <trkpt lat="41.055867" lon="-3.740317">
        <ele>1972.0</ele>
        <time>2018-07-21T13:06:17Z</time>
      </trkpt>
      <trkpt lat="41.055950" lon="-3.740233">
        <ele>1970.0</ele>
        <time>2018-07-21T13:06:18Z</time>
      </trkpt>
      <trkpt lat="41.056050" lon="-3.740150">
        <ele>1968.0</ele>
        <time>2018-07-21T13:06:19Z</time>
      </trkpt>
      <trkpt lat="41.056133" lon="-3.740083">
        <ele>1967.0</ele>
        <time>2018-07-21T13:06:20Z</time>
      </trkpt>
      <trkpt lat="41.056233" lon="-3.740017">
        <ele>1967.0</ele>
        <time>2018-07-21T13:06:21Z</time>
      </trkpt>
      <trkpt lat="41.056300" lon="-3.739950">
        <ele>1967.0</ele>
        <time>2018-07-21T13:06:22Z</time>
      </trkpt>
      <trkpt lat="41.056383" lon="-3.739867">
        <ele>1966.0</ele>
        <time>2018-07-21T13:06:23Z</time>
      </trkpt>
      <trkpt lat="41.056450" lon="-3.739783">
        <ele>1965.0</ele>
        <time>2018-07-21T13:06:24Z</time>
      </trkpt>
      <trkpt lat="41.056533" lon="-3.739717">
        <ele>1963.0</ele>
        <time>2018-07-21T13:06:25Z</time>
      </trkpt>
      <trkpt lat="41.056617" lon="-3.739633">
        <ele>1961.0</ele>
        <time>2018-07-21T13:06:26Z</time>
      </trkpt>
      <trkpt lat="41.056700" lon="-3.739567">
        <ele>1959.0</ele>
        <time>2018-07-21T13:06:27Z</time>
      </trkpt>
      <trkpt lat="41.056783" lon="-3.739483">
        <ele>1957.0</ele>
        <time>2018-07-21T13:06:28Z</time>
      </trkpt>
      <trkpt lat="41.056867" lon="-3.739417">
        <ele>1955.0</ele>
        <time>2018-07-21T13:06:29Z</time>
      </trkpt>
      <trkpt lat="41.056950" lon="-3.739350">
        <ele>1954.0</ele>
        <time>2018-07-21T13:06:30Z</time>
      </trkpt>
      <trkpt lat="41.057033" lon="-3.739283">
        <ele>1953.0</ele>
        <time>2018-07-21T13:06:31Z</time>
      </trkpt>
      <trkpt lat="41.057117" lon="-3.739217">
        <ele>1951.0</ele>
        <time>2018-07-21T13:06:32Z</time>
      </trkpt>
      <trkpt lat="41.057217" lon="-3.739167">
        <ele>1950.0</ele>
        <time>2018-07-21T13:06:33Z</time>
      </trkpt>
      <trkpt lat="41.057300" lon="-3.739100">
        <ele>1948.0</ele>
        <time>2018-07-21T13:06:34Z</time>
      </trkpt>
      <trkpt lat="41.057383" lon="-3.739017">
        <ele>1946.0</ele>
        <time>2018-07-21T13:06:35Z</time>
      </trkpt>
      <trkpt lat="41.057483" lon="-3.738950">
        <ele>1945.0</ele>
        <time>2018-07-21T13:06:36Z</time>
      </trkpt>
      <trkpt lat="41.057567" lon="-3.738850">
        <ele>1943.0</ele>
        <time>2018-07-21T13:06:37Z</time>
      </trkpt>
      <trkpt lat="41.057650" lon="-3.738767">
        <ele>1942.0</ele>
        <time>2018-07-21T13:06:38Z</time>
      </trkpt>
      <trkpt lat="41.057733" lon="-3.738683">
        <ele>1942.0</ele>
        <time>2018-07-21T13:06:39Z</time>
      </trkpt>
      <trkpt lat="41.057817" lon="-3.738583">
        <ele>1941.0</ele>
        <time>2018-07-21T13:06:40Z</time>
      </trkpt>
      <trkpt lat="41.057900" lon="-3.738500">
        <ele>1940.0</ele>
        <time>2018-07-21T13:06:41Z</time>
      </trkpt>
      <trkpt lat="41.058000" lon="-3.738417">
        <ele>1939.0</ele>
        <time>2018-07-21T13:06:42Z</time>
      </trkpt>
      <trkpt lat="41.058083" lon="-3.738333">
        <ele>1938.0</ele>
        <time>2018-07-21T13:06:43Z</time>
      </trkpt>
      <trkpt lat="41.058167" lon="-3.738250">
        <ele>1939.0</ele>
        <time>2018-07-21T13:06:44Z</time>
      </trkpt>
      <trkpt lat="41.058250" lon="-3.738183">
        <ele>1939.0</ele>
        <time>2018-07-21T13:06:45Z</time>
      </trkpt>
      <trkpt lat="41.058317" lon="-3.738117">
        <ele>1940.0</ele>
        <time>2018-07-21T13:06:46Z</time>
      </trkpt>
      <trkpt lat="41.058383" lon="-3.738033">
        <ele>1940.0</ele>
        <time>2018-07-21T13:06:47Z</time>
      </trkpt>
      <trkpt lat="41.058450" lon="-3.737950">
        <ele>1939.0</ele>
        <time>2018-07-21T13:06:48Z</time>
      </trkpt>
      <trkpt lat="41.058517" lon="-3.737867">
        <ele>1937.0</ele>
        <time>2018-07-21T13:06:49Z</time>
      </trkpt>
      <trkpt lat="41.058583" lon="-3.737767">
        <ele>1934.0</ele>
        <time>2018-07-21T13:06:50Z</time>
      </trkpt>
      <trkpt lat="41.058667" lon="-3.737683">
        <ele>1933.0</ele>
        <time>2018-07-21T13:06:51Z</time>
      </trkpt>
      <trkpt lat="41.058750" lon="-3.737600">
        <ele>1933.0</ele>
        <time>2018-07-21T13:06:52Z</time>
      </trkpt>
      <trkpt lat="41.058817" lon="-3.737517">
        <ele>1933.0</ele>
        <time>2018-07-21T13:06:53Z</time>
      </trkpt>
      <trkpt lat="41.058883" lon="-3.737417">
        <ele>1933.0</ele>
        <time>2018-07-21T13:06:54Z</time>
      </trkpt>
      <trkpt lat="41.058933" lon="-3.737317">
        <ele>1933.0</ele>
        <time>2018-07-21T13:06:55Z</time>
      </trkpt>
      <trkpt lat="41.059000" lon="-3.737217">
        <ele>1933.0</ele>
        <time>2018-07-21T13:06:56Z</time>
      </trkpt>
      <trkpt lat="41.059083" lon="-3.737133">
        <ele>1932.0</ele>
        <time>2018-07-21T13:06:57Z</time>
      </trkpt>
      <trkpt lat="41.059150" lon="-3.737033">
        <ele>1932.0</ele>
        <time>2018-07-21T13:06:58Z</time>
      </trkpt>
      <trkpt lat="41.059233" lon="-3.736950">
        <ele>1933.0</ele>
        <time>2018-07-21T13:06:59Z</time>
      </trkpt>
      <trkpt lat="41.059300" lon="-3.736867">
        <ele>1933.0</ele>
        <time>2018-07-21T13:07:00Z</time>
      </trkpt>
      <trkpt lat="41.059367" lon="-3.736767">
        <ele>1934.0</ele>
        <time>2018-07-21T13:07:01Z</time>
      </trkpt>
      <trkpt lat="41.059433" lon="-3.736683">
        <ele>1933.0</ele>
        <time>2018-07-21T13:07:02Z</time>
      </trkpt>
      <trkpt lat="41.059517" lon="-3.736567">
        <ele>1933.0</ele>
        <time>2018-07-21T13:07:03Z</time>
      </trkpt>
      <trkpt lat="41.059583" lon="-3.736467">
        <ele>1933.0</ele>
        <time>2018-07-21T13:07:04Z</time>
      </trkpt>
      <trkpt lat="41.059667" lon="-3.736383">
        <ele>1933.0</ele>
        <time>2018-07-21T13:07:05Z</time>
      </trkpt>
      <trkpt lat="41.059733" lon="-3.736283">
        <ele>1933.0</ele>
        <time>2018-07-21T13:07:06Z</time>
      </trkpt>
      <trkpt lat="41.059800" lon="-3.736183">
        <ele>1933.0</ele>
        <time>2018-07-21T13:07:07Z</time>
      </trkpt>
      <trkpt lat="41.059883" lon="-3.736067">
        <ele>1932.0</ele>
        <time>2018-07-21T13:07:08Z</time>
      </trkpt>
      <trkpt lat="41.059950" lon="-3.735950">
        <ele>1932.0</ele>
        <time>2018-07-21T13:07:09Z</time>
      </trkpt>
      <trkpt lat="41.060017" lon="-3.735817">
        <ele>1932.0</ele>
        <time>2018-07-21T13:07:10Z</time>
      </trkpt>
      <trkpt lat="41.060083" lon="-3.735700">
        <ele>1932.0</ele>
        <time>2018-07-21T13:07:11Z</time>
      </trkpt>
      <trkpt lat="41.060150" lon="-3.735583">
        <ele>1932.0</ele>
        <time>2018-07-21T13:07:12Z</time>
      </trkpt>
      <trkpt lat="41.060233" lon="-3.735483">
        <ele>1932.0</ele>
        <time>2018-07-21T13:07:13Z</time>
      </trkpt>
      <trkpt lat="41.060300" lon="-3.735383">
        <ele>1932.0</ele>
        <time>2018-07-21T13:07:14Z</time>
      </trkpt>
      <trkpt lat="41.060367" lon="-3.735300">
        <ele>1931.0</ele>
        <time>2018-07-21T13:07:15Z</time>
      </trkpt>
      <trkpt lat="41.060450" lon="-3.735200">
        <ele>1931.0</ele>
        <time>2018-07-21T13:07:16Z</time>
      </trkpt>
      <trkpt lat="41.060517" lon="-3.735100">
        <ele>1930.0</ele>
        <time>2018-07-21T13:07:17Z</time>
      </trkpt>
      <trkpt lat="41.060600" lon="-3.735000">
        <ele>1929.0</ele>
        <time>2018-07-21T13:07:18Z</time>
      </trkpt>
      <trkpt lat="41.060667" lon="-3.734883">
        <ele>1928.0</ele>
        <time>2018-07-21T13:07:19Z</time>
      </trkpt>
      <trkpt lat="41.060733" lon="-3.734783">
        <ele>1927.0</ele>
        <time>2018-07-21T13:07:20Z</time>
      </trkpt>
      <trkpt lat="41.060817" lon="-3.734700">
        <ele>1926.0</ele>
        <time>2018-07-21T13:07:21Z</time>
      </trkpt>
      <trkpt lat="41.060883" lon="-3.734617">
        <ele>1924.0</ele>
        <time>2018-07-21T13:07:22Z</time>
      </trkpt>
      <trkpt lat="41.060967" lon="-3.734533">
        <ele>1923.0</ele>
        <time>2018-07-21T13:07:23Z</time>
      </trkpt>
      <trkpt lat="41.061050" lon="-3.734433">
        <ele>1922.0</ele>
        <time>2018-07-21T13:07:24Z</time>
      </trkpt>
      <trkpt lat="41.061117" lon="-3.734333">
        <ele>1920.0</ele>
        <time>2018-07-21T13:07:25Z</time>
      </trkpt>
      <trkpt lat="41.061200" lon="-3.734217">
        <ele>1919.0</ele>
        <time>2018-07-21T13:07:26Z</time>
      </trkpt>
      <trkpt lat="41.061267" lon="-3.734117">
        <ele>1919.0</ele>
        <time>2018-07-21T13:07:27Z</time>
      </trkpt>
      <trkpt lat="41.061350" lon="-3.734017">
        <ele>1917.0</ele>
        <time>2018-07-21T13:07:28Z</time>
      </trkpt>
      <trkpt lat="41.061433" lon="-3.733933">
        <ele>1915.0</ele>
        <time>2018-07-21T13:07:29Z</time>
      </trkpt>
      <trkpt lat="41.061500" lon="-3.733833">
        <ele>1913.0</ele>
        <time>2018-07-21T13:07:30Z</time>
      </trkpt>
      <trkpt lat="41.061583" lon="-3.733750">
        <ele>1912.0</ele>
        <time>2018-07-21T13:07:31Z</time>
      </trkpt>
      <trkpt lat="41.061683" lon="-3.733667">
        <ele>1912.0</ele>
        <time>2018-07-21T13:07:32Z</time>
      </trkpt>
      <trkpt lat="41.061767" lon="-3.733583">
        <ele>1912.0</ele>
        <time>2018-07-21T13:07:33Z</time>
      </trkpt>
      <trkpt lat="41.061850" lon="-3.733517">
        <ele>1912.0</ele>
        <time>2018-07-21T13:07:34Z</time>
      </trkpt>
      <trkpt lat="41.061933" lon="-3.733450">
        <ele>1913.0</ele>
        <time>2018-07-21T13:07:35Z</time>
      </trkpt>
      <trkpt lat="41.062000" lon="-3.733383">
        <ele>1913.0</ele>
        <time>2018-07-21T13:07:36Z</time>
      </trkpt>
      <trkpt lat="41.062083" lon="-3.733317">
        <ele>1913.0</ele>
        <time>2018-07-21T13:07:37Z</time>
      </trkpt>
      <trkpt lat="41.062150" lon="-3.733233">
        <ele>1913.0</ele>
        <time>2018-07-21T13:07:38Z</time>
      </trkpt>
      <trkpt lat="41.062217" lon="-3.733150">
        <ele>1913.0</ele>
        <time>2018-07-21T13:07:39Z</time>
      </trkpt>
      <trkpt lat="41.062283" lon="-3.733050">
        <ele>1913.0</ele>
        <time>2018-07-21T13:07:40Z</time>
      </trkpt>
      <trkpt lat="41.062367" lon="-3.732967">
        <ele>1912.0</ele>
        <time>2018-07-21T13:07:41Z</time>
      </trkpt>
      <trkpt lat="41.062433" lon="-3.732883">
        <ele>1912.0</ele>
        <time>2018-07-21T13:07:42Z</time>
      </trkpt>
      <trkpt lat="41.062500" lon="-3.732800">
        <ele>1911.0</ele>
        <time>2018-07-21T13:07:43Z</time>
      </trkpt>
      <trkpt lat="41.062550" lon="-3.732700">
        <ele>1911.0</ele>
        <time>2018-07-21T13:07:44Z</time>
      </trkpt>
      <trkpt lat="41.062617" lon="-3.732583">
        <ele>1911.0</ele>
        <time>2018-07-21T13:07:45Z</time>
      </trkpt>
      <trkpt lat="41.062683" lon="-3.732483">
        <ele>1911.0</ele>
        <time>2018-07-21T13:07:46Z</time>
      </trkpt>
      <trkpt lat="41.062750" lon="-3.732400">
        <ele>1913.0</ele>
        <time>2018-07-21T13:07:47Z</time>
      </trkpt>
      <trkpt lat="41.062800" lon="-3.732300">
        <ele>1913.0</ele>
        <time>2018-07-21T13:07:48Z</time>
      </trkpt>
      <trkpt lat="41.062867" lon="-3.732217">
        <ele>1913.0</ele>
        <time>2018-07-21T13:07:49Z</time>
      </trkpt>
      <trkpt lat="41.062950" lon="-3.732133">
        <ele>1912.0</ele>
        <time>2018-07-21T13:07:50Z</time>
      </trkpt>
      <trkpt lat="41.063017" lon="-3.732067">
        <ele>1912.0</ele>
        <time>2018-07-21T13:07:51Z</time>
      </trkpt>
      <trkpt lat="41.063100" lon="-3.732000">
        <ele>1913.0</ele>
        <time>2018-07-21T13:07:52Z</time>
      </trkpt>
      <trkpt lat="41.063183" lon="-3.731933">
        <ele>1915.0</ele>
        <time>2018-07-21T13:07:53Z</time>
      </trkpt>
      <trkpt lat="41.063250" lon="-3.731867">
        <ele>1917.0</ele>
        <time>2018-07-21T13:07:54Z</time>
      </trkpt>
      <trkpt lat="41.063300" lon="-3.731783">
        <ele>1919.0</ele>
        <time>2018-07-21T13:07:55Z</time>
      </trkpt>
      <trkpt lat="41.063367" lon="-3.731717">
        <ele>1919.0</ele>
        <time>2018-07-21T13:07:56Z</time>
      </trkpt>
      <trkpt lat="41.063433" lon="-3.731633">
        <ele>1919.0</ele>
        <time>2018-07-21T13:07:57Z</time>
      </trkpt>
      <trkpt lat="41.063500" lon="-3.731567">
        <ele>1918.0</ele>
        <time>2018-07-21T13:07:58Z</time>
      </trkpt>
      <trkpt lat="41.063567" lon="-3.731467">
        <ele>1916.0</ele>
        <time>2018-07-21T13:07:59Z</time>
      </trkpt>
      <trkpt lat="41.063633" lon="-3.731367">
        <ele>1914.0</ele>
        <time>2018-07-21T13:08:00Z</time>
      </trkpt>
      <trkpt lat="41.063700" lon="-3.731267">
        <ele>1912.0</ele>
        <time>2018-07-21T13:08:01Z</time>
      </trkpt>
      <trkpt lat="41.063767" lon="-3.731167">
        <ele>1911.0</ele>
        <time>2018-07-21T13:08:02Z</time>
      </trkpt>
      <trkpt lat="41.063833" lon="-3.731067">
        <ele>1910.0</ele>
        <time>2018-07-21T13:08:03Z</time>
      </trkpt>
      <trkpt lat="41.063900" lon="-3.730967">
        <ele>1910.0</ele>
        <time>2018-07-21T13:08:04Z</time>
      </trkpt>
      <trkpt lat="41.063967" lon="-3.730850">
        <ele>1909.0</ele>
        <time>2018-07-21T13:08:05Z</time>
      </trkpt>
      <trkpt lat="41.064050" lon="-3.730733">
        <ele>1908.0</ele>
        <time>2018-07-21T13:08:06Z</time>
      </trkpt>
      <trkpt lat="41.064117" lon="-3.730617">
        <ele>1907.0</ele>
        <time>2018-07-21T13:08:07Z</time>
      </trkpt>
      <trkpt lat="41.064183" lon="-3.730500">
        <ele>1906.0</ele>
        <time>2018-07-21T13:08:08Z</time>
      </trkpt>
      <trkpt lat="41.064250" lon="-3.730400">
        <ele>1905.0</ele>
        <time>2018-07-21T13:08:09Z</time>
      </trkpt>
      <trkpt lat="41.064333" lon="-3.730283">
        <ele>1903.0</ele>
        <time>2018-07-21T13:08:10Z</time>
      </trkpt>
      <trkpt lat="41.064417" lon="-3.730183">
        <ele>1902.0</ele>
        <time>2018-07-21T13:08:11Z</time>
      </trkpt>
      <trkpt lat="41.064500" lon="-3.730067">
        <ele>1902.0</ele>
        <time>2018-07-21T13:08:12Z</time>
      </trkpt>
      <trkpt lat="41.064567" lon="-3.729950">
        <ele>1903.0</ele>
        <time>2018-07-21T13:08:13Z</time>
      </trkpt>
      <trkpt lat="41.064633" lon="-3.729867">
        <ele>1904.0</ele>
        <time>2018-07-21T13:08:14Z</time>
      </trkpt>
      <trkpt lat="41.064717" lon="-3.729783">
        <ele>1904.0</ele>
        <time>2018-07-21T13:08:15Z</time>
      </trkpt>
      <trkpt lat="41.064767" lon="-3.729733">
        <ele>1903.0</ele>
        <time>2018-07-21T13:08:16Z</time>
      </trkpt>
      <trkpt lat="41.064850" lon="-3.729667">
        <ele>1902.0</ele>
        <time>2018-07-21T13:08:17Z</time>
      </trkpt>
      <trkpt lat="41.064917" lon="-3.729583">
        <ele>1900.0</ele>
        <time>2018-07-21T13:08:18Z</time>
      </trkpt>
      <trkpt lat="41.065000" lon="-3.729500">
        <ele>1900.0</ele>
        <time>2018-07-21T13:08:19Z</time>
      </trkpt>
      <trkpt lat="41.065083" lon="-3.729433">
        <ele>1900.0</ele>
        <time>2018-07-21T13:08:20Z</time>
      </trkpt>
      <trkpt lat="41.065167" lon="-3.729350">
        <ele>1901.0</ele>
        <time>2018-07-21T13:08:21Z</time>
      </trkpt>
      <trkpt lat="41.065233" lon="-3.729250">
        <ele>1901.0</ele>
        <time>2018-07-21T13:08:22Z</time>
      </trkpt>
      <trkpt lat="41.065317" lon="-3.729150">
        <ele>1902.0</ele>
        <time>2018-07-21T13:08:23Z</time>
      </trkpt>
      <trkpt lat="41.065400" lon="-3.729067">
        <ele>1903.0</ele>
        <time>2018-07-21T13:08:24Z</time>
      </trkpt>
      <trkpt lat="41.065467" lon="-3.728967">
        <ele>1905.0</ele>
        <time>2018-07-21T13:08:25Z</time>
      </trkpt>
      <trkpt lat="41.065550" lon="-3.728883">
        <ele>1905.0</ele>
        <time>2018-07-21T13:08:26Z</time>
      </trkpt>
      <trkpt lat="41.065617" lon="-3.728800">
        <ele>1905.0</ele>
        <time>2018-07-21T13:08:27Z</time>
      </trkpt>
      <trkpt lat="41.065717" lon="-3.728700">
        <ele>1904.0</ele>
        <time>2018-07-21T13:08:28Z</time>
      </trkpt>
      <trkpt lat="41.065800" lon="-3.728567">
        <ele>1903.0</ele>
        <time>2018-07-21T13:08:29Z</time>
      </trkpt>
      <trkpt lat="41.065900" lon="-3.728400">
        <ele>1902.0</ele>
        <time>2018-07-21T13:08:30Z</time>
      </trkpt>
      <trkpt lat="41.065983" lon="-3.728233">
        <ele>1903.0</ele>
        <time>2018-07-21T13:08:31Z</time>
      </trkpt>
      <trkpt lat="41.066067" lon="-3.728083">
        <ele>1906.0</ele>
        <time>2018-07-21T13:08:32Z</time>
      </trkpt>
      <trkpt lat="41.066133" lon="-3.727950">
        <ele>1909.0</ele>
        <time>2018-07-21T13:08:33Z</time>
      </trkpt>
      <trkpt lat="41.066183" lon="-3.727817">
        <ele>1911.0</ele>
        <time>2018-07-21T13:08:34Z</time>
      </trkpt>
      <trkpt lat="41.066233" lon="-3.727683">
        <ele>1911.0</ele>
        <time>2018-07-21T13:08:35Z</time>
      </trkpt>
      <trkpt lat="41.066283" lon="-3.727550">
        <ele>1911.0</ele>
        <time>2018-07-21T13:08:36Z</time>
      </trkpt>
      <trkpt lat="41.066367" lon="-3.727417">
        <ele>1912.0</ele>
        <time>2018-07-21T13:08:37Z</time>
      </trkpt>
      <trkpt lat="41.066450" lon="-3.727333">
        <ele>1914.0</ele>
        <time>2018-07-21T13:08:38Z</time>
      </trkpt>
      <trkpt lat="41.066533" lon="-3.727283">
        <ele>1917.0</ele>
        <time>2018-07-21T13:08:39Z</time>
      </trkpt>
      <trkpt lat="41.066600" lon="-3.727267">
        <ele>1920.0</ele>
        <time>2018-07-21T13:08:40Z</time>
      </trkpt>
      <trkpt lat="41.066667" lon="-3.727267">
        <ele>1922.0</ele>
        <time>2018-07-21T13:08:41Z</time>
      </trkpt>
      <trkpt lat="41.066717" lon="-3.727283">
        <ele>1924.0</ele>
        <time>2018-07-21T13:08:42Z</time>
      </trkpt>
      <trkpt lat="41.066767" lon="-3.727333">
        <ele>1924.0</ele>
        <time>2018-07-21T13:08:43Z</time>
      </trkpt>
      <trkpt lat="41.066783" lon="-3.727400">
        <ele>1923.0</ele>
        <time>2018-07-21T13:08:44Z</time>
      </trkpt>
      <trkpt lat="41.066767" lon="-3.727483">
        <ele>1923.0</ele>
        <time>2018-07-21T13:08:45Z</time>
      </trkpt>
      <trkpt lat="41.066700" lon="-3.727567">
        <ele>1922.0</ele>
        <time>2018-07-21T13:08:46Z</time>
      </trkpt>
      <trkpt lat="41.066633" lon="-3.727583">
        <ele>1922.0</ele>
        <time>2018-07-21T13:08:47Z</time>
      </trkpt>
      <trkpt lat="41.066533" lon="-3.727550">
        <ele>1922.0</ele>
        <time>2018-07-21T13:08:48Z</time>
      </trkpt>
      <trkpt lat="41.066450" lon="-3.727483">
        <ele>1921.0</ele>
        <time>2018-07-21T13:08:49Z</time>
      </trkpt>
      <trkpt lat="41.066367" lon="-3.727367">
        <ele>1918.0</ele>
        <time>2018-07-21T13:08:50Z</time>
      </trkpt>
      <trkpt lat="41.066300" lon="-3.727183">
        <ele>1915.0</ele>
        <time>2018-07-21T13:08:51Z</time>
      </trkpt>
      <trkpt lat="41.066267" lon="-3.726967">
        <ele>1912.0</ele>
        <time>2018-07-21T13:08:52Z</time>
      </trkpt>
      <trkpt lat="41.066267" lon="-3.726750">
        <ele>1912.0</ele>
        <time>2018-07-21T13:08:53Z</time>
      </trkpt>
      <trkpt lat="41.066250" lon="-3.726550">
        <ele>1916.0</ele>
        <time>2018-07-21T13:08:54Z</time>
      </trkpt>
      <trkpt lat="41.066250" lon="-3.726383">
        <ele>1922.0</ele>
        <time>2018-07-21T13:08:55Z</time>
      </trkpt>
      <trkpt lat="41.066233" lon="-3.726267">
        <ele>1926.0</ele>
        <time>2018-07-21T13:08:56Z</time>
      </trkpt>
      <trkpt lat="41.066217" lon="-3.726150">
        <ele>1928.0</ele>
        <time>2018-07-21T13:08:57Z</time>
      </trkpt>
      <trkpt lat="41.066200" lon="-3.726033">
        <ele>1928.0</ele>
        <time>2018-07-21T13:08:58Z</time>
      </trkpt>
      <trkpt lat="41.066233" lon="-3.725883">
        <ele>1927.0</ele>
        <time>2018-07-21T13:08:59Z</time>
      </trkpt>
      <trkpt lat="41.066283" lon="-3.725750">
        <ele>1926.0</ele>
        <time>2018-07-21T13:09:00Z</time>
      </trkpt>
      <trkpt lat="41.066333" lon="-3.725600">
        <ele>1926.0</ele>
        <time>2018-07-21T13:09:01Z</time>
      </trkpt>
      <trkpt lat="41.066400" lon="-3.725450">
        <ele>1928.0</ele>
        <time>2018-07-21T13:09:02Z</time>
      </trkpt>
      <trkpt lat="41.066450" lon="-3.725317">
        <ele>1930.0</ele>
        <time>2018-07-21T13:09:03Z</time>
      </trkpt>
      <trkpt lat="41.066517" lon="-3.725200">
        <ele>1932.0</ele>
        <time>2018-07-21T13:09:04Z</time>
      </trkpt>
      <trkpt lat="41.066567" lon="-3.725100">
        <ele>1934.0</ele>
        <time>2018-07-21T13:09:05Z</time>
      </trkpt>
      <trkpt lat="41.066633" lon="-3.725000">
        <ele>1934.0</ele>
        <time>2018-07-21T13:09:06Z</time>
      </trkpt>
      <trkpt lat="41.066717" lon="-3.724883">
        <ele>1935.0</ele>
        <time>2018-07-21T13:09:07Z</time>
      </trkpt>
      <trkpt lat="41.066783" lon="-3.724783">
        <ele>1935.0</ele>
        <time>2018-07-21T13:09:08Z</time>
      </trkpt>
      <trkpt lat="41.066850" lon="-3.724683">
        <ele>1935.0</ele>
        <time>2018-07-21T13:09:09Z</time>
      </trkpt>
      <trkpt lat="41.066933" lon="-3.724600">
        <ele>1935.0</ele>
        <time>2018-07-21T13:09:10Z</time>
      </trkpt>
      <trkpt lat="41.067017" lon="-3.724533">
        <ele>1935.0</ele>
        <time>2018-07-21T13:09:11Z</time>
      </trkpt>
      <trkpt lat="41.067100" lon="-3.724467">
        <ele>1937.0</ele>
        <time>2018-07-21T13:09:12Z</time>
      </trkpt>
      <trkpt lat="41.067167" lon="-3.724400">
        <ele>1938.0</ele>
        <time>2018-07-21T13:09:13Z</time>
      </trkpt>
      <trkpt lat="41.067233" lon="-3.724333">
        <ele>1940.0</ele>
        <time>2018-07-21T13:09:14Z</time>
      </trkpt>
      <trkpt lat="41.067300" lon="-3.724283">
        <ele>1941.0</ele>
        <time>2018-07-21T13:09:15Z</time>
      </trkpt>
      <trkpt lat="41.067383" lon="-3.724233">
        <ele>1941.0</ele>
        <time>2018-07-21T13:09:16Z</time>
      </trkpt>
      <trkpt lat="41.067450" lon="-3.724183">
        <ele>1942.0</ele>
        <time>2018-07-21T13:09:17Z</time>
      </trkpt>
      <trkpt lat="41.067533" lon="-3.724100">
        <ele>1943.0</ele>
        <time>2018-07-21T13:09:18Z</time>
      </trkpt>
      <trkpt lat="41.067617" lon="-3.724017">
        <ele>1944.0</ele>
        <time>2018-07-21T13:09:19Z</time>
      </trkpt>
      <trkpt lat="41.067700" lon="-3.723917">
        <ele>1946.0</ele>
        <time>2018-07-21T13:09:20Z</time>
      </trkpt>
      <trkpt lat="41.067783" lon="-3.723850">
        <ele>1949.0</ele>
        <time>2018-07-21T13:09:21Z</time>
      </trkpt>
      <trkpt lat="41.067867" lon="-3.723800">
        <ele>1951.0</ele>
        <time>2018-07-21T13:09:22Z</time>
      </trkpt>
      <trkpt lat="41.067950" lon="-3.723783">
        <ele>1952.0</ele>
        <time>2018-07-21T13:09:23Z</time>
      </trkpt>
      <trkpt lat="41.068000" lon="-3.723767">
        <ele>1952.0</ele>
        <time>2018-07-21T13:09:24Z</time>
      </trkpt>
      <trkpt lat="41.068067" lon="-3.723767">
        <ele>1952.0</ele>
        <time>2018-07-21T13:09:25Z</time>
      </trkpt>
      <trkpt lat="41.068117" lon="-3.723800">
        <ele>1950.0</ele>
        <time>2018-07-21T13:09:26Z</time>
      </trkpt>
      <trkpt lat="41.068133" lon="-3.723867">
        <ele>1948.0</ele>
        <time>2018-07-21T13:09:27Z</time>
      </trkpt>
      <trkpt lat="41.068150" lon="-3.723950">
        <ele>1946.0</ele>
        <time>2018-07-21T13:09:28Z</time>
      </trkpt>
      <trkpt lat="41.068167" lon="-3.724033">
        <ele>1946.0</ele>
        <time>2018-07-21T13:09:29Z</time>
      </trkpt>
      <trkpt lat="41.068183" lon="-3.724100">
        <ele>1947.0</ele>
        <time>2018-07-21T13:09:30Z</time>
      </trkpt>
      <trkpt lat="41.068200" lon="-3.724150">
        <ele>1947.0</ele>
        <time>2018-07-21T13:09:31Z</time>
      </trkpt>
      <trkpt lat="41.068250" lon="-3.724200">
        <ele>1947.0</ele>
        <time>2018-07-21T13:09:32Z</time>
      </trkpt>
      <trkpt lat="41.068300" lon="-3.724250">
        <ele>1945.0</ele>
        <time>2018-07-21T13:09:33Z</time>
      </trkpt>
      <trkpt lat="41.068350" lon="-3.724317">
        <ele>1945.0</ele>
        <time>2018-07-21T13:09:34Z</time>
      </trkpt>
      <trkpt lat="41.068383" lon="-3.724367">
        <ele>1945.0</ele>
        <time>2018-07-21T13:09:35Z</time>
      </trkpt>
      <trkpt lat="41.068417" lon="-3.724433">
        <ele>1945.0</ele>
        <time>2018-07-21T13:09:36Z</time>
      </trkpt>
      <trkpt lat="41.068433" lon="-3.724500">
        <ele>1945.0</ele>
        <time>2018-07-21T13:09:37Z</time>
      </trkpt>
      <trkpt lat="41.068450" lon="-3.724583">
        <ele>1946.0</ele>
        <time>2018-07-21T13:09:38Z</time>
      </trkpt>
      <trkpt lat="41.068467" lon="-3.724650">
        <ele>1947.0</ele>
        <time>2018-07-21T13:09:39Z</time>
      </trkpt>
      <trkpt lat="41.068500" lon="-3.724700">
        <ele>1947.0</ele>
        <time>2018-07-21T13:09:40Z</time>
      </trkpt>
      <trkpt lat="41.068550" lon="-3.724767">
        <ele>1948.0</ele>
        <time>2018-07-21T13:09:41Z</time>
      </trkpt>
      <trkpt lat="41.068600" lon="-3.724833">
        <ele>1949.0</ele>
        <time>2018-07-21T13:09:42Z</time>
      </trkpt>
      <trkpt lat="41.068633" lon="-3.724883">
        <ele>1951.0</ele>
        <time>2018-07-21T13:09:43Z</time>
      </trkpt>
      <trkpt lat="41.068667" lon="-3.724950">
        <ele>1954.0</ele>
        <time>2018-07-21T13:09:44Z</time>
      </trkpt>
      <trkpt lat="41.068700" lon="-3.725000">
        <ele>1957.0</ele>
        <time>2018-07-21T13:09:45Z</time>
      </trkpt>
      <trkpt lat="41.068733" lon="-3.725033">
        <ele>1959.0</ele>
        <time>2018-07-21T13:09:46Z</time>
      </trkpt>
      <trkpt lat="41.068767" lon="-3.725083">
        <ele>1959.0</ele>
        <time>2018-07-21T13:09:47Z</time>
      </trkpt>
      <trkpt lat="41.068783" lon="-3.725150">
        <ele>1960.0</ele>
        <time>2018-07-21T13:09:48Z</time>
      </trkpt>
      <trkpt lat="41.068767" lon="-3.725233">
        <ele>1960.0</ele>
        <time>2018-07-21T13:09:49Z</time>
      </trkpt>
      <trkpt lat="41.068683" lon="-3.725300">
        <ele>1960.0</ele>
        <time>2018-07-21T13:09:50Z</time>
      </trkpt>
      <trkpt lat="41.068583" lon="-3.725317">
        <ele>1961.0</ele>
        <time>2018-07-21T13:09:51Z</time>
      </trkpt>
      <trkpt lat="41.068450" lon="-3.725300">
        <ele>1963.0</ele>
        <time>2018-07-21T13:09:52Z</time>
      </trkpt>
      <trkpt lat="41.068350" lon="-3.725217">
        <ele>1966.0</ele>
        <time>2018-07-21T13:09:53Z</time>
      </trkpt>
      <trkpt lat="41.068267" lon="-3.725083">
        <ele>1969.0</ele>
        <time>2018-07-21T13:09:54Z</time>
      </trkpt>
      <trkpt lat="41.068217" lon="-3.724933">
        <ele>1969.0</ele>
        <time>2018-07-21T13:09:55Z</time>
      </trkpt>
      <trkpt lat="41.068183" lon="-3.724750">
        <ele>1969.0</ele>
        <time>2018-07-21T13:09:56Z</time>
      </trkpt>
      <trkpt lat="41.068183" lon="-3.724567">
        <ele>1968.0</ele>
        <time>2018-07-21T13:09:57Z</time>
      </trkpt>
      <trkpt lat="41.068233" lon="-3.724383">
        <ele>1968.0</ele>
        <time>2018-07-21T13:09:58Z</time>
      </trkpt>
      <trkpt lat="41.068300" lon="-3.724233">
        <ele>1968.0</ele>
        <time>2018-07-21T13:09:59Z</time>
      </trkpt>
      <trkpt lat="41.068400" lon="-3.724150">
        <ele>1969.0</ele>
        <time>2018-07-21T13:10:00Z</time>
      </trkpt>
      <trkpt lat="41.068483" lon="-3.724100">
        <ele>1971.0</ele>
        <time>2018-07-21T13:10:01Z</time>
      </trkpt>
      <trkpt lat="41.068550" lon="-3.724083">
        <ele>1973.0</ele>
        <time>2018-07-21T13:10:02Z</time>
      </trkpt>
      <trkpt lat="41.068600" lon="-3.724100">
        <ele>1975.0</ele>
        <time>2018-07-21T13:10:03Z</time>
      </trkpt>
      <trkpt lat="41.068633" lon="-3.724117">
        <ele>1975.0</ele>
        <time>2018-07-21T13:10:04Z</time>
      </trkpt>
      <trkpt lat="41.068667" lon="-3.724183">
        <ele>1975.0</ele>
        <time>2018-07-21T13:10:05Z</time>
      </trkpt>
      <trkpt lat="41.068683" lon="-3.724250">
        <ele>1975.0</ele>
        <time>2018-07-21T13:10:06Z</time>
      </trkpt>
      <trkpt lat="41.068717" lon="-3.724333">
        <ele>1975.0</ele>
        <time>2018-07-21T13:10:07Z</time>
      </trkpt>
      <trkpt lat="41.068733" lon="-3.724417">
        <ele>1977.0</ele>
        <time>2018-07-21T13:10:08Z</time>
      </trkpt>
      <trkpt lat="41.068733" lon="-3.724500">
        <ele>1979.0</ele>
        <time>2018-07-21T13:10:09Z</time>
      </trkpt>
      <trkpt lat="41.068750" lon="-3.724567">
        <ele>1982.0</ele>
        <time>2018-07-21T13:10:10Z</time>
      </trkpt>
      <trkpt lat="41.068750" lon="-3.724650">
        <ele>1985.0</ele>
        <time>2018-07-21T13:10:11Z</time>
      </trkpt>
      <trkpt lat="41.068750" lon="-3.724700">
        <ele>1987.0</ele>
        <time>2018-07-21T13:10:12Z</time>
      </trkpt>
      <trkpt lat="41.068750" lon="-3.724750">
        <ele>1988.0</ele>
        <time>2018-07-21T13:10:13Z</time>
      </trkpt>
      <trkpt lat="41.068750" lon="-3.724833">
        <ele>1989.0</ele>
        <time>2018-07-21T13:10:14Z</time>
      </trkpt>
      <trkpt lat="41.068683" lon="-3.724900">
        <ele>1989.0</ele>
        <time>2018-07-21T13:10:15Z</time>
      </trkpt>
      <trkpt lat="41.068583" lon="-3.724950">
        <ele>1990.0</ele>
        <time>2018-07-21T13:10:16Z</time>
      </trkpt>
      <trkpt lat="41.068467" lon="-3.724933">
        <ele>1992.0</ele>
        <time>2018-07-21T13:10:17Z</time>
      </trkpt>
      <trkpt lat="41.068350" lon="-3.724867">
        <ele>1995.0</ele>
        <time>2018-07-21T13:10:18Z</time>
      </trkpt>
      <trkpt lat="41.068267" lon="-3.724750">
        <ele>1998.0</ele>
        <time>2018-07-21T13:10:19Z</time>
      </trkpt>
      <trkpt lat="41.068200" lon="-3.724617">
        <ele>2000.0</ele>
        <time>2018-07-21T13:10:20Z</time>
      </trkpt>
      <trkpt lat="41.068167" lon="-3.724450">
        <ele>2000.0</ele>
        <time>2018-07-21T13:10:21Z</time>
      </trkpt>
      <trkpt lat="41.068183" lon="-3.724267">
        <ele>1999.0</ele>
        <time>2018-07-21T13:10:22Z</time>
      </trkpt>
      <trkpt lat="41.068217" lon="-3.724100">
        <ele>1997.0</ele>
        <time>2018-07-21T13:10:23Z</time>
      </trkpt>
      <trkpt lat="41.068283" lon="-3.723967">
        <ele>1997.0</ele>
        <time>2018-07-21T13:10:24Z</time>
      </trkpt>
      <trkpt lat="41.068383" lon="-3.723867">
        <ele>1998.0</ele>
        <time>2018-07-21T13:10:25Z</time>
      </trkpt>
      <trkpt lat="41.068467" lon="-3.723817">
        <ele>2000.0</ele>
        <time>2018-07-21T13:10:26Z</time>
      </trkpt>
      <trkpt lat="41.068550" lon="-3.723817">
        <ele>2003.0</ele>
        <time>2018-07-21T13:10:27Z</time>
      </trkpt>
      <trkpt lat="41.068633" lon="-3.723817">
        <ele>2006.0</ele>
        <time>2018-07-21T13:10:28Z</time>
      </trkpt>
      <trkpt lat="41.068683" lon="-3.723850">
        <ele>2008.0</ele>
        <time>2018-07-21T13:10:29Z</time>
      </trkpt>
      <trkpt lat="41.068733" lon="-3.723883">
        <ele>2010.0</ele>
        <time>2018-07-21T13:10:30Z</time>
      </trkpt>
      <trkpt lat="41.068750" lon="-3.723950">
        <ele>2012.0</ele>
        <time>2018-07-21T13:10:31Z</time>
      </trkpt>
      <trkpt lat="41.068750" lon="-3.724033">
        <ele>2012.0</ele>
        <time>2018-07-21T13:10:32Z</time>
      </trkpt>
      <trkpt lat="41.068733" lon="-3.724117">
        <ele>2013.0</ele>
        <time>2018-07-21T13:10:33Z</time>
      </trkpt>
      <trkpt lat="41.068667" lon="-3.724183">
        <ele>2014.0</ele>
        <time>2018-07-21T13:10:34Z</time>
      </trkpt>
      <trkpt lat="41.068583" lon="-3.724217">
        <ele>2016.0</ele>
        <time>2018-07-21T13:10:35Z</time>
      </trkpt>
      <trkpt lat="41.068483" lon="-3.724217">
        <ele>2018.0</ele>
        <time>2018-07-21T13:10:36Z</time>
      </trkpt>
      <trkpt lat="41.068383" lon="-3.724183">
        <ele>2021.0</ele>
        <time>2018-07-21T13:10:37Z</time>
      </trkpt>
      <trkpt lat="41.068283" lon="-3.724117">
        <ele>2023.0</ele>
        <time>2018-07-21T13:10:38Z</time>
      </trkpt>
      <trkpt lat="41.068183" lon="-3.724017">
        <ele>2026.0</ele>
        <time>2018-07-21T13:10:39Z</time>
      </trkpt>
      <trkpt lat="41.068083" lon="-3.723900">
        <ele>2028.0</ele>
        <time>2018-07-21T13:10:40Z</time>
      </trkpt>
      <trkpt lat="41.068017" lon="-3.723750">
        <ele>2030.0</ele>
        <time>2018-07-21T13:10:41Z</time>
      </trkpt>
      <trkpt lat="41.067950" lon="-3.723583">
        <ele>2031.0</ele>
        <time>2018-07-21T13:10:42Z</time>
      </trkpt>
      <trkpt lat="41.067933" lon="-3.723400">
        <ele>2033.0</ele>
        <time>2018-07-21T13:10:43Z</time>
      </trkpt>
      <trkpt lat="41.067933" lon="-3.723233">
        <ele>2033.0</ele>
        <time>2018-07-21T13:10:44Z</time>
      </trkpt>
      <trkpt lat="41.067950" lon="-3.723083">
        <ele>2034.0</ele>
        <time>2018-07-21T13:10:45Z</time>
      </trkpt>
      <trkpt lat="41.067967" lon="-3.722933">
        <ele>2034.0</ele>
        <time>2018-07-21T13:10:46Z</time>
      </trkpt>
      <trkpt lat="41.067983" lon="-3.722783">
        <ele>2034.0</ele>
        <time>2018-07-21T13:10:47Z</time>
      </trkpt>
      <trkpt lat="41.068033" lon="-3.722633">
        <ele>2034.0</ele>
        <time>2018-07-21T13:10:48Z</time>
      </trkpt>
      <trkpt lat="41.068100" lon="-3.722483">
        <ele>2035.0</ele>
        <time>2018-07-21T13:10:49Z</time>
      </trkpt>
      <trkpt lat="41.068183" lon="-3.722383">
        <ele>2038.0</ele>
        <time>2018-07-21T13:10:50Z</time>
      </trkpt>
      <trkpt lat="41.068267" lon="-3.722333">
        <ele>2040.0</ele>
        <time>2018-07-21T13:10:51Z</time>
      </trkpt>
      <trkpt lat="41.068350" lon="-3.722333">
        <ele>2042.0</ele>
        <time>2018-07-21T13:10:52Z</time>
      </trkpt>
      <trkpt lat="41.068400" lon="-3.722367">
        <ele>2044.0</ele>
        <time>2018-07-21T13:10:53Z</time>
      </trkpt>
      <trkpt lat="41.068433" lon="-3.722417">
        <ele>2045.0</ele>
        <time>2018-07-21T13:10:54Z</time>
      </trkpt>
      <trkpt lat="41.068467" lon="-3.722467">
        <ele>2047.0</ele>
        <time>2018-07-21T13:10:55Z</time>
      </trkpt>
      <trkpt lat="41.068483" lon="-3.722517">
        <ele>2049.0</ele>
        <time>2018-07-21T13:10:56Z</time>
      </trkpt>
      <trkpt lat="41.068483" lon="-3.722583">
        <ele>2050.0</ele>
        <time>2018-07-21T13:10:57Z</time>
      </trkpt>
      <trkpt lat="41.068450" lon="-3.722633">
        <ele>2052.0</ele>
        <time>2018-07-21T13:10:58Z</time>
      </trkpt>
      <trkpt lat="41.068400" lon="-3.722683">
        <ele>2054.0</ele>
        <time>2018-07-21T13:10:59Z</time>
      </trkpt>
      <trkpt lat="41.068317" lon="-3.722733">
        <ele>2057.0</ele>
        <time>2018-07-21T13:11:00Z</time>
      </trkpt>
      <trkpt lat="41.068233" lon="-3.722750">
        <ele>2060.0</ele>
        <time>2018-07-21T13:11:01Z</time>
      </trkpt>
      <trkpt lat="41.068133" lon="-3.722767">
        <ele>2063.0</ele>
        <time>2018-07-21T13:11:02Z</time>
      </trkpt>
      <trkpt lat="41.068067" lon="-3.722767">
        <ele>2066.0</ele>
        <time>2018-07-21T13:11:03Z</time>
      </trkpt>
      <trkpt lat="41.068000" lon="-3.722783">
        <ele>2067.0</ele>
        <time>2018-07-21T13:11:04Z</time>
      </trkpt>
      <trkpt lat="41.067917" lon="-3.722800">
        <ele>2068.0</ele>
        <time>2018-07-21T13:11:05Z</time>
      </trkpt>
      <trkpt lat="41.067817" lon="-3.722783">
        <ele>2068.0</ele>
        <time>2018-07-21T13:11:06Z</time>
      </trkpt>
      <trkpt lat="41.067700" lon="-3.722733">
        <ele>2068.0</ele>
        <time>2018-07-21T13:11:07Z</time>
      </trkpt>
      <trkpt lat="41.067583" lon="-3.722617">
        <ele>2068.0</ele>
        <time>2018-07-21T13:11:08Z</time>
      </trkpt>
      <trkpt lat="41.067500" lon="-3.722450">
        <ele>2070.0</ele>
        <time>2018-07-21T13:11:09Z</time>
      </trkpt>
      <trkpt lat="41.067467" lon="-3.722267">
        <ele>2072.0</ele>
        <time>2018-07-21T13:11:10Z</time>
      </trkpt>
      <trkpt lat="41.067483" lon="-3.722067">
        <ele>2073.0</ele>
        <time>2018-07-21T13:11:11Z</time>
      </trkpt>
      <trkpt lat="41.067550" lon="-3.721900">
        <ele>2075.0</ele>
        <time>2018-07-21T13:11:12Z</time>
      </trkpt>
      <trkpt lat="41.067633" lon="-3.721783">
        <ele>2077.0</ele>
        <time>2018-07-21T13:11:13Z</time>
      </trkpt>
      <trkpt lat="41.067717" lon="-3.721700">
        <ele>2080.0</ele>
        <time>2018-07-21T13:11:14Z</time>
      </trkpt>
      <trkpt lat="41.067783" lon="-3.721667">
        <ele>2084.0</ele>
        <time>2018-07-21T13:11:15Z</time>
      </trkpt>
      <trkpt lat="41.067833" lon="-3.721650">
        <ele>2086.0</ele>
        <time>2018-07-21T13:11:16Z</time>
      </trkpt>
      <trkpt lat="41.067867" lon="-3.721667">
        <ele>2088.0</ele>
        <time>2018-07-21T13:11:17Z</time>
      </trkpt>
      <trkpt lat="41.067900" lon="-3.721700">
        <ele>2089.0</ele>
        <time>2018-07-21T13:11:18Z</time>
      </trkpt>
      <trkpt lat="41.067900" lon="-3.721750">
        <ele>2091.0</ele>
        <time>2018-07-21T13:11:19Z</time>
      </trkpt>
      <trkpt lat="41.067883" lon="-3.721817">
        <ele>2092.0</ele>
        <time>2018-07-21T13:11:20Z</time>
      </trkpt>
      <trkpt lat="41.067833" lon="-3.721867">
        <ele>2094.0</ele>
        <time>2018-07-21T13:11:21Z</time>
      </trkpt>
      <trkpt lat="41.067750" lon="-3.721883">
        <ele>2096.0</ele>
        <time>2018-07-21T13:11:22Z</time>
      </trkpt>
      <trkpt lat="41.067633" lon="-3.721867">
        <ele>2098.0</ele>
        <time>2018-07-21T13:11:23Z</time>
      </trkpt>
      <trkpt lat="41.067517" lon="-3.721783">
        <ele>2100.0</ele>
        <time>2018-07-21T13:11:24Z</time>
      </trkpt>
      <trkpt lat="41.067417" lon="-3.721633">
        <ele>2102.0</ele>
        <time>2018-07-21T13:11:25Z</time>
      </trkpt>
      <trkpt lat="41.067367" lon="-3.721450">
        <ele>2103.0</ele>
        <time>2018-07-21T13:11:26Z</time>
      </trkpt>
      <trkpt lat="41.067350" lon="-3.721267">
        <ele>2103.0</ele>
        <time>2018-07-21T13:11:27Z</time>
      </trkpt>
      <trkpt lat="41.067383" lon="-3.721067">
        <ele>2102.0</ele>
        <time>2018-07-21T13:11:28Z</time>
      </trkpt>
      <trkpt lat="41.067467" lon="-3.720900">
        <ele>2102.0</ele>
        <time>2018-07-21T13:11:29Z</time>
      </trkpt>
      <trkpt lat="41.067550" lon="-3.720767">
        <ele>2104.0</ele>
        <time>2018-07-21T13:11:30Z</time>
      </trkpt>
      <trkpt lat="41.067633" lon="-3.720667">
        <ele>2107.0</ele>
        <time>2018-07-21T13:11:31Z</time>
      </trkpt>
      <trkpt lat="41.067700" lon="-3.720600">
        <ele>2111.0</ele>
        <time>2018-07-21T13:11:32Z</time>
      </trkpt>
      <trkpt lat="41.067750" lon="-3.720567">
        <ele>2114.0</ele>
        <time>2018-07-21T13:11:33Z</time>
      </trkpt>
      <trkpt lat="41.067817" lon="-3.720533">
        <ele>2116.0</ele>
        <time>2018-07-21T13:11:34Z</time>
      </trkpt>
      <trkpt lat="41.067867" lon="-3.720500">
        <ele>2118.0</ele>
        <time>2018-07-21T13:11:35Z</time>
      </trkpt>
      <trkpt lat="41.067900" lon="-3.720500">
        <ele>2119.0</ele>
        <time>2018-07-21T13:11:36Z</time>
      </trkpt>
      <trkpt lat="41.067933" lon="-3.720500">
        <ele>2119.0</ele>
        <time>2018-07-21T13:11:37Z</time>
      </trkpt>
      <trkpt lat="41.067933" lon="-3.720550">
        <ele>2119.0</ele>
        <time>2018-07-21T13:11:38Z</time>
      </trkpt>
      <trkpt lat="41.067900" lon="-3.720583">
        <ele>2119.0</ele>
        <time>2018-07-21T13:11:39Z</time>
      </trkpt>
      <trkpt lat="41.067833" lon="-3.720633">
        <ele>2119.0</ele>
        <time>2018-07-21T13:11:40Z</time>
      </trkpt>
      <trkpt lat="41.067750" lon="-3.720650">
        <ele>2120.0</ele>
        <time>2018-07-21T13:11:41Z</time>
      </trkpt>
      <trkpt lat="41.067650" lon="-3.720650">
        <ele>2121.0</ele>
        <time>2018-07-21T13:11:42Z</time>
      </trkpt>
      <trkpt lat="41.067533" lon="-3.720633">
        <ele>2123.0</ele>
        <time>2018-07-21T13:11:43Z</time>
      </trkpt>
      <trkpt lat="41.067417" lon="-3.720583">
        <ele>2125.0</ele>
        <time>2018-07-21T13:11:44Z</time>
      </trkpt>
      <trkpt lat="41.067300" lon="-3.720517">
        <ele>2130.0</ele>
        <time>2018-07-21T13:11:45Z</time>
      </trkpt>
      <trkpt lat="41.067183" lon="-3.720400">
        <ele>2134.0</ele>
        <time>2018-07-21T13:11:46Z</time>
      </trkpt>
      <trkpt lat="41.067100" lon="-3.720267">
        <ele>2138.0</ele>
        <time>2018-07-21T13:11:47Z</time>
      </trkpt>
      <trkpt lat="41.067050" lon="-3.720117">
        <ele>2141.0</ele>
        <time>2018-07-21T13:11:48Z</time>
      </trkpt>
      <trkpt lat="41.067000" lon="-3.719950">
        <ele>2142.0</ele>
        <time>2018-07-21T13:11:49Z</time>
      </trkpt>
      <trkpt lat="41.066983" lon="-3.719750">
        <ele>2143.0</ele>
        <time>2018-07-21T13:11:50Z</time>
      </trkpt>
      <trkpt lat="41.067000" lon="-3.719550">
        <ele>2143.0</ele>
        <time>2018-07-21T13:11:51Z</time>
      </trkpt>
      <trkpt lat="41.067033" lon="-3.719350">
        <ele>2144.0</ele>
        <time>2018-07-21T13:11:52Z</time>
      </trkpt>
      <trkpt lat="41.067100" lon="-3.719183">
        <ele>2145.0</ele>
        <time>2018-07-21T13:11:53Z</time>
      </trkpt>
      <trkpt lat="41.067183" lon="-3.719050">
        <ele>2146.0</ele>
        <time>2018-07-21T13:11:54Z</time>
      </trkpt>
      <trkpt lat="41.067267" lon="-3.718950">
        <ele>2148.0</ele>
        <time>2018-07-21T13:11:55Z</time>
      </trkpt>
      <trkpt lat="41.067333" lon="-3.718883">
        <ele>2151.0</ele>
        <time>2018-07-21T13:11:56Z</time>
      </trkpt>
      <trkpt lat="41.067383" lon="-3.718833">
        <ele>2153.0</ele>
        <time>2018-07-21T13:11:57Z</time>
      </trkpt>
      <trkpt lat="41.067433" lon="-3.718783">
        <ele>2154.0</ele>
        <time>2018-07-21T13:11:58Z</time>
      </trkpt>
      <trkpt lat="41.067483" lon="-3.718767">
        <ele>2155.0</ele>
        <time>2018-07-21T13:11:59Z</time>
      </trkpt>
      <trkpt lat="41.067533" lon="-3.718717">
        <ele>2155.0</ele>
        <time>2018-07-21T13:12:00Z</time>
      </trkpt>
      <trkpt lat="41.067600" lon="-3.718683">
        <ele>2155.0</ele>
        <time>2018-07-21T13:12:01Z</time>
      </trkpt>
      <trkpt lat="41.067667" lon="-3.718667">
        <ele>2154.0</ele>
        <time>2018-07-21T13:12:02Z</time>
      </trkpt>
      <trkpt lat="41.067717" lon="-3.718667">
        <ele>2153.0</ele>
        <time>2018-07-21T13:12:03Z</time>
      </trkpt>
      <trkpt lat="41.067783" lon="-3.718667">
        <ele>2152.0</ele>
        <time>2018-07-21T13:12:04Z</time>
      </trkpt>
      <trkpt lat="41.067850" lon="-3.718683">
        <ele>2153.0</ele>
        <time>2018-07-21T13:12:05Z</time>
      </trkpt>
      <trkpt lat="41.067917" lon="-3.718667">
        <ele>2153.0</ele>
        <time>2018-07-21T13:12:06Z</time>
      </trkpt>
      <trkpt lat="41.067983" lon="-3.718650">
        <ele>2154.0</ele>
        <time>2018-07-21T13:12:07Z</time>
      </trkpt>
      <trkpt lat="41.068050" lon="-3.718617">
        <ele>2154.0</ele>
        <time>2018-07-21T13:12:08Z</time>
      </trkpt>
      <trkpt lat="41.068100" lon="-3.718583">
        <ele>2154.0</ele>
        <time>2018-07-21T13:12:09Z</time>
      </trkpt>
      <trkpt lat="41.068167" lon="-3.718550">
        <ele>2153.0</ele>
        <time>2018-07-21T13:12:10Z</time>
      </trkpt>
      <trkpt lat="41.068217" lon="-3.718533">
        <ele>2152.0</ele>
        <time>2018-07-21T13:12:11Z</time>
      </trkpt>
      <trkpt lat="41.068283" lon="-3.718517">
        <ele>2149.0</ele>
        <time>2018-07-21T13:12:12Z</time>
      </trkpt>
      <trkpt lat="41.068350" lon="-3.718500">
        <ele>2147.0</ele>
        <time>2018-07-21T13:12:13Z</time>
      </trkpt>
      <trkpt lat="41.068417" lon="-3.718467">
        <ele>2145.0</ele>
        <time>2018-07-21T13:12:14Z</time>
      </trkpt>
      <trkpt lat="41.068500" lon="-3.718450">
        <ele>2143.0</ele>
        <time>2018-07-21T13:12:15Z</time>
      </trkpt>
      <trkpt lat="41.068567" lon="-3.718417">
        <ele>2142.0</ele>
        <time>2018-07-21T13:12:16Z</time>
      </trkpt>
      <trkpt lat="41.068633" lon="-3.718383">
        <ele>2141.0</ele>
        <time>2018-07-21T13:12:17Z</time>
      </trkpt>
      <trkpt lat="41.068700" lon="-3.718350">
        <ele>2140.0</ele>
        <time>2018-07-21T13:12:18Z</time>
      </trkpt>
      <trkpt lat="41.068750" lon="-3.718317">
        <ele>2138.0</ele>
        <time>2018-07-21T13:12:19Z</time>
      </trkpt>
      <trkpt lat="41.068800" lon="-3.718300">
        <ele>2135.0</ele>
        <time>2018-07-21T13:12:20Z</time>
      </trkpt>
      <trkpt lat="41.068850" lon="-3.718300">
        <ele>2132.0</ele>
        <time>2018-07-21T13:12:21Z</time>
      </trkpt>
      <trkpt lat="41.068900" lon="-3.718283">
        <ele>2129.0</ele>
        <time>2018-07-21T13:12:22Z</time>
      </trkpt>
      <trkpt lat="41.068950" lon="-3.718267">
        <ele>2127.0</ele>
        <time>2018-07-21T13:12:23Z</time>
      </trkpt>
      <trkpt lat="41.069017" lon="-3.718250">
        <ele>2124.0</ele>
        <time>2018-07-21T13:12:24Z</time>
      </trkpt>
      <trkpt lat="41.069067" lon="-3.718233">
        <ele>2122.0</ele>
        <time>2018-07-21T13:12:25Z</time>
      </trkpt>
      <trkpt lat="41.069117" lon="-3.718217">
        <ele>2119.0</ele>
        <time>2018-07-21T13:12:26Z</time>
      </trkpt>
      <trkpt lat="41.069167" lon="-3.718217">
        <ele>2116.0</ele>
        <time>2018-07-21T13:12:27Z</time>
      </trkpt>
      <trkpt lat="41.069233" lon="-3.718217">
        <ele>2113.0</ele>
        <time>2018-07-21T13:12:28Z</time>
      </trkpt>
      <trkpt lat="41.069300" lon="-3.718217">
        <ele>2111.0</ele>
        <time>2018-07-21T13:12:29Z</time>
      </trkpt>
      <trkpt lat="41.069400" lon="-3.718200">
        <ele>2109.0</ele>
        <time>2018-07-21T13:12:30Z</time>
      </trkpt>
      <trkpt lat="41.069483" lon="-3.718183">
        <ele>2110.0</ele>
        <time>2018-07-21T13:12:31Z</time>
      </trkpt>
      <trkpt lat="41.069550" lon="-3.718150">
        <ele>2113.0</ele>
        <time>2018-07-21T13:12:32Z</time>
      </trkpt>
      <trkpt lat="41.069600" lon="-3.718117">
        <ele>2115.0</ele>
        <time>2018-07-21T13:12:33Z</time>
      </trkpt>
      <trkpt lat="41.069650" lon="-3.718100">
        <ele>2116.0</ele>
        <time>2018-07-21T13:12:34Z</time>
      </trkpt>
      <trkpt lat="41.069700" lon="-3.718067">
        <ele>2117.0</ele>
        <time>2018-07-21T13:12:35Z</time>
      </trkpt>
      <trkpt lat="41.069767" lon="-3.718017">
        <ele>2117.0</ele>
        <time>2018-07-21T13:12:36Z</time>
      </trkpt>
      <trkpt lat="41.069817" lon="-3.717967">
        <ele>2118.0</ele>
        <time>2018-07-21T13:12:37Z</time>
      </trkpt>
      <trkpt lat="41.069883" lon="-3.717900">
        <ele>2119.0</ele>
        <time>2018-07-21T13:12:38Z</time>
      </trkpt>
      <trkpt lat="41.069950" lon="-3.717833">
        <ele>2120.0</ele>
        <time>2018-07-21T13:12:39Z</time>
      </trkpt>
      <trkpt lat="41.070000" lon="-3.717783">
        <ele>2121.0</ele>
        <time>2018-07-21T13:12:40Z</time>
      </trkpt>
      <trkpt lat="41.070067" lon="-3.717733">
        <ele>2122.0</ele>
        <time>2018-07-21T13:12:41Z</time>
      </trkpt>
      <trkpt lat="41.070117" lon="-3.717700">
        <ele>2124.0</ele>
        <time>2018-07-21T13:12:42Z</time>
      </trkpt>
      <trkpt lat="41.070150" lon="-3.717683">
        <ele>2126.0</ele>
        <time>2018-07-21T13:12:43Z</time>
      </trkpt>
      <trkpt lat="41.070167" lon="-3.717683">
        <ele>2127.0</ele>
        <time>2018-07-21T13:12:44Z</time>
      </trkpt>
      <trkpt lat="41.070167" lon="-3.717700">
        <ele>2127.0</ele>
        <time>2018-07-21T13:12:45Z</time>
      </trkpt>
      <trkpt lat="41.070167" lon="-3.717733">
        <ele>2128.0</ele>
        <time>2018-07-21T13:12:46Z</time>
      </trkpt>
      <trkpt lat="41.070150" lon="-3.717767">
        <ele>2128.0</ele>
        <time>2018-07-21T13:12:47Z</time>
      </trkpt>
      <trkpt lat="41.070117" lon="-3.717817">
        <ele>2128.0</ele>
        <time>2018-07-21T13:12:48Z</time>
      </trkpt>
      <trkpt lat="41.070050" lon="-3.717867">
        <ele>2129.0</ele>
        <time>2018-07-21T13:12:49Z</time>
      </trkpt>
      <trkpt lat="41.069967" lon="-3.717900">
        <ele>2128.0</ele>
        <time>2018-07-21T13:12:50Z</time>
      </trkpt>
      <trkpt lat="41.069850" lon="-3.717900">
        <ele>2126.0</ele>
        <time>2018-07-21T13:12:51Z</time>
      </trkpt>
      <trkpt lat="41.069717" lon="-3.717867">
        <ele>2126.0</ele>
        <time>2018-07-21T13:12:52Z</time>
      </trkpt>
      <trkpt lat="41.069567" lon="-3.717817">
        <ele>2125.0</ele>
        <time>2018-07-21T13:12:53Z</time>
      </trkpt>
      <trkpt lat="41.069433" lon="-3.717717">
        <ele>2124.0</ele>
        <time>2018-07-21T13:12:54Z</time>
      </trkpt>
      <trkpt lat="41.069333" lon="-3.717567">
        <ele>2124.0</ele>
        <time>2018-07-21T13:12:55Z</time>
      </trkpt>
      <trkpt lat="41.069267" lon="-3.717383">
        <ele>2124.0</ele>
        <time>2018-07-21T13:12:56Z</time>
      </trkpt>
      <trkpt lat="41.069233" lon="-3.717183">
        <ele>2123.0</ele>
        <time>2018-07-21T13:12:57Z</time>
      </trkpt>
      <trkpt lat="41.069217" lon="-3.716967">
        <ele>2122.0</ele>
        <time>2018-07-21T13:12:58Z</time>
      </trkpt>
      <trkpt lat="41.069250" lon="-3.716783">
        <ele>2121.0</ele>
        <time>2018-07-21T13:12:59Z</time>
      </trkpt>
      <trkpt lat="41.069300" lon="-3.716633">
        <ele>2120.0</ele>
        <time>2018-07-21T13:13:00Z</time>
      </trkpt>
      <trkpt lat="41.069350" lon="-3.716517">
        <ele>2120.0</ele>
        <time>2018-07-21T13:13:01Z</time>
      </trkpt>
      <trkpt lat="41.069400" lon="-3.716433">
        <ele>2120.0</ele>
        <time>2018-07-21T13:13:02Z</time>
      </trkpt>
      <trkpt lat="41.069450" lon="-3.716350">
        <ele>2119.0</ele>
        <time>2018-07-21T13:13:03Z</time>
      </trkpt>
      <trkpt lat="41.069500" lon="-3.716267">
        <ele>2119.0</ele>
        <time>2018-07-21T13:13:04Z</time>
      </trkpt>
      <trkpt lat="41.069567" lon="-3.716200">
        <ele>2119.0</ele>
        <time>2018-07-21T13:13:05Z</time>
      </trkpt>
      <trkpt lat="41.069633" lon="-3.716150">
        <ele>2118.0</ele>
        <time>2018-07-21T13:13:06Z</time>
      </trkpt>
      <trkpt lat="41.069700" lon="-3.716100">
        <ele>2118.0</ele>
        <time>2018-07-21T13:13:07Z</time>
      </trkpt>
      <trkpt lat="41.069783" lon="-3.716067">
        <ele>2118.0</ele>
        <time>2018-07-21T13:13:08Z</time>
      </trkpt>
      <trkpt lat="41.069850" lon="-3.716050">
        <ele>2118.0</ele>
        <time>2018-07-21T13:13:09Z</time>
      </trkpt>
      <trkpt lat="41.069917" lon="-3.716050">
        <ele>2120.0</ele>
        <time>2018-07-21T13:13:10Z</time>
      </trkpt>
      <trkpt lat="41.069983" lon="-3.716050">
        <ele>2121.0</ele>
        <time>2018-07-21T13:13:11Z</time>
      </trkpt>
      <trkpt lat="41.070033" lon="-3.716017">
        <ele>2122.0</ele>
        <time>2018-07-21T13:13:12Z</time>
      </trkpt>
      <trkpt lat="41.070100" lon="-3.716000">
        <ele>2122.0</ele>
        <time>2018-07-21T13:13:13Z</time>
      </trkpt>
      <trkpt lat="41.070167" lon="-3.715967">
        <ele>2120.0</ele>
        <time>2018-07-21T13:13:14Z</time>
      </trkpt>
      <trkpt lat="41.070233" lon="-3.715933">
        <ele>2117.0</ele>
        <time>2018-07-21T13:13:15Z</time>
      </trkpt>
      <trkpt lat="41.070317" lon="-3.715900">
        <ele>2113.0</ele>
        <time>2018-07-21T13:13:16Z</time>
      </trkpt>
      <trkpt lat="41.070383" lon="-3.715867">
        <ele>2109.0</ele>
        <time>2018-07-21T13:13:17Z</time>
      </trkpt>
      <trkpt lat="41.070467" lon="-3.715833">
        <ele>2106.0</ele>
        <time>2018-07-21T13:13:18Z</time>
      </trkpt>
      <trkpt lat="41.070533" lon="-3.715767">
        <ele>2104.0</ele>
        <time>2018-07-21T13:13:19Z</time>
      </trkpt>
      <trkpt lat="41.070600" lon="-3.715717">
        <ele>2101.0</ele>
        <time>2018-07-21T13:13:20Z</time>
      </trkpt>
      <trkpt lat="41.070667" lon="-3.715667">
        <ele>2098.0</ele>
        <time>2018-07-21T13:13:21Z</time>
      </trkpt>
      <trkpt lat="41.070733" lon="-3.715617">
        <ele>2095.0</ele>
        <time>2018-07-21T13:13:22Z</time>
      </trkpt>
      <trkpt lat="41.070800" lon="-3.715600">
        <ele>2091.0</ele>
        <time>2018-07-21T13:13:23Z</time>
      </trkpt>
      <trkpt lat="41.070883" lon="-3.715550">
        <ele>2087.0</ele>
        <time>2018-07-21T13:13:24Z</time>
      </trkpt>
      <trkpt lat="41.070950" lon="-3.715500">
        <ele>2084.0</ele>
        <time>2018-07-21T13:13:25Z</time>
      </trkpt>
      <trkpt lat="41.071033" lon="-3.715450">
        <ele>2081.0</ele>
        <time>2018-07-21T13:13:26Z</time>
      </trkpt>
      <trkpt lat="41.071100" lon="-3.715383">
        <ele>2079.0</ele>
        <time>2018-07-21T13:13:27Z</time>
      </trkpt>
      <trkpt lat="41.071183" lon="-3.715350">
        <ele>2077.0</ele>
        <time>2018-07-21T13:13:28Z</time>
      </trkpt>
      <trkpt lat="41.071250" lon="-3.715300">
        <ele>2075.0</ele>
        <time>2018-07-21T13:13:29Z</time>
      </trkpt>
      <trkpt lat="41.071317" lon="-3.715250">
        <ele>2073.0</ele>
        <time>2018-07-21T13:13:30Z</time>
      </trkpt>
      <trkpt lat="41.071383" lon="-3.715200">
        <ele>2071.0</ele>
        <time>2018-07-21T13:13:31Z</time>
      </trkpt>
      <trkpt lat="41.071467" lon="-3.715167">
        <ele>2068.0</ele>
        <time>2018-07-21T13:13:32Z</time>
      </trkpt>
      <trkpt lat="41.071533" lon="-3.715133">
        <ele>2066.0</ele>
        <time>2018-07-21T13:13:33Z</time>
      </trkpt>
      <trkpt lat="41.071600" lon="-3.715100">
        <ele>2063.0</ele>
        <time>2018-07-21T13:13:34Z</time>
      </trkpt>
      <trkpt lat="41.071667" lon="-3.715067">
        <ele>2060.0</ele>
        <time>2018-07-21T13:13:35Z</time>
      </trkpt>
      <trkpt lat="41.071733" lon="-3.715033">
        <ele>2057.0</ele>
        <time>2018-07-21T13:13:36Z</time>
      </trkpt>
      <trkpt lat="41.071817" lon="-3.714983">
        <ele>2055.0</ele>
        <time>2018-07-21T13:13:37Z</time>
      </trkpt>
      <trkpt lat="41.071883" lon="-3.714933">
        <ele>2053.0</ele>
        <time>2018-07-21T13:13:38Z</time>
      </trkpt>
      <trkpt lat="41.071950" lon="-3.714883">
        <ele>2051.0</ele>
        <time>2018-07-21T13:13:39Z</time>
      </trkpt>
      <trkpt lat="41.072017" lon="-3.714833">
        <ele>2049.0</ele>
        <time>2018-07-21T13:13:40Z</time>
      </trkpt>
      <trkpt lat="41.072100" lon="-3.714800">
        <ele>2048.0</ele>
        <time>2018-07-21T13:13:41Z</time>
      </trkpt>
      <trkpt lat="41.072167" lon="-3.714767">
        <ele>2045.0</ele>
        <time>2018-07-21T13:13:42Z</time>
      </trkpt>
      <trkpt lat="41.072267" lon="-3.714750">
        <ele>2043.0</ele>
        <time>2018-07-21T13:13:43Z</time>
      </trkpt>
      <trkpt lat="41.072367" lon="-3.714733">
        <ele>2043.0</ele>
        <time>2018-07-21T13:13:44Z</time>
      </trkpt>
      <trkpt lat="41.072467" lon="-3.714683">
        <ele>2043.0</ele>
        <time>2018-07-21T13:13:45Z</time>
      </trkpt>
      <trkpt lat="41.072533" lon="-3.714650">
        <ele>2046.0</ele>
        <time>2018-07-21T13:13:46Z</time>
      </trkpt>
      <trkpt lat="41.072583" lon="-3.714617">
        <ele>2048.0</ele>
        <time>2018-07-21T13:13:47Z</time>
      </trkpt>
      <trkpt lat="41.072617" lon="-3.714600">
        <ele>2050.0</ele>
        <time>2018-07-21T13:13:48Z</time>
      </trkpt>
      <trkpt lat="41.072667" lon="-3.714567">
        <ele>2050.0</ele>
        <time>2018-07-21T13:13:49Z</time>
      </trkpt>
      <trkpt lat="41.072750" lon="-3.714533">
        <ele>2050.0</ele>
        <time>2018-07-21T13:13:50Z</time>
      </trkpt>
      <trkpt lat="41.072817" lon="-3.714500">
        <ele>2050.0</ele>
        <time>2018-07-21T13:13:51Z</time>
      </trkpt>
      <trkpt lat="41.072900" lon="-3.714467">
        <ele>2051.0</ele>
        <time>2018-07-21T13:13:52Z</time>
      </trkpt>
      <trkpt lat="41.072967" lon="-3.714417">
        <ele>2052.0</ele>
        <time>2018-07-21T13:13:53Z</time>
      </trkpt>
      <trkpt lat="41.073050" lon="-3.714350">
        <ele>2052.0</ele>
        <time>2018-07-21T13:13:54Z</time>
      </trkpt>
      <trkpt lat="41.073133" lon="-3.714283">
        <ele>2053.0</ele>
        <time>2018-07-21T13:13:55Z</time>
      </trkpt>
      <trkpt lat="41.073217" lon="-3.714250">
        <ele>2054.0</ele>
        <time>2018-07-21T13:13:56Z</time>
      </trkpt>
      <trkpt lat="41.073283" lon="-3.714233">
        <ele>2053.0</ele>
        <time>2018-07-21T13:13:57Z</time>
      </trkpt>
      <trkpt lat="41.073333" lon="-3.714250">
        <ele>2052.0</ele>
        <time>2018-07-21T13:13:58Z</time>
      </trkpt>
      <trkpt lat="41.073400" lon="-3.714250">
        <ele>2050.0</ele>
        <time>2018-07-21T13:13:59Z</time>
      </trkpt>
      <trkpt lat="41.073467" lon="-3.714217">
        <ele>2048.0</ele>
        <time>2018-07-21T13:14:00Z</time>
      </trkpt>
      <trkpt lat="41.073550" lon="-3.714183">
        <ele>2044.0</ele>
        <time>2018-07-21T13:14:01Z</time>
      </trkpt>
      <trkpt lat="41.073633" lon="-3.714133">
        <ele>2041.0</ele>
        <time>2018-07-21T13:14:02Z</time>
      </trkpt>
      <trkpt lat="41.073717" lon="-3.714083">
        <ele>2039.0</ele>
        <time>2018-07-21T13:14:03Z</time>
      </trkpt>
      <trkpt lat="41.073800" lon="-3.714033">
        <ele>2038.0</ele>
        <time>2018-07-21T13:14:04Z</time>
      </trkpt>
      <trkpt lat="41.073883" lon="-3.714000">
        <ele>2038.0</ele>
        <time>2018-07-21T13:14:05Z</time>
      </trkpt>
      <trkpt lat="41.073950" lon="-3.713950">
        <ele>2037.0</ele>
        <time>2018-07-21T13:14:06Z</time>
      </trkpt>
      <trkpt lat="41.074017" lon="-3.713883">
        <ele>2035.0</ele>
        <time>2018-07-21T13:14:07Z</time>
      </trkpt>
      <trkpt lat="41.074083" lon="-3.713817">
        <ele>2033.0</ele>
        <time>2018-07-21T13:14:08Z</time>
      </trkpt>
      <trkpt lat="41.074167" lon="-3.713750">
        <ele>2031.0</ele>
        <time>2018-07-21T13:14:09Z</time>
      </trkpt>
      <trkpt lat="41.074250" lon="-3.713667">
        <ele>2029.0</ele>
        <time>2018-07-21T13:14:10Z</time>
      </trkpt>
      <trkpt lat="41.074317" lon="-3.713600">
        <ele>2028.0</ele>
        <time>2018-07-21T13:14:11Z</time>
      </trkpt>
      <trkpt lat="41.074383" lon="-3.713533">
        <ele>2027.0</ele>
        <time>2018-07-21T13:14:12Z</time>
      </trkpt>
      <trkpt lat="41.074467" lon="-3.713483">
        <ele>2026.0</ele>
        <time>2018-07-21T13:14:13Z</time>
      </trkpt>
      <trkpt lat="41.074550" lon="-3.713450">
        <ele>2025.0</ele>
        <time>2018-07-21T13:14:14Z</time>
      </trkpt>
      <trkpt lat="41.074633" lon="-3.713400">
        <ele>2024.0</ele>
        <time>2018-07-21T13:14:15Z</time>
      </trkpt>
      <trkpt lat="41.074717" lon="-3.713350">
        <ele>2022.0</ele>
        <time>2018-07-21T13:14:16Z</time>
      </trkpt>
      <trkpt lat="41.074783" lon="-3.713283">
        <ele>2021.0</ele>
        <time>2018-07-21T13:14:17Z</time>
      </trkpt>
      <trkpt lat="41.074867" lon="-3.713217">
        <ele>2020.0</ele>
        <time>2018-07-21T13:14:18Z</time>
      </trkpt>
      <trkpt lat="41.074950" lon="-3.713150">
        <ele>2018.0</ele>
        <time>2018-07-21T13:14:19Z</time>
      </trkpt>
      <trkpt lat="41.075017" lon="-3.713083">
        <ele>2017.0</ele>
        <time>2018-07-21T13:14:20Z</time>
      </trkpt>
      <trkpt lat="41.075100" lon="-3.713017">
        <ele>2016.0</ele>
        <time>2018-07-21T13:14:21Z</time>
      </trkpt>
      <trkpt lat="41.075183" lon="-3.712967">
        <ele>2014.0</ele>
        <time>2018-07-21T13:14:22Z</time>
      </trkpt>
      <trkpt lat="41.075267" lon="-3.712917">
        <ele>2012.0</ele>
        <time>2018-07-21T13:14:23Z</time>
      </trkpt>
      <trkpt lat="41.075350" lon="-3.712867">
        <ele>2011.0</ele>
        <time>2018-07-21T13:14:24Z</time>
      </trkpt>
      <trkpt lat="41.075433" lon="-3.712833">
        <ele>2010.0</ele>
        <time>2018-07-21T13:14:25Z</time>
      </trkpt>
      <trkpt lat="41.075517" lon="-3.712800">
        <ele>2009.0</ele>
        <time>2018-07-21T13:14:26Z</time>
      </trkpt>
      <trkpt lat="41.075600" lon="-3.712767">
        <ele>2008.0</ele>
        <time>2018-07-21T13:14:27Z</time>
      </trkpt>
      <trkpt lat="41.075683" lon="-3.712717">
        <ele>2007.0</ele>
        <time>2018-07-21T13:14:28Z</time>
      </trkpt>
      <trkpt lat="41.075767" lon="-3.712683">
        <ele>2006.0</ele>
        <time>2018-07-21T13:14:29Z</time>
      </trkpt>
      <trkpt lat="41.075850" lon="-3.712667">
        <ele>2004.0</ele>
        <time>2018-07-21T13:14:30Z</time>
      </trkpt>
      <trkpt lat="41.075933" lon="-3.712633">
        <ele>2003.0</ele>
        <time>2018-07-21T13:14:31Z</time>
      </trkpt>
      <trkpt lat="41.076017" lon="-3.712600">
        <ele>2002.0</ele>
        <time>2018-07-21T13:14:32Z</time>
      </trkpt>
      <trkpt lat="41.076100" lon="-3.712550">
        <ele>2001.0</ele>
        <time>2018-07-21T13:14:33Z</time>
      </trkpt>
      <trkpt lat="41.076183" lon="-3.712500">
        <ele>2000.0</ele>
        <time>2018-07-21T13:14:34Z</time>
      </trkpt>
      <trkpt lat="41.076283" lon="-3.712417">
        <ele>1999.0</ele>
        <time>2018-07-21T13:14:35Z</time>
      </trkpt>
      <trkpt lat="41.076350" lon="-3.712333">
        <ele>1997.0</ele>
        <time>2018-07-21T13:14:36Z</time>
      </trkpt>
      <trkpt lat="41.076433" lon="-3.712233">
        <ele>1996.0</ele>
        <time>2018-07-21T13:14:37Z</time>
      </trkpt>
      <trkpt lat="41.076517" lon="-3.712133">
        <ele>1994.0</ele>
        <time>2018-07-21T13:14:38Z</time>
      </trkpt>
      <trkpt lat="41.076583" lon="-3.712017">
        <ele>1993.0</ele>
        <time>2018-07-21T13:14:39Z</time>
      </trkpt>
      <trkpt lat="41.076667" lon="-3.711917">
        <ele>1993.0</ele>
        <time>2018-07-21T13:14:40Z</time>
      </trkpt>
      <trkpt lat="41.076767" lon="-3.711850">
        <ele>1993.0</ele>
        <time>2018-07-21T13:14:41Z</time>
      </trkpt>
      <trkpt lat="41.076867" lon="-3.711783">
        <ele>1992.0</ele>
        <time>2018-07-21T13:14:42Z</time>
      </trkpt>
      <trkpt lat="41.076950" lon="-3.711717">
        <ele>1992.0</ele>
        <time>2018-07-21T13:14:43Z</time>
      </trkpt>
      <trkpt lat="41.077050" lon="-3.711650">
        <ele>1992.0</ele>
        <time>2018-07-21T13:14:44Z</time>
      </trkpt>
      <trkpt lat="41.077133" lon="-3.711583">
        <ele>1992.0</ele>
        <time>2018-07-21T13:14:45Z</time>
      </trkpt>
      <trkpt lat="41.077217" lon="-3.711533">
        <ele>1992.0</ele>
        <time>2018-07-21T13:14:46Z</time>
      </trkpt>
      <trkpt lat="41.077300" lon="-3.711483">
        <ele>1991.0</ele>
        <time>2018-07-21T13:14:47Z</time>
      </trkpt>
      <trkpt lat="41.077383" lon="-3.711433">
        <ele>1991.0</ele>
        <time>2018-07-21T13:14:48Z</time>
      </trkpt>
      <trkpt lat="41.077483" lon="-3.711350">
        <ele>1989.0</ele>
        <time>2018-07-21T13:14:49Z</time>
      </trkpt>
      <trkpt lat="41.077567" lon="-3.711267">
        <ele>1988.0</ele>
        <time>2018-07-21T13:14:50Z</time>
      </trkpt>
      <trkpt lat="41.077650" lon="-3.711167">
        <ele>1987.0</ele>
        <time>2018-07-21T13:14:51Z</time>
      </trkpt>
      <trkpt lat="41.077717" lon="-3.711067">
        <ele>1987.0</ele>
        <time>2018-07-21T13:14:52Z</time>
      </trkpt>
      <trkpt lat="41.077800" lon="-3.710983">
        <ele>1986.0</ele>
        <time>2018-07-21T13:14:53Z</time>
      </trkpt>
      <trkpt lat="41.077883" lon="-3.710883">
        <ele>1985.0</ele>
        <time>2018-07-21T13:14:54Z</time>
      </trkpt>
      <trkpt lat="41.077950" lon="-3.710767">
        <ele>1984.0</ele>
        <time>2018-07-21T13:14:55Z</time>
      </trkpt>
      <trkpt lat="41.078033" lon="-3.710683">
        <ele>1983.0</ele>
        <time>2018-07-21T13:14:56Z</time>
      </trkpt>
      <trkpt lat="41.078133" lon="-3.710583">
        <ele>1981.0</ele>
        <time>2018-07-21T13:14:57Z</time>
      </trkpt>
      <trkpt lat="41.078217" lon="-3.710500">
        <ele>1980.0</ele>
        <time>2018-07-21T13:14:58Z</time>
      </trkpt>
      <trkpt lat="41.078300" lon="-3.710417">
        <ele>1980.0</ele>
        <time>2018-07-21T13:14:59Z</time>
      </trkpt>
      <trkpt lat="41.078383" lon="-3.710333">
        <ele>1980.0</ele>
        <time>2018-07-21T13:15:00Z</time>
      </trkpt>
      <trkpt lat="41.078467" lon="-3.710250">
        <ele>1980.0</ele>
        <time>2018-07-21T13:15:01Z</time>
      </trkpt>
      <trkpt lat="41.078533" lon="-3.710150">
        <ele>1978.0</ele>
        <time>2018-07-21T13:15:02Z</time>
      </trkpt>
      <trkpt lat="41.078617" lon="-3.710050">
        <ele>1977.0</ele>
        <time>2018-07-21T13:15:03Z</time>
      </trkpt>
      <trkpt lat="41.078700" lon="-3.709967">
        <ele>1976.0</ele>
        <time>2018-07-21T13:15:04Z</time>
      </trkpt>
      <trkpt lat="41.078783" lon="-3.709867">
        <ele>1975.0</ele>
        <time>2018-07-21T13:15:05Z</time>
      </trkpt>
      <trkpt lat="41.078850" lon="-3.709767">
        <ele>1974.0</ele>
        <time>2018-07-21T13:15:06Z</time>
      </trkpt>
      <trkpt lat="41.078933" lon="-3.709667">
        <ele>1973.0</ele>
        <time>2018-07-21T13:15:07Z</time>
      </trkpt>
      <trkpt lat="41.079000" lon="-3.709550">
        <ele>1972.0</ele>
        <time>2018-07-21T13:15:08Z</time>
      </trkpt>
      <trkpt lat="41.079083" lon="-3.709433">
        <ele>1972.0</ele>
        <time>2018-07-21T13:15:09Z</time>
      </trkpt>
      <trkpt lat="41.079167" lon="-3.709333">
        <ele>1971.0</ele>
        <time>2018-07-21T13:15:10Z</time>
      </trkpt>
      <trkpt lat="41.079250" lon="-3.709233">
        <ele>1970.0</ele>
        <time>2018-07-21T13:15:11Z</time>
      </trkpt>
      <trkpt lat="41.079333" lon="-3.709133">
        <ele>1970.0</ele>
        <time>2018-07-21T13:15:12Z</time>
      </trkpt>
      <trkpt lat="41.079400" lon="-3.709017">
        <ele>1970.0</ele>
        <time>2018-07-21T13:15:13Z</time>
      </trkpt>
      <trkpt lat="41.079483" lon="-3.708900">
        <ele>1971.0</ele>
        <time>2018-07-21T13:15:14Z</time>
      </trkpt>
      <trkpt lat="41.079567" lon="-3.708783">
        <ele>1972.0</ele>
        <time>2018-07-21T13:15:15Z</time>
      </trkpt>
      <trkpt lat="41.079633" lon="-3.708700">
        <ele>1974.0</ele>
        <time>2018-07-21T13:15:16Z</time>
      </trkpt>
      <trkpt lat="41.079700" lon="-3.708617">
        <ele>1975.0</ele>
        <time>2018-07-21T13:15:17Z</time>
      </trkpt>
      <trkpt lat="41.079783" lon="-3.708533">
        <ele>1976.0</ele>
        <time>2018-07-21T13:15:18Z</time>
      </trkpt>
      <trkpt lat="41.079850" lon="-3.708450">
        <ele>1977.0</ele>
        <time>2018-07-21T13:15:19Z</time>
      </trkpt>
      <trkpt lat="41.079917" lon="-3.708367">
        <ele>1977.0</ele>
        <time>2018-07-21T13:15:20Z</time>
      </trkpt>
      <trkpt lat="41.080000" lon="-3.708283">
        <ele>1978.0</ele>
        <time>2018-07-21T13:15:21Z</time>
      </trkpt>
      <trkpt lat="41.080083" lon="-3.708217">
        <ele>1980.0</ele>
        <time>2018-07-21T13:15:22Z</time>
      </trkpt>
      <trkpt lat="41.080167" lon="-3.708150">
        <ele>1982.0</ele>
        <time>2018-07-21T13:15:23Z</time>
      </trkpt>
      <trkpt lat="41.080250" lon="-3.708083">
        <ele>1984.0</ele>
        <time>2018-07-21T13:15:24Z</time>
      </trkpt>
      <trkpt lat="41.080333" lon="-3.708033">
        <ele>1986.0</ele>
        <time>2018-07-21T13:15:25Z</time>
      </trkpt>
      <trkpt lat="41.080400" lon="-3.707983">
        <ele>1987.0</ele>
        <time>2018-07-21T13:15:26Z</time>
      </trkpt>
      <trkpt lat="41.080483" lon="-3.707967">
        <ele>1989.0</ele>
        <time>2018-07-21T13:15:27Z</time>
      </trkpt>
      <trkpt lat="41.080550" lon="-3.707967">
        <ele>1989.0</ele>
        <time>2018-07-21T13:15:28Z</time>
      </trkpt>
      <trkpt lat="41.080617" lon="-3.707967">
        <ele>1989.0</ele>
        <time>2018-07-21T13:15:29Z</time>
      </trkpt>
      <trkpt lat="41.080683" lon="-3.707950">
        <ele>1987.0</ele>
        <time>2018-07-21T13:15:30Z</time>
      </trkpt>
      <trkpt lat="41.080767" lon="-3.707933">
        <ele>1985.0</ele>
        <time>2018-07-21T13:15:31Z</time>
      </trkpt>
      <trkpt lat="41.080850" lon="-3.707917">
        <ele>1984.0</ele>
        <time>2018-07-21T13:15:32Z</time>
      </trkpt>
      <trkpt lat="41.080950" lon="-3.707917">
        <ele>1982.0</ele>
        <time>2018-07-21T13:15:33Z</time>
      </trkpt>
      <trkpt lat="41.081033" lon="-3.707917">
        <ele>1980.0</ele>
        <time>2018-07-21T13:15:34Z</time>
      </trkpt>
      <trkpt lat="41.081117" lon="-3.707917">
        <ele>1980.0</ele>
        <time>2018-07-21T13:15:35Z</time>
      </trkpt>
      <trkpt lat="41.081183" lon="-3.707917">
        <ele>1979.0</ele>
        <time>2018-07-21T13:15:36Z</time>
      </trkpt>
      <trkpt lat="41.081267" lon="-3.707900">
        <ele>1978.0</ele>
        <time>2018-07-21T13:15:37Z</time>
      </trkpt>
      <trkpt lat="41.081350" lon="-3.707883">
        <ele>1976.0</ele>
        <time>2018-07-21T13:15:38Z</time>
      </trkpt>
      <trkpt lat="41.081417" lon="-3.707883">
        <ele>1974.0</ele>
        <time>2018-07-21T13:15:39Z</time>
      </trkpt>
      <trkpt lat="41.081500" lon="-3.707883">
        <ele>1972.0</ele>
        <time>2018-07-21T13:15:40Z</time>
      </trkpt>
      <trkpt lat="41.081583" lon="-3.707900">
        <ele>1970.0</ele>
        <time>2018-07-21T13:15:41Z</time>
      </trkpt>
      <trkpt lat="41.081650" lon="-3.707917">
        <ele>1968.0</ele>
        <time>2018-07-21T13:15:42Z</time>
      </trkpt>
      <trkpt lat="41.081733" lon="-3.707933">
        <ele>1967.0</ele>
        <time>2018-07-21T13:15:43Z</time>
      </trkpt>
      <trkpt lat="41.081800" lon="-3.707967">
        <ele>1968.0</ele>
        <time>2018-07-21T13:15:44Z</time>
      </trkpt>
      <trkpt lat="41.081850" lon="-3.707983">
        <ele>1968.0</ele>
        <time>2018-07-21T13:15:45Z</time>
      </trkpt>
      <trkpt lat="41.081917" lon="-3.708000">
        <ele>1969.0</ele>
        <time>2018-07-21T13:15:46Z</time>
      </trkpt>
      <trkpt lat="41.081983" lon="-3.708017">
        <ele>1969.0</ele>
        <time>2018-07-21T13:15:47Z</time>
      </trkpt>
      <trkpt lat="41.082050" lon="-3.708033">
        <ele>1968.0</ele>
        <time>2018-07-21T13:15:48Z</time>
      </trkpt>
      <trkpt lat="41.082117" lon="-3.708050">
        <ele>1967.0</ele>
        <time>2018-07-21T13:15:49Z</time>
      </trkpt>
      <trkpt lat="41.082183" lon="-3.708067">
        <ele>1966.0</ele>
        <time>2018-07-21T13:15:50Z</time>
      </trkpt>
      <trkpt lat="41.082267" lon="-3.708067">
        <ele>1965.0</ele>
        <time>2018-07-21T13:15:51Z</time>
      </trkpt>
      <trkpt lat="41.082333" lon="-3.708067">
        <ele>1966.0</ele>
        <time>2018-07-21T13:15:52Z</time>
      </trkpt>
      <trkpt lat="41.082417" lon="-3.708067">
        <ele>1967.0</ele>
        <time>2018-07-21T13:15:53Z</time>
      </trkpt>
      <trkpt lat="41.082483" lon="-3.708050">
        <ele>1970.0</ele>
        <time>2018-07-21T13:15:54Z</time>
      </trkpt>
      <trkpt lat="41.082550" lon="-3.708033">
        <ele>1972.0</ele>
        <time>2018-07-21T13:15:55Z</time>
      </trkpt>
      <trkpt lat="41.082600" lon="-3.708017">
        <ele>1973.0</ele>
        <time>2018-07-21T13:15:56Z</time>
      </trkpt>
      <trkpt lat="41.082667" lon="-3.707983">
        <ele>1974.0</ele>
        <time>2018-07-21T13:15:57Z</time>
      </trkpt>
      <trkpt lat="41.082733" lon="-3.707950">
        <ele>1974.0</ele>
        <time>2018-07-21T13:15:58Z</time>
      </trkpt>
      <trkpt lat="41.082817" lon="-3.707917">
        <ele>1975.0</ele>
        <time>2018-07-21T13:15:59Z</time>
      </trkpt>
      <trkpt lat="41.082883" lon="-3.707917">
        <ele>1976.0</ele>
        <time>2018-07-21T13:16:00Z</time>
      </trkpt>
      <trkpt lat="41.082933" lon="-3.707950">
        <ele>1978.0</ele>
        <time>2018-07-21T13:16:01Z</time>
      </trkpt>
      <trkpt lat="41.082967" lon="-3.708017">
        <ele>1979.0</ele>
        <time>2018-07-21T13:16:02Z</time>
      </trkpt>
      <trkpt lat="41.082967" lon="-3.708100">
        <ele>1980.0</ele>
        <time>2018-07-21T13:16:03Z</time>
      </trkpt>
      <trkpt lat="41.082950" lon="-3.708183">
        <ele>1981.0</ele>
        <time>2018-07-21T13:16:04Z</time>
      </trkpt>
      <trkpt lat="41.082900" lon="-3.708267">
        <ele>1981.0</ele>
        <time>2018-07-21T13:16:05Z</time>
      </trkpt>
      <trkpt lat="41.082817" lon="-3.708333">
        <ele>1982.0</ele>
        <time>2018-07-21T13:16:06Z</time>
      </trkpt>
      <trkpt lat="41.082717" lon="-3.708367">
        <ele>1982.0</ele>
        <time>2018-07-21T13:16:07Z</time>
      </trkpt>
      <trkpt lat="41.082617" lon="-3.708350">
        <ele>1983.0</ele>
        <time>2018-07-21T13:16:08Z</time>
      </trkpt>
      <trkpt lat="41.082517" lon="-3.708283">
        <ele>1984.0</ele>
        <time>2018-07-21T13:16:09Z</time>
      </trkpt>
      <trkpt lat="41.082433" lon="-3.708150">
        <ele>1985.0</ele>
        <time>2018-07-21T13:16:10Z</time>
      </trkpt>
      <trkpt lat="41.082383" lon="-3.708000">
        <ele>1985.0</ele>
        <time>2018-07-21T13:16:11Z</time>
      </trkpt>
      <trkpt lat="41.082367" lon="-3.707833">
        <ele>1986.0</ele>
        <time>2018-07-21T13:16:12Z</time>
      </trkpt>
      <trkpt lat="41.082383" lon="-3.707667">
        <ele>1986.0</ele>
        <time>2018-07-21T13:16:13Z</time>
      </trkpt>
      <trkpt lat="41.082433" lon="-3.707517">
        <ele>1987.0</ele>
        <time>2018-07-21T13:16:14Z</time>
      </trkpt>
      <trkpt lat="41.082500" lon="-3.707400">
        <ele>1988.0</ele>
        <time>2018-07-21T13:16:15Z</time>
      </trkpt>
      <trkpt lat="41.082583" lon="-3.707317">
        <ele>1989.0</ele>
        <time>2018-07-21T13:16:16Z</time>
      </trkpt>
      <trkpt lat="41.082650" lon="-3.707300">
        <ele>1991.0</ele>
        <time>2018-07-21T13:16:17Z</time>
      </trkpt>
      <trkpt lat="41.082717" lon="-3.707317">
        <ele>1992.0</ele>
        <time>2018-07-21T13:16:18Z</time>
      </trkpt>
      <trkpt lat="41.082750" lon="-3.707383">
        <ele>1993.0</ele>
        <time>2018-07-21T13:16:19Z</time>
      </trkpt>
      <trkpt lat="41.082767" lon="-3.707467">
        <ele>1994.0</ele>
        <time>2018-07-21T13:16:20Z</time>
      </trkpt>
      <trkpt lat="41.082733" lon="-3.707550">
        <ele>1994.0</ele>
        <time>2018-07-21T13:16:21Z</time>
      </trkpt>
      <trkpt lat="41.082683" lon="-3.707633">
        <ele>1995.0</ele>
        <time>2018-07-21T13:16:22Z</time>
      </trkpt>
      <trkpt lat="41.082600" lon="-3.707683">
        <ele>1995.0</ele>
        <time>2018-07-21T13:16:23Z</time>
      </trkpt>
      <trkpt lat="41.082517" lon="-3.707700">
        <ele>1995.0</ele>
        <time>2018-07-21T13:16:24Z</time>
      </trkpt>
      <trkpt lat="41.082417" lon="-3.707683">
        <ele>1996.0</ele>
        <time>2018-07-21T13:16:25Z</time>
      </trkpt>
      <trkpt lat="41.082317" lon="-3.707617">
        <ele>1996.0</ele>
        <time>2018-07-21T13:16:26Z</time>
      </trkpt>
      <trkpt lat="41.082233" lon="-3.707500">
        <ele>1996.0</ele>
        <time>2018-07-21T13:16:27Z</time>
      </trkpt>
      <trkpt lat="41.082183" lon="-3.707333">
        <ele>1996.0</ele>
        <time>2018-07-21T13:16:28Z</time>
      </trkpt>
      <trkpt lat="41.082150" lon="-3.707150">
        <ele>1995.0</ele>
        <time>2018-07-21T13:16:29Z</time>
      </trkpt>
      <trkpt lat="41.082167" lon="-3.706967">
        <ele>1995.0</ele>
        <time>2018-07-21T13:16:30Z</time>
      </trkpt>
      <trkpt lat="41.082200" lon="-3.706817">
        <ele>1996.0</ele>
        <time>2018-07-21T13:16:31Z</time>
      </trkpt>
      <trkpt lat="41.082267" lon="-3.706683">
        <ele>1997.0</ele>
        <time>2018-07-21T13:16:32Z</time>
      </trkpt>
      <trkpt lat="41.082333" lon="-3.706600">
        <ele>1997.0</ele>
        <time>2018-07-21T13:16:33Z</time>
      </trkpt>
      <trkpt lat="41.082400" lon="-3.706550">
        <ele>1997.0</ele>
        <time>2018-07-21T13:16:34Z</time>
      </trkpt>
      <trkpt lat="41.082483" lon="-3.706533">
        <ele>1998.0</ele>
        <time>2018-07-21T13:16:35Z</time>
      </trkpt>
      <trkpt lat="41.082550" lon="-3.706550">
        <ele>1998.0</ele>
        <time>2018-07-21T13:16:36Z</time>
      </trkpt>
      <trkpt lat="41.082600" lon="-3.706583">
        <ele>2000.0</ele>
        <time>2018-07-21T13:16:37Z</time>
      </trkpt>
      <trkpt lat="41.082617" lon="-3.706633">
        <ele>2001.0</ele>
        <time>2018-07-21T13:16:38Z</time>
      </trkpt>
      <trkpt lat="41.082617" lon="-3.706700">
        <ele>2002.0</ele>
        <time>2018-07-21T13:16:39Z</time>
      </trkpt>
      <trkpt lat="41.082583" lon="-3.706767">
        <ele>2002.0</ele>
        <time>2018-07-21T13:16:40Z</time>
      </trkpt>
      <trkpt lat="41.082517" lon="-3.706833">
        <ele>2002.0</ele>
        <time>2018-07-21T13:16:41Z</time>
      </trkpt>
      <trkpt lat="41.082433" lon="-3.706883">
        <ele>2002.0</ele>
        <time>2018-07-21T13:16:42Z</time>
      </trkpt>
      <trkpt lat="41.082333" lon="-3.706900">
        <ele>2002.0</ele>
        <time>2018-07-21T13:16:43Z</time>
      </trkpt>
      <trkpt lat="41.082233" lon="-3.706867">
        <ele>2002.0</ele>
        <time>2018-07-21T13:16:44Z</time>
      </trkpt>
      <trkpt lat="41.082133" lon="-3.706767">
        <ele>2002.0</ele>
        <time>2018-07-21T13:16:45Z</time>
      </trkpt>
      <trkpt lat="41.082033" lon="-3.706650">
        <ele>2002.0</ele>
        <time>2018-07-21T13:16:46Z</time>
      </trkpt>
      <trkpt lat="41.081967" lon="-3.706517">
        <ele>2002.0</ele>
        <time>2018-07-21T13:16:47Z</time>
      </trkpt>
      <trkpt lat="41.081933" lon="-3.706367">
        <ele>2002.0</ele>
        <time>2018-07-21T13:16:48Z</time>
      </trkpt>
      <trkpt lat="41.081933" lon="-3.706200">
        <ele>2002.0</ele>
        <time>2018-07-21T13:16:49Z</time>
      </trkpt>
      <trkpt lat="41.081967" lon="-3.706050">
        <ele>2002.0</ele>
        <time>2018-07-21T13:16:50Z</time>
      </trkpt>
      <trkpt lat="41.082033" lon="-3.705933">
        <ele>2002.0</ele>
        <time>2018-07-21T13:16:51Z</time>
      </trkpt>
      <trkpt lat="41.082100" lon="-3.705850">
        <ele>2002.0</ele>
        <time>2018-07-21T13:16:52Z</time>
      </trkpt>
      <trkpt lat="41.082167" lon="-3.705783">
        <ele>2002.0</ele>
        <time>2018-07-21T13:16:53Z</time>
      </trkpt>
      <trkpt lat="41.082250" lon="-3.705767">
        <ele>2003.0</ele>
        <time>2018-07-21T13:16:54Z</time>
      </trkpt>
      <trkpt lat="41.082317" lon="-3.705767">
        <ele>2004.0</ele>
        <time>2018-07-21T13:16:55Z</time>
      </trkpt>
      <trkpt lat="41.082383" lon="-3.705783">
        <ele>2005.0</ele>
        <time>2018-07-21T13:16:56Z</time>
      </trkpt>
      <trkpt lat="41.082433" lon="-3.705817">
        <ele>2006.0</ele>
        <time>2018-07-21T13:16:57Z</time>
      </trkpt>
      <trkpt lat="41.082450" lon="-3.705883">
        <ele>2007.0</ele>
        <time>2018-07-21T13:16:58Z</time>
      </trkpt>
      <trkpt lat="41.082467" lon="-3.705967">
        <ele>2007.0</ele>
        <time>2018-07-21T13:16:59Z</time>
      </trkpt>
      <trkpt lat="41.082433" lon="-3.706067">
        <ele>2007.0</ele>
        <time>2018-07-21T13:17:00Z</time>
      </trkpt>
      <trkpt lat="41.082367" lon="-3.706167">
        <ele>2006.0</ele>
        <time>2018-07-21T13:17:01Z</time>
      </trkpt>
      <trkpt lat="41.082283" lon="-3.706250">
        <ele>2007.0</ele>
        <time>2018-07-21T13:17:02Z</time>
      </trkpt>
      <trkpt lat="41.082183" lon="-3.706283">
        <ele>2008.0</ele>
        <time>2018-07-21T13:17:03Z</time>
      </trkpt>
      <trkpt lat="41.082083" lon="-3.706267">
        <ele>2010.0</ele>
        <time>2018-07-21T13:17:04Z</time>
      </trkpt>
      <trkpt lat="41.082000" lon="-3.706217">
        <ele>2012.0</ele>
        <time>2018-07-21T13:17:05Z</time>
      </trkpt>
      <trkpt lat="41.081917" lon="-3.706133">
        <ele>2013.0</ele>
        <time>2018-07-21T13:17:06Z</time>
      </trkpt>
      <trkpt lat="41.081833" lon="-3.706017">
        <ele>2013.0</ele>
        <time>2018-07-21T13:17:07Z</time>
      </trkpt>
      <trkpt lat="41.081767" lon="-3.705867">
        <ele>2013.0</ele>
        <time>2018-07-21T13:17:08Z</time>
      </trkpt>
      <trkpt lat="41.081733" lon="-3.705717">
        <ele>2014.0</ele>
        <time>2018-07-21T13:17:09Z</time>
      </trkpt>
      <trkpt lat="41.081733" lon="-3.705550">
        <ele>2013.0</ele>
        <time>2018-07-21T13:17:10Z</time>
      </trkpt>
      <trkpt lat="41.081767" lon="-3.705400">
        <ele>2013.0</ele>
        <time>2018-07-21T13:17:11Z</time>
      </trkpt>
      <trkpt lat="41.081800" lon="-3.705267">
        <ele>2013.0</ele>
        <time>2018-07-21T13:17:12Z</time>
      </trkpt>
      <trkpt lat="41.081850" lon="-3.705167">
        <ele>2014.0</ele>
        <time>2018-07-21T13:17:13Z</time>
      </trkpt>
      <trkpt lat="41.081900" lon="-3.705067">
        <ele>2016.0</ele>
        <time>2018-07-21T13:17:14Z</time>
      </trkpt>
      <trkpt lat="41.081950" lon="-3.705017">
        <ele>2018.0</ele>
        <time>2018-07-21T13:17:15Z</time>
      </trkpt>
      <trkpt lat="41.082017" lon="-3.704983">
        <ele>2019.0</ele>
        <time>2018-07-21T13:17:16Z</time>
      </trkpt>
      <trkpt lat="41.082083" lon="-3.704983">
        <ele>2019.0</ele>
        <time>2018-07-21T13:17:17Z</time>
      </trkpt>
      <trkpt lat="41.082150" lon="-3.705017">
        <ele>2019.0</ele>
        <time>2018-07-21T13:17:18Z</time>
      </trkpt>
      <trkpt lat="41.082183" lon="-3.705083">
        <ele>2018.0</ele>
        <time>2018-07-21T13:17:19Z</time>
      </trkpt>
      <trkpt lat="41.082200" lon="-3.705167">
        <ele>2018.0</ele>
        <time>2018-07-21T13:17:20Z</time>
      </trkpt>
      <trkpt lat="41.082183" lon="-3.705267">
        <ele>2018.0</ele>
        <time>2018-07-21T13:17:21Z</time>
      </trkpt>
      <trkpt lat="41.082150" lon="-3.705367">
        <ele>2018.0</ele>
        <time>2018-07-21T13:17:22Z</time>
      </trkpt>
      <trkpt lat="41.082083" lon="-3.705450">
        <ele>2018.0</ele>
        <time>2018-07-21T13:17:23Z</time>
      </trkpt>
      <trkpt lat="41.081983" lon="-3.705483">
        <ele>2019.0</ele>
        <time>2018-07-21T13:17:24Z</time>
      </trkpt>
      <trkpt lat="41.081883" lon="-3.705500">
        <ele>2020.0</ele>
        <time>2018-07-21T13:17:25Z</time>
      </trkpt>
      <trkpt lat="41.081783" lon="-3.705450">
        <ele>2021.0</ele>
        <time>2018-07-21T13:17:26Z</time>
      </trkpt>
      <trkpt lat="41.081683" lon="-3.705367">
        <ele>2021.0</ele>
        <time>2018-07-21T13:17:27Z</time>
      </trkpt>
      <trkpt lat="41.081600" lon="-3.705250">
        <ele>2021.0</ele>
        <time>2018-07-21T13:17:28Z</time>
      </trkpt>
      <trkpt lat="41.081533" lon="-3.705117">
        <ele>2021.0</ele>
        <time>2018-07-21T13:17:29Z</time>
      </trkpt>
      <trkpt lat="41.081483" lon="-3.704950">
        <ele>2021.0</ele>
        <time>2018-07-21T13:17:30Z</time>
      </trkpt>
      <trkpt lat="41.081483" lon="-3.704783">
        <ele>2020.0</ele>
        <time>2018-07-21T13:17:31Z</time>
      </trkpt>
      <trkpt lat="41.081517" lon="-3.704617">
        <ele>2019.0</ele>
        <time>2018-07-21T13:17:32Z</time>
      </trkpt>
      <trkpt lat="41.081583" lon="-3.704450">
        <ele>2018.0</ele>
        <time>2018-07-21T13:17:33Z</time>
      </trkpt>
      <trkpt lat="41.081650" lon="-3.704317">
        <ele>2018.0</ele>
        <time>2018-07-21T13:17:34Z</time>
      </trkpt>
      <trkpt lat="41.081717" lon="-3.704217">
        <ele>2019.0</ele>
        <time>2018-07-21T13:17:35Z</time>
      </trkpt>
      <trkpt lat="41.081800" lon="-3.704133">
        <ele>2021.0</ele>
        <time>2018-07-21T13:17:36Z</time>
      </trkpt>
      <trkpt lat="41.081867" lon="-3.704067">
        <ele>2022.0</ele>
        <time>2018-07-21T13:17:37Z</time>
      </trkpt>
      <trkpt lat="41.081933" lon="-3.704017">
        <ele>2023.0</ele>
        <time>2018-07-21T13:17:38Z</time>
      </trkpt>
      <trkpt lat="41.082017" lon="-3.704000">
        <ele>2023.0</ele>
        <time>2018-07-21T13:17:39Z</time>
      </trkpt>
      <trkpt lat="41.082083" lon="-3.704017">
        <ele>2023.0</ele>
        <time>2018-07-21T13:17:40Z</time>
      </trkpt>
      <trkpt lat="41.082150" lon="-3.704050">
        <ele>2022.0</ele>
        <time>2018-07-21T13:17:41Z</time>
      </trkpt>
      <trkpt lat="41.082233" lon="-3.704083">
        <ele>2022.0</ele>
        <time>2018-07-21T13:17:42Z</time>
      </trkpt>
      <trkpt lat="41.082300" lon="-3.704117">
        <ele>2022.0</ele>
        <time>2018-07-21T13:17:43Z</time>
      </trkpt>
      <trkpt lat="41.082383" lon="-3.704117">
        <ele>2022.0</ele>
        <time>2018-07-21T13:17:44Z</time>
      </trkpt>
      <trkpt lat="41.082467" lon="-3.704100">
        <ele>2022.0</ele>
        <time>2018-07-21T13:17:45Z</time>
      </trkpt>
      <trkpt lat="41.082550" lon="-3.704083">
        <ele>2022.0</ele>
        <time>2018-07-21T13:17:46Z</time>
      </trkpt>
      <trkpt lat="41.082633" lon="-3.704050">
        <ele>2021.0</ele>
        <time>2018-07-21T13:17:47Z</time>
      </trkpt>
      <trkpt lat="41.082717" lon="-3.704033">
        <ele>2021.0</ele>
        <time>2018-07-21T13:17:48Z</time>
      </trkpt>
      <trkpt lat="41.082817" lon="-3.704000">
        <ele>2021.0</ele>
        <time>2018-07-21T13:17:49Z</time>
      </trkpt>
      <trkpt lat="41.082917" lon="-3.703917">
        <ele>2021.0</ele>
        <time>2018-07-21T13:17:50Z</time>
      </trkpt>
      <trkpt lat="41.083017" lon="-3.703817">
        <ele>2021.0</ele>
        <time>2018-07-21T13:17:51Z</time>
      </trkpt>
      <trkpt lat="41.083100" lon="-3.703717">
        <ele>2023.0</ele>
        <time>2018-07-21T13:17:52Z</time>
      </trkpt>
      <trkpt lat="41.083167" lon="-3.703617">
        <ele>2026.0</ele>
        <time>2018-07-21T13:17:53Z</time>
      </trkpt>
      <trkpt lat="41.083233" lon="-3.703550">
        <ele>2028.0</ele>
        <time>2018-07-21T13:17:54Z</time>
      </trkpt>
      <trkpt lat="41.083317" lon="-3.703467">
        <ele>2030.0</ele>
        <time>2018-07-21T13:17:55Z</time>
      </trkpt>
      <trkpt lat="41.083400" lon="-3.703400">
        <ele>2032.0</ele>
        <time>2018-07-21T13:17:56Z</time>
      </trkpt>
      <trkpt lat="41.083500" lon="-3.703367">
        <ele>2035.0</ele>
        <time>2018-07-21T13:17:57Z</time>
      </trkpt>
      <trkpt lat="41.083567" lon="-3.703400">
        <ele>2037.0</ele>
        <time>2018-07-21T13:17:58Z</time>
      </trkpt>
      <trkpt lat="41.083617" lon="-3.703467">
        <ele>2039.0</ele>
        <time>2018-07-21T13:17:59Z</time>
      </trkpt>
      <trkpt lat="41.083633" lon="-3.703567">
        <ele>2041.0</ele>
        <time>2018-07-21T13:18:00Z</time>
      </trkpt>
      <trkpt lat="41.083600" lon="-3.703667">
        <ele>2043.0</ele>
        <time>2018-07-21T13:18:01Z</time>
      </trkpt>
      <trkpt lat="41.083533" lon="-3.703733">
        <ele>2047.0</ele>
        <time>2018-07-21T13:18:02Z</time>
      </trkpt>
      <trkpt lat="41.083450" lon="-3.703750">
        <ele>2050.0</ele>
        <time>2018-07-21T13:18:03Z</time>
      </trkpt>
      <trkpt lat="41.083367" lon="-3.703733">
        <ele>2053.0</ele>
        <time>2018-07-21T13:18:04Z</time>
      </trkpt>
      <trkpt lat="41.083283" lon="-3.703700">
        <ele>2054.0</ele>
        <time>2018-07-21T13:18:05Z</time>
      </trkpt>
      <trkpt lat="41.083183" lon="-3.703617">
        <ele>2054.0</ele>
        <time>2018-07-21T13:18:06Z</time>
      </trkpt>
      <trkpt lat="41.083083" lon="-3.703500">
        <ele>2054.0</ele>
        <time>2018-07-21T13:18:07Z</time>
      </trkpt>
      <trkpt lat="41.083017" lon="-3.703333">
        <ele>2054.0</ele>
        <time>2018-07-21T13:18:08Z</time>
      </trkpt>
      <trkpt lat="41.083000" lon="-3.703167">
        <ele>2055.0</ele>
        <time>2018-07-21T13:18:09Z</time>
      </trkpt>
      <trkpt lat="41.083017" lon="-3.702983">
        <ele>2057.0</ele>
        <time>2018-07-21T13:18:10Z</time>
      </trkpt>
      <trkpt lat="41.083083" lon="-3.702850">
        <ele>2059.0</ele>
        <time>2018-07-21T13:18:11Z</time>
      </trkpt>
      <trkpt lat="41.083167" lon="-3.702733">
        <ele>2060.0</ele>
        <time>2018-07-21T13:18:12Z</time>
      </trkpt>
      <trkpt lat="41.083267" lon="-3.702667">
        <ele>2063.0</ele>
        <time>2018-07-21T13:18:13Z</time>
      </trkpt>
      <trkpt lat="41.083367" lon="-3.702633">
        <ele>2065.0</ele>
        <time>2018-07-21T13:18:14Z</time>
      </trkpt>
      <trkpt lat="41.083450" lon="-3.702633">
        <ele>2068.0</ele>
        <time>2018-07-21T13:18:15Z</time>
      </trkpt>
      <trkpt lat="41.083500" lon="-3.702650">
        <ele>2072.0</ele>
        <time>2018-07-21T13:18:16Z</time>
      </trkpt>
      <trkpt lat="41.083533" lon="-3.702717">
        <ele>2075.0</ele>
        <time>2018-07-21T13:18:17Z</time>
      </trkpt>
      <trkpt lat="41.083533" lon="-3.702783">
        <ele>2076.0</ele>
        <time>2018-07-21T13:18:18Z</time>
      </trkpt>
      <trkpt lat="41.083483" lon="-3.702867">
        <ele>2077.0</ele>
        <time>2018-07-21T13:18:19Z</time>
      </trkpt>
      <trkpt lat="41.083417" lon="-3.702917">
        <ele>2078.0</ele>
        <time>2018-07-21T13:18:20Z</time>
      </trkpt>
      <trkpt lat="41.083317" lon="-3.702967">
        <ele>2079.0</ele>
        <time>2018-07-21T13:18:21Z</time>
      </trkpt>
      <trkpt lat="41.083217" lon="-3.702950">
        <ele>2080.0</ele>
        <time>2018-07-21T13:18:22Z</time>
      </trkpt>
      <trkpt lat="41.083117" lon="-3.702900">
        <ele>2081.0</ele>
        <time>2018-07-21T13:18:23Z</time>
      </trkpt>
      <trkpt lat="41.083017" lon="-3.702800">
        <ele>2083.0</ele>
        <time>2018-07-21T13:18:24Z</time>
      </trkpt>
      <trkpt lat="41.082950" lon="-3.702667">
        <ele>2084.0</ele>
        <time>2018-07-21T13:18:25Z</time>
      </trkpt>
      <trkpt lat="41.082900" lon="-3.702517">
        <ele>2084.0</ele>
        <time>2018-07-21T13:18:26Z</time>
      </trkpt>
      <trkpt lat="41.082883" lon="-3.702350">
        <ele>2085.0</ele>
        <time>2018-07-21T13:18:27Z</time>
      </trkpt>
      <trkpt lat="41.082900" lon="-3.702183">
        <ele>2086.0</ele>
        <time>2018-07-21T13:18:28Z</time>
      </trkpt>
      <trkpt lat="41.082933" lon="-3.702050">
        <ele>2088.0</ele>
        <time>2018-07-21T13:18:29Z</time>
      </trkpt>
      <trkpt lat="41.082967" lon="-3.701917">
        <ele>2090.0</ele>
        <time>2018-07-21T13:18:30Z</time>
      </trkpt>
      <trkpt lat="41.083033" lon="-3.701833">
        <ele>2092.0</ele>
        <time>2018-07-21T13:18:31Z</time>
      </trkpt>
      <trkpt lat="41.083100" lon="-3.701767">
        <ele>2093.0</ele>
        <time>2018-07-21T13:18:32Z</time>
      </trkpt>
      <trkpt lat="41.083183" lon="-3.701733">
        <ele>2095.0</ele>
        <time>2018-07-21T13:18:33Z</time>
      </trkpt>
      <trkpt lat="41.083250" lon="-3.701717">
        <ele>2096.0</ele>
        <time>2018-07-21T13:18:34Z</time>
      </trkpt>
      <trkpt lat="41.083300" lon="-3.701750">
        <ele>2098.0</ele>
        <time>2018-07-21T13:18:35Z</time>
      </trkpt>
      <trkpt lat="41.083317" lon="-3.701800">
        <ele>2099.0</ele>
        <time>2018-07-21T13:18:36Z</time>
      </trkpt>
      <trkpt lat="41.083333" lon="-3.701867">
        <ele>2099.0</ele>
        <time>2018-07-21T13:18:37Z</time>
      </trkpt>
      <trkpt lat="41.083300" lon="-3.701950">
        <ele>2100.0</ele>
        <time>2018-07-21T13:18:38Z</time>
      </trkpt>
      <trkpt lat="41.083250" lon="-3.702017">
        <ele>2100.0</ele>
        <time>2018-07-21T13:18:39Z</time>
      </trkpt>
      <trkpt lat="41.083167" lon="-3.702050">
        <ele>2100.0</ele>
        <time>2018-07-21T13:18:40Z</time>
      </trkpt>
      <trkpt lat="41.083067" lon="-3.702050">
        <ele>2100.0</ele>
        <time>2018-07-21T13:18:41Z</time>
      </trkpt>
      <trkpt lat="41.082967" lon="-3.702017">
        <ele>2101.0</ele>
        <time>2018-07-21T13:18:42Z</time>
      </trkpt>
      <trkpt lat="41.082867" lon="-3.701933">
        <ele>2100.0</ele>
        <time>2018-07-21T13:18:43Z</time>
      </trkpt>
      <trkpt lat="41.082750" lon="-3.701817">
        <ele>2100.0</ele>
        <time>2018-07-21T13:18:44Z</time>
      </trkpt>
      <trkpt lat="41.082667" lon="-3.701683">
        <ele>2101.0</ele>
        <time>2018-07-21T13:18:45Z</time>
      </trkpt>
      <trkpt lat="41.082600" lon="-3.701533">
        <ele>2102.0</ele>
        <time>2018-07-21T13:18:46Z</time>
      </trkpt>
      <trkpt lat="41.082550" lon="-3.701383">
        <ele>2105.0</ele>
        <time>2018-07-21T13:18:47Z</time>
      </trkpt>
      <trkpt lat="41.082533" lon="-3.701233">
        <ele>2108.0</ele>
        <time>2018-07-21T13:18:48Z</time>
      </trkpt>
      <trkpt lat="41.082517" lon="-3.701083">
        <ele>2110.0</ele>
        <time>2018-07-21T13:18:49Z</time>
      </trkpt>
      <trkpt lat="41.082517" lon="-3.700933">
        <ele>2111.0</ele>
        <time>2018-07-21T13:18:50Z</time>
      </trkpt>
      <trkpt lat="41.082533" lon="-3.700767">
        <ele>2111.0</ele>
        <time>2018-07-21T13:18:51Z</time>
      </trkpt>
      <trkpt lat="41.082583" lon="-3.700617">
        <ele>2112.0</ele>
        <time>2018-07-21T13:18:52Z</time>
      </trkpt>
      <trkpt lat="41.082633" lon="-3.700500">
        <ele>2112.0</ele>
        <time>2018-07-21T13:18:53Z</time>
      </trkpt>
      <trkpt lat="41.082717" lon="-3.700383">
        <ele>2113.0</ele>
        <time>2018-07-21T13:18:54Z</time>
      </trkpt>
      <trkpt lat="41.082800" lon="-3.700317">
        <ele>2114.0</ele>
        <time>2018-07-21T13:18:55Z</time>
      </trkpt>
      <trkpt lat="41.082883" lon="-3.700267">
        <ele>2116.0</ele>
        <time>2018-07-21T13:18:56Z</time>
      </trkpt>
      <trkpt lat="41.082967" lon="-3.700250">
        <ele>2118.0</ele>
        <time>2018-07-21T13:18:57Z</time>
      </trkpt>
      <trkpt lat="41.083033" lon="-3.700267">
        <ele>2120.0</ele>
        <time>2018-07-21T13:18:58Z</time>
      </trkpt>
      <trkpt lat="41.083083" lon="-3.700317">
        <ele>2121.0</ele>
        <time>2018-07-21T13:18:59Z</time>
      </trkpt>
      <trkpt lat="41.083100" lon="-3.700400">
        <ele>2120.0</ele>
        <time>2018-07-21T13:19:00Z</time>
      </trkpt>
      <trkpt lat="41.083100" lon="-3.700500">
        <ele>2120.0</ele>
        <time>2018-07-21T13:19:01Z</time>
      </trkpt>
      <trkpt lat="41.083050" lon="-3.700583">
        <ele>2120.0</ele>
        <time>2018-07-21T13:19:02Z</time>
      </trkpt>
      <trkpt lat="41.082967" lon="-3.700633">
        <ele>2120.0</ele>
        <time>2018-07-21T13:19:03Z</time>
      </trkpt>
      <trkpt lat="41.082867" lon="-3.700617">
        <ele>2121.0</ele>
        <time>2018-07-21T13:19:04Z</time>
      </trkpt>
      <trkpt lat="41.082750" lon="-3.700567">
        <ele>2121.0</ele>
        <time>2018-07-21T13:19:05Z</time>
      </trkpt>
      <trkpt lat="41.082650" lon="-3.700467">
        <ele>2121.0</ele>
        <time>2018-07-21T13:19:06Z</time>
      </trkpt>
      <trkpt lat="41.082567" lon="-3.700333">
        <ele>2121.0</ele>
        <time>2018-07-21T13:19:07Z</time>
      </trkpt>
      <trkpt lat="41.082500" lon="-3.700183">
        <ele>2122.0</ele>
        <time>2018-07-21T13:19:08Z</time>
      </trkpt>
      <trkpt lat="41.082450" lon="-3.700000">
        <ele>2122.0</ele>
        <time>2018-07-21T13:19:09Z</time>
      </trkpt>
      <trkpt lat="41.082417" lon="-3.699833">
        <ele>2122.0</ele>
        <time>2018-07-21T13:19:10Z</time>
      </trkpt>
      <trkpt lat="41.082417" lon="-3.699667">
        <ele>2122.0</ele>
        <time>2018-07-21T13:19:11Z</time>
      </trkpt>
      <trkpt lat="41.082450" lon="-3.699500">
        <ele>2124.0</ele>
        <time>2018-07-21T13:19:12Z</time>
      </trkpt>
      <trkpt lat="41.082483" lon="-3.699350">
        <ele>2125.0</ele>
        <time>2018-07-21T13:19:13Z</time>
      </trkpt>
      <trkpt lat="41.082550" lon="-3.699233">
        <ele>2126.0</ele>
        <time>2018-07-21T13:19:14Z</time>
      </trkpt>
      <trkpt lat="41.082600" lon="-3.699100">
        <ele>2127.0</ele>
        <time>2018-07-21T13:19:15Z</time>
      </trkpt>
      <trkpt lat="41.082650" lon="-3.698983">
        <ele>2129.0</ele>
        <time>2018-07-21T13:19:16Z</time>
      </trkpt>
      <trkpt lat="41.082717" lon="-3.698867">
        <ele>2131.0</ele>
        <time>2018-07-21T13:19:17Z</time>
      </trkpt>
      <trkpt lat="41.082767" lon="-3.698733">
        <ele>2132.0</ele>
        <time>2018-07-21T13:19:18Z</time>
      </trkpt>
      <trkpt lat="41.082817" lon="-3.698600">
        <ele>2133.0</ele>
        <time>2018-07-21T13:19:19Z</time>
      </trkpt>
      <trkpt lat="41.082883" lon="-3.698467">
        <ele>2135.0</ele>
        <time>2018-07-21T13:19:20Z</time>
      </trkpt>
      <trkpt lat="41.082950" lon="-3.698367">
        <ele>2136.0</ele>
        <time>2018-07-21T13:19:21Z</time>
      </trkpt>
      <trkpt lat="41.083017" lon="-3.698300">
        <ele>2138.0</ele>
        <time>2018-07-21T13:19:22Z</time>
      </trkpt>
      <trkpt lat="41.083100" lon="-3.698283">
        <ele>2139.0</ele>
        <time>2018-07-21T13:19:23Z</time>
      </trkpt>
      <trkpt lat="41.083167" lon="-3.698300">
        <ele>2140.0</ele>
        <time>2018-07-21T13:19:24Z</time>
      </trkpt>
      <trkpt lat="41.083233" lon="-3.698350">
        <ele>2141.0</ele>
        <time>2018-07-21T13:19:25Z</time>
      </trkpt>
      <trkpt lat="41.083250" lon="-3.698417">
        <ele>2143.0</ele>
        <time>2018-07-21T13:19:26Z</time>
      </trkpt>
      <trkpt lat="41.083250" lon="-3.698500">
        <ele>2146.0</ele>
        <time>2018-07-21T13:19:27Z</time>
      </trkpt>
      <trkpt lat="41.083200" lon="-3.698550">
        <ele>2148.0</ele>
        <time>2018-07-21T13:19:28Z</time>
      </trkpt>
      <trkpt lat="41.083133" lon="-3.698583">
        <ele>2150.0</ele>
        <time>2018-07-21T13:19:29Z</time>
      </trkpt>
      <trkpt lat="41.083017" lon="-3.698567">
        <ele>2151.0</ele>
        <time>2018-07-21T13:19:30Z</time>
      </trkpt>
      <trkpt lat="41.082900" lon="-3.698517">
        <ele>2151.0</ele>
        <time>2018-07-21T13:19:31Z</time>
      </trkpt>
      <trkpt lat="41.082800" lon="-3.698400">
        <ele>2151.0</ele>
        <time>2018-07-21T13:19:32Z</time>
      </trkpt>
      <trkpt lat="41.082700" lon="-3.698267">
        <ele>2152.0</ele>
        <time>2018-07-21T13:19:33Z</time>
      </trkpt>
      <trkpt lat="41.082633" lon="-3.698083">
        <ele>2154.0</ele>
        <time>2018-07-21T13:19:34Z</time>
      </trkpt>
      <trkpt lat="41.082600" lon="-3.697900">
        <ele>2155.0</ele>
        <time>2018-07-21T13:19:35Z</time>
      </trkpt>
      <trkpt lat="41.082600" lon="-3.697717">
        <ele>2156.0</ele>
        <time>2018-07-21T13:19:36Z</time>
      </trkpt>
      <trkpt lat="41.082617" lon="-3.697533">
        <ele>2158.0</ele>
        <time>2018-07-21T13:19:37Z</time>
      </trkpt>
      <trkpt lat="41.082667" lon="-3.697367">
        <ele>2160.0</ele>
        <time>2018-07-21T13:19:38Z</time>
      </trkpt>
      <trkpt lat="41.082717" lon="-3.697200">
        <ele>2163.0</ele>
        <time>2018-07-21T13:19:39Z</time>
      </trkpt>
      <trkpt lat="41.082783" lon="-3.697083">
        <ele>2167.0</ele>
        <time>2018-07-21T13:19:40Z</time>
      </trkpt>
      <trkpt lat="41.082850" lon="-3.697000">
        <ele>2170.0</ele>
        <time>2018-07-21T13:19:41Z</time>
      </trkpt>
      <trkpt lat="41.082917" lon="-3.696967">
        <ele>2173.0</ele>
        <time>2018-07-21T13:19:42Z</time>
      </trkpt>
      <trkpt lat="41.082983" lon="-3.696950">
        <ele>2174.0</ele>
        <time>2018-07-21T13:19:43Z</time>
      </trkpt>
      <trkpt lat="41.083050" lon="-3.696983">
        <ele>2175.0</ele>
        <time>2018-07-21T13:19:44Z</time>
      </trkpt>
      <trkpt lat="41.083083" lon="-3.697033">
        <ele>2176.0</ele>
        <time>2018-07-21T13:19:45Z</time>
      </trkpt>
      <trkpt lat="41.083067" lon="-3.697100">
        <ele>2178.0</ele>
        <time>2018-07-21T13:19:46Z</time>
      </trkpt>
      <trkpt lat="41.083033" lon="-3.697167">
        <ele>2180.0</ele>
        <time>2018-07-21T13:19:47Z</time>
      </trkpt>
      <trkpt lat="41.082967" lon="-3.697200">
        <ele>2183.0</ele>
        <time>2018-07-21T13:19:48Z</time>
      </trkpt>
      <trkpt lat="41.082867" lon="-3.697200">
        <ele>2186.0</ele>
        <time>2018-07-21T13:19:49Z</time>
      </trkpt>
      <trkpt lat="41.082767" lon="-3.697150">
        <ele>2188.0</ele>
        <time>2018-07-21T13:19:50Z</time>
      </trkpt>
      <trkpt lat="41.082667" lon="-3.697067">
        <ele>2188.0</ele>
        <time>2018-07-21T13:19:51Z</time>
      </trkpt>
      <trkpt lat="41.082567" lon="-3.696950">
        <ele>2189.0</ele>
        <time>2018-07-21T13:19:52Z</time>
      </trkpt>
      <trkpt lat="41.082483" lon="-3.696800">
        <ele>2190.0</ele>
        <time>2018-07-21T13:19:53Z</time>
      </trkpt>
      <trkpt lat="41.082400" lon="-3.696617">
        <ele>2191.0</ele>
        <time>2018-07-21T13:19:54Z</time>
      </trkpt>
      <trkpt lat="41.082367" lon="-3.696417">
        <ele>2194.0</ele>
        <time>2018-07-21T13:19:55Z</time>
      </trkpt>
      <trkpt lat="41.082350" lon="-3.696217">
        <ele>2196.0</ele>
        <time>2018-07-21T13:19:56Z</time>
      </trkpt>
      <trkpt lat="41.082367" lon="-3.696033">
        <ele>2199.0</ele>
        <time>2018-07-21T13:19:57Z</time>
      </trkpt>
      <trkpt lat="41.082417" lon="-3.695883">
        <ele>2202.0</ele>
        <time>2018-07-21T13:19:58Z</time>
      </trkpt>
      <trkpt lat="41.082467" lon="-3.695767">
        <ele>2204.0</ele>
        <time>2018-07-21T13:19:59Z</time>
      </trkpt>
      <trkpt lat="41.082533" lon="-3.695683">
        <ele>2205.0</ele>
        <time>2018-07-21T13:20:00Z</time>
      </trkpt>
      <trkpt lat="41.082617" lon="-3.695633">
        <ele>2206.0</ele>
        <time>2018-07-21T13:20:01Z</time>
      </trkpt>
      <trkpt lat="41.082700" lon="-3.695633">
        <ele>2206.0</ele>
        <time>2018-07-21T13:20:02Z</time>
      </trkpt>
      <trkpt lat="41.082783" lon="-3.695667">
        <ele>2205.0</ele>
        <time>2018-07-21T13:20:03Z</time>
      </trkpt>
      <trkpt lat="41.082817" lon="-3.695733">
        <ele>2206.0</ele>
        <time>2018-07-21T13:20:04Z</time>
      </trkpt>
      <trkpt lat="41.082817" lon="-3.695800">
        <ele>2208.0</ele>
        <time>2018-07-21T13:20:05Z</time>
      </trkpt>
      <trkpt lat="41.082783" lon="-3.695867">
        <ele>2209.0</ele>
        <time>2018-07-21T13:20:06Z</time>
      </trkpt>
      <trkpt lat="41.082717" lon="-3.695933">
        <ele>2210.0</ele>
        <time>2018-07-21T13:20:07Z</time>
      </trkpt>
      <trkpt lat="41.082617" lon="-3.695950">
        <ele>2211.0</ele>
        <time>2018-07-21T13:20:08Z</time>
      </trkpt>
      <trkpt lat="41.082517" lon="-3.695950">
        <ele>2213.0</ele>
        <time>2018-07-21T13:20:09Z</time>
      </trkpt>
      <trkpt lat="41.082400" lon="-3.695900">
        <ele>2215.0</ele>
        <time>2018-07-21T13:20:10Z</time>
      </trkpt>
      <trkpt lat="41.082300" lon="-3.695800">
        <ele>2217.0</ele>
        <time>2018-07-21T13:20:11Z</time>
      </trkpt>
      <trkpt lat="41.082217" lon="-3.695683">
        <ele>2219.0</ele>
        <time>2018-07-21T13:20:12Z</time>
      </trkpt>
      <trkpt lat="41.082150" lon="-3.695517">
        <ele>2220.0</ele>
        <time>2018-07-21T13:20:13Z</time>
      </trkpt>
      <trkpt lat="41.082117" lon="-3.695333">
        <ele>2222.0</ele>
        <time>2018-07-21T13:20:14Z</time>
      </trkpt>
      <trkpt lat="41.082133" lon="-3.695167">
        <ele>2224.0</ele>
        <time>2018-07-21T13:20:15Z</time>
      </trkpt>
      <trkpt lat="41.082167" lon="-3.695000">
        <ele>2224.0</ele>
        <time>2018-07-21T13:20:16Z</time>
      </trkpt>
      <trkpt lat="41.082233" lon="-3.694883">
        <ele>2225.0</ele>
        <time>2018-07-21T13:20:17Z</time>
      </trkpt>
      <trkpt lat="41.082317" lon="-3.694783">
        <ele>2225.0</ele>
        <time>2018-07-21T13:20:18Z</time>
      </trkpt>
      <trkpt lat="41.082400" lon="-3.694717">
        <ele>2225.0</ele>
        <time>2018-07-21T13:20:19Z</time>
      </trkpt>
      <trkpt lat="41.082483" lon="-3.694700">
        <ele>2226.0</ele>
        <time>2018-07-21T13:20:20Z</time>
      </trkpt>
      <trkpt lat="41.082567" lon="-3.694700">
        <ele>2226.0</ele>
        <time>2018-07-21T13:20:21Z</time>
      </trkpt>
      <trkpt lat="41.082617" lon="-3.694750">
        <ele>2227.0</ele>
        <time>2018-07-21T13:20:22Z</time>
      </trkpt>
      <trkpt lat="41.082667" lon="-3.694817">
        <ele>2227.0</ele>
        <time>2018-07-21T13:20:23Z</time>
      </trkpt>
      <trkpt lat="41.082667" lon="-3.694917">
        <ele>2228.0</ele>
        <time>2018-07-21T13:20:24Z</time>
      </trkpt>
      <trkpt lat="41.082650" lon="-3.695000">
        <ele>2228.0</ele>
        <time>2018-07-21T13:20:25Z</time>
      </trkpt>
      <trkpt lat="41.082583" lon="-3.695083">
        <ele>2229.0</ele>
        <time>2018-07-21T13:20:26Z</time>
      </trkpt>
      <trkpt lat="41.082500" lon="-3.695133">
        <ele>2229.0</ele>
        <time>2018-07-21T13:20:27Z</time>
      </trkpt>
      <trkpt lat="41.082400" lon="-3.695133">
        <ele>2231.0</ele>
        <time>2018-07-21T13:20:28Z</time>
      </trkpt>
      <trkpt lat="41.082283" lon="-3.695100">
        <ele>2232.0</ele>
        <time>2018-07-21T13:20:29Z</time>
      </trkpt>
      <trkpt lat="41.082183" lon="-3.695017">
        <ele>2233.0</ele>
        <time>2018-07-21T13:20:30Z</time>
      </trkpt>
      <trkpt lat="41.082083" lon="-3.694867">
        <ele>2235.0</ele>
        <time>2018-07-21T13:20:31Z</time>
      </trkpt>
      <trkpt lat="41.082033" lon="-3.694700">
        <ele>2237.0</ele>
        <time>2018-07-21T13:20:32Z</time>
      </trkpt>
      <trkpt lat="41.082000" lon="-3.694517">
        <ele>2239.0</ele>
        <time>2018-07-21T13:20:33Z</time>
      </trkpt>
      <trkpt lat="41.082000" lon="-3.694367">
        <ele>2242.0</ele>
        <time>2018-07-21T13:20:34Z</time>
      </trkpt>
      <trkpt lat="41.082017" lon="-3.694217">
        <ele>2245.0</ele>
        <time>2018-07-21T13:20:35Z</time>
      </trkpt>
      <trkpt lat="41.082050" lon="-3.694083">
        <ele>2247.0</ele>
        <time>2018-07-21T13:20:36Z</time>
      </trkpt>
      <trkpt lat="41.082100" lon="-3.693967">
        <ele>2247.0</ele>
        <time>2018-07-21T13:20:37Z</time>
      </trkpt>
      <trkpt lat="41.082167" lon="-3.693867">
        <ele>2247.0</ele>
        <time>2018-07-21T13:20:38Z</time>
      </trkpt>
      <trkpt lat="41.082250" lon="-3.693783">
        <ele>2247.0</ele>
        <time>2018-07-21T13:20:39Z</time>
      </trkpt>
      <trkpt lat="41.082333" lon="-3.693750">
        <ele>2246.0</ele>
        <time>2018-07-21T13:20:40Z</time>
      </trkpt>
      <trkpt lat="41.082433" lon="-3.693750">
        <ele>2246.0</ele>
        <time>2018-07-21T13:20:41Z</time>
      </trkpt>
      <trkpt lat="41.082500" lon="-3.693783">
        <ele>2246.0</ele>
        <time>2018-07-21T13:20:42Z</time>
      </trkpt>
      <trkpt lat="41.082567" lon="-3.693850">
        <ele>2246.0</ele>
        <time>2018-07-21T13:20:43Z</time>
      </trkpt>
      <trkpt lat="41.082583" lon="-3.693917">
        <ele>2247.0</ele>
        <time>2018-07-21T13:20:44Z</time>
      </trkpt>
      <trkpt lat="41.082600" lon="-3.694000">
        <ele>2248.0</ele>
        <time>2018-07-21T13:20:45Z</time>
      </trkpt>
      <trkpt lat="41.082583" lon="-3.694083">
        <ele>2249.0</ele>
        <time>2018-07-21T13:20:46Z</time>
      </trkpt>
      <trkpt lat="41.082533" lon="-3.694167">
        <ele>2249.0</ele>
        <time>2018-07-21T13:20:47Z</time>
      </trkpt>
      <trkpt lat="41.082467" lon="-3.694217">
        <ele>2249.0</ele>
        <time>2018-07-21T13:20:48Z</time>
      </trkpt>
      <trkpt lat="41.082367" lon="-3.694250">
        <ele>2249.0</ele>
        <time>2018-07-21T13:20:49Z</time>
      </trkpt>
      <trkpt lat="41.082267" lon="-3.694233">
        <ele>2249.0</ele>
        <time>2018-07-21T13:20:50Z</time>
      </trkpt>
      <trkpt lat="41.082167" lon="-3.694200">
        <ele>2249.0</ele>
        <time>2018-07-21T13:20:51Z</time>
      </trkpt>
      <trkpt lat="41.082067" lon="-3.694133">
        <ele>2250.0</ele>
        <time>2018-07-21T13:20:52Z</time>
      </trkpt>
      <trkpt lat="41.081967" lon="-3.694017">
        <ele>2250.0</ele>
        <time>2018-07-21T13:20:53Z</time>
      </trkpt>
      <trkpt lat="41.081900" lon="-3.693867">
        <ele>2251.0</ele>
        <time>2018-07-21T13:20:54Z</time>
      </trkpt>
      <trkpt lat="41.081850" lon="-3.693700">
        <ele>2251.0</ele>
        <time>2018-07-21T13:20:55Z</time>
      </trkpt>
      <trkpt lat="41.081850" lon="-3.693517">
        <ele>2252.0</ele>
        <time>2018-07-21T13:20:56Z</time>
      </trkpt>
      <trkpt lat="41.081867" lon="-3.693350">
        <ele>2253.0</ele>
        <time>2018-07-21T13:20:57Z</time>
      </trkpt>
      <trkpt lat="41.081900" lon="-3.693183">
        <ele>2255.0</ele>
        <time>2018-07-21T13:20:58Z</time>
      </trkpt>
      <trkpt lat="41.081917" lon="-3.693033">
        <ele>2257.0</ele>
        <time>2018-07-21T13:20:59Z</time>
      </trkpt>
      <trkpt lat="41.081933" lon="-3.692883">
        <ele>2259.0</ele>
        <time>2018-07-21T13:21:00Z</time>
      </trkpt>
      <trkpt lat="41.081967" lon="-3.692733">
        <ele>2260.0</ele>
        <time>2018-07-21T13:21:01Z</time>
      </trkpt>
      <trkpt lat="41.082033" lon="-3.692600">
        <ele>2261.0</ele>
        <time>2018-07-21T13:21:02Z</time>
      </trkpt>
      <trkpt lat="41.082100" lon="-3.692483">
        <ele>2262.0</ele>
        <time>2018-07-21T13:21:03Z</time>
      </trkpt>
      <trkpt lat="41.082200" lon="-3.692400">
        <ele>2262.0</ele>
        <time>2018-07-21T13:21:04Z</time>
      </trkpt>
      <trkpt lat="41.082283" lon="-3.692350">
        <ele>2262.0</ele>
        <time>2018-07-21T13:21:05Z</time>
      </trkpt>
      <trkpt lat="41.082367" lon="-3.692317">
        <ele>2262.0</ele>
        <time>2018-07-21T13:21:06Z</time>
      </trkpt>
      <trkpt lat="41.082433" lon="-3.692317">
        <ele>2263.0</ele>
        <time>2018-07-21T13:21:07Z</time>
      </trkpt>
      <trkpt lat="41.082500" lon="-3.692350">
        <ele>2263.0</ele>
        <time>2018-07-21T13:21:08Z</time>
      </trkpt>
      <trkpt lat="41.082533" lon="-3.692400">
        <ele>2262.0</ele>
        <time>2018-07-21T13:21:09Z</time>
      </trkpt>
      <trkpt lat="41.082550" lon="-3.692483">
        <ele>2262.0</ele>
        <time>2018-07-21T13:21:10Z</time>
      </trkpt>
      <trkpt lat="41.082533" lon="-3.692567">
        <ele>2261.0</ele>
        <time>2018-07-21T13:21:11Z</time>
      </trkpt>
      <trkpt lat="41.082500" lon="-3.692650">
        <ele>2260.0</ele>
        <time>2018-07-21T13:21:12Z</time>
      </trkpt>
      <trkpt lat="41.082417" lon="-3.692700">
        <ele>2260.0</ele>
        <time>2018-07-21T13:21:13Z</time>
      </trkpt>
      <trkpt lat="41.082333" lon="-3.692717">
        <ele>2259.0</ele>
        <time>2018-07-21T13:21:14Z</time>
      </trkpt>
      <trkpt lat="41.082233" lon="-3.692700">
        <ele>2259.0</ele>
        <time>2018-07-21T13:21:15Z</time>
      </trkpt>
      <trkpt lat="41.082133" lon="-3.692650">
        <ele>2259.0</ele>
        <time>2018-07-21T13:21:16Z</time>
      </trkpt>
      <trkpt lat="41.082033" lon="-3.692567">
        <ele>2259.0</ele>
        <time>2018-07-21T13:21:17Z</time>
      </trkpt>
      <trkpt lat="41.081933" lon="-3.692433">
        <ele>2258.0</ele>
        <time>2018-07-21T13:21:18Z</time>
      </trkpt>
      <trkpt lat="41.081867" lon="-3.692267">
        <ele>2257.0</ele>
        <time>2018-07-21T13:21:19Z</time>
      </trkpt>
      <trkpt lat="41.081833" lon="-3.692083">
        <ele>2256.0</ele>
        <time>2018-07-21T13:21:20Z</time>
      </trkpt>
      <trkpt lat="41.081850" lon="-3.691900">
        <ele>2256.0</ele>
        <time>2018-07-21T13:21:21Z</time>
      </trkpt>
      <trkpt lat="41.081883" lon="-3.691750">
        <ele>2257.0</ele>
        <time>2018-07-21T13:21:22Z</time>
      </trkpt>
      <trkpt lat="41.081933" lon="-3.691633">
        <ele>2258.0</ele>
        <time>2018-07-21T13:21:23Z</time>
      </trkpt>
      <trkpt lat="41.082017" lon="-3.691550">
        <ele>2258.0</ele>
        <time>2018-07-21T13:21:24Z</time>
      </trkpt>
      <trkpt lat="41.082083" lon="-3.691483">
        <ele>2259.0</ele>
        <time>2018-07-21T13:21:25Z</time>
      </trkpt>
      <trkpt lat="41.082167" lon="-3.691417">
        <ele>2258.0</ele>
        <time>2018-07-21T13:21:26Z</time>
      </trkpt>
      <trkpt lat="41.082233" lon="-3.691383">
        <ele>2259.0</ele>
        <time>2018-07-21T13:21:27Z</time>
      </trkpt>
      <trkpt lat="41.082317" lon="-3.691367">
        <ele>2258.0</ele>
        <time>2018-07-21T13:21:28Z</time>
      </trkpt>
      <trkpt lat="41.082383" lon="-3.691350">
        <ele>2257.0</ele>
        <time>2018-07-21T13:21:29Z</time>
      </trkpt>
      <trkpt lat="41.082450" lon="-3.691350">
        <ele>2256.0</ele>
        <time>2018-07-21T13:21:30Z</time>
      </trkpt>
      <trkpt lat="41.082517" lon="-3.691350">
        <ele>2255.0</ele>
        <time>2018-07-21T13:21:31Z</time>
      </trkpt>
      <trkpt lat="41.082567" lon="-3.691350">
        <ele>2253.0</ele>
        <time>2018-07-21T13:21:32Z</time>
      </trkpt>
      <trkpt lat="41.082633" lon="-3.691333">
        <ele>2252.0</ele>
        <time>2018-07-21T13:21:33Z</time>
      </trkpt>
      <trkpt lat="41.082717" lon="-3.691300">
        <ele>2249.0</ele>
        <time>2018-07-21T13:21:34Z</time>
      </trkpt>
      <trkpt lat="41.082800" lon="-3.691283">
        <ele>2246.0</ele>
        <time>2018-07-21T13:21:35Z</time>
      </trkpt>
      <trkpt lat="41.082883" lon="-3.691267">
        <ele>2242.0</ele>
        <time>2018-07-21T13:21:36Z</time>
      </trkpt>
      <trkpt lat="41.082967" lon="-3.691250">
        <ele>2240.0</ele>
        <time>2018-07-21T13:21:37Z</time>
      </trkpt>
      <trkpt lat="41.083050" lon="-3.691217">
        <ele>2238.0</ele>
        <time>2018-07-21T13:21:38Z</time>
      </trkpt>
      <trkpt lat="41.083133" lon="-3.691183">
        <ele>2236.0</ele>
        <time>2018-07-21T13:21:39Z</time>
      </trkpt>
      <trkpt lat="41.083217" lon="-3.691150">
        <ele>2234.0</ele>
        <time>2018-07-21T13:21:40Z</time>
      </trkpt>
      <trkpt lat="41.083300" lon="-3.691133">
        <ele>2231.0</ele>
        <time>2018-07-21T13:21:41Z</time>
      </trkpt>
      <trkpt lat="41.083367" lon="-3.691117">
        <ele>2228.0</ele>
        <time>2018-07-21T13:21:42Z</time>
      </trkpt>
      <trkpt lat="41.083450" lon="-3.691100">
        <ele>2225.0</ele>
        <time>2018-07-21T13:21:43Z</time>
      </trkpt>
      <trkpt lat="41.083517" lon="-3.691083">
        <ele>2223.0</ele>
        <time>2018-07-21T13:21:44Z</time>
      </trkpt>
      <trkpt lat="41.083583" lon="-3.691067">
        <ele>2221.0</ele>
        <time>2018-07-21T13:21:45Z</time>
      </trkpt>
      <trkpt lat="41.083667" lon="-3.691067">
        <ele>2218.0</ele>
        <time>2018-07-21T13:21:46Z</time>
      </trkpt>
      <trkpt lat="41.083750" lon="-3.691067">
        <ele>2214.0</ele>
        <time>2018-07-21T13:21:47Z</time>
      </trkpt>
      <trkpt lat="41.083817" lon="-3.691067">
        <ele>2211.0</ele>
        <time>2018-07-21T13:21:48Z</time>
      </trkpt>
      <trkpt lat="41.083900" lon="-3.691050">
        <ele>2209.0</ele>
        <time>2018-07-21T13:21:49Z</time>
      </trkpt>
      <trkpt lat="41.083967" lon="-3.691017">
        <ele>2207.0</ele>
        <time>2018-07-21T13:21:50Z</time>
      </trkpt>
      <trkpt lat="41.084033" lon="-3.691000">
        <ele>2204.0</ele>
        <time>2018-07-21T13:21:51Z</time>
      </trkpt>
      <trkpt lat="41.084100" lon="-3.690967">
        <ele>2201.0</ele>
        <time>2018-07-21T13:21:52Z</time>
      </trkpt>
      <trkpt lat="41.084183" lon="-3.690967">
        <ele>2197.0</ele>
        <time>2018-07-21T13:21:53Z</time>
      </trkpt>
      <trkpt lat="41.084267" lon="-3.690967">
        <ele>2193.0</ele>
        <time>2018-07-21T13:21:54Z</time>
      </trkpt>
      <trkpt lat="41.084350" lon="-3.690967">
        <ele>2189.0</ele>
        <time>2018-07-21T13:21:55Z</time>
      </trkpt>
      <trkpt lat="41.084417" lon="-3.690983">
        <ele>2186.0</ele>
        <time>2018-07-21T13:21:56Z</time>
      </trkpt>
      <trkpt lat="41.084500" lon="-3.690983">
        <ele>2183.0</ele>
        <time>2018-07-21T13:21:57Z</time>
      </trkpt>
      <trkpt lat="41.084567" lon="-3.690983">
        <ele>2181.0</ele>
        <time>2018-07-21T13:21:58Z</time>
      </trkpt>
      <trkpt lat="41.084650" lon="-3.690967">
        <ele>2179.0</ele>
        <time>2018-07-21T13:21:59Z</time>
      </trkpt>
      <trkpt lat="41.084717" lon="-3.690950">
        <ele>2176.0</ele>
        <time>2018-07-21T13:22:00Z</time>
      </trkpt>
      <trkpt lat="41.084817" lon="-3.690933">
        <ele>2173.0</ele>
        <time>2018-07-21T13:22:01Z</time>
      </trkpt>
      <trkpt lat="41.084900" lon="-3.690883">
        <ele>2170.0</ele>
        <time>2018-07-21T13:22:02Z</time>
      </trkpt>
      <trkpt lat="41.085000" lon="-3.690850">
        <ele>2167.0</ele>
        <time>2018-07-21T13:22:03Z</time>
      </trkpt>
      <trkpt lat="41.085083" lon="-3.690800">
        <ele>2166.0</ele>
        <time>2018-07-21T13:22:04Z</time>
      </trkpt>
      <trkpt lat="41.085167" lon="-3.690750">
        <ele>2164.0</ele>
        <time>2018-07-21T13:22:05Z</time>
      </trkpt>
      <trkpt lat="41.085250" lon="-3.690700">
        <ele>2162.0</ele>
        <time>2018-07-21T13:22:06Z</time>
      </trkpt>
      <trkpt lat="41.085333" lon="-3.690633">
        <ele>2160.0</ele>
        <time>2018-07-21T13:22:07Z</time>
      </trkpt>
      <trkpt lat="41.085417" lon="-3.690583">
        <ele>2158.0</ele>
        <time>2018-07-21T13:22:08Z</time>
      </trkpt>
      <trkpt lat="41.085500" lon="-3.690533">
        <ele>2156.0</ele>
        <time>2018-07-21T13:22:09Z</time>
      </trkpt>
      <trkpt lat="41.085567" lon="-3.690517">
        <ele>2154.0</ele>
        <time>2018-07-21T13:22:10Z</time>
      </trkpt>
      <trkpt lat="41.085650" lon="-3.690483">
        <ele>2151.0</ele>
        <time>2018-07-21T13:22:11Z</time>
      </trkpt>
      <trkpt lat="41.085733" lon="-3.690450">
        <ele>2149.0</ele>
        <time>2018-07-21T13:22:12Z</time>
      </trkpt>
      <trkpt lat="41.085817" lon="-3.690400">
        <ele>2147.0</ele>
        <time>2018-07-21T13:22:13Z</time>
      </trkpt>
      <trkpt lat="41.085900" lon="-3.690333">
        <ele>2146.0</ele>
        <time>2018-07-21T13:22:14Z</time>
      </trkpt>
      <trkpt lat="41.085983" lon="-3.690267">
        <ele>2145.0</ele>
        <time>2018-07-21T13:22:15Z</time>
      </trkpt>
      <trkpt lat="41.086067" lon="-3.690217">
        <ele>2144.0</ele>
        <time>2018-07-21T13:22:16Z</time>
      </trkpt>
      <trkpt lat="41.086133" lon="-3.690167">
        <ele>2143.0</ele>
        <time>2018-07-21T13:22:17Z</time>
      </trkpt>
      <trkpt lat="41.086217" lon="-3.690117">
        <ele>2142.0</ele>
        <time>2018-07-21T13:22:18Z</time>
      </trkpt>
      <trkpt lat="41.086300" lon="-3.690083">
        <ele>2140.0</ele>
        <time>2018-07-21T13:22:19Z</time>
      </trkpt>
      <trkpt lat="41.086367" lon="-3.690050">
        <ele>2138.0</ele>
        <time>2018-07-21T13:22:20Z</time>
      </trkpt>
      <trkpt lat="41.086450" lon="-3.690033">
        <ele>2136.0</ele>
        <time>2018-07-21T13:22:21Z</time>
      </trkpt>
      <trkpt lat="41.086533" lon="-3.690017">
        <ele>2134.0</ele>
        <time>2018-07-21T13:22:22Z</time>
      </trkpt>
      <trkpt lat="41.086617" lon="-3.690000">
        <ele>2132.0</ele>
        <time>2018-07-21T13:22:23Z</time>
      </trkpt>
      <trkpt lat="41.086683" lon="-3.689983">
        <ele>2129.0</ele>
        <time>2018-07-21T13:22:24Z</time>
      </trkpt>
      <trkpt lat="41.086767" lon="-3.689983">
        <ele>2128.0</ele>
        <time>2018-07-21T13:22:25Z</time>
      </trkpt>
      <trkpt lat="41.086850" lon="-3.689967">
        <ele>2126.0</ele>
        <time>2018-07-21T13:22:26Z</time>
      </trkpt>
      <trkpt lat="41.086933" lon="-3.689950">
        <ele>2124.0</ele>
        <time>2018-07-21T13:22:27Z</time>
      </trkpt>
      <trkpt lat="41.087000" lon="-3.689933">
        <ele>2122.0</ele>
        <time>2018-07-21T13:22:28Z</time>
      </trkpt>
      <trkpt lat="41.087083" lon="-3.689900">
        <ele>2119.0</ele>
        <time>2018-07-21T13:22:29Z</time>
      </trkpt>
      <trkpt lat="41.087183" lon="-3.689867">
        <ele>2116.0</ele>
        <time>2018-07-21T13:22:30Z</time>
      </trkpt>
      <trkpt lat="41.087267" lon="-3.689850">
        <ele>2113.0</ele>
        <time>2018-07-21T13:22:31Z</time>
      </trkpt>
      <trkpt lat="41.087350" lon="-3.689817">
        <ele>2111.0</ele>
        <time>2018-07-21T13:22:32Z</time>
      </trkpt>
      <trkpt lat="41.087433" lon="-3.689800">
        <ele>2109.0</ele>
        <time>2018-07-21T13:22:33Z</time>
      </trkpt>
      <trkpt lat="41.087517" lon="-3.689783">
        <ele>2107.0</ele>
        <time>2018-07-21T13:22:34Z</time>
      </trkpt>
      <trkpt lat="41.087583" lon="-3.689750">
        <ele>2106.0</ele>
        <time>2018-07-21T13:22:35Z</time>
      </trkpt>
      <trkpt lat="41.087667" lon="-3.689717">
        <ele>2104.0</ele>
        <time>2018-07-21T13:22:36Z</time>
      </trkpt>
      <trkpt lat="41.087750" lon="-3.689667">
        <ele>2102.0</ele>
        <time>2018-07-21T13:22:37Z</time>
      </trkpt>
      <trkpt lat="41.087817" lon="-3.689633">
        <ele>2100.0</ele>
        <time>2018-07-21T13:22:38Z</time>
      </trkpt>
      <trkpt lat="41.087900" lon="-3.689600">
        <ele>2099.0</ele>
        <time>2018-07-21T13:22:39Z</time>
      </trkpt>
      <trkpt lat="41.087967" lon="-3.689567">
        <ele>2098.0</ele>
        <time>2018-07-21T13:22:40Z</time>
      </trkpt>
      <trkpt lat="41.088050" lon="-3.689550">
        <ele>2096.0</ele>
        <time>2018-07-21T13:22:41Z</time>
      </trkpt>
      <trkpt lat="41.088117" lon="-3.689517">
        <ele>2094.0</ele>
        <time>2018-07-21T13:22:42Z</time>
      </trkpt>
      <trkpt lat="41.088200" lon="-3.689467">
        <ele>2092.0</ele>
        <time>2018-07-21T13:22:43Z</time>
      </trkpt>
      <trkpt lat="41.088267" lon="-3.689400">
        <ele>2090.0</ele>
        <time>2018-07-21T13:22:44Z</time>
      </trkpt>
      <trkpt lat="41.088350" lon="-3.689333">
        <ele>2088.0</ele>
        <time>2018-07-21T13:22:45Z</time>
      </trkpt>
      <trkpt lat="41.088417" lon="-3.689267">
        <ele>2086.0</ele>
        <time>2018-07-21T13:22:46Z</time>
      </trkpt>
      <trkpt lat="41.088500" lon="-3.689183">
        <ele>2084.0</ele>
        <time>2018-07-21T13:22:47Z</time>
      </trkpt>
      <trkpt lat="41.088567" lon="-3.689117">
        <ele>2082.0</ele>
        <time>2018-07-21T13:22:48Z</time>
      </trkpt>
      <trkpt lat="41.088650" lon="-3.689033">
        <ele>2080.0</ele>
        <time>2018-07-21T13:22:49Z</time>
      </trkpt>
      <trkpt lat="41.088733" lon="-3.688950">
        <ele>2079.0</ele>
        <time>2018-07-21T13:22:50Z</time>
      </trkpt>
      <trkpt lat="41.088800" lon="-3.688867">
        <ele>2077.0</ele>
        <time>2018-07-21T13:22:51Z</time>
      </trkpt>
      <trkpt lat="41.088883" lon="-3.688800">
        <ele>2076.0</ele>
        <time>2018-07-21T13:22:52Z</time>
      </trkpt>
      <trkpt lat="41.088967" lon="-3.688717">
        <ele>2074.0</ele>
        <time>2018-07-21T13:22:53Z</time>
      </trkpt>
      <trkpt lat="41.089050" lon="-3.688667">
        <ele>2073.0</ele>
        <time>2018-07-21T13:22:54Z</time>
      </trkpt>
      <trkpt lat="41.089133" lon="-3.688600">
        <ele>2072.0</ele>
        <time>2018-07-21T13:22:55Z</time>
      </trkpt>
      <trkpt lat="41.089200" lon="-3.688550">
        <ele>2070.0</ele>
        <time>2018-07-21T13:22:56Z</time>
      </trkpt>
      <trkpt lat="41.089283" lon="-3.688500">
        <ele>2069.0</ele>
        <time>2018-07-21T13:22:57Z</time>
      </trkpt>
      <trkpt lat="41.089367" lon="-3.688433">
        <ele>2067.0</ele>
        <time>2018-07-21T13:22:58Z</time>
      </trkpt>
      <trkpt lat="41.089450" lon="-3.688367">
        <ele>2066.0</ele>
        <time>2018-07-21T13:22:59Z</time>
      </trkpt>
      <trkpt lat="41.089533" lon="-3.688300">
        <ele>2064.0</ele>
        <time>2018-07-21T13:23:00Z</time>
      </trkpt>
      <trkpt lat="41.089617" lon="-3.688217">
        <ele>2062.0</ele>
        <time>2018-07-21T13:23:01Z</time>
      </trkpt>
      <trkpt lat="41.089700" lon="-3.688150">
        <ele>2060.0</ele>
        <time>2018-07-21T13:23:02Z</time>
      </trkpt>
      <trkpt lat="41.089783" lon="-3.688083">
        <ele>2059.0</ele>
        <time>2018-07-21T13:23:03Z</time>
      </trkpt>
      <trkpt lat="41.089867" lon="-3.688033">
        <ele>2059.0</ele>
        <time>2018-07-21T13:23:04Z</time>
      </trkpt>
      <trkpt lat="41.089933" lon="-3.687983">
        <ele>2058.0</ele>
        <time>2018-07-21T13:23:05Z</time>
      </trkpt>
      <trkpt lat="41.090017" lon="-3.687917">
        <ele>2057.0</ele>
        <time>2018-07-21T13:23:06Z</time>
      </trkpt>
      <trkpt lat="41.090083" lon="-3.687850">
        <ele>2056.0</ele>
        <time>2018-07-21T13:23:07Z</time>
      </trkpt>
      <trkpt lat="41.090167" lon="-3.687783">
        <ele>2054.0</ele>
        <time>2018-07-21T13:23:08Z</time>
      </trkpt>
      <trkpt lat="41.090233" lon="-3.687733">
        <ele>2052.0</ele>
        <time>2018-07-21T13:23:09Z</time>
      </trkpt>
      <trkpt lat="41.090317" lon="-3.687683">
        <ele>2050.0</ele>
        <time>2018-07-21T13:23:10Z</time>
      </trkpt>
      <trkpt lat="41.090400" lon="-3.687633">
        <ele>2049.0</ele>
        <time>2018-07-21T13:23:11Z</time>
      </trkpt>
      <trkpt lat="41.090467" lon="-3.687583">
        <ele>2047.0</ele>
        <time>2018-07-21T13:23:12Z</time>
      </trkpt>
      <trkpt lat="41.090550" lon="-3.687517">
        <ele>2045.0</ele>
        <time>2018-07-21T13:23:13Z</time>
      </trkpt>
      <trkpt lat="41.090633" lon="-3.687450">
        <ele>2043.0</ele>
        <time>2018-07-21T13:23:14Z</time>
      </trkpt>
      <trkpt lat="41.090700" lon="-3.687383">
        <ele>2041.0</ele>
        <time>2018-07-21T13:23:15Z</time>
      </trkpt>
      <trkpt lat="41.090783" lon="-3.687317">
        <ele>2038.0</ele>
        <time>2018-07-21T13:23:16Z</time>
      </trkpt>
      <trkpt lat="41.090867" lon="-3.687250">
        <ele>2035.0</ele>
        <time>2018-07-21T13:23:17Z</time>
      </trkpt>
      <trkpt lat="41.090950" lon="-3.687183">
        <ele>2033.0</ele>
        <time>2018-07-21T13:23:18Z</time>
      </trkpt>
      <trkpt lat="41.091033" lon="-3.687133">
        <ele>2031.0</ele>
        <time>2018-07-21T13:23:19Z</time>
      </trkpt>
      <trkpt lat="41.091117" lon="-3.687083">
        <ele>2029.0</ele>
        <time>2018-07-21T13:23:20Z</time>
      </trkpt>
      <trkpt lat="41.091200" lon="-3.687033">
        <ele>2027.0</ele>
        <time>2018-07-21T13:23:21Z</time>
      </trkpt>
      <trkpt lat="41.091283" lon="-3.686983">
        <ele>2025.0</ele>
        <time>2018-07-21T13:23:22Z</time>
      </trkpt>
      <trkpt lat="41.091367" lon="-3.686950">
        <ele>2023.0</ele>
        <time>2018-07-21T13:23:23Z</time>
      </trkpt>
      <trkpt lat="41.091450" lon="-3.686900">
        <ele>2021.0</ele>
        <time>2018-07-21T13:23:24Z</time>
      </trkpt>
      <trkpt lat="41.091533" lon="-3.686850">
        <ele>2019.0</ele>
        <time>2018-07-21T13:23:25Z</time>
      </trkpt>
      <trkpt lat="41.091617" lon="-3.686800">
        <ele>2018.0</ele>
        <time>2018-07-21T13:23:26Z</time>
      </trkpt>
      <trkpt lat="41.091683" lon="-3.686750">
        <ele>2016.0</ele>
        <time>2018-07-21T13:23:27Z</time>
      </trkpt>
      <trkpt lat="41.091767" lon="-3.686700">
        <ele>2016.0</ele>
        <time>2018-07-21T13:23:28Z</time>
      </trkpt>
      <trkpt lat="41.091833" lon="-3.686650">
        <ele>2015.0</ele>
        <time>2018-07-21T13:23:29Z</time>
      </trkpt>
      <trkpt lat="41.091917" lon="-3.686600">
        <ele>2014.0</ele>
        <time>2018-07-21T13:23:30Z</time>
      </trkpt>
      <trkpt lat="41.092000" lon="-3.686533">
        <ele>2014.0</ele>
        <time>2018-07-21T13:23:31Z</time>
      </trkpt>
      <trkpt lat="41.092100" lon="-3.686467">
        <ele>2014.0</ele>
        <time>2018-07-21T13:23:32Z</time>
      </trkpt>
      <trkpt lat="41.092183" lon="-3.686433">
        <ele>2015.0</ele>
        <time>2018-07-21T13:23:33Z</time>
      </trkpt>
      <trkpt lat="41.092267" lon="-3.686400">
        <ele>2015.0</ele>
        <time>2018-07-21T13:23:34Z</time>
      </trkpt>
      <trkpt lat="41.092350" lon="-3.686367">
        <ele>2016.0</ele>
        <time>2018-07-21T13:23:35Z</time>
      </trkpt>
      <trkpt lat="41.092417" lon="-3.686317">
        <ele>2016.0</ele>
        <time>2018-07-21T13:23:36Z</time>
      </trkpt>
      <trkpt lat="41.092467" lon="-3.686267">
        <ele>2016.0</ele>
        <time>2018-07-21T13:23:37Z</time>
      </trkpt>
      <trkpt lat="41.092533" lon="-3.686233">
        <ele>2015.0</ele>
        <time>2018-07-21T13:23:38Z</time>
      </trkpt>
      <trkpt lat="41.092617" lon="-3.686183">
        <ele>2014.0</ele>
        <time>2018-07-21T13:23:39Z</time>
      </trkpt>
      <trkpt lat="41.092700" lon="-3.686150">
        <ele>2012.0</ele>
        <time>2018-07-21T13:23:40Z</time>
      </trkpt>
      <trkpt lat="41.092783" lon="-3.686117">
        <ele>2011.0</ele>
        <time>2018-07-21T13:23:41Z</time>
      </trkpt>
      <trkpt lat="41.092883" lon="-3.686067">
        <ele>2011.0</ele>
        <time>2018-07-21T13:23:42Z</time>
      </trkpt>
      <trkpt lat="41.092967" lon="-3.686017">
        <ele>2013.0</ele>
        <time>2018-07-21T13:23:43Z</time>
      </trkpt>
      <trkpt lat="41.093050" lon="-3.685967">
        <ele>2016.0</ele>
        <time>2018-07-21T13:23:44Z</time>
      </trkpt>
      <trkpt lat="41.093117" lon="-3.685900">
        <ele>2018.0</ele>
        <time>2018-07-21T13:23:45Z</time>
      </trkpt>
      <trkpt lat="41.093183" lon="-3.685850">
        <ele>2019.0</ele>
        <time>2018-07-21T13:23:46Z</time>
      </trkpt>
      <trkpt lat="41.093250" lon="-3.685783">
        <ele>2019.0</ele>
        <time>2018-07-21T13:23:47Z</time>
      </trkpt>
      <trkpt lat="41.093333" lon="-3.685750">
        <ele>2019.0</ele>
        <time>2018-07-21T13:23:48Z</time>
      </trkpt>
      <trkpt lat="41.093417" lon="-3.685700">
        <ele>2018.0</ele>
        <time>2018-07-21T13:23:49Z</time>
      </trkpt>
      <trkpt lat="41.093500" lon="-3.685667">
        <ele>2016.0</ele>
        <time>2018-07-21T13:23:50Z</time>
      </trkpt>
      <trkpt lat="41.093583" lon="-3.685617">
        <ele>2015.0</ele>
        <time>2018-07-21T13:23:51Z</time>
      </trkpt>
      <trkpt lat="41.093650" lon="-3.685583">
        <ele>2014.0</ele>
        <time>2018-07-21T13:23:52Z</time>
      </trkpt>
      <trkpt lat="41.093733" lon="-3.685533">
        <ele>2012.0</ele>
        <time>2018-07-21T13:23:53Z</time>
      </trkpt>
      <trkpt lat="41.093800" lon="-3.685467">
        <ele>2010.0</ele>
        <time>2018-07-21T13:23:54Z</time>
      </trkpt>
      <trkpt lat="41.093883" lon="-3.685400">
        <ele>2007.0</ele>
        <time>2018-07-21T13:23:55Z</time>
      </trkpt>
      <trkpt lat="41.093967" lon="-3.685333">
        <ele>2004.0</ele>
        <time>2018-07-21T13:23:56Z</time>
      </trkpt>
      <trkpt lat="41.094067" lon="-3.685267">
        <ele>2001.0</ele>
        <time>2018-07-21T13:23:57Z</time>
      </trkpt>
      <trkpt lat="41.094167" lon="-3.685200">
        <ele>1998.0</ele>
        <time>2018-07-21T13:23:58Z</time>
      </trkpt>
      <trkpt lat="41.094250" lon="-3.685133">
        <ele>1996.0</ele>
        <time>2018-07-21T13:23:59Z</time>
      </trkpt>
      <trkpt lat="41.094350" lon="-3.685067">
        <ele>1996.0</ele>
        <time>2018-07-21T13:24:00Z</time>
      </trkpt>
      <trkpt lat="41.094433" lon="-3.685017">
        <ele>1996.0</ele>
        <time>2018-07-21T13:24:01Z</time>
      </trkpt>
      <trkpt lat="41.094517" lon="-3.684967">
        <ele>1995.0</ele>
        <time>2018-07-21T13:24:02Z</time>
      </trkpt>
      <trkpt lat="41.094600" lon="-3.684900">
        <ele>1993.0</ele>
        <time>2018-07-21T13:24:03Z</time>
      </trkpt>
      <trkpt lat="41.094700" lon="-3.684850">
        <ele>1991.0</ele>
        <time>2018-07-21T13:24:04Z</time>
      </trkpt>
      <trkpt lat="41.094817" lon="-3.684783">
        <ele>1988.0</ele>
        <time>2018-07-21T13:24:05Z</time>
      </trkpt>
      <trkpt lat="41.094933" lon="-3.684733">
        <ele>1986.0</ele>
        <time>2018-07-21T13:24:06Z</time>
      </trkpt>
      <trkpt lat="41.095033" lon="-3.684667">
        <ele>1985.0</ele>
        <time>2018-07-21T13:24:07Z</time>
      </trkpt>
      <trkpt lat="41.095133" lon="-3.684617">
        <ele>1985.0</ele>
        <time>2018-07-21T13:24:08Z</time>
      </trkpt>
      <trkpt lat="41.095217" lon="-3.684533">
        <ele>1985.0</ele>
        <time>2018-07-21T13:24:09Z</time>
      </trkpt>
      <trkpt lat="41.095300" lon="-3.684467">
        <ele>1986.0</ele>
        <time>2018-07-21T13:24:10Z</time>
      </trkpt>
      <trkpt lat="41.095383" lon="-3.684400">
        <ele>1986.0</ele>
        <time>2018-07-21T13:24:11Z</time>
      </trkpt>
      <trkpt lat="41.095483" lon="-3.684350">
        <ele>1986.0</ele>
        <time>2018-07-21T13:24:12Z</time>
      </trkpt>
      <trkpt lat="41.095583" lon="-3.684317">
        <ele>1985.0</ele>
        <time>2018-07-21T13:24:13Z</time>
      </trkpt>
      <trkpt lat="41.095667" lon="-3.684283">
        <ele>1985.0</ele>
        <time>2018-07-21T13:24:14Z</time>
      </trkpt>
      <trkpt lat="41.095750" lon="-3.684233">
        <ele>1986.0</ele>
        <time>2018-07-21T13:24:15Z</time>
      </trkpt>
      <trkpt lat="41.095833" lon="-3.684183">
        <ele>1985.0</ele>
        <time>2018-07-21T13:24:16Z</time>
      </trkpt>
      <trkpt lat="41.095917" lon="-3.684100">
        <ele>1985.0</ele>
        <time>2018-07-21T13:24:17Z</time>
      </trkpt>
      <trkpt lat="41.096000" lon="-3.684017">
        <ele>1984.0</ele>
        <time>2018-07-21T13:24:18Z</time>
      </trkpt>
      <trkpt lat="41.096083" lon="-3.683933">
        <ele>1985.0</ele>
        <time>2018-07-21T13:24:19Z</time>
      </trkpt>
      <trkpt lat="41.096150" lon="-3.683850">
        <ele>1986.0</ele>
        <time>2018-07-21T13:24:20Z</time>
      </trkpt>
      <trkpt lat="41.096217" lon="-3.683767">
        <ele>1987.0</ele>
        <time>2018-07-21T13:24:21Z</time>
      </trkpt>
      <trkpt lat="41.096283" lon="-3.683667">
        <ele>1987.0</ele>
        <time>2018-07-21T13:24:22Z</time>
      </trkpt>
      <trkpt lat="41.096350" lon="-3.683567">
        <ele>1987.0</ele>
        <time>2018-07-21T13:24:23Z</time>
      </trkpt>
      <trkpt lat="41.096417" lon="-3.683467">
        <ele>1988.0</ele>
        <time>2018-07-21T13:24:24Z</time>
      </trkpt>
      <trkpt lat="41.096467" lon="-3.683367">
        <ele>1989.0</ele>
        <time>2018-07-21T13:24:25Z</time>
      </trkpt>
      <trkpt lat="41.096533" lon="-3.683283">
        <ele>1991.0</ele>
        <time>2018-07-21T13:24:26Z</time>
      </trkpt>
      <trkpt lat="41.096600" lon="-3.683183">
        <ele>1992.0</ele>
        <time>2018-07-21T13:24:27Z</time>
      </trkpt>
      <trkpt lat="41.096683" lon="-3.683100">
        <ele>1992.0</ele>
        <time>2018-07-21T13:24:28Z</time>
      </trkpt>
      <trkpt lat="41.096750" lon="-3.683000">
        <ele>1992.0</ele>
        <time>2018-07-21T13:24:29Z</time>
      </trkpt>
      <trkpt lat="41.096817" lon="-3.682867">
        <ele>1992.0</ele>
        <time>2018-07-21T13:24:30Z</time>
      </trkpt>
      <trkpt lat="41.096867" lon="-3.682717">
        <ele>1992.0</ele>
        <time>2018-07-21T13:24:31Z</time>
      </trkpt>
      <trkpt lat="41.096900" lon="-3.682533">
        <ele>1993.0</ele>
        <time>2018-07-21T13:24:32Z</time>
      </trkpt>
      <trkpt lat="41.096900" lon="-3.682367">
        <ele>1994.0</ele>
        <time>2018-07-21T13:24:33Z</time>
      </trkpt>
      <trkpt lat="41.096900" lon="-3.682183">
        <ele>1996.0</ele>
        <time>2018-07-21T13:24:34Z</time>
      </trkpt>
      <trkpt lat="41.096867" lon="-3.682017">
        <ele>1997.0</ele>
        <time>2018-07-21T13:24:35Z</time>
      </trkpt>
      <trkpt lat="41.096817" lon="-3.681850">
        <ele>1997.0</ele>
        <time>2018-07-21T13:24:36Z</time>
      </trkpt>
      <trkpt lat="41.096767" lon="-3.681683">
        <ele>1998.0</ele>
        <time>2018-07-21T13:24:37Z</time>
      </trkpt>
      <trkpt lat="41.096683" lon="-3.681533">
        <ele>1998.0</ele>
        <time>2018-07-21T13:24:38Z</time>
      </trkpt>
      <trkpt lat="41.096600" lon="-3.681400">
        <ele>1998.0</ele>
        <time>2018-07-21T13:24:39Z</time>
      </trkpt>
      <trkpt lat="41.096483" lon="-3.681300">
        <ele>1998.0</ele>
        <time>2018-07-21T13:24:40Z</time>
      </trkpt>
      <trkpt lat="41.096383" lon="-3.681250">
        <ele>1998.0</ele>
        <time>2018-07-21T13:24:41Z</time>
      </trkpt>
      <trkpt lat="41.096283" lon="-3.681233">
        <ele>1998.0</ele>
        <time>2018-07-21T13:24:42Z</time>
      </trkpt>
      <trkpt lat="41.096200" lon="-3.681250">
        <ele>1999.0</ele>
        <time>2018-07-21T13:24:43Z</time>
      </trkpt>
      <trkpt lat="41.096133" lon="-3.681283">
        <ele>2001.0</ele>
        <time>2018-07-21T13:24:44Z</time>
      </trkpt>
      <trkpt lat="41.096100" lon="-3.681333">
        <ele>2002.0</ele>
        <time>2018-07-21T13:24:45Z</time>
      </trkpt>
      <trkpt lat="41.096067" lon="-3.681417">
        <ele>2002.0</ele>
        <time>2018-07-21T13:24:46Z</time>
      </trkpt>
      <trkpt lat="41.096067" lon="-3.681483">
        <ele>2002.0</ele>
        <time>2018-07-21T13:24:47Z</time>
      </trkpt>
      <trkpt lat="41.096083" lon="-3.681550">
        <ele>2002.0</ele>
        <time>2018-07-21T13:24:48Z</time>
      </trkpt>
      <trkpt lat="41.096117" lon="-3.681617">
        <ele>2003.0</ele>
        <time>2018-07-21T13:24:49Z</time>
      </trkpt>
      <trkpt lat="41.096167" lon="-3.681667">
        <ele>2003.0</ele>
        <time>2018-07-21T13:24:50Z</time>
      </trkpt>
      <trkpt lat="41.096250" lon="-3.681700">
        <ele>2003.0</ele>
        <time>2018-07-21T13:24:51Z</time>
      </trkpt>
      <trkpt lat="41.096333" lon="-3.681717">
        <ele>2003.0</ele>
        <time>2018-07-21T13:24:52Z</time>
      </trkpt>
      <trkpt lat="41.096417" lon="-3.681700">
        <ele>2005.0</ele>
        <time>2018-07-21T13:24:53Z</time>
      </trkpt>
      <trkpt lat="41.096500" lon="-3.681667">
        <ele>2007.0</ele>
        <time>2018-07-21T13:24:54Z</time>
      </trkpt>
      <trkpt lat="41.096583" lon="-3.681633">
        <ele>2009.0</ele>
        <time>2018-07-21T13:24:55Z</time>
      </trkpt>
      <trkpt lat="41.096667" lon="-3.681583">
        <ele>2012.0</ele>
        <time>2018-07-21T13:24:56Z</time>
      </trkpt>
      <trkpt lat="41.096750" lon="-3.681533">
        <ele>2013.0</ele>
        <time>2018-07-21T13:24:57Z</time>
      </trkpt>
      <trkpt lat="41.096833" lon="-3.681483">
        <ele>2016.0</ele>
        <time>2018-07-21T13:24:58Z</time>
      </trkpt>
      <trkpt lat="41.096933" lon="-3.681450">
        <ele>2018.0</ele>
        <time>2018-07-21T13:24:59Z</time>
      </trkpt>
      <trkpt lat="41.097017" lon="-3.681417">
        <ele>2020.0</ele>
        <time>2018-07-21T13:25:00Z</time>
      </trkpt>
      <trkpt lat="41.097117" lon="-3.681350">
        <ele>2024.0</ele>
        <time>2018-07-21T13:25:01Z</time>
      </trkpt>
      <trkpt lat="41.097183" lon="-3.681283">
        <ele>2028.0</ele>
        <time>2018-07-21T13:25:02Z</time>
      </trkpt>
      <trkpt lat="41.097250" lon="-3.681183">
        <ele>2031.0</ele>
        <time>2018-07-21T13:25:03Z</time>
      </trkpt>
      <trkpt lat="41.097317" lon="-3.681083">
        <ele>2034.0</ele>
        <time>2018-07-21T13:25:04Z</time>
      </trkpt>
      <trkpt lat="41.097383" lon="-3.680983">
        <ele>2038.0</ele>
        <time>2018-07-21T13:25:05Z</time>
      </trkpt>
      <trkpt lat="41.097433" lon="-3.680883">
        <ele>2040.0</ele>
        <time>2018-07-21T13:25:06Z</time>
      </trkpt>
      <trkpt lat="41.097483" lon="-3.680750">
        <ele>2042.0</ele>
        <time>2018-07-21T13:25:07Z</time>
      </trkpt>
      <trkpt lat="41.097500" lon="-3.680567">
        <ele>2044.0</ele>
        <time>2018-07-21T13:25:08Z</time>
      </trkpt>
      <trkpt lat="41.097467" lon="-3.680367">
        <ele>2044.0</ele>
        <time>2018-07-21T13:25:09Z</time>
      </trkpt>
      <trkpt lat="41.097383" lon="-3.680183">
        <ele>2045.0</ele>
        <time>2018-07-21T13:25:10Z</time>
      </trkpt>
      <trkpt lat="41.097267" lon="-3.680067">
        <ele>2046.0</ele>
        <time>2018-07-21T13:25:11Z</time>
      </trkpt>
      <trkpt lat="41.097150" lon="-3.679983">
        <ele>2048.0</ele>
        <time>2018-07-21T13:25:12Z</time>
      </trkpt>
      <trkpt lat="41.097033" lon="-3.679967">
        <ele>2051.0</ele>
        <time>2018-07-21T13:25:13Z</time>
      </trkpt>
      <trkpt lat="41.096933" lon="-3.680000">
        <ele>2054.0</ele>
        <time>2018-07-21T13:25:14Z</time>
      </trkpt>
      <trkpt lat="41.096867" lon="-3.680033">
        <ele>2057.0</ele>
        <time>2018-07-21T13:25:15Z</time>
      </trkpt>
      <trkpt lat="41.096817" lon="-3.680067">
        <ele>2061.0</ele>
        <time>2018-07-21T13:25:16Z</time>
      </trkpt>
      <trkpt lat="41.096783" lon="-3.680117">
        <ele>2064.0</ele>
        <time>2018-07-21T13:25:17Z</time>
      </trkpt>
      <trkpt lat="41.096783" lon="-3.680183">
        <ele>2065.0</ele>
        <time>2018-07-21T13:25:18Z</time>
      </trkpt>
      <trkpt lat="41.096817" lon="-3.680250">
        <ele>2065.0</ele>
        <time>2018-07-21T13:25:19Z</time>
      </trkpt>
      <trkpt lat="41.096900" lon="-3.680300">
        <ele>2065.0</ele>
        <time>2018-07-21T13:25:20Z</time>
      </trkpt>
      <trkpt lat="41.096983" lon="-3.680317">
        <ele>2066.0</ele>
        <time>2018-07-21T13:25:21Z</time>
      </trkpt>
      <trkpt lat="41.097050" lon="-3.680317">
        <ele>2070.0</ele>
        <time>2018-07-21T13:25:22Z</time>
      </trkpt>
      <trkpt lat="41.097117" lon="-3.680283">
        <ele>2075.0</ele>
        <time>2018-07-21T13:25:23Z</time>
      </trkpt>
      <trkpt lat="41.097167" lon="-3.680250">
        <ele>2079.0</ele>
        <time>2018-07-21T13:25:24Z</time>
      </trkpt>
      <trkpt lat="41.097233" lon="-3.680183">
        <ele>2083.0</ele>
        <time>2018-07-21T13:25:25Z</time>
      </trkpt>
      <trkpt lat="41.097300" lon="-3.680100">
        <ele>2085.0</ele>
        <time>2018-07-21T13:25:26Z</time>
      </trkpt>
      <trkpt lat="41.097367" lon="-3.679983">
        <ele>2087.0</ele>
        <time>2018-07-21T13:25:27Z</time>
      </trkpt>
      <trkpt lat="41.097433" lon="-3.679850">
        <ele>2089.0</ele>
        <time>2018-07-21T13:25:28Z</time>
      </trkpt>
      <trkpt lat="41.097500" lon="-3.679700">
        <ele>2092.0</ele>
        <time>2018-07-21T13:25:29Z</time>
      </trkpt>
      <trkpt lat="41.097567" lon="-3.679567">
        <ele>2095.0</ele>
        <time>2018-07-21T13:25:30Z</time>
      </trkpt>
      <trkpt lat="41.097650" lon="-3.679417">
        <ele>2099.0</ele>
        <time>2018-07-21T13:25:31Z</time>
      </trkpt>
      <trkpt lat="41.097717" lon="-3.679283">
        <ele>2103.0</ele>
        <time>2018-07-21T13:25:32Z</time>
      </trkpt>
      <trkpt lat="41.097767" lon="-3.679167">
        <ele>2107.0</ele>
        <time>2018-07-21T13:25:33Z</time>
      </trkpt>
      <trkpt lat="41.097833" lon="-3.679050">
        <ele>2112.0</ele>
        <time>2018-07-21T13:25:34Z</time>
      </trkpt>
      <trkpt lat="41.097900" lon="-3.678917">
        <ele>2116.0</ele>
        <time>2018-07-21T13:25:35Z</time>
      </trkpt>
      <trkpt lat="41.097967" lon="-3.678800">
        <ele>2119.0</ele>
        <time>2018-07-21T13:25:36Z</time>
      </trkpt>
      <trkpt lat="41.098017" lon="-3.678650">
        <ele>2122.0</ele>
        <time>2018-07-21T13:25:37Z</time>
      </trkpt>
      <trkpt lat="41.098050" lon="-3.678483">
        <ele>2125.0</ele>
        <time>2018-07-21T13:25:38Z</time>
      </trkpt>
      <trkpt lat="41.098050" lon="-3.678283">
        <ele>2127.0</ele>
        <time>2018-07-21T13:25:39Z</time>
      </trkpt>
      <trkpt lat="41.098017" lon="-3.678100">
        <ele>2129.0</ele>
        <time>2018-07-21T13:25:40Z</time>
      </trkpt>
      <trkpt lat="41.097950" lon="-3.677933">
        <ele>2131.0</ele>
        <time>2018-07-21T13:25:41Z</time>
      </trkpt>
      <trkpt lat="41.097850" lon="-3.677833">
        <ele>2134.0</ele>
        <time>2018-07-21T13:25:42Z</time>
      </trkpt>
      <trkpt lat="41.097733" lon="-3.677783">
        <ele>2136.0</ele>
        <time>2018-07-21T13:25:43Z</time>
      </trkpt>
      <trkpt lat="41.097650" lon="-3.677800">
        <ele>2138.0</ele>
        <time>2018-07-21T13:25:44Z</time>
      </trkpt>
      <trkpt lat="41.097567" lon="-3.677833">
        <ele>2140.0</ele>
        <time>2018-07-21T13:25:45Z</time>
      </trkpt>
      <trkpt lat="41.097533" lon="-3.677900">
        <ele>2142.0</ele>
        <time>2018-07-21T13:25:46Z</time>
      </trkpt>
      <trkpt lat="41.097517" lon="-3.677967">
        <ele>2145.0</ele>
        <time>2018-07-21T13:25:47Z</time>
      </trkpt>
      <trkpt lat="41.097533" lon="-3.678033">
        <ele>2147.0</ele>
        <time>2018-07-21T13:25:48Z</time>
      </trkpt>
      <trkpt lat="41.097567" lon="-3.678100">
        <ele>2148.0</ele>
        <time>2018-07-21T13:25:49Z</time>
      </trkpt>
      <trkpt lat="41.097650" lon="-3.678150">
        <ele>2150.0</ele>
        <time>2018-07-21T13:25:50Z</time>
      </trkpt>
      <trkpt lat="41.097750" lon="-3.678167">
        <ele>2153.0</ele>
        <time>2018-07-21T13:25:51Z</time>
      </trkpt>
      <trkpt lat="41.097850" lon="-3.678133">
        <ele>2157.0</ele>
        <time>2018-07-21T13:25:52Z</time>
      </trkpt>
      <trkpt lat="41.097933" lon="-3.678050">
        <ele>2162.0</ele>
        <time>2018-07-21T13:25:53Z</time>
      </trkpt>
      <trkpt lat="41.098000" lon="-3.677967">
        <ele>2166.0</ele>
        <time>2018-07-21T13:25:54Z</time>
      </trkpt>
      <trkpt lat="41.098067" lon="-3.677850">
        <ele>2170.0</ele>
        <time>2018-07-21T13:25:55Z</time>
      </trkpt>
      <trkpt lat="41.098133" lon="-3.677733">
        <ele>2173.0</ele>
        <time>2018-07-21T13:25:56Z</time>
      </trkpt>
      <trkpt lat="41.098167" lon="-3.677583">
        <ele>2176.0</ele>
        <time>2018-07-21T13:25:57Z</time>
      </trkpt>
      <trkpt lat="41.098217" lon="-3.677417">
        <ele>2177.0</ele>
        <time>2018-07-21T13:25:58Z</time>
      </trkpt>
      <trkpt lat="41.098233" lon="-3.677233">
        <ele>2178.0</ele>
        <time>2018-07-21T13:25:59Z</time>
      </trkpt>
      <trkpt lat="41.098217" lon="-3.677033">
        <ele>2179.0</ele>
        <time>2018-07-21T13:26:00Z</time>
      </trkpt>
      <trkpt lat="41.098167" lon="-3.676850">
        <ele>2180.0</ele>
        <time>2018-07-21T13:26:01Z</time>
      </trkpt>
      <trkpt lat="41.098100" lon="-3.676683">
        <ele>2182.0</ele>
        <time>2018-07-21T13:26:02Z</time>
      </trkpt>
      <trkpt lat="41.098000" lon="-3.676567">
        <ele>2185.0</ele>
        <time>2018-07-21T13:26:03Z</time>
      </trkpt>
      <trkpt lat="41.097900" lon="-3.676500">
        <ele>2186.0</ele>
        <time>2018-07-21T13:26:04Z</time>
      </trkpt>
      <trkpt lat="41.097817" lon="-3.676483">
        <ele>2188.0</ele>
        <time>2018-07-21T13:26:05Z</time>
      </trkpt>
      <trkpt lat="41.097750" lon="-3.676483">
        <ele>2190.0</ele>
        <time>2018-07-21T13:26:06Z</time>
      </trkpt>
      <trkpt lat="41.097717" lon="-3.676517">
        <ele>2191.0</ele>
        <time>2018-07-21T13:26:07Z</time>
      </trkpt>
      <trkpt lat="41.097683" lon="-3.676583">
        <ele>2193.0</ele>
        <time>2018-07-21T13:26:08Z</time>
      </trkpt>
      <trkpt lat="41.097683" lon="-3.676650">
        <ele>2194.0</ele>
        <time>2018-07-21T13:26:09Z</time>
      </trkpt>
      <trkpt lat="41.097683" lon="-3.676717">
        <ele>2195.0</ele>
        <time>2018-07-21T13:26:10Z</time>
      </trkpt>
      <trkpt lat="41.097717" lon="-3.676783">
        <ele>2196.0</ele>
        <time>2018-07-21T13:26:11Z</time>
      </trkpt>
      <trkpt lat="41.097750" lon="-3.676833">
        <ele>2198.0</ele>
        <time>2018-07-21T13:26:12Z</time>
      </trkpt>
      <trkpt lat="41.097800" lon="-3.676883">
        <ele>2202.0</ele>
        <time>2018-07-21T13:26:13Z</time>
      </trkpt>
      <trkpt lat="41.097833" lon="-3.676900">
        <ele>2205.0</ele>
        <time>2018-07-21T13:26:14Z</time>
      </trkpt>
      <trkpt lat="41.097883" lon="-3.676917">
        <ele>2208.0</ele>
        <time>2018-07-21T13:26:15Z</time>
      </trkpt>
      <trkpt lat="41.097950" lon="-3.676933">
        <ele>2211.0</ele>
        <time>2018-07-21T13:26:16Z</time>
      </trkpt>
      <trkpt lat="41.098000" lon="-3.676933">
        <ele>2213.0</ele>
        <time>2018-07-21T13:26:17Z</time>
      </trkpt>
      <trkpt lat="41.098083" lon="-3.676933">
        <ele>2215.0</ele>
        <time>2018-07-21T13:26:18Z</time>
      </trkpt>
      <trkpt lat="41.098150" lon="-3.676917">
        <ele>2217.0</ele>
        <time>2018-07-21T13:26:19Z</time>
      </trkpt>
      <trkpt lat="41.098233" lon="-3.676883">
        <ele>2218.0</ele>
        <time>2018-07-21T13:26:20Z</time>
      </trkpt>
      <trkpt lat="41.098300" lon="-3.676800">
        <ele>2219.0</ele>
        <time>2018-07-21T13:26:21Z</time>
      </trkpt>
      <trkpt lat="41.098367" lon="-3.676700">
        <ele>2220.0</ele>
        <time>2018-07-21T13:26:22Z</time>
      </trkpt>
      <trkpt lat="41.098433" lon="-3.676583">
        <ele>2221.0</ele>
        <time>2018-07-21T13:26:23Z</time>
      </trkpt>
      <trkpt lat="41.098500" lon="-3.676433">
        <ele>2221.0</ele>
        <time>2018-07-21T13:26:24Z</time>
      </trkpt>
      <trkpt lat="41.098550" lon="-3.676300">
        <ele>2222.0</ele>
        <time>2018-07-21T13:26:25Z</time>
      </trkpt>
      <trkpt lat="41.098600" lon="-3.676150">
        <ele>2223.0</ele>
        <time>2018-07-21T13:26:26Z</time>
      </trkpt>
      <trkpt lat="41.098633" lon="-3.676000">
        <ele>2225.0</ele>
        <time>2018-07-21T13:26:27Z</time>
      </trkpt>
      <trkpt lat="41.098667" lon="-3.675833">
        <ele>2226.0</ele>
        <time>2018-07-21T13:26:28Z</time>
      </trkpt>
      <trkpt lat="41.098717" lon="-3.675683">
        <ele>2227.0</ele>
        <time>2018-07-21T13:26:29Z</time>
      </trkpt>
      <trkpt lat="41.098750" lon="-3.675517">
        <ele>2228.0</ele>
        <time>2018-07-21T13:26:30Z</time>
      </trkpt>
      <trkpt lat="41.098800" lon="-3.675367">
        <ele>2230.0</ele>
        <time>2018-07-21T13:26:31Z</time>
      </trkpt>
      <trkpt lat="41.098850" lon="-3.675217">
        <ele>2231.0</ele>
        <time>2018-07-21T13:26:32Z</time>
      </trkpt>
      <trkpt lat="41.098883" lon="-3.675067">
        <ele>2233.0</ele>
        <time>2018-07-21T13:26:33Z</time>
      </trkpt>
      <trkpt lat="41.098900" lon="-3.674883">
        <ele>2234.0</ele>
        <time>2018-07-21T13:26:34Z</time>
      </trkpt>
      <trkpt lat="41.098900" lon="-3.674717">
        <ele>2236.0</ele>
        <time>2018-07-21T13:26:35Z</time>
      </trkpt>
      <trkpt lat="41.098867" lon="-3.674533">
        <ele>2236.0</ele>
        <time>2018-07-21T13:26:36Z</time>
      </trkpt>
      <trkpt lat="41.098800" lon="-3.674350">
        <ele>2237.0</ele>
        <time>2018-07-21T13:26:37Z</time>
      </trkpt>
      <trkpt lat="41.098717" lon="-3.674200">
        <ele>2237.0</ele>
        <time>2018-07-21T13:26:38Z</time>
      </trkpt>
      <trkpt lat="41.098617" lon="-3.674067">
        <ele>2236.0</ele>
        <time>2018-07-21T13:26:39Z</time>
      </trkpt>
      <trkpt lat="41.098483" lon="-3.673967">
        <ele>2235.0</ele>
        <time>2018-07-21T13:26:40Z</time>
      </trkpt>
      <trkpt lat="41.098367" lon="-3.673900">
        <ele>2235.0</ele>
        <time>2018-07-21T13:26:41Z</time>
      </trkpt>
      <trkpt lat="41.098250" lon="-3.673850">
        <ele>2236.0</ele>
        <time>2018-07-21T13:26:42Z</time>
      </trkpt>
      <trkpt lat="41.098133" lon="-3.673817">
        <ele>2237.0</ele>
        <time>2018-07-21T13:26:43Z</time>
      </trkpt>
      <trkpt lat="41.098033" lon="-3.673800">
        <ele>2238.0</ele>
        <time>2018-07-21T13:26:44Z</time>
      </trkpt>
      <trkpt lat="41.097917" lon="-3.673800">
        <ele>2238.0</ele>
        <time>2018-07-21T13:26:45Z</time>
      </trkpt>
      <trkpt lat="41.097817" lon="-3.673833">
        <ele>2239.0</ele>
        <time>2018-07-21T13:26:46Z</time>
      </trkpt>
      <trkpt lat="41.097717" lon="-3.673850">
        <ele>2241.0</ele>
        <time>2018-07-21T13:26:47Z</time>
      </trkpt>
      <trkpt lat="41.097633" lon="-3.673883">
        <ele>2244.0</ele>
        <time>2018-07-21T13:26:48Z</time>
      </trkpt>
      <trkpt lat="41.097567" lon="-3.673900">
        <ele>2247.0</ele>
        <time>2018-07-21T13:26:49Z</time>
      </trkpt>
      <trkpt lat="41.097500" lon="-3.673933">
        <ele>2249.0</ele>
        <time>2018-07-21T13:26:50Z</time>
      </trkpt>
      <trkpt lat="41.097433" lon="-3.673950">
        <ele>2251.0</ele>
        <time>2018-07-21T13:26:51Z</time>
      </trkpt>
      <trkpt lat="41.097367" lon="-3.674000">
        <ele>2251.0</ele>
        <time>2018-07-21T13:26:52Z</time>
      </trkpt>
      <trkpt lat="41.097300" lon="-3.674033">
        <ele>2250.0</ele>
        <time>2018-07-21T13:26:53Z</time>
      </trkpt>
      <trkpt lat="41.097233" lon="-3.674100">
        <ele>2249.0</ele>
        <time>2018-07-21T13:26:54Z</time>
      </trkpt>
      <trkpt lat="41.097200" lon="-3.674167">
        <ele>2248.0</ele>
        <time>2018-07-21T13:26:55Z</time>
      </trkpt>
      <trkpt lat="41.097167" lon="-3.674250">
        <ele>2249.0</ele>
        <time>2018-07-21T13:26:56Z</time>
      </trkpt>
      <trkpt lat="41.097200" lon="-3.674317">
        <ele>2249.0</ele>
        <time>2018-07-21T13:26:57Z</time>
      </trkpt>
      <trkpt lat="41.097250" lon="-3.674367">
        <ele>2250.0</ele>
        <time>2018-07-21T13:26:58Z</time>
      </trkpt>
      <trkpt lat="41.097300" lon="-3.674383">
        <ele>2251.0</ele>
        <time>2018-07-21T13:26:59Z</time>
      </trkpt>
      <trkpt lat="41.097367" lon="-3.674367">
        <ele>2254.0</ele>
        <time>2018-07-21T13:27:00Z</time>
      </trkpt>
      <trkpt lat="41.097433" lon="-3.674350">
        <ele>2257.0</ele>
        <time>2018-07-21T13:27:01Z</time>
      </trkpt>
      <trkpt lat="41.097500" lon="-3.674317">
        <ele>2261.0</ele>
        <time>2018-07-21T13:27:02Z</time>
      </trkpt>
      <trkpt lat="41.097550" lon="-3.674283">
        <ele>2264.0</ele>
        <time>2018-07-21T13:27:03Z</time>
      </trkpt>
      <trkpt lat="41.097600" lon="-3.674267">
        <ele>2267.0</ele>
        <time>2018-07-21T13:27:04Z</time>
      </trkpt>
      <trkpt lat="41.097667" lon="-3.674233">
        <ele>2268.0</ele>
        <time>2018-07-21T13:27:05Z</time>
      </trkpt>
      <trkpt lat="41.097750" lon="-3.674183">
        <ele>2268.0</ele>
        <time>2018-07-21T13:27:06Z</time>
      </trkpt>
      <trkpt lat="41.097833" lon="-3.674083">
        <ele>2268.0</ele>
        <time>2018-07-21T13:27:07Z</time>
      </trkpt>
      <trkpt lat="41.097917" lon="-3.673967">
        <ele>2268.0</ele>
        <time>2018-07-21T13:27:08Z</time>
      </trkpt>
      <trkpt lat="41.097983" lon="-3.673800">
        <ele>2269.0</ele>
        <time>2018-07-21T13:27:09Z</time>
      </trkpt>
      <trkpt lat="41.098000" lon="-3.673633">
        <ele>2272.0</ele>
        <time>2018-07-21T13:27:10Z</time>
      </trkpt>
      <trkpt lat="41.098000" lon="-3.673467">
        <ele>2274.0</ele>
        <time>2018-07-21T13:27:11Z</time>
      </trkpt>
      <trkpt lat="41.097983" lon="-3.673300">
        <ele>2275.0</ele>
        <time>2018-07-21T13:27:12Z</time>
      </trkpt>
      <trkpt lat="41.097950" lon="-3.673133">
        <ele>2276.0</ele>
        <time>2018-07-21T13:27:13Z</time>
      </trkpt>
      <trkpt lat="41.097883" lon="-3.672950">
        <ele>2276.0</ele>
        <time>2018-07-21T13:27:14Z</time>
      </trkpt>
      <trkpt lat="41.097817" lon="-3.672783">
        <ele>2276.0</ele>
        <time>2018-07-21T13:27:15Z</time>
      </trkpt>
      <trkpt lat="41.097700" lon="-3.672650">
        <ele>2277.0</ele>
        <time>2018-07-21T13:27:16Z</time>
      </trkpt>
      <trkpt lat="41.097600" lon="-3.672567">
        <ele>2278.0</ele>
        <time>2018-07-21T13:27:17Z</time>
      </trkpt>
      <trkpt lat="41.097483" lon="-3.672533">
        <ele>2280.0</ele>
        <time>2018-07-21T13:27:18Z</time>
      </trkpt>
      <trkpt lat="41.097383" lon="-3.672533">
        <ele>2280.0</ele>
        <time>2018-07-21T13:27:19Z</time>
      </trkpt>
      <trkpt lat="41.097283" lon="-3.672583">
        <ele>2281.0</ele>
        <time>2018-07-21T13:27:20Z</time>
      </trkpt>
      <trkpt lat="41.097233" lon="-3.672633">
        <ele>2284.0</ele>
        <time>2018-07-21T13:27:21Z</time>
      </trkpt>
      <trkpt lat="41.097183" lon="-3.672683">
        <ele>2287.0</ele>
        <time>2018-07-21T13:27:22Z</time>
      </trkpt>
      <trkpt lat="41.097167" lon="-3.672717">
        <ele>2291.0</ele>
        <time>2018-07-21T13:27:23Z</time>
      </trkpt>
      <trkpt lat="41.097183" lon="-3.672733">
        <ele>2294.0</ele>
        <time>2018-07-21T13:27:24Z</time>
      </trkpt>
      <trkpt lat="41.097217" lon="-3.672750">
        <ele>2297.0</ele>
        <time>2018-07-21T13:27:25Z</time>
      </trkpt>
      <trkpt lat="41.097267" lon="-3.672750">
        <ele>2298.0</ele>
        <time>2018-07-21T13:27:26Z</time>
      </trkpt>
      <trkpt lat="41.097333" lon="-3.672750">
        <ele>2299.0</ele>
        <time>2018-07-21T13:27:27Z</time>
      </trkpt>
      <trkpt lat="41.097400" lon="-3.672717">
        <ele>2300.0</ele>
        <time>2018-07-21T13:27:28Z</time>
      </trkpt>
      <trkpt lat="41.097483" lon="-3.672667">
        <ele>2301.0</ele>
        <time>2018-07-21T13:27:29Z</time>
      </trkpt>
      <trkpt lat="41.097567" lon="-3.672583">
        <ele>2302.0</ele>
        <time>2018-07-21T13:27:30Z</time>
      </trkpt>
      <trkpt lat="41.097650" lon="-3.672483">
        <ele>2303.0</ele>
        <time>2018-07-21T13:27:31Z</time>
      </trkpt>
      <trkpt lat="41.097717" lon="-3.672333">
        <ele>2304.0</ele>
        <time>2018-07-21T13:27:32Z</time>
      </trkpt>
      <trkpt lat="41.097767" lon="-3.672167">
        <ele>2306.0</ele>
        <time>2018-07-21T13:27:33Z</time>
      </trkpt>
      <trkpt lat="41.097783" lon="-3.671983">
        <ele>2308.0</ele>
        <time>2018-07-21T13:27:34Z</time>
      </trkpt>
      <trkpt lat="41.097767" lon="-3.671800">
        <ele>2309.0</ele>
        <time>2018-07-21T13:27:35Z</time>
      </trkpt>
      <trkpt lat="41.097717" lon="-3.671617">
        <ele>2310.0</ele>
        <time>2018-07-21T13:27:36Z</time>
      </trkpt>
      <trkpt lat="41.097633" lon="-3.671450">
        <ele>2311.0</ele>
        <time>2018-07-21T13:27:37Z</time>
      </trkpt>
      <trkpt lat="41.097533" lon="-3.671317">
        <ele>2311.0</ele>
        <time>2018-07-21T13:27:38Z</time>
      </trkpt>
      <trkpt lat="41.097400" lon="-3.671233">
        <ele>2312.0</ele>
        <time>2018-07-21T13:27:39Z</time>
      </trkpt>
      <trkpt lat="41.097283" lon="-3.671167">
        <ele>2313.0</ele>
        <time>2018-07-21T13:27:40Z</time>
      </trkpt>
      <trkpt lat="41.097167" lon="-3.671133">
        <ele>2315.0</ele>
        <time>2018-07-21T13:27:41Z</time>
      </trkpt>
      <trkpt lat="41.097067" lon="-3.671133">
        <ele>2318.0</ele>
        <time>2018-07-21T13:27:42Z</time>
      </trkpt>
      <trkpt lat="41.097000" lon="-3.671167">
        <ele>2320.0</ele>
        <time>2018-07-21T13:27:43Z</time>
      </trkpt>
      <trkpt lat="41.096933" lon="-3.671200">
        <ele>2321.0</ele>
        <time>2018-07-21T13:27:44Z</time>
      </trkpt>
      <trkpt lat="41.096900" lon="-3.671250">
        <ele>2323.0</ele>
        <time>2018-07-21T13:27:45Z</time>
      </trkpt>
      <trkpt lat="41.096883" lon="-3.671283">
        <ele>2324.0</ele>
        <time>2018-07-21T13:27:46Z</time>
      </trkpt>
      <trkpt lat="41.096900" lon="-3.671333">
        <ele>2324.0</ele>
        <time>2018-07-21T13:27:47Z</time>
      </trkpt>
      <trkpt lat="41.096933" lon="-3.671383">
        <ele>2323.0</ele>
        <time>2018-07-21T13:27:48Z</time>
      </trkpt>
      <trkpt lat="41.097000" lon="-3.671417">
        <ele>2324.0</ele>
        <time>2018-07-21T13:27:49Z</time>
      </trkpt>
      <trkpt lat="41.097083" lon="-3.671450">
        <ele>2326.0</ele>
        <time>2018-07-21T13:27:50Z</time>
      </trkpt>
      <trkpt lat="41.097150" lon="-3.671450">
        <ele>2329.0</ele>
        <time>2018-07-21T13:27:51Z</time>
      </trkpt>
      <trkpt lat="41.097233" lon="-3.671433">
        <ele>2331.0</ele>
        <time>2018-07-21T13:27:52Z</time>
      </trkpt>
      <trkpt lat="41.097300" lon="-3.671383">
        <ele>2332.0</ele>
        <time>2018-07-21T13:27:53Z</time>
      </trkpt>
      <trkpt lat="41.097383" lon="-3.671350">
        <ele>2333.0</ele>
        <time>2018-07-21T13:27:54Z</time>
      </trkpt>
      <trkpt lat="41.097467" lon="-3.671317">
        <ele>2333.0</ele>
        <time>2018-07-21T13:27:55Z</time>
      </trkpt>
      <trkpt lat="41.097533" lon="-3.671300">
        <ele>2333.0</ele>
        <time>2018-07-21T13:27:56Z</time>
      </trkpt>
      <trkpt lat="41.097617" lon="-3.671250">
        <ele>2334.0</ele>
        <time>2018-07-21T13:27:57Z</time>
      </trkpt>
      <trkpt lat="41.097700" lon="-3.671200">
        <ele>2335.0</ele>
        <time>2018-07-21T13:27:58Z</time>
      </trkpt>
      <trkpt lat="41.097767" lon="-3.671117">
        <ele>2336.0</ele>
        <time>2018-07-21T13:27:59Z</time>
      </trkpt>
      <trkpt lat="41.097850" lon="-3.671017">
        <ele>2337.0</ele>
        <time>2018-07-21T13:28:00Z</time>
      </trkpt>
      <trkpt lat="41.097900" lon="-3.670900">
        <ele>2338.0</ele>
        <time>2018-07-21T13:28:01Z</time>
      </trkpt>
      <trkpt lat="41.097967" lon="-3.670783">
        <ele>2339.0</ele>
        <time>2018-07-21T13:28:02Z</time>
      </trkpt>
      <trkpt lat="41.098017" lon="-3.670650">
        <ele>2339.0</ele>
        <time>2018-07-21T13:28:03Z</time>
      </trkpt>
      <trkpt lat="41.098067" lon="-3.670517">
        <ele>2339.0</ele>
        <time>2018-07-21T13:28:04Z</time>
      </trkpt>
      <trkpt lat="41.098117" lon="-3.670383">
        <ele>2339.0</ele>
        <time>2018-07-21T13:28:05Z</time>
      </trkpt>
      <trkpt lat="41.098167" lon="-3.670250">
        <ele>2339.0</ele>
        <time>2018-07-21T13:28:06Z</time>
      </trkpt>
      <trkpt lat="41.098233" lon="-3.670133">
        <ele>2339.0</ele>
        <time>2018-07-21T13:28:07Z</time>
      </trkpt>
      <trkpt lat="41.098300" lon="-3.670017">
        <ele>2338.0</ele>
        <time>2018-07-21T13:28:08Z</time>
      </trkpt>
      <trkpt lat="41.098383" lon="-3.669900">
        <ele>2338.0</ele>
        <time>2018-07-21T13:28:09Z</time>
      </trkpt>
      <trkpt lat="41.098450" lon="-3.669817">
        <ele>2338.0</ele>
        <time>2018-07-21T13:28:10Z</time>
      </trkpt>
      <trkpt lat="41.098517" lon="-3.669750">
        <ele>2338.0</ele>
        <time>2018-07-21T13:28:11Z</time>
      </trkpt>
      <trkpt lat="41.098583" lon="-3.669700">
        <ele>2337.0</ele>
        <time>2018-07-21T13:28:12Z</time>
      </trkpt>
      <trkpt lat="41.098650" lon="-3.669633">
        <ele>2337.0</ele>
        <time>2018-07-21T13:28:13Z</time>
      </trkpt>
      <trkpt lat="41.098733" lon="-3.669583">
        <ele>2336.0</ele>
        <time>2018-07-21T13:28:14Z</time>
      </trkpt>
      <trkpt lat="41.098800" lon="-3.669517">
        <ele>2335.0</ele>
        <time>2018-07-21T13:28:15Z</time>
      </trkpt>
      <trkpt lat="41.098883" lon="-3.669450">
        <ele>2335.0</ele>
        <time>2018-07-21T13:28:16Z</time>
      </trkpt>
      <trkpt lat="41.098967" lon="-3.669383">
        <ele>2335.0</ele>
        <time>2018-07-21T13:28:17Z</time>
      </trkpt>
      <trkpt lat="41.099050" lon="-3.669317">
        <ele>2335.0</ele>
        <time>2018-07-21T13:28:18Z</time>
      </trkpt>
      <trkpt lat="41.099133" lon="-3.669267">
        <ele>2336.0</ele>
        <time>2018-07-21T13:28:19Z</time>
      </trkpt>
      <trkpt lat="41.099200" lon="-3.669217">
        <ele>2336.0</ele>
        <time>2018-07-21T13:28:20Z</time>
      </trkpt>
      <trkpt lat="41.099283" lon="-3.669167">
        <ele>2337.0</ele>
        <time>2018-07-21T13:28:21Z</time>
      </trkpt>
      <trkpt lat="41.099350" lon="-3.669100">
        <ele>2336.0</ele>
        <time>2018-07-21T13:28:22Z</time>
      </trkpt>
      <trkpt lat="41.099417" lon="-3.669050">
        <ele>2336.0</ele>
        <time>2018-07-21T13:28:23Z</time>
      </trkpt>
      <trkpt lat="41.099500" lon="-3.668983">
        <ele>2336.0</ele>
        <time>2018-07-21T13:28:24Z</time>
      </trkpt>
      <trkpt lat="41.099567" lon="-3.668933">
        <ele>2335.0</ele>
        <time>2018-07-21T13:28:25Z</time>
      </trkpt>
      <trkpt lat="41.099650" lon="-3.668883">
        <ele>2334.0</ele>
        <time>2018-07-21T13:28:26Z</time>
      </trkpt>
      <trkpt lat="41.099717" lon="-3.668850">
        <ele>2334.0</ele>
        <time>2018-07-21T13:28:27Z</time>
      </trkpt>
      <trkpt lat="41.099783" lon="-3.668817">
        <ele>2332.0</ele>
        <time>2018-07-21T13:28:28Z</time>
      </trkpt>
      <trkpt lat="41.099867" lon="-3.668783">
        <ele>2331.0</ele>
        <time>2018-07-21T13:28:29Z</time>
      </trkpt>
      <trkpt lat="41.099950" lon="-3.668733">
        <ele>2330.0</ele>
        <time>2018-07-21T13:28:30Z</time>
      </trkpt>
      <trkpt lat="41.100017" lon="-3.668683">
        <ele>2329.0</ele>
        <time>2018-07-21T13:28:31Z</time>
      </trkpt>
      <trkpt lat="41.100100" lon="-3.668617">
        <ele>2329.0</ele>
        <time>2018-07-21T13:28:32Z</time>
      </trkpt>
      <trkpt lat="41.100167" lon="-3.668550">
        <ele>2329.0</ele>
        <time>2018-07-21T13:28:33Z</time>
      </trkpt>
      <trkpt lat="41.100250" lon="-3.668500">
        <ele>2328.0</ele>
        <time>2018-07-21T13:28:34Z</time>
      </trkpt>
      <trkpt lat="41.100317" lon="-3.668433">
        <ele>2327.0</ele>
        <time>2018-07-21T13:28:35Z</time>
      </trkpt>
      <trkpt lat="41.100400" lon="-3.668367">
        <ele>2326.0</ele>
        <time>2018-07-21T13:28:36Z</time>
      </trkpt>
      <trkpt lat="41.100483" lon="-3.668317">
        <ele>2325.0</ele>
        <time>2018-07-21T13:28:37Z</time>
      </trkpt>
      <trkpt lat="41.100567" lon="-3.668250">
        <ele>2323.0</ele>
        <time>2018-07-21T13:28:38Z</time>
      </trkpt>
      <trkpt lat="41.100650" lon="-3.668200">
        <ele>2322.0</ele>
        <time>2018-07-21T13:28:39Z</time>
      </trkpt>
      <trkpt lat="41.100733" lon="-3.668133">
        <ele>2321.0</ele>
        <time>2018-07-21T13:28:40Z</time>
      </trkpt>
      <trkpt lat="41.100800" lon="-3.668083">
        <ele>2320.0</ele>
        <time>2018-07-21T13:28:41Z</time>
      </trkpt>
      <trkpt lat="41.100883" lon="-3.668017">
        <ele>2319.0</ele>
        <time>2018-07-21T13:28:42Z</time>
      </trkpt>
      <trkpt lat="41.100967" lon="-3.667950">
        <ele>2318.0</ele>
        <time>2018-07-21T13:28:43Z</time>
      </trkpt>
      <trkpt lat="41.101033" lon="-3.667883">
        <ele>2317.0</ele>
        <time>2018-07-21T13:28:44Z</time>
      </trkpt>
      <trkpt lat="41.101117" lon="-3.667817">
        <ele>2316.0</ele>
        <time>2018-07-21T13:28:45Z</time>
      </trkpt>
      <trkpt lat="41.101183" lon="-3.667750">
        <ele>2315.0</ele>
        <time>2018-07-21T13:28:46Z</time>
      </trkpt>
      <trkpt lat="41.101267" lon="-3.667683">
        <ele>2314.0</ele>
        <time>2018-07-21T13:28:47Z</time>
      </trkpt>
      <trkpt lat="41.101333" lon="-3.667617">
        <ele>2313.0</ele>
        <time>2018-07-21T13:28:48Z</time>
      </trkpt>
      <trkpt lat="41.101400" lon="-3.667533">
        <ele>2312.0</ele>
        <time>2018-07-21T13:28:49Z</time>
      </trkpt>
      <trkpt lat="41.101483" lon="-3.667467">
        <ele>2311.0</ele>
        <time>2018-07-21T13:28:50Z</time>
      </trkpt>
      <trkpt lat="41.101550" lon="-3.667400">
        <ele>2309.0</ele>
        <time>2018-07-21T13:28:51Z</time>
      </trkpt>
      <trkpt lat="41.101633" lon="-3.667317">
        <ele>2306.0</ele>
        <time>2018-07-21T13:28:52Z</time>
      </trkpt>
      <trkpt lat="41.101717" lon="-3.667250">
        <ele>2303.0</ele>
        <time>2018-07-21T13:28:53Z</time>
      </trkpt>
      <trkpt lat="41.101817" lon="-3.667167">
        <ele>2301.0</ele>
        <time>2018-07-21T13:28:54Z</time>
      </trkpt>
      <trkpt lat="41.101900" lon="-3.667100">
        <ele>2300.0</ele>
        <time>2018-07-21T13:28:55Z</time>
      </trkpt>
      <trkpt lat="41.101983" lon="-3.667017">
        <ele>2300.0</ele>
        <time>2018-07-21T13:28:56Z</time>
      </trkpt>
      <trkpt lat="41.102050" lon="-3.666950">
        <ele>2300.0</ele>
        <time>2018-07-21T13:28:57Z</time>
      </trkpt>
      <trkpt lat="41.102117" lon="-3.666867">
        <ele>2299.0</ele>
        <time>2018-07-21T13:28:58Z</time>
      </trkpt>
      <trkpt lat="41.102200" lon="-3.666800">
        <ele>2297.0</ele>
        <time>2018-07-21T13:28:59Z</time>
      </trkpt>
      <trkpt lat="41.102283" lon="-3.666733">
        <ele>2295.0</ele>
        <time>2018-07-21T13:29:00Z</time>
      </trkpt>
      <trkpt lat="41.102367" lon="-3.666650">
        <ele>2293.0</ele>
        <time>2018-07-21T13:29:01Z</time>
      </trkpt>
      <trkpt lat="41.102450" lon="-3.666567">
        <ele>2293.0</ele>
        <time>2018-07-21T13:29:02Z</time>
      </trkpt>
      <trkpt lat="41.102550" lon="-3.666483">
        <ele>2293.0</ele>
        <time>2018-07-21T13:29:03Z</time>
      </trkpt>
      <trkpt lat="41.102633" lon="-3.666383">
        <ele>2293.0</ele>
        <time>2018-07-21T13:29:04Z</time>
      </trkpt>
      <trkpt lat="41.102717" lon="-3.666300">
        <ele>2293.0</ele>
        <time>2018-07-21T13:29:05Z</time>
      </trkpt>
      <trkpt lat="41.102783" lon="-3.666200">
        <ele>2292.0</ele>
        <time>2018-07-21T13:29:06Z</time>
      </trkpt>
      <trkpt lat="41.102867" lon="-3.666133">
        <ele>2292.0</ele>
        <time>2018-07-21T13:29:07Z</time>
      </trkpt>
      <trkpt lat="41.102933" lon="-3.666050">
        <ele>2292.0</ele>
        <time>2018-07-21T13:29:08Z</time>
      </trkpt>
      <trkpt lat="41.103000" lon="-3.666000">
        <ele>2293.0</ele>
        <time>2018-07-21T13:29:09Z</time>
      </trkpt>
      <trkpt lat="41.103067" lon="-3.665933">
        <ele>2293.0</ele>
        <time>2018-07-21T13:29:10Z</time>
      </trkpt>
      <trkpt lat="41.103133" lon="-3.665883">
        <ele>2292.0</ele>
        <time>2018-07-21T13:29:11Z</time>
      </trkpt>
      <trkpt lat="41.103183" lon="-3.665817">
        <ele>2291.0</ele>
        <time>2018-07-21T13:29:12Z</time>
      </trkpt>
      <trkpt lat="41.103250" lon="-3.665767">
        <ele>2289.0</ele>
        <time>2018-07-21T13:29:13Z</time>
      </trkpt>
      <trkpt lat="41.103333" lon="-3.665717">
        <ele>2287.0</ele>
        <time>2018-07-21T13:29:14Z</time>
      </trkpt>
      <trkpt lat="41.103417" lon="-3.665650">
        <ele>2284.0</ele>
        <time>2018-07-21T13:29:15Z</time>
      </trkpt>
      <trkpt lat="41.103517" lon="-3.665583">
        <ele>2282.0</ele>
        <time>2018-07-21T13:29:16Z</time>
      </trkpt>
      <trkpt lat="41.103600" lon="-3.665517">
        <ele>2281.0</ele>
        <time>2018-07-21T13:29:17Z</time>
      </trkpt>
      <trkpt lat="41.103683" lon="-3.665450">
        <ele>2279.0</ele>
        <time>2018-07-21T13:29:18Z</time>
      </trkpt>
      <trkpt lat="41.103783" lon="-3.665400">
        <ele>2279.0</ele>
        <time>2018-07-21T13:29:19Z</time>
      </trkpt>
      <trkpt lat="41.103867" lon="-3.665333">
        <ele>2278.0</ele>
        <time>2018-07-21T13:29:20Z</time>
      </trkpt>
      <trkpt lat="41.103950" lon="-3.665267">
        <ele>2279.0</ele>
        <time>2018-07-21T13:29:21Z</time>
      </trkpt>
      <trkpt lat="41.104033" lon="-3.665200">
        <ele>2280.0</ele>
        <time>2018-07-21T13:29:22Z</time>
      </trkpt>
      <trkpt lat="41.104117" lon="-3.665117">
        <ele>2281.0</ele>
        <time>2018-07-21T13:29:23Z</time>
      </trkpt>
      <trkpt lat="41.104200" lon="-3.665050">
        <ele>2282.0</ele>
        <time>2018-07-21T13:29:24Z</time>
      </trkpt>
      <trkpt lat="41.104283" lon="-3.664983">
        <ele>2283.0</ele>
        <time>2018-07-21T13:29:25Z</time>
      </trkpt>
      <trkpt lat="41.104367" lon="-3.664917">
        <ele>2284.0</ele>
        <time>2018-07-21T13:29:26Z</time>
      </trkpt>
      <trkpt lat="41.104450" lon="-3.664867">
        <ele>2283.0</ele>
        <time>2018-07-21T13:29:27Z</time>
      </trkpt>
      <trkpt lat="41.104533" lon="-3.664817">
        <ele>2283.0</ele>
        <time>2018-07-21T13:29:28Z</time>
      </trkpt>
      <trkpt lat="41.104617" lon="-3.664750">
        <ele>2282.0</ele>
        <time>2018-07-21T13:29:29Z</time>
      </trkpt>
      <trkpt lat="41.104700" lon="-3.664683">
        <ele>2282.0</ele>
        <time>2018-07-21T13:29:30Z</time>
      </trkpt>
      <trkpt lat="41.104800" lon="-3.664617">
        <ele>2282.0</ele>
        <time>2018-07-21T13:29:31Z</time>
      </trkpt>
      <trkpt lat="41.104883" lon="-3.664533">
        <ele>2283.0</ele>
        <time>2018-07-21T13:29:32Z</time>
      </trkpt>
      <trkpt lat="41.104967" lon="-3.664450">
        <ele>2284.0</ele>
        <time>2018-07-21T13:29:33Z</time>
      </trkpt>
      <trkpt lat="41.105067" lon="-3.664367">
        <ele>2284.0</ele>
        <time>2018-07-21T13:29:34Z</time>
      </trkpt>
      <trkpt lat="41.105150" lon="-3.664283">
        <ele>2285.0</ele>
        <time>2018-07-21T13:29:35Z</time>
      </trkpt>
      <trkpt lat="41.105233" lon="-3.664200">
        <ele>2285.0</ele>
        <time>2018-07-21T13:29:36Z</time>
      </trkpt>
      <trkpt lat="41.105317" lon="-3.664117">
        <ele>2285.0</ele>
        <time>2018-07-21T13:29:37Z</time>
      </trkpt>
      <trkpt lat="41.105400" lon="-3.664033">
        <ele>2285.0</ele>
        <time>2018-07-21T13:29:38Z</time>
      </trkpt>
      <trkpt lat="41.105483" lon="-3.663967">
        <ele>2285.0</ele>
        <time>2018-07-21T13:29:39Z</time>
      </trkpt>
      <trkpt lat="41.105567" lon="-3.663883">
        <ele>2285.0</ele>
        <time>2018-07-21T13:29:40Z</time>
      </trkpt>
      <trkpt lat="41.105650" lon="-3.663817">
        <ele>2285.0</ele>
        <time>2018-07-21T13:29:41Z</time>
      </trkpt>
      <trkpt lat="41.105750" lon="-3.663750">
        <ele>2285.0</ele>
        <time>2018-07-21T13:29:42Z</time>
      </trkpt>
      <trkpt lat="41.105833" lon="-3.663683">
        <ele>2285.0</ele>
        <time>2018-07-21T13:29:43Z</time>
      </trkpt>
      <trkpt lat="41.105917" lon="-3.663617">
        <ele>2286.0</ele>
        <time>2018-07-21T13:29:44Z</time>
      </trkpt>
      <trkpt lat="41.106017" lon="-3.663533">
        <ele>2286.0</ele>
        <time>2018-07-21T13:29:45Z</time>
      </trkpt>
      <trkpt lat="41.106100" lon="-3.663450">
        <ele>2285.0</ele>
        <time>2018-07-21T13:29:46Z</time>
      </trkpt>
      <trkpt lat="41.106183" lon="-3.663350">
        <ele>2285.0</ele>
        <time>2018-07-21T13:29:47Z</time>
      </trkpt>
      <trkpt lat="41.106283" lon="-3.663250">
        <ele>2286.0</ele>
        <time>2018-07-21T13:29:48Z</time>
      </trkpt>
      <trkpt lat="41.106350" lon="-3.663167">
        <ele>2286.0</ele>
        <time>2018-07-21T13:29:49Z</time>
      </trkpt>
      <trkpt lat="41.106433" lon="-3.663067">
        <ele>2286.0</ele>
        <time>2018-07-21T13:29:50Z</time>
      </trkpt>
      <trkpt lat="41.106517" lon="-3.662983">
        <ele>2285.0</ele>
        <time>2018-07-21T13:29:51Z</time>
      </trkpt>
      <trkpt lat="41.106617" lon="-3.662900">
        <ele>2284.0</ele>
        <time>2018-07-21T13:29:52Z</time>
      </trkpt>
      <trkpt lat="41.106717" lon="-3.662833">
        <ele>2282.0</ele>
        <time>2018-07-21T13:29:53Z</time>
      </trkpt>
      <trkpt lat="41.106817" lon="-3.662733">
        <ele>2280.0</ele>
        <time>2018-07-21T13:29:54Z</time>
      </trkpt>
      <trkpt lat="41.106933" lon="-3.662650">
        <ele>2280.0</ele>
        <time>2018-07-21T13:29:55Z</time>
      </trkpt>
      <trkpt lat="41.107033" lon="-3.662533">
        <ele>2279.0</ele>
        <time>2018-07-21T13:29:56Z</time>
      </trkpt>
      <trkpt lat="41.107133" lon="-3.662433">
        <ele>2279.0</ele>
        <time>2018-07-21T13:29:57Z</time>
      </trkpt>
      <trkpt lat="41.107217" lon="-3.662333">
        <ele>2278.0</ele>
        <time>2018-07-21T13:29:58Z</time>
      </trkpt>
      <trkpt lat="41.107317" lon="-3.662233">
        <ele>2277.0</ele>
        <time>2018-07-21T13:29:59Z</time>
      </trkpt>
      <trkpt lat="41.107417" lon="-3.662117">
        <ele>2275.0</ele>
        <time>2018-07-21T13:30:00Z</time>
      </trkpt>
      <trkpt lat="41.107517" lon="-3.662017">
        <ele>2273.0</ele>
        <time>2018-07-21T13:30:01Z</time>
      </trkpt>
      <trkpt lat="41.107617" lon="-3.661900">
        <ele>2273.0</ele>
        <time>2018-07-21T13:30:02Z</time>
      </trkpt>
      <trkpt lat="41.107717" lon="-3.661783">
        <ele>2272.0</ele>
        <time>2018-07-21T13:30:03Z</time>
      </trkpt>
      <trkpt lat="41.107800" lon="-3.661667">
        <ele>2271.0</ele>
        <time>2018-07-21T13:30:04Z</time>
      </trkpt>
      <trkpt lat="41.107883" lon="-3.661550">
        <ele>2271.0</ele>
        <time>2018-07-21T13:30:05Z</time>
      </trkpt>
      <trkpt lat="41.107983" lon="-3.661450">
        <ele>2269.0</ele>
        <time>2018-07-21T13:30:06Z</time>
      </trkpt>
      <trkpt lat="41.108083" lon="-3.661367">
        <ele>2268.0</ele>
        <time>2018-07-21T13:30:07Z</time>
      </trkpt>
      <trkpt lat="41.108183" lon="-3.661300">
        <ele>2266.0</ele>
        <time>2018-07-21T13:30:08Z</time>
      </trkpt>
      <trkpt lat="41.108267" lon="-3.661217">
        <ele>2265.0</ele>
        <time>2018-07-21T13:30:09Z</time>
      </trkpt>
      <trkpt lat="41.108367" lon="-3.661117">
        <ele>2264.0</ele>
        <time>2018-07-21T13:30:10Z</time>
      </trkpt>
      <trkpt lat="41.108450" lon="-3.661017">
        <ele>2263.0</ele>
        <time>2018-07-21T13:30:11Z</time>
      </trkpt>
      <trkpt lat="41.108550" lon="-3.660917">
        <ele>2261.0</ele>
        <time>2018-07-21T13:30:12Z</time>
      </trkpt>
      <trkpt lat="41.108633" lon="-3.660817">
        <ele>2259.0</ele>
        <time>2018-07-21T13:30:13Z</time>
      </trkpt>
      <trkpt lat="41.108717" lon="-3.660717">
        <ele>2257.0</ele>
        <time>2018-07-21T13:30:14Z</time>
      </trkpt>
      <trkpt lat="41.108800" lon="-3.660617">
        <ele>2254.0</ele>
        <time>2018-07-21T13:30:15Z</time>
      </trkpt>
      <trkpt lat="41.108883" lon="-3.660500">
        <ele>2252.0</ele>
        <time>2018-07-21T13:30:16Z</time>
      </trkpt>
      <trkpt lat="41.108967" lon="-3.660383">
        <ele>2249.0</ele>
        <time>2018-07-21T13:30:17Z</time>
      </trkpt>
      <trkpt lat="41.109067" lon="-3.660300">
        <ele>2247.0</ele>
        <time>2018-07-21T13:30:18Z</time>
      </trkpt>
      <trkpt lat="41.109167" lon="-3.660233">
        <ele>2244.0</ele>
        <time>2018-07-21T13:30:19Z</time>
      </trkpt>
      <trkpt lat="41.109250" lon="-3.660150">
        <ele>2242.0</ele>
        <time>2018-07-21T13:30:20Z</time>
      </trkpt>
      <trkpt lat="41.109333" lon="-3.660033">
        <ele>2238.0</ele>
        <time>2018-07-21T13:30:21Z</time>
      </trkpt>
      <trkpt lat="41.109417" lon="-3.659900">
        <ele>2235.0</ele>
        <time>2018-07-21T13:30:22Z</time>
      </trkpt>
      <trkpt lat="41.109500" lon="-3.659767">
        <ele>2232.0</ele>
        <time>2018-07-21T13:30:23Z</time>
      </trkpt>
      <trkpt lat="41.109600" lon="-3.659683">
        <ele>2231.0</ele>
        <time>2018-07-21T13:30:24Z</time>
      </trkpt>
      <trkpt lat="41.109700" lon="-3.659617">
        <ele>2228.0</ele>
        <time>2018-07-21T13:30:25Z</time>
      </trkpt>
      <trkpt lat="41.109783" lon="-3.659533">
        <ele>2227.0</ele>
        <time>2018-07-21T13:30:26Z</time>
      </trkpt>
      <trkpt lat="41.109883" lon="-3.659433">
        <ele>2225.0</ele>
        <time>2018-07-21T13:30:27Z</time>
      </trkpt>
      <trkpt lat="41.109967" lon="-3.659317">
        <ele>2222.0</ele>
        <time>2018-07-21T13:30:28Z</time>
      </trkpt>
      <trkpt lat="41.110050" lon="-3.659200">
        <ele>2220.0</ele>
        <time>2018-07-21T13:30:29Z</time>
      </trkpt>
      <trkpt lat="41.110133" lon="-3.659083">
        <ele>2217.0</ele>
        <time>2018-07-21T13:30:30Z</time>
      </trkpt>
      <trkpt lat="41.110217" lon="-3.658967">
        <ele>2215.0</ele>
        <time>2018-07-21T13:30:31Z</time>
      </trkpt>
      <trkpt lat="41.110300" lon="-3.658833">
        <ele>2212.0</ele>
        <time>2018-07-21T13:30:32Z</time>
      </trkpt>
      <trkpt lat="41.110383" lon="-3.658717">
        <ele>2210.0</ele>
        <time>2018-07-21T13:30:33Z</time>
      </trkpt>
      <trkpt lat="41.110467" lon="-3.658600">
        <ele>2208.0</ele>
        <time>2018-07-21T13:30:34Z</time>
      </trkpt>
      <trkpt lat="41.110533" lon="-3.658483">
        <ele>2206.0</ele>
        <time>2018-07-21T13:30:35Z</time>
      </trkpt>
      <trkpt lat="41.110617" lon="-3.658367">
        <ele>2202.0</ele>
        <time>2018-07-21T13:30:36Z</time>
      </trkpt>
      <trkpt lat="41.110700" lon="-3.658233">
        <ele>2200.0</ele>
        <time>2018-07-21T13:30:37Z</time>
      </trkpt>
      <trkpt lat="41.110783" lon="-3.658117">
        <ele>2196.0</ele>
        <time>2018-07-21T13:30:38Z</time>
      </trkpt>
      <trkpt lat="41.110867" lon="-3.658000">
        <ele>2193.0</ele>
        <time>2018-07-21T13:30:39Z</time>
      </trkpt>
      <trkpt lat="41.110967" lon="-3.657900">
        <ele>2191.0</ele>
        <time>2018-07-21T13:30:40Z</time>
      </trkpt>
      <trkpt lat="41.111050" lon="-3.657817">
        <ele>2189.0</ele>
        <time>2018-07-21T13:30:41Z</time>
      </trkpt>
      <trkpt lat="41.111133" lon="-3.657750">
        <ele>2186.0</ele>
        <time>2018-07-21T13:30:42Z</time>
      </trkpt>
      <trkpt lat="41.111217" lon="-3.657683">
        <ele>2183.0</ele>
        <time>2018-07-21T13:30:43Z</time>
      </trkpt>
      <trkpt lat="41.111300" lon="-3.657600">
        <ele>2179.0</ele>
        <time>2018-07-21T13:30:44Z</time>
      </trkpt>
      <trkpt lat="41.111400" lon="-3.657517">
        <ele>2176.0</ele>
        <time>2018-07-21T13:30:45Z</time>
      </trkpt>
      <trkpt lat="41.111483" lon="-3.657433">
        <ele>2172.0</ele>
        <time>2018-07-21T13:30:46Z</time>
      </trkpt>
      <trkpt lat="41.111583" lon="-3.657367">
        <ele>2170.0</ele>
        <time>2018-07-21T13:30:47Z</time>
      </trkpt>
      <trkpt lat="41.111667" lon="-3.657317">
        <ele>2168.0</ele>
        <time>2018-07-21T13:30:48Z</time>
      </trkpt>
      <trkpt lat="41.111750" lon="-3.657267">
        <ele>2166.0</ele>
        <time>2018-07-21T13:30:49Z</time>
      </trkpt>
      <trkpt lat="41.111833" lon="-3.657217">
        <ele>2163.0</ele>
        <time>2018-07-21T13:30:50Z</time>
      </trkpt>
      <trkpt lat="41.111933" lon="-3.657150">
        <ele>2159.0</ele>
        <time>2018-07-21T13:30:51Z</time>
      </trkpt>
      <trkpt lat="41.112033" lon="-3.657067">
        <ele>2156.0</ele>
        <time>2018-07-21T13:30:52Z</time>
      </trkpt>
      <trkpt lat="41.112133" lon="-3.656967">
        <ele>2154.0</ele>
        <time>2018-07-21T13:30:53Z</time>
      </trkpt>
      <trkpt lat="41.112217" lon="-3.656883">
        <ele>2151.0</ele>
        <time>2018-07-21T13:30:54Z</time>
      </trkpt>
      <trkpt lat="41.112317" lon="-3.656783">
        <ele>2149.0</ele>
        <time>2018-07-21T13:30:55Z</time>
      </trkpt>
      <trkpt lat="41.112417" lon="-3.656700">
        <ele>2147.0</ele>
        <time>2018-07-21T13:30:56Z</time>
      </trkpt>
      <trkpt lat="41.112517" lon="-3.656617">
        <ele>2145.0</ele>
        <time>2018-07-21T13:30:57Z</time>
      </trkpt>
      <trkpt lat="41.112600" lon="-3.656550">
        <ele>2144.0</ele>
        <time>2018-07-21T13:30:58Z</time>
      </trkpt>
      <trkpt lat="41.112700" lon="-3.656467">
        <ele>2142.0</ele>
        <time>2018-07-21T13:30:59Z</time>
      </trkpt>
      <trkpt lat="41.112800" lon="-3.656383">
        <ele>2140.0</ele>
        <time>2018-07-21T13:31:00Z</time>
      </trkpt>
      <trkpt lat="41.112883" lon="-3.656317">
        <ele>2138.0</ele>
        <time>2018-07-21T13:31:01Z</time>
      </trkpt>
      <trkpt lat="41.112983" lon="-3.656233">
        <ele>2136.0</ele>
        <time>2018-07-21T13:31:02Z</time>
      </trkpt>
      <trkpt lat="41.113067" lon="-3.656150">
        <ele>2134.0</ele>
        <time>2018-07-21T13:31:03Z</time>
      </trkpt>
      <trkpt lat="41.113167" lon="-3.656067">
        <ele>2132.0</ele>
        <time>2018-07-21T13:31:04Z</time>
      </trkpt>
      <trkpt lat="41.113250" lon="-3.655983">
        <ele>2130.0</ele>
        <time>2018-07-21T13:31:05Z</time>
      </trkpt>
      <trkpt lat="41.113333" lon="-3.655917">
        <ele>2128.0</ele>
        <time>2018-07-21T13:31:06Z</time>
      </trkpt>
      <trkpt lat="41.113417" lon="-3.655833">
        <ele>2126.0</ele>
        <time>2018-07-21T13:31:07Z</time>
      </trkpt>
      <trkpt lat="41.113500" lon="-3.655750">
        <ele>2124.0</ele>
        <time>2018-07-21T13:31:08Z</time>
      </trkpt>
      <trkpt lat="41.113600" lon="-3.655667">
        <ele>2121.0</ele>
        <time>2018-07-21T13:31:09Z</time>
      </trkpt>
      <trkpt lat="41.113683" lon="-3.655583">
        <ele>2119.0</ele>
        <time>2018-07-21T13:31:10Z</time>
      </trkpt>
      <trkpt lat="41.113783" lon="-3.655483">
        <ele>2117.0</ele>
        <time>2018-07-21T13:31:11Z</time>
      </trkpt>
      <trkpt lat="41.113867" lon="-3.655400">
        <ele>2115.0</ele>
        <time>2018-07-21T13:31:12Z</time>
      </trkpt>
      <trkpt lat="41.113967" lon="-3.655317">
        <ele>2114.0</ele>
        <time>2018-07-21T13:31:13Z</time>
      </trkpt>
      <trkpt lat="41.114050" lon="-3.655233">
        <ele>2113.0</ele>
        <time>2018-07-21T13:31:14Z</time>
      </trkpt>
      <trkpt lat="41.114150" lon="-3.655167">
        <ele>2112.0</ele>
        <time>2018-07-21T13:31:15Z</time>
      </trkpt>
      <trkpt lat="41.114233" lon="-3.655100">
        <ele>2111.0</ele>
        <time>2018-07-21T13:31:16Z</time>
      </trkpt>
      <trkpt lat="41.114317" lon="-3.655033">
        <ele>2111.0</ele>
        <time>2018-07-21T13:31:17Z</time>
      </trkpt>
      <trkpt lat="41.114417" lon="-3.654950">
        <ele>2112.0</ele>
        <time>2018-07-21T13:31:18Z</time>
      </trkpt>
      <trkpt lat="41.114500" lon="-3.654883">
        <ele>2112.0</ele>
        <time>2018-07-21T13:31:19Z</time>
      </trkpt>
      <trkpt lat="41.114583" lon="-3.654833">
        <ele>2112.0</ele>
        <time>2018-07-21T13:31:20Z</time>
      </trkpt>
      <trkpt lat="41.114650" lon="-3.654767">
        <ele>2111.0</ele>
        <time>2018-07-21T13:31:21Z</time>
      </trkpt>
      <trkpt lat="41.114733" lon="-3.654700">
        <ele>2110.0</ele>
        <time>2018-07-21T13:31:22Z</time>
      </trkpt>
      <trkpt lat="41.114817" lon="-3.654650">
        <ele>2108.0</ele>
        <time>2018-07-21T13:31:23Z</time>
      </trkpt>
      <trkpt lat="41.114883" lon="-3.654583">
        <ele>2106.0</ele>
        <time>2018-07-21T13:31:24Z</time>
      </trkpt>
      <trkpt lat="41.114967" lon="-3.654533">
        <ele>2105.0</ele>
        <time>2018-07-21T13:31:25Z</time>
      </trkpt>
      <trkpt lat="41.115050" lon="-3.654467">
        <ele>2103.0</ele>
        <time>2018-07-21T13:31:26Z</time>
      </trkpt>
      <trkpt lat="41.115133" lon="-3.654400">
        <ele>2102.0</ele>
        <time>2018-07-21T13:31:27Z</time>
      </trkpt>
      <trkpt lat="41.115217" lon="-3.654333">
        <ele>2101.0</ele>
        <time>2018-07-21T13:31:28Z</time>
      </trkpt>
      <trkpt lat="41.115300" lon="-3.654267">
        <ele>2100.0</ele>
        <time>2018-07-21T13:31:29Z</time>
      </trkpt>
      <trkpt lat="41.115367" lon="-3.654200">
        <ele>2100.0</ele>
        <time>2018-07-21T13:31:30Z</time>
      </trkpt>
      <trkpt lat="41.115450" lon="-3.654133">
        <ele>2099.0</ele>
        <time>2018-07-21T13:31:31Z</time>
      </trkpt>
      <trkpt lat="41.115533" lon="-3.654100">
        <ele>2098.0</ele>
        <time>2018-07-21T13:31:32Z</time>
      </trkpt>
      <trkpt lat="41.115617" lon="-3.654067">
        <ele>2096.0</ele>
        <time>2018-07-21T13:31:33Z</time>
      </trkpt>
      <trkpt lat="41.115700" lon="-3.654017">
        <ele>2095.0</ele>
        <time>2018-07-21T13:31:34Z</time>
      </trkpt>
      <trkpt lat="41.115800" lon="-3.653967">
        <ele>2093.0</ele>
        <time>2018-07-21T13:31:35Z</time>
      </trkpt>
      <trkpt lat="41.115883" lon="-3.653900">
        <ele>2091.0</ele>
        <time>2018-07-21T13:31:36Z</time>
      </trkpt>
      <trkpt lat="41.115967" lon="-3.653867">
        <ele>2089.0</ele>
        <time>2018-07-21T13:31:37Z</time>
      </trkpt>
      <trkpt lat="41.116067" lon="-3.653833">
        <ele>2088.0</ele>
        <time>2018-07-21T13:31:38Z</time>
      </trkpt>
      <trkpt lat="41.116167" lon="-3.653800">
        <ele>2086.0</ele>
        <time>2018-07-21T13:31:39Z</time>
      </trkpt>
      <trkpt lat="41.116250" lon="-3.653750">
        <ele>2086.0</ele>
        <time>2018-07-21T13:31:40Z</time>
      </trkpt>
      <trkpt lat="41.116333" lon="-3.653717">
        <ele>2084.0</ele>
        <time>2018-07-21T13:31:41Z</time>
      </trkpt>
      <trkpt lat="41.116417" lon="-3.653667">
        <ele>2083.0</ele>
        <time>2018-07-21T13:31:42Z</time>
      </trkpt>
      <trkpt lat="41.116500" lon="-3.653617">
        <ele>2080.0</ele>
        <time>2018-07-21T13:31:43Z</time>
      </trkpt>
      <trkpt lat="41.116600" lon="-3.653567">
        <ele>2077.0</ele>
        <time>2018-07-21T13:31:44Z</time>
      </trkpt>
      <trkpt lat="41.116700" lon="-3.653517">
        <ele>2074.0</ele>
        <time>2018-07-21T13:31:45Z</time>
      </trkpt>
      <trkpt lat="41.116800" lon="-3.653467">
        <ele>2071.0</ele>
        <time>2018-07-21T13:31:46Z</time>
      </trkpt>
      <trkpt lat="41.116900" lon="-3.653383">
        <ele>2069.0</ele>
        <time>2018-07-21T13:31:47Z</time>
      </trkpt>
      <trkpt lat="41.116983" lon="-3.653317">
        <ele>2068.0</ele>
        <time>2018-07-21T13:31:48Z</time>
      </trkpt>
      <trkpt lat="41.117067" lon="-3.653250">
        <ele>2066.0</ele>
        <time>2018-07-21T13:31:49Z</time>
      </trkpt>
      <trkpt lat="41.117150" lon="-3.653183">
        <ele>2064.0</ele>
        <time>2018-07-21T13:31:50Z</time>
      </trkpt>
      <trkpt lat="41.117233" lon="-3.653133">
        <ele>2061.0</ele>
        <time>2018-07-21T13:31:51Z</time>
      </trkpt>
      <trkpt lat="41.117333" lon="-3.653067">
        <ele>2058.0</ele>
        <time>2018-07-21T13:31:52Z</time>
      </trkpt>
      <trkpt lat="41.117417" lon="-3.653000">
        <ele>2056.0</ele>
        <time>2018-07-21T13:31:53Z</time>
      </trkpt>
      <trkpt lat="41.117500" lon="-3.652917">
        <ele>2054.0</ele>
        <time>2018-07-21T13:31:54Z</time>
      </trkpt>
      <trkpt lat="41.117600" lon="-3.652833">
        <ele>2052.0</ele>
        <time>2018-07-21T13:31:55Z</time>
      </trkpt>
      <trkpt lat="41.117683" lon="-3.652767">
        <ele>2050.0</ele>
        <time>2018-07-21T13:31:56Z</time>
      </trkpt>
      <trkpt lat="41.117767" lon="-3.652700">
        <ele>2048.0</ele>
        <time>2018-07-21T13:31:57Z</time>
      </trkpt>
      <trkpt lat="41.117850" lon="-3.652633">
        <ele>2046.0</ele>
        <time>2018-07-21T13:31:58Z</time>
      </trkpt>
      <trkpt lat="41.117933" lon="-3.652550">
        <ele>2043.0</ele>
        <time>2018-07-21T13:31:59Z</time>
      </trkpt>
      <trkpt lat="41.118017" lon="-3.652483">
        <ele>2041.0</ele>
        <time>2018-07-21T13:32:00Z</time>
      </trkpt>
      <trkpt lat="41.118100" lon="-3.652417">
        <ele>2039.0</ele>
        <time>2018-07-21T13:32:01Z</time>
      </trkpt>
      <trkpt lat="41.118183" lon="-3.652350">
        <ele>2037.0</ele>
        <time>2018-07-21T13:32:02Z</time>
      </trkpt>
      <trkpt lat="41.118267" lon="-3.652283">
        <ele>2035.0</ele>
        <time>2018-07-21T13:32:03Z</time>
      </trkpt>
      <trkpt lat="41.118333" lon="-3.652217">
        <ele>2034.0</ele>
        <time>2018-07-21T13:32:04Z</time>
      </trkpt>
      <trkpt lat="41.118417" lon="-3.652133">
        <ele>2032.0</ele>
        <time>2018-07-21T13:32:05Z</time>
      </trkpt>
      <trkpt lat="41.118500" lon="-3.652067">
        <ele>2030.0</ele>
        <time>2018-07-21T13:32:06Z</time>
      </trkpt>
      <trkpt lat="41.118583" lon="-3.651983">
        <ele>2027.0</ele>
        <time>2018-07-21T13:32:07Z</time>
      </trkpt>
      <trkpt lat="41.118667" lon="-3.651900">
        <ele>2025.0</ele>
        <time>2018-07-21T13:32:08Z</time>
      </trkpt>
      <trkpt lat="41.118767" lon="-3.651817">
        <ele>2024.0</ele>
        <time>2018-07-21T13:32:09Z</time>
      </trkpt>
      <trkpt lat="41.118850" lon="-3.651733">
        <ele>2024.0</ele>
        <time>2018-07-21T13:32:10Z</time>
      </trkpt>
      <trkpt lat="41.118933" lon="-3.651650">
        <ele>2024.0</ele>
        <time>2018-07-21T13:32:11Z</time>
      </trkpt>
      <trkpt lat="41.119000" lon="-3.651567">
        <ele>2024.0</ele>
        <time>2018-07-21T13:32:12Z</time>
      </trkpt>
      <trkpt lat="41.119067" lon="-3.651467">
        <ele>2022.0</ele>
        <time>2018-07-21T13:32:13Z</time>
      </trkpt>
      <trkpt lat="41.119150" lon="-3.651350">
        <ele>2020.0</ele>
        <time>2018-07-21T13:32:14Z</time>
      </trkpt>
      <trkpt lat="41.119233" lon="-3.651233">
        <ele>2017.0</ele>
        <time>2018-07-21T13:32:15Z</time>
      </trkpt>
      <trkpt lat="41.119300" lon="-3.651133">
        <ele>2016.0</ele>
        <time>2018-07-21T13:32:16Z</time>
      </trkpt>
      <trkpt lat="41.119383" lon="-3.651017">
        <ele>2015.0</ele>
        <time>2018-07-21T13:32:17Z</time>
      </trkpt>
      <trkpt lat="41.119450" lon="-3.650917">
        <ele>2013.0</ele>
        <time>2018-07-21T13:32:18Z</time>
      </trkpt>
      <trkpt lat="41.119517" lon="-3.650800">
        <ele>2012.0</ele>
        <time>2018-07-21T13:32:19Z</time>
      </trkpt>
      <trkpt lat="41.119583" lon="-3.650700">
        <ele>2010.0</ele>
        <time>2018-07-21T13:32:20Z</time>
      </trkpt>
      <trkpt lat="41.119650" lon="-3.650583">
        <ele>2007.0</ele>
        <time>2018-07-21T13:32:21Z</time>
      </trkpt>
      <trkpt lat="41.119733" lon="-3.650483">
        <ele>2005.0</ele>
        <time>2018-07-21T13:32:22Z</time>
      </trkpt>
      <trkpt lat="41.119817" lon="-3.650350">
        <ele>2002.0</ele>
        <time>2018-07-21T13:32:23Z</time>
      </trkpt>
      <trkpt lat="41.119900" lon="-3.650233">
        <ele>2001.0</ele>
        <time>2018-07-21T13:32:24Z</time>
      </trkpt>
      <trkpt lat="41.119983" lon="-3.650117">
        <ele>2000.0</ele>
        <time>2018-07-21T13:32:25Z</time>
      </trkpt>
      <trkpt lat="41.120067" lon="-3.650017">
        <ele>1999.0</ele>
        <time>2018-07-21T13:32:26Z</time>
      </trkpt>
      <trkpt lat="41.120150" lon="-3.649917">
        <ele>1998.0</ele>
        <time>2018-07-21T13:32:27Z</time>
      </trkpt>
      <trkpt lat="41.120217" lon="-3.649817">
        <ele>1996.0</ele>
        <time>2018-07-21T13:32:28Z</time>
      </trkpt>
      <trkpt lat="41.120300" lon="-3.649717">
        <ele>1994.0</ele>
        <time>2018-07-21T13:32:29Z</time>
      </trkpt>
      <trkpt lat="41.120383" lon="-3.649600">
        <ele>1992.0</ele>
        <time>2018-07-21T13:32:30Z</time>
      </trkpt>
      <trkpt lat="41.120467" lon="-3.649500">
        <ele>1990.0</ele>
        <time>2018-07-21T13:32:31Z</time>
      </trkpt>
      <trkpt lat="41.120550" lon="-3.649400">
        <ele>1989.0</ele>
        <time>2018-07-21T13:32:32Z</time>
      </trkpt>
      <trkpt lat="41.120633" lon="-3.649300">
        <ele>1987.0</ele>
        <time>2018-07-21T13:32:33Z</time>
      </trkpt>
      <trkpt lat="41.120717" lon="-3.649200">
        <ele>1986.0</ele>
        <time>2018-07-21T13:32:34Z</time>
      </trkpt>
      <trkpt lat="41.120800" lon="-3.649083">
        <ele>1985.0</ele>
        <time>2018-07-21T13:32:35Z</time>
      </trkpt>
      <trkpt lat="41.120867" lon="-3.649000">
        <ele>1983.0</ele>
        <time>2018-07-21T13:32:36Z</time>
      </trkpt>
      <trkpt lat="41.120950" lon="-3.648900">
        <ele>1981.0</ele>
        <time>2018-07-21T13:32:37Z</time>
      </trkpt>
      <trkpt lat="41.121017" lon="-3.648817">
        <ele>1979.0</ele>
        <time>2018-07-21T13:32:38Z</time>
      </trkpt>
      <trkpt lat="41.121100" lon="-3.648717">
        <ele>1976.0</ele>
        <time>2018-07-21T13:32:39Z</time>
      </trkpt>
      <trkpt lat="41.121183" lon="-3.648617">
        <ele>1974.0</ele>
        <time>2018-07-21T13:32:40Z</time>
      </trkpt>
      <trkpt lat="41.121267" lon="-3.648517">
        <ele>1972.0</ele>
        <time>2018-07-21T13:32:41Z</time>
      </trkpt>
      <trkpt lat="41.121333" lon="-3.648400">
        <ele>1970.0</ele>
        <time>2018-07-21T13:32:42Z</time>
      </trkpt>
      <trkpt lat="41.121417" lon="-3.648283">
        <ele>1967.0</ele>
        <time>2018-07-21T13:32:43Z</time>
      </trkpt>
      <trkpt lat="41.121483" lon="-3.648167">
        <ele>1964.0</ele>
        <time>2018-07-21T13:32:44Z</time>
      </trkpt>
      <trkpt lat="41.121550" lon="-3.648017">
        <ele>1961.0</ele>
        <time>2018-07-21T13:32:45Z</time>
      </trkpt>
      <trkpt lat="41.121617" lon="-3.647883">
        <ele>1959.0</ele>
        <time>2018-07-21T13:32:46Z</time>
      </trkpt>
      <trkpt lat="41.121683" lon="-3.647733">
        <ele>1957.0</ele>
        <time>2018-07-21T13:32:47Z</time>
      </trkpt>
      <trkpt lat="41.121750" lon="-3.647583">
        <ele>1956.0</ele>
        <time>2018-07-21T13:32:48Z</time>
      </trkpt>
      <trkpt lat="41.121817" lon="-3.647433">
        <ele>1955.0</ele>
        <time>2018-07-21T13:32:49Z</time>
      </trkpt>
      <trkpt lat="41.121883" lon="-3.647300">
        <ele>1955.0</ele>
        <time>2018-07-21T13:32:50Z</time>
      </trkpt>
      <trkpt lat="41.121950" lon="-3.647183">
        <ele>1954.0</ele>
        <time>2018-07-21T13:32:51Z</time>
      </trkpt>
      <trkpt lat="41.122017" lon="-3.647083">
        <ele>1953.0</ele>
        <time>2018-07-21T13:32:52Z</time>
      </trkpt>
      <trkpt lat="41.122083" lon="-3.646967">
        <ele>1951.0</ele>
        <time>2018-07-21T13:32:53Z</time>
      </trkpt>
      <trkpt lat="41.122167" lon="-3.646867">
        <ele>1949.0</ele>
        <time>2018-07-21T13:32:54Z</time>
      </trkpt>
      <trkpt lat="41.122267" lon="-3.646767">
        <ele>1947.0</ele>
        <time>2018-07-21T13:32:55Z</time>
      </trkpt>
      <trkpt lat="41.122350" lon="-3.646683">
        <ele>1946.0</ele>
        <time>2018-07-21T13:32:56Z</time>
      </trkpt>
      <trkpt lat="41.122433" lon="-3.646600">
        <ele>1945.0</ele>
        <time>2018-07-21T13:32:57Z</time>
      </trkpt>
      <trkpt lat="41.122517" lon="-3.646533">
        <ele>1944.0</ele>
        <time>2018-07-21T13:32:58Z</time>
      </trkpt>
      <trkpt lat="41.122600" lon="-3.646450">
        <ele>1942.0</ele>
        <time>2018-07-21T13:32:59Z</time>
      </trkpt>
      <trkpt lat="41.122683" lon="-3.646383">
        <ele>1940.0</ele>
        <time>2018-07-21T13:33:00Z</time>
      </trkpt>
      <trkpt lat="41.122767" lon="-3.646283">
        <ele>1939.0</ele>
        <time>2018-07-21T13:33:01Z</time>
      </trkpt>
      <trkpt lat="41.122867" lon="-3.646200">
        <ele>1938.0</ele>
        <time>2018-07-21T13:33:02Z</time>
      </trkpt>
      <trkpt lat="41.122950" lon="-3.646100">
        <ele>1939.0</ele>
        <time>2018-07-21T13:33:03Z</time>
      </trkpt>
      <trkpt lat="41.123050" lon="-3.646000">
        <ele>1941.0</ele>
        <time>2018-07-21T13:33:04Z</time>
      </trkpt>
      <trkpt lat="41.123117" lon="-3.645900">
        <ele>1943.0</ele>
        <time>2018-07-21T13:33:05Z</time>
      </trkpt>
      <trkpt lat="41.123183" lon="-3.645817">
        <ele>1945.0</ele>
        <time>2018-07-21T13:33:06Z</time>
      </trkpt>
      <trkpt lat="41.123233" lon="-3.645733">
        <ele>1946.0</ele>
        <time>2018-07-21T13:33:07Z</time>
      </trkpt>
      <trkpt lat="41.123283" lon="-3.645650">
        <ele>1945.0</ele>
        <time>2018-07-21T13:33:08Z</time>
      </trkpt>
      <trkpt lat="41.123350" lon="-3.645583">
        <ele>1944.0</ele>
        <time>2018-07-21T13:33:09Z</time>
      </trkpt>
      <trkpt lat="41.123433" lon="-3.645533">
        <ele>1941.0</ele>
        <time>2018-07-21T13:33:10Z</time>
      </trkpt>
      <trkpt lat="41.123500" lon="-3.645500">
        <ele>1939.0</ele>
        <time>2018-07-21T13:33:11Z</time>
      </trkpt>
      <trkpt lat="41.123583" lon="-3.645450">
        <ele>1938.0</ele>
        <time>2018-07-21T13:33:12Z</time>
      </trkpt>
      <trkpt lat="41.123667" lon="-3.645400">
        <ele>1937.0</ele>
        <time>2018-07-21T13:33:13Z</time>
      </trkpt>
      <trkpt lat="41.123767" lon="-3.645317">
        <ele>1935.0</ele>
        <time>2018-07-21T13:33:14Z</time>
      </trkpt>
      <trkpt lat="41.123850" lon="-3.645233">
        <ele>1935.0</ele>
        <time>2018-07-21T13:33:15Z</time>
      </trkpt>
      <trkpt lat="41.123917" lon="-3.645133">
        <ele>1934.0</ele>
        <time>2018-07-21T13:33:16Z</time>
      </trkpt>
      <trkpt lat="41.124000" lon="-3.645033">
        <ele>1934.0</ele>
        <time>2018-07-21T13:33:17Z</time>
      </trkpt>
      <trkpt lat="41.124067" lon="-3.644933">
        <ele>1933.0</ele>
        <time>2018-07-21T13:33:18Z</time>
      </trkpt>
      <trkpt lat="41.124133" lon="-3.644833">
        <ele>1932.0</ele>
        <time>2018-07-21T13:33:19Z</time>
      </trkpt>
      <trkpt lat="41.124217" lon="-3.644700">
        <ele>1930.0</ele>
        <time>2018-07-21T13:33:20Z</time>
      </trkpt>
      <trkpt lat="41.124283" lon="-3.644583">
        <ele>1929.0</ele>
        <time>2018-07-21T13:33:21Z</time>
      </trkpt>
      <trkpt lat="41.124350" lon="-3.644467">
        <ele>1929.0</ele>
        <time>2018-07-21T13:33:22Z</time>
      </trkpt>
      <trkpt lat="41.124417" lon="-3.644350">
        <ele>1928.0</ele>
        <time>2018-07-21T13:33:23Z</time>
      </trkpt>
      <trkpt lat="41.124500" lon="-3.644250">
        <ele>1926.0</ele>
        <time>2018-07-21T13:33:24Z</time>
      </trkpt>
      <trkpt lat="41.124567" lon="-3.644167">
        <ele>1924.0</ele>
        <time>2018-07-21T13:33:25Z</time>
      </trkpt>
      <trkpt lat="41.124650" lon="-3.644067">
        <ele>1922.0</ele>
        <time>2018-07-21T13:33:26Z</time>
      </trkpt>
      <trkpt lat="41.124733" lon="-3.643967">
        <ele>1920.0</ele>
        <time>2018-07-21T13:33:27Z</time>
      </trkpt>
      <trkpt lat="41.124800" lon="-3.643850">
        <ele>1919.0</ele>
        <time>2018-07-21T13:33:28Z</time>
      </trkpt>
      <trkpt lat="41.124883" lon="-3.643733">
        <ele>1918.0</ele>
        <time>2018-07-21T13:33:29Z</time>
      </trkpt>
      <trkpt lat="41.124967" lon="-3.643633">
        <ele>1918.0</ele>
        <time>2018-07-21T13:33:30Z</time>
      </trkpt>
      <trkpt lat="41.125033" lon="-3.643533">
        <ele>1918.0</ele>
        <time>2018-07-21T13:33:31Z</time>
      </trkpt>
      <trkpt lat="41.125117" lon="-3.643417">
        <ele>1918.0</ele>
        <time>2018-07-21T13:33:32Z</time>
      </trkpt>
      <trkpt lat="41.125200" lon="-3.643300">
        <ele>1918.0</ele>
        <time>2018-07-21T13:33:33Z</time>
      </trkpt>
      <trkpt lat="41.125283" lon="-3.643200">
        <ele>1918.0</ele>
        <time>2018-07-21T13:33:34Z</time>
      </trkpt>
      <trkpt lat="41.125367" lon="-3.643100">
        <ele>1919.0</ele>
        <time>2018-07-21T13:33:35Z</time>
      </trkpt>
      <trkpt lat="41.125433" lon="-3.643000">
        <ele>1919.0</ele>
        <time>2018-07-21T13:33:36Z</time>
      </trkpt>
      <trkpt lat="41.125517" lon="-3.642917">
        <ele>1918.0</ele>
        <time>2018-07-21T13:33:37Z</time>
      </trkpt>
      <trkpt lat="41.125600" lon="-3.642800">
        <ele>1916.0</ele>
        <time>2018-07-21T13:33:38Z</time>
      </trkpt>
      <trkpt lat="41.125700" lon="-3.642683">
        <ele>1915.0</ele>
        <time>2018-07-21T13:33:39Z</time>
      </trkpt>
      <trkpt lat="41.125767" lon="-3.642567">
        <ele>1915.0</ele>
        <time>2018-07-21T13:33:40Z</time>
      </trkpt>
      <trkpt lat="41.125833" lon="-3.642450">
        <ele>1915.0</ele>
        <time>2018-07-21T13:33:41Z</time>
      </trkpt>
      <trkpt lat="41.125900" lon="-3.642333">
        <ele>1915.0</ele>
        <time>2018-07-21T13:33:42Z</time>
      </trkpt>
      <trkpt lat="41.125967" lon="-3.642233">
        <ele>1914.0</ele>
        <time>2018-07-21T13:33:43Z</time>
      </trkpt>
      <trkpt lat="41.126050" lon="-3.642150">
        <ele>1913.0</ele>
        <time>2018-07-21T13:33:44Z</time>
      </trkpt>
      <trkpt lat="41.126133" lon="-3.642067">
        <ele>1913.0</ele>
        <time>2018-07-21T13:33:45Z</time>
      </trkpt>
      <trkpt lat="41.126217" lon="-3.641983">
        <ele>1913.0</ele>
        <time>2018-07-21T13:33:46Z</time>
      </trkpt>
      <trkpt lat="41.126300" lon="-3.641917">
        <ele>1915.0</ele>
        <time>2018-07-21T13:33:47Z</time>
      </trkpt>
      <trkpt lat="41.126383" lon="-3.641867">
        <ele>1916.0</ele>
        <time>2018-07-21T13:33:48Z</time>
      </trkpt>
      <trkpt lat="41.126450" lon="-3.641817">
        <ele>1918.0</ele>
        <time>2018-07-21T13:33:49Z</time>
      </trkpt>
      <trkpt lat="41.126533" lon="-3.641750">
        <ele>1919.0</ele>
        <time>2018-07-21T13:33:50Z</time>
      </trkpt>
      <trkpt lat="41.126600" lon="-3.641700">
        <ele>1919.0</ele>
        <time>2018-07-21T13:33:51Z</time>
      </trkpt>
      <trkpt lat="41.126683" lon="-3.641633">
        <ele>1919.0</ele>
        <time>2018-07-21T13:33:52Z</time>
      </trkpt>
      <trkpt lat="41.126767" lon="-3.641583">
        <ele>1920.0</ele>
        <time>2018-07-21T13:33:53Z</time>
      </trkpt>
      <trkpt lat="41.126833" lon="-3.641583">
        <ele>1920.0</ele>
        <time>2018-07-21T13:33:54Z</time>
      </trkpt>
      <trkpt lat="41.126900" lon="-3.641600">
        <ele>1920.0</ele>
        <time>2018-07-21T13:33:55Z</time>
      </trkpt>
      <trkpt lat="41.126950" lon="-3.641650">
        <ele>1920.0</ele>
        <time>2018-07-21T13:33:56Z</time>
      </trkpt>
      <trkpt lat="41.127000" lon="-3.641700">
        <ele>1921.0</ele>
        <time>2018-07-21T13:33:57Z</time>
      </trkpt>
      <trkpt lat="41.127050" lon="-3.641767">
        <ele>1921.0</ele>
        <time>2018-07-21T13:33:58Z</time>
      </trkpt>
      <trkpt lat="41.127067" lon="-3.641817">
        <ele>1921.0</ele>
        <time>2018-07-21T13:33:59Z</time>
      </trkpt>
      <trkpt lat="41.127067" lon="-3.641900">
        <ele>1921.0</ele>
        <time>2018-07-21T13:34:00Z</time>
      </trkpt>
      <trkpt lat="41.127033" lon="-3.641967">
        <ele>1921.0</ele>
        <time>2018-07-21T13:34:01Z</time>
      </trkpt>
      <trkpt lat="41.126983" lon="-3.642050">
        <ele>1920.0</ele>
        <time>2018-07-21T13:34:02Z</time>
      </trkpt>
      <trkpt lat="41.126917" lon="-3.642100">
        <ele>1921.0</ele>
        <time>2018-07-21T13:34:03Z</time>
      </trkpt>
      <trkpt lat="41.126817" lon="-3.642133">
        <ele>1921.0</ele>
        <time>2018-07-21T13:34:04Z</time>
      </trkpt>
      <trkpt lat="41.126717" lon="-3.642117">
        <ele>1922.0</ele>
        <time>2018-07-21T13:34:05Z</time>
      </trkpt>
      <trkpt lat="41.126617" lon="-3.642083">
        <ele>1923.0</ele>
        <time>2018-07-21T13:34:06Z</time>
      </trkpt>
      <trkpt lat="41.126500" lon="-3.642000">
        <ele>1925.0</ele>
        <time>2018-07-21T13:34:07Z</time>
      </trkpt>
      <trkpt lat="41.126400" lon="-3.641900">
        <ele>1926.0</ele>
        <time>2018-07-21T13:34:08Z</time>
      </trkpt>
      <trkpt lat="41.126300" lon="-3.641783">
        <ele>1928.0</ele>
        <time>2018-07-21T13:34:09Z</time>
      </trkpt>
      <trkpt lat="41.126217" lon="-3.641650">
        <ele>1930.0</ele>
        <time>2018-07-21T13:34:10Z</time>
      </trkpt>
      <trkpt lat="41.126150" lon="-3.641500">
        <ele>1931.0</ele>
        <time>2018-07-21T13:34:11Z</time>
      </trkpt>
      <trkpt lat="41.126133" lon="-3.641317">
        <ele>1931.0</ele>
        <time>2018-07-21T13:34:12Z</time>
      </trkpt>
      <trkpt lat="41.126133" lon="-3.641133">
        <ele>1930.0</ele>
        <time>2018-07-21T13:34:13Z</time>
      </trkpt>
      <trkpt lat="41.126183" lon="-3.640967">
        <ele>1929.0</ele>
        <time>2018-07-21T13:34:14Z</time>
      </trkpt>
      <trkpt lat="41.126250" lon="-3.640817">
        <ele>1929.0</ele>
        <time>2018-07-21T13:34:15Z</time>
      </trkpt>
      <trkpt lat="41.126333" lon="-3.640717">
        <ele>1931.0</ele>
        <time>2018-07-21T13:34:16Z</time>
      </trkpt>
      <trkpt lat="41.126400" lon="-3.640633">
        <ele>1933.0</ele>
        <time>2018-07-21T13:34:17Z</time>
      </trkpt>
      <trkpt lat="41.126467" lon="-3.640600">
        <ele>1935.0</ele>
        <time>2018-07-21T13:34:18Z</time>
      </trkpt>
      <trkpt lat="41.126533" lon="-3.640567">
        <ele>1935.0</ele>
        <time>2018-07-21T13:34:19Z</time>
      </trkpt>
      <trkpt lat="41.126600" lon="-3.640567">
        <ele>1935.0</ele>
        <time>2018-07-21T13:34:20Z</time>
      </trkpt>
      <trkpt lat="41.126667" lon="-3.640600">
        <ele>1934.0</ele>
        <time>2018-07-21T13:34:21Z</time>
      </trkpt>
      <trkpt lat="41.126717" lon="-3.640633">
        <ele>1934.0</ele>
        <time>2018-07-21T13:34:22Z</time>
      </trkpt>
      <trkpt lat="41.126750" lon="-3.640667">
        <ele>1934.0</ele>
        <time>2018-07-21T13:34:23Z</time>
      </trkpt>
      <trkpt lat="41.126767" lon="-3.640733">
        <ele>1933.0</ele>
        <time>2018-07-21T13:34:24Z</time>
      </trkpt>
      <trkpt lat="41.126767" lon="-3.640800">
        <ele>1932.0</ele>
        <time>2018-07-21T13:34:25Z</time>
      </trkpt>
      <trkpt lat="41.126733" lon="-3.640867">
        <ele>1931.0</ele>
        <time>2018-07-21T13:34:26Z</time>
      </trkpt>
      <trkpt lat="41.126683" lon="-3.640950">
        <ele>1930.0</ele>
        <time>2018-07-21T13:34:27Z</time>
      </trkpt>
      <trkpt lat="41.126600" lon="-3.641000">
        <ele>1930.0</ele>
        <time>2018-07-21T13:34:28Z</time>
      </trkpt>
      <trkpt lat="41.126517" lon="-3.641033">
        <ele>1930.0</ele>
        <time>2018-07-21T13:34:29Z</time>
      </trkpt>
      <trkpt lat="41.126400" lon="-3.641033">
        <ele>1930.0</ele>
        <time>2018-07-21T13:34:30Z</time>
      </trkpt>
      <trkpt lat="41.126283" lon="-3.641000">
        <ele>1930.0</ele>
        <time>2018-07-21T13:34:31Z</time>
      </trkpt>
      <trkpt lat="41.126183" lon="-3.640917">
        <ele>1930.0</ele>
        <time>2018-07-21T13:34:32Z</time>
      </trkpt>
      <trkpt lat="41.126083" lon="-3.640800">
        <ele>1930.0</ele>
        <time>2018-07-21T13:34:33Z</time>
      </trkpt>
      <trkpt lat="41.126000" lon="-3.640633">
        <ele>1930.0</ele>
        <time>2018-07-21T13:34:34Z</time>
      </trkpt>
      <trkpt lat="41.125950" lon="-3.640450">
        <ele>1929.0</ele>
        <time>2018-07-21T13:34:35Z</time>
      </trkpt>
      <trkpt lat="41.125967" lon="-3.640267">
        <ele>1928.0</ele>
        <time>2018-07-21T13:34:36Z</time>
      </trkpt>
      <trkpt lat="41.126017" lon="-3.640100">
        <ele>1929.0</ele>
        <time>2018-07-21T13:34:37Z</time>
      </trkpt>
      <trkpt lat="41.126083" lon="-3.639967">
        <ele>1930.0</ele>
        <time>2018-07-21T13:34:38Z</time>
      </trkpt>
      <trkpt lat="41.126150" lon="-3.639867">
        <ele>1932.0</ele>
        <time>2018-07-21T13:34:39Z</time>
      </trkpt>
      <trkpt lat="41.126217" lon="-3.639783">
        <ele>1934.0</ele>
        <time>2018-07-21T13:34:40Z</time>
      </trkpt>
      <trkpt lat="41.126267" lon="-3.639700">
        <ele>1934.0</ele>
        <time>2018-07-21T13:34:41Z</time>
      </trkpt>
      <trkpt lat="41.126317" lon="-3.639617">
        <ele>1933.0</ele>
        <time>2018-07-21T13:34:42Z</time>
      </trkpt>
      <trkpt lat="41.126400" lon="-3.639550">
        <ele>1931.0</ele>
        <time>2018-07-21T13:34:43Z</time>
      </trkpt>
      <trkpt lat="41.126467" lon="-3.639517">
        <ele>1929.0</ele>
        <time>2018-07-21T13:34:44Z</time>
      </trkpt>
      <trkpt lat="41.126550" lon="-3.639500">
        <ele>1927.0</ele>
        <time>2018-07-21T13:34:45Z</time>
      </trkpt>
      <trkpt lat="41.126617" lon="-3.639500">
        <ele>1926.0</ele>
        <time>2018-07-21T13:34:46Z</time>
      </trkpt>
      <trkpt lat="41.126700" lon="-3.639500">
        <ele>1925.0</ele>
        <time>2018-07-21T13:34:47Z</time>
      </trkpt>
      <trkpt lat="41.126767" lon="-3.639483">
        <ele>1924.0</ele>
        <time>2018-07-21T13:34:48Z</time>
      </trkpt>
      <trkpt lat="41.126833" lon="-3.639483">
        <ele>1923.0</ele>
        <time>2018-07-21T13:34:49Z</time>
      </trkpt>
      <trkpt lat="41.126917" lon="-3.639483">
        <ele>1922.0</ele>
        <time>2018-07-21T13:34:50Z</time>
      </trkpt>
      <trkpt lat="41.127000" lon="-3.639467">
        <ele>1922.0</ele>
        <time>2018-07-21T13:34:51Z</time>
      </trkpt>
      <trkpt lat="41.127067" lon="-3.639417">
        <ele>1922.0</ele>
        <time>2018-07-21T13:34:52Z</time>
      </trkpt>
      <trkpt lat="41.127133" lon="-3.639383">
        <ele>1922.0</ele>
        <time>2018-07-21T13:34:53Z</time>
      </trkpt>
      <trkpt lat="41.127217" lon="-3.639333">
        <ele>1921.0</ele>
        <time>2018-07-21T13:34:54Z</time>
      </trkpt>
      <trkpt lat="41.127300" lon="-3.639300">
        <ele>1919.0</ele>
        <time>2018-07-21T13:34:55Z</time>
      </trkpt>
      <trkpt lat="41.127400" lon="-3.639283">
        <ele>1918.0</ele>
        <time>2018-07-21T13:34:56Z</time>
      </trkpt>
      <trkpt lat="41.127500" lon="-3.639283">
        <ele>1919.0</ele>
        <time>2018-07-21T13:34:57Z</time>
      </trkpt>
      <trkpt lat="41.127583" lon="-3.639300">
        <ele>1921.0</ele>
        <time>2018-07-21T13:34:58Z</time>
      </trkpt>
      <trkpt lat="41.127667" lon="-3.639317">
        <ele>1923.0</ele>
        <time>2018-07-21T13:34:59Z</time>
      </trkpt>
      <trkpt lat="41.127733" lon="-3.639333">
        <ele>1926.0</ele>
        <time>2018-07-21T13:35:00Z</time>
      </trkpt>
      <trkpt lat="41.127817" lon="-3.639333">
        <ele>1929.0</ele>
        <time>2018-07-21T13:35:01Z</time>
      </trkpt>
      <trkpt lat="41.127883" lon="-3.639350">
        <ele>1931.0</ele>
        <time>2018-07-21T13:35:02Z</time>
      </trkpt>
      <trkpt lat="41.127967" lon="-3.639367">
        <ele>1933.0</ele>
        <time>2018-07-21T13:35:03Z</time>
      </trkpt>
      <trkpt lat="41.128050" lon="-3.639400">
        <ele>1936.0</ele>
        <time>2018-07-21T13:35:04Z</time>
      </trkpt>
      <trkpt lat="41.128100" lon="-3.639450">
        <ele>1938.0</ele>
        <time>2018-07-21T13:35:05Z</time>
      </trkpt>
      <trkpt lat="41.128117" lon="-3.639517">
        <ele>1940.0</ele>
        <time>2018-07-21T13:35:06Z</time>
      </trkpt>
      <trkpt lat="41.128050" lon="-3.639583">
        <ele>1940.0</ele>
        <time>2018-07-21T13:35:07Z</time>
      </trkpt>
      <trkpt lat="41.127983" lon="-3.639617">
        <ele>1938.0</ele>
        <time>2018-07-21T13:35:08Z</time>
      </trkpt>
      <trkpt lat="41.127867" lon="-3.639617">
        <ele>1937.0</ele>
        <time>2018-07-21T13:35:09Z</time>
      </trkpt>
      <trkpt lat="41.127750" lon="-3.639550">
        <ele>1937.0</ele>
        <time>2018-07-21T13:35:10Z</time>
      </trkpt>
      <trkpt lat="41.127650" lon="-3.639433">
        <ele>1939.0</ele>
        <time>2018-07-21T13:35:11Z</time>
      </trkpt>
      <trkpt lat="41.127600" lon="-3.639283">
        <ele>1941.0</ele>
        <time>2018-07-21T13:35:12Z</time>
      </trkpt>
      <trkpt lat="41.127567" lon="-3.639100">
        <ele>1944.0</ele>
        <time>2018-07-21T13:35:13Z</time>
      </trkpt>
      <trkpt lat="41.127567" lon="-3.638933">
        <ele>1947.0</ele>
        <time>2018-07-21T13:35:14Z</time>
      </trkpt>
      <trkpt lat="41.127567" lon="-3.638783">
        <ele>1952.0</ele>
        <time>2018-07-21T13:35:15Z</time>
      </trkpt>
      <trkpt lat="41.127550" lon="-3.638650">
        <ele>1954.0</ele>
        <time>2018-07-21T13:35:16Z</time>
      </trkpt>
      <trkpt lat="41.127550" lon="-3.638500">
        <ele>1957.0</ele>
        <time>2018-07-21T13:35:17Z</time>
      </trkpt>
      <trkpt lat="41.127567" lon="-3.638367">
        <ele>1958.0</ele>
        <time>2018-07-21T13:35:18Z</time>
      </trkpt>
      <trkpt lat="41.127617" lon="-3.638217">
        <ele>1959.0</ele>
        <time>2018-07-21T13:35:19Z</time>
      </trkpt>
      <trkpt lat="41.127667" lon="-3.638083">
        <ele>1961.0</ele>
        <time>2018-07-21T13:35:20Z</time>
      </trkpt>
      <trkpt lat="41.127733" lon="-3.637983">
        <ele>1962.0</ele>
        <time>2018-07-21T13:35:21Z</time>
      </trkpt>
      <trkpt lat="41.127817" lon="-3.637950">
        <ele>1962.0</ele>
        <time>2018-07-21T13:35:22Z</time>
      </trkpt>
      <trkpt lat="41.127883" lon="-3.637983">
        <ele>1962.0</ele>
        <time>2018-07-21T13:35:23Z</time>
      </trkpt>
      <trkpt lat="41.127933" lon="-3.638050">
        <ele>1963.0</ele>
        <time>2018-07-21T13:35:24Z</time>
      </trkpt>
      <trkpt lat="41.127933" lon="-3.638133">
        <ele>1963.0</ele>
        <time>2018-07-21T13:35:25Z</time>
      </trkpt>
      <trkpt lat="41.127900" lon="-3.638233">
        <ele>1964.0</ele>
        <time>2018-07-21T13:35:26Z</time>
      </trkpt>
      <trkpt lat="41.127817" lon="-3.638300">
        <ele>1965.0</ele>
        <time>2018-07-21T13:35:27Z</time>
      </trkpt>
      <trkpt lat="41.127683" lon="-3.638317">
        <ele>1965.0</ele>
        <time>2018-07-21T13:35:28Z</time>
      </trkpt>
      <trkpt lat="41.127550" lon="-3.638267">
        <ele>1965.0</ele>
        <time>2018-07-21T13:35:29Z</time>
      </trkpt>
      <trkpt lat="41.127433" lon="-3.638133">
        <ele>1964.0</ele>
        <time>2018-07-21T13:35:30Z</time>
      </trkpt>
      <trkpt lat="41.127333" lon="-3.637950">
        <ele>1965.0</ele>
        <time>2018-07-21T13:35:31Z</time>
      </trkpt>
      <trkpt lat="41.127300" lon="-3.637767">
        <ele>1968.0</ele>
        <time>2018-07-21T13:35:32Z</time>
      </trkpt>
      <trkpt lat="41.127283" lon="-3.637567">
        <ele>1971.0</ele>
        <time>2018-07-21T13:35:33Z</time>
      </trkpt>
      <trkpt lat="41.127300" lon="-3.637400">
        <ele>1974.0</ele>
        <time>2018-07-21T13:35:34Z</time>
      </trkpt>
      <trkpt lat="41.127333" lon="-3.637250">
        <ele>1976.0</ele>
        <time>2018-07-21T13:35:35Z</time>
      </trkpt>
      <trkpt lat="41.127383" lon="-3.637117">
        <ele>1976.0</ele>
        <time>2018-07-21T13:35:36Z</time>
      </trkpt>
      <trkpt lat="41.127450" lon="-3.637017">
        <ele>1976.0</ele>
        <time>2018-07-21T13:35:37Z</time>
      </trkpt>
      <trkpt lat="41.127533" lon="-3.636967">
        <ele>1976.0</ele>
        <time>2018-07-21T13:35:38Z</time>
      </trkpt>
      <trkpt lat="41.127617" lon="-3.636967">
        <ele>1976.0</ele>
        <time>2018-07-21T13:35:39Z</time>
      </trkpt>
      <trkpt lat="41.127683" lon="-3.637000">
        <ele>1977.0</ele>
        <time>2018-07-21T13:35:40Z</time>
      </trkpt>
      <trkpt lat="41.127717" lon="-3.637067">
        <ele>1978.0</ele>
        <time>2018-07-21T13:35:41Z</time>
      </trkpt>
      <trkpt lat="41.127717" lon="-3.637133">
        <ele>1980.0</ele>
        <time>2018-07-21T13:35:42Z</time>
      </trkpt>
      <trkpt lat="41.127700" lon="-3.637217">
        <ele>1980.0</ele>
        <time>2018-07-21T13:35:43Z</time>
      </trkpt>
      <trkpt lat="41.127650" lon="-3.637283">
        <ele>1980.0</ele>
        <time>2018-07-21T13:35:44Z</time>
      </trkpt>
      <trkpt lat="41.127550" lon="-3.637333">
        <ele>1979.0</ele>
        <time>2018-07-21T13:35:45Z</time>
      </trkpt>
      <trkpt lat="41.127450" lon="-3.637350">
        <ele>1978.0</ele>
        <time>2018-07-21T13:35:46Z</time>
      </trkpt>
      <trkpt lat="41.127317" lon="-3.637333">
        <ele>1978.0</ele>
        <time>2018-07-21T13:35:47Z</time>
      </trkpt>
      <trkpt lat="41.127200" lon="-3.637233">
        <ele>1977.0</ele>
        <time>2018-07-21T13:35:48Z</time>
      </trkpt>
      <trkpt lat="41.127100" lon="-3.637083">
        <ele>1977.0</ele>
        <time>2018-07-21T13:35:49Z</time>
      </trkpt>
      <trkpt lat="41.127050" lon="-3.636883">
        <ele>1976.0</ele>
        <time>2018-07-21T13:35:50Z</time>
      </trkpt>
      <trkpt lat="41.127067" lon="-3.636700">
        <ele>1974.0</ele>
        <time>2018-07-21T13:35:51Z</time>
      </trkpt>
      <trkpt lat="41.127117" lon="-3.636550">
        <ele>1974.0</ele>
        <time>2018-07-21T13:35:52Z</time>
      </trkpt>
      <trkpt lat="41.127200" lon="-3.636450">
        <ele>1975.0</ele>
        <time>2018-07-21T13:35:53Z</time>
      </trkpt>
      <trkpt lat="41.127283" lon="-3.636417">
        <ele>1977.0</ele>
        <time>2018-07-21T13:35:54Z</time>
      </trkpt>
      <trkpt lat="41.127350" lon="-3.636400">
        <ele>1978.0</ele>
        <time>2018-07-21T13:35:55Z</time>
      </trkpt>
      <trkpt lat="41.127400" lon="-3.636383">
        <ele>1979.0</ele>
        <time>2018-07-21T13:35:56Z</time>
      </trkpt>
      <trkpt lat="41.127450" lon="-3.636383">
        <ele>1979.0</ele>
        <time>2018-07-21T13:35:57Z</time>
      </trkpt>
      <trkpt lat="41.127500" lon="-3.636383">
        <ele>1979.0</ele>
        <time>2018-07-21T13:35:58Z</time>
      </trkpt>
      <trkpt lat="41.127567" lon="-3.636400">
        <ele>1977.0</ele>
        <time>2018-07-21T13:35:59Z</time>
      </trkpt>
      <trkpt lat="41.127617" lon="-3.636433">
        <ele>1976.0</ele>
        <time>2018-07-21T13:36:00Z</time>
      </trkpt>
      <trkpt lat="41.127667" lon="-3.636450">
        <ele>1975.0</ele>
        <time>2018-07-21T13:36:01Z</time>
      </trkpt>
      <trkpt lat="41.127717" lon="-3.636467">
        <ele>1973.0</ele>
        <time>2018-07-21T13:36:02Z</time>
      </trkpt>
      <trkpt lat="41.127767" lon="-3.636483">
        <ele>1971.0</ele>
        <time>2018-07-21T13:36:03Z</time>
      </trkpt>
      <trkpt lat="41.127817" lon="-3.636483">
        <ele>1968.0</ele>
        <time>2018-07-21T13:36:04Z</time>
      </trkpt>
      <trkpt lat="41.127883" lon="-3.636483">
        <ele>1965.0</ele>
        <time>2018-07-21T13:36:05Z</time>
      </trkpt>
      <trkpt lat="41.127950" lon="-3.636500">
        <ele>1963.0</ele>
        <time>2018-07-21T13:36:06Z</time>
      </trkpt>
      <trkpt lat="41.128017" lon="-3.636500">
        <ele>1961.0</ele>
        <time>2018-07-21T13:36:07Z</time>
      </trkpt>
      <trkpt lat="41.128067" lon="-3.636517">
        <ele>1960.0</ele>
        <time>2018-07-21T13:36:08Z</time>
      </trkpt>
      <trkpt lat="41.128133" lon="-3.636533">
        <ele>1960.0</ele>
        <time>2018-07-21T13:36:09Z</time>
      </trkpt>
      <trkpt lat="41.128183" lon="-3.636550">
        <ele>1960.0</ele>
        <time>2018-07-21T13:36:10Z</time>
      </trkpt>
      <trkpt lat="41.128233" lon="-3.636567">
        <ele>1960.0</ele>
        <time>2018-07-21T13:36:11Z</time>
      </trkpt>
      <trkpt lat="41.128283" lon="-3.636583">
        <ele>1960.0</ele>
        <time>2018-07-21T13:36:12Z</time>
      </trkpt>
      <trkpt lat="41.128333" lon="-3.636600">
        <ele>1958.0</ele>
        <time>2018-07-21T13:36:13Z</time>
      </trkpt>
      <trkpt lat="41.128383" lon="-3.636633">
        <ele>1957.0</ele>
        <time>2018-07-21T13:36:14Z</time>
      </trkpt>
      <trkpt lat="41.128433" lon="-3.636667">
        <ele>1955.0</ele>
        <time>2018-07-21T13:36:15Z</time>
      </trkpt>
      <trkpt lat="41.128483" lon="-3.636683">
        <ele>1954.0</ele>
        <time>2018-07-21T13:36:16Z</time>
      </trkpt>
      <trkpt lat="41.128517" lon="-3.636700">
        <ele>1953.0</ele>
        <time>2018-07-21T13:36:17Z</time>
      </trkpt>
      <trkpt lat="41.128567" lon="-3.636717">
        <ele>1951.0</ele>
        <time>2018-07-21T13:36:18Z</time>
      </trkpt>
      <trkpt lat="41.128617" lon="-3.636733">
        <ele>1949.0</ele>
        <time>2018-07-21T13:36:19Z</time>
      </trkpt>
      <trkpt lat="41.128667" lon="-3.636750">
        <ele>1947.0</ele>
        <time>2018-07-21T13:36:20Z</time>
      </trkpt>
      <trkpt lat="41.128750" lon="-3.636750">
        <ele>1946.0</ele>
        <time>2018-07-21T13:36:21Z</time>
      </trkpt>
      <trkpt lat="41.128817" lon="-3.636733">
        <ele>1945.0</ele>
        <time>2018-07-21T13:36:22Z</time>
      </trkpt>
      <trkpt lat="41.128883" lon="-3.636700">
        <ele>1945.0</ele>
        <time>2018-07-21T13:36:23Z</time>
      </trkpt>
      <trkpt lat="41.128950" lon="-3.636683">
        <ele>1945.0</ele>
        <time>2018-07-21T13:36:24Z</time>
      </trkpt>
      <trkpt lat="41.129017" lon="-3.636683">
        <ele>1944.0</ele>
        <time>2018-07-21T13:36:25Z</time>
      </trkpt>
      <trkpt lat="41.129067" lon="-3.636683">
        <ele>1942.0</ele>
        <time>2018-07-21T13:36:26Z</time>
      </trkpt>
      <trkpt lat="41.129117" lon="-3.636717">
        <ele>1941.0</ele>
        <time>2018-07-21T13:36:27Z</time>
      </trkpt>
      <trkpt lat="41.129167" lon="-3.636750">
        <ele>1940.0</ele>
        <time>2018-07-21T13:36:28Z</time>
      </trkpt>
      <trkpt lat="41.129233" lon="-3.636783">
        <ele>1940.0</ele>
        <time>2018-07-21T13:36:29Z</time>
      </trkpt>
      <trkpt lat="41.129283" lon="-3.636800">
        <ele>1941.0</ele>
        <time>2018-07-21T13:36:30Z</time>
      </trkpt>
      <trkpt lat="41.129333" lon="-3.636817">
        <ele>1941.0</ele>
        <time>2018-07-21T13:36:31Z</time>
      </trkpt>
      <trkpt lat="41.129400" lon="-3.636833">
        <ele>1941.0</ele>
        <time>2018-07-21T13:36:32Z</time>
      </trkpt>
      <trkpt lat="41.129467" lon="-3.636833">
        <ele>1941.0</ele>
        <time>2018-07-21T13:36:33Z</time>
      </trkpt>
      <trkpt lat="41.129533" lon="-3.636850">
        <ele>1940.0</ele>
        <time>2018-07-21T13:36:34Z</time>
      </trkpt>
      <trkpt lat="41.129617" lon="-3.636850">
        <ele>1940.0</ele>
        <time>2018-07-21T13:36:35Z</time>
      </trkpt>
      <trkpt lat="41.129717" lon="-3.636833">
        <ele>1940.0</ele>
        <time>2018-07-21T13:36:36Z</time>
      </trkpt>
      <trkpt lat="41.129800" lon="-3.636800">
        <ele>1940.0</ele>
        <time>2018-07-21T13:36:37Z</time>
      </trkpt>
      <trkpt lat="41.129883" lon="-3.636767">
        <ele>1941.0</ele>
        <time>2018-07-21T13:36:38Z</time>
      </trkpt>
      <trkpt lat="41.129967" lon="-3.636750">
        <ele>1942.0</ele>
        <time>2018-07-21T13:36:39Z</time>
      </trkpt>
      <trkpt lat="41.130033" lon="-3.636733">
        <ele>1942.0</ele>
        <time>2018-07-21T13:36:40Z</time>
      </trkpt>
      <trkpt lat="41.130117" lon="-3.636717">
        <ele>1943.0</ele>
        <time>2018-07-21T13:36:41Z</time>
      </trkpt>
      <trkpt lat="41.130183" lon="-3.636717">
        <ele>1943.0</ele>
        <time>2018-07-21T13:36:42Z</time>
      </trkpt>
      <trkpt lat="41.130267" lon="-3.636717">
        <ele>1944.0</ele>
        <time>2018-07-21T13:36:43Z</time>
      </trkpt>
      <trkpt lat="41.130333" lon="-3.636717">
        <ele>1944.0</ele>
        <time>2018-07-21T13:36:44Z</time>
      </trkpt>
      <trkpt lat="41.130417" lon="-3.636717">
        <ele>1943.0</ele>
        <time>2018-07-21T13:36:45Z</time>
      </trkpt>
      <trkpt lat="41.130500" lon="-3.636717">
        <ele>1943.0</ele>
        <time>2018-07-21T13:36:46Z</time>
      </trkpt>
      <trkpt lat="41.130583" lon="-3.636717">
        <ele>1942.0</ele>
        <time>2018-07-21T13:36:47Z</time>
      </trkpt>
      <trkpt lat="41.130667" lon="-3.636717">
        <ele>1942.0</ele>
        <time>2018-07-21T13:36:48Z</time>
      </trkpt>
      <trkpt lat="41.130750" lon="-3.636700">
        <ele>1942.0</ele>
        <time>2018-07-21T13:36:49Z</time>
      </trkpt>
      <trkpt lat="41.130833" lon="-3.636683">
        <ele>1941.0</ele>
        <time>2018-07-21T13:36:50Z</time>
      </trkpt>
      <trkpt lat="41.130900" lon="-3.636683">
        <ele>1941.0</ele>
        <time>2018-07-21T13:36:51Z</time>
      </trkpt>
      <trkpt lat="41.130983" lon="-3.636667">
        <ele>1941.0</ele>
        <time>2018-07-21T13:36:52Z</time>
      </trkpt>
      <trkpt lat="41.131067" lon="-3.636650">
        <ele>1940.0</ele>
        <time>2018-07-21T13:36:53Z</time>
      </trkpt>
      <trkpt lat="41.131133" lon="-3.636650">
        <ele>1940.0</ele>
        <time>2018-07-21T13:36:54Z</time>
      </trkpt>
      <trkpt lat="41.131217" lon="-3.636667">
        <ele>1940.0</ele>
        <time>2018-07-21T13:36:55Z</time>
      </trkpt>
      <trkpt lat="41.131283" lon="-3.636683">
        <ele>1940.0</ele>
        <time>2018-07-21T13:36:56Z</time>
      </trkpt>
      <trkpt lat="41.131350" lon="-3.636683">
        <ele>1940.0</ele>
        <time>2018-07-21T13:36:57Z</time>
      </trkpt>
      <trkpt lat="41.131417" lon="-3.636683">
        <ele>1941.0</ele>
        <time>2018-07-21T13:36:58Z</time>
      </trkpt>
      <trkpt lat="41.131483" lon="-3.636683">
        <ele>1941.0</ele>
        <time>2018-07-21T13:36:59Z</time>
      </trkpt>
      <trkpt lat="41.131550" lon="-3.636667">
        <ele>1941.0</ele>
        <time>2018-07-21T13:37:00Z</time>
      </trkpt>
      <trkpt lat="41.131633" lon="-3.636667">
        <ele>1940.0</ele>
        <time>2018-07-21T13:37:01Z</time>
      </trkpt>
      <trkpt lat="41.131717" lon="-3.636650">
        <ele>1939.0</ele>
        <time>2018-07-21T13:37:02Z</time>
      </trkpt>
      <trkpt lat="41.131800" lon="-3.636617">
        <ele>1939.0</ele>
        <time>2018-07-21T13:37:03Z</time>
      </trkpt>
      <trkpt lat="41.131883" lon="-3.636600">
        <ele>1940.0</ele>
        <time>2018-07-21T13:37:04Z</time>
      </trkpt>
      <trkpt lat="41.131950" lon="-3.636583">
        <ele>1941.0</ele>
        <time>2018-07-21T13:37:05Z</time>
      </trkpt>
      <trkpt lat="41.132017" lon="-3.636583">
        <ele>1942.0</ele>
        <time>2018-07-21T13:37:06Z</time>
      </trkpt>
      <trkpt lat="41.132083" lon="-3.636567">
        <ele>1941.0</ele>
        <time>2018-07-21T13:37:07Z</time>
      </trkpt>
      <trkpt lat="41.132150" lon="-3.636550">
        <ele>1940.0</ele>
        <time>2018-07-21T13:37:08Z</time>
      </trkpt>
      <trkpt lat="41.132233" lon="-3.636533">
        <ele>1939.0</ele>
        <time>2018-07-21T13:37:09Z</time>
      </trkpt>
      <trkpt lat="41.132317" lon="-3.636533">
        <ele>1939.0</ele>
        <time>2018-07-21T13:37:10Z</time>
      </trkpt>
      <trkpt lat="41.132400" lon="-3.636517">
        <ele>1940.0</ele>
        <time>2018-07-21T13:37:11Z</time>
      </trkpt>
      <trkpt lat="41.132467" lon="-3.636517">
        <ele>1941.0</ele>
        <time>2018-07-21T13:37:12Z</time>
      </trkpt>
      <trkpt lat="41.132533" lon="-3.636500">
        <ele>1941.0</ele>
        <time>2018-07-21T13:37:13Z</time>
      </trkpt>
      <trkpt lat="41.132600" lon="-3.636483">
        <ele>1941.0</ele>
        <time>2018-07-21T13:37:14Z</time>
      </trkpt>
      <trkpt lat="41.132683" lon="-3.636450">
        <ele>1940.0</ele>
        <time>2018-07-21T13:37:15Z</time>
      </trkpt>
      <trkpt lat="41.132783" lon="-3.636433">
        <ele>1939.0</ele>
        <time>2018-07-21T13:37:16Z</time>
      </trkpt>
      <trkpt lat="41.132867" lon="-3.636417">
        <ele>1939.0</ele>
        <time>2018-07-21T13:37:17Z</time>
      </trkpt>
      <trkpt lat="41.132933" lon="-3.636400">
        <ele>1940.0</ele>
        <time>2018-07-21T13:37:18Z</time>
      </trkpt>
      <trkpt lat="41.133017" lon="-3.636383">
        <ele>1940.0</ele>
        <time>2018-07-21T13:37:19Z</time>
      </trkpt>
      <trkpt lat="41.133083" lon="-3.636367">
        <ele>1940.0</ele>
        <time>2018-07-21T13:37:20Z</time>
      </trkpt>
      <trkpt lat="41.133167" lon="-3.636367">
        <ele>1939.0</ele>
        <time>2018-07-21T13:37:21Z</time>
      </trkpt>
      <trkpt lat="41.133250" lon="-3.636350">
        <ele>1938.0</ele>
        <time>2018-07-21T13:37:22Z</time>
      </trkpt>
      <trkpt lat="41.133317" lon="-3.636333">
        <ele>1938.0</ele>
        <time>2018-07-21T13:37:23Z</time>
      </trkpt>
      <trkpt lat="41.133400" lon="-3.636317">
        <ele>1938.0</ele>
        <time>2018-07-21T13:37:24Z</time>
      </trkpt>
      <trkpt lat="41.133483" lon="-3.636283">
        <ele>1937.0</ele>
        <time>2018-07-21T13:37:25Z</time>
      </trkpt>
      <trkpt lat="41.133567" lon="-3.636233">
        <ele>1937.0</ele>
        <time>2018-07-21T13:37:26Z</time>
      </trkpt>
      <trkpt lat="41.133667" lon="-3.636167">
        <ele>1936.0</ele>
        <time>2018-07-21T13:37:27Z</time>
      </trkpt>
      <trkpt lat="41.133767" lon="-3.636117">
        <ele>1935.0</ele>
        <time>2018-07-21T13:37:28Z</time>
      </trkpt>
      <trkpt lat="41.133867" lon="-3.636067">
        <ele>1935.0</ele>
        <time>2018-07-21T13:37:29Z</time>
      </trkpt>
      <trkpt lat="41.133967" lon="-3.636033">
        <ele>1935.0</ele>
        <time>2018-07-21T13:37:30Z</time>
      </trkpt>
      <trkpt lat="41.134050" lon="-3.635983">
        <ele>1935.0</ele>
        <time>2018-07-21T13:37:31Z</time>
      </trkpt>
      <trkpt lat="41.134150" lon="-3.635950">
        <ele>1937.0</ele>
        <time>2018-07-21T13:37:32Z</time>
      </trkpt>
      <trkpt lat="41.134233" lon="-3.635900">
        <ele>1938.0</ele>
        <time>2018-07-21T13:37:33Z</time>
      </trkpt>
      <trkpt lat="41.134300" lon="-3.635867">
        <ele>1938.0</ele>
        <time>2018-07-21T13:37:34Z</time>
      </trkpt>
      <trkpt lat="41.134383" lon="-3.635817">
        <ele>1938.0</ele>
        <time>2018-07-21T13:37:35Z</time>
      </trkpt>
      <trkpt lat="41.134467" lon="-3.635767">
        <ele>1936.0</ele>
        <time>2018-07-21T13:37:36Z</time>
      </trkpt>
      <trkpt lat="41.134550" lon="-3.635733">
        <ele>1935.0</ele>
        <time>2018-07-21T13:37:37Z</time>
      </trkpt>
      <trkpt lat="41.134617" lon="-3.635717">
        <ele>1933.0</ele>
        <time>2018-07-21T13:37:38Z</time>
      </trkpt>
      <trkpt lat="41.134700" lon="-3.635683">
        <ele>1931.0</ele>
        <time>2018-07-21T13:37:39Z</time>
      </trkpt>
      <trkpt lat="41.134783" lon="-3.635650">
        <ele>1930.0</ele>
        <time>2018-07-21T13:37:40Z</time>
      </trkpt>
      <trkpt lat="41.134867" lon="-3.635600">
        <ele>1928.0</ele>
        <time>2018-07-21T13:37:41Z</time>
      </trkpt>
      <trkpt lat="41.134950" lon="-3.635550">
        <ele>1927.0</ele>
        <time>2018-07-21T13:37:42Z</time>
      </trkpt>
      <trkpt lat="41.135017" lon="-3.635500">
        <ele>1925.0</ele>
        <time>2018-07-21T13:37:43Z</time>
      </trkpt>
      <trkpt lat="41.135067" lon="-3.635467">
        <ele>1922.0</ele>
        <time>2018-07-21T13:37:44Z</time>
      </trkpt>
      <trkpt lat="41.135133" lon="-3.635433">
        <ele>1919.0</ele>
        <time>2018-07-21T13:37:45Z</time>
      </trkpt>
      <trkpt lat="41.135217" lon="-3.635400">
        <ele>1915.0</ele>
        <time>2018-07-21T13:37:46Z</time>
      </trkpt>
      <trkpt lat="41.135300" lon="-3.635367">
        <ele>1911.0</ele>
        <time>2018-07-21T13:37:47Z</time>
      </trkpt>
      <trkpt lat="41.135383" lon="-3.635333">
        <ele>1908.0</ele>
        <time>2018-07-21T13:37:48Z</time>
      </trkpt>
      <trkpt lat="41.135483" lon="-3.635300">
        <ele>1906.0</ele>
        <time>2018-07-21T13:37:49Z</time>
      </trkpt>
      <trkpt lat="41.135567" lon="-3.635267">
        <ele>1904.0</ele>
        <time>2018-07-21T13:37:50Z</time>
      </trkpt>
      <trkpt lat="41.135650" lon="-3.635233">
        <ele>1903.0</ele>
        <time>2018-07-21T13:37:51Z</time>
      </trkpt>
      <trkpt lat="41.135733" lon="-3.635183">
        <ele>1902.0</ele>
        <time>2018-07-21T13:37:52Z</time>
      </trkpt>
      <trkpt lat="41.135833" lon="-3.635150">
        <ele>1901.0</ele>
        <time>2018-07-21T13:37:53Z</time>
      </trkpt>
      <trkpt lat="41.135917" lon="-3.635100">
        <ele>1902.0</ele>
        <time>2018-07-21T13:37:54Z</time>
      </trkpt>
      <trkpt lat="41.135983" lon="-3.635067">
        <ele>1903.0</ele>
        <time>2018-07-21T13:37:55Z</time>
      </trkpt>
      <trkpt lat="41.136050" lon="-3.635033">
        <ele>1903.0</ele>
        <time>2018-07-21T13:37:56Z</time>
      </trkpt>
      <trkpt lat="41.136117" lon="-3.635000">
        <ele>1903.0</ele>
        <time>2018-07-21T13:37:57Z</time>
      </trkpt>
      <trkpt lat="41.136183" lon="-3.634950">
        <ele>1901.0</ele>
        <time>2018-07-21T13:37:58Z</time>
      </trkpt>
      <trkpt lat="41.136267" lon="-3.634900">
        <ele>1899.0</ele>
        <time>2018-07-21T13:37:59Z</time>
      </trkpt>
      <trkpt lat="41.136350" lon="-3.634850">
        <ele>1897.0</ele>
        <time>2018-07-21T13:38:00Z</time>
      </trkpt>
      <trkpt lat="41.136433" lon="-3.634817">
        <ele>1896.0</ele>
        <time>2018-07-21T13:38:01Z</time>
      </trkpt>
      <trkpt lat="41.136517" lon="-3.634800">
        <ele>1895.0</ele>
        <time>2018-07-21T13:38:02Z</time>
      </trkpt>
      <trkpt lat="41.136600" lon="-3.634767">
        <ele>1895.0</ele>
        <time>2018-07-21T13:38:03Z</time>
      </trkpt>
      <trkpt lat="41.136667" lon="-3.634717">
        <ele>1894.0</ele>
        <time>2018-07-21T13:38:04Z</time>
      </trkpt>
      <trkpt lat="41.136750" lon="-3.634667">
        <ele>1893.0</ele>
        <time>2018-07-21T13:38:05Z</time>
      </trkpt>
      <trkpt lat="41.136833" lon="-3.634617">
        <ele>1893.0</ele>
        <time>2018-07-21T13:38:06Z</time>
      </trkpt>
      <trkpt lat="41.136917" lon="-3.634550">
        <ele>1892.0</ele>
        <time>2018-07-21T13:38:07Z</time>
      </trkpt>
      <trkpt lat="41.137000" lon="-3.634500">
        <ele>1891.0</ele>
        <time>2018-07-21T13:38:08Z</time>
      </trkpt>
      <trkpt lat="41.137067" lon="-3.634450">
        <ele>1891.0</ele>
        <time>2018-07-21T13:38:09Z</time>
      </trkpt>
      <trkpt lat="41.137150" lon="-3.634400">
        <ele>1891.0</ele>
        <time>2018-07-21T13:38:10Z</time>
      </trkpt>
      <trkpt lat="41.137217" lon="-3.634333">
        <ele>1890.0</ele>
        <time>2018-07-21T13:38:11Z</time>
      </trkpt>
      <trkpt lat="41.137300" lon="-3.634283">
        <ele>1890.0</ele>
        <time>2018-07-21T13:38:12Z</time>
      </trkpt>
      <trkpt lat="41.137383" lon="-3.634233">
        <ele>1890.0</ele>
        <time>2018-07-21T13:38:13Z</time>
      </trkpt>
      <trkpt lat="41.137450" lon="-3.634183">
        <ele>1890.0</ele>
        <time>2018-07-21T13:38:14Z</time>
      </trkpt>
      <trkpt lat="41.137550" lon="-3.634150">
        <ele>1890.0</ele>
        <time>2018-07-21T13:38:15Z</time>
      </trkpt>
      <trkpt lat="41.137633" lon="-3.634100">
        <ele>1890.0</ele>
        <time>2018-07-21T13:38:16Z</time>
      </trkpt>
      <trkpt lat="41.137717" lon="-3.634033">
        <ele>1891.0</ele>
        <time>2018-07-21T13:38:17Z</time>
      </trkpt>
      <trkpt lat="41.137767" lon="-3.633983">
        <ele>1891.0</ele>
        <time>2018-07-21T13:38:18Z</time>
      </trkpt>
      <trkpt lat="41.137833" lon="-3.633917">
        <ele>1892.0</ele>
        <time>2018-07-21T13:38:19Z</time>
      </trkpt>
      <trkpt lat="41.137867" lon="-3.633867">
        <ele>1891.0</ele>
        <time>2018-07-21T13:38:20Z</time>
      </trkpt>
      <trkpt lat="41.137917" lon="-3.633800">
        <ele>1889.0</ele>
        <time>2018-07-21T13:38:21Z</time>
      </trkpt>
      <trkpt lat="41.137983" lon="-3.633750">
        <ele>1886.0</ele>
        <time>2018-07-21T13:38:22Z</time>
      </trkpt>
      <trkpt lat="41.138050" lon="-3.633683">
        <ele>1882.0</ele>
        <time>2018-07-21T13:38:23Z</time>
      </trkpt>
      <trkpt lat="41.138133" lon="-3.633633">
        <ele>1880.0</ele>
        <time>2018-07-21T13:38:24Z</time>
      </trkpt>
      <trkpt lat="41.138200" lon="-3.633550">
        <ele>1880.0</ele>
        <time>2018-07-21T13:38:25Z</time>
      </trkpt>
      <trkpt lat="41.138267" lon="-3.633483">
        <ele>1879.0</ele>
        <time>2018-07-21T13:38:26Z</time>
      </trkpt>
      <trkpt lat="41.138317" lon="-3.633400">
        <ele>1879.0</ele>
        <time>2018-07-21T13:38:27Z</time>
      </trkpt>
      <trkpt lat="41.138383" lon="-3.633333">
        <ele>1878.0</ele>
        <time>2018-07-21T13:38:28Z</time>
      </trkpt>
      <trkpt lat="41.138450" lon="-3.633267">
        <ele>1876.0</ele>
        <time>2018-07-21T13:38:29Z</time>
      </trkpt>
      <trkpt lat="41.138517" lon="-3.633200">
        <ele>1873.0</ele>
        <time>2018-07-21T13:38:30Z</time>
      </trkpt>
      <trkpt lat="41.138600" lon="-3.633133">
        <ele>1871.0</ele>
        <time>2018-07-21T13:38:31Z</time>
      </trkpt>
      <trkpt lat="41.138667" lon="-3.633083">
        <ele>1870.0</ele>
        <time>2018-07-21T13:38:32Z</time>
      </trkpt>
      <trkpt lat="41.138750" lon="-3.633017">
        <ele>1868.0</ele>
        <time>2018-07-21T13:38:33Z</time>
      </trkpt>
      <trkpt lat="41.138817" lon="-3.632967">
        <ele>1868.0</ele>
        <time>2018-07-21T13:38:34Z</time>
      </trkpt>
      <trkpt lat="41.138900" lon="-3.632917">
        <ele>1868.0</ele>
        <time>2018-07-21T13:38:35Z</time>
      </trkpt>
      <trkpt lat="41.138967" lon="-3.632867">
        <ele>1868.0</ele>
        <time>2018-07-21T13:38:36Z</time>
      </trkpt>
      <trkpt lat="41.139050" lon="-3.632817">
        <ele>1867.0</ele>
        <time>2018-07-21T13:38:37Z</time>
      </trkpt>
      <trkpt lat="41.139117" lon="-3.632783">
        <ele>1866.0</ele>
        <time>2018-07-21T13:38:38Z</time>
      </trkpt>
      <trkpt lat="41.139200" lon="-3.632733">
        <ele>1865.0</ele>
        <time>2018-07-21T13:38:39Z</time>
      </trkpt>
      <trkpt lat="41.139283" lon="-3.632667">
        <ele>1864.0</ele>
        <time>2018-07-21T13:38:40Z</time>
      </trkpt>
      <trkpt lat="41.139367" lon="-3.632600">
        <ele>1863.0</ele>
        <time>2018-07-21T13:38:41Z</time>
      </trkpt>
      <trkpt lat="41.139433" lon="-3.632533">
        <ele>1862.0</ele>
        <time>2018-07-21T13:38:42Z</time>
      </trkpt>
      <trkpt lat="41.139517" lon="-3.632450">
        <ele>1860.0</ele>
        <time>2018-07-21T13:38:43Z</time>
      </trkpt>
      <trkpt lat="41.139583" lon="-3.632383">
        <ele>1858.0</ele>
        <time>2018-07-21T13:38:44Z</time>
      </trkpt>
      <trkpt lat="41.139650" lon="-3.632300">
        <ele>1856.0</ele>
        <time>2018-07-21T13:38:45Z</time>
      </trkpt>
      <trkpt lat="41.139717" lon="-3.632250">
        <ele>1854.0</ele>
        <time>2018-07-21T13:38:46Z</time>
      </trkpt>
      <trkpt lat="41.139783" lon="-3.632183">
        <ele>1851.0</ele>
        <time>2018-07-21T13:38:47Z</time>
      </trkpt>
      <trkpt lat="41.139850" lon="-3.632150">
        <ele>1848.0</ele>
        <time>2018-07-21T13:38:48Z</time>
      </trkpt>
      <trkpt lat="41.139933" lon="-3.632100">
        <ele>1845.0</ele>
        <time>2018-07-21T13:38:49Z</time>
      </trkpt>
      <trkpt lat="41.140033" lon="-3.632033">
        <ele>1842.0</ele>
        <time>2018-07-21T13:38:50Z</time>
      </trkpt>
      <trkpt lat="41.140133" lon="-3.631967">
        <ele>1840.0</ele>
        <time>2018-07-21T13:38:51Z</time>
      </trkpt>
      <trkpt lat="41.140233" lon="-3.631900">
        <ele>1840.0</ele>
        <time>2018-07-21T13:38:52Z</time>
      </trkpt>
      <trkpt lat="41.140333" lon="-3.631833">
        <ele>1841.0</ele>
        <time>2018-07-21T13:38:53Z</time>
      </trkpt>
      <trkpt lat="41.140417" lon="-3.631767">
        <ele>1841.0</ele>
        <time>2018-07-21T13:38:54Z</time>
      </trkpt>
      <trkpt lat="41.140500" lon="-3.631683">
        <ele>1841.0</ele>
        <time>2018-07-21T13:38:55Z</time>
      </trkpt>
      <trkpt lat="41.140583" lon="-3.631583">
        <ele>1841.0</ele>
        <time>2018-07-21T13:38:56Z</time>
      </trkpt>
      <trkpt lat="41.140683" lon="-3.631483">
        <ele>1840.0</ele>
        <time>2018-07-21T13:38:57Z</time>
      </trkpt>
      <trkpt lat="41.140783" lon="-3.631400">
        <ele>1840.0</ele>
        <time>2018-07-21T13:38:58Z</time>
      </trkpt>
      <trkpt lat="41.140883" lon="-3.631317">
        <ele>1841.0</ele>
        <time>2018-07-21T13:38:59Z</time>
      </trkpt>
      <trkpt lat="41.140967" lon="-3.631233">
        <ele>1842.0</ele>
        <time>2018-07-21T13:39:00Z</time>
      </trkpt>
      <trkpt lat="41.141033" lon="-3.631117">
        <ele>1842.0</ele>
        <time>2018-07-21T13:39:01Z</time>
      </trkpt>
      <trkpt lat="41.141100" lon="-3.631000">
        <ele>1841.0</ele>
        <time>2018-07-21T13:39:02Z</time>
      </trkpt>
      <trkpt lat="41.141183" lon="-3.630900">
        <ele>1839.0</ele>
        <time>2018-07-21T13:39:03Z</time>
      </trkpt>
      <trkpt lat="41.141283" lon="-3.630783">
        <ele>1837.0</ele>
        <time>2018-07-21T13:39:04Z</time>
      </trkpt>
      <trkpt lat="41.141400" lon="-3.630683">
        <ele>1836.0</ele>
        <time>2018-07-21T13:39:05Z</time>
      </trkpt>
      <trkpt lat="41.141500" lon="-3.630583">
        <ele>1836.0</ele>
        <time>2018-07-21T13:39:06Z</time>
      </trkpt>
      <trkpt lat="41.141600" lon="-3.630467">
        <ele>1837.0</ele>
        <time>2018-07-21T13:39:07Z</time>
      </trkpt>
      <trkpt lat="41.141700" lon="-3.630367">
        <ele>1837.0</ele>
        <time>2018-07-21T13:39:08Z</time>
      </trkpt>
      <trkpt lat="41.141800" lon="-3.630267">
        <ele>1837.0</ele>
        <time>2018-07-21T13:39:09Z</time>
      </trkpt>
      <trkpt lat="41.141917" lon="-3.630167">
        <ele>1836.0</ele>
        <time>2018-07-21T13:39:10Z</time>
      </trkpt>
      <trkpt lat="41.142017" lon="-3.630050">
        <ele>1836.0</ele>
        <time>2018-07-21T13:39:11Z</time>
      </trkpt>
      <trkpt lat="41.142117" lon="-3.629950">
        <ele>1835.0</ele>
        <time>2018-07-21T13:39:12Z</time>
      </trkpt>
      <trkpt lat="41.142233" lon="-3.629833">
        <ele>1834.0</ele>
        <time>2018-07-21T13:39:13Z</time>
      </trkpt>
      <trkpt lat="41.142333" lon="-3.629733">
        <ele>1833.0</ele>
        <time>2018-07-21T13:39:14Z</time>
      </trkpt>
      <trkpt lat="41.142433" lon="-3.629650">
        <ele>1832.0</ele>
        <time>2018-07-21T13:39:15Z</time>
      </trkpt>
      <trkpt lat="41.142533" lon="-3.629567">
        <ele>1831.0</ele>
        <time>2018-07-21T13:39:16Z</time>
      </trkpt>
      <trkpt lat="41.142633" lon="-3.629450">
        <ele>1830.0</ele>
        <time>2018-07-21T13:39:17Z</time>
      </trkpt>
      <trkpt lat="41.142733" lon="-3.629350">
        <ele>1828.0</ele>
        <time>2018-07-21T13:39:18Z</time>
      </trkpt>
      <trkpt lat="41.142833" lon="-3.629217">
        <ele>1826.0</ele>
        <time>2018-07-21T13:39:19Z</time>
      </trkpt>
      <trkpt lat="41.142933" lon="-3.629117">
        <ele>1826.0</ele>
        <time>2018-07-21T13:39:20Z</time>
      </trkpt>
      <trkpt lat="41.143017" lon="-3.629017">
        <ele>1825.0</ele>
        <time>2018-07-21T13:39:21Z</time>
      </trkpt>
      <trkpt lat="41.143100" lon="-3.628917">
        <ele>1824.0</ele>
        <time>2018-07-21T13:39:22Z</time>
      </trkpt>
      <trkpt lat="41.143183" lon="-3.628817">
        <ele>1822.0</ele>
        <time>2018-07-21T13:39:23Z</time>
      </trkpt>
      <trkpt lat="41.143283" lon="-3.628683">
        <ele>1819.0</ele>
        <time>2018-07-21T13:39:24Z</time>
      </trkpt>
      <trkpt lat="41.143383" lon="-3.628567">
        <ele>1818.0</ele>
        <time>2018-07-21T13:39:25Z</time>
      </trkpt>
      <trkpt lat="41.143483" lon="-3.628433">
        <ele>1817.0</ele>
        <time>2018-07-21T13:39:26Z</time>
      </trkpt>
      <trkpt lat="41.143567" lon="-3.628317">
        <ele>1817.0</ele>
        <time>2018-07-21T13:39:27Z</time>
      </trkpt>
      <trkpt lat="41.143650" lon="-3.628217">
        <ele>1817.0</ele>
        <time>2018-07-21T13:39:28Z</time>
      </trkpt>
      <trkpt lat="41.143717" lon="-3.628117">
        <ele>1816.0</ele>
        <time>2018-07-21T13:39:29Z</time>
      </trkpt>
      <trkpt lat="41.143783" lon="-3.628000">
        <ele>1814.0</ele>
        <time>2018-07-21T13:39:30Z</time>
      </trkpt>
      <trkpt lat="41.143850" lon="-3.627900">
        <ele>1811.0</ele>
        <time>2018-07-21T13:39:31Z</time>
      </trkpt>
      <trkpt lat="41.143950" lon="-3.627783">
        <ele>1808.0</ele>
        <time>2018-07-21T13:39:32Z</time>
      </trkpt>
      <trkpt lat="41.144033" lon="-3.627683">
        <ele>1806.0</ele>
        <time>2018-07-21T13:39:33Z</time>
      </trkpt>
      <trkpt lat="41.144117" lon="-3.627583">
        <ele>1805.0</ele>
        <time>2018-07-21T13:39:34Z</time>
      </trkpt>
      <trkpt lat="41.144200" lon="-3.627500">
        <ele>1804.0</ele>
        <time>2018-07-21T13:39:35Z</time>
      </trkpt>
      <trkpt lat="41.144267" lon="-3.627417">
        <ele>1802.0</ele>
        <time>2018-07-21T13:39:36Z</time>
      </trkpt>
      <trkpt lat="41.144333" lon="-3.627317">
        <ele>1800.0</ele>
        <time>2018-07-21T13:39:37Z</time>
      </trkpt>
      <trkpt lat="41.144417" lon="-3.627200">
        <ele>1796.0</ele>
        <time>2018-07-21T13:39:38Z</time>
      </trkpt>
      <trkpt lat="41.144500" lon="-3.627100">
        <ele>1794.0</ele>
        <time>2018-07-21T13:39:39Z</time>
      </trkpt>
      <trkpt lat="41.144600" lon="-3.627017">
        <ele>1793.0</ele>
        <time>2018-07-21T13:39:40Z</time>
      </trkpt>
      <trkpt lat="41.144667" lon="-3.626933">
        <ele>1792.0</ele>
        <time>2018-07-21T13:39:41Z</time>
      </trkpt>
      <trkpt lat="41.144750" lon="-3.626867">
        <ele>1793.0</ele>
        <time>2018-07-21T13:39:42Z</time>
      </trkpt>
      <trkpt lat="41.144800" lon="-3.626783">
        <ele>1792.0</ele>
        <time>2018-07-21T13:39:43Z</time>
      </trkpt>
      <trkpt lat="41.144867" lon="-3.626717">
        <ele>1790.0</ele>
        <time>2018-07-21T13:39:44Z</time>
      </trkpt>
      <trkpt lat="41.144933" lon="-3.626633">
        <ele>1787.0</ele>
        <time>2018-07-21T13:39:45Z</time>
      </trkpt>
      <trkpt lat="41.145000" lon="-3.626567">
        <ele>1784.0</ele>
        <time>2018-07-21T13:39:46Z</time>
      </trkpt>
      <trkpt lat="41.145083" lon="-3.626483">
        <ele>1781.0</ele>
        <time>2018-07-21T13:39:47Z</time>
      </trkpt>
      <trkpt lat="41.145167" lon="-3.626383">
        <ele>1779.0</ele>
        <time>2018-07-21T13:39:48Z</time>
      </trkpt>
      <trkpt lat="41.145250" lon="-3.626283">
        <ele>1778.0</ele>
        <time>2018-07-21T13:39:49Z</time>
      </trkpt>
      <trkpt lat="41.145333" lon="-3.626183">
        <ele>1777.0</ele>
        <time>2018-07-21T13:39:50Z</time>
      </trkpt>
      <trkpt lat="41.145400" lon="-3.626100">
        <ele>1777.0</ele>
        <time>2018-07-21T13:39:51Z</time>
      </trkpt>
      <trkpt lat="41.145467" lon="-3.626017">
        <ele>1775.0</ele>
        <time>2018-07-21T13:39:52Z</time>
      </trkpt>
      <trkpt lat="41.145533" lon="-3.625917">
        <ele>1773.0</ele>
        <time>2018-07-21T13:39:53Z</time>
      </trkpt>
      <trkpt lat="41.145617" lon="-3.625833">
        <ele>1770.0</ele>
        <time>2018-07-21T13:39:54Z</time>
      </trkpt>
      <trkpt lat="41.145717" lon="-3.625750">
        <ele>1768.0</ele>
        <time>2018-07-21T13:39:55Z</time>
      </trkpt>
      <trkpt lat="41.145800" lon="-3.625667">
        <ele>1767.0</ele>
        <time>2018-07-21T13:39:56Z</time>
      </trkpt>
      <trkpt lat="41.145883" lon="-3.625617">
        <ele>1767.0</ele>
        <time>2018-07-21T13:39:57Z</time>
      </trkpt>
      <trkpt lat="41.145967" lon="-3.625550">
        <ele>1766.0</ele>
        <time>2018-07-21T13:39:58Z</time>
      </trkpt>
      <trkpt lat="41.146033" lon="-3.625483">
        <ele>1764.0</ele>
        <time>2018-07-21T13:39:59Z</time>
      </trkpt>
      <trkpt lat="41.146117" lon="-3.625417">
        <ele>1761.0</ele>
        <time>2018-07-21T13:40:00Z</time>
      </trkpt>
      <trkpt lat="41.146217" lon="-3.625350">
        <ele>1759.0</ele>
        <time>2018-07-21T13:40:01Z</time>
      </trkpt>
      <trkpt lat="41.146300" lon="-3.625283">
        <ele>1756.0</ele>
        <time>2018-07-21T13:40:02Z</time>
      </trkpt>
      <trkpt lat="41.146400" lon="-3.625217">
        <ele>1755.0</ele>
        <time>2018-07-21T13:40:03Z</time>
      </trkpt>
      <trkpt lat="41.146483" lon="-3.625150">
        <ele>1755.0</ele>
        <time>2018-07-21T13:40:04Z</time>
      </trkpt>
      <trkpt lat="41.146567" lon="-3.625100">
        <ele>1755.0</ele>
        <time>2018-07-21T13:40:05Z</time>
      </trkpt>
      <trkpt lat="41.146650" lon="-3.625033">
        <ele>1756.0</ele>
        <time>2018-07-21T13:40:06Z</time>
      </trkpt>
      <trkpt lat="41.146733" lon="-3.624967">
        <ele>1755.0</ele>
        <time>2018-07-21T13:40:07Z</time>
      </trkpt>
      <trkpt lat="41.146800" lon="-3.624917">
        <ele>1754.0</ele>
        <time>2018-07-21T13:40:08Z</time>
      </trkpt>
      <trkpt lat="41.146883" lon="-3.624850">
        <ele>1752.0</ele>
        <time>2018-07-21T13:40:09Z</time>
      </trkpt>
      <trkpt lat="41.146983" lon="-3.624783">
        <ele>1751.0</ele>
        <time>2018-07-21T13:40:10Z</time>
      </trkpt>
      <trkpt lat="41.147067" lon="-3.624717">
        <ele>1751.0</ele>
        <time>2018-07-21T13:40:11Z</time>
      </trkpt>
      <trkpt lat="41.147150" lon="-3.624650">
        <ele>1751.0</ele>
        <time>2018-07-21T13:40:12Z</time>
      </trkpt>
      <trkpt lat="41.147217" lon="-3.624600">
        <ele>1751.0</ele>
        <time>2018-07-21T13:40:13Z</time>
      </trkpt>
      <trkpt lat="41.147300" lon="-3.624533">
        <ele>1751.0</ele>
        <time>2018-07-21T13:40:14Z</time>
      </trkpt>
      <trkpt lat="41.147383" lon="-3.624467">
        <ele>1750.0</ele>
        <time>2018-07-21T13:40:15Z</time>
      </trkpt>
      <trkpt lat="41.147467" lon="-3.624400">
        <ele>1749.0</ele>
        <time>2018-07-21T13:40:16Z</time>
      </trkpt>
      <trkpt lat="41.147550" lon="-3.624317">
        <ele>1748.0</ele>
        <time>2018-07-21T13:40:17Z</time>
      </trkpt>
      <trkpt lat="41.147650" lon="-3.624233">
        <ele>1748.0</ele>
        <time>2018-07-21T13:40:18Z</time>
      </trkpt>
      <trkpt lat="41.147733" lon="-3.624133">
        <ele>1748.0</ele>
        <time>2018-07-21T13:40:19Z</time>
      </trkpt>
      <trkpt lat="41.147800" lon="-3.624017">
        <ele>1748.0</ele>
        <time>2018-07-21T13:40:20Z</time>
      </trkpt>
      <trkpt lat="41.147883" lon="-3.623917">
        <ele>1747.0</ele>
        <time>2018-07-21T13:40:21Z</time>
      </trkpt>
      <trkpt lat="41.147967" lon="-3.623800">
        <ele>1747.0</ele>
        <time>2018-07-21T13:40:22Z</time>
      </trkpt>
      <trkpt lat="41.148050" lon="-3.623717">
        <ele>1746.0</ele>
        <time>2018-07-21T13:40:23Z</time>
      </trkpt>
      <trkpt lat="41.148150" lon="-3.623650">
        <ele>1745.0</ele>
        <time>2018-07-21T13:40:24Z</time>
      </trkpt>
      <trkpt lat="41.148233" lon="-3.623583">
        <ele>1745.0</ele>
        <time>2018-07-21T13:40:25Z</time>
      </trkpt>
      <trkpt lat="41.148317" lon="-3.623500">
        <ele>1744.0</ele>
        <time>2018-07-21T13:40:26Z</time>
      </trkpt>
      <trkpt lat="41.148400" lon="-3.623400">
        <ele>1744.0</ele>
        <time>2018-07-21T13:40:27Z</time>
      </trkpt>
      <trkpt lat="41.148483" lon="-3.623317">
        <ele>1744.0</ele>
        <time>2018-07-21T13:40:28Z</time>
      </trkpt>
      <trkpt lat="41.148567" lon="-3.623217">
        <ele>1743.0</ele>
        <time>2018-07-21T13:40:29Z</time>
      </trkpt>
      <trkpt lat="41.148650" lon="-3.623133">
        <ele>1743.0</ele>
        <time>2018-07-21T13:40:30Z</time>
      </trkpt>
      <trkpt lat="41.148717" lon="-3.623033">
        <ele>1741.0</ele>
        <time>2018-07-21T13:40:31Z</time>
      </trkpt>
      <trkpt lat="41.148800" lon="-3.622917">
        <ele>1740.0</ele>
        <time>2018-07-21T13:40:32Z</time>
      </trkpt>
      <trkpt lat="41.148883" lon="-3.622800">
        <ele>1738.0</ele>
        <time>2018-07-21T13:40:33Z</time>
      </trkpt>
      <trkpt lat="41.148967" lon="-3.622667">
        <ele>1736.0</ele>
        <time>2018-07-21T13:40:34Z</time>
      </trkpt>
      <trkpt lat="41.149050" lon="-3.622550">
        <ele>1736.0</ele>
        <time>2018-07-21T13:40:35Z</time>
      </trkpt>
      <trkpt lat="41.149133" lon="-3.622450">
        <ele>1735.0</ele>
        <time>2018-07-21T13:40:36Z</time>
      </trkpt>
      <trkpt lat="41.149200" lon="-3.622367">
        <ele>1734.0</ele>
        <time>2018-07-21T13:40:37Z</time>
      </trkpt>
      <trkpt lat="41.149283" lon="-3.622283">
        <ele>1732.0</ele>
        <time>2018-07-21T13:40:38Z</time>
      </trkpt>
      <trkpt lat="41.149367" lon="-3.622183">
        <ele>1729.0</ele>
        <time>2018-07-21T13:40:39Z</time>
      </trkpt>
      <trkpt lat="41.149450" lon="-3.622100">
        <ele>1727.0</ele>
        <time>2018-07-21T13:40:40Z</time>
      </trkpt>
      <trkpt lat="41.149550" lon="-3.622000">
        <ele>1725.0</ele>
        <time>2018-07-21T13:40:41Z</time>
      </trkpt>
      <trkpt lat="41.149650" lon="-3.621917">
        <ele>1724.0</ele>
        <time>2018-07-21T13:40:42Z</time>
      </trkpt>
      <trkpt lat="41.149733" lon="-3.621850">
        <ele>1723.0</ele>
        <time>2018-07-21T13:40:43Z</time>
      </trkpt>
      <trkpt lat="41.149817" lon="-3.621767">
        <ele>1723.0</ele>
        <time>2018-07-21T13:40:44Z</time>
      </trkpt>
      <trkpt lat="41.149900" lon="-3.621667">
        <ele>1722.0</ele>
        <time>2018-07-21T13:40:45Z</time>
      </trkpt>
      <trkpt lat="41.149967" lon="-3.621567">
        <ele>1721.0</ele>
        <time>2018-07-21T13:40:46Z</time>
      </trkpt>
      <trkpt lat="41.150050" lon="-3.621467">
        <ele>1719.0</ele>
        <time>2018-07-21T13:40:47Z</time>
      </trkpt>
      <trkpt lat="41.150133" lon="-3.621367">
        <ele>1716.0</ele>
        <time>2018-07-21T13:40:48Z</time>
      </trkpt>
      <trkpt lat="41.150233" lon="-3.621267">
        <ele>1714.0</ele>
        <time>2018-07-21T13:40:49Z</time>
      </trkpt>
      <trkpt lat="41.150317" lon="-3.621167">
        <ele>1713.0</ele>
        <time>2018-07-21T13:40:50Z</time>
      </trkpt>
      <trkpt lat="41.150400" lon="-3.621083">
        <ele>1713.0</ele>
        <time>2018-07-21T13:40:51Z</time>
      </trkpt>
      <trkpt lat="41.150467" lon="-3.620983">
        <ele>1712.0</ele>
        <time>2018-07-21T13:40:52Z</time>
      </trkpt>
      <trkpt lat="41.150533" lon="-3.620883">
        <ele>1710.0</ele>
        <time>2018-07-21T13:40:53Z</time>
      </trkpt>
      <trkpt lat="41.150617" lon="-3.620767">
        <ele>1707.0</ele>
        <time>2018-07-21T13:40:54Z</time>
      </trkpt>
      <trkpt lat="41.150700" lon="-3.620667">
        <ele>1704.0</ele>
        <time>2018-07-21T13:40:55Z</time>
      </trkpt>
      <trkpt lat="41.150817" lon="-3.620567">
        <ele>1702.0</ele>
        <time>2018-07-21T13:40:56Z</time>
      </trkpt>
      <trkpt lat="41.150900" lon="-3.620450">
        <ele>1701.0</ele>
        <time>2018-07-21T13:40:57Z</time>
      </trkpt>
      <trkpt lat="41.151000" lon="-3.620350">
        <ele>1701.0</ele>
        <time>2018-07-21T13:40:58Z</time>
      </trkpt>
      <trkpt lat="41.151083" lon="-3.620233">
        <ele>1700.0</ele>
        <time>2018-07-21T13:40:59Z</time>
      </trkpt>
      <trkpt lat="41.151150" lon="-3.620133">
        <ele>1700.0</ele>
        <time>2018-07-21T13:41:00Z</time>
      </trkpt>
      <trkpt lat="41.151233" lon="-3.620033">
        <ele>1698.0</ele>
        <time>2018-07-21T13:41:01Z</time>
      </trkpt>
      <trkpt lat="41.151333" lon="-3.619917">
        <ele>1697.0</ele>
        <time>2018-07-21T13:41:02Z</time>
      </trkpt>
      <trkpt lat="41.151417" lon="-3.619817">
        <ele>1697.0</ele>
        <time>2018-07-21T13:41:03Z</time>
      </trkpt>
      <trkpt lat="41.151517" lon="-3.619717">
        <ele>1697.0</ele>
        <time>2018-07-21T13:41:04Z</time>
      </trkpt>
      <trkpt lat="41.151600" lon="-3.619600">
        <ele>1697.0</ele>
        <time>2018-07-21T13:41:05Z</time>
      </trkpt>
      <trkpt lat="41.151683" lon="-3.619467">
        <ele>1696.0</ele>
        <time>2018-07-21T13:41:06Z</time>
      </trkpt>
      <trkpt lat="41.151783" lon="-3.619350">
        <ele>1696.0</ele>
        <time>2018-07-21T13:41:07Z</time>
      </trkpt>
      <trkpt lat="41.151867" lon="-3.619250">
        <ele>1695.0</ele>
        <time>2018-07-21T13:41:08Z</time>
      </trkpt>
      <trkpt lat="41.151967" lon="-3.619167">
        <ele>1694.0</ele>
        <time>2018-07-21T13:41:09Z</time>
      </trkpt>
      <trkpt lat="41.152067" lon="-3.619067">
        <ele>1693.0</ele>
        <time>2018-07-21T13:41:10Z</time>
      </trkpt>
      <trkpt lat="41.152150" lon="-3.618983">
        <ele>1691.0</ele>
        <time>2018-07-21T13:41:11Z</time>
      </trkpt>
      <trkpt lat="41.152233" lon="-3.618883">
        <ele>1690.0</ele>
        <time>2018-07-21T13:41:12Z</time>
      </trkpt>
      <trkpt lat="41.152333" lon="-3.618783">
        <ele>1688.0</ele>
        <time>2018-07-21T13:41:13Z</time>
      </trkpt>
      <trkpt lat="41.152417" lon="-3.618683">
        <ele>1686.0</ele>
        <time>2018-07-21T13:41:14Z</time>
      </trkpt>
      <trkpt lat="41.152517" lon="-3.618600">
        <ele>1684.0</ele>
        <time>2018-07-21T13:41:15Z</time>
      </trkpt>
      <trkpt lat="41.152600" lon="-3.618500">
        <ele>1682.0</ele>
        <time>2018-07-21T13:41:16Z</time>
      </trkpt>
      <trkpt lat="41.152683" lon="-3.618400">
        <ele>1681.0</ele>
        <time>2018-07-21T13:41:17Z</time>
      </trkpt>
      <trkpt lat="41.152783" lon="-3.618300">
        <ele>1679.0</ele>
        <time>2018-07-21T13:41:18Z</time>
      </trkpt>
      <trkpt lat="41.152883" lon="-3.618183">
        <ele>1678.0</ele>
        <time>2018-07-21T13:41:19Z</time>
      </trkpt>
      <trkpt lat="41.152983" lon="-3.618083">
        <ele>1677.0</ele>
        <time>2018-07-21T13:41:20Z</time>
      </trkpt>
      <trkpt lat="41.153067" lon="-3.617983">
        <ele>1676.0</ele>
        <time>2018-07-21T13:41:21Z</time>
      </trkpt>
      <trkpt lat="41.153167" lon="-3.617883">
        <ele>1675.0</ele>
        <time>2018-07-21T13:41:22Z</time>
      </trkpt>
      <trkpt lat="41.153267" lon="-3.617767">
        <ele>1673.0</ele>
        <time>2018-07-21T13:41:23Z</time>
      </trkpt>
      <trkpt lat="41.153367" lon="-3.617650">
        <ele>1672.0</ele>
        <time>2018-07-21T13:41:24Z</time>
      </trkpt>
      <trkpt lat="41.153450" lon="-3.617533">
        <ele>1671.0</ele>
        <time>2018-07-21T13:41:25Z</time>
      </trkpt>
      <trkpt lat="41.153550" lon="-3.617417">
        <ele>1670.0</ele>
        <time>2018-07-21T13:41:26Z</time>
      </trkpt>
      <trkpt lat="41.153633" lon="-3.617317">
        <ele>1668.0</ele>
        <time>2018-07-21T13:41:27Z</time>
      </trkpt>
      <trkpt lat="41.153733" lon="-3.617200">
        <ele>1666.0</ele>
        <time>2018-07-21T13:41:28Z</time>
      </trkpt>
      <trkpt lat="41.153833" lon="-3.617083">
        <ele>1665.0</ele>
        <time>2018-07-21T13:41:29Z</time>
      </trkpt>
      <trkpt lat="41.153933" lon="-3.616983">
        <ele>1663.0</ele>
        <time>2018-07-21T13:41:30Z</time>
      </trkpt>
      <trkpt lat="41.154033" lon="-3.616867">
        <ele>1662.0</ele>
        <time>2018-07-21T13:41:31Z</time>
      </trkpt>
      <trkpt lat="41.154117" lon="-3.616750">
        <ele>1661.0</ele>
        <time>2018-07-21T13:41:32Z</time>
      </trkpt>
      <trkpt lat="41.154217" lon="-3.616633">
        <ele>1659.0</ele>
        <time>2018-07-21T13:41:33Z</time>
      </trkpt>
      <trkpt lat="41.154300" lon="-3.616517">
        <ele>1657.0</ele>
        <time>2018-07-21T13:41:34Z</time>
      </trkpt>
      <trkpt lat="41.154383" lon="-3.616400">
        <ele>1655.0</ele>
        <time>2018-07-21T13:41:35Z</time>
      </trkpt>
      <trkpt lat="41.154467" lon="-3.616267">
        <ele>1653.0</ele>
        <time>2018-07-21T13:41:36Z</time>
      </trkpt>
      <trkpt lat="41.154567" lon="-3.616150">
        <ele>1650.0</ele>
        <time>2018-07-21T13:41:37Z</time>
      </trkpt>
      <trkpt lat="41.154667" lon="-3.616033">
        <ele>1649.0</ele>
        <time>2018-07-21T13:41:38Z</time>
      </trkpt>
      <trkpt lat="41.154750" lon="-3.615917">
        <ele>1647.0</ele>
        <time>2018-07-21T13:41:39Z</time>
      </trkpt>
      <trkpt lat="41.154833" lon="-3.615783">
        <ele>1646.0</ele>
        <time>2018-07-21T13:41:40Z</time>
      </trkpt>
      <trkpt lat="41.154900" lon="-3.615667">
        <ele>1645.0</ele>
        <time>2018-07-21T13:41:41Z</time>
      </trkpt>
      <trkpt lat="41.154983" lon="-3.615533">
        <ele>1643.0</ele>
        <time>2018-07-21T13:41:42Z</time>
      </trkpt>
      <trkpt lat="41.155050" lon="-3.615400">
        <ele>1641.0</ele>
        <time>2018-07-21T13:41:43Z</time>
      </trkpt>
      <trkpt lat="41.155133" lon="-3.615283">
        <ele>1638.0</ele>
        <time>2018-07-21T13:41:44Z</time>
      </trkpt>
      <trkpt lat="41.155217" lon="-3.615167">
        <ele>1636.0</ele>
        <time>2018-07-21T13:41:45Z</time>
      </trkpt>
      <trkpt lat="41.155317" lon="-3.615050">
        <ele>1635.0</ele>
        <time>2018-07-21T13:41:46Z</time>
      </trkpt>
      <trkpt lat="41.155400" lon="-3.614967">
        <ele>1633.0</ele>
        <time>2018-07-21T13:41:47Z</time>
      </trkpt>
      <trkpt lat="41.155483" lon="-3.614867">
        <ele>1632.0</ele>
        <time>2018-07-21T13:41:48Z</time>
      </trkpt>
      <trkpt lat="41.155567" lon="-3.614750">
        <ele>1630.0</ele>
        <time>2018-07-21T13:41:49Z</time>
      </trkpt>
      <trkpt lat="41.155667" lon="-3.614650">
        <ele>1628.0</ele>
        <time>2018-07-21T13:41:50Z</time>
      </trkpt>
      <trkpt lat="41.155750" lon="-3.614533">
        <ele>1627.0</ele>
        <time>2018-07-21T13:41:51Z</time>
      </trkpt>
      <trkpt lat="41.155833" lon="-3.614417">
        <ele>1625.0</ele>
        <time>2018-07-21T13:41:52Z</time>
      </trkpt>
      <trkpt lat="41.155917" lon="-3.614300">
        <ele>1624.0</ele>
        <time>2018-07-21T13:41:53Z</time>
      </trkpt>
      <trkpt lat="41.156000" lon="-3.614183">
        <ele>1623.0</ele>
        <time>2018-07-21T13:41:54Z</time>
      </trkpt>
      <trkpt lat="41.156083" lon="-3.614050">
        <ele>1621.0</ele>
        <time>2018-07-21T13:41:55Z</time>
      </trkpt>
      <trkpt lat="41.156150" lon="-3.613917">
        <ele>1620.0</ele>
        <time>2018-07-21T13:41:56Z</time>
      </trkpt>
      <trkpt lat="41.156217" lon="-3.613783">
        <ele>1619.0</ele>
        <time>2018-07-21T13:41:57Z</time>
      </trkpt>
      <trkpt lat="41.156300" lon="-3.613650">
        <ele>1617.0</ele>
        <time>2018-07-21T13:41:58Z</time>
      </trkpt>
      <trkpt lat="41.156367" lon="-3.613517">
        <ele>1615.0</ele>
        <time>2018-07-21T13:41:59Z</time>
      </trkpt>
      <trkpt lat="41.156433" lon="-3.613367">
        <ele>1613.0</ele>
        <time>2018-07-21T13:42:00Z</time>
      </trkpt>
      <trkpt lat="41.156517" lon="-3.613233">
        <ele>1611.0</ele>
        <time>2018-07-21T13:42:01Z</time>
      </trkpt>
      <trkpt lat="41.156600" lon="-3.613100">
        <ele>1609.0</ele>
        <time>2018-07-21T13:42:02Z</time>
      </trkpt>
      <trkpt lat="41.156683" lon="-3.612967">
        <ele>1607.0</ele>
        <time>2018-07-21T13:42:03Z</time>
      </trkpt>
      <trkpt lat="41.156783" lon="-3.612833">
        <ele>1605.0</ele>
        <time>2018-07-21T13:42:04Z</time>
      </trkpt>
      <trkpt lat="41.156867" lon="-3.612700">
        <ele>1602.0</ele>
        <time>2018-07-21T13:42:05Z</time>
      </trkpt>
      <trkpt lat="41.156950" lon="-3.612583">
        <ele>1600.0</ele>
        <time>2018-07-21T13:42:06Z</time>
      </trkpt>
      <trkpt lat="41.157050" lon="-3.612467">
        <ele>1597.0</ele>
        <time>2018-07-21T13:42:07Z</time>
      </trkpt>
      <trkpt lat="41.157133" lon="-3.612367">
        <ele>1594.0</ele>
        <time>2018-07-21T13:42:08Z</time>
      </trkpt>
      <trkpt lat="41.157233" lon="-3.612250">
        <ele>1592.0</ele>
        <time>2018-07-21T13:42:09Z</time>
      </trkpt>
      <trkpt lat="41.157317" lon="-3.612117">
        <ele>1590.0</ele>
        <time>2018-07-21T13:42:10Z</time>
      </trkpt>
      <trkpt lat="41.157400" lon="-3.611983">
        <ele>1588.0</ele>
        <time>2018-07-21T13:42:11Z</time>
      </trkpt>
      <trkpt lat="41.157467" lon="-3.611833">
        <ele>1587.0</ele>
        <time>2018-07-21T13:42:12Z</time>
      </trkpt>
      <trkpt lat="41.157550" lon="-3.611700">
        <ele>1585.0</ele>
        <time>2018-07-21T13:42:13Z</time>
      </trkpt>
      <trkpt lat="41.157617" lon="-3.611583">
        <ele>1583.0</ele>
        <time>2018-07-21T13:42:14Z</time>
      </trkpt>
      <trkpt lat="41.157700" lon="-3.611450">
        <ele>1581.0</ele>
        <time>2018-07-21T13:42:15Z</time>
      </trkpt>
      <trkpt lat="41.157783" lon="-3.611333">
        <ele>1579.0</ele>
        <time>2018-07-21T13:42:16Z</time>
      </trkpt>
      <trkpt lat="41.157867" lon="-3.611200">
        <ele>1577.0</ele>
        <time>2018-07-21T13:42:17Z</time>
      </trkpt>
      <trkpt lat="41.157933" lon="-3.611083">
        <ele>1575.0</ele>
        <time>2018-07-21T13:42:18Z</time>
      </trkpt>
      <trkpt lat="41.158017" lon="-3.610967">
        <ele>1573.0</ele>
        <time>2018-07-21T13:42:19Z</time>
      </trkpt>
      <trkpt lat="41.158117" lon="-3.610850">
        <ele>1571.0</ele>
        <time>2018-07-21T13:42:20Z</time>
      </trkpt>
      <trkpt lat="41.158200" lon="-3.610750">
        <ele>1570.0</ele>
        <time>2018-07-21T13:42:21Z</time>
      </trkpt>
      <trkpt lat="41.158283" lon="-3.610667">
        <ele>1568.0</ele>
        <time>2018-07-21T13:42:22Z</time>
      </trkpt>
      <trkpt lat="41.158383" lon="-3.610550">
        <ele>1567.0</ele>
        <time>2018-07-21T13:42:23Z</time>
      </trkpt>
      <trkpt lat="41.158483" lon="-3.610467">
        <ele>1566.0</ele>
        <time>2018-07-21T13:42:24Z</time>
      </trkpt>
      <trkpt lat="41.158583" lon="-3.610367">
        <ele>1566.0</ele>
        <time>2018-07-21T13:42:25Z</time>
      </trkpt>
      <trkpt lat="41.158683" lon="-3.610283">
        <ele>1567.0</ele>
        <time>2018-07-21T13:42:26Z</time>
      </trkpt>
      <trkpt lat="41.158767" lon="-3.610200">
        <ele>1568.0</ele>
        <time>2018-07-21T13:42:27Z</time>
      </trkpt>
      <trkpt lat="41.158850" lon="-3.610117">
        <ele>1569.0</ele>
        <time>2018-07-21T13:42:28Z</time>
      </trkpt>
      <trkpt lat="41.158933" lon="-3.610033">
        <ele>1570.0</ele>
        <time>2018-07-21T13:42:29Z</time>
      </trkpt>
      <trkpt lat="41.159017" lon="-3.609950">
        <ele>1570.0</ele>
        <time>2018-07-21T13:42:30Z</time>
      </trkpt>
      <trkpt lat="41.159100" lon="-3.609867">
        <ele>1570.0</ele>
        <time>2018-07-21T13:42:31Z</time>
      </trkpt>
      <trkpt lat="41.159200" lon="-3.609783">
        <ele>1571.0</ele>
        <time>2018-07-21T13:42:32Z</time>
      </trkpt>
      <trkpt lat="41.159283" lon="-3.609733">
        <ele>1571.0</ele>
        <time>2018-07-21T13:42:33Z</time>
      </trkpt>
      <trkpt lat="41.159367" lon="-3.609683">
        <ele>1572.0</ele>
        <time>2018-07-21T13:42:34Z</time>
      </trkpt>
      <trkpt lat="41.159467" lon="-3.609633">
        <ele>1572.0</ele>
        <time>2018-07-21T13:42:35Z</time>
      </trkpt>
      <trkpt lat="41.159567" lon="-3.609600">
        <ele>1572.0</ele>
        <time>2018-07-21T13:42:36Z</time>
      </trkpt>
      <trkpt lat="41.159667" lon="-3.609550">
        <ele>1572.0</ele>
        <time>2018-07-21T13:42:37Z</time>
      </trkpt>
      <trkpt lat="41.159783" lon="-3.609517">
        <ele>1572.0</ele>
        <time>2018-07-21T13:42:38Z</time>
      </trkpt>
      <trkpt lat="41.159867" lon="-3.609483">
        <ele>1573.0</ele>
        <time>2018-07-21T13:42:39Z</time>
      </trkpt>
      <trkpt lat="41.159967" lon="-3.609450">
        <ele>1574.0</ele>
        <time>2018-07-21T13:42:40Z</time>
      </trkpt>
      <trkpt lat="41.160050" lon="-3.609417">
        <ele>1575.0</ele>
        <time>2018-07-21T13:42:41Z</time>
      </trkpt>
      <trkpt lat="41.160133" lon="-3.609383">
        <ele>1574.0</ele>
        <time>2018-07-21T13:42:42Z</time>
      </trkpt>
      <trkpt lat="41.160233" lon="-3.609350">
        <ele>1573.0</ele>
        <time>2018-07-21T13:42:43Z</time>
      </trkpt>
      <trkpt lat="41.160333" lon="-3.609300">
        <ele>1572.0</ele>
        <time>2018-07-21T13:42:44Z</time>
      </trkpt>
      <trkpt lat="41.160433" lon="-3.609233">
        <ele>1572.0</ele>
        <time>2018-07-21T13:42:45Z</time>
      </trkpt>
      <trkpt lat="41.160533" lon="-3.609183">
        <ele>1573.0</ele>
        <time>2018-07-21T13:42:46Z</time>
      </trkpt>
      <trkpt lat="41.160617" lon="-3.609150">
        <ele>1572.0</ele>
        <time>2018-07-21T13:42:47Z</time>
      </trkpt>
      <trkpt lat="41.160683" lon="-3.609117">
        <ele>1571.0</ele>
        <time>2018-07-21T13:42:48Z</time>
      </trkpt>
      <trkpt lat="41.160767" lon="-3.609083">
        <ele>1568.0</ele>
        <time>2018-07-21T13:42:49Z</time>
      </trkpt>
      <trkpt lat="41.160867" lon="-3.609050">
        <ele>1564.0</ele>
        <time>2018-07-21T13:42:50Z</time>
      </trkpt>
      <trkpt lat="41.160967" lon="-3.609017">
        <ele>1560.0</ele>
        <time>2018-07-21T13:42:51Z</time>
      </trkpt>
      <trkpt lat="41.161083" lon="-3.608983">
        <ele>1557.0</ele>
        <time>2018-07-21T13:42:52Z</time>
      </trkpt>
      <trkpt lat="41.161200" lon="-3.608983">
        <ele>1555.0</ele>
        <time>2018-07-21T13:42:53Z</time>
      </trkpt>
      <trkpt lat="41.161300" lon="-3.608950">
        <ele>1553.0</ele>
        <time>2018-07-21T13:42:54Z</time>
      </trkpt>
      <trkpt lat="41.161400" lon="-3.608933">
        <ele>1552.0</ele>
        <time>2018-07-21T13:42:55Z</time>
      </trkpt>
      <trkpt lat="41.161500" lon="-3.608883">
        <ele>1551.0</ele>
        <time>2018-07-21T13:42:56Z</time>
      </trkpt>
      <trkpt lat="41.161600" lon="-3.608850">
        <ele>1548.0</ele>
        <time>2018-07-21T13:42:57Z</time>
      </trkpt>
      <trkpt lat="41.161717" lon="-3.608800">
        <ele>1545.0</ele>
        <time>2018-07-21T13:42:58Z</time>
      </trkpt>
      <trkpt lat="41.161833" lon="-3.608750">
        <ele>1544.0</ele>
        <time>2018-07-21T13:42:59Z</time>
      </trkpt>
      <trkpt lat="41.161950" lon="-3.608700">
        <ele>1543.0</ele>
        <time>2018-07-21T13:43:00Z</time>
      </trkpt>
      <trkpt lat="41.162050" lon="-3.608650">
        <ele>1541.0</ele>
        <time>2018-07-21T13:43:01Z</time>
      </trkpt>
      <trkpt lat="41.162150" lon="-3.608583">
        <ele>1540.0</ele>
        <time>2018-07-21T13:43:02Z</time>
      </trkpt>
      <trkpt lat="41.162250" lon="-3.608517">
        <ele>1537.0</ele>
        <time>2018-07-21T13:43:03Z</time>
      </trkpt>
      <trkpt lat="41.162367" lon="-3.608467">
        <ele>1534.0</ele>
        <time>2018-07-21T13:43:04Z</time>
      </trkpt>
      <trkpt lat="41.162483" lon="-3.608400">
        <ele>1532.0</ele>
        <time>2018-07-21T13:43:05Z</time>
      </trkpt>
      <trkpt lat="41.162600" lon="-3.608317">
        <ele>1531.0</ele>
        <time>2018-07-21T13:43:06Z</time>
      </trkpt>
      <trkpt lat="41.162700" lon="-3.608217">
        <ele>1531.0</ele>
        <time>2018-07-21T13:43:07Z</time>
      </trkpt>
      <trkpt lat="41.162783" lon="-3.608133">
        <ele>1531.0</ele>
        <time>2018-07-21T13:43:08Z</time>
      </trkpt>
      <trkpt lat="41.162867" lon="-3.608067">
        <ele>1529.0</ele>
        <time>2018-07-21T13:43:09Z</time>
      </trkpt>
      <trkpt lat="41.162950" lon="-3.608017">
        <ele>1526.0</ele>
        <time>2018-07-21T13:43:10Z</time>
      </trkpt>
      <trkpt lat="41.163050" lon="-3.607933">
        <ele>1523.0</ele>
        <time>2018-07-21T13:43:11Z</time>
      </trkpt>
      <trkpt lat="41.163167" lon="-3.607850">
        <ele>1521.0</ele>
        <time>2018-07-21T13:43:12Z</time>
      </trkpt>
      <trkpt lat="41.163283" lon="-3.607767">
        <ele>1522.0</ele>
        <time>2018-07-21T13:43:13Z</time>
      </trkpt>
      <trkpt lat="41.163367" lon="-3.607667">
        <ele>1523.0</ele>
        <time>2018-07-21T13:43:14Z</time>
      </trkpt>
      <trkpt lat="41.163467" lon="-3.607600">
        <ele>1524.0</ele>
        <time>2018-07-21T13:43:15Z</time>
      </trkpt>
      <trkpt lat="41.163550" lon="-3.607533">
        <ele>1525.0</ele>
        <time>2018-07-21T13:43:16Z</time>
      </trkpt>
      <trkpt lat="41.163633" lon="-3.607500">
        <ele>1524.0</ele>
        <time>2018-07-21T13:43:17Z</time>
      </trkpt>
      <trkpt lat="41.163733" lon="-3.607467">
        <ele>1522.0</ele>
        <time>2018-07-21T13:43:18Z</time>
      </trkpt>
      <trkpt lat="41.163833" lon="-3.607433">
        <ele>1521.0</ele>
        <time>2018-07-21T13:43:19Z</time>
      </trkpt>
      <trkpt lat="41.163933" lon="-3.607417">
        <ele>1519.0</ele>
        <time>2018-07-21T13:43:20Z</time>
      </trkpt>
      <trkpt lat="41.164033" lon="-3.607400">
        <ele>1518.0</ele>
        <time>2018-07-21T13:43:21Z</time>
      </trkpt>
      <trkpt lat="41.164133" lon="-3.607367">
        <ele>1517.0</ele>
        <time>2018-07-21T13:43:22Z</time>
      </trkpt>
      <trkpt lat="41.164250" lon="-3.607350">
        <ele>1517.0</ele>
        <time>2018-07-21T13:43:23Z</time>
      </trkpt>
      <trkpt lat="41.164350" lon="-3.607333">
        <ele>1517.0</ele>
        <time>2018-07-21T13:43:24Z</time>
      </trkpt>
      <trkpt lat="41.164433" lon="-3.607300">
        <ele>1518.0</ele>
        <time>2018-07-21T13:43:25Z</time>
      </trkpt>
      <trkpt lat="41.164533" lon="-3.607267">
        <ele>1518.0</ele>
        <time>2018-07-21T13:43:26Z</time>
      </trkpt>
      <trkpt lat="41.164617" lon="-3.607217">
        <ele>1518.0</ele>
        <time>2018-07-21T13:43:27Z</time>
      </trkpt>
      <trkpt lat="41.164700" lon="-3.607167">
        <ele>1518.0</ele>
        <time>2018-07-21T13:43:28Z</time>
      </trkpt>
      <trkpt lat="41.164783" lon="-3.607100">
        <ele>1518.0</ele>
        <time>2018-07-21T13:43:29Z</time>
      </trkpt>
      <trkpt lat="41.164867" lon="-3.607050">
        <ele>1518.0</ele>
        <time>2018-07-21T13:43:30Z</time>
      </trkpt>
      <trkpt lat="41.164950" lon="-3.606983">
        <ele>1517.0</ele>
        <time>2018-07-21T13:43:31Z</time>
      </trkpt>
      <trkpt lat="41.165050" lon="-3.606917">
        <ele>1517.0</ele>
        <time>2018-07-21T13:43:32Z</time>
      </trkpt>
      <trkpt lat="41.165133" lon="-3.606883">
        <ele>1516.0</ele>
        <time>2018-07-21T13:43:33Z</time>
      </trkpt>
      <trkpt lat="41.165233" lon="-3.606850">
        <ele>1517.0</ele>
        <time>2018-07-21T13:43:34Z</time>
      </trkpt>
      <trkpt lat="41.165317" lon="-3.606850">
        <ele>1518.0</ele>
        <time>2018-07-21T13:43:35Z</time>
      </trkpt>
      <trkpt lat="41.165400" lon="-3.606850">
        <ele>1519.0</ele>
        <time>2018-07-21T13:43:36Z</time>
      </trkpt>
      <trkpt lat="41.165467" lon="-3.606833">
        <ele>1519.0</ele>
        <time>2018-07-21T13:43:37Z</time>
      </trkpt>
      <trkpt lat="41.165550" lon="-3.606817">
        <ele>1519.0</ele>
        <time>2018-07-21T13:43:38Z</time>
      </trkpt>
      <trkpt lat="41.165617" lon="-3.606800">
        <ele>1519.0</ele>
        <time>2018-07-21T13:43:39Z</time>
      </trkpt>
      <trkpt lat="41.165700" lon="-3.606783">
        <ele>1519.0</ele>
        <time>2018-07-21T13:43:40Z</time>
      </trkpt>
      <trkpt lat="41.165783" lon="-3.606800">
        <ele>1519.0</ele>
        <time>2018-07-21T13:43:41Z</time>
      </trkpt>
      <trkpt lat="41.165867" lon="-3.606833">
        <ele>1519.0</ele>
        <time>2018-07-21T13:43:42Z</time>
      </trkpt>
      <trkpt lat="41.165933" lon="-3.606900">
        <ele>1519.0</ele>
        <time>2018-07-21T13:43:43Z</time>
      </trkpt>
      <trkpt lat="41.165983" lon="-3.606983">
        <ele>1520.0</ele>
        <time>2018-07-21T13:43:44Z</time>
      </trkpt>
      <trkpt lat="41.166000" lon="-3.607067">
        <ele>1521.0</ele>
        <time>2018-07-21T13:43:45Z</time>
      </trkpt>
      <trkpt lat="41.166000" lon="-3.607150">
        <ele>1521.0</ele>
        <time>2018-07-21T13:43:46Z</time>
      </trkpt>
      <trkpt lat="41.165983" lon="-3.607233">
        <ele>1521.0</ele>
        <time>2018-07-21T13:43:47Z</time>
      </trkpt>
      <trkpt lat="41.165950" lon="-3.607300">
        <ele>1520.0</ele>
        <time>2018-07-21T13:43:48Z</time>
      </trkpt>
      <trkpt lat="41.165900" lon="-3.607333">
        <ele>1519.0</ele>
        <time>2018-07-21T13:43:49Z</time>
      </trkpt>
      <trkpt lat="41.165833" lon="-3.607367">
        <ele>1518.0</ele>
        <time>2018-07-21T13:43:50Z</time>
      </trkpt>
      <trkpt lat="41.165750" lon="-3.607383">
        <ele>1517.0</ele>
        <time>2018-07-21T13:43:51Z</time>
      </trkpt>
      <trkpt lat="41.165667" lon="-3.607350">
        <ele>1517.0</ele>
        <time>2018-07-21T13:43:52Z</time>
      </trkpt>
      <trkpt lat="41.165583" lon="-3.607300">
        <ele>1516.0</ele>
        <time>2018-07-21T13:43:53Z</time>
      </trkpt>
      <trkpt lat="41.165500" lon="-3.607200">
        <ele>1513.0</ele>
        <time>2018-07-21T13:43:54Z</time>
      </trkpt>
      <trkpt lat="41.165433" lon="-3.607083">
        <ele>1511.0</ele>
        <time>2018-07-21T13:43:55Z</time>
      </trkpt>
      <trkpt lat="41.165400" lon="-3.606933">
        <ele>1510.0</ele>
        <time>2018-07-21T13:43:56Z</time>
      </trkpt>
      <trkpt lat="41.165367" lon="-3.606767">
        <ele>1510.0</ele>
        <time>2018-07-21T13:43:57Z</time>
      </trkpt>
      <trkpt lat="41.165383" lon="-3.606633">
        <ele>1511.0</ele>
        <time>2018-07-21T13:43:58Z</time>
      </trkpt>
      <trkpt lat="41.165400" lon="-3.606500">
        <ele>1512.0</ele>
        <time>2018-07-21T13:43:59Z</time>
      </trkpt>
      <trkpt lat="41.165433" lon="-3.606383">
        <ele>1512.0</ele>
        <time>2018-07-21T13:44:00Z</time>
      </trkpt>
      <trkpt lat="41.165467" lon="-3.606267">
        <ele>1512.0</ele>
        <time>2018-07-21T13:44:01Z</time>
      </trkpt>
      <trkpt lat="41.165500" lon="-3.606150">
        <ele>1511.0</ele>
        <time>2018-07-21T13:44:02Z</time>
      </trkpt>
      <trkpt lat="41.165550" lon="-3.606033">
        <ele>1511.0</ele>
        <time>2018-07-21T13:44:03Z</time>
      </trkpt>
      <trkpt lat="41.165617" lon="-3.605917">
        <ele>1511.0</ele>
        <time>2018-07-21T13:44:04Z</time>
      </trkpt>
      <trkpt lat="41.165683" lon="-3.605833">
        <ele>1511.0</ele>
        <time>2018-07-21T13:44:05Z</time>
      </trkpt>
      <trkpt lat="41.165750" lon="-3.605750">
        <ele>1512.0</ele>
        <time>2018-07-21T13:44:06Z</time>
      </trkpt>
      <trkpt lat="41.165817" lon="-3.605683">
        <ele>1512.0</ele>
        <time>2018-07-21T13:44:07Z</time>
      </trkpt>
      <trkpt lat="41.165883" lon="-3.605583">
        <ele>1511.0</ele>
        <time>2018-07-21T13:44:08Z</time>
      </trkpt>
      <trkpt lat="41.165950" lon="-3.605483">
        <ele>1511.0</ele>
        <time>2018-07-21T13:44:09Z</time>
      </trkpt>
      <trkpt lat="41.166017" lon="-3.605367">
        <ele>1510.0</ele>
        <time>2018-07-21T13:44:10Z</time>
      </trkpt>
      <trkpt lat="41.166083" lon="-3.605283">
        <ele>1510.0</ele>
        <time>2018-07-21T13:44:11Z</time>
      </trkpt>
      <trkpt lat="41.166150" lon="-3.605200">
        <ele>1510.0</ele>
        <time>2018-07-21T13:44:12Z</time>
      </trkpt>
      <trkpt lat="41.166217" lon="-3.605100">
        <ele>1510.0</ele>
        <time>2018-07-21T13:44:13Z</time>
      </trkpt>
      <trkpt lat="41.166283" lon="-3.605000">
        <ele>1509.0</ele>
        <time>2018-07-21T13:44:14Z</time>
      </trkpt>
      <trkpt lat="41.166367" lon="-3.604900">
        <ele>1509.0</ele>
        <time>2018-07-21T13:44:15Z</time>
      </trkpt>
      <trkpt lat="41.166433" lon="-3.604817">
        <ele>1509.0</ele>
        <time>2018-07-21T13:44:16Z</time>
      </trkpt>
      <trkpt lat="41.166517" lon="-3.604767">
        <ele>1509.0</ele>
        <time>2018-07-21T13:44:17Z</time>
      </trkpt>
      <trkpt lat="41.166600" lon="-3.604700">
        <ele>1510.0</ele>
        <time>2018-07-21T13:44:18Z</time>
      </trkpt>
      <trkpt lat="41.166667" lon="-3.604633">
        <ele>1510.0</ele>
        <time>2018-07-21T13:44:19Z</time>
      </trkpt>
      <trkpt lat="41.166750" lon="-3.604567">
        <ele>1509.0</ele>
        <time>2018-07-21T13:44:20Z</time>
      </trkpt>
      <trkpt lat="41.166817" lon="-3.604483">
        <ele>1507.0</ele>
        <time>2018-07-21T13:44:21Z</time>
      </trkpt>
      <trkpt lat="41.166900" lon="-3.604417">
        <ele>1506.0</ele>
        <time>2018-07-21T13:44:22Z</time>
      </trkpt>
      <trkpt lat="41.166983" lon="-3.604367">
        <ele>1504.0</ele>
        <time>2018-07-21T13:44:23Z</time>
      </trkpt>
      <trkpt lat="41.167067" lon="-3.604317">
        <ele>1503.0</ele>
        <time>2018-07-21T13:44:24Z</time>
      </trkpt>
      <trkpt lat="41.167133" lon="-3.604267">
        <ele>1501.0</ele>
        <time>2018-07-21T13:44:25Z</time>
      </trkpt>
      <trkpt lat="41.167217" lon="-3.604200">
        <ele>1499.0</ele>
        <time>2018-07-21T13:44:26Z</time>
      </trkpt>
      <trkpt lat="41.167317" lon="-3.604133">
        <ele>1498.0</ele>
        <time>2018-07-21T13:44:27Z</time>
      </trkpt>
      <trkpt lat="41.167400" lon="-3.604067">
        <ele>1497.0</ele>
        <time>2018-07-21T13:44:28Z</time>
      </trkpt>
      <trkpt lat="41.167500" lon="-3.604000">
        <ele>1498.0</ele>
        <time>2018-07-21T13:44:29Z</time>
      </trkpt>
      <trkpt lat="41.167583" lon="-3.603950">
        <ele>1500.0</ele>
        <time>2018-07-21T13:44:30Z</time>
      </trkpt>
      <trkpt lat="41.167667" lon="-3.603883">
        <ele>1500.0</ele>
        <time>2018-07-21T13:44:31Z</time>
      </trkpt>
      <trkpt lat="41.167750" lon="-3.603817">
        <ele>1500.0</ele>
        <time>2018-07-21T13:44:32Z</time>
      </trkpt>
      <trkpt lat="41.167833" lon="-3.603733">
        <ele>1500.0</ele>
        <time>2018-07-21T13:44:33Z</time>
      </trkpt>
      <trkpt lat="41.167900" lon="-3.603633">
        <ele>1500.0</ele>
        <time>2018-07-21T13:44:34Z</time>
      </trkpt>
      <trkpt lat="41.167983" lon="-3.603550">
        <ele>1500.0</ele>
        <time>2018-07-21T13:44:35Z</time>
      </trkpt>
      <trkpt lat="41.168050" lon="-3.603450">
        <ele>1499.0</ele>
        <time>2018-07-21T13:44:36Z</time>
      </trkpt>
      <trkpt lat="41.168117" lon="-3.603367">
        <ele>1499.0</ele>
        <time>2018-07-21T13:44:37Z</time>
      </trkpt>
      <trkpt lat="41.168183" lon="-3.603283">
        <ele>1498.0</ele>
        <time>2018-07-21T13:44:38Z</time>
      </trkpt>
      <trkpt lat="41.168250" lon="-3.603200">
        <ele>1498.0</ele>
        <time>2018-07-21T13:44:39Z</time>
      </trkpt>
      <trkpt lat="41.168333" lon="-3.603100">
        <ele>1497.0</ele>
        <time>2018-07-21T13:44:40Z</time>
      </trkpt>
      <trkpt lat="41.168417" lon="-3.602983">
        <ele>1497.0</ele>
        <time>2018-07-21T13:44:41Z</time>
      </trkpt>
      <trkpt lat="41.168500" lon="-3.602900">
        <ele>1498.0</ele>
        <time>2018-07-21T13:44:42Z</time>
      </trkpt>
      <trkpt lat="41.168583" lon="-3.602800">
        <ele>1499.0</ele>
        <time>2018-07-21T13:44:43Z</time>
      </trkpt>
      <trkpt lat="41.168650" lon="-3.602717">
        <ele>1499.0</ele>
        <time>2018-07-21T13:44:44Z</time>
      </trkpt>
      <trkpt lat="41.168717" lon="-3.602650">
        <ele>1501.0</ele>
        <time>2018-07-21T13:44:45Z</time>
      </trkpt>
      <trkpt lat="41.168800" lon="-3.602583">
        <ele>1502.0</ele>
        <time>2018-07-21T13:44:46Z</time>
      </trkpt>
      <trkpt lat="41.168850" lon="-3.602517">
        <ele>1504.0</ele>
        <time>2018-07-21T13:44:47Z</time>
      </trkpt>
      <trkpt lat="41.168917" lon="-3.602450">
        <ele>1505.0</ele>
        <time>2018-07-21T13:44:48Z</time>
      </trkpt>
      <trkpt lat="41.168983" lon="-3.602400">
        <ele>1506.0</ele>
        <time>2018-07-21T13:44:49Z</time>
      </trkpt>
      <trkpt lat="41.169050" lon="-3.602383">
        <ele>1505.0</ele>
        <time>2018-07-21T13:44:50Z</time>
      </trkpt>
      <trkpt lat="41.169117" lon="-3.602417">
        <ele>1505.0</ele>
        <time>2018-07-21T13:44:51Z</time>
      </trkpt>
      <trkpt lat="41.169150" lon="-3.602500">
        <ele>1505.0</ele>
        <time>2018-07-21T13:44:52Z</time>
      </trkpt>
      <trkpt lat="41.169150" lon="-3.602600">
        <ele>1505.0</ele>
        <time>2018-07-21T13:44:53Z</time>
      </trkpt>
      <trkpt lat="41.169133" lon="-3.602717">
        <ele>1505.0</ele>
        <time>2018-07-21T13:44:54Z</time>
      </trkpt>
      <trkpt lat="41.169083" lon="-3.602817">
        <ele>1506.0</ele>
        <time>2018-07-21T13:44:55Z</time>
      </trkpt>
      <trkpt lat="41.168983" lon="-3.602900">
        <ele>1506.0</ele>
        <time>2018-07-21T13:44:56Z</time>
      </trkpt>
      <trkpt lat="41.168883" lon="-3.602950">
        <ele>1507.0</ele>
        <time>2018-07-21T13:44:57Z</time>
      </trkpt>
      <trkpt lat="41.168767" lon="-3.602933">
        <ele>1507.0</ele>
        <time>2018-07-21T13:44:58Z</time>
      </trkpt>
      <trkpt lat="41.168650" lon="-3.602883">
        <ele>1507.0</ele>
        <time>2018-07-21T13:44:59Z</time>
      </trkpt>
      <trkpt lat="41.168533" lon="-3.602783">
        <ele>1509.0</ele>
        <time>2018-07-21T13:45:00Z</time>
      </trkpt>
      <trkpt lat="41.168483" lon="-3.602650">
        <ele>1511.0</ele>
        <time>2018-07-21T13:45:01Z</time>
      </trkpt>
      <trkpt lat="41.168467" lon="-3.602533">
        <ele>1513.0</ele>
        <time>2018-07-21T13:45:02Z</time>
      </trkpt>
      <trkpt lat="41.168450" lon="-3.602417">
        <ele>1515.0</ele>
        <time>2018-07-21T13:45:03Z</time>
      </trkpt>
      <trkpt lat="41.168467" lon="-3.602317">
        <ele>1515.0</ele>
        <time>2018-07-21T13:45:04Z</time>
      </trkpt>
      <trkpt lat="41.168467" lon="-3.602200">
        <ele>1514.0</ele>
        <time>2018-07-21T13:45:05Z</time>
      </trkpt>
      <trkpt lat="41.168500" lon="-3.602083">
        <ele>1513.0</ele>
        <time>2018-07-21T13:45:06Z</time>
      </trkpt>
      <trkpt lat="41.168550" lon="-3.601983">
        <ele>1512.0</ele>
        <time>2018-07-21T13:45:07Z</time>
      </trkpt>
      <trkpt lat="41.168633" lon="-3.601917">
        <ele>1511.0</ele>
        <time>2018-07-21T13:45:08Z</time>
      </trkpt>
      <trkpt lat="41.168717" lon="-3.601900">
        <ele>1511.0</ele>
        <time>2018-07-21T13:45:09Z</time>
      </trkpt>
      <trkpt lat="41.168783" lon="-3.601900">
        <ele>1513.0</ele>
        <time>2018-07-21T13:45:10Z</time>
      </trkpt>
      <trkpt lat="41.168833" lon="-3.601900">
        <ele>1514.0</ele>
        <time>2018-07-21T13:45:11Z</time>
      </trkpt>
      <trkpt lat="41.168867" lon="-3.601900">
        <ele>1515.0</ele>
        <time>2018-07-21T13:45:12Z</time>
      </trkpt>
      <trkpt lat="41.168917" lon="-3.601917">
        <ele>1515.0</ele>
        <time>2018-07-21T13:45:13Z</time>
      </trkpt>
      <trkpt lat="41.168967" lon="-3.601967">
        <ele>1514.0</ele>
        <time>2018-07-21T13:45:14Z</time>
      </trkpt>
      <trkpt lat="41.169000" lon="-3.602050">
        <ele>1512.0</ele>
        <time>2018-07-21T13:45:15Z</time>
      </trkpt>
      <trkpt lat="41.169017" lon="-3.602133">
        <ele>1511.0</ele>
        <time>2018-07-21T13:45:16Z</time>
      </trkpt>
      <trkpt lat="41.169017" lon="-3.602250">
        <ele>1510.0</ele>
        <time>2018-07-21T13:45:17Z</time>
      </trkpt>
      <trkpt lat="41.168983" lon="-3.602350">
        <ele>1509.0</ele>
        <time>2018-07-21T13:45:18Z</time>
      </trkpt>
      <trkpt lat="41.168917" lon="-3.602467">
        <ele>1508.0</ele>
        <time>2018-07-21T13:45:19Z</time>
      </trkpt>
      <trkpt lat="41.168833" lon="-3.602550">
        <ele>1507.0</ele>
        <time>2018-07-21T13:45:20Z</time>
      </trkpt>
      <trkpt lat="41.168733" lon="-3.602633">
        <ele>1507.0</ele>
        <time>2018-07-21T13:45:21Z</time>
      </trkpt>
      <trkpt lat="41.168617" lon="-3.602667">
        <ele>1507.0</ele>
        <time>2018-07-21T13:45:22Z</time>
      </trkpt>
      <trkpt lat="41.168500" lon="-3.602683">
        <ele>1508.0</ele>
        <time>2018-07-21T13:45:23Z</time>
      </trkpt>
      <trkpt lat="41.168400" lon="-3.602650">
        <ele>1508.0</ele>
        <time>2018-07-21T13:45:24Z</time>
      </trkpt>
      <trkpt lat="41.168283" lon="-3.602567">
        <ele>1507.0</ele>
        <time>2018-07-21T13:45:25Z</time>
      </trkpt>
      <trkpt lat="41.168183" lon="-3.602467">
        <ele>1506.0</ele>
        <time>2018-07-21T13:45:26Z</time>
      </trkpt>
      <trkpt lat="41.168117" lon="-3.602333">
        <ele>1506.0</ele>
        <time>2018-07-21T13:45:27Z</time>
      </trkpt>
      <trkpt lat="41.168050" lon="-3.602183">
        <ele>1507.0</ele>
        <time>2018-07-21T13:45:28Z</time>
      </trkpt>
      <trkpt lat="41.168017" lon="-3.602033">
        <ele>1508.0</ele>
        <time>2018-07-21T13:45:29Z</time>
      </trkpt>
      <trkpt lat="41.167983" lon="-3.601900">
        <ele>1510.0</ele>
        <time>2018-07-21T13:45:30Z</time>
      </trkpt>
      <trkpt lat="41.167950" lon="-3.601783">
        <ele>1510.0</ele>
        <time>2018-07-21T13:45:31Z</time>
      </trkpt>
      <trkpt lat="41.167917" lon="-3.601667">
        <ele>1510.0</ele>
        <time>2018-07-21T13:45:32Z</time>
      </trkpt>
      <trkpt lat="41.167900" lon="-3.601533">
        <ele>1510.0</ele>
        <time>2018-07-21T13:45:33Z</time>
      </trkpt>
      <trkpt lat="41.167900" lon="-3.601400">
        <ele>1508.0</ele>
        <time>2018-07-21T13:45:34Z</time>
      </trkpt>
      <trkpt lat="41.167917" lon="-3.601250">
        <ele>1507.0</ele>
        <time>2018-07-21T13:45:35Z</time>
      </trkpt>
      <trkpt lat="41.167950" lon="-3.601117">
        <ele>1507.0</ele>
        <time>2018-07-21T13:45:36Z</time>
      </trkpt>
      <trkpt lat="41.167983" lon="-3.600983">
        <ele>1508.0</ele>
        <time>2018-07-21T13:45:37Z</time>
      </trkpt>
      <trkpt lat="41.168017" lon="-3.600867">
        <ele>1509.0</ele>
        <time>2018-07-21T13:45:38Z</time>
      </trkpt>
      <trkpt lat="41.168017" lon="-3.600750">
        <ele>1510.0</ele>
        <time>2018-07-21T13:45:39Z</time>
      </trkpt>
      <trkpt lat="41.168033" lon="-3.600617">
        <ele>1511.0</ele>
        <time>2018-07-21T13:45:40Z</time>
      </trkpt>
      <trkpt lat="41.168033" lon="-3.600483">
        <ele>1511.0</ele>
        <time>2018-07-21T13:45:41Z</time>
      </trkpt>
      <trkpt lat="41.168050" lon="-3.600350">
        <ele>1510.0</ele>
        <time>2018-07-21T13:45:42Z</time>
      </trkpt>
      <trkpt lat="41.168083" lon="-3.600217">
        <ele>1511.0</ele>
        <time>2018-07-21T13:45:43Z</time>
      </trkpt>
      <trkpt lat="41.168117" lon="-3.600083">
        <ele>1511.0</ele>
        <time>2018-07-21T13:45:44Z</time>
      </trkpt>
      <trkpt lat="41.168167" lon="-3.599950">
        <ele>1511.0</ele>
        <time>2018-07-21T13:45:45Z</time>
      </trkpt>
      <trkpt lat="41.168200" lon="-3.599817">
        <ele>1512.0</ele>
        <time>2018-07-21T13:45:46Z</time>
      </trkpt>
      <trkpt lat="41.168233" lon="-3.599683">
        <ele>1511.0</ele>
        <time>2018-07-21T13:45:47Z</time>
      </trkpt>
      <trkpt lat="41.168283" lon="-3.599567">
        <ele>1511.0</ele>
        <time>2018-07-21T13:45:48Z</time>
      </trkpt>
      <trkpt lat="41.168333" lon="-3.599467">
        <ele>1508.0</ele>
        <time>2018-07-21T13:45:49Z</time>
      </trkpt>
      <trkpt lat="41.168400" lon="-3.599383">
        <ele>1506.0</ele>
        <time>2018-07-21T13:45:50Z</time>
      </trkpt>
      <trkpt lat="41.168483" lon="-3.599300">
        <ele>1504.0</ele>
        <time>2018-07-21T13:45:51Z</time>
      </trkpt>
      <trkpt lat="41.168550" lon="-3.599200">
        <ele>1503.0</ele>
        <time>2018-07-21T13:45:52Z</time>
      </trkpt>
      <trkpt lat="41.168617" lon="-3.599117">
        <ele>1502.0</ele>
        <time>2018-07-21T13:45:53Z</time>
      </trkpt>
      <trkpt lat="41.168683" lon="-3.599033">
        <ele>1500.0</ele>
        <time>2018-07-21T13:45:54Z</time>
      </trkpt>
      <trkpt lat="41.168750" lon="-3.598950">
        <ele>1498.0</ele>
        <time>2018-07-21T13:45:55Z</time>
      </trkpt>
      <trkpt lat="41.168833" lon="-3.598867">
        <ele>1496.0</ele>
        <time>2018-07-21T13:45:56Z</time>
      </trkpt>
      <trkpt lat="41.168917" lon="-3.598767">
        <ele>1493.0</ele>
        <time>2018-07-21T13:45:57Z</time>
      </trkpt>
      <trkpt lat="41.168983" lon="-3.598667">
        <ele>1491.0</ele>
        <time>2018-07-21T13:45:58Z</time>
      </trkpt>
      <trkpt lat="41.169067" lon="-3.598550">
        <ele>1490.0</ele>
        <time>2018-07-21T13:45:59Z</time>
      </trkpt>
      <trkpt lat="41.169133" lon="-3.598433">
        <ele>1490.0</ele>
        <time>2018-07-21T13:46:00Z</time>
      </trkpt>
      <trkpt lat="41.169183" lon="-3.598333">
        <ele>1490.0</ele>
        <time>2018-07-21T13:46:01Z</time>
      </trkpt>
      <trkpt lat="41.169250" lon="-3.598233">
        <ele>1488.0</ele>
        <time>2018-07-21T13:46:02Z</time>
      </trkpt>
      <trkpt lat="41.169317" lon="-3.598133">
        <ele>1486.0</ele>
        <time>2018-07-21T13:46:03Z</time>
      </trkpt>
      <trkpt lat="41.169400" lon="-3.598033">
        <ele>1485.0</ele>
        <time>2018-07-21T13:46:04Z</time>
      </trkpt>
      <trkpt lat="41.169467" lon="-3.597933">
        <ele>1484.0</ele>
        <time>2018-07-21T13:46:05Z</time>
      </trkpt>
      <trkpt lat="41.169533" lon="-3.597833">
        <ele>1483.0</ele>
        <time>2018-07-21T13:46:06Z</time>
      </trkpt>
      <trkpt lat="41.169617" lon="-3.597750">
        <ele>1481.0</ele>
        <time>2018-07-21T13:46:07Z</time>
      </trkpt>
      <trkpt lat="41.169683" lon="-3.597683">
        <ele>1480.0</ele>
        <time>2018-07-21T13:46:08Z</time>
      </trkpt>
      <trkpt lat="41.169767" lon="-3.597633">
        <ele>1478.0</ele>
        <time>2018-07-21T13:46:09Z</time>
      </trkpt>
      <trkpt lat="41.169867" lon="-3.597567">
        <ele>1476.0</ele>
        <time>2018-07-21T13:46:10Z</time>
      </trkpt>
      <trkpt lat="41.169933" lon="-3.597483">
        <ele>1474.0</ele>
        <time>2018-07-21T13:46:11Z</time>
      </trkpt>
      <trkpt lat="41.170017" lon="-3.597417">
        <ele>1472.0</ele>
        <time>2018-07-21T13:46:12Z</time>
      </trkpt>
      <trkpt lat="41.170083" lon="-3.597333">
        <ele>1470.0</ele>
        <time>2018-07-21T13:46:13Z</time>
      </trkpt>
      <trkpt lat="41.170150" lon="-3.597267">
        <ele>1469.0</ele>
        <time>2018-07-21T13:46:14Z</time>
      </trkpt>
      <trkpt lat="41.170233" lon="-3.597183">
        <ele>1467.0</ele>
        <time>2018-07-21T13:46:15Z</time>
      </trkpt>
      <trkpt lat="41.170317" lon="-3.597100">
        <ele>1465.0</ele>
        <time>2018-07-21T13:46:16Z</time>
      </trkpt>
      <trkpt lat="41.170383" lon="-3.597033">
        <ele>1464.0</ele>
        <time>2018-07-21T13:46:17Z</time>
      </trkpt>
      <trkpt lat="41.170433" lon="-3.596967">
        <ele>1462.0</ele>
        <time>2018-07-21T13:46:18Z</time>
      </trkpt>
      <trkpt lat="41.170500" lon="-3.596883">
        <ele>1460.0</ele>
        <time>2018-07-21T13:46:19Z</time>
      </trkpt>
      <trkpt lat="41.170567" lon="-3.596800">
        <ele>1457.0</ele>
        <time>2018-07-21T13:46:20Z</time>
      </trkpt>
      <trkpt lat="41.170633" lon="-3.596700">
        <ele>1455.0</ele>
        <time>2018-07-21T13:46:21Z</time>
      </trkpt>
      <trkpt lat="41.170700" lon="-3.596600">
        <ele>1456.0</ele>
        <time>2018-07-21T13:46:22Z</time>
      </trkpt>
      <trkpt lat="41.170767" lon="-3.596483">
        <ele>1457.0</ele>
        <time>2018-07-21T13:46:23Z</time>
      </trkpt>
      <trkpt lat="41.170817" lon="-3.596400">
        <ele>1458.0</ele>
        <time>2018-07-21T13:46:24Z</time>
      </trkpt>
      <trkpt lat="41.170867" lon="-3.596300">
        <ele>1459.0</ele>
        <time>2018-07-21T13:46:25Z</time>
      </trkpt>
      <trkpt lat="41.170900" lon="-3.596200">
        <ele>1458.0</ele>
        <time>2018-07-21T13:46:26Z</time>
      </trkpt>
      <trkpt lat="41.170950" lon="-3.596083">
        <ele>1457.0</ele>
        <time>2018-07-21T13:46:27Z</time>
      </trkpt>
      <trkpt lat="41.171017" lon="-3.595983">
        <ele>1457.0</ele>
        <time>2018-07-21T13:46:28Z</time>
      </trkpt>
      <trkpt lat="41.171100" lon="-3.595900">
        <ele>1456.0</ele>
        <time>2018-07-21T13:46:29Z</time>
      </trkpt>
      <trkpt lat="41.171183" lon="-3.595867">
        <ele>1456.0</ele>
        <time>2018-07-21T13:46:30Z</time>
      </trkpt>
      <trkpt lat="41.171267" lon="-3.595867">
        <ele>1456.0</ele>
        <time>2018-07-21T13:46:31Z</time>
      </trkpt>
      <trkpt lat="41.171333" lon="-3.595883">
        <ele>1456.0</ele>
        <time>2018-07-21T13:46:32Z</time>
      </trkpt>
      <trkpt lat="41.171400" lon="-3.595917">
        <ele>1456.0</ele>
        <time>2018-07-21T13:46:33Z</time>
      </trkpt>
      <trkpt lat="41.171467" lon="-3.595917">
        <ele>1456.0</ele>
        <time>2018-07-21T13:46:34Z</time>
      </trkpt>
      <trkpt lat="41.171550" lon="-3.595917">
        <ele>1455.0</ele>
        <time>2018-07-21T13:46:35Z</time>
      </trkpt>
      <trkpt lat="41.171617" lon="-3.595883">
        <ele>1453.0</ele>
        <time>2018-07-21T13:46:36Z</time>
      </trkpt>
      <trkpt lat="41.171683" lon="-3.595850">
        <ele>1452.0</ele>
        <time>2018-07-21T13:46:37Z</time>
      </trkpt>
      <trkpt lat="41.171767" lon="-3.595800">
        <ele>1452.0</ele>
        <time>2018-07-21T13:46:38Z</time>
      </trkpt>
      <trkpt lat="41.171817" lon="-3.595750">
        <ele>1451.0</ele>
        <time>2018-07-21T13:46:39Z</time>
      </trkpt>
      <trkpt lat="41.171883" lon="-3.595683">
        <ele>1449.0</ele>
        <time>2018-07-21T13:46:40Z</time>
      </trkpt>
      <trkpt lat="41.171950" lon="-3.595633">
        <ele>1447.0</ele>
        <time>2018-07-21T13:46:41Z</time>
      </trkpt>
      <trkpt lat="41.172017" lon="-3.595567">
        <ele>1444.0</ele>
        <time>2018-07-21T13:46:42Z</time>
      </trkpt>
      <trkpt lat="41.172083" lon="-3.595483">
        <ele>1442.0</ele>
        <time>2018-07-21T13:46:43Z</time>
      </trkpt>
      <trkpt lat="41.172133" lon="-3.595383">
        <ele>1441.0</ele>
        <time>2018-07-21T13:46:44Z</time>
      </trkpt>
      <trkpt lat="41.172200" lon="-3.595300">
        <ele>1440.0</ele>
        <time>2018-07-21T13:46:45Z</time>
      </trkpt>
      <trkpt lat="41.172250" lon="-3.595183">
        <ele>1439.0</ele>
        <time>2018-07-21T13:46:46Z</time>
      </trkpt>
      <trkpt lat="41.172300" lon="-3.595100">
        <ele>1437.0</ele>
        <time>2018-07-21T13:46:47Z</time>
      </trkpt>
      <trkpt lat="41.172367" lon="-3.595000">
        <ele>1436.0</ele>
        <time>2018-07-21T13:46:48Z</time>
      </trkpt>
      <trkpt lat="41.172433" lon="-3.594900">
        <ele>1435.0</ele>
        <time>2018-07-21T13:46:49Z</time>
      </trkpt>
      <trkpt lat="41.172500" lon="-3.594833">
        <ele>1435.0</ele>
        <time>2018-07-21T13:46:50Z</time>
      </trkpt>
      <trkpt lat="41.172567" lon="-3.594750">
        <ele>1434.0</ele>
        <time>2018-07-21T13:46:51Z</time>
      </trkpt>
      <trkpt lat="41.172617" lon="-3.594667">
        <ele>1432.0</ele>
        <time>2018-07-21T13:46:52Z</time>
      </trkpt>
      <trkpt lat="41.172667" lon="-3.594583">
        <ele>1430.0</ele>
        <time>2018-07-21T13:46:53Z</time>
      </trkpt>
      <trkpt lat="41.172733" lon="-3.594517">
        <ele>1427.0</ele>
        <time>2018-07-21T13:46:54Z</time>
      </trkpt>
      <trkpt lat="41.172783" lon="-3.594467">
        <ele>1425.0</ele>
        <time>2018-07-21T13:46:55Z</time>
      </trkpt>
      <trkpt lat="41.172850" lon="-3.594433">
        <ele>1423.0</ele>
        <time>2018-07-21T13:46:56Z</time>
      </trkpt>
      <trkpt lat="41.172917" lon="-3.594400">
        <ele>1419.0</ele>
        <time>2018-07-21T13:46:57Z</time>
      </trkpt>
      <trkpt lat="41.172967" lon="-3.594333">
        <ele>1416.0</ele>
        <time>2018-07-21T13:46:58Z</time>
      </trkpt>
      <trkpt lat="41.173033" lon="-3.594267">
        <ele>1412.0</ele>
        <time>2018-07-21T13:46:59Z</time>
      </trkpt>
      <trkpt lat="41.173100" lon="-3.594183">
        <ele>1410.0</ele>
        <time>2018-07-21T13:47:00Z</time>
      </trkpt>
      <trkpt lat="41.173167" lon="-3.594117">
        <ele>1409.0</ele>
        <time>2018-07-21T13:47:01Z</time>
      </trkpt>
      <trkpt lat="41.173233" lon="-3.594033">
        <ele>1409.0</ele>
        <time>2018-07-21T13:47:02Z</time>
      </trkpt>
      <trkpt lat="41.173283" lon="-3.593967">
        <ele>1407.0</ele>
        <time>2018-07-21T13:47:03Z</time>
      </trkpt>
      <trkpt lat="41.173333" lon="-3.593883">
        <ele>1405.0</ele>
        <time>2018-07-21T13:47:04Z</time>
      </trkpt>
      <trkpt lat="41.173383" lon="-3.593800">
        <ele>1403.0</ele>
        <time>2018-07-21T13:47:05Z</time>
      </trkpt>
      <trkpt lat="41.173433" lon="-3.593733">
        <ele>1401.0</ele>
        <time>2018-07-21T13:47:06Z</time>
      </trkpt>
      <trkpt lat="41.173500" lon="-3.593667">
        <ele>1398.0</ele>
        <time>2018-07-21T13:47:07Z</time>
      </trkpt>
      <trkpt lat="41.173583" lon="-3.593617">
        <ele>1396.0</ele>
        <time>2018-07-21T13:47:08Z</time>
      </trkpt>
      <trkpt lat="41.173667" lon="-3.593567">
        <ele>1394.0</ele>
        <time>2018-07-21T13:47:09Z</time>
      </trkpt>
      <trkpt lat="41.173733" lon="-3.593533">
        <ele>1392.0</ele>
        <time>2018-07-21T13:47:10Z</time>
      </trkpt>
      <trkpt lat="41.173800" lon="-3.593500">
        <ele>1391.0</ele>
        <time>2018-07-21T13:47:11Z</time>
      </trkpt>
      <trkpt lat="41.173867" lon="-3.593450">
        <ele>1389.0</ele>
        <time>2018-07-21T13:47:12Z</time>
      </trkpt>
      <trkpt lat="41.173917" lon="-3.593400">
        <ele>1388.0</ele>
        <time>2018-07-21T13:47:13Z</time>
      </trkpt>
      <trkpt lat="41.173983" lon="-3.593350">
        <ele>1385.0</ele>
        <time>2018-07-21T13:47:14Z</time>
      </trkpt>
      <trkpt lat="41.174033" lon="-3.593283">
        <ele>1383.0</ele>
        <time>2018-07-21T13:47:15Z</time>
      </trkpt>
      <trkpt lat="41.174083" lon="-3.593217">
        <ele>1381.0</ele>
        <time>2018-07-21T13:47:16Z</time>
      </trkpt>
      <trkpt lat="41.174150" lon="-3.593167">
        <ele>1378.0</ele>
        <time>2018-07-21T13:47:17Z</time>
      </trkpt>
      <trkpt lat="41.174200" lon="-3.593100">
        <ele>1376.0</ele>
        <time>2018-07-21T13:47:18Z</time>
      </trkpt>
      <trkpt lat="41.174267" lon="-3.593033">
        <ele>1375.0</ele>
        <time>2018-07-21T13:47:19Z</time>
      </trkpt>
      <trkpt lat="41.174317" lon="-3.592950">
        <ele>1373.0</ele>
        <time>2018-07-21T13:47:20Z</time>
      </trkpt>
      <trkpt lat="41.174383" lon="-3.592883">
        <ele>1373.0</ele>
        <time>2018-07-21T13:47:21Z</time>
      </trkpt>
      <trkpt lat="41.174450" lon="-3.592817">
        <ele>1372.0</ele>
        <time>2018-07-21T13:47:22Z</time>
      </trkpt>
      <trkpt lat="41.174533" lon="-3.592767">
        <ele>1372.0</ele>
        <time>2018-07-21T13:47:23Z</time>
      </trkpt>
      <trkpt lat="41.174600" lon="-3.592683">
        <ele>1372.0</ele>
        <time>2018-07-21T13:47:24Z</time>
      </trkpt>
      <trkpt lat="41.174650" lon="-3.592600">
        <ele>1373.0</ele>
        <time>2018-07-21T13:47:25Z</time>
      </trkpt>
      <trkpt lat="41.174700" lon="-3.592533">
        <ele>1373.0</ele>
        <time>2018-07-21T13:47:26Z</time>
      </trkpt>
      <trkpt lat="41.174750" lon="-3.592467">
        <ele>1373.0</ele>
        <time>2018-07-21T13:47:27Z</time>
      </trkpt>
      <trkpt lat="41.174800" lon="-3.592400">
        <ele>1372.0</ele>
        <time>2018-07-21T13:47:28Z</time>
      </trkpt>
      <trkpt lat="41.174867" lon="-3.592333">
        <ele>1371.0</ele>
        <time>2018-07-21T13:47:29Z</time>
      </trkpt>
      <trkpt lat="41.174933" lon="-3.592233">
        <ele>1370.0</ele>
        <time>2018-07-21T13:47:30Z</time>
      </trkpt>
      <trkpt lat="41.175000" lon="-3.592150">
        <ele>1371.0</ele>
        <time>2018-07-21T13:47:31Z</time>
      </trkpt>
      <trkpt lat="41.175050" lon="-3.592083">
        <ele>1372.0</ele>
        <time>2018-07-21T13:47:32Z</time>
      </trkpt>
      <trkpt lat="41.175100" lon="-3.592017">
        <ele>1372.0</ele>
        <time>2018-07-21T13:47:33Z</time>
      </trkpt>
      <trkpt lat="41.175133" lon="-3.591950">
        <ele>1371.0</ele>
        <time>2018-07-21T13:47:34Z</time>
      </trkpt>
      <trkpt lat="41.175183" lon="-3.591867">
        <ele>1370.0</ele>
        <time>2018-07-21T13:47:35Z</time>
      </trkpt>
      <trkpt lat="41.175250" lon="-3.591783">
        <ele>1369.0</ele>
        <time>2018-07-21T13:47:36Z</time>
      </trkpt>
      <trkpt lat="41.175317" lon="-3.591717">
        <ele>1367.0</ele>
        <time>2018-07-21T13:47:37Z</time>
      </trkpt>
      <trkpt lat="41.175383" lon="-3.591633">
        <ele>1366.0</ele>
        <time>2018-07-21T13:47:38Z</time>
      </trkpt>
      <trkpt lat="41.175467" lon="-3.591567">
        <ele>1367.0</ele>
        <time>2018-07-21T13:47:39Z</time>
      </trkpt>
      <trkpt lat="41.175533" lon="-3.591500">
        <ele>1368.0</ele>
        <time>2018-07-21T13:47:40Z</time>
      </trkpt>
      <trkpt lat="41.175583" lon="-3.591433">
        <ele>1369.0</ele>
        <time>2018-07-21T13:47:41Z</time>
      </trkpt>
      <trkpt lat="41.175650" lon="-3.591367">
        <ele>1370.0</ele>
        <time>2018-07-21T13:47:42Z</time>
      </trkpt>
      <trkpt lat="41.175700" lon="-3.591317">
        <ele>1370.0</ele>
        <time>2018-07-21T13:47:43Z</time>
      </trkpt>
      <trkpt lat="41.175767" lon="-3.591250">
        <ele>1370.0</ele>
        <time>2018-07-21T13:47:44Z</time>
      </trkpt>
      <trkpt lat="41.175817" lon="-3.591183">
        <ele>1371.0</ele>
        <time>2018-07-21T13:47:45Z</time>
      </trkpt>
      <trkpt lat="41.175883" lon="-3.591117">
        <ele>1372.0</ele>
        <time>2018-07-21T13:47:46Z</time>
      </trkpt>
      <trkpt lat="41.175933" lon="-3.591083">
        <ele>1372.0</ele>
        <time>2018-07-21T13:47:47Z</time>
      </trkpt>
      <trkpt lat="41.176000" lon="-3.591067">
        <ele>1373.0</ele>
        <time>2018-07-21T13:47:48Z</time>
      </trkpt>
      <trkpt lat="41.176067" lon="-3.591067">
        <ele>1373.0</ele>
        <time>2018-07-21T13:47:49Z</time>
      </trkpt>
      <trkpt lat="41.176117" lon="-3.591083">
        <ele>1372.0</ele>
        <time>2018-07-21T13:47:50Z</time>
      </trkpt>
      <trkpt lat="41.176183" lon="-3.591117">
        <ele>1372.0</ele>
        <time>2018-07-21T13:47:51Z</time>
      </trkpt>
      <trkpt lat="41.176250" lon="-3.591183">
        <ele>1371.0</ele>
        <time>2018-07-21T13:47:52Z</time>
      </trkpt>
      <trkpt lat="41.176283" lon="-3.591267">
        <ele>1371.0</ele>
        <time>2018-07-21T13:47:53Z</time>
      </trkpt>
      <trkpt lat="41.176317" lon="-3.591383">
        <ele>1371.0</ele>
        <time>2018-07-21T13:47:54Z</time>
      </trkpt>
      <trkpt lat="41.176317" lon="-3.591483">
        <ele>1371.0</ele>
        <time>2018-07-21T13:47:55Z</time>
      </trkpt>
      <trkpt lat="41.176317" lon="-3.591600">
        <ele>1372.0</ele>
        <time>2018-07-21T13:47:56Z</time>
      </trkpt>
      <trkpt lat="41.176300" lon="-3.591700">
        <ele>1373.0</ele>
        <time>2018-07-21T13:47:57Z</time>
      </trkpt>
      <trkpt lat="41.176250" lon="-3.591783">
        <ele>1373.0</ele>
        <time>2018-07-21T13:47:58Z</time>
      </trkpt>
      <trkpt lat="41.176217" lon="-3.591867">
        <ele>1374.0</ele>
        <time>2018-07-21T13:47:59Z</time>
      </trkpt>
      <trkpt lat="41.176150" lon="-3.591950">
        <ele>1374.0</ele>
        <time>2018-07-21T13:48:00Z</time>
      </trkpt>
      <trkpt lat="41.176067" lon="-3.592017">
        <ele>1374.0</ele>
        <time>2018-07-21T13:48:01Z</time>
      </trkpt>
      <trkpt lat="41.175983" lon="-3.592067">
        <ele>1374.0</ele>
        <time>2018-07-21T13:48:02Z</time>
      </trkpt>
      <trkpt lat="41.175883" lon="-3.592117">
        <ele>1374.0</ele>
        <time>2018-07-21T13:48:03Z</time>
      </trkpt>
      <trkpt lat="41.175783" lon="-3.592133">
        <ele>1374.0</ele>
        <time>2018-07-21T13:48:04Z</time>
      </trkpt>
      <trkpt lat="41.175683" lon="-3.592133">
        <ele>1374.0</ele>
        <time>2018-07-21T13:48:05Z</time>
      </trkpt>
      <trkpt lat="41.175567" lon="-3.592100">
        <ele>1373.0</ele>
        <time>2018-07-21T13:48:06Z</time>
      </trkpt>
      <trkpt lat="41.175450" lon="-3.592050">
        <ele>1372.0</ele>
        <time>2018-07-21T13:48:07Z</time>
      </trkpt>
      <trkpt lat="41.175333" lon="-3.591967">
        <ele>1371.0</ele>
        <time>2018-07-21T13:48:08Z</time>
      </trkpt>
      <trkpt lat="41.175217" lon="-3.591867">
        <ele>1371.0</ele>
        <time>2018-07-21T13:48:09Z</time>
      </trkpt>
      <trkpt lat="41.175117" lon="-3.591750">
        <ele>1371.0</ele>
        <time>2018-07-21T13:48:10Z</time>
      </trkpt>
      <trkpt lat="41.175033" lon="-3.591633">
        <ele>1371.0</ele>
        <time>2018-07-21T13:48:11Z</time>
      </trkpt>
      <trkpt lat="41.174983" lon="-3.591483">
        <ele>1371.0</ele>
        <time>2018-07-21T13:48:12Z</time>
      </trkpt>
      <trkpt lat="41.174950" lon="-3.591350">
        <ele>1372.0</ele>
        <time>2018-07-21T13:48:13Z</time>
      </trkpt>
      <trkpt lat="41.174950" lon="-3.591200">
        <ele>1372.0</ele>
        <time>2018-07-21T13:48:14Z</time>
      </trkpt>
      <trkpt lat="41.174967" lon="-3.591067">
        <ele>1372.0</ele>
        <time>2018-07-21T13:48:15Z</time>
      </trkpt>
      <trkpt lat="41.174983" lon="-3.590950">
        <ele>1373.0</ele>
        <time>2018-07-21T13:48:16Z</time>
      </trkpt>
      <trkpt lat="41.174983" lon="-3.590817">
        <ele>1373.0</ele>
        <time>2018-07-21T13:48:17Z</time>
      </trkpt>
      <trkpt lat="41.174983" lon="-3.590700">
        <ele>1373.0</ele>
        <time>2018-07-21T13:48:18Z</time>
      </trkpt>
      <trkpt lat="41.175000" lon="-3.590583">
        <ele>1373.0</ele>
        <time>2018-07-21T13:48:19Z</time>
      </trkpt>
      <trkpt lat="41.175017" lon="-3.590500">
        <ele>1372.0</ele>
        <time>2018-07-21T13:48:20Z</time>
      </trkpt>
      <trkpt lat="41.175067" lon="-3.590417">
        <ele>1370.0</ele>
        <time>2018-07-21T13:48:21Z</time>
      </trkpt>
      <trkpt lat="41.175117" lon="-3.590333">
        <ele>1368.0</ele>
        <time>2018-07-21T13:48:22Z</time>
      </trkpt>
      <trkpt lat="41.175183" lon="-3.590267">
        <ele>1366.0</ele>
        <time>2018-07-21T13:48:23Z</time>
      </trkpt>
      <trkpt lat="41.175250" lon="-3.590217">
        <ele>1366.0</ele>
        <time>2018-07-21T13:48:24Z</time>
      </trkpt>
      <trkpt lat="41.175317" lon="-3.590150">
        <ele>1366.0</ele>
        <time>2018-07-21T13:48:25Z</time>
      </trkpt>
      <trkpt lat="41.175367" lon="-3.590117">
        <ele>1366.0</ele>
        <time>2018-07-21T13:48:26Z</time>
      </trkpt>
      <trkpt lat="41.175433" lon="-3.590067">
        <ele>1364.0</ele>
        <time>2018-07-21T13:48:27Z</time>
      </trkpt>
      <trkpt lat="41.175500" lon="-3.590033">
        <ele>1362.0</ele>
        <time>2018-07-21T13:48:28Z</time>
      </trkpt>
      <trkpt lat="41.175567" lon="-3.589983">
        <ele>1359.0</ele>
        <time>2018-07-21T13:48:29Z</time>
      </trkpt>
      <trkpt lat="41.175650" lon="-3.589917">
        <ele>1357.0</ele>
        <time>2018-07-21T13:48:30Z</time>
      </trkpt>
      <trkpt lat="41.175733" lon="-3.589867">
        <ele>1356.0</ele>
        <time>2018-07-21T13:48:31Z</time>
      </trkpt>
      <trkpt lat="41.175800" lon="-3.589817">
        <ele>1355.0</ele>
        <time>2018-07-21T13:48:32Z</time>
      </trkpt>
      <trkpt lat="41.175867" lon="-3.589767">
        <ele>1355.0</ele>
        <time>2018-07-21T13:48:33Z</time>
      </trkpt>
      <trkpt lat="41.175950" lon="-3.589717">
        <ele>1354.0</ele>
        <time>2018-07-21T13:48:34Z</time>
      </trkpt>
      <trkpt lat="41.176017" lon="-3.589667">
        <ele>1354.0</ele>
        <time>2018-07-21T13:48:35Z</time>
      </trkpt>
      <trkpt lat="41.176083" lon="-3.589600">
        <ele>1353.0</ele>
        <time>2018-07-21T13:48:36Z</time>
      </trkpt>
      <trkpt lat="41.176150" lon="-3.589533">
        <ele>1353.0</ele>
        <time>2018-07-21T13:48:37Z</time>
      </trkpt>
      <trkpt lat="41.176200" lon="-3.589467">
        <ele>1352.0</ele>
        <time>2018-07-21T13:48:38Z</time>
      </trkpt>
      <trkpt lat="41.176250" lon="-3.589400">
        <ele>1350.0</ele>
        <time>2018-07-21T13:48:39Z</time>
      </trkpt>
      <trkpt lat="41.176300" lon="-3.589300">
        <ele>1348.0</ele>
        <time>2018-07-21T13:48:40Z</time>
      </trkpt>
      <trkpt lat="41.176367" lon="-3.589217">
        <ele>1347.0</ele>
        <time>2018-07-21T13:48:41Z</time>
      </trkpt>
      <trkpt lat="41.176417" lon="-3.589117">
        <ele>1346.0</ele>
        <time>2018-07-21T13:48:42Z</time>
      </trkpt>
      <trkpt lat="41.176467" lon="-3.589033">
        <ele>1347.0</ele>
        <time>2018-07-21T13:48:43Z</time>
      </trkpt>
      <trkpt lat="41.176517" lon="-3.588950">
        <ele>1346.0</ele>
        <time>2018-07-21T13:48:44Z</time>
      </trkpt>
      <trkpt lat="41.176567" lon="-3.588883">
        <ele>1345.0</ele>
        <time>2018-07-21T13:48:45Z</time>
      </trkpt>
      <trkpt lat="41.176617" lon="-3.588800">
        <ele>1344.0</ele>
        <time>2018-07-21T13:48:46Z</time>
      </trkpt>
      <trkpt lat="41.176683" lon="-3.588717">
        <ele>1342.0</ele>
        <time>2018-07-21T13:48:47Z</time>
      </trkpt>
      <trkpt lat="41.176750" lon="-3.588617">
        <ele>1341.0</ele>
        <time>2018-07-21T13:48:48Z</time>
      </trkpt>
      <trkpt lat="41.176800" lon="-3.588517">
        <ele>1341.0</ele>
        <time>2018-07-21T13:48:49Z</time>
      </trkpt>
      <trkpt lat="41.176833" lon="-3.588433">
        <ele>1341.0</ele>
        <time>2018-07-21T13:48:50Z</time>
      </trkpt>
      <trkpt lat="41.176867" lon="-3.588350">
        <ele>1341.0</ele>
        <time>2018-07-21T13:48:51Z</time>
      </trkpt>
      <trkpt lat="41.176900" lon="-3.588250">
        <ele>1340.0</ele>
        <time>2018-07-21T13:48:52Z</time>
      </trkpt>
      <trkpt lat="41.176950" lon="-3.588167">
        <ele>1338.0</ele>
        <time>2018-07-21T13:48:53Z</time>
      </trkpt>
      <trkpt lat="41.177017" lon="-3.588083">
        <ele>1337.0</ele>
        <time>2018-07-21T13:48:54Z</time>
      </trkpt>
      <trkpt lat="41.177067" lon="-3.588033">
        <ele>1336.0</ele>
        <time>2018-07-21T13:48:55Z</time>
      </trkpt>
      <trkpt lat="41.177117" lon="-3.587967">
        <ele>1336.0</ele>
        <time>2018-07-21T13:48:56Z</time>
      </trkpt>
      <trkpt lat="41.177167" lon="-3.587900">
        <ele>1335.0</ele>
        <time>2018-07-21T13:48:57Z</time>
      </trkpt>
      <trkpt lat="41.177200" lon="-3.587833">
        <ele>1334.0</ele>
        <time>2018-07-21T13:48:58Z</time>
      </trkpt>
      <trkpt lat="41.177267" lon="-3.587767">
        <ele>1332.0</ele>
        <time>2018-07-21T13:48:59Z</time>
      </trkpt>
      <trkpt lat="41.177317" lon="-3.587717">
        <ele>1330.0</ele>
        <time>2018-07-21T13:49:00Z</time>
      </trkpt>
      <trkpt lat="41.177383" lon="-3.587650">
        <ele>1330.0</ele>
        <time>2018-07-21T13:49:01Z</time>
      </trkpt>
      <trkpt lat="41.177433" lon="-3.587600">
        <ele>1331.0</ele>
        <time>2018-07-21T13:49:02Z</time>
      </trkpt>
      <trkpt lat="41.177483" lon="-3.587550">
        <ele>1331.0</ele>
        <time>2018-07-21T13:49:03Z</time>
      </trkpt>
      <trkpt lat="41.177533" lon="-3.587483">
        <ele>1332.0</ele>
        <time>2018-07-21T13:49:04Z</time>
      </trkpt>
      <trkpt lat="41.177567" lon="-3.587417">
        <ele>1331.0</ele>
        <time>2018-07-21T13:49:05Z</time>
      </trkpt>
      <trkpt lat="41.177617" lon="-3.587350">
        <ele>1331.0</ele>
        <time>2018-07-21T13:49:06Z</time>
      </trkpt>
      <trkpt lat="41.177667" lon="-3.587267">
        <ele>1330.0</ele>
        <time>2018-07-21T13:49:07Z</time>
      </trkpt>
      <trkpt lat="41.177733" lon="-3.587183">
        <ele>1330.0</ele>
        <time>2018-07-21T13:49:08Z</time>
      </trkpt>
      <trkpt lat="41.177783" lon="-3.587117">
        <ele>1331.0</ele>
        <time>2018-07-21T13:49:09Z</time>
      </trkpt>
      <trkpt lat="41.177850" lon="-3.587050">
        <ele>1331.0</ele>
        <time>2018-07-21T13:49:10Z</time>
      </trkpt>
      <trkpt lat="41.177900" lon="-3.587000">
        <ele>1332.0</ele>
        <time>2018-07-21T13:49:11Z</time>
      </trkpt>
      <trkpt lat="41.177967" lon="-3.586950">
        <ele>1332.0</ele>
        <time>2018-07-21T13:49:12Z</time>
      </trkpt>
      <trkpt lat="41.178033" lon="-3.586917">
        <ele>1332.0</ele>
        <time>2018-07-21T13:49:13Z</time>
      </trkpt>
      <trkpt lat="41.178083" lon="-3.586867">
        <ele>1332.0</ele>
        <time>2018-07-21T13:49:14Z</time>
      </trkpt>
      <trkpt lat="41.178167" lon="-3.586800">
        <ele>1331.0</ele>
        <time>2018-07-21T13:49:15Z</time>
      </trkpt>
      <trkpt lat="41.178233" lon="-3.586750">
        <ele>1332.0</ele>
        <time>2018-07-21T13:49:16Z</time>
      </trkpt>
      <trkpt lat="41.178300" lon="-3.586700">
        <ele>1332.0</ele>
        <time>2018-07-21T13:49:17Z</time>
      </trkpt>
      <trkpt lat="41.178383" lon="-3.586633">
        <ele>1332.0</ele>
        <time>2018-07-21T13:49:18Z</time>
      </trkpt>
      <trkpt lat="41.178450" lon="-3.586567">
        <ele>1332.0</ele>
        <time>2018-07-21T13:49:19Z</time>
      </trkpt>
      <trkpt lat="41.178517" lon="-3.586517">
        <ele>1333.0</ele>
        <time>2018-07-21T13:49:20Z</time>
      </trkpt>
      <trkpt lat="41.178583" lon="-3.586450">
        <ele>1333.0</ele>
        <time>2018-07-21T13:49:21Z</time>
      </trkpt>
      <trkpt lat="41.178650" lon="-3.586383">
        <ele>1332.0</ele>
        <time>2018-07-21T13:49:22Z</time>
      </trkpt>
      <trkpt lat="41.178717" lon="-3.586300">
        <ele>1330.0</ele>
        <time>2018-07-21T13:49:23Z</time>
      </trkpt>
      <trkpt lat="41.178783" lon="-3.586217">
        <ele>1329.0</ele>
        <time>2018-07-21T13:49:24Z</time>
      </trkpt>
      <trkpt lat="41.178850" lon="-3.586133">
        <ele>1329.0</ele>
        <time>2018-07-21T13:49:25Z</time>
      </trkpt>
      <trkpt lat="41.178917" lon="-3.586067">
        <ele>1329.0</ele>
        <time>2018-07-21T13:49:26Z</time>
      </trkpt>
      <trkpt lat="41.178967" lon="-3.585983">
        <ele>1331.0</ele>
        <time>2018-07-21T13:49:27Z</time>
      </trkpt>
      <trkpt lat="41.179000" lon="-3.585883">
        <ele>1333.0</ele>
        <time>2018-07-21T13:49:28Z</time>
      </trkpt>
      <trkpt lat="41.179033" lon="-3.585783">
        <ele>1335.0</ele>
        <time>2018-07-21T13:49:29Z</time>
      </trkpt>
      <trkpt lat="41.179033" lon="-3.585700">
        <ele>1338.0</ele>
        <time>2018-07-21T13:49:30Z</time>
      </trkpt>
      <trkpt lat="41.179050" lon="-3.585617">
        <ele>1341.0</ele>
        <time>2018-07-21T13:49:31Z</time>
      </trkpt>
      <trkpt lat="41.179033" lon="-3.585517">
        <ele>1342.0</ele>
        <time>2018-07-21T13:49:32Z</time>
      </trkpt>
      <trkpt lat="41.179000" lon="-3.585400">
        <ele>1342.0</ele>
        <time>2018-07-21T13:49:33Z</time>
      </trkpt>
      <trkpt lat="41.178933" lon="-3.585283">
        <ele>1342.0</ele>
        <time>2018-07-21T13:49:34Z</time>
      </trkpt>
      <trkpt lat="41.178867" lon="-3.585167">
        <ele>1342.0</ele>
        <time>2018-07-21T13:49:35Z</time>
      </trkpt>
      <trkpt lat="41.178750" lon="-3.585067">
        <ele>1342.0</ele>
        <time>2018-07-21T13:49:36Z</time>
      </trkpt>
      <trkpt lat="41.178633" lon="-3.584983">
        <ele>1342.0</ele>
        <time>2018-07-21T13:49:37Z</time>
      </trkpt>
      <trkpt lat="41.178500" lon="-3.584933">
        <ele>1343.0</ele>
        <time>2018-07-21T13:49:38Z</time>
      </trkpt>
      <trkpt lat="41.178367" lon="-3.584933">
        <ele>1344.0</ele>
        <time>2018-07-21T13:49:39Z</time>
      </trkpt>
      <trkpt lat="41.178250" lon="-3.584967">
        <ele>1345.0</ele>
        <time>2018-07-21T13:49:40Z</time>
      </trkpt>
      <trkpt lat="41.178133" lon="-3.585050">
        <ele>1345.0</ele>
        <time>2018-07-21T13:49:41Z</time>
      </trkpt>
      <trkpt lat="41.178067" lon="-3.585150">
        <ele>1344.0</ele>
        <time>2018-07-21T13:49:42Z</time>
      </trkpt>
      <trkpt lat="41.178017" lon="-3.585250">
        <ele>1343.0</ele>
        <time>2018-07-21T13:49:43Z</time>
      </trkpt>
      <trkpt lat="41.178000" lon="-3.585367">
        <ele>1343.0</ele>
        <time>2018-07-21T13:49:44Z</time>
      </trkpt>
      <trkpt lat="41.178017" lon="-3.585467">
        <ele>1343.0</ele>
        <time>2018-07-21T13:49:45Z</time>
      </trkpt>
      <trkpt lat="41.178050" lon="-3.585533">
        <ele>1342.0</ele>
        <time>2018-07-21T13:49:46Z</time>
      </trkpt>
      <trkpt lat="41.178100" lon="-3.585583">
        <ele>1340.0</ele>
        <time>2018-07-21T13:49:47Z</time>
      </trkpt>
      <trkpt lat="41.178167" lon="-3.585617">
        <ele>1338.0</ele>
        <time>2018-07-21T13:49:48Z</time>
      </trkpt>
      <trkpt lat="41.178250" lon="-3.585633">
        <ele>1336.0</ele>
        <time>2018-07-21T13:49:49Z</time>
      </trkpt>
      <trkpt lat="41.178350" lon="-3.585583">
        <ele>1335.0</ele>
        <time>2018-07-21T13:49:50Z</time>
      </trkpt>
      <trkpt lat="41.178433" lon="-3.585500">
        <ele>1335.0</ele>
        <time>2018-07-21T13:49:51Z</time>
      </trkpt>
      <trkpt lat="41.178500" lon="-3.585383">
        <ele>1337.0</ele>
        <time>2018-07-21T13:49:52Z</time>
      </trkpt>
      <trkpt lat="41.178533" lon="-3.585267">
        <ele>1341.0</ele>
        <time>2018-07-21T13:49:53Z</time>
      </trkpt>
      <trkpt lat="41.178550" lon="-3.585167">
        <ele>1346.0</ele>
        <time>2018-07-21T13:49:54Z</time>
      </trkpt>
      <trkpt lat="41.178550" lon="-3.585083">
        <ele>1349.0</ele>
        <time>2018-07-21T13:49:55Z</time>
      </trkpt>
      <trkpt lat="41.178533" lon="-3.585000">
        <ele>1350.0</ele>
        <time>2018-07-21T13:49:56Z</time>
      </trkpt>
      <trkpt lat="41.178500" lon="-3.584917">
        <ele>1349.0</ele>
        <time>2018-07-21T13:49:57Z</time>
      </trkpt>
      <trkpt lat="41.178500" lon="-3.584800">
        <ele>1348.0</ele>
        <time>2018-07-21T13:49:58Z</time>
      </trkpt>
      <trkpt lat="41.178500" lon="-3.584667">
        <ele>1347.0</ele>
        <time>2018-07-21T13:49:59Z</time>
      </trkpt>
      <trkpt lat="41.178517" lon="-3.584533">
        <ele>1346.0</ele>
        <time>2018-07-21T13:50:00Z</time>
      </trkpt>
      <trkpt lat="41.178550" lon="-3.584417">
        <ele>1348.0</ele>
        <time>2018-07-21T13:50:01Z</time>
      </trkpt>
      <trkpt lat="41.178567" lon="-3.584300">
        <ele>1351.0</ele>
        <time>2018-07-21T13:50:02Z</time>
      </trkpt>
      <trkpt lat="41.178567" lon="-3.584200">
        <ele>1353.0</ele>
        <time>2018-07-21T13:50:03Z</time>
      </trkpt>
      <trkpt lat="41.178567" lon="-3.584100">
        <ele>1354.0</ele>
        <time>2018-07-21T13:50:04Z</time>
      </trkpt>
      <trkpt lat="41.178567" lon="-3.584017">
        <ele>1353.0</ele>
        <time>2018-07-21T13:50:05Z</time>
      </trkpt>
      <trkpt lat="41.178600" lon="-3.583933">
        <ele>1351.0</ele>
        <time>2018-07-21T13:50:06Z</time>
      </trkpt>
      <trkpt lat="41.178633" lon="-3.583867">
        <ele>1350.0</ele>
        <time>2018-07-21T13:50:07Z</time>
      </trkpt>
      <trkpt lat="41.178683" lon="-3.583833">
        <ele>1348.0</ele>
        <time>2018-07-21T13:50:08Z</time>
      </trkpt>
      <trkpt lat="41.178733" lon="-3.583850">
        <ele>1348.0</ele>
        <time>2018-07-21T13:50:09Z</time>
      </trkpt>
      <trkpt lat="41.178767" lon="-3.583883">
        <ele>1347.0</ele>
        <time>2018-07-21T13:50:10Z</time>
      </trkpt>
      <trkpt lat="41.178800" lon="-3.583933">
        <ele>1347.0</ele>
        <time>2018-07-21T13:50:11Z</time>
      </trkpt>
      <trkpt lat="41.178850" lon="-3.583950">
        <ele>1347.0</ele>
        <time>2018-07-21T13:50:12Z</time>
      </trkpt>
      <trkpt lat="41.178883" lon="-3.583950">
        <ele>1346.0</ele>
        <time>2018-07-21T13:50:13Z</time>
      </trkpt>
      <trkpt lat="41.178933" lon="-3.583933">
        <ele>1346.0</ele>
        <time>2018-07-21T13:50:14Z</time>
      </trkpt>
      <trkpt lat="41.178967" lon="-3.583900">
        <ele>1346.0</ele>
        <time>2018-07-21T13:50:15Z</time>
      </trkpt>
      <trkpt lat="41.179017" lon="-3.583867">
        <ele>1345.0</ele>
        <time>2018-07-21T13:50:16Z</time>
      </trkpt>
      <trkpt lat="41.179067" lon="-3.583833">
        <ele>1344.0</ele>
        <time>2018-07-21T13:50:17Z</time>
      </trkpt>
      <trkpt lat="41.179117" lon="-3.583817">
        <ele>1344.0</ele>
        <time>2018-07-21T13:50:18Z</time>
      </trkpt>
      <trkpt lat="41.179167" lon="-3.583800">
        <ele>1343.0</ele>
        <time>2018-07-21T13:50:19Z</time>
      </trkpt>
      <trkpt lat="41.179217" lon="-3.583800">
        <ele>1341.0</ele>
        <time>2018-07-21T13:50:20Z</time>
      </trkpt>
      <trkpt lat="41.179250" lon="-3.583800">
        <ele>1340.0</ele>
        <time>2018-07-21T13:50:21Z</time>
      </trkpt>
      <trkpt lat="41.179300" lon="-3.583833">
        <ele>1339.0</ele>
        <time>2018-07-21T13:50:22Z</time>
      </trkpt>
      <trkpt lat="41.179333" lon="-3.583867">
        <ele>1339.0</ele>
        <time>2018-07-21T13:50:23Z</time>
      </trkpt>
      <trkpt lat="41.179367" lon="-3.583900">
        <ele>1340.0</ele>
        <time>2018-07-21T13:50:24Z</time>
      </trkpt>
      <trkpt lat="41.179383" lon="-3.583917">
        <ele>1339.0</ele>
        <time>2018-07-21T13:50:25Z</time>
      </trkpt>
      <trkpt lat="41.179417" lon="-3.583950">
        <ele>1338.0</ele>
        <time>2018-07-21T13:50:26Z</time>
      </trkpt>
      <trkpt lat="41.179467" lon="-3.583950">
        <ele>1336.0</ele>
        <time>2018-07-21T13:50:27Z</time>
      </trkpt>
      <trkpt lat="41.179533" lon="-3.583950">
        <ele>1334.0</ele>
        <time>2018-07-21T13:50:28Z</time>
      </trkpt>
      <trkpt lat="41.179617" lon="-3.583950">
        <ele>1332.0</ele>
        <time>2018-07-21T13:50:29Z</time>
      </trkpt>
      <trkpt lat="41.179700" lon="-3.583917">
        <ele>1332.0</ele>
        <time>2018-07-21T13:50:30Z</time>
      </trkpt>
      <trkpt lat="41.179767" lon="-3.583883">
        <ele>1334.0</ele>
        <time>2018-07-21T13:50:31Z</time>
      </trkpt>
      <trkpt lat="41.179800" lon="-3.583850">
        <ele>1337.0</ele>
        <time>2018-07-21T13:50:32Z</time>
      </trkpt>
      <trkpt lat="41.179817" lon="-3.583817">
        <ele>1338.0</ele>
        <time>2018-07-21T13:50:33Z</time>
      </trkpt>
      <trkpt lat="41.179850" lon="-3.583783">
        <ele>1337.0</ele>
        <time>2018-07-21T13:50:34Z</time>
      </trkpt>
      <trkpt lat="41.179883" lon="-3.583800">
        <ele>1335.0</ele>
        <time>2018-07-21T13:50:35Z</time>
      </trkpt>
      <trkpt lat="41.179933" lon="-3.583817">
        <ele>1332.0</ele>
        <time>2018-07-21T13:50:36Z</time>
      </trkpt>
      <trkpt lat="41.180000" lon="-3.583833">
        <ele>1331.0</ele>
        <time>2018-07-21T13:50:37Z</time>
      </trkpt>
      <trkpt lat="41.180067" lon="-3.583833">
        <ele>1331.0</ele>
        <time>2018-07-21T13:50:38Z</time>
      </trkpt>
      <trkpt lat="41.180117" lon="-3.583817">
        <ele>1333.0</ele>
        <time>2018-07-21T13:50:39Z</time>
      </trkpt>
      <trkpt lat="41.180167" lon="-3.583800">
        <ele>1336.0</ele>
        <time>2018-07-21T13:50:40Z</time>
      </trkpt>
      <trkpt lat="41.180200" lon="-3.583783">
        <ele>1337.0</ele>
        <time>2018-07-21T13:50:41Z</time>
      </trkpt>
      <trkpt lat="41.180233" lon="-3.583800">
        <ele>1336.0</ele>
        <time>2018-07-21T13:50:42Z</time>
      </trkpt>
      <trkpt lat="41.180267" lon="-3.583800">
        <ele>1336.0</ele>
        <time>2018-07-21T13:50:43Z</time>
      </trkpt>
      <trkpt lat="41.180333" lon="-3.583783">
        <ele>1335.0</ele>
        <time>2018-07-21T13:50:44Z</time>
      </trkpt>
      <trkpt lat="41.180400" lon="-3.583750">
        <ele>1334.0</ele>
        <time>2018-07-21T13:50:45Z</time>
      </trkpt>
      <trkpt lat="41.180450" lon="-3.583683">
        <ele>1334.0</ele>
        <time>2018-07-21T13:50:46Z</time>
      </trkpt>
      <trkpt lat="41.180517" lon="-3.583617">
        <ele>1334.0</ele>
        <time>2018-07-21T13:50:47Z</time>
      </trkpt>
      <trkpt lat="41.180567" lon="-3.583533">
        <ele>1334.0</ele>
        <time>2018-07-21T13:50:48Z</time>
      </trkpt>
      <trkpt lat="41.180617" lon="-3.583467">
        <ele>1334.0</ele>
        <time>2018-07-21T13:50:49Z</time>
      </trkpt>
      <trkpt lat="41.180667" lon="-3.583367">
        <ele>1333.0</ele>
        <time>2018-07-21T13:50:50Z</time>
      </trkpt>
      <trkpt lat="41.180733" lon="-3.583283">
        <ele>1333.0</ele>
        <time>2018-07-21T13:50:51Z</time>
      </trkpt>
      <trkpt lat="41.180783" lon="-3.583183">
        <ele>1333.0</ele>
        <time>2018-07-21T13:50:52Z</time>
      </trkpt>
      <trkpt lat="41.180833" lon="-3.583083">
        <ele>1333.0</ele>
        <time>2018-07-21T13:50:53Z</time>
      </trkpt>
      <trkpt lat="41.180900" lon="-3.583017">
        <ele>1334.0</ele>
        <time>2018-07-21T13:50:54Z</time>
      </trkpt>
      <trkpt lat="41.180950" lon="-3.582950">
        <ele>1334.0</ele>
        <time>2018-07-21T13:50:55Z</time>
      </trkpt>
      <trkpt lat="41.181017" lon="-3.582883">
        <ele>1334.0</ele>
        <time>2018-07-21T13:50:56Z</time>
      </trkpt>
      <trkpt lat="41.181067" lon="-3.582817">
        <ele>1334.0</ele>
        <time>2018-07-21T13:50:57Z</time>
      </trkpt>
      <trkpt lat="41.181117" lon="-3.582750">
        <ele>1333.0</ele>
        <time>2018-07-21T13:50:58Z</time>
      </trkpt>
      <trkpt lat="41.181167" lon="-3.582683">
        <ele>1332.0</ele>
        <time>2018-07-21T13:50:59Z</time>
      </trkpt>
      <trkpt lat="41.181233" lon="-3.582600">
        <ele>1331.0</ele>
        <time>2018-07-21T13:51:00Z</time>
      </trkpt>
      <trkpt lat="41.181283" lon="-3.582533">
        <ele>1330.0</ele>
        <time>2018-07-21T13:51:01Z</time>
      </trkpt>
      <trkpt lat="41.181350" lon="-3.582483">
        <ele>1329.0</ele>
        <time>2018-07-21T13:51:02Z</time>
      </trkpt>
      <trkpt lat="41.181417" lon="-3.582450">
        <ele>1328.0</ele>
        <time>2018-07-21T13:51:03Z</time>
      </trkpt>
      <trkpt lat="41.181483" lon="-3.582417">
        <ele>1326.0</ele>
        <time>2018-07-21T13:51:04Z</time>
      </trkpt>
      <trkpt lat="41.181550" lon="-3.582383">
        <ele>1326.0</ele>
        <time>2018-07-21T13:51:05Z</time>
      </trkpt>
      <trkpt lat="41.181600" lon="-3.582350">
        <ele>1325.0</ele>
        <time>2018-07-21T13:51:06Z</time>
      </trkpt>
      <trkpt lat="41.181667" lon="-3.582283">
        <ele>1324.0</ele>
        <time>2018-07-21T13:51:07Z</time>
      </trkpt>
      <trkpt lat="41.181733" lon="-3.582233">
        <ele>1322.0</ele>
        <time>2018-07-21T13:51:08Z</time>
      </trkpt>
      <trkpt lat="41.181800" lon="-3.582200">
        <ele>1320.0</ele>
        <time>2018-07-21T13:51:09Z</time>
      </trkpt>
      <trkpt lat="41.181867" lon="-3.582183">
        <ele>1318.0</ele>
        <time>2018-07-21T13:51:10Z</time>
      </trkpt>
      <trkpt lat="41.181950" lon="-3.582167">
        <ele>1316.0</ele>
        <time>2018-07-21T13:51:11Z</time>
      </trkpt>
      <trkpt lat="41.182033" lon="-3.582133">
        <ele>1315.0</ele>
        <time>2018-07-21T13:51:12Z</time>
      </trkpt>
      <trkpt lat="41.182117" lon="-3.582083">
        <ele>1315.0</ele>
        <time>2018-07-21T13:51:13Z</time>
      </trkpt>
      <trkpt lat="41.182183" lon="-3.582033">
        <ele>1314.0</ele>
        <time>2018-07-21T13:51:14Z</time>
      </trkpt>
      <trkpt lat="41.182250" lon="-3.581983">
        <ele>1313.0</ele>
        <time>2018-07-21T13:51:15Z</time>
      </trkpt>
      <trkpt lat="41.182317" lon="-3.581950">
        <ele>1311.0</ele>
        <time>2018-07-21T13:51:16Z</time>
      </trkpt>
      <trkpt lat="41.182383" lon="-3.581900">
        <ele>1310.0</ele>
        <time>2018-07-21T13:51:17Z</time>
      </trkpt>
      <trkpt lat="41.182467" lon="-3.581850">
        <ele>1308.0</ele>
        <time>2018-07-21T13:51:18Z</time>
      </trkpt>
      <trkpt lat="41.182533" lon="-3.581783">
        <ele>1307.0</ele>
        <time>2018-07-21T13:51:19Z</time>
      </trkpt>
      <trkpt lat="41.182600" lon="-3.581700">
        <ele>1306.0</ele>
        <time>2018-07-21T13:51:20Z</time>
      </trkpt>
      <trkpt lat="41.182667" lon="-3.581633">
        <ele>1305.0</ele>
        <time>2018-07-21T13:51:21Z</time>
      </trkpt>
      <trkpt lat="41.182733" lon="-3.581550">
        <ele>1303.0</ele>
        <time>2018-07-21T13:51:22Z</time>
      </trkpt>
      <trkpt lat="41.182800" lon="-3.581483">
        <ele>1302.0</ele>
        <time>2018-07-21T13:51:23Z</time>
      </trkpt>
      <trkpt lat="41.182867" lon="-3.581417">
        <ele>1300.0</ele>
        <time>2018-07-21T13:51:24Z</time>
      </trkpt>
      <trkpt lat="41.182950" lon="-3.581350">
        <ele>1299.0</ele>
        <time>2018-07-21T13:51:25Z</time>
      </trkpt>
      <trkpt lat="41.183017" lon="-3.581300">
        <ele>1299.0</ele>
        <time>2018-07-21T13:51:26Z</time>
      </trkpt>
      <trkpt lat="41.183100" lon="-3.581250">
        <ele>1299.0</ele>
        <time>2018-07-21T13:51:27Z</time>
      </trkpt>
      <trkpt lat="41.183183" lon="-3.581167">
        <ele>1299.0</ele>
        <time>2018-07-21T13:51:28Z</time>
      </trkpt>
      <trkpt lat="41.183250" lon="-3.581100">
        <ele>1299.0</ele>
        <time>2018-07-21T13:51:29Z</time>
      </trkpt>
      <trkpt lat="41.183333" lon="-3.581033">
        <ele>1298.0</ele>
        <time>2018-07-21T13:51:30Z</time>
      </trkpt>
      <trkpt lat="41.183400" lon="-3.580967">
        <ele>1298.0</ele>
        <time>2018-07-21T13:51:31Z</time>
      </trkpt>
      <trkpt lat="41.183467" lon="-3.580917">
        <ele>1297.0</ele>
        <time>2018-07-21T13:51:32Z</time>
      </trkpt>
      <trkpt lat="41.183533" lon="-3.580867">
        <ele>1297.0</ele>
        <time>2018-07-21T13:51:33Z</time>
      </trkpt>
      <trkpt lat="41.183600" lon="-3.580800">
        <ele>1296.0</ele>
        <time>2018-07-21T13:51:34Z</time>
      </trkpt>
      <trkpt lat="41.183667" lon="-3.580733">
        <ele>1296.0</ele>
        <time>2018-07-21T13:51:35Z</time>
      </trkpt>
      <trkpt lat="41.183733" lon="-3.580667">
        <ele>1297.0</ele>
        <time>2018-07-21T13:51:36Z</time>
      </trkpt>
      <trkpt lat="41.183783" lon="-3.580600">
        <ele>1298.0</ele>
        <time>2018-07-21T13:51:37Z</time>
      </trkpt>
      <trkpt lat="41.183833" lon="-3.580517">
        <ele>1299.0</ele>
        <time>2018-07-21T13:51:38Z</time>
      </trkpt>
      <trkpt lat="41.183883" lon="-3.580433">
        <ele>1299.0</ele>
        <time>2018-07-21T13:51:39Z</time>
      </trkpt>
      <trkpt lat="41.183933" lon="-3.580350">
        <ele>1300.0</ele>
        <time>2018-07-21T13:51:40Z</time>
      </trkpt>
      <trkpt lat="41.184000" lon="-3.580300">
        <ele>1300.0</ele>
        <time>2018-07-21T13:51:41Z</time>
      </trkpt>
      <trkpt lat="41.184067" lon="-3.580250">
        <ele>1300.0</ele>
        <time>2018-07-21T13:51:42Z</time>
      </trkpt>
      <trkpt lat="41.184133" lon="-3.580233">
        <ele>1300.0</ele>
        <time>2018-07-21T13:51:43Z</time>
      </trkpt>
      <trkpt lat="41.184217" lon="-3.580217">
        <ele>1299.0</ele>
        <time>2018-07-21T13:51:44Z</time>
      </trkpt>
      <trkpt lat="41.184283" lon="-3.580200">
        <ele>1299.0</ele>
        <time>2018-07-21T13:51:45Z</time>
      </trkpt>
      <trkpt lat="41.184350" lon="-3.580183">
        <ele>1298.0</ele>
        <time>2018-07-21T13:51:46Z</time>
      </trkpt>
      <trkpt lat="41.184417" lon="-3.580167">
        <ele>1296.0</ele>
        <time>2018-07-21T13:51:47Z</time>
      </trkpt>
      <trkpt lat="41.184483" lon="-3.580133">
        <ele>1294.0</ele>
        <time>2018-07-21T13:51:48Z</time>
      </trkpt>
      <trkpt lat="41.184550" lon="-3.580117">
        <ele>1292.0</ele>
        <time>2018-07-21T13:51:49Z</time>
      </trkpt>
      <trkpt lat="41.184633" lon="-3.580083">
        <ele>1291.0</ele>
        <time>2018-07-21T13:51:50Z</time>
      </trkpt>
      <trkpt lat="41.184700" lon="-3.580033">
        <ele>1290.0</ele>
        <time>2018-07-21T13:51:51Z</time>
      </trkpt>
      <trkpt lat="41.184767" lon="-3.580000">
        <ele>1289.0</ele>
        <time>2018-07-21T13:51:52Z</time>
      </trkpt>
      <trkpt lat="41.184817" lon="-3.579967">
        <ele>1289.0</ele>
        <time>2018-07-21T13:51:53Z</time>
      </trkpt>
      <trkpt lat="41.184883" lon="-3.579917">
        <ele>1288.0</ele>
        <time>2018-07-21T13:51:54Z</time>
      </trkpt>
      <trkpt lat="41.184967" lon="-3.579867">
        <ele>1287.0</ele>
        <time>2018-07-21T13:51:55Z</time>
      </trkpt>
      <trkpt lat="41.185033" lon="-3.579817">
        <ele>1286.0</ele>
        <time>2018-07-21T13:51:56Z</time>
      </trkpt>
      <trkpt lat="41.185100" lon="-3.579767">
        <ele>1286.0</ele>
        <time>2018-07-21T13:51:57Z</time>
      </trkpt>
      <trkpt lat="41.185167" lon="-3.579683">
        <ele>1286.0</ele>
        <time>2018-07-21T13:51:58Z</time>
      </trkpt>
      <trkpt lat="41.185217" lon="-3.579617">
        <ele>1287.0</ele>
        <time>2018-07-21T13:51:59Z</time>
      </trkpt>
      <trkpt lat="41.185283" lon="-3.579533">
        <ele>1287.0</ele>
        <time>2018-07-21T13:52:00Z</time>
      </trkpt>
      <trkpt lat="41.185333" lon="-3.579467">
        <ele>1287.0</ele>
        <time>2018-07-21T13:52:01Z</time>
      </trkpt>
      <trkpt lat="41.185400" lon="-3.579400">
        <ele>1287.0</ele>
        <time>2018-07-21T13:52:02Z</time>
      </trkpt>
      <trkpt lat="41.185483" lon="-3.579333">
        <ele>1286.0</ele>
        <time>2018-07-21T13:52:03Z</time>
      </trkpt>
      <trkpt lat="41.185550" lon="-3.579283">
        <ele>1286.0</ele>
        <time>2018-07-21T13:52:04Z</time>
      </trkpt>
      <trkpt lat="41.185617" lon="-3.579233">
        <ele>1286.0</ele>
        <time>2018-07-21T13:52:05Z</time>
      </trkpt>
      <trkpt lat="41.185683" lon="-3.579167">
        <ele>1286.0</ele>
        <time>2018-07-21T13:52:06Z</time>
      </trkpt>
      <trkpt lat="41.185733" lon="-3.579117">
        <ele>1286.0</ele>
        <time>2018-07-21T13:52:07Z</time>
      </trkpt>
      <trkpt lat="41.185767" lon="-3.579067">
        <ele>1286.0</ele>
        <time>2018-07-21T13:52:08Z</time>
      </trkpt>
      <trkpt lat="41.185817" lon="-3.579033">
        <ele>1285.0</ele>
        <time>2018-07-21T13:52:09Z</time>
      </trkpt>
      <trkpt lat="41.185883" lon="-3.579000">
        <ele>1283.0</ele>
        <time>2018-07-21T13:52:10Z</time>
      </trkpt>
      <trkpt lat="41.185933" lon="-3.578983">
        <ele>1282.0</ele>
        <time>2018-07-21T13:52:11Z</time>
      </trkpt>
      <trkpt lat="41.186000" lon="-3.578983">
        <ele>1281.0</ele>
        <time>2018-07-21T13:52:12Z</time>
      </trkpt>
      <trkpt lat="41.186050" lon="-3.578967">
        <ele>1280.0</ele>
        <time>2018-07-21T13:52:13Z</time>
      </trkpt>
      <trkpt lat="41.186100" lon="-3.578950">
        <ele>1279.0</ele>
        <time>2018-07-21T13:52:14Z</time>
      </trkpt>
      <trkpt lat="41.186150" lon="-3.578933">
        <ele>1278.0</ele>
        <time>2018-07-21T13:52:15Z</time>
      </trkpt>
      <trkpt lat="41.186217" lon="-3.578933">
        <ele>1275.0</ele>
        <time>2018-07-21T13:52:16Z</time>
      </trkpt>
      <trkpt lat="41.186267" lon="-3.578950">
        <ele>1273.0</ele>
        <time>2018-07-21T13:52:17Z</time>
      </trkpt>
      <trkpt lat="41.186333" lon="-3.578950">
        <ele>1271.0</ele>
        <time>2018-07-21T13:52:18Z</time>
      </trkpt>
      <trkpt lat="41.186400" lon="-3.578967">
        <ele>1270.0</ele>
        <time>2018-07-21T13:52:19Z</time>
      </trkpt>
      <trkpt lat="41.186450" lon="-3.578983">
        <ele>1268.0</ele>
        <time>2018-07-21T13:52:20Z</time>
      </trkpt>
      <trkpt lat="41.186517" lon="-3.578983">
        <ele>1266.0</ele>
        <time>2018-07-21T13:52:21Z</time>
      </trkpt>
      <trkpt lat="41.186583" lon="-3.578983">
        <ele>1265.0</ele>
        <time>2018-07-21T13:52:22Z</time>
      </trkpt>
      <trkpt lat="41.186650" lon="-3.579000">
        <ele>1263.0</ele>
        <time>2018-07-21T13:52:23Z</time>
      </trkpt>
      <trkpt lat="41.186700" lon="-3.579017">
        <ele>1262.0</ele>
        <time>2018-07-21T13:52:24Z</time>
      </trkpt>
      <trkpt lat="41.186750" lon="-3.579050">
        <ele>1261.0</ele>
        <time>2018-07-21T13:52:25Z</time>
      </trkpt>
      <trkpt lat="41.186800" lon="-3.579083">
        <ele>1260.0</ele>
        <time>2018-07-21T13:52:26Z</time>
      </trkpt>
      <trkpt lat="41.186833" lon="-3.579133">
        <ele>1259.0</ele>
        <time>2018-07-21T13:52:27Z</time>
      </trkpt>
      <trkpt lat="41.186900" lon="-3.579183">
        <ele>1258.0</ele>
        <time>2018-07-21T13:52:28Z</time>
      </trkpt>
      <trkpt lat="41.186950" lon="-3.579233">
        <ele>1258.0</ele>
        <time>2018-07-21T13:52:29Z</time>
      </trkpt>
      <trkpt lat="41.187017" lon="-3.579283">
        <ele>1257.0</ele>
        <time>2018-07-21T13:52:30Z</time>
      </trkpt>
      <trkpt lat="41.187083" lon="-3.579333">
        <ele>1256.0</ele>
        <time>2018-07-21T13:52:31Z</time>
      </trkpt>
      <trkpt lat="41.187150" lon="-3.579367">
        <ele>1256.0</ele>
        <time>2018-07-21T13:52:32Z</time>
      </trkpt>
      <trkpt lat="41.187200" lon="-3.579400">
        <ele>1255.0</ele>
        <time>2018-07-21T13:52:33Z</time>
      </trkpt>
      <trkpt lat="41.187250" lon="-3.579433">
        <ele>1254.0</ele>
        <time>2018-07-21T13:52:34Z</time>
      </trkpt>
      <trkpt lat="41.187300" lon="-3.579467">
        <ele>1252.0</ele>
        <time>2018-07-21T13:52:35Z</time>
      </trkpt>
      <trkpt lat="41.187350" lon="-3.579517">
        <ele>1250.0</ele>
        <time>2018-07-21T13:52:36Z</time>
      </trkpt>
      <trkpt lat="41.187417" lon="-3.579567">
        <ele>1249.0</ele>
        <time>2018-07-21T13:52:37Z</time>
      </trkpt>
      <trkpt lat="41.187467" lon="-3.579600">
        <ele>1247.0</ele>
        <time>2018-07-21T13:52:38Z</time>
      </trkpt>
      <trkpt lat="41.187533" lon="-3.579633">
        <ele>1246.0</ele>
        <time>2018-07-21T13:52:39Z</time>
      </trkpt>
      <trkpt lat="41.187600" lon="-3.579650">
        <ele>1245.0</ele>
        <time>2018-07-21T13:52:40Z</time>
      </trkpt>
      <trkpt lat="41.187667" lon="-3.579650">
        <ele>1245.0</ele>
        <time>2018-07-21T13:52:41Z</time>
      </trkpt>
      <trkpt lat="41.187717" lon="-3.579667">
        <ele>1244.0</ele>
        <time>2018-07-21T13:52:42Z</time>
      </trkpt>
      <trkpt lat="41.187767" lon="-3.579700">
        <ele>1242.0</ele>
        <time>2018-07-21T13:52:43Z</time>
      </trkpt>
      <trkpt lat="41.187817" lon="-3.579733">
        <ele>1240.0</ele>
        <time>2018-07-21T13:52:44Z</time>
      </trkpt>
      <trkpt lat="41.187867" lon="-3.579767">
        <ele>1237.0</ele>
        <time>2018-07-21T13:52:45Z</time>
      </trkpt>
      <trkpt lat="41.187933" lon="-3.579833">
        <ele>1235.0</ele>
        <time>2018-07-21T13:52:46Z</time>
      </trkpt>
      <trkpt lat="41.187983" lon="-3.579900">
        <ele>1234.0</ele>
        <time>2018-07-21T13:52:47Z</time>
      </trkpt>
      <trkpt lat="41.188033" lon="-3.579967">
        <ele>1233.0</ele>
        <time>2018-07-21T13:52:48Z</time>
      </trkpt>
      <trkpt lat="41.188050" lon="-3.580033">
        <ele>1234.0</ele>
        <time>2018-07-21T13:52:49Z</time>
      </trkpt>
      <trkpt lat="41.188083" lon="-3.580100">
        <ele>1233.0</ele>
        <time>2018-07-21T13:52:50Z</time>
      </trkpt>
      <trkpt lat="41.188100" lon="-3.580167">
        <ele>1232.0</ele>
        <time>2018-07-21T13:52:51Z</time>
      </trkpt>
      <trkpt lat="41.188100" lon="-3.580250">
        <ele>1231.0</ele>
        <time>2018-07-21T13:52:52Z</time>
      </trkpt>
      <trkpt lat="41.188117" lon="-3.580333">
        <ele>1230.0</ele>
        <time>2018-07-21T13:52:53Z</time>
      </trkpt>
      <trkpt lat="41.188117" lon="-3.580417">
        <ele>1229.0</ele>
        <time>2018-07-21T13:52:54Z</time>
      </trkpt>
      <trkpt lat="41.188117" lon="-3.580500">
        <ele>1229.0</ele>
        <time>2018-07-21T13:52:55Z</time>
      </trkpt>
      <trkpt lat="41.188100" lon="-3.580567">
        <ele>1228.0</ele>
        <time>2018-07-21T13:52:56Z</time>
      </trkpt>
      <trkpt lat="41.188083" lon="-3.580650">
        <ele>1227.0</ele>
        <time>2018-07-21T13:52:57Z</time>
      </trkpt>
      <trkpt lat="41.188050" lon="-3.580733">
        <ele>1227.0</ele>
        <time>2018-07-21T13:52:58Z</time>
      </trkpt>
      <trkpt lat="41.187983" lon="-3.580800">
        <ele>1226.0</ele>
        <time>2018-07-21T13:52:59Z</time>
      </trkpt>
      <trkpt lat="41.187917" lon="-3.580867">
        <ele>1225.0</ele>
        <time>2018-07-21T13:53:00Z</time>
      </trkpt>
      <trkpt lat="41.187833" lon="-3.580917">
        <ele>1224.0</ele>
        <time>2018-07-21T13:53:01Z</time>
      </trkpt>
      <trkpt lat="41.187733" lon="-3.580967">
        <ele>1224.0</ele>
        <time>2018-07-21T13:53:02Z</time>
      </trkpt>
      <trkpt lat="41.187633" lon="-3.581017">
        <ele>1224.0</ele>
        <time>2018-07-21T13:53:03Z</time>
      </trkpt>
      <trkpt lat="41.187533" lon="-3.581033">
        <ele>1225.0</ele>
        <time>2018-07-21T13:53:04Z</time>
      </trkpt>
      <trkpt lat="41.187450" lon="-3.581033">
        <ele>1226.0</ele>
        <time>2018-07-21T13:53:05Z</time>
      </trkpt>
      <trkpt lat="41.187350" lon="-3.581000">
        <ele>1225.0</ele>
        <time>2018-07-21T13:53:06Z</time>
      </trkpt>
      <trkpt lat="41.187233" lon="-3.580967">
        <ele>1223.0</ele>
        <time>2018-07-21T13:53:07Z</time>
      </trkpt>
      <trkpt lat="41.187133" lon="-3.580933">
        <ele>1221.0</ele>
        <time>2018-07-21T13:53:08Z</time>
      </trkpt>
      <trkpt lat="41.187000" lon="-3.580883">
        <ele>1220.0</ele>
        <time>2018-07-21T13:53:09Z</time>
      </trkpt>
      <trkpt lat="41.186900" lon="-3.580817">
        <ele>1220.0</ele>
        <time>2018-07-21T13:53:10Z</time>
      </trkpt>
      <trkpt lat="41.186783" lon="-3.580750">
        <ele>1220.0</ele>
        <time>2018-07-21T13:53:11Z</time>
      </trkpt>
      <trkpt lat="41.186683" lon="-3.580683">
        <ele>1219.0</ele>
        <time>2018-07-21T13:53:12Z</time>
      </trkpt>
      <trkpt lat="41.186583" lon="-3.580617">
        <ele>1218.0</ele>
        <time>2018-07-21T13:53:13Z</time>
      </trkpt>
      <trkpt lat="41.186467" lon="-3.580533">
        <ele>1216.0</ele>
        <time>2018-07-21T13:53:14Z</time>
      </trkpt>
      <trkpt lat="41.186350" lon="-3.580450">
        <ele>1215.0</ele>
        <time>2018-07-21T13:53:15Z</time>
      </trkpt>
      <trkpt lat="41.186217" lon="-3.580367">
        <ele>1215.0</ele>
        <time>2018-07-21T13:53:16Z</time>
      </trkpt>
      <trkpt lat="41.186100" lon="-3.580300">
        <ele>1216.0</ele>
        <time>2018-07-21T13:53:17Z</time>
      </trkpt>
      <trkpt lat="41.186000" lon="-3.580250">
        <ele>1217.0</ele>
        <time>2018-07-21T13:53:18Z</time>
      </trkpt>
      <trkpt lat="41.185900" lon="-3.580233">
        <ele>1217.0</ele>
        <time>2018-07-21T13:53:19Z</time>
      </trkpt>
      <trkpt lat="41.185800" lon="-3.580200">
        <ele>1218.0</ele>
        <time>2018-07-21T13:53:20Z</time>
      </trkpt>
      <trkpt lat="41.185700" lon="-3.580167">
        <ele>1217.0</ele>
        <time>2018-07-21T13:53:21Z</time>
      </trkpt>
      <trkpt lat="41.185600" lon="-3.580117">
        <ele>1215.0</ele>
        <time>2018-07-21T13:53:22Z</time>
      </trkpt>
      <trkpt lat="41.185483" lon="-3.580083">
        <ele>1213.0</ele>
        <time>2018-07-21T13:53:23Z</time>
      </trkpt>
      <trkpt lat="41.185367" lon="-3.580067">
        <ele>1212.0</ele>
        <time>2018-07-21T13:53:24Z</time>
      </trkpt>
      <trkpt lat="41.185267" lon="-3.580083">
        <ele>1210.0</ele>
        <time>2018-07-21T13:53:25Z</time>
      </trkpt>
      <trkpt lat="41.185167" lon="-3.580117">
        <ele>1209.0</ele>
        <time>2018-07-21T13:53:26Z</time>
      </trkpt>
      <trkpt lat="41.185067" lon="-3.580167">
        <ele>1207.0</ele>
        <time>2018-07-21T13:53:27Z</time>
      </trkpt>
      <trkpt lat="41.184967" lon="-3.580233">
        <ele>1207.0</ele>
        <time>2018-07-21T13:53:28Z</time>
      </trkpt>
      <trkpt lat="41.184883" lon="-3.580300">
        <ele>1207.0</ele>
        <time>2018-07-21T13:53:29Z</time>
      </trkpt>
      <trkpt lat="41.184800" lon="-3.580350">
        <ele>1209.0</ele>
        <time>2018-07-21T13:53:30Z</time>
      </trkpt>
      <trkpt lat="41.184717" lon="-3.580383">
        <ele>1210.0</ele>
        <time>2018-07-21T13:53:31Z</time>
      </trkpt>
      <trkpt lat="41.184650" lon="-3.580417">
        <ele>1209.0</ele>
        <time>2018-07-21T13:53:32Z</time>
      </trkpt>
      <trkpt lat="41.184583" lon="-3.580450">
        <ele>1209.0</ele>
        <time>2018-07-21T13:53:33Z</time>
      </trkpt>
      <trkpt lat="41.184533" lon="-3.580500">
        <ele>1207.0</ele>
        <time>2018-07-21T13:53:34Z</time>
      </trkpt>
      <trkpt lat="41.184500" lon="-3.580567">
        <ele>1205.0</ele>
        <time>2018-07-21T13:53:35Z</time>
      </trkpt>
      <trkpt lat="41.184467" lon="-3.580650">
        <ele>1204.0</ele>
        <time>2018-07-21T13:53:36Z</time>
      </trkpt>
      <trkpt lat="41.184450" lon="-3.580717">
        <ele>1203.0</ele>
        <time>2018-07-21T13:53:37Z</time>
      </trkpt>
      <trkpt lat="41.184417" lon="-3.580767">
        <ele>1202.0</ele>
        <time>2018-07-21T13:53:38Z</time>
      </trkpt>
      <trkpt lat="41.184383" lon="-3.580833">
        <ele>1201.0</ele>
        <time>2018-07-21T13:53:39Z</time>
      </trkpt>
      <trkpt lat="41.184333" lon="-3.580900">
        <ele>1200.0</ele>
        <time>2018-07-21T13:53:40Z</time>
      </trkpt>
      <trkpt lat="41.184283" lon="-3.580950">
        <ele>1199.0</ele>
        <time>2018-07-21T13:53:41Z</time>
      </trkpt>
      <trkpt lat="41.184217" lon="-3.581000">
        <ele>1198.0</ele>
        <time>2018-07-21T13:53:42Z</time>
      </trkpt>
      <trkpt lat="41.184167" lon="-3.581067">
        <ele>1197.0</ele>
        <time>2018-07-21T13:53:43Z</time>
      </trkpt>
      <trkpt lat="41.184133" lon="-3.581117">
        <ele>1196.0</ele>
        <time>2018-07-21T13:53:44Z</time>
      </trkpt>
      <trkpt lat="41.184133" lon="-3.581200">
        <ele>1194.0</ele>
        <time>2018-07-21T13:53:45Z</time>
      </trkpt>
      <trkpt lat="41.184183" lon="-3.581267">
        <ele>1192.0</ele>
        <time>2018-07-21T13:53:46Z</time>
      </trkpt>
      <trkpt lat="41.184250" lon="-3.581300">
        <ele>1191.0</ele>
        <time>2018-07-21T13:53:47Z</time>
      </trkpt>
      <trkpt lat="41.184333" lon="-3.581300">
        <ele>1191.0</ele>
        <time>2018-07-21T13:53:48Z</time>
      </trkpt>
      <trkpt lat="41.184400" lon="-3.581250">
        <ele>1191.0</ele>
        <time>2018-07-21T13:53:49Z</time>
      </trkpt>
      <trkpt lat="41.184450" lon="-3.581183">
        <ele>1192.0</ele>
        <time>2018-07-21T13:53:50Z</time>
      </trkpt>
      <trkpt lat="41.184500" lon="-3.581133">
        <ele>1191.0</ele>
        <time>2018-07-21T13:53:51Z</time>
      </trkpt>
      <trkpt lat="41.184550" lon="-3.581100">
        <ele>1190.0</ele>
        <time>2018-07-21T13:53:52Z</time>
      </trkpt>
      <trkpt lat="41.184617" lon="-3.581083">
        <ele>1187.0</ele>
        <time>2018-07-21T13:53:53Z</time>
      </trkpt>
      <trkpt lat="41.184683" lon="-3.581100">
        <ele>1184.0</ele>
        <time>2018-07-21T13:53:54Z</time>
      </trkpt>
      <trkpt lat="41.184750" lon="-3.581133">
        <ele>1182.0</ele>
        <time>2018-07-21T13:53:55Z</time>
      </trkpt>
      <trkpt lat="41.184800" lon="-3.581183">
        <ele>1181.0</ele>
        <time>2018-07-21T13:53:56Z</time>
      </trkpt>
      <trkpt lat="41.184850" lon="-3.581233">
        <ele>1180.0</ele>
        <time>2018-07-21T13:53:57Z</time>
      </trkpt>
      <trkpt lat="41.184883" lon="-3.581283">
        <ele>1179.0</ele>
        <time>2018-07-21T13:53:58Z</time>
      </trkpt>
      <trkpt lat="41.184900" lon="-3.581350">
        <ele>1178.0</ele>
        <time>2018-07-21T13:53:59Z</time>
      </trkpt>
      <trkpt lat="41.184917" lon="-3.581433">
        <ele>1177.0</ele>
        <time>2018-07-21T13:54:00Z</time>
      </trkpt>
      <trkpt lat="41.184933" lon="-3.581517">
        <ele>1176.0</ele>
        <time>2018-07-21T13:54:01Z</time>
      </trkpt>
      <trkpt lat="41.184933" lon="-3.581583">
        <ele>1175.0</ele>
        <time>2018-07-21T13:54:02Z</time>
      </trkpt>
      <trkpt lat="41.184933" lon="-3.581667">
        <ele>1175.0</ele>
        <time>2018-07-21T13:54:03Z</time>
      </trkpt>
      <trkpt lat="41.184950" lon="-3.581733">
        <ele>1175.0</ele>
        <time>2018-07-21T13:54:04Z</time>
      </trkpt>
      <trkpt lat="41.184950" lon="-3.581800">
        <ele>1173.0</ele>
        <time>2018-07-21T13:54:05Z</time>
      </trkpt>
      <trkpt lat="41.184983" lon="-3.581850">
        <ele>1171.0</ele>
        <time>2018-07-21T13:54:06Z</time>
      </trkpt>
      <trkpt lat="41.185033" lon="-3.581917">
        <ele>1169.0</ele>
        <time>2018-07-21T13:54:07Z</time>
      </trkpt>
      <trkpt lat="41.185083" lon="-3.581967">
        <ele>1167.0</ele>
        <time>2018-07-21T13:54:08Z</time>
      </trkpt>
      <trkpt lat="41.185133" lon="-3.582050">
        <ele>1165.0</ele>
        <time>2018-07-21T13:54:09Z</time>
      </trkpt>
      <trkpt lat="41.185183" lon="-3.582117">
        <ele>1164.0</ele>
        <time>2018-07-21T13:54:10Z</time>
      </trkpt>
      <trkpt lat="41.185233" lon="-3.582183">
        <ele>1164.0</ele>
        <time>2018-07-21T13:54:11Z</time>
      </trkpt>
      <trkpt lat="41.185283" lon="-3.582233">
        <ele>1163.0</ele>
        <time>2018-07-21T13:54:12Z</time>
      </trkpt>
      <trkpt lat="41.185350" lon="-3.582283">
        <ele>1162.0</ele>
        <time>2018-07-21T13:54:13Z</time>
      </trkpt>
      <trkpt lat="41.185400" lon="-3.582350">
        <ele>1160.0</ele>
        <time>2018-07-21T13:54:14Z</time>
      </trkpt>
      <trkpt lat="41.185433" lon="-3.582417">
        <ele>1159.0</ele>
        <time>2018-07-21T13:54:15Z</time>
      </trkpt>
      <trkpt lat="41.185467" lon="-3.582450">
        <ele>1160.0</ele>
        <time>2018-07-21T13:54:16Z</time>
      </trkpt>
      <trkpt lat="41.185500" lon="-3.582500">
        <ele>1160.0</ele>
        <time>2018-07-21T13:54:17Z</time>
      </trkpt>
      <trkpt lat="41.185517" lon="-3.582517">
        <ele>1159.0</ele>
        <time>2018-07-21T13:54:18Z</time>
      </trkpt>
      <trkpt lat="41.185533" lon="-3.582533">
        <ele>1159.0</ele>
        <time>2018-07-21T13:54:19Z</time>
      </trkpt>
      <trkpt lat="41.185550" lon="-3.582533">
        <ele>1159.0</ele>
        <time>2018-07-21T13:54:20Z</time>
      </trkpt>
      <trkpt lat="41.185550" lon="-3.582550">
        <ele>1158.0</ele>
        <time>2018-07-21T13:54:21Z</time>
      </trkpt>
      <trkpt lat="41.185567" lon="-3.582550">
        <ele>1158.0</ele>
        <time>2018-07-21T13:54:22Z</time>
      </trkpt>
      <trkpt lat="41.185567" lon="-3.582550">
        <ele>1158.0</ele>
        <time>2018-07-21T13:54:23Z</time>
      </trkpt>
      <trkpt lat="41.185583" lon="-3.582567">
        <ele>1158.0</ele>
        <time>2018-07-21T13:54:24Z</time>
      </trkpt>
      <trkpt lat="41.185583" lon="-3.582567">
        <ele>1158.0</ele>
        <time>2018-07-21T13:54:25Z</time>
      </trkpt>
      <trkpt lat="41.185567" lon="-3.582567">
        <ele>1157.0</ele>
        <time>2018-07-21T13:54:26Z</time>
      </trkpt>
      <trkpt lat="41.185567" lon="-3.582583">
        <ele>1157.0</ele>
        <time>2018-07-21T13:54:27Z</time>
      </trkpt>
      <trkpt lat="41.185567" lon="-3.582567">
        <ele>1157.0</ele>
        <time>2018-07-21T13:54:28Z</time>
      </trkpt>
      <trkpt lat="41.185567" lon="-3.582567">
        <ele>1157.0</ele>
        <time>2018-07-21T13:54:29Z</time>
      </trkpt>
      <trkpt lat="41.185567" lon="-3.582567">
        <ele>1157.0</ele>
        <time>2018-07-21T13:54:30Z</time>
      </trkpt>
      <trkpt lat="41.185567" lon="-3.582567">
        <ele>1157.0</ele>
        <time>2018-07-21T13:54:31Z</time>
      </trkpt>
      <trkpt lat="41.185567" lon="-3.582567">
        <ele>1157.0</ele>
        <time>2018-07-21T13:54:32Z</time>
      </trkpt>
      <trkpt lat="41.185567" lon="-3.582567">
        <ele>1156.0</ele>
        <time>2018-07-21T13:54:33Z</time>
      </trkpt>
      <trkpt lat="41.185567" lon="-3.582567">
        <ele>1156.0</ele>
        <time>2018-07-21T13:54:34Z</time>
      </trkpt>
      <trkpt lat="41.185567" lon="-3.582567">
        <ele>1156.0</ele>
        <time>2018-07-21T13:54:35Z</time>
      </trkpt>
      <trkpt lat="41.185567" lon="-3.582567">
        <ele>1155.0</ele>
        <time>2018-07-21T13:54:36Z</time>
      </trkpt>
      <trkpt lat="41.185567" lon="-3.582567">
        <ele>1155.0</ele>
        <time>2018-07-21T13:54:37Z</time>
      </trkpt>
      <trkpt lat="41.185567" lon="-3.582567">
        <ele>1155.0</ele>
        <time>2018-07-21T13:54:38Z</time>
      </trkpt>
      <trkpt lat="41.185567" lon="-3.582567">
        <ele>1155.0</ele>
        <time>2018-07-21T13:54:39Z</time>
      </trkpt>
      <trkpt lat="41.185567" lon="-3.582567">
        <ele>1154.0</ele>
        <time>2018-07-21T13:54:40Z</time>
      </trkpt>
      <trkpt lat="41.185567" lon="-3.582550">
        <ele>1154.0</ele>
        <time>2018-07-21T13:54:41Z</time>
      </trkpt>
      <trkpt lat="41.185550" lon="-3.582550">
        <ele>1154.0</ele>
        <time>2018-07-21T13:54:42Z</time>
      </trkpt>
      <trkpt lat="41.185550" lon="-3.582550">
        <ele>1154.0</ele>
        <time>2018-07-21T13:54:43Z</time>
      </trkpt>
      <trkpt lat="41.185550" lon="-3.582550">
        <ele>1154.0</ele>
        <time>2018-07-21T13:54:44Z</time>
      </trkpt>
      <trkpt lat="41.185567" lon="-3.582550">
        <ele>1154.0</ele>
        <time>2018-07-21T13:54:45Z</time>
      </trkpt>
      <trkpt lat="41.185567" lon="-3.582550">
        <ele>1154.0</ele>
        <time>2018-07-21T13:54:46Z</time>
      </trkpt>
      <trkpt lat="41.185567" lon="-3.582533">
        <ele>1155.0</ele>
        <time>2018-07-21T13:54:47Z</time>
      </trkpt>
      <trkpt lat="41.185567" lon="-3.582533">
        <ele>1155.0</ele>
        <time>2018-07-21T13:54:48Z</time>
      </trkpt>
      <trkpt lat="41.185567" lon="-3.582517">
        <ele>1155.0</ele>
        <time>2018-07-21T13:54:49Z</time>
      </trkpt>
      <trkpt lat="41.185567" lon="-3.582517">
        <ele>1155.0</ele>
        <time>2018-07-21T13:54:50Z</time>
      </trkpt>
      <trkpt lat="41.185567" lon="-3.582517">
        <ele>1155.0</ele>
        <time>2018-07-21T13:54:51Z</time>
      </trkpt>
      <trkpt lat="41.185567" lon="-3.582517">
        <ele>1155.0</ele>
        <time>2018-07-21T13:54:52Z</time>
      </trkpt>
      <trkpt lat="41.185567" lon="-3.582517">
        <ele>1155.0</ele>
        <time>2018-07-21T13:54:53Z</time>
      </trkpt>
      <trkpt lat="41.185567" lon="-3.582517">
        <ele>1156.0</ele>
        <time>2018-07-21T13:54:54Z</time>
      </trkpt>
      <trkpt lat="41.185567" lon="-3.582500">
        <ele>1156.0</ele>
        <time>2018-07-21T13:54:55Z</time>
      </trkpt>
      <trkpt lat="41.185567" lon="-3.582500">
        <ele>1156.0</ele>
        <time>2018-07-21T13:54:56Z</time>
      </trkpt>
      <trkpt lat="41.185567" lon="-3.582500">
        <ele>1156.0</ele>
        <time>2018-07-21T13:54:57Z</time>
      </trkpt>
      <trkpt lat="41.185567" lon="-3.582500">
        <ele>1156.0</ele>
        <time>2018-07-21T13:54:58Z</time>
      </trkpt>
      <trkpt lat="41.185567" lon="-3.582500">
        <ele>1156.0</ele>
        <time>2018-07-21T13:54:59Z</time>
      </trkpt>
      <trkpt lat="41.185567" lon="-3.582500">
        <ele>1156.0</ele>
        <time>2018-07-21T13:55:00Z</time>
      </trkpt>
      <trkpt lat="41.185583" lon="-3.582500">
        <ele>1156.0</ele>
        <time>2018-07-21T13:55:01Z</time>
      </trkpt>
      <trkpt lat="41.185583" lon="-3.582500">
        <ele>1156.0</ele>
        <time>2018-07-21T13:55:02Z</time>
      </trkpt>
      <trkpt lat="41.185583" lon="-3.582500">
        <ele>1156.0</ele>
        <time>2018-07-21T13:55:03Z</time>
      </trkpt>
      <trkpt lat="41.185583" lon="-3.582500">
        <ele>1156.0</ele>
        <time>2018-07-21T13:55:04Z</time>
      </trkpt>
      <trkpt lat="41.185567" lon="-3.582500">
        <ele>1156.0</ele>
        <time>2018-07-21T13:55:05Z</time>
      </trkpt>
      <trkpt lat="41.185567" lon="-3.582500">
        <ele>1156.0</ele>
        <time>2018-07-21T13:55:06Z</time>
      </trkpt>
      <trkpt lat="41.185567" lon="-3.582500">
        <ele>1156.0</ele>
        <time>2018-07-21T13:55:07Z</time>
      </trkpt>
      <trkpt lat="41.185567" lon="-3.582500">
        <ele>1156.0</ele>
        <time>2018-07-21T13:55:08Z</time>
      </trkpt>
      <trkpt lat="41.185583" lon="-3.582500">
        <ele>1156.0</ele>
        <time>2018-07-21T13:55:09Z</time>
      </trkpt>
      <trkpt lat="41.185583" lon="-3.582500">
        <ele>1156.0</ele>
        <time>2018-07-21T13:55:10Z</time>
      </trkpt>
      <trkpt lat="41.185583" lon="-3.582500">
        <ele>1156.0</ele>
        <time>2018-07-21T13:55:11Z</time>
      </trkpt>
      <trkpt lat="41.185583" lon="-3.582500">
        <ele>1156.0</ele>
        <time>2018-07-21T13:55:12Z</time>
      </trkpt>
      <trkpt lat="41.185583" lon="-3.582500">
        <ele>1156.0</ele>
        <time>2018-07-21T13:55:13Z</time>
      </trkpt>
      <trkpt lat="41.185567" lon="-3.582500">
        <ele>1156.0</ele>
        <time>2018-07-21T13:55:14Z</time>
      </trkpt>
      <trkpt lat="41.185567" lon="-3.582500">
        <ele>1156.0</ele>
        <time>2018-07-21T13:55:15Z</time>
      </trkpt>
      <trkpt lat="41.185567" lon="-3.582500">
        <ele>1156.0</ele>
        <time>2018-07-21T13:55:16Z</time>
      </trkpt>
      <trkpt lat="41.185567" lon="-3.582500">
        <ele>1156.0</ele>
        <time>2018-07-21T13:55:17Z</time>
      </trkpt>
      <trkpt lat="41.185567" lon="-3.582500">
        <ele>1156.0</ele>
        <time>2018-07-21T13:55:18Z</time>
      </trkpt>
      <trkpt lat="41.185567" lon="-3.582500">
        <ele>1156.0</ele>
        <time>2018-07-21T13:55:19Z</time>
      </trkpt>
      <trkpt lat="41.185567" lon="-3.582500">
        <ele>1156.0</ele>
        <time>2018-07-21T13:55:20Z</time>
      </trkpt>
      <trkpt lat="41.185567" lon="-3.582500">
        <ele>1156.0</ele>
        <time>2018-07-21T13:55:21Z</time>
      </trkpt>
      <trkpt lat="41.185567" lon="-3.582500">
        <ele>1156.0</ele>
        <time>2018-07-21T13:55:22Z</time>
      </trkpt>
      <trkpt lat="41.185567" lon="-3.582500">
        <ele>1156.0</ele>
        <time>2018-07-21T13:55:23Z</time>
      </trkpt>
      <trkpt lat="41.185567" lon="-3.582500">
        <ele>1156.0</ele>
        <time>2018-07-21T13:55:24Z</time>
      </trkpt>
      <trkpt lat="41.185567" lon="-3.582500">
        <ele>1156.0</ele>
        <time>2018-07-21T13:55:25Z</time>
      </trkpt>
      <trkpt lat="41.185567" lon="-3.582517">
        <ele>1156.0</ele>
        <time>2018-07-21T13:55:26Z</time>
      </trkpt>
      <trkpt lat="41.185567" lon="-3.582517">
        <ele>1156.0</ele>
        <time>2018-07-21T13:55:27Z</time>
      </trkpt>
      <trkpt lat="41.185567" lon="-3.582517">
        <ele>1156.0</ele>
        <time>2018-07-21T13:55:28Z</time>
      </trkpt>
      <trkpt lat="41.185567" lon="-3.582517">
        <ele>1156.0</ele>
        <time>2018-07-21T13:55:29Z</time>
      </trkpt>
      <trkpt lat="41.185567" lon="-3.582517">
        <ele>1156.0</ele>
        <time>2018-07-21T13:55:30Z</time>
      </trkpt>
      <trkpt lat="41.185567" lon="-3.582517">
        <ele>1157.0</ele>
        <time>2018-07-21T13:55:31Z</time>
      </trkpt>
      <trkpt lat="41.185567" lon="-3.582517">
        <ele>1157.0</ele>
        <time>2018-07-21T13:55:32Z</time>
      </trkpt>
      <trkpt lat="41.185567" lon="-3.582517">
        <ele>1157.0</ele>
        <time>2018-07-21T13:55:33Z</time>
      </trkpt>
      <trkpt lat="41.185567" lon="-3.582517">
        <ele>1157.0</ele>
        <time>2018-07-21T13:55:34Z</time>
      </trkpt>
      <trkpt lat="41.185567" lon="-3.582517">
        <ele>1158.0</ele>
        <time>2018-07-21T13:55:35Z</time>
      </trkpt>
      <trkpt lat="41.185567" lon="-3.582517">
        <ele>1158.0</ele>
        <time>2018-07-21T13:55:36Z</time>
      </trkpt>
      <trkpt lat="41.185567" lon="-3.582517">
        <ele>1158.0</ele>
        <time>2018-07-21T13:55:37Z</time>
      </trkpt>
      <trkpt lat="41.185567" lon="-3.582517">
        <ele>1158.0</ele>
        <time>2018-07-21T13:55:38Z</time>
      </trkpt>
      <trkpt lat="41.185567" lon="-3.582517">
        <ele>1158.0</ele>
        <time>2018-07-21T13:55:39Z</time>
      </trkpt>
      <trkpt lat="41.185567" lon="-3.582517">
        <ele>1157.0</ele>
        <time>2018-07-21T13:55:40Z</time>
      </trkpt>
      <trkpt lat="41.185567" lon="-3.582517">
        <ele>1157.0</ele>
        <time>2018-07-21T13:55:41Z</time>
      </trkpt>
      <trkpt lat="41.185567" lon="-3.582517">
        <ele>1157.0</ele>
        <time>2018-07-21T13:55:42Z</time>
      </trkpt>
      <trkpt lat="41.185567" lon="-3.582517">
        <ele>1157.0</ele>
        <time>2018-07-21T13:55:43Z</time>
      </trkpt>
      <trkpt lat="41.185567" lon="-3.582517">
        <ele>1157.0</ele>
        <time>2018-07-21T13:55:44Z</time>
      </trkpt>
      <trkpt lat="41.185567" lon="-3.582517">
        <ele>1157.0</ele>
        <time>2018-07-21T13:55:45Z</time>
      </trkpt>
      <trkpt lat="41.185567" lon="-3.582517">
        <ele>1157.0</ele>
        <time>2018-07-21T13:55:46Z</time>
      </trkpt>
      <trkpt lat="41.185567" lon="-3.582517">
        <ele>1156.0</ele>
        <time>2018-07-21T13:55:47Z</time>
      </trkpt>
      <trkpt lat="41.185567" lon="-3.582517">
        <ele>1157.0</ele>
        <time>2018-07-21T13:55:48Z</time>
      </trkpt>
      <trkpt lat="41.185567" lon="-3.582517">
        <ele>1157.0</ele>
        <time>2018-07-21T13:55:49Z</time>
      </trkpt>
      <trkpt lat="41.185567" lon="-3.582517">
        <ele>1157.0</ele>
        <time>2018-07-21T13:55:50Z</time>
      </trkpt>
      <trkpt lat="41.185567" lon="-3.582517">
        <ele>1157.0</ele>
        <time>2018-07-21T13:55:51Z</time>
      </trkpt>
      <trkpt lat="41.185567" lon="-3.582517">
        <ele>1157.0</ele>
        <time>2018-07-21T13:55:52Z</time>
      </trkpt>
      <trkpt lat="41.185567" lon="-3.582517">
        <ele>1157.0</ele>
        <time>2018-07-21T13:55:53Z</time>
      </trkpt>
      <trkpt lat="41.185567" lon="-3.582517">
        <ele>1157.0</ele>
        <time>2018-07-21T13:55:54Z</time>
      </trkpt>
      <trkpt lat="41.185567" lon="-3.582517">
        <ele>1157.0</ele>
        <time>2018-07-21T13:55:55Z</time>
      </trkpt>
      <trkpt lat="41.185567" lon="-3.582517">
        <ele>1157.0</ele>
        <time>2018-07-21T13:55:56Z</time>
      </trkpt>
      <trkpt lat="41.185567" lon="-3.582517">
        <ele>1157.0</ele>
        <time>2018-07-21T13:55:57Z</time>
      </trkpt>
      <trkpt lat="41.185567" lon="-3.582517">
        <ele>1158.0</ele>
        <time>2018-07-21T13:55:58Z</time>
      </trkpt>
      <trkpt lat="41.185567" lon="-3.582517">
        <ele>1158.0</ele>
        <time>2018-07-21T13:55:59Z</time>
      </trkpt>
      <trkpt lat="41.185567" lon="-3.582517">
        <ele>1158.0</ele>
        <time>2018-07-21T13:56:00Z</time>
      </trkpt>
      <trkpt lat="41.185567" lon="-3.582517">
        <ele>1158.0</ele>
        <time>2018-07-21T13:56:01Z</time>
      </trkpt>
      <trkpt lat="41.185567" lon="-3.582517">
        <ele>1158.0</ele>
        <time>2018-07-21T13:56:02Z</time>
      </trkpt>
      <trkpt lat="41.185567" lon="-3.582533">
        <ele>1158.0</ele>
        <time>2018-07-21T13:56:03Z</time>
      </trkpt>
      <trkpt lat="41.185567" lon="-3.582533">
        <ele>1158.0</ele>
        <time>2018-07-21T13:56:04Z</time>
      </trkpt>
      <trkpt lat="41.185567" lon="-3.582533">
        <ele>1158.0</ele>
        <time>2018-07-21T13:56:05Z</time>
      </trkpt>
      <trkpt lat="41.185567" lon="-3.582533">
        <ele>1158.0</ele>
        <time>2018-07-21T13:56:06Z</time>
      </trkpt>
      <trkpt lat="41.185567" lon="-3.582533">
        <ele>1158.0</ele>
        <time>2018-07-21T13:56:07Z</time>
      </trkpt>
      <trkpt lat="41.185567" lon="-3.582533">
        <ele>1158.0</ele>
        <time>2018-07-21T13:56:08Z</time>
      </trkpt>
      <trkpt lat="41.185567" lon="-3.582533">
        <ele>1158.0</ele>
        <time>2018-07-21T13:56:09Z</time>
      </trkpt>
      <trkpt lat="41.185583" lon="-3.582533">
        <ele>1158.0</ele>
        <time>2018-07-21T13:56:10Z</time>
      </trkpt>
      <trkpt lat="41.185583" lon="-3.582533">
        <ele>1158.0</ele>
        <time>2018-07-21T13:56:11Z</time>
      </trkpt>
      <trkpt lat="41.185583" lon="-3.582533">
        <ele>1158.0</ele>
        <time>2018-07-21T13:56:12Z</time>
      </trkpt>
      <trkpt lat="41.185583" lon="-3.582517">
        <ele>1158.0</ele>
        <time>2018-07-21T13:56:13Z</time>
      </trkpt>
      <trkpt lat="41.185567" lon="-3.582517">
        <ele>1158.0</ele>
        <time>2018-07-21T13:56:14Z</time>
      </trkpt>
      <trkpt lat="41.185567" lon="-3.582533">
        <ele>1157.0</ele>
        <time>2018-07-21T13:56:15Z</time>
      </trkpt>
      <trkpt lat="41.185567" lon="-3.582533">
        <ele>1157.0</ele>
        <time>2018-07-21T13:56:16Z</time>
      </trkpt>
      <trkpt lat="41.185567" lon="-3.582533">
        <ele>1157.0</ele>
        <time>2018-07-21T13:56:17Z</time>
      </trkpt>
      <trkpt lat="41.185567" lon="-3.582533">
        <ele>1157.0</ele>
        <time>2018-07-21T13:56:18Z</time>
      </trkpt>
      <trkpt lat="41.185567" lon="-3.582517">
        <ele>1157.0</ele>
        <time>2018-07-21T13:56:19Z</time>
      </trkpt>
      <trkpt lat="41.185567" lon="-3.582517">
        <ele>1157.0</ele>
        <time>2018-07-21T13:56:20Z</time>
      </trkpt>
      <trkpt lat="41.185567" lon="-3.582517">
        <ele>1157.0</ele>
        <time>2018-07-21T13:56:21Z</time>
      </trkpt>
      <trkpt lat="41.185567" lon="-3.582517">
        <ele>1157.0</ele>
        <time>2018-07-21T13:56:22Z</time>
      </trkpt>
      <trkpt lat="41.185567" lon="-3.582517">
        <ele>1156.0</ele>
        <time>2018-07-21T13:56:23Z</time>
      </trkpt>
      <trkpt lat="41.185567" lon="-3.582517">
        <ele>1156.0</ele>
        <time>2018-07-21T13:56:24Z</time>
      </trkpt>
      <trkpt lat="41.185567" lon="-3.582517">
        <ele>1156.0</ele>
        <time>2018-07-21T13:56:25Z</time>
      </trkpt>
      <trkpt lat="41.185583" lon="-3.582517">
        <ele>1156.0</ele>
        <time>2018-07-21T13:56:26Z</time>
      </trkpt>
      <trkpt lat="41.185583" lon="-3.582517">
        <ele>1156.0</ele>
        <time>2018-07-21T13:56:27Z</time>
      </trkpt>
      <trkpt lat="41.185583" lon="-3.582517">
        <ele>1156.0</ele>
        <time>2018-07-21T13:56:28Z</time>
      </trkpt>
      <trkpt lat="41.185583" lon="-3.582517">
        <ele>1156.0</ele>
        <time>2018-07-21T13:56:29Z</time>
      </trkpt>
      <trkpt lat="41.185583" lon="-3.582517">
        <ele>1156.0</ele>
        <time>2018-07-21T13:56:30Z</time>
      </trkpt>
      <trkpt lat="41.185583" lon="-3.582517">
        <ele>1156.0</ele>
        <time>2018-07-21T13:56:31Z</time>
      </trkpt>
      <trkpt lat="41.185583" lon="-3.582517">
        <ele>1156.0</ele>
        <time>2018-07-21T13:56:32Z</time>
      </trkpt>
      <trkpt lat="41.185583" lon="-3.582517">
        <ele>1156.0</ele>
        <time>2018-07-21T13:56:33Z</time>
      </trkpt>
      <trkpt lat="41.185583" lon="-3.582517">
        <ele>1156.0</ele>
        <time>2018-07-21T13:56:34Z</time>
      </trkpt>
      <trkpt lat="41.185583" lon="-3.582517">
        <ele>1156.0</ele>
        <time>2018-07-21T13:56:35Z</time>
      </trkpt>
      <trkpt lat="41.185583" lon="-3.582517">
        <ele>1156.0</ele>
        <time>2018-07-21T13:56:36Z</time>
      </trkpt>
      <trkpt lat="41.185583" lon="-3.582517">
        <ele>1156.0</ele>
        <time>2018-07-21T13:56:37Z</time>
      </trkpt>
      <trkpt lat="41.185583" lon="-3.582517">
        <ele>1156.0</ele>
        <time>2018-07-21T13:56:38Z</time>
      </trkpt>
      <trkpt lat="41.185583" lon="-3.582517">
        <ele>1156.0</ele>
        <time>2018-07-21T13:56:39Z</time>
      </trkpt>
      <trkpt lat="41.185583" lon="-3.582517">
        <ele>1156.0</ele>
        <time>2018-07-21T13:56:40Z</time>
      </trkpt>
      <trkpt lat="41.185583" lon="-3.582517">
        <ele>1156.0</ele>
        <time>2018-07-21T13:56:41Z</time>
      </trkpt>
      <trkpt lat="41.185583" lon="-3.582517">
        <ele>1156.0</ele>
        <time>2018-07-21T13:56:42Z</time>
      </trkpt>
      <trkpt lat="41.185583" lon="-3.582517">
        <ele>1156.0</ele>
        <time>2018-07-21T13:56:43Z</time>
      </trkpt>
      <trkpt lat="41.185583" lon="-3.582517">
        <ele>1156.0</ele>
        <time>2018-07-21T13:56:44Z</time>
      </trkpt>
      <trkpt lat="41.185583" lon="-3.582517">
        <ele>1156.0</ele>
        <time>2018-07-21T13:56:45Z</time>
      </trkpt>
      <trkpt lat="41.185583" lon="-3.582517">
        <ele>1156.0</ele>
        <time>2018-07-21T13:56:46Z</time>
      </trkpt>
      <trkpt lat="41.185583" lon="-3.582517">
        <ele>1156.0</ele>
        <time>2018-07-21T13:56:47Z</time>
      </trkpt>
      <trkpt lat="41.185583" lon="-3.582517">
        <ele>1155.0</ele>
        <time>2018-07-21T13:56:48Z</time>
      </trkpt>
      <trkpt lat="41.185583" lon="-3.582517">
        <ele>1156.0</ele>
        <time>2018-07-21T13:56:49Z</time>
      </trkpt>
      <trkpt lat="41.185583" lon="-3.582533">
        <ele>1156.0</ele>
        <time>2018-07-21T13:56:50Z</time>
      </trkpt>
      <trkpt lat="41.185567" lon="-3.582533">
        <ele>1156.0</ele>
        <time>2018-07-21T13:56:51Z</time>
      </trkpt>
      <trkpt lat="41.185567" lon="-3.582533">
        <ele>1156.0</ele>
        <time>2018-07-21T13:56:52Z</time>
      </trkpt>
      <trkpt lat="41.185567" lon="-3.582550">
        <ele>1156.0</ele>
        <time>2018-07-21T13:56:53Z</time>
      </trkpt>
      <trkpt lat="41.185567" lon="-3.582550">
        <ele>1155.0</ele>
        <time>2018-07-21T13:56:54Z</time>
      </trkpt>
      <trkpt lat="41.185567" lon="-3.582567">
        <ele>1155.0</ele>
        <time>2018-07-21T13:56:55Z</time>
      </trkpt>
      <trkpt lat="41.185550" lon="-3.582567">
        <ele>1155.0</ele>
        <time>2018-07-21T13:56:56Z</time>
      </trkpt>
      <trkpt lat="41.185550" lon="-3.582567">
        <ele>1155.0</ele>
        <time>2018-07-21T13:56:57Z</time>
      </trkpt>
      <trkpt lat="41.185550" lon="-3.582583">
        <ele>1155.0</ele>
        <time>2018-07-21T13:56:58Z</time>
      </trkpt>
      <trkpt lat="41.185550" lon="-3.582583">
        <ele>1156.0</ele>
        <time>2018-07-21T13:56:59Z</time>
      </trkpt>
      <trkpt lat="41.185533" lon="-3.582583">
        <ele>1156.0</ele>
        <time>2018-07-21T13:57:00Z</time>
      </trkpt>
      <trkpt lat="41.185533" lon="-3.582583">
        <ele>1155.0</ele>
        <time>2018-07-21T13:57:01Z</time>
      </trkpt>
      <trkpt lat="41.185533" lon="-3.582567">
        <ele>1156.0</ele>
        <time>2018-07-21T13:57:02Z</time>
      </trkpt>
      <trkpt lat="41.185533" lon="-3.582567">
        <ele>1156.0</ele>
        <time>2018-07-21T13:57:03Z</time>
      </trkpt>
      <trkpt lat="41.185533" lon="-3.582567">
        <ele>1156.0</ele>
        <time>2018-07-21T13:57:04Z</time>
      </trkpt>
      <trkpt lat="41.185533" lon="-3.582567">
        <ele>1156.0</ele>
        <time>2018-07-21T13:57:05Z</time>
      </trkpt>
      <trkpt lat="41.185533" lon="-3.582567">
        <ele>1155.0</ele>
        <time>2018-07-21T13:57:06Z</time>
      </trkpt>
      <trkpt lat="41.185533" lon="-3.582567">
        <ele>1155.0</ele>
        <time>2018-07-21T13:57:07Z</time>
      </trkpt>
      <trkpt lat="41.185533" lon="-3.582567">
        <ele>1155.0</ele>
        <time>2018-07-21T13:57:08Z</time>
      </trkpt>
      <trkpt lat="41.185533" lon="-3.582567">
        <ele>1155.0</ele>
        <time>2018-07-21T13:57:09Z</time>
      </trkpt>
      <trkpt lat="41.185550" lon="-3.582550">
        <ele>1155.0</ele>
        <time>2018-07-21T13:57:10Z</time>
      </trkpt>
      <trkpt lat="41.185550" lon="-3.582550">
        <ele>1155.0</ele>
        <time>2018-07-21T13:57:11Z</time>
      </trkpt>
      <trkpt lat="41.185550" lon="-3.582550">
        <ele>1155.0</ele>
        <time>2018-07-21T13:57:12Z</time>
      </trkpt>
      <trkpt lat="41.185550" lon="-3.582550">
        <ele>1155.0</ele>
        <time>2018-07-21T13:57:13Z</time>
      </trkpt>
      <trkpt lat="41.185550" lon="-3.582550">
        <ele>1155.0</ele>
        <time>2018-07-21T13:57:14Z</time>
      </trkpt>
      <trkpt lat="41.185550" lon="-3.582550">
        <ele>1155.0</ele>
        <time>2018-07-21T13:57:15Z</time>
      </trkpt>
      <trkpt lat="41.185550" lon="-3.582550">
        <ele>1154.0</ele>
        <time>2018-07-21T13:57:16Z</time>
      </trkpt>
      <trkpt lat="41.185533" lon="-3.582567">
        <ele>1154.0</ele>
        <time>2018-07-21T13:57:17Z</time>
      </trkpt>
      <trkpt lat="41.185550" lon="-3.582567">
        <ele>1154.0</ele>
        <time>2018-07-21T13:57:18Z</time>
      </trkpt>
      <trkpt lat="41.185550" lon="-3.582583">
        <ele>1154.0</ele>
        <time>2018-07-21T13:57:19Z</time>
      </trkpt>
      <trkpt lat="41.185550" lon="-3.582583">
        <ele>1154.0</ele>
        <time>2018-07-21T13:57:20Z</time>
      </trkpt>
      <trkpt lat="41.185550" lon="-3.582583">
        <ele>1154.0</ele>
        <time>2018-07-21T13:57:21Z</time>
      </trkpt>
      <trkpt lat="41.185550" lon="-3.582583">
        <ele>1154.0</ele>
        <time>2018-07-21T13:57:22Z</time>
      </trkpt>
      <trkpt lat="41.185550" lon="-3.582583">
        <ele>1155.0</ele>
        <time>2018-07-21T13:57:23Z</time>
      </trkpt>
      <trkpt lat="41.185550" lon="-3.582583">
        <ele>1154.0</ele>
        <time>2018-07-21T13:57:24Z</time>
      </trkpt>
      <trkpt lat="41.185550" lon="-3.582583">
        <ele>1154.0</ele>
        <time>2018-07-21T13:57:25Z</time>
      </trkpt>
      <trkpt lat="41.185550" lon="-3.582583">
        <ele>1154.0</ele>
        <time>2018-07-21T13:57:26Z</time>
      </trkpt>
      <trkpt lat="41.185550" lon="-3.582600">
        <ele>1155.0</ele>
        <time>2018-07-21T13:57:27Z</time>
      </trkpt>
      <trkpt lat="41.185550" lon="-3.582583">
        <ele>1155.0</ele>
        <time>2018-07-21T13:57:28Z</time>
      </trkpt>
      <trkpt lat="41.185550" lon="-3.582583">
        <ele>1155.0</ele>
        <time>2018-07-21T13:57:29Z</time>
      </trkpt>
      <trkpt lat="41.185550" lon="-3.582583">
        <ele>1155.0</ele>
        <time>2018-07-21T13:57:30Z</time>
      </trkpt>
    </trkseg>
  </trk>
</gpx>
